<?xml version="1.0" encoding="UTF-8" standalone="no" ?>
<gpx xmlns="http://www.topografix.com/GPX/1/1" xmlns:xsi="http://www.w3.org/2001/XMLSchema-instance" xsi:schemaLocation="http://www.topografix.com/GPX/1/1 http://www.topografix.com/GPX/1/1/gpx.xsd" version="1.1" creator="VisuGPX - https://www.visugpx.com">
  <metadata>
    <name>autour d estaing</name>
    <desc><![CDATA[vacance 2013 a estaing]]></desc>
  </metadata>
  <trk>
    <name><![CDATA[autour d estaing_1]]></name>
    <trkseg>
      <trkpt lat="44.56227" lon="2.67958">
        <ele>348</ele>
        <time>2012-06-11T06:46:07Z</time>
      </trkpt>
      <trkpt lat="44.56205" lon="2.67981">
        <ele>348</ele>
        <time>2012-06-11T06:46:33Z</time>
      </trkpt>
      <trkpt lat="44.56203" lon="2.67983">
        <ele>348</ele>
        <time>2012-06-11T06:46:35Z</time>
      </trkpt>
      <trkpt lat="44.56201" lon="2.67986">
        <ele>348</ele>
        <time>2012-06-11T06:46:37Z</time>
      </trkpt>
      <trkpt lat="44.562" lon="2.67988">
        <ele>348</ele>
        <time>2012-06-11T06:46:39Z</time>
      </trkpt>
      <trkpt lat="44.56198" lon="2.67991">
        <ele>348</ele>
        <time>2012-06-11T06:46:41Z</time>
      </trkpt>
      <trkpt lat="44.56198" lon="2.67993">
        <ele>348</ele>
        <time>2012-06-11T06:46:42Z</time>
      </trkpt>
      <trkpt lat="44.56197" lon="2.67995">
        <ele>348</ele>
        <time>2012-06-11T06:46:43Z</time>
      </trkpt>
      <trkpt lat="44.56196" lon="2.67999">
        <ele>348</ele>
        <time>2012-06-11T06:46:45Z</time>
      </trkpt>
      <trkpt lat="44.56195" lon="2.68001">
        <ele>348</ele>
        <time>2012-06-11T06:46:46Z</time>
      </trkpt>
      <trkpt lat="44.56194" lon="2.68003">
        <ele>348</ele>
        <time>2012-06-11T06:46:47Z</time>
      </trkpt>
      <trkpt lat="44.56194" lon="2.68005">
        <ele>348</ele>
        <time>2012-06-11T06:46:48Z</time>
      </trkpt>
      <trkpt lat="44.56193" lon="2.68007">
        <ele>349</ele>
        <time>2012-06-11T06:46:49Z</time>
      </trkpt>
      <trkpt lat="44.56192" lon="2.68008">
        <ele>350</ele>
        <time>2012-06-11T06:46:50Z</time>
      </trkpt>
      <trkpt lat="44.5619" lon="2.68011">
        <ele>351</ele>
        <time>2012-06-11T06:46:51Z</time>
      </trkpt>
      <trkpt lat="44.56189" lon="2.68013">
        <ele>352</ele>
        <time>2012-06-11T06:46:52Z</time>
      </trkpt>
      <trkpt lat="44.56188" lon="2.68014">
        <ele>352</ele>
        <time>2012-06-11T06:46:53Z</time>
      </trkpt>
      <trkpt lat="44.56186" lon="2.68017">
        <ele>352</ele>
        <time>2012-06-11T06:46:54Z</time>
      </trkpt>
      <trkpt lat="44.56184" lon="2.68019">
        <ele>353</ele>
        <time>2012-06-11T06:46:55Z</time>
      </trkpt>
      <trkpt lat="44.56184" lon="2.68022">
        <ele>353</ele>
        <time>2012-06-11T06:46:56Z</time>
      </trkpt>
      <trkpt lat="44.56181" lon="2.68024">
        <ele>354</ele>
        <time>2012-06-11T06:46:58Z</time>
      </trkpt>
      <trkpt lat="44.56181" lon="2.68025">
        <ele>354</ele>
        <time>2012-06-11T06:46:59Z</time>
      </trkpt>
      <trkpt lat="44.56179" lon="2.68027">
        <ele>355</ele>
        <time>2012-06-11T06:47:00Z</time>
      </trkpt>
      <trkpt lat="44.56177" lon="2.68029">
        <ele>355</ele>
        <time>2012-06-11T06:47:01Z</time>
      </trkpt>
      <trkpt lat="44.56176" lon="2.6803">
        <ele>355</ele>
        <time>2012-06-11T06:47:02Z</time>
      </trkpt>
      <trkpt lat="44.56174" lon="2.68031">
        <ele>355</ele>
        <time>2012-06-11T06:47:03Z</time>
      </trkpt>
      <trkpt lat="44.56172" lon="2.68032">
        <ele>355</ele>
        <time>2012-06-11T06:47:04Z</time>
      </trkpt>
      <trkpt lat="44.56171" lon="2.68034">
        <ele>355</ele>
        <time>2012-06-11T06:47:05Z</time>
      </trkpt>
      <trkpt lat="44.5617" lon="2.68035">
        <ele>355</ele>
        <time>2012-06-11T06:47:06Z</time>
      </trkpt>
      <trkpt lat="44.56168" lon="2.68035">
        <ele>355</ele>
        <time>2012-06-11T06:47:07Z</time>
      </trkpt>
      <trkpt lat="44.56167" lon="2.68037">
        <ele>355</ele>
        <time>2012-06-11T06:47:08Z</time>
      </trkpt>
      <trkpt lat="44.56165" lon="2.68036">
        <ele>355</ele>
        <time>2012-06-11T06:47:09Z</time>
      </trkpt>
      <trkpt lat="44.56164" lon="2.68037">
        <ele>355</ele>
        <time>2012-06-11T06:47:10Z</time>
      </trkpt>
      <trkpt lat="44.56161" lon="2.68037">
        <ele>355</ele>
        <time>2012-06-11T06:47:12Z</time>
      </trkpt>
      <trkpt lat="44.5616" lon="2.68038">
        <ele>355</ele>
        <time>2012-06-11T06:47:13Z</time>
      </trkpt>
      <trkpt lat="44.56158" lon="2.68039">
        <ele>353</ele>
        <time>2012-06-11T06:47:15Z</time>
      </trkpt>
      <trkpt lat="44.56157" lon="2.68039">
        <ele>353</ele>
        <time>2012-06-11T06:47:16Z</time>
      </trkpt>
      <trkpt lat="44.56154" lon="2.68041">
        <ele>352</ele>
        <time>2012-06-11T06:47:18Z</time>
      </trkpt>
      <trkpt lat="44.56153" lon="2.68042">
        <ele>351</ele>
        <time>2012-06-11T06:47:19Z</time>
      </trkpt>
      <trkpt lat="44.56152" lon="2.68042">
        <ele>351</ele>
        <time>2012-06-11T06:47:20Z</time>
      </trkpt>
      <trkpt lat="44.56151" lon="2.68043">
        <ele>351</ele>
        <time>2012-06-11T06:47:21Z</time>
      </trkpt>
      <trkpt lat="44.5615" lon="2.68045">
        <ele>350</ele>
        <time>2012-06-11T06:47:22Z</time>
      </trkpt>
      <trkpt lat="44.56147" lon="2.68046">
        <ele>350</ele>
        <time>2012-06-11T06:47:24Z</time>
      </trkpt>
      <trkpt lat="44.56146" lon="2.68047">
        <ele>350</ele>
        <time>2012-06-11T06:47:25Z</time>
      </trkpt>
      <trkpt lat="44.56145" lon="2.68048">
        <ele>349</ele>
        <time>2012-06-11T06:47:26Z</time>
      </trkpt>
      <trkpt lat="44.56143" lon="2.6805">
        <ele>349</ele>
        <time>2012-06-11T06:47:28Z</time>
      </trkpt>
      <trkpt lat="44.56141" lon="2.68053">
        <ele>349</ele>
        <time>2012-06-11T06:47:30Z</time>
      </trkpt>
      <trkpt lat="44.5614" lon="2.68055">
        <ele>349</ele>
        <time>2012-06-11T06:47:31Z</time>
      </trkpt>
      <trkpt lat="44.56139" lon="2.68056">
        <ele>349</ele>
        <time>2012-06-11T06:47:32Z</time>
      </trkpt>
      <trkpt lat="44.56137" lon="2.68058">
        <ele>348</ele>
        <time>2012-06-11T06:47:34Z</time>
      </trkpt>
      <trkpt lat="44.56136" lon="2.68059">
        <ele>348</ele>
        <time>2012-06-11T06:47:35Z</time>
      </trkpt>
      <trkpt lat="44.56136" lon="2.68061">
        <ele>348</ele>
        <time>2012-06-11T06:47:36Z</time>
      </trkpt>
      <trkpt lat="44.56134" lon="2.68064">
        <ele>348</ele>
        <time>2012-06-11T06:47:38Z</time>
      </trkpt>
      <trkpt lat="44.56133" lon="2.68065">
        <ele>347</ele>
        <time>2012-06-11T06:47:39Z</time>
      </trkpt>
      <trkpt lat="44.56131" lon="2.68068">
        <ele>347</ele>
        <time>2012-06-11T06:47:41Z</time>
      </trkpt>
      <trkpt lat="44.5613" lon="2.68071">
        <ele>347</ele>
        <time>2012-06-11T06:47:43Z</time>
      </trkpt>
      <trkpt lat="44.56129" lon="2.68072">
        <ele>347</ele>
        <time>2012-06-11T06:47:44Z</time>
      </trkpt>
      <trkpt lat="44.56128" lon="2.68074">
        <ele>347</ele>
        <time>2012-06-11T06:47:45Z</time>
      </trkpt>
      <trkpt lat="44.56126" lon="2.68077">
        <ele>346</ele>
        <time>2012-06-11T06:47:47Z</time>
      </trkpt>
      <trkpt lat="44.56124" lon="2.68079">
        <ele>346</ele>
        <time>2012-06-11T06:47:49Z</time>
      </trkpt>
      <trkpt lat="44.56122" lon="2.68081">
        <ele>346</ele>
        <time>2012-06-11T06:47:51Z</time>
      </trkpt>
      <trkpt lat="44.5612" lon="2.68084">
        <ele>345</ele>
        <time>2012-06-11T06:47:53Z</time>
      </trkpt>
      <trkpt lat="44.56119" lon="2.68086">
        <ele>345</ele>
        <time>2012-06-11T06:47:55Z</time>
      </trkpt>
      <trkpt lat="44.56117" lon="2.68088">
        <ele>345</ele>
        <time>2012-06-11T06:47:57Z</time>
      </trkpt>
      <trkpt lat="44.56116" lon="2.68089">
        <ele>345</ele>
        <time>2012-06-11T06:47:58Z</time>
      </trkpt>
      <trkpt lat="44.56115" lon="2.68092">
        <ele>345</ele>
        <time>2012-06-11T06:48:00Z</time>
      </trkpt>
      <trkpt lat="44.56114" lon="2.68094">
        <ele>345</ele>
        <time>2012-06-11T06:48:02Z</time>
      </trkpt>
      <trkpt lat="44.56113" lon="2.68096">
        <ele>344</ele>
        <time>2012-06-11T06:48:04Z</time>
      </trkpt>
      <trkpt lat="44.56113" lon="2.68098">
        <ele>344</ele>
        <time>2012-06-11T06:48:05Z</time>
      </trkpt>
      <trkpt lat="44.56112" lon="2.68101">
        <ele>343</ele>
        <time>2012-06-11T06:48:07Z</time>
      </trkpt>
      <trkpt lat="44.56111" lon="2.68102">
        <ele>342</ele>
        <time>2012-06-11T06:48:08Z</time>
      </trkpt>
      <trkpt lat="44.5611" lon="2.68104">
        <ele>342</ele>
        <time>2012-06-11T06:48:09Z</time>
      </trkpt>
      <trkpt lat="44.56109" lon="2.68106">
        <ele>342</ele>
        <time>2012-06-11T06:48:11Z</time>
      </trkpt>
      <trkpt lat="44.56107" lon="2.68109">
        <ele>342</ele>
        <time>2012-06-11T06:48:13Z</time>
      </trkpt>
      <trkpt lat="44.56106" lon="2.6811">
        <ele>342</ele>
        <time>2012-06-11T06:48:14Z</time>
      </trkpt>
      <trkpt lat="44.56105" lon="2.68113">
        <ele>342</ele>
        <time>2012-06-11T06:48:16Z</time>
      </trkpt>
      <trkpt lat="44.56103" lon="2.68115">
        <ele>342</ele>
        <time>2012-06-11T06:48:17Z</time>
      </trkpt>
      <trkpt lat="44.56101" lon="2.68118">
        <ele>341</ele>
        <time>2012-06-11T06:48:19Z</time>
      </trkpt>
      <trkpt lat="44.561" lon="2.68119">
        <ele>341</ele>
        <time>2012-06-11T06:48:20Z</time>
      </trkpt>
      <trkpt lat="44.56099" lon="2.68121">
        <ele>341</ele>
        <time>2012-06-11T06:48:21Z</time>
      </trkpt>
      <trkpt lat="44.56098" lon="2.68122">
        <ele>341</ele>
        <time>2012-06-11T06:48:22Z</time>
      </trkpt>
      <trkpt lat="44.56097" lon="2.68124">
        <ele>341</ele>
        <time>2012-06-11T06:48:23Z</time>
      </trkpt>
      <trkpt lat="44.56096" lon="2.68126">
        <ele>341</ele>
        <time>2012-06-11T06:48:24Z</time>
      </trkpt>
      <trkpt lat="44.56094" lon="2.68128">
        <ele>341</ele>
        <time>2012-06-11T06:48:25Z</time>
      </trkpt>
      <trkpt lat="44.56093" lon="2.6813">
        <ele>341</ele>
        <time>2012-06-11T06:48:26Z</time>
      </trkpt>
      <trkpt lat="44.56091" lon="2.68133">
        <ele>341</ele>
        <time>2012-06-11T06:48:27Z</time>
      </trkpt>
      <trkpt lat="44.56089" lon="2.68135">
        <ele>341</ele>
        <time>2012-06-11T06:48:28Z</time>
      </trkpt>
      <trkpt lat="44.56088" lon="2.68136">
        <ele>341</ele>
        <time>2012-06-11T06:48:29Z</time>
      </trkpt>
      <trkpt lat="44.56086" lon="2.68136">
        <ele>341</ele>
        <time>2012-06-11T06:48:30Z</time>
      </trkpt>
      <trkpt lat="44.56085" lon="2.68137">
        <ele>341</ele>
        <time>2012-06-11T06:48:31Z</time>
      </trkpt>
      <trkpt lat="44.56084" lon="2.68138">
        <ele>341</ele>
        <time>2012-06-11T06:48:32Z</time>
      </trkpt>
      <trkpt lat="44.56083" lon="2.68139">
        <ele>341</ele>
        <time>2012-06-11T06:48:33Z</time>
      </trkpt>
      <trkpt lat="44.56081" lon="2.68139">
        <ele>341</ele>
        <time>2012-06-11T06:48:34Z</time>
      </trkpt>
      <trkpt lat="44.56078" lon="2.68139">
        <ele>341</ele>
        <time>2012-06-11T06:48:37Z</time>
      </trkpt>
      <trkpt lat="44.56076" lon="2.6814">
        <ele>341</ele>
        <time>2012-06-11T06:48:39Z</time>
      </trkpt>
      <trkpt lat="44.56074" lon="2.68141">
        <ele>341</ele>
        <time>2012-06-11T06:48:41Z</time>
      </trkpt>
      <trkpt lat="44.56073" lon="2.68141">
        <ele>341</ele>
        <time>2012-06-11T06:48:42Z</time>
      </trkpt>
      <trkpt lat="44.56071" lon="2.68142">
        <ele>341</ele>
        <time>2012-06-11T06:48:43Z</time>
      </trkpt>
      <trkpt lat="44.5607" lon="2.68143">
        <ele>341</ele>
        <time>2012-06-11T06:48:44Z</time>
      </trkpt>
      <trkpt lat="44.56069" lon="2.68143">
        <ele>341</ele>
        <time>2012-06-11T06:48:45Z</time>
      </trkpt>
      <trkpt lat="44.56068" lon="2.68144">
        <ele>341</ele>
        <time>2012-06-11T06:48:46Z</time>
      </trkpt>
      <trkpt lat="44.56066" lon="2.68144">
        <ele>341</ele>
        <time>2012-06-11T06:48:47Z</time>
      </trkpt>
      <trkpt lat="44.56065" lon="2.68145">
        <ele>341</ele>
        <time>2012-06-11T06:48:48Z</time>
      </trkpt>
      <trkpt lat="44.56064" lon="2.68146">
        <ele>341</ele>
        <time>2012-06-11T06:48:49Z</time>
      </trkpt>
      <trkpt lat="44.56063" lon="2.68146">
        <ele>341</ele>
        <time>2012-06-11T06:48:50Z</time>
      </trkpt>
      <trkpt lat="44.56062" lon="2.68147">
        <ele>341</ele>
        <time>2012-06-11T06:48:51Z</time>
      </trkpt>
      <trkpt lat="44.5606" lon="2.6815">
        <ele>341</ele>
        <time>2012-06-11T06:48:54Z</time>
      </trkpt>
      <trkpt lat="44.56058" lon="2.68151">
        <ele>341</ele>
        <time>2012-06-11T06:48:54Z</time>
      </trkpt>
      <trkpt lat="44.56056" lon="2.68152">
        <ele>340</ele>
        <time>2012-06-11T06:48:56Z</time>
      </trkpt>
      <trkpt lat="44.56055" lon="2.68153">
        <ele>340</ele>
        <time>2012-06-11T06:48:57Z</time>
      </trkpt>
      <trkpt lat="44.56053" lon="2.68153">
        <ele>340</ele>
        <time>2012-06-11T06:48:58Z</time>
      </trkpt>
      <trkpt lat="44.56052" lon="2.68154">
        <ele>340</ele>
        <time>2012-06-11T06:48:59Z</time>
      </trkpt>
      <trkpt lat="44.5605" lon="2.68155">
        <ele>340</ele>
        <time>2012-06-11T06:49:00Z</time>
      </trkpt>
      <trkpt lat="44.56049" lon="2.68156">
        <ele>340</ele>
        <time>2012-06-11T06:49:01Z</time>
      </trkpt>
      <trkpt lat="44.56048" lon="2.68157">
        <ele>340</ele>
        <time>2012-06-11T06:49:02Z</time>
      </trkpt>
      <trkpt lat="44.56047" lon="2.68158">
        <ele>340</ele>
        <time>2012-06-11T06:49:03Z</time>
      </trkpt>
      <trkpt lat="44.56046" lon="2.68159">
        <ele>340</ele>
        <time>2012-06-11T06:49:04Z</time>
      </trkpt>
      <trkpt lat="44.56044" lon="2.6816">
        <ele>340</ele>
        <time>2012-06-11T06:49:05Z</time>
      </trkpt>
      <trkpt lat="44.56043" lon="2.6816">
        <ele>339</ele>
        <time>2012-06-11T06:49:06Z</time>
      </trkpt>
      <trkpt lat="44.56041" lon="2.68161">
        <ele>339</ele>
        <time>2012-06-11T06:49:07Z</time>
      </trkpt>
      <trkpt lat="44.56039" lon="2.68163">
        <ele>339</ele>
        <time>2012-06-11T06:49:09Z</time>
      </trkpt>
      <trkpt lat="44.56038" lon="2.68164">
        <ele>338</ele>
        <time>2012-06-11T06:49:10Z</time>
      </trkpt>
      <trkpt lat="44.56037" lon="2.68165">
        <ele>338</ele>
        <time>2012-06-11T06:49:11Z</time>
      </trkpt>
      <trkpt lat="44.56036" lon="2.68166">
        <ele>337</ele>
        <time>2012-06-11T06:49:12Z</time>
      </trkpt>
      <trkpt lat="44.56034" lon="2.68168">
        <ele>337</ele>
        <time>2012-06-11T06:49:13Z</time>
      </trkpt>
      <trkpt lat="44.56033" lon="2.68169">
        <ele>337</ele>
        <time>2012-06-11T06:49:14Z</time>
      </trkpt>
      <trkpt lat="44.56032" lon="2.6817">
        <ele>337</ele>
        <time>2012-06-11T06:49:15Z</time>
      </trkpt>
      <trkpt lat="44.56031" lon="2.6817">
        <ele>337</ele>
        <time>2012-06-11T06:49:16Z</time>
      </trkpt>
      <trkpt lat="44.56029" lon="2.68173">
        <ele>337</ele>
        <time>2012-06-11T06:49:17Z</time>
      </trkpt>
      <trkpt lat="44.56027" lon="2.68175">
        <ele>336</ele>
        <time>2012-06-11T06:49:18Z</time>
      </trkpt>
      <trkpt lat="44.56026" lon="2.68175">
        <ele>336</ele>
        <time>2012-06-11T06:49:19Z</time>
      </trkpt>
      <trkpt lat="44.56025" lon="2.68176">
        <ele>336</ele>
        <time>2012-06-11T06:49:20Z</time>
      </trkpt>
      <trkpt lat="44.56023" lon="2.68177">
        <ele>336</ele>
        <time>2012-06-11T06:49:21Z</time>
      </trkpt>
      <trkpt lat="44.56022" lon="2.68179">
        <ele>336</ele>
        <time>2012-06-11T06:49:23Z</time>
      </trkpt>
      <trkpt lat="44.5602" lon="2.6818">
        <ele>336</ele>
        <time>2012-06-11T06:49:25Z</time>
      </trkpt>
      <trkpt lat="44.56018" lon="2.68181">
        <ele>336</ele>
        <time>2012-06-11T06:49:27Z</time>
      </trkpt>
      <trkpt lat="44.56017" lon="2.68183">
        <ele>336</ele>
        <time>2012-06-11T06:49:28Z</time>
      </trkpt>
      <trkpt lat="44.56015" lon="2.68183">
        <ele>336</ele>
        <time>2012-06-11T06:49:29Z</time>
      </trkpt>
      <trkpt lat="44.56013" lon="2.68186">
        <ele>336</ele>
        <time>2012-06-11T06:49:31Z</time>
      </trkpt>
      <trkpt lat="44.56012" lon="2.68189">
        <ele>336</ele>
        <time>2012-06-11T06:49:33Z</time>
      </trkpt>
      <trkpt lat="44.5601" lon="2.68192">
        <ele>336</ele>
        <time>2012-06-11T06:49:35Z</time>
      </trkpt>
      <trkpt lat="44.56009" lon="2.68193">
        <ele>336</ele>
        <time>2012-06-11T06:49:36Z</time>
      </trkpt>
      <trkpt lat="44.56008" lon="2.68195">
        <ele>336</ele>
        <time>2012-06-11T06:49:37Z</time>
      </trkpt>
      <trkpt lat="44.56005" lon="2.68197">
        <ele>336</ele>
        <time>2012-06-11T06:49:39Z</time>
      </trkpt>
      <trkpt lat="44.56004" lon="2.68199">
        <ele>336</ele>
        <time>2012-06-11T06:49:40Z</time>
      </trkpt>
      <trkpt lat="44.56003" lon="2.68201">
        <ele>336</ele>
        <time>2012-06-11T06:49:41Z</time>
      </trkpt>
      <trkpt lat="44.56002" lon="2.68203">
        <ele>336</ele>
        <time>2012-06-11T06:49:42Z</time>
      </trkpt>
      <trkpt lat="44.56001" lon="2.68205">
        <ele>336</ele>
        <time>2012-06-11T06:49:43Z</time>
      </trkpt>
      <trkpt lat="44.56" lon="2.68207">
        <ele>336</ele>
        <time>2012-06-11T06:49:45Z</time>
      </trkpt>
      <trkpt lat="44.55999" lon="2.68208">
        <ele>336</ele>
        <time>2012-06-11T06:49:47Z</time>
      </trkpt>
      <trkpt lat="44.55998" lon="2.6821">
        <ele>336</ele>
        <time>2012-06-11T06:49:48Z</time>
      </trkpt>
      <trkpt lat="44.55998" lon="2.68212">
        <ele>336</ele>
        <time>2012-06-11T06:49:49Z</time>
      </trkpt>
      <trkpt lat="44.55997" lon="2.68213">
        <ele>336</ele>
        <time>2012-06-11T06:49:50Z</time>
      </trkpt>
      <trkpt lat="44.55997" lon="2.68215">
        <ele>335</ele>
        <time>2012-06-11T06:49:51Z</time>
      </trkpt>
      <trkpt lat="44.55996" lon="2.68216">
        <ele>335</ele>
        <time>2012-06-11T06:49:52Z</time>
      </trkpt>
      <trkpt lat="44.55996" lon="2.68218">
        <ele>335</ele>
        <time>2012-06-11T06:49:53Z</time>
      </trkpt>
      <trkpt lat="44.55996" lon="2.68222">
        <ele>335</ele>
        <time>2012-06-11T06:49:55Z</time>
      </trkpt>
      <trkpt lat="44.55995" lon="2.68224">
        <ele>335</ele>
        <time>2012-06-11T06:49:56Z</time>
      </trkpt>
      <trkpt lat="44.55995" lon="2.68226">
        <ele>335</ele>
        <time>2012-06-11T06:49:57Z</time>
      </trkpt>
      <trkpt lat="44.55994" lon="2.68229">
        <ele>335</ele>
        <time>2012-06-11T06:49:58Z</time>
      </trkpt>
      <trkpt lat="44.55994" lon="2.68231">
        <ele>335</ele>
        <time>2012-06-11T06:49:59Z</time>
      </trkpt>
      <trkpt lat="44.55993" lon="2.68232">
        <ele>335</ele>
        <time>2012-06-11T06:50:00Z</time>
      </trkpt>
      <trkpt lat="44.55992" lon="2.68234">
        <ele>335</ele>
        <time>2012-06-11T06:50:01Z</time>
      </trkpt>
      <trkpt lat="44.55992" lon="2.68238">
        <ele>335</ele>
        <time>2012-06-11T06:50:03Z</time>
      </trkpt>
      <trkpt lat="44.55991" lon="2.68239">
        <ele>335</ele>
        <time>2012-06-11T06:50:04Z</time>
      </trkpt>
      <trkpt lat="44.5599" lon="2.68241">
        <ele>335</ele>
        <time>2012-06-11T06:50:05Z</time>
      </trkpt>
      <trkpt lat="44.5599" lon="2.68246">
        <ele>335</ele>
        <time>2012-06-11T06:50:08Z</time>
      </trkpt>
      <trkpt lat="44.55989" lon="2.68247">
        <ele>335</ele>
        <time>2012-06-11T06:50:09Z</time>
      </trkpt>
      <trkpt lat="44.55989" lon="2.68249">
        <ele>335</ele>
        <time>2012-06-11T06:50:10Z</time>
      </trkpt>
      <trkpt lat="44.55988" lon="2.68251">
        <ele>335</ele>
        <time>2012-06-11T06:50:11Z</time>
      </trkpt>
      <trkpt lat="44.55988" lon="2.68253">
        <ele>335</ele>
        <time>2012-06-11T06:50:12Z</time>
      </trkpt>
      <trkpt lat="44.55987" lon="2.68254">
        <ele>335</ele>
        <time>2012-06-11T06:50:13Z</time>
      </trkpt>
      <trkpt lat="44.55986" lon="2.68257">
        <ele>335</ele>
        <time>2012-06-11T06:50:14Z</time>
      </trkpt>
      <trkpt lat="44.55985" lon="2.68259">
        <ele>335</ele>
        <time>2012-06-11T06:50:15Z</time>
      </trkpt>
      <trkpt lat="44.55985" lon="2.68261">
        <ele>335</ele>
        <time>2012-06-11T06:50:16Z</time>
      </trkpt>
      <trkpt lat="44.55984" lon="2.68262">
        <ele>335</ele>
        <time>2012-06-11T06:50:17Z</time>
      </trkpt>
      <trkpt lat="44.55983" lon="2.68264">
        <ele>335</ele>
        <time>2012-06-11T06:50:18Z</time>
      </trkpt>
      <trkpt lat="44.55983" lon="2.68266">
        <ele>335</ele>
        <time>2012-06-11T06:50:19Z</time>
      </trkpt>
      <trkpt lat="44.55982" lon="2.68267">
        <ele>335</ele>
        <time>2012-06-11T06:50:20Z</time>
      </trkpt>
      <trkpt lat="44.55982" lon="2.68269">
        <ele>334</ele>
        <time>2012-06-11T06:50:21Z</time>
      </trkpt>
      <trkpt lat="44.55981" lon="2.68271">
        <ele>334</ele>
        <time>2012-06-11T06:50:22Z</time>
      </trkpt>
      <trkpt lat="44.55981" lon="2.68273">
        <ele>334</ele>
        <time>2012-06-11T06:50:23Z</time>
      </trkpt>
      <trkpt lat="44.5598" lon="2.68275">
        <ele>333</ele>
        <time>2012-06-11T06:50:24Z</time>
      </trkpt>
      <trkpt lat="44.55979" lon="2.68277">
        <ele>333</ele>
        <time>2012-06-11T06:50:26Z</time>
      </trkpt>
      <trkpt lat="44.55978" lon="2.68279">
        <ele>332</ele>
        <time>2012-06-11T06:50:27Z</time>
      </trkpt>
      <trkpt lat="44.55977" lon="2.68281">
        <ele>332</ele>
        <time>2012-06-11T06:50:28Z</time>
      </trkpt>
      <trkpt lat="44.55976" lon="2.68283">
        <ele>332</ele>
        <time>2012-06-11T06:50:29Z</time>
      </trkpt>
      <trkpt lat="44.55976" lon="2.68285">
        <ele>332</ele>
        <time>2012-06-11T06:50:30Z</time>
      </trkpt>
      <trkpt lat="44.55975" lon="2.68286">
        <ele>331</ele>
        <time>2012-06-11T06:50:31Z</time>
      </trkpt>
      <trkpt lat="44.55974" lon="2.68288">
        <ele>331</ele>
        <time>2012-06-11T06:50:32Z</time>
      </trkpt>
      <trkpt lat="44.55973" lon="2.6829">
        <ele>331</ele>
        <time>2012-06-11T06:50:33Z</time>
      </trkpt>
      <trkpt lat="44.55972" lon="2.68292">
        <ele>331</ele>
        <time>2012-06-11T06:50:34Z</time>
      </trkpt>
      <trkpt lat="44.55972" lon="2.68294">
        <ele>331</ele>
        <time>2012-06-11T06:50:35Z</time>
      </trkpt>
      <trkpt lat="44.5597" lon="2.68296">
        <ele>330</ele>
        <time>2012-06-11T06:50:36Z</time>
      </trkpt>
      <trkpt lat="44.5597" lon="2.68297">
        <ele>330</ele>
        <time>2012-06-11T06:50:37Z</time>
      </trkpt>
      <trkpt lat="44.55969" lon="2.68299">
        <ele>330</ele>
        <time>2012-06-11T06:50:38Z</time>
      </trkpt>
      <trkpt lat="44.55968" lon="2.68301">
        <ele>330</ele>
        <time>2012-06-11T06:50:39Z</time>
      </trkpt>
      <trkpt lat="44.55966" lon="2.68304">
        <ele>330</ele>
        <time>2012-06-11T06:50:41Z</time>
      </trkpt>
      <trkpt lat="44.55965" lon="2.68306">
        <ele>330</ele>
        <time>2012-06-11T06:50:42Z</time>
      </trkpt>
      <trkpt lat="44.55964" lon="2.68308">
        <ele>330</ele>
        <time>2012-06-11T06:50:43Z</time>
      </trkpt>
      <trkpt lat="44.55963" lon="2.6831">
        <ele>330</ele>
        <time>2012-06-11T06:50:44Z</time>
      </trkpt>
      <trkpt lat="44.55962" lon="2.68312">
        <ele>329</ele>
        <time>2012-06-11T06:50:45Z</time>
      </trkpt>
      <trkpt lat="44.55961" lon="2.68314">
        <ele>329</ele>
        <time>2012-06-11T06:50:46Z</time>
      </trkpt>
      <trkpt lat="44.5596" lon="2.68316">
        <ele>329</ele>
        <time>2012-06-11T06:50:47Z</time>
      </trkpt>
      <trkpt lat="44.55959" lon="2.68317">
        <ele>329</ele>
        <time>2012-06-11T06:50:48Z</time>
      </trkpt>
      <trkpt lat="44.55958" lon="2.6832">
        <ele>329</ele>
        <time>2012-06-11T06:50:50Z</time>
      </trkpt>
      <trkpt lat="44.55957" lon="2.68321">
        <ele>329</ele>
        <time>2012-06-11T06:50:51Z</time>
      </trkpt>
      <trkpt lat="44.55956" lon="2.68323">
        <ele>329</ele>
        <time>2012-06-11T06:50:52Z</time>
      </trkpt>
      <trkpt lat="44.55956" lon="2.68325">
        <ele>329</ele>
        <time>2012-06-11T06:50:53Z</time>
      </trkpt>
      <trkpt lat="44.55954" lon="2.68326">
        <ele>329</ele>
        <time>2012-06-11T06:50:54Z</time>
      </trkpt>
      <trkpt lat="44.55953" lon="2.68329">
        <ele>329</ele>
        <time>2012-06-11T06:50:56Z</time>
      </trkpt>
      <trkpt lat="44.55951" lon="2.68331">
        <ele>329</ele>
        <time>2012-06-11T06:50:58Z</time>
      </trkpt>
      <trkpt lat="44.55949" lon="2.68333">
        <ele>329</ele>
        <time>2012-06-11T06:50:59Z</time>
      </trkpt>
      <trkpt lat="44.55949" lon="2.68335">
        <ele>329</ele>
        <time>2012-06-11T06:51:00Z</time>
      </trkpt>
      <trkpt lat="44.55947" lon="2.68337">
        <ele>329</ele>
        <time>2012-06-11T06:51:02Z</time>
      </trkpt>
      <trkpt lat="44.55946" lon="2.68339">
        <ele>329</ele>
        <time>2012-06-11T06:51:03Z</time>
      </trkpt>
      <trkpt lat="44.55944" lon="2.68342">
        <ele>329</ele>
        <time>2012-06-11T06:51:05Z</time>
      </trkpt>
      <trkpt lat="44.55942" lon="2.68343">
        <ele>329</ele>
        <time>2012-06-11T06:51:07Z</time>
      </trkpt>
      <trkpt lat="44.55941" lon="2.68344">
        <ele>329</ele>
        <time>2012-06-11T06:51:08Z</time>
      </trkpt>
      <trkpt lat="44.55939" lon="2.68346">
        <ele>329</ele>
        <time>2012-06-11T06:51:09Z</time>
      </trkpt>
      <trkpt lat="44.55938" lon="2.68349">
        <ele>329</ele>
        <time>2012-06-11T06:51:11Z</time>
      </trkpt>
      <trkpt lat="44.55936" lon="2.68351">
        <ele>329</ele>
        <time>2012-06-11T06:51:13Z</time>
      </trkpt>
      <trkpt lat="44.55935" lon="2.68353">
        <ele>329</ele>
        <time>2012-06-11T06:51:14Z</time>
      </trkpt>
      <trkpt lat="44.55934" lon="2.68354">
        <ele>329</ele>
        <time>2012-06-11T06:51:15Z</time>
      </trkpt>
      <trkpt lat="44.55932" lon="2.68357">
        <ele>329</ele>
        <time>2012-06-11T06:51:17Z</time>
      </trkpt>
      <trkpt lat="44.55931" lon="2.68358">
        <ele>329</ele>
        <time>2012-06-11T06:51:18Z</time>
      </trkpt>
      <trkpt lat="44.55929" lon="2.68361">
        <ele>329</ele>
        <time>2012-06-11T06:51:20Z</time>
      </trkpt>
      <trkpt lat="44.55928" lon="2.68362">
        <ele>329</ele>
        <time>2012-06-11T06:51:21Z</time>
      </trkpt>
      <trkpt lat="44.55927" lon="2.68364">
        <ele>329</ele>
        <time>2012-06-11T06:51:22Z</time>
      </trkpt>
      <trkpt lat="44.55927" lon="2.68367">
        <ele>329</ele>
        <time>2012-06-11T06:51:23Z</time>
      </trkpt>
      <trkpt lat="44.55926" lon="2.68371">
        <ele>329</ele>
        <time>2012-06-11T06:51:25Z</time>
      </trkpt>
      <trkpt lat="44.55927" lon="2.68376">
        <ele>329</ele>
        <time>2012-06-11T06:51:28Z</time>
      </trkpt>
      <trkpt lat="44.55927" lon="2.68378">
        <ele>329</ele>
        <time>2012-06-11T06:51:29Z</time>
      </trkpt>
      <trkpt lat="44.55928" lon="2.68391">
        <ele>329</ele>
        <time>2012-06-11T06:51:36Z</time>
      </trkpt>
      <trkpt lat="44.55927" lon="2.68395">
        <ele>329</ele>
        <time>2012-06-11T06:51:41Z</time>
      </trkpt>
      <trkpt lat="44.55926" lon="2.68397">
        <ele>329</ele>
        <time>2012-06-11T06:51:42Z</time>
      </trkpt>
      <trkpt lat="44.55927" lon="2.684">
        <ele>329</ele>
        <time>2012-06-11T06:51:44Z</time>
      </trkpt>
      <trkpt lat="44.55927" lon="2.68402">
        <ele>329</ele>
        <time>2012-06-11T06:51:45Z</time>
      </trkpt>
      <trkpt lat="44.55928" lon="2.68403">
        <ele>329</ele>
        <time>2012-06-11T06:51:46Z</time>
      </trkpt>
      <trkpt lat="44.55928" lon="2.68405">
        <ele>329</ele>
        <time>2012-06-11T06:51:47Z</time>
      </trkpt>
      <trkpt lat="44.55929" lon="2.68407">
        <ele>329</ele>
        <time>2012-06-11T06:51:49Z</time>
      </trkpt>
      <trkpt lat="44.5593" lon="2.68409">
        <ele>329</ele>
        <time>2012-06-11T06:51:49Z</time>
      </trkpt>
      <trkpt lat="44.5593" lon="2.68412">
        <ele>329</ele>
        <time>2012-06-11T06:51:51Z</time>
      </trkpt>
      <trkpt lat="44.5593" lon="2.68415">
        <ele>329</ele>
        <time>2012-06-11T06:51:53Z</time>
      </trkpt>
      <trkpt lat="44.55928" lon="2.68417">
        <ele>329</ele>
        <time>2012-06-11T06:51:55Z</time>
      </trkpt>
      <trkpt lat="44.55927" lon="2.68418">
        <ele>329</ele>
        <time>2012-06-11T06:51:56Z</time>
      </trkpt>
      <trkpt lat="44.55925" lon="2.6842">
        <ele>329</ele>
        <time>2012-06-11T06:51:58Z</time>
      </trkpt>
      <trkpt lat="44.55924" lon="2.68422">
        <ele>329</ele>
        <time>2012-06-11T06:52:00Z</time>
      </trkpt>
      <trkpt lat="44.55922" lon="2.68423">
        <ele>329</ele>
        <time>2012-06-11T06:52:02Z</time>
      </trkpt>
      <trkpt lat="44.55921" lon="2.68423">
        <ele>329</ele>
        <time>2012-06-11T06:52:03Z</time>
      </trkpt>
      <trkpt lat="44.5592" lon="2.68423">
        <ele>329</ele>
        <time>2012-06-11T06:52:04Z</time>
      </trkpt>
      <trkpt lat="44.55918" lon="2.68424">
        <ele>329</ele>
        <time>2012-06-11T06:52:05Z</time>
      </trkpt>
      <trkpt lat="44.55917" lon="2.68424">
        <ele>329</ele>
        <time>2012-06-11T06:52:06Z</time>
      </trkpt>
      <trkpt lat="44.55915" lon="2.68425">
        <ele>329</ele>
        <time>2012-06-11T06:52:08Z</time>
      </trkpt>
      <trkpt lat="44.55913" lon="2.68425">
        <ele>329</ele>
        <time>2012-06-11T06:52:10Z</time>
      </trkpt>
      <trkpt lat="44.55912" lon="2.68426">
        <ele>329</ele>
        <time>2012-06-11T06:52:11Z</time>
      </trkpt>
      <trkpt lat="44.5591" lon="2.68427">
        <ele>329</ele>
        <time>2012-06-11T06:52:13Z</time>
      </trkpt>
      <trkpt lat="44.55908" lon="2.68429">
        <ele>329</ele>
        <time>2012-06-11T06:52:15Z</time>
      </trkpt>
      <trkpt lat="44.55907" lon="2.68431">
        <ele>329</ele>
        <time>2012-06-11T06:52:16Z</time>
      </trkpt>
      <trkpt lat="44.55906" lon="2.68433">
        <ele>329</ele>
        <time>2012-06-11T06:52:17Z</time>
      </trkpt>
      <trkpt lat="44.55904" lon="2.68434">
        <ele>329</ele>
        <time>2012-06-11T06:52:18Z</time>
      </trkpt>
      <trkpt lat="44.55903" lon="2.68435">
        <ele>329</ele>
        <time>2012-06-11T06:52:19Z</time>
      </trkpt>
      <trkpt lat="44.55902" lon="2.68437">
        <ele>329</ele>
        <time>2012-06-11T06:52:20Z</time>
      </trkpt>
      <trkpt lat="44.55901" lon="2.68438">
        <ele>329</ele>
        <time>2012-06-11T06:52:21Z</time>
      </trkpt>
      <trkpt lat="44.55899" lon="2.68441">
        <ele>329</ele>
        <time>2012-06-11T06:52:23Z</time>
      </trkpt>
      <trkpt lat="44.55898" lon="2.68442">
        <ele>329</ele>
        <time>2012-06-11T06:52:24Z</time>
      </trkpt>
      <trkpt lat="44.55897" lon="2.68443">
        <ele>329</ele>
        <time>2012-06-11T06:52:25Z</time>
      </trkpt>
      <trkpt lat="44.55896" lon="2.68445">
        <ele>329</ele>
        <time>2012-06-11T06:52:26Z</time>
      </trkpt>
      <trkpt lat="44.55895" lon="2.68447">
        <ele>329</ele>
        <time>2012-06-11T06:52:27Z</time>
      </trkpt>
      <trkpt lat="44.55894" lon="2.68449">
        <ele>329</ele>
        <time>2012-06-11T06:52:28Z</time>
      </trkpt>
      <trkpt lat="44.55893" lon="2.6845">
        <ele>329</ele>
        <time>2012-06-11T06:52:29Z</time>
      </trkpt>
      <trkpt lat="44.55892" lon="2.68452">
        <ele>329</ele>
        <time>2012-06-11T06:52:30Z</time>
      </trkpt>
      <trkpt lat="44.55891" lon="2.68454">
        <ele>329</ele>
        <time>2012-06-11T06:52:31Z</time>
      </trkpt>
      <trkpt lat="44.55889" lon="2.68455">
        <ele>329</ele>
        <time>2012-06-11T06:52:32Z</time>
      </trkpt>
      <trkpt lat="44.55888" lon="2.68456">
        <ele>329</ele>
        <time>2012-06-11T06:52:33Z</time>
      </trkpt>
      <trkpt lat="44.55886" lon="2.68459">
        <ele>329</ele>
        <time>2012-06-11T06:52:35Z</time>
      </trkpt>
      <trkpt lat="44.55884" lon="2.68461">
        <ele>329</ele>
        <time>2012-06-11T06:52:37Z</time>
      </trkpt>
      <trkpt lat="44.55883" lon="2.68463">
        <ele>329</ele>
        <time>2012-06-11T06:52:38Z</time>
      </trkpt>
      <trkpt lat="44.55882" lon="2.68464">
        <ele>329</ele>
        <time>2012-06-11T06:52:39Z</time>
      </trkpt>
      <trkpt lat="44.55881" lon="2.68466">
        <ele>329</ele>
        <time>2012-06-11T06:52:40Z</time>
      </trkpt>
      <trkpt lat="44.5588" lon="2.68468">
        <ele>329</ele>
        <time>2012-06-11T06:52:41Z</time>
      </trkpt>
      <trkpt lat="44.55879" lon="2.6847">
        <ele>329</ele>
        <time>2012-06-11T06:52:43Z</time>
      </trkpt>
      <trkpt lat="44.55878" lon="2.68472">
        <ele>329</ele>
        <time>2012-06-11T06:52:44Z</time>
      </trkpt>
      <trkpt lat="44.55877" lon="2.68473">
        <ele>329</ele>
        <time>2012-06-11T06:52:45Z</time>
      </trkpt>
      <trkpt lat="44.55875" lon="2.68475">
        <ele>329</ele>
        <time>2012-06-11T06:52:46Z</time>
      </trkpt>
      <trkpt lat="44.55875" lon="2.68477">
        <ele>329</ele>
        <time>2012-06-11T06:52:47Z</time>
      </trkpt>
      <trkpt lat="44.55874" lon="2.68479">
        <ele>329</ele>
        <time>2012-06-11T06:52:48Z</time>
      </trkpt>
      <trkpt lat="44.55873" lon="2.68481">
        <ele>328</ele>
        <time>2012-06-11T06:52:49Z</time>
      </trkpt>
      <trkpt lat="44.55871" lon="2.68484">
        <ele>328</ele>
        <time>2012-06-11T06:52:51Z</time>
      </trkpt>
      <trkpt lat="44.5587" lon="2.68486">
        <ele>328</ele>
        <time>2012-06-11T06:52:52Z</time>
      </trkpt>
      <trkpt lat="44.55869" lon="2.68488">
        <ele>327</ele>
        <time>2012-06-11T06:52:53Z</time>
      </trkpt>
      <trkpt lat="44.55869" lon="2.68489">
        <ele>327</ele>
        <time>2012-06-11T06:52:54Z</time>
      </trkpt>
      <trkpt lat="44.55868" lon="2.68491">
        <ele>327</ele>
        <time>2012-06-11T06:52:55Z</time>
      </trkpt>
      <trkpt lat="44.55867" lon="2.68493">
        <ele>327</ele>
        <time>2012-06-11T06:52:56Z</time>
      </trkpt>
      <trkpt lat="44.55866" lon="2.68495">
        <ele>327</ele>
        <time>2012-06-11T06:52:57Z</time>
      </trkpt>
      <trkpt lat="44.55865" lon="2.68496">
        <ele>327</ele>
        <time>2012-06-11T06:52:58Z</time>
      </trkpt>
      <trkpt lat="44.55865" lon="2.68498">
        <ele>327</ele>
        <time>2012-06-11T06:52:59Z</time>
      </trkpt>
      <trkpt lat="44.55864" lon="2.68499">
        <ele>326</ele>
        <time>2012-06-11T06:53:00Z</time>
      </trkpt>
      <trkpt lat="44.55863" lon="2.68501">
        <ele>326</ele>
        <time>2012-06-11T06:53:01Z</time>
      </trkpt>
      <trkpt lat="44.55862" lon="2.68503">
        <ele>326</ele>
        <time>2012-06-11T06:53:02Z</time>
      </trkpt>
      <trkpt lat="44.55861" lon="2.68505">
        <ele>326</ele>
        <time>2012-06-11T06:53:03Z</time>
      </trkpt>
      <trkpt lat="44.5586" lon="2.68507">
        <ele>326</ele>
        <time>2012-06-11T06:53:04Z</time>
      </trkpt>
      <trkpt lat="44.55859" lon="2.68509">
        <ele>326</ele>
        <time>2012-06-11T06:53:05Z</time>
      </trkpt>
      <trkpt lat="44.55859" lon="2.6851">
        <ele>326</ele>
        <time>2012-06-11T06:53:06Z</time>
      </trkpt>
      <trkpt lat="44.55858" lon="2.68512">
        <ele>326</ele>
        <time>2012-06-11T06:53:07Z</time>
      </trkpt>
      <trkpt lat="44.55857" lon="2.68513">
        <ele>326</ele>
        <time>2012-06-11T06:53:08Z</time>
      </trkpt>
      <trkpt lat="44.55856" lon="2.68515">
        <ele>326</ele>
        <time>2012-06-11T06:53:09Z</time>
      </trkpt>
      <trkpt lat="44.55855" lon="2.68516">
        <ele>326</ele>
        <time>2012-06-11T06:53:10Z</time>
      </trkpt>
      <trkpt lat="44.55854" lon="2.68518">
        <ele>326</ele>
        <time>2012-06-11T06:53:11Z</time>
      </trkpt>
      <trkpt lat="44.55854" lon="2.6852">
        <ele>326</ele>
        <time>2012-06-11T06:53:12Z</time>
      </trkpt>
      <trkpt lat="44.55852" lon="2.68522">
        <ele>326</ele>
        <time>2012-06-11T06:53:13Z</time>
      </trkpt>
      <trkpt lat="44.55851" lon="2.68524">
        <ele>326</ele>
        <time>2012-06-11T06:53:15Z</time>
      </trkpt>
      <trkpt lat="44.5585" lon="2.68526">
        <ele>326</ele>
        <time>2012-06-11T06:53:16Z</time>
      </trkpt>
      <trkpt lat="44.55848" lon="2.68527">
        <ele>326</ele>
        <time>2012-06-11T06:53:17Z</time>
      </trkpt>
      <trkpt lat="44.55846" lon="2.6853">
        <ele>326</ele>
        <time>2012-06-11T06:53:19Z</time>
      </trkpt>
      <trkpt lat="44.55845" lon="2.68531">
        <ele>326</ele>
        <time>2012-06-11T06:53:21Z</time>
      </trkpt>
      <trkpt lat="44.55843" lon="2.68531">
        <ele>326</ele>
        <time>2012-06-11T06:53:22Z</time>
      </trkpt>
      <trkpt lat="44.55842" lon="2.68532">
        <ele>326</ele>
        <time>2012-06-11T06:53:24Z</time>
      </trkpt>
      <trkpt lat="44.55841" lon="2.68531">
        <ele>327</ele>
        <time>2012-06-11T06:53:30Z</time>
      </trkpt>
      <trkpt lat="44.55839" lon="2.68529">
        <ele>327</ele>
        <time>2012-06-11T06:53:32Z</time>
      </trkpt>
      <trkpt lat="44.55838" lon="2.68528">
        <ele>327</ele>
        <time>2012-06-11T06:53:34Z</time>
      </trkpt>
      <trkpt lat="44.55837" lon="2.68527">
        <ele>327</ele>
        <time>2012-06-11T06:53:36Z</time>
      </trkpt>
      <trkpt lat="44.55835" lon="2.68524">
        <ele>327</ele>
        <time>2012-06-11T06:53:38Z</time>
      </trkpt>
      <trkpt lat="44.55833" lon="2.68522">
        <ele>327</ele>
        <time>2012-06-11T06:53:40Z</time>
      </trkpt>
      <trkpt lat="44.55832" lon="2.6852">
        <ele>327</ele>
        <time>2012-06-11T06:53:41Z</time>
      </trkpt>
      <trkpt lat="44.55832" lon="2.68519">
        <ele>327</ele>
        <time>2012-06-11T06:53:42Z</time>
      </trkpt>
      <trkpt lat="44.55831" lon="2.68517">
        <ele>327</ele>
        <time>2012-06-11T06:53:43Z</time>
      </trkpt>
      <trkpt lat="44.5583" lon="2.68515">
        <ele>327</ele>
        <time>2012-06-11T06:53:44Z</time>
      </trkpt>
      <trkpt lat="44.55829" lon="2.68513">
        <ele>327</ele>
        <time>2012-06-11T06:53:45Z</time>
      </trkpt>
      <trkpt lat="44.55828" lon="2.68511">
        <ele>327</ele>
        <time>2012-06-11T06:53:46Z</time>
      </trkpt>
      <trkpt lat="44.55827" lon="2.68509">
        <ele>327</ele>
        <time>2012-06-11T06:53:47Z</time>
      </trkpt>
      <trkpt lat="44.55826" lon="2.68507">
        <ele>327</ele>
        <time>2012-06-11T06:53:48Z</time>
      </trkpt>
      <trkpt lat="44.55826" lon="2.68505">
        <ele>327</ele>
        <time>2012-06-11T06:53:49Z</time>
      </trkpt>
      <trkpt lat="44.55825" lon="2.68504">
        <ele>327</ele>
        <time>2012-06-11T06:53:50Z</time>
      </trkpt>
      <trkpt lat="44.55824" lon="2.68502">
        <ele>327</ele>
        <time>2012-06-11T06:53:51Z</time>
      </trkpt>
      <trkpt lat="44.55823" lon="2.68501">
        <ele>327</ele>
        <time>2012-06-11T06:53:52Z</time>
      </trkpt>
      <trkpt lat="44.55822" lon="2.68498">
        <ele>327</ele>
        <time>2012-06-11T06:53:54Z</time>
      </trkpt>
      <trkpt lat="44.55821" lon="2.68496">
        <ele>327</ele>
        <time>2012-06-11T06:53:55Z</time>
      </trkpt>
      <trkpt lat="44.55819" lon="2.68494">
        <ele>327</ele>
        <time>2012-06-11T06:53:57Z</time>
      </trkpt>
      <trkpt lat="44.55819" lon="2.68492">
        <ele>327</ele>
        <time>2012-06-11T06:53:58Z</time>
      </trkpt>
      <trkpt lat="44.55818" lon="2.68491">
        <ele>327</ele>
        <time>2012-06-11T06:53:59Z</time>
      </trkpt>
      <trkpt lat="44.55817" lon="2.68489">
        <ele>327</ele>
        <time>2012-06-11T06:54:00Z</time>
      </trkpt>
      <trkpt lat="44.55816" lon="2.68488">
        <ele>327</ele>
        <time>2012-06-11T06:54:01Z</time>
      </trkpt>
      <trkpt lat="44.55815" lon="2.68486">
        <ele>327</ele>
        <time>2012-06-11T06:54:02Z</time>
      </trkpt>
      <trkpt lat="44.55814" lon="2.68485">
        <ele>327</ele>
        <time>2012-06-11T06:54:03Z</time>
      </trkpt>
      <trkpt lat="44.55812" lon="2.68482">
        <ele>327</ele>
        <time>2012-06-11T06:54:05Z</time>
      </trkpt>
      <trkpt lat="44.55811" lon="2.68481">
        <ele>327</ele>
        <time>2012-06-11T06:54:06Z</time>
      </trkpt>
      <trkpt lat="44.5581" lon="2.68479">
        <ele>327</ele>
        <time>2012-06-11T06:54:07Z</time>
      </trkpt>
      <trkpt lat="44.55809" lon="2.68478">
        <ele>327</ele>
        <time>2012-06-11T06:54:08Z</time>
      </trkpt>
      <trkpt lat="44.55807" lon="2.68475">
        <ele>327</ele>
        <time>2012-06-11T06:54:10Z</time>
      </trkpt>
      <trkpt lat="44.55806" lon="2.68474">
        <ele>327</ele>
        <time>2012-06-11T06:54:11Z</time>
      </trkpt>
      <trkpt lat="44.55805" lon="2.68472">
        <ele>327</ele>
        <time>2012-06-11T06:54:12Z</time>
      </trkpt>
      <trkpt lat="44.55803" lon="2.6847">
        <ele>327</ele>
        <time>2012-06-11T06:54:13Z</time>
      </trkpt>
      <trkpt lat="44.55802" lon="2.68468">
        <ele>327</ele>
        <time>2012-06-11T06:54:14Z</time>
      </trkpt>
      <trkpt lat="44.558" lon="2.68466">
        <ele>327</ele>
        <time>2012-06-11T06:54:16Z</time>
      </trkpt>
      <trkpt lat="44.55798" lon="2.68463">
        <ele>327</ele>
        <time>2012-06-11T06:54:18Z</time>
      </trkpt>
      <trkpt lat="44.55797" lon="2.68462">
        <ele>327</ele>
        <time>2012-06-11T06:54:19Z</time>
      </trkpt>
      <trkpt lat="44.55796" lon="2.68461">
        <ele>327</ele>
        <time>2012-06-11T06:54:20Z</time>
      </trkpt>
      <trkpt lat="44.55795" lon="2.6846">
        <ele>327</ele>
        <time>2012-06-11T06:54:21Z</time>
      </trkpt>
      <trkpt lat="44.55793" lon="2.68459">
        <ele>327</ele>
        <time>2012-06-11T06:54:22Z</time>
      </trkpt>
      <trkpt lat="44.55791" lon="2.68456">
        <ele>327</ele>
        <time>2012-06-11T06:54:24Z</time>
      </trkpt>
      <trkpt lat="44.55789" lon="2.68454">
        <ele>327</ele>
        <time>2012-06-11T06:54:26Z</time>
      </trkpt>
      <trkpt lat="44.55788" lon="2.68453">
        <ele>327</ele>
        <time>2012-06-11T06:54:27Z</time>
      </trkpt>
      <trkpt lat="44.55787" lon="2.68452">
        <ele>327</ele>
        <time>2012-06-11T06:54:28Z</time>
      </trkpt>
      <trkpt lat="44.55785" lon="2.68451">
        <ele>327</ele>
        <time>2012-06-11T06:54:29Z</time>
      </trkpt>
      <trkpt lat="44.55784" lon="2.6845">
        <ele>327</ele>
        <time>2012-06-11T06:54:30Z</time>
      </trkpt>
      <trkpt lat="44.55782" lon="2.68448">
        <ele>327</ele>
        <time>2012-06-11T06:54:32Z</time>
      </trkpt>
      <trkpt lat="44.55781" lon="2.68446">
        <ele>327</ele>
        <time>2012-06-11T06:54:34Z</time>
      </trkpt>
      <trkpt lat="44.5578" lon="2.68444">
        <ele>327</ele>
        <time>2012-06-11T06:54:35Z</time>
      </trkpt>
      <trkpt lat="44.55777" lon="2.68442">
        <ele>327</ele>
        <time>2012-06-11T06:54:37Z</time>
      </trkpt>
      <trkpt lat="44.55776" lon="2.68442">
        <ele>327</ele>
        <time>2012-06-11T06:54:38Z</time>
      </trkpt>
      <trkpt lat="44.55775" lon="2.6844">
        <ele>327</ele>
        <time>2012-06-11T06:54:39Z</time>
      </trkpt>
      <trkpt lat="44.55774" lon="2.68439">
        <ele>327</ele>
        <time>2012-06-11T06:54:40Z</time>
      </trkpt>
      <trkpt lat="44.55773" lon="2.68439">
        <ele>327</ele>
        <time>2012-06-11T06:54:41Z</time>
      </trkpt>
      <trkpt lat="44.55772" lon="2.68438">
        <ele>327</ele>
        <time>2012-06-11T06:54:42Z</time>
      </trkpt>
      <trkpt lat="44.5577" lon="2.68437">
        <ele>327</ele>
        <time>2012-06-11T06:54:43Z</time>
      </trkpt>
      <trkpt lat="44.55769" lon="2.68436">
        <ele>327</ele>
        <time>2012-06-11T06:54:44Z</time>
      </trkpt>
      <trkpt lat="44.55767" lon="2.68434">
        <ele>327</ele>
        <time>2012-06-11T06:54:46Z</time>
      </trkpt>
      <trkpt lat="44.55765" lon="2.68432">
        <ele>327</ele>
        <time>2012-06-11T06:54:48Z</time>
      </trkpt>
      <trkpt lat="44.55764" lon="2.68432">
        <ele>327</ele>
        <time>2012-06-11T06:54:49Z</time>
      </trkpt>
      <trkpt lat="44.55763" lon="2.68431">
        <ele>327</ele>
        <time>2012-06-11T06:54:50Z</time>
      </trkpt>
      <trkpt lat="44.55761" lon="2.6843">
        <ele>327</ele>
        <time>2012-06-11T06:54:51Z</time>
      </trkpt>
      <trkpt lat="44.5576" lon="2.68429">
        <ele>327</ele>
        <time>2012-06-11T06:54:52Z</time>
      </trkpt>
      <trkpt lat="44.55759" lon="2.68429">
        <ele>327</ele>
        <time>2012-06-11T06:54:53Z</time>
      </trkpt>
      <trkpt lat="44.55757" lon="2.68428">
        <ele>327</ele>
        <time>2012-06-11T06:54:54Z</time>
      </trkpt>
      <trkpt lat="44.55756" lon="2.68428">
        <ele>327</ele>
        <time>2012-06-11T06:54:55Z</time>
      </trkpt>
      <trkpt lat="44.55755" lon="2.68427">
        <ele>327</ele>
        <time>2012-06-11T06:54:56Z</time>
      </trkpt>
      <trkpt lat="44.55753" lon="2.68427">
        <ele>327</ele>
        <time>2012-06-11T06:54:57Z</time>
      </trkpt>
      <trkpt lat="44.55751" lon="2.68426">
        <ele>327</ele>
        <time>2012-06-11T06:54:58Z</time>
      </trkpt>
      <trkpt lat="44.5575" lon="2.68426">
        <ele>327</ele>
        <time>2012-06-11T06:54:59Z</time>
      </trkpt>
      <trkpt lat="44.55747" lon="2.68425">
        <ele>327</ele>
        <time>2012-06-11T06:55:01Z</time>
      </trkpt>
      <trkpt lat="44.55746" lon="2.68425">
        <ele>327</ele>
        <time>2012-06-11T06:55:02Z</time>
      </trkpt>
      <trkpt lat="44.55745" lon="2.68425">
        <ele>327</ele>
        <time>2012-06-11T06:55:03Z</time>
      </trkpt>
      <trkpt lat="44.55743" lon="2.68425">
        <ele>327</ele>
        <time>2012-06-11T06:55:04Z</time>
      </trkpt>
      <trkpt lat="44.55742" lon="2.68425">
        <ele>327</ele>
        <time>2012-06-11T06:55:05Z</time>
      </trkpt>
      <trkpt lat="44.55741" lon="2.68425">
        <ele>327</ele>
        <time>2012-06-11T06:55:06Z</time>
      </trkpt>
      <trkpt lat="44.5574" lon="2.68424">
        <ele>327</ele>
        <time>2012-06-11T06:55:07Z</time>
      </trkpt>
      <trkpt lat="44.55738" lon="2.68424">
        <ele>327</ele>
        <time>2012-06-11T06:55:08Z</time>
      </trkpt>
      <trkpt lat="44.55737" lon="2.68423">
        <ele>327</ele>
        <time>2012-06-11T06:55:09Z</time>
      </trkpt>
      <trkpt lat="44.55736" lon="2.68423">
        <ele>327</ele>
        <time>2012-06-11T06:55:10Z</time>
      </trkpt>
      <trkpt lat="44.55735" lon="2.68423">
        <ele>327</ele>
        <time>2012-06-11T06:55:11Z</time>
      </trkpt>
      <trkpt lat="44.55733" lon="2.68422">
        <ele>327</ele>
        <time>2012-06-11T06:55:12Z</time>
      </trkpt>
      <trkpt lat="44.55732" lon="2.68422">
        <ele>327</ele>
        <time>2012-06-11T06:55:13Z</time>
      </trkpt>
      <trkpt lat="44.5573" lon="2.68422">
        <ele>327</ele>
        <time>2012-06-11T06:55:14Z</time>
      </trkpt>
      <trkpt lat="44.55729" lon="2.68421">
        <ele>327</ele>
        <time>2012-06-11T06:55:15Z</time>
      </trkpt>
      <trkpt lat="44.55728" lon="2.6842">
        <ele>327</ele>
        <time>2012-06-11T06:55:16Z</time>
      </trkpt>
      <trkpt lat="44.55726" lon="2.68419">
        <ele>327</ele>
        <time>2012-06-11T06:55:17Z</time>
      </trkpt>
      <trkpt lat="44.55725" lon="2.68419">
        <ele>327</ele>
        <time>2012-06-11T06:55:18Z</time>
      </trkpt>
      <trkpt lat="44.55724" lon="2.68418">
        <ele>327</ele>
        <time>2012-06-11T06:55:19Z</time>
      </trkpt>
      <trkpt lat="44.55722" lon="2.68417">
        <ele>327</ele>
        <time>2012-06-11T06:55:20Z</time>
      </trkpt>
      <trkpt lat="44.55721" lon="2.68416">
        <ele>327</ele>
        <time>2012-06-11T06:55:21Z</time>
      </trkpt>
      <trkpt lat="44.5572" lon="2.68415">
        <ele>327</ele>
        <time>2012-06-11T06:55:22Z</time>
      </trkpt>
      <trkpt lat="44.55719" lon="2.68414">
        <ele>327</ele>
        <time>2012-06-11T06:55:23Z</time>
      </trkpt>
      <trkpt lat="44.55717" lon="2.68412">
        <ele>327</ele>
        <time>2012-06-11T06:55:25Z</time>
      </trkpt>
      <trkpt lat="44.55715" lon="2.68411">
        <ele>327</ele>
        <time>2012-06-11T06:55:27Z</time>
      </trkpt>
      <trkpt lat="44.55713" lon="2.68409">
        <ele>327</ele>
        <time>2012-06-11T06:55:29Z</time>
      </trkpt>
      <trkpt lat="44.55712" lon="2.68407">
        <ele>327</ele>
        <time>2012-06-11T06:55:31Z</time>
      </trkpt>
      <trkpt lat="44.5571" lon="2.68406">
        <ele>327</ele>
        <time>2012-06-11T06:55:44Z</time>
      </trkpt>
      <trkpt lat="44.55708" lon="2.68405">
        <ele>327</ele>
        <time>2012-06-11T06:55:46Z</time>
      </trkpt>
      <trkpt lat="44.55706" lon="2.68404">
        <ele>327</ele>
        <time>2012-06-11T06:55:48Z</time>
      </trkpt>
      <trkpt lat="44.55705" lon="2.68403">
        <ele>327</ele>
        <time>2012-06-11T06:55:49Z</time>
      </trkpt>
      <trkpt lat="44.55703" lon="2.68402">
        <ele>327</ele>
        <time>2012-06-11T06:55:51Z</time>
      </trkpt>
      <trkpt lat="44.55702" lon="2.68401">
        <ele>327</ele>
        <time>2012-06-11T06:55:52Z</time>
      </trkpt>
      <trkpt lat="44.557" lon="2.68399">
        <ele>327</ele>
        <time>2012-06-11T06:55:54Z</time>
      </trkpt>
      <trkpt lat="44.55698" lon="2.68398">
        <ele>328</ele>
        <time>2012-06-11T06:55:56Z</time>
      </trkpt>
      <trkpt lat="44.55697" lon="2.68397">
        <ele>328</ele>
        <time>2012-06-11T06:55:57Z</time>
      </trkpt>
      <trkpt lat="44.55695" lon="2.68396">
        <ele>328</ele>
        <time>2012-06-11T06:55:58Z</time>
      </trkpt>
      <trkpt lat="44.55693" lon="2.68394">
        <ele>328</ele>
        <time>2012-06-11T06:56:00Z</time>
      </trkpt>
      <trkpt lat="44.55692" lon="2.68393">
        <ele>328</ele>
        <time>2012-06-11T06:56:01Z</time>
      </trkpt>
      <trkpt lat="44.55691" lon="2.68392">
        <ele>328</ele>
        <time>2012-06-11T06:56:02Z</time>
      </trkpt>
      <trkpt lat="44.55689" lon="2.68391">
        <ele>328</ele>
        <time>2012-06-11T06:56:04Z</time>
      </trkpt>
      <trkpt lat="44.55688" lon="2.68389">
        <ele>328</ele>
        <time>2012-06-11T06:56:06Z</time>
      </trkpt>
      <trkpt lat="44.5569" lon="2.68388">
        <ele>330</ele>
        <time>2012-06-11T06:56:19Z</time>
      </trkpt>
      <trkpt lat="44.55688" lon="2.68387">
        <ele>330</ele>
        <time>2012-06-11T06:56:22Z</time>
      </trkpt>
      <trkpt lat="44.55686" lon="2.68386">
        <ele>331</ele>
        <time>2012-06-11T06:56:24Z</time>
      </trkpt>
      <trkpt lat="44.55684" lon="2.68384">
        <ele>331</ele>
        <time>2012-06-11T06:56:26Z</time>
      </trkpt>
      <trkpt lat="44.55682" lon="2.68382">
        <ele>332</ele>
        <time>2012-06-11T06:56:28Z</time>
      </trkpt>
      <trkpt lat="44.55681" lon="2.68381">
        <ele>332</ele>
        <time>2012-06-11T06:56:29Z</time>
      </trkpt>
      <trkpt lat="44.5568" lon="2.6838">
        <ele>332</ele>
        <time>2012-06-11T06:56:30Z</time>
      </trkpt>
      <trkpt lat="44.55679" lon="2.68379">
        <ele>332</ele>
        <time>2012-06-11T06:56:31Z</time>
      </trkpt>
      <trkpt lat="44.55677" lon="2.68378">
        <ele>332</ele>
        <time>2012-06-11T06:56:32Z</time>
      </trkpt>
      <trkpt lat="44.55676" lon="2.68377">
        <ele>332</ele>
        <time>2012-06-11T06:56:33Z</time>
      </trkpt>
      <trkpt lat="44.55674" lon="2.68376">
        <ele>332</ele>
        <time>2012-06-11T06:56:34Z</time>
      </trkpt>
      <trkpt lat="44.55673" lon="2.68375">
        <ele>332</ele>
        <time>2012-06-11T06:56:35Z</time>
      </trkpt>
      <trkpt lat="44.55671" lon="2.68373">
        <ele>332</ele>
        <time>2012-06-11T06:56:37Z</time>
      </trkpt>
      <trkpt lat="44.5567" lon="2.68371">
        <ele>332</ele>
        <time>2012-06-11T06:56:38Z</time>
      </trkpt>
      <trkpt lat="44.55669" lon="2.68369">
        <ele>332</ele>
        <time>2012-06-11T06:56:39Z</time>
      </trkpt>
      <trkpt lat="44.55668" lon="2.68368">
        <ele>332</ele>
        <time>2012-06-11T06:56:40Z</time>
      </trkpt>
      <trkpt lat="44.55667" lon="2.68365">
        <ele>332</ele>
        <time>2012-06-11T06:56:41Z</time>
      </trkpt>
      <trkpt lat="44.55666" lon="2.68364">
        <ele>332</ele>
        <time>2012-06-11T06:56:42Z</time>
      </trkpt>
      <trkpt lat="44.55664" lon="2.68361">
        <ele>332</ele>
        <time>2012-06-11T06:56:44Z</time>
      </trkpt>
      <trkpt lat="44.55664" lon="2.68359">
        <ele>333</ele>
        <time>2012-06-11T06:56:45Z</time>
      </trkpt>
      <trkpt lat="44.55663" lon="2.68358">
        <ele>333</ele>
        <time>2012-06-11T06:56:46Z</time>
      </trkpt>
      <trkpt lat="44.55662" lon="2.68356">
        <ele>333</ele>
        <time>2012-06-11T06:56:47Z</time>
      </trkpt>
      <trkpt lat="44.55661" lon="2.68354">
        <ele>333</ele>
        <time>2012-06-11T06:56:49Z</time>
      </trkpt>
      <trkpt lat="44.5566" lon="2.68352">
        <ele>333</ele>
        <time>2012-06-11T06:56:50Z</time>
      </trkpt>
      <trkpt lat="44.55659" lon="2.68351">
        <ele>333</ele>
        <time>2012-06-11T06:56:51Z</time>
      </trkpt>
      <trkpt lat="44.55658" lon="2.68348">
        <ele>333</ele>
        <time>2012-06-11T06:56:53Z</time>
      </trkpt>
      <trkpt lat="44.55656" lon="2.68346">
        <ele>333</ele>
        <time>2012-06-11T06:56:54Z</time>
      </trkpt>
      <trkpt lat="44.55656" lon="2.68344">
        <ele>333</ele>
        <time>2012-06-11T06:56:55Z</time>
      </trkpt>
      <trkpt lat="44.55655" lon="2.68342">
        <ele>333</ele>
        <time>2012-06-11T06:56:56Z</time>
      </trkpt>
      <trkpt lat="44.55654" lon="2.68341">
        <ele>333</ele>
        <time>2012-06-11T06:56:57Z</time>
      </trkpt>
      <trkpt lat="44.55653" lon="2.68339">
        <ele>333</ele>
        <time>2012-06-11T06:56:58Z</time>
      </trkpt>
      <trkpt lat="44.55652" lon="2.68337">
        <ele>333</ele>
        <time>2012-06-11T06:56:59Z</time>
      </trkpt>
      <trkpt lat="44.55651" lon="2.68336">
        <ele>333</ele>
        <time>2012-06-11T06:57:00Z</time>
      </trkpt>
      <trkpt lat="44.55651" lon="2.68335">
        <ele>333</ele>
        <time>2012-06-11T06:57:01Z</time>
      </trkpt>
      <trkpt lat="44.5565" lon="2.68333">
        <ele>333</ele>
        <time>2012-06-11T06:57:02Z</time>
      </trkpt>
      <trkpt lat="44.5565" lon="2.68331">
        <ele>333</ele>
        <time>2012-06-11T06:57:03Z</time>
      </trkpt>
      <trkpt lat="44.55649" lon="2.68329">
        <ele>333</ele>
        <time>2012-06-11T06:57:04Z</time>
      </trkpt>
      <trkpt lat="44.55648" lon="2.68328">
        <ele>333</ele>
        <time>2012-06-11T06:57:05Z</time>
      </trkpt>
      <trkpt lat="44.55647" lon="2.68326">
        <ele>333</ele>
        <time>2012-06-11T06:57:06Z</time>
      </trkpt>
      <trkpt lat="44.55647" lon="2.68324">
        <ele>333</ele>
        <time>2012-06-11T06:57:07Z</time>
      </trkpt>
      <trkpt lat="44.55646" lon="2.68322">
        <ele>333</ele>
        <time>2012-06-11T06:57:08Z</time>
      </trkpt>
      <trkpt lat="44.55645" lon="2.68321">
        <ele>333</ele>
        <time>2012-06-11T06:57:09Z</time>
      </trkpt>
      <trkpt lat="44.55644" lon="2.6832">
        <ele>333</ele>
        <time>2012-06-11T06:57:10Z</time>
      </trkpt>
      <trkpt lat="44.55643" lon="2.68318">
        <ele>333</ele>
        <time>2012-06-11T06:57:11Z</time>
      </trkpt>
      <trkpt lat="44.55642" lon="2.68316">
        <ele>333</ele>
        <time>2012-06-11T06:57:12Z</time>
      </trkpt>
      <trkpt lat="44.55642" lon="2.68314">
        <ele>333</ele>
        <time>2012-06-11T06:57:13Z</time>
      </trkpt>
      <trkpt lat="44.55641" lon="2.68313">
        <ele>333</ele>
        <time>2012-06-11T06:57:14Z</time>
      </trkpt>
      <trkpt lat="44.5564" lon="2.68311">
        <ele>333</ele>
        <time>2012-06-11T06:57:15Z</time>
      </trkpt>
      <trkpt lat="44.5564" lon="2.68309">
        <ele>333</ele>
        <time>2012-06-11T06:57:16Z</time>
      </trkpt>
      <trkpt lat="44.55639" lon="2.68308">
        <ele>333</ele>
        <time>2012-06-11T06:57:17Z</time>
      </trkpt>
      <trkpt lat="44.55638" lon="2.68306">
        <ele>333</ele>
        <time>2012-06-11T06:57:18Z</time>
      </trkpt>
      <trkpt lat="44.55637" lon="2.68304">
        <ele>333</ele>
        <time>2012-06-11T06:57:19Z</time>
      </trkpt>
      <trkpt lat="44.55637" lon="2.68302">
        <ele>333</ele>
        <time>2012-06-11T06:57:20Z</time>
      </trkpt>
      <trkpt lat="44.55636" lon="2.683">
        <ele>333</ele>
        <time>2012-06-11T06:57:21Z</time>
      </trkpt>
      <trkpt lat="44.55635" lon="2.68298">
        <ele>333</ele>
        <time>2012-06-11T06:57:22Z</time>
      </trkpt>
      <trkpt lat="44.55635" lon="2.68297">
        <ele>333</ele>
        <time>2012-06-11T06:57:23Z</time>
      </trkpt>
      <trkpt lat="44.55634" lon="2.68293">
        <ele>333</ele>
        <time>2012-06-11T06:57:25Z</time>
      </trkpt>
      <trkpt lat="44.55633" lon="2.68292">
        <ele>333</ele>
        <time>2012-06-11T06:57:26Z</time>
      </trkpt>
      <trkpt lat="44.55633" lon="2.6829">
        <ele>333</ele>
        <time>2012-06-11T06:57:27Z</time>
      </trkpt>
      <trkpt lat="44.55632" lon="2.68288">
        <ele>333</ele>
        <time>2012-06-11T06:57:28Z</time>
      </trkpt>
      <trkpt lat="44.55632" lon="2.68286">
        <ele>333</ele>
        <time>2012-06-11T06:57:29Z</time>
      </trkpt>
      <trkpt lat="44.55631" lon="2.68284">
        <ele>333</ele>
        <time>2012-06-11T06:57:30Z</time>
      </trkpt>
      <trkpt lat="44.5563" lon="2.68283">
        <ele>333</ele>
        <time>2012-06-11T06:57:31Z</time>
      </trkpt>
      <trkpt lat="44.5563" lon="2.68281">
        <ele>333</ele>
        <time>2012-06-11T06:57:32Z</time>
      </trkpt>
      <trkpt lat="44.55629" lon="2.68279">
        <ele>333</ele>
        <time>2012-06-11T06:57:33Z</time>
      </trkpt>
      <trkpt lat="44.55629" lon="2.68277">
        <ele>333</ele>
        <time>2012-06-11T06:57:34Z</time>
      </trkpt>
      <trkpt lat="44.55628" lon="2.68275">
        <ele>333</ele>
        <time>2012-06-11T06:57:35Z</time>
      </trkpt>
      <trkpt lat="44.55627" lon="2.68274">
        <ele>333</ele>
        <time>2012-06-11T06:57:36Z</time>
      </trkpt>
      <trkpt lat="44.55627" lon="2.68271">
        <ele>333</ele>
        <time>2012-06-11T06:57:37Z</time>
      </trkpt>
      <trkpt lat="44.55627" lon="2.6827">
        <ele>333</ele>
        <time>2012-06-11T06:57:38Z</time>
      </trkpt>
      <trkpt lat="44.55626" lon="2.68268">
        <ele>333</ele>
        <time>2012-06-11T06:57:39Z</time>
      </trkpt>
      <trkpt lat="44.55625" lon="2.68266">
        <ele>333</ele>
        <time>2012-06-11T06:57:40Z</time>
      </trkpt>
      <trkpt lat="44.55625" lon="2.68264">
        <ele>333</ele>
        <time>2012-06-11T06:57:41Z</time>
      </trkpt>
      <trkpt lat="44.55624" lon="2.68263">
        <ele>333</ele>
        <time>2012-06-11T06:57:42Z</time>
      </trkpt>
      <trkpt lat="44.55624" lon="2.68261">
        <ele>333</ele>
        <time>2012-06-11T06:57:43Z</time>
      </trkpt>
      <trkpt lat="44.55623" lon="2.68259">
        <ele>333</ele>
        <time>2012-06-11T06:57:44Z</time>
      </trkpt>
      <trkpt lat="44.55623" lon="2.68257">
        <ele>333</ele>
        <time>2012-06-11T06:57:45Z</time>
      </trkpt>
      <trkpt lat="44.55622" lon="2.68255">
        <ele>333</ele>
        <time>2012-06-11T06:57:46Z</time>
      </trkpt>
      <trkpt lat="44.55622" lon="2.68253">
        <ele>333</ele>
        <time>2012-06-11T06:57:47Z</time>
      </trkpt>
      <trkpt lat="44.55621" lon="2.68251">
        <ele>333</ele>
        <time>2012-06-11T06:57:48Z</time>
      </trkpt>
      <trkpt lat="44.55621" lon="2.6825">
        <ele>333</ele>
        <time>2012-06-11T06:57:49Z</time>
      </trkpt>
      <trkpt lat="44.5562" lon="2.68248">
        <ele>333</ele>
        <time>2012-06-11T06:57:50Z</time>
      </trkpt>
      <trkpt lat="44.5562" lon="2.68246">
        <ele>333</ele>
        <time>2012-06-11T06:57:51Z</time>
      </trkpt>
      <trkpt lat="44.55619" lon="2.68244">
        <ele>333</ele>
        <time>2012-06-11T06:57:52Z</time>
      </trkpt>
      <trkpt lat="44.55619" lon="2.68242">
        <ele>333</ele>
        <time>2012-06-11T06:57:53Z</time>
      </trkpt>
      <trkpt lat="44.55618" lon="2.6824">
        <ele>333</ele>
        <time>2012-06-11T06:57:54Z</time>
      </trkpt>
      <trkpt lat="44.55618" lon="2.68238">
        <ele>333</ele>
        <time>2012-06-11T06:57:55Z</time>
      </trkpt>
      <trkpt lat="44.55617" lon="2.68236">
        <ele>333</ele>
        <time>2012-06-11T06:57:56Z</time>
      </trkpt>
      <trkpt lat="44.55617" lon="2.68235">
        <ele>333</ele>
        <time>2012-06-11T06:57:57Z</time>
      </trkpt>
      <trkpt lat="44.55616" lon="2.68233">
        <ele>333</ele>
        <time>2012-06-11T06:57:58Z</time>
      </trkpt>
      <trkpt lat="44.55616" lon="2.68231">
        <ele>333</ele>
        <time>2012-06-11T06:57:59Z</time>
      </trkpt>
      <trkpt lat="44.55615" lon="2.68229">
        <ele>333</ele>
        <time>2012-06-11T06:58:00Z</time>
      </trkpt>
      <trkpt lat="44.55614" lon="2.68227">
        <ele>333</ele>
        <time>2012-06-11T06:58:01Z</time>
      </trkpt>
      <trkpt lat="44.55614" lon="2.68225">
        <ele>333</ele>
        <time>2012-06-11T06:58:02Z</time>
      </trkpt>
      <trkpt lat="44.55614" lon="2.68223">
        <ele>333</ele>
        <time>2012-06-11T06:58:03Z</time>
      </trkpt>
      <trkpt lat="44.55613" lon="2.68221">
        <ele>333</ele>
        <time>2012-06-11T06:58:04Z</time>
      </trkpt>
      <trkpt lat="44.55613" lon="2.68219">
        <ele>333</ele>
        <time>2012-06-11T06:58:05Z</time>
      </trkpt>
      <trkpt lat="44.55612" lon="2.68217">
        <ele>333</ele>
        <time>2012-06-11T06:58:06Z</time>
      </trkpt>
      <trkpt lat="44.55612" lon="2.68215">
        <ele>333</ele>
        <time>2012-06-11T06:58:07Z</time>
      </trkpt>
      <trkpt lat="44.55611" lon="2.68213">
        <ele>333</ele>
        <time>2012-06-11T06:58:08Z</time>
      </trkpt>
      <trkpt lat="44.55611" lon="2.68211">
        <ele>333</ele>
        <time>2012-06-11T06:58:09Z</time>
      </trkpt>
      <trkpt lat="44.5561" lon="2.68209">
        <ele>333</ele>
        <time>2012-06-11T06:58:10Z</time>
      </trkpt>
      <trkpt lat="44.5561" lon="2.68207">
        <ele>333</ele>
        <time>2012-06-11T06:58:11Z</time>
      </trkpt>
      <trkpt lat="44.5561" lon="2.68205">
        <ele>333</ele>
        <time>2012-06-11T06:58:12Z</time>
      </trkpt>
      <trkpt lat="44.55609" lon="2.68203">
        <ele>333</ele>
        <time>2012-06-11T06:58:13Z</time>
      </trkpt>
      <trkpt lat="44.55608" lon="2.682">
        <ele>333</ele>
        <time>2012-06-11T06:58:15Z</time>
      </trkpt>
      <trkpt lat="44.55608" lon="2.68198">
        <ele>333</ele>
        <time>2012-06-11T06:58:16Z</time>
      </trkpt>
      <trkpt lat="44.55608" lon="2.68196">
        <ele>333</ele>
        <time>2012-06-11T06:58:17Z</time>
      </trkpt>
      <trkpt lat="44.55607" lon="2.68194">
        <ele>333</ele>
        <time>2012-06-11T06:58:19Z</time>
      </trkpt>
      <trkpt lat="44.55607" lon="2.68192">
        <ele>333</ele>
        <time>2012-06-11T06:58:19Z</time>
      </trkpt>
      <trkpt lat="44.55606" lon="2.68188">
        <ele>333</ele>
        <time>2012-06-11T06:58:21Z</time>
      </trkpt>
      <trkpt lat="44.55606" lon="2.68187">
        <ele>333</ele>
        <time>2012-06-11T06:58:22Z</time>
      </trkpt>
      <trkpt lat="44.55606" lon="2.68184">
        <ele>333</ele>
        <time>2012-06-11T06:58:41Z</time>
      </trkpt>
      <trkpt lat="44.55606" lon="2.68183">
        <ele>333</ele>
        <time>2012-06-11T06:58:42Z</time>
      </trkpt>
      <trkpt lat="44.55606" lon="2.68181">
        <ele>333</ele>
        <time>2012-06-11T06:58:43Z</time>
      </trkpt>
      <trkpt lat="44.55605" lon="2.68175">
        <ele>333</ele>
        <time>2012-06-11T06:58:46Z</time>
      </trkpt>
      <trkpt lat="44.55605" lon="2.6817">
        <ele>333</ele>
        <time>2012-06-11T06:58:49Z</time>
      </trkpt>
      <trkpt lat="44.55605" lon="2.68161">
        <ele>333</ele>
        <time>2012-06-11T06:58:54Z</time>
      </trkpt>
      <trkpt lat="44.55604" lon="2.68159">
        <ele>333</ele>
        <time>2012-06-11T06:58:55Z</time>
      </trkpt>
      <trkpt lat="44.55604" lon="2.68154">
        <ele>333</ele>
        <time>2012-06-11T06:58:57Z</time>
      </trkpt>
      <trkpt lat="44.55603" lon="2.68145">
        <ele>333</ele>
        <time>2012-06-11T06:59:01Z</time>
      </trkpt>
      <trkpt lat="44.55603" lon="2.68144">
        <ele>333</ele>
        <time>2012-06-11T06:59:02Z</time>
      </trkpt>
      <trkpt lat="44.55602" lon="2.68142">
        <ele>333</ele>
        <time>2012-06-11T06:59:03Z</time>
      </trkpt>
      <trkpt lat="44.55602" lon="2.6814">
        <ele>333</ele>
        <time>2012-06-11T06:59:04Z</time>
      </trkpt>
      <trkpt lat="44.55602" lon="2.68138">
        <ele>333</ele>
        <time>2012-06-11T06:59:05Z</time>
      </trkpt>
      <trkpt lat="44.55602" lon="2.68127">
        <ele>333</ele>
        <time>2012-06-11T06:59:10Z</time>
      </trkpt>
      <trkpt lat="44.55601" lon="2.68125">
        <ele>333</ele>
        <time>2012-06-11T06:59:11Z</time>
      </trkpt>
      <trkpt lat="44.55601" lon="2.68107">
        <ele>333</ele>
        <time>2012-06-11T06:59:21Z</time>
      </trkpt>
      <trkpt lat="44.556" lon="2.68105">
        <ele>333</ele>
        <time>2012-06-11T06:59:22Z</time>
      </trkpt>
      <trkpt lat="44.55601" lon="2.68103">
        <ele>333</ele>
        <time>2012-06-11T06:59:23Z</time>
      </trkpt>
      <trkpt lat="44.556" lon="2.68098">
        <ele>333</ele>
        <time>2012-06-11T06:59:26Z</time>
      </trkpt>
      <trkpt lat="44.55601" lon="2.68077">
        <ele>333</ele>
        <time>2012-06-11T06:59:37Z</time>
      </trkpt>
      <trkpt lat="44.556" lon="2.68076">
        <ele>333</ele>
        <time>2012-06-11T06:59:38Z</time>
      </trkpt>
      <trkpt lat="44.55601" lon="2.68062">
        <ele>333</ele>
        <time>2012-06-11T06:59:46Z</time>
      </trkpt>
      <trkpt lat="44.55601" lon="2.68029">
        <ele>332</ele>
        <time>2012-06-11T07:00:03Z</time>
      </trkpt>
      <trkpt lat="44.55602" lon="2.68016">
        <ele>332</ele>
        <time>2012-06-11T07:00:10Z</time>
      </trkpt>
      <trkpt lat="44.55601" lon="2.68014">
        <ele>331</ele>
        <time>2012-06-11T07:00:11Z</time>
      </trkpt>
      <trkpt lat="44.55601" lon="2.68012">
        <ele>331</ele>
        <time>2012-06-11T07:00:12Z</time>
      </trkpt>
      <trkpt lat="44.556" lon="2.68003">
        <ele>330</ele>
        <time>2012-06-11T07:00:17Z</time>
      </trkpt>
      <trkpt lat="44.55601" lon="2.68001">
        <ele>330</ele>
        <time>2012-06-11T07:00:18Z</time>
      </trkpt>
      <trkpt lat="44.55601" lon="2.67989">
        <ele>330</ele>
        <time>2012-06-11T07:00:24Z</time>
      </trkpt>
      <trkpt lat="44.55602" lon="2.67987">
        <ele>330</ele>
        <time>2012-06-11T07:00:25Z</time>
      </trkpt>
      <trkpt lat="44.55602" lon="2.67985">
        <ele>330</ele>
        <time>2012-06-11T07:00:26Z</time>
      </trkpt>
      <trkpt lat="44.55602" lon="2.67977">
        <ele>330</ele>
        <time>2012-06-11T07:00:30Z</time>
      </trkpt>
      <trkpt lat="44.55603" lon="2.67973">
        <ele>330</ele>
        <time>2012-06-11T07:00:32Z</time>
      </trkpt>
      <trkpt lat="44.55603" lon="2.67967">
        <ele>330</ele>
        <time>2012-06-11T07:00:36Z</time>
      </trkpt>
      <trkpt lat="44.55607" lon="2.67967">
        <ele>330</ele>
        <time>2012-06-11T07:00:44Z</time>
      </trkpt>
      <trkpt lat="44.55608" lon="2.67965">
        <ele>330</ele>
        <time>2012-06-11T07:00:47Z</time>
      </trkpt>
      <trkpt lat="44.55608" lon="2.67961">
        <ele>330</ele>
        <time>2012-06-11T07:00:49Z</time>
      </trkpt>
      <trkpt lat="44.55608" lon="2.67957">
        <ele>330</ele>
        <time>2012-06-11T07:00:51Z</time>
      </trkpt>
      <trkpt lat="44.55607" lon="2.67951">
        <ele>330</ele>
        <time>2012-06-11T07:00:55Z</time>
      </trkpt>
      <trkpt lat="44.55606" lon="2.67945">
        <ele>330</ele>
        <time>2012-06-11T07:00:58Z</time>
      </trkpt>
      <trkpt lat="44.55607" lon="2.67943">
        <ele>330</ele>
        <time>2012-06-11T07:00:59Z</time>
      </trkpt>
      <trkpt lat="44.55607" lon="2.67941">
        <ele>330</ele>
        <time>2012-06-11T07:01:00Z</time>
      </trkpt>
      <trkpt lat="44.55608" lon="2.67932">
        <ele>330</ele>
        <time>2012-06-11T07:01:04Z</time>
      </trkpt>
      <trkpt lat="44.55608" lon="2.67931">
        <ele>330</ele>
        <time>2012-06-11T07:01:05Z</time>
      </trkpt>
      <trkpt lat="44.55608" lon="2.67925">
        <ele>330</ele>
        <time>2012-06-11T07:01:08Z</time>
      </trkpt>
      <trkpt lat="44.55609" lon="2.67922">
        <ele>330</ele>
        <time>2012-06-11T07:01:10Z</time>
      </trkpt>
      <trkpt lat="44.55609" lon="2.6792">
        <ele>330</ele>
        <time>2012-06-11T07:01:11Z</time>
      </trkpt>
      <trkpt lat="44.5561" lon="2.67908">
        <ele>330</ele>
        <time>2012-06-11T07:01:18Z</time>
      </trkpt>
      <trkpt lat="44.5561" lon="2.67901">
        <ele>330</ele>
        <time>2012-06-11T07:01:22Z</time>
      </trkpt>
      <trkpt lat="44.55611" lon="2.67899">
        <ele>330</ele>
        <time>2012-06-11T07:01:23Z</time>
      </trkpt>
      <trkpt lat="44.55611" lon="2.67897">
        <ele>330</ele>
        <time>2012-06-11T07:01:24Z</time>
      </trkpt>
      <trkpt lat="44.55612" lon="2.67895">
        <ele>330</ele>
        <time>2012-06-11T07:01:25Z</time>
      </trkpt>
      <trkpt lat="44.55612" lon="2.67891">
        <ele>330</ele>
        <time>2012-06-11T07:01:27Z</time>
      </trkpt>
      <trkpt lat="44.55613" lon="2.67881">
        <ele>330</ele>
        <time>2012-06-11T07:01:32Z</time>
      </trkpt>
      <trkpt lat="44.55613" lon="2.67879">
        <ele>330</ele>
        <time>2012-06-11T07:01:33Z</time>
      </trkpt>
      <trkpt lat="44.55614" lon="2.67877">
        <ele>330</ele>
        <time>2012-06-11T07:01:34Z</time>
      </trkpt>
      <trkpt lat="44.55614" lon="2.67875">
        <ele>330</ele>
        <time>2012-06-11T07:01:35Z</time>
      </trkpt>
      <trkpt lat="44.55614" lon="2.67873">
        <ele>330</ele>
        <time>2012-06-11T07:01:36Z</time>
      </trkpt>
      <trkpt lat="44.55614" lon="2.6787">
        <ele>330</ele>
        <time>2012-06-11T07:01:38Z</time>
      </trkpt>
      <trkpt lat="44.55614" lon="2.67868">
        <ele>330</ele>
        <time>2012-06-11T07:01:39Z</time>
      </trkpt>
      <trkpt lat="44.55614" lon="2.67861">
        <ele>330</ele>
        <time>2012-06-11T07:01:43Z</time>
      </trkpt>
      <trkpt lat="44.55614" lon="2.67855">
        <ele>330</ele>
        <time>2012-06-11T07:01:46Z</time>
      </trkpt>
      <trkpt lat="44.55614" lon="2.67853">
        <ele>330</ele>
        <time>2012-06-11T07:01:47Z</time>
      </trkpt>
      <trkpt lat="44.55614" lon="2.67851">
        <ele>330</ele>
        <time>2012-06-11T07:01:48Z</time>
      </trkpt>
      <trkpt lat="44.55613" lon="2.67849">
        <ele>330</ele>
        <time>2012-06-11T07:01:49Z</time>
      </trkpt>
      <trkpt lat="44.55614" lon="2.67846">
        <ele>330</ele>
        <time>2012-06-11T07:01:53Z</time>
      </trkpt>
      <trkpt lat="44.55615" lon="2.67845">
        <ele>330</ele>
        <time>2012-06-11T07:01:56Z</time>
      </trkpt>
      <trkpt lat="44.55614" lon="2.6784">
        <ele>329</ele>
        <time>2012-06-11T07:01:59Z</time>
      </trkpt>
      <trkpt lat="44.55614" lon="2.67839">
        <ele>329</ele>
        <time>2012-06-11T07:02:00Z</time>
      </trkpt>
      <trkpt lat="44.55614" lon="2.67837">
        <ele>329</ele>
        <time>2012-06-11T07:02:01Z</time>
      </trkpt>
      <trkpt lat="44.55614" lon="2.67833">
        <ele>329</ele>
        <time>2012-06-11T07:02:03Z</time>
      </trkpt>
      <trkpt lat="44.55613" lon="2.67829">
        <ele>329</ele>
        <time>2012-06-11T07:02:05Z</time>
      </trkpt>
      <trkpt lat="44.55613" lon="2.67811">
        <ele>329</ele>
        <time>2012-06-11T07:02:14Z</time>
      </trkpt>
      <trkpt lat="44.55613" lon="2.67803">
        <ele>329</ele>
        <time>2012-06-11T07:02:18Z</time>
      </trkpt>
      <trkpt lat="44.55612" lon="2.67801">
        <ele>329</ele>
        <time>2012-06-11T07:02:19Z</time>
      </trkpt>
      <trkpt lat="44.55612" lon="2.67797">
        <ele>329</ele>
        <time>2012-06-11T07:02:21Z</time>
      </trkpt>
      <trkpt lat="44.55611" lon="2.67793">
        <ele>329</ele>
        <time>2012-06-11T07:02:23Z</time>
      </trkpt>
      <trkpt lat="44.55611" lon="2.67789">
        <ele>329</ele>
        <time>2012-06-11T07:02:25Z</time>
      </trkpt>
      <trkpt lat="44.55611" lon="2.67785">
        <ele>329</ele>
        <time>2012-06-11T07:02:27Z</time>
      </trkpt>
      <trkpt lat="44.5561" lon="2.6778">
        <ele>329</ele>
        <time>2012-06-11T07:02:30Z</time>
      </trkpt>
      <trkpt lat="44.5561" lon="2.67777">
        <ele>329</ele>
        <time>2012-06-11T07:02:31Z</time>
      </trkpt>
      <trkpt lat="44.5561" lon="2.67776">
        <ele>329</ele>
        <time>2012-06-11T07:02:32Z</time>
      </trkpt>
      <trkpt lat="44.55609" lon="2.67774">
        <ele>329</ele>
        <time>2012-06-11T07:02:33Z</time>
      </trkpt>
      <trkpt lat="44.55609" lon="2.6777">
        <ele>329</ele>
        <time>2012-06-11T07:02:35Z</time>
      </trkpt>
      <trkpt lat="44.55608" lon="2.67768">
        <ele>329</ele>
        <time>2012-06-11T07:02:36Z</time>
      </trkpt>
      <trkpt lat="44.55608" lon="2.67762">
        <ele>329</ele>
        <time>2012-06-11T07:02:39Z</time>
      </trkpt>
      <trkpt lat="44.55608" lon="2.67755">
        <ele>329</ele>
        <time>2012-06-11T07:02:43Z</time>
      </trkpt>
      <trkpt lat="44.55609" lon="2.67748">
        <ele>329</ele>
        <time>2012-06-11T07:02:46Z</time>
      </trkpt>
      <trkpt lat="44.55609" lon="2.67746">
        <ele>329</ele>
        <time>2012-06-11T07:02:47Z</time>
      </trkpt>
      <trkpt lat="44.55609" lon="2.6774">
        <ele>329</ele>
        <time>2012-06-11T07:02:50Z</time>
      </trkpt>
      <trkpt lat="44.55608" lon="2.67735">
        <ele>329</ele>
        <time>2012-06-11T07:02:53Z</time>
      </trkpt>
      <trkpt lat="44.55609" lon="2.67733">
        <ele>329</ele>
        <time>2012-06-11T07:02:54Z</time>
      </trkpt>
      <trkpt lat="44.55608" lon="2.67725">
        <ele>329</ele>
        <time>2012-06-11T07:02:58Z</time>
      </trkpt>
      <trkpt lat="44.55608" lon="2.67719">
        <ele>329</ele>
        <time>2012-06-11T07:03:01Z</time>
      </trkpt>
      <trkpt lat="44.55608" lon="2.67716">
        <ele>329</ele>
        <time>2012-06-11T07:03:03Z</time>
      </trkpt>
      <trkpt lat="44.55607" lon="2.67714">
        <ele>329</ele>
        <time>2012-06-11T07:03:04Z</time>
      </trkpt>
      <trkpt lat="44.55607" lon="2.67708">
        <ele>329</ele>
        <time>2012-06-11T07:03:07Z</time>
      </trkpt>
      <trkpt lat="44.55606" lon="2.67702">
        <ele>329</ele>
        <time>2012-06-11T07:03:10Z</time>
      </trkpt>
      <trkpt lat="44.55606" lon="2.67698">
        <ele>329</ele>
        <time>2012-06-11T07:03:13Z</time>
      </trkpt>
      <trkpt lat="44.55606" lon="2.67695">
        <ele>329</ele>
        <time>2012-06-11T07:03:15Z</time>
      </trkpt>
      <trkpt lat="44.55605" lon="2.67692">
        <ele>329</ele>
        <time>2012-06-11T07:03:17Z</time>
      </trkpt>
      <trkpt lat="44.55605" lon="2.67687">
        <ele>329</ele>
        <time>2012-06-11T07:03:20Z</time>
      </trkpt>
      <trkpt lat="44.55605" lon="2.67684">
        <ele>329</ele>
        <time>2012-06-11T07:03:22Z</time>
      </trkpt>
      <trkpt lat="44.55604" lon="2.67682">
        <ele>329</ele>
        <time>2012-06-11T07:03:23Z</time>
      </trkpt>
      <trkpt lat="44.55604" lon="2.67679">
        <ele>329</ele>
        <time>2012-06-11T07:03:25Z</time>
      </trkpt>
      <trkpt lat="44.55603" lon="2.67677">
        <ele>329</ele>
        <time>2012-06-11T07:03:26Z</time>
      </trkpt>
      <trkpt lat="44.55603" lon="2.67675">
        <ele>329</ele>
        <time>2012-06-11T07:03:27Z</time>
      </trkpt>
      <trkpt lat="44.55603" lon="2.67673">
        <ele>329</ele>
        <time>2012-06-11T07:03:28Z</time>
      </trkpt>
      <trkpt lat="44.55602" lon="2.67672">
        <ele>329</ele>
        <time>2012-06-11T07:03:29Z</time>
      </trkpt>
      <trkpt lat="44.55602" lon="2.6767">
        <ele>329</ele>
        <time>2012-06-11T07:03:30Z</time>
      </trkpt>
      <trkpt lat="44.55602" lon="2.67669">
        <ele>329</ele>
        <time>2012-06-11T07:03:31Z</time>
      </trkpt>
      <trkpt lat="44.55601" lon="2.67667">
        <ele>329</ele>
        <time>2012-06-11T07:03:32Z</time>
      </trkpt>
      <trkpt lat="44.55601" lon="2.67665">
        <ele>329</ele>
        <time>2012-06-11T07:03:33Z</time>
      </trkpt>
      <trkpt lat="44.556" lon="2.67663">
        <ele>329</ele>
        <time>2012-06-11T07:03:34Z</time>
      </trkpt>
      <trkpt lat="44.556" lon="2.67661">
        <ele>329</ele>
        <time>2012-06-11T07:03:35Z</time>
      </trkpt>
      <trkpt lat="44.55599" lon="2.6766">
        <ele>329</ele>
        <time>2012-06-11T07:03:36Z</time>
      </trkpt>
      <trkpt lat="44.55599" lon="2.67658">
        <ele>329</ele>
        <time>2012-06-11T07:03:37Z</time>
      </trkpt>
      <trkpt lat="44.55598" lon="2.67656">
        <ele>329</ele>
        <time>2012-06-11T07:03:38Z</time>
      </trkpt>
      <trkpt lat="44.55598" lon="2.67654">
        <ele>329</ele>
        <time>2012-06-11T07:03:39Z</time>
      </trkpt>
      <trkpt lat="44.55598" lon="2.67653">
        <ele>329</ele>
        <time>2012-06-11T07:03:40Z</time>
      </trkpt>
      <trkpt lat="44.55597" lon="2.67651">
        <ele>329</ele>
        <time>2012-06-11T07:03:41Z</time>
      </trkpt>
      <trkpt lat="44.55596" lon="2.67649">
        <ele>329</ele>
        <time>2012-06-11T07:03:42Z</time>
      </trkpt>
      <trkpt lat="44.55596" lon="2.67648">
        <ele>329</ele>
        <time>2012-06-11T07:03:43Z</time>
      </trkpt>
      <trkpt lat="44.55595" lon="2.67646">
        <ele>329</ele>
        <time>2012-06-11T07:03:44Z</time>
      </trkpt>
      <trkpt lat="44.55595" lon="2.67644">
        <ele>329</ele>
        <time>2012-06-11T07:03:45Z</time>
      </trkpt>
      <trkpt lat="44.55594" lon="2.67643">
        <ele>329</ele>
        <time>2012-06-11T07:03:46Z</time>
      </trkpt>
      <trkpt lat="44.55593" lon="2.67641">
        <ele>329</ele>
        <time>2012-06-11T07:03:47Z</time>
      </trkpt>
      <trkpt lat="44.55593" lon="2.67639">
        <ele>329</ele>
        <time>2012-06-11T07:03:48Z</time>
      </trkpt>
      <trkpt lat="44.55592" lon="2.67638">
        <ele>329</ele>
        <time>2012-06-11T07:03:49Z</time>
      </trkpt>
      <trkpt lat="44.55592" lon="2.67636">
        <ele>329</ele>
        <time>2012-06-11T07:03:50Z</time>
      </trkpt>
      <trkpt lat="44.5559" lon="2.67634">
        <ele>329</ele>
        <time>2012-06-11T07:03:52Z</time>
      </trkpt>
      <trkpt lat="44.5559" lon="2.67632">
        <ele>328</ele>
        <time>2012-06-11T07:03:53Z</time>
      </trkpt>
      <trkpt lat="44.55589" lon="2.6763">
        <ele>328</ele>
        <time>2012-06-11T07:03:54Z</time>
      </trkpt>
      <trkpt lat="44.55589" lon="2.67629">
        <ele>328</ele>
        <time>2012-06-11T07:03:55Z</time>
      </trkpt>
      <trkpt lat="44.55588" lon="2.67627">
        <ele>328</ele>
        <time>2012-06-11T07:03:56Z</time>
      </trkpt>
      <trkpt lat="44.55588" lon="2.67625">
        <ele>328</ele>
        <time>2012-06-11T07:03:57Z</time>
      </trkpt>
      <trkpt lat="44.55587" lon="2.67624">
        <ele>328</ele>
        <time>2012-06-11T07:03:58Z</time>
      </trkpt>
      <trkpt lat="44.55586" lon="2.67621">
        <ele>328</ele>
        <time>2012-06-11T07:04:00Z</time>
      </trkpt>
      <trkpt lat="44.55585" lon="2.67619">
        <ele>328</ele>
        <time>2012-06-11T07:04:01Z</time>
      </trkpt>
      <trkpt lat="44.55584" lon="2.67617">
        <ele>328</ele>
        <time>2012-06-11T07:04:02Z</time>
      </trkpt>
      <trkpt lat="44.55583" lon="2.67616">
        <ele>328</ele>
        <time>2012-06-11T07:04:03Z</time>
      </trkpt>
      <trkpt lat="44.55583" lon="2.67614">
        <ele>328</ele>
        <time>2012-06-11T07:04:04Z</time>
      </trkpt>
      <trkpt lat="44.55582" lon="2.67612">
        <ele>328</ele>
        <time>2012-06-11T07:04:05Z</time>
      </trkpt>
      <trkpt lat="44.55581" lon="2.6761">
        <ele>328</ele>
        <time>2012-06-11T07:04:06Z</time>
      </trkpt>
      <trkpt lat="44.55581" lon="2.67609">
        <ele>328</ele>
        <time>2012-06-11T07:04:07Z</time>
      </trkpt>
      <trkpt lat="44.5558" lon="2.67607">
        <ele>328</ele>
        <time>2012-06-11T07:04:08Z</time>
      </trkpt>
      <trkpt lat="44.55579" lon="2.67604">
        <ele>328</ele>
        <time>2012-06-11T07:04:09Z</time>
      </trkpt>
      <trkpt lat="44.55578" lon="2.67603">
        <ele>328</ele>
        <time>2012-06-11T07:04:10Z</time>
      </trkpt>
      <trkpt lat="44.55578" lon="2.67601">
        <ele>328</ele>
        <time>2012-06-11T07:04:11Z</time>
      </trkpt>
      <trkpt lat="44.55577" lon="2.67599">
        <ele>328</ele>
        <time>2012-06-11T07:04:12Z</time>
      </trkpt>
      <trkpt lat="44.55576" lon="2.67598">
        <ele>328</ele>
        <time>2012-06-11T07:04:13Z</time>
      </trkpt>
      <trkpt lat="44.55576" lon="2.67596">
        <ele>328</ele>
        <time>2012-06-11T07:04:14Z</time>
      </trkpt>
      <trkpt lat="44.55575" lon="2.67594">
        <ele>328</ele>
        <time>2012-06-11T07:04:15Z</time>
      </trkpt>
      <trkpt lat="44.55574" lon="2.67592">
        <ele>328</ele>
        <time>2012-06-11T07:04:16Z</time>
      </trkpt>
      <trkpt lat="44.55574" lon="2.6759">
        <ele>328</ele>
        <time>2012-06-11T07:04:17Z</time>
      </trkpt>
      <trkpt lat="44.55573" lon="2.67588">
        <ele>328</ele>
        <time>2012-06-11T07:04:18Z</time>
      </trkpt>
      <trkpt lat="44.55573" lon="2.67586">
        <ele>328</ele>
        <time>2012-06-11T07:04:19Z</time>
      </trkpt>
      <trkpt lat="44.55572" lon="2.67585">
        <ele>328</ele>
        <time>2012-06-11T07:04:20Z</time>
      </trkpt>
      <trkpt lat="44.55572" lon="2.67583">
        <ele>328</ele>
        <time>2012-06-11T07:04:21Z</time>
      </trkpt>
      <trkpt lat="44.55571" lon="2.67581">
        <ele>328</ele>
        <time>2012-06-11T07:04:22Z</time>
      </trkpt>
      <trkpt lat="44.55571" lon="2.6758">
        <ele>328</ele>
        <time>2012-06-11T07:04:23Z</time>
      </trkpt>
      <trkpt lat="44.55571" lon="2.67578">
        <ele>328</ele>
        <time>2012-06-11T07:04:24Z</time>
      </trkpt>
      <trkpt lat="44.5557" lon="2.67576">
        <ele>328</ele>
        <time>2012-06-11T07:04:25Z</time>
      </trkpt>
      <trkpt lat="44.5557" lon="2.67574">
        <ele>328</ele>
        <time>2012-06-11T07:04:26Z</time>
      </trkpt>
      <trkpt lat="44.55569" lon="2.67572">
        <ele>328</ele>
        <time>2012-06-11T07:04:27Z</time>
      </trkpt>
      <trkpt lat="44.55568" lon="2.6757">
        <ele>328</ele>
        <time>2012-06-11T07:04:28Z</time>
      </trkpt>
      <trkpt lat="44.55568" lon="2.67567">
        <ele>328</ele>
        <time>2012-06-11T07:04:30Z</time>
      </trkpt>
      <trkpt lat="44.55567" lon="2.67565">
        <ele>328</ele>
        <time>2012-06-11T07:04:31Z</time>
      </trkpt>
      <trkpt lat="44.55567" lon="2.67563">
        <ele>328</ele>
        <time>2012-06-11T07:04:32Z</time>
      </trkpt>
      <trkpt lat="44.55566" lon="2.67561">
        <ele>328</ele>
        <time>2012-06-11T07:04:33Z</time>
      </trkpt>
      <trkpt lat="44.55566" lon="2.67559">
        <ele>328</ele>
        <time>2012-06-11T07:04:34Z</time>
      </trkpt>
      <trkpt lat="44.55565" lon="2.67558">
        <ele>328</ele>
        <time>2012-06-11T07:04:35Z</time>
      </trkpt>
      <trkpt lat="44.55565" lon="2.67555">
        <ele>328</ele>
        <time>2012-06-11T07:04:41Z</time>
      </trkpt>
      <trkpt lat="44.55564" lon="2.67553">
        <ele>328</ele>
        <time>2012-06-11T07:04:42Z</time>
      </trkpt>
      <trkpt lat="44.55563" lon="2.67551">
        <ele>328</ele>
        <time>2012-06-11T07:04:43Z</time>
      </trkpt>
      <trkpt lat="44.55563" lon="2.6755">
        <ele>328</ele>
        <time>2012-06-11T07:04:44Z</time>
      </trkpt>
      <trkpt lat="44.55562" lon="2.67548">
        <ele>328</ele>
        <time>2012-06-11T07:04:45Z</time>
      </trkpt>
      <trkpt lat="44.55561" lon="2.67546">
        <ele>328</ele>
        <time>2012-06-11T07:04:46Z</time>
      </trkpt>
      <trkpt lat="44.55561" lon="2.67545">
        <ele>328</ele>
        <time>2012-06-11T07:04:47Z</time>
      </trkpt>
      <trkpt lat="44.5556" lon="2.67543">
        <ele>328</ele>
        <time>2012-06-11T07:04:48Z</time>
      </trkpt>
      <trkpt lat="44.5556" lon="2.67541">
        <ele>328</ele>
        <time>2012-06-11T07:04:49Z</time>
      </trkpt>
      <trkpt lat="44.55559" lon="2.67539">
        <ele>328</ele>
        <time>2012-06-11T07:04:50Z</time>
      </trkpt>
      <trkpt lat="44.55559" lon="2.67538">
        <ele>328</ele>
        <time>2012-06-11T07:04:51Z</time>
      </trkpt>
      <trkpt lat="44.55558" lon="2.67536">
        <ele>328</ele>
        <time>2012-06-11T07:04:52Z</time>
      </trkpt>
      <trkpt lat="44.55558" lon="2.67534">
        <ele>328</ele>
        <time>2012-06-11T07:04:53Z</time>
      </trkpt>
      <trkpt lat="44.55557" lon="2.67532">
        <ele>328</ele>
        <time>2012-06-11T07:04:54Z</time>
      </trkpt>
      <trkpt lat="44.55556" lon="2.67531">
        <ele>328</ele>
        <time>2012-06-11T07:04:55Z</time>
      </trkpt>
      <trkpt lat="44.55556" lon="2.67529">
        <ele>328</ele>
        <time>2012-06-11T07:04:56Z</time>
      </trkpt>
      <trkpt lat="44.55555" lon="2.67528">
        <ele>328</ele>
        <time>2012-06-11T07:04:57Z</time>
      </trkpt>
      <trkpt lat="44.55554" lon="2.67525">
        <ele>328</ele>
        <time>2012-06-11T07:04:59Z</time>
      </trkpt>
      <trkpt lat="44.55554" lon="2.67523">
        <ele>328</ele>
        <time>2012-06-11T07:05:00Z</time>
      </trkpt>
      <trkpt lat="44.55553" lon="2.67521">
        <ele>328</ele>
        <time>2012-06-11T07:05:01Z</time>
      </trkpt>
      <trkpt lat="44.55553" lon="2.6752">
        <ele>328</ele>
        <time>2012-06-11T07:05:02Z</time>
      </trkpt>
      <trkpt lat="44.55552" lon="2.67518">
        <ele>328</ele>
        <time>2012-06-11T07:05:03Z</time>
      </trkpt>
      <trkpt lat="44.55552" lon="2.67516">
        <ele>328</ele>
        <time>2012-06-11T07:05:04Z</time>
      </trkpt>
      <trkpt lat="44.55551" lon="2.67515">
        <ele>328</ele>
        <time>2012-06-11T07:05:05Z</time>
      </trkpt>
      <trkpt lat="44.55551" lon="2.67513">
        <ele>328</ele>
        <time>2012-06-11T07:05:07Z</time>
      </trkpt>
      <trkpt lat="44.5555" lon="2.67515">
        <ele>328</ele>
        <time>2012-06-11T07:05:10Z</time>
      </trkpt>
      <trkpt lat="44.55551" lon="2.67517">
        <ele>328</ele>
        <time>2012-06-11T07:05:11Z</time>
      </trkpt>
      <trkpt lat="44.55552" lon="2.67519">
        <ele>328</ele>
        <time>2012-06-11T07:05:13Z</time>
      </trkpt>
      <trkpt lat="44.55553" lon="2.6752">
        <ele>327</ele>
        <time>2012-06-11T07:05:17Z</time>
      </trkpt>
      <trkpt lat="44.55552" lon="2.67518">
        <ele>327</ele>
        <time>2012-06-11T07:05:19Z</time>
      </trkpt>
      <trkpt lat="44.55552" lon="2.67514">
        <ele>327</ele>
        <time>2012-06-11T07:05:21Z</time>
      </trkpt>
      <trkpt lat="44.55551" lon="2.67512">
        <ele>327</ele>
        <time>2012-06-11T07:05:22Z</time>
      </trkpt>
      <trkpt lat="44.5555" lon="2.67511">
        <ele>327</ele>
        <time>2012-06-11T07:05:23Z</time>
      </trkpt>
      <trkpt lat="44.5555" lon="2.67509">
        <ele>327</ele>
        <time>2012-06-11T07:05:24Z</time>
      </trkpt>
      <trkpt lat="44.55549" lon="2.67507">
        <ele>327</ele>
        <time>2012-06-11T07:05:25Z</time>
      </trkpt>
      <trkpt lat="44.55548" lon="2.67505">
        <ele>327</ele>
        <time>2012-06-11T07:05:26Z</time>
      </trkpt>
      <trkpt lat="44.55548" lon="2.67503">
        <ele>327</ele>
        <time>2012-06-11T07:05:27Z</time>
      </trkpt>
      <trkpt lat="44.55547" lon="2.67502">
        <ele>327</ele>
        <time>2012-06-11T07:05:28Z</time>
      </trkpt>
      <trkpt lat="44.55547" lon="2.675">
        <ele>327</ele>
        <time>2012-06-11T07:05:29Z</time>
      </trkpt>
      <trkpt lat="44.55546" lon="2.67498">
        <ele>327</ele>
        <time>2012-06-11T07:05:30Z</time>
      </trkpt>
      <trkpt lat="44.55545" lon="2.67496">
        <ele>327</ele>
        <time>2012-06-11T07:05:31Z</time>
      </trkpt>
      <trkpt lat="44.55545" lon="2.67494">
        <ele>327</ele>
        <time>2012-06-11T07:05:32Z</time>
      </trkpt>
      <trkpt lat="44.55544" lon="2.67493">
        <ele>327</ele>
        <time>2012-06-11T07:05:33Z</time>
      </trkpt>
      <trkpt lat="44.55544" lon="2.67491">
        <ele>327</ele>
        <time>2012-06-11T07:05:34Z</time>
      </trkpt>
      <trkpt lat="44.55543" lon="2.67489">
        <ele>327</ele>
        <time>2012-06-11T07:05:35Z</time>
      </trkpt>
      <trkpt lat="44.55542" lon="2.67487">
        <ele>327</ele>
        <time>2012-06-11T07:05:36Z</time>
      </trkpt>
      <trkpt lat="44.55542" lon="2.67485">
        <ele>327</ele>
        <time>2012-06-11T07:05:37Z</time>
      </trkpt>
      <trkpt lat="44.55541" lon="2.67483">
        <ele>327</ele>
        <time>2012-06-11T07:05:38Z</time>
      </trkpt>
      <trkpt lat="44.5554" lon="2.6748">
        <ele>327</ele>
        <time>2012-06-11T07:05:40Z</time>
      </trkpt>
      <trkpt lat="44.55539" lon="2.67478">
        <ele>327</ele>
        <time>2012-06-11T07:05:42Z</time>
      </trkpt>
      <trkpt lat="44.55538" lon="2.67476">
        <ele>327</ele>
        <time>2012-06-11T07:05:44Z</time>
      </trkpt>
      <trkpt lat="44.55536" lon="2.67473">
        <ele>327</ele>
        <time>2012-06-11T07:05:46Z</time>
      </trkpt>
      <trkpt lat="44.55535" lon="2.67471">
        <ele>327</ele>
        <time>2012-06-11T07:05:48Z</time>
      </trkpt>
      <trkpt lat="44.55535" lon="2.67469">
        <ele>327</ele>
        <time>2012-06-11T07:05:50Z</time>
      </trkpt>
      <trkpt lat="44.55534" lon="2.67463">
        <ele>327</ele>
        <time>2012-06-11T07:06:21Z</time>
      </trkpt>
      <trkpt lat="44.55533" lon="2.6746">
        <ele>327</ele>
        <time>2012-06-11T07:06:23Z</time>
      </trkpt>
      <trkpt lat="44.55531" lon="2.67458">
        <ele>327</ele>
        <time>2012-06-11T07:06:25Z</time>
      </trkpt>
      <trkpt lat="44.5553" lon="2.67456">
        <ele>327</ele>
        <time>2012-06-11T07:06:27Z</time>
      </trkpt>
      <trkpt lat="44.5553" lon="2.67454">
        <ele>327</ele>
        <time>2012-06-11T07:06:33Z</time>
      </trkpt>
      <trkpt lat="44.55528" lon="2.67451">
        <ele>327</ele>
        <time>2012-06-11T07:06:43Z</time>
      </trkpt>
      <trkpt lat="44.55526" lon="2.6745">
        <ele>327</ele>
        <time>2012-06-11T07:06:44Z</time>
      </trkpt>
      <trkpt lat="44.55524" lon="2.67447">
        <ele>327</ele>
        <time>2012-06-11T07:06:46Z</time>
      </trkpt>
      <trkpt lat="44.55523" lon="2.67445">
        <ele>327</ele>
        <time>2012-06-11T07:06:48Z</time>
      </trkpt>
      <trkpt lat="44.55521" lon="2.67443">
        <ele>326</ele>
        <time>2012-06-11T07:06:50Z</time>
      </trkpt>
      <trkpt lat="44.55518" lon="2.67441">
        <ele>326</ele>
        <time>2012-06-11T07:06:52Z</time>
      </trkpt>
      <trkpt lat="44.55517" lon="2.67438">
        <ele>325</ele>
        <time>2012-06-11T07:06:54Z</time>
      </trkpt>
      <trkpt lat="44.55515" lon="2.67436">
        <ele>325</ele>
        <time>2012-06-11T07:06:56Z</time>
      </trkpt>
      <trkpt lat="44.55514" lon="2.67433">
        <ele>324</ele>
        <time>2012-06-11T07:06:58Z</time>
      </trkpt>
      <trkpt lat="44.55513" lon="2.67431">
        <ele>324</ele>
        <time>2012-06-11T07:07:00Z</time>
      </trkpt>
      <trkpt lat="44.55512" lon="2.67429">
        <ele>323</ele>
        <time>2012-06-11T07:07:01Z</time>
      </trkpt>
      <trkpt lat="44.55511" lon="2.67427">
        <ele>323</ele>
        <time>2012-06-11T07:07:02Z</time>
      </trkpt>
      <trkpt lat="44.5551" lon="2.67425">
        <ele>323</ele>
        <time>2012-06-11T07:07:03Z</time>
      </trkpt>
      <trkpt lat="44.55509" lon="2.67424">
        <ele>323</ele>
        <time>2012-06-11T07:07:04Z</time>
      </trkpt>
      <trkpt lat="44.55508" lon="2.67422">
        <ele>323</ele>
        <time>2012-06-11T07:07:05Z</time>
      </trkpt>
      <trkpt lat="44.55508" lon="2.67421">
        <ele>322</ele>
        <time>2012-06-11T07:07:06Z</time>
      </trkpt>
      <trkpt lat="44.55507" lon="2.67419">
        <ele>322</ele>
        <time>2012-06-11T07:07:07Z</time>
      </trkpt>
      <trkpt lat="44.55505" lon="2.67417">
        <ele>322</ele>
        <time>2012-06-11T07:07:09Z</time>
      </trkpt>
      <trkpt lat="44.55504" lon="2.67415">
        <ele>322</ele>
        <time>2012-06-11T07:07:11Z</time>
      </trkpt>
      <trkpt lat="44.55502" lon="2.67413">
        <ele>321</ele>
        <time>2012-06-11T07:07:13Z</time>
      </trkpt>
      <trkpt lat="44.55501" lon="2.67411">
        <ele>321</ele>
        <time>2012-06-11T07:07:14Z</time>
      </trkpt>
      <trkpt lat="44.55499" lon="2.67409">
        <ele>321</ele>
        <time>2012-06-11T07:07:16Z</time>
      </trkpt>
      <trkpt lat="44.55497" lon="2.67406">
        <ele>320</ele>
        <time>2012-06-11T07:07:18Z</time>
      </trkpt>
      <trkpt lat="44.55495" lon="2.67403">
        <ele>320</ele>
        <time>2012-06-11T07:07:20Z</time>
      </trkpt>
      <trkpt lat="44.55494" lon="2.67401">
        <ele>320</ele>
        <time>2012-06-11T07:07:22Z</time>
      </trkpt>
      <trkpt lat="44.55492" lon="2.67398">
        <ele>319</ele>
        <time>2012-06-11T07:07:24Z</time>
      </trkpt>
      <trkpt lat="44.55491" lon="2.67397">
        <ele>319</ele>
        <time>2012-06-11T07:07:25Z</time>
      </trkpt>
      <trkpt lat="44.5549" lon="2.67395">
        <ele>319</ele>
        <time>2012-06-11T07:07:26Z</time>
      </trkpt>
      <trkpt lat="44.55489" lon="2.67393">
        <ele>319</ele>
        <time>2012-06-11T07:07:28Z</time>
      </trkpt>
      <trkpt lat="44.55487" lon="2.67389">
        <ele>319</ele>
        <time>2012-06-11T07:07:34Z</time>
      </trkpt>
      <trkpt lat="44.55486" lon="2.67386">
        <ele>319</ele>
        <time>2012-06-11T07:07:36Z</time>
      </trkpt>
      <trkpt lat="44.55485" lon="2.67384">
        <ele>319</ele>
        <time>2012-06-11T07:07:37Z</time>
      </trkpt>
      <trkpt lat="44.55484" lon="2.67381">
        <ele>319</ele>
        <time>2012-06-11T07:07:39Z</time>
      </trkpt>
      <trkpt lat="44.55483" lon="2.67379">
        <ele>319</ele>
        <time>2012-06-11T07:07:41Z</time>
      </trkpt>
      <trkpt lat="44.55482" lon="2.67376">
        <ele>319</ele>
        <time>2012-06-11T07:07:43Z</time>
      </trkpt>
      <trkpt lat="44.55481" lon="2.67375">
        <ele>319</ele>
        <time>2012-06-11T07:07:44Z</time>
      </trkpt>
      <trkpt lat="44.55481" lon="2.67373">
        <ele>319</ele>
        <time>2012-06-11T07:07:45Z</time>
      </trkpt>
      <trkpt lat="44.5548" lon="2.67372">
        <ele>319</ele>
        <time>2012-06-11T07:07:46Z</time>
      </trkpt>
      <trkpt lat="44.55478" lon="2.67369">
        <ele>318</ele>
        <time>2012-06-11T07:07:48Z</time>
      </trkpt>
      <trkpt lat="44.55476" lon="2.67367">
        <ele>318</ele>
        <time>2012-06-11T07:07:50Z</time>
      </trkpt>
      <trkpt lat="44.55475" lon="2.67365">
        <ele>318</ele>
        <time>2012-06-11T07:07:51Z</time>
      </trkpt>
      <trkpt lat="44.55474" lon="2.67364">
        <ele>318</ele>
        <time>2012-06-11T07:07:52Z</time>
      </trkpt>
      <trkpt lat="44.55473" lon="2.67361">
        <ele>318</ele>
        <time>2012-06-11T07:07:54Z</time>
      </trkpt>
      <trkpt lat="44.55472" lon="2.67359">
        <ele>318</ele>
        <time>2012-06-11T07:07:56Z</time>
      </trkpt>
      <trkpt lat="44.5547" lon="2.67356">
        <ele>318</ele>
        <time>2012-06-11T07:07:58Z</time>
      </trkpt>
      <trkpt lat="44.55471" lon="2.67355">
        <ele>318</ele>
        <time>2012-06-11T07:08:04Z</time>
      </trkpt>
      <trkpt lat="44.5547" lon="2.67352">
        <ele>318</ele>
        <time>2012-06-11T07:08:19Z</time>
      </trkpt>
      <trkpt lat="44.55471" lon="2.67352">
        <ele>318</ele>
        <time>2012-06-11T07:08:39Z</time>
      </trkpt>
      <trkpt lat="44.55472" lon="2.67352">
        <ele>318</ele>
        <time>2012-06-11T07:08:41Z</time>
      </trkpt>
      <trkpt lat="44.55474" lon="2.67352">
        <ele>318</ele>
        <time>2012-06-11T07:08:44Z</time>
      </trkpt>
      <trkpt lat="44.55473" lon="2.67352">
        <ele>318</ele>
        <time>2012-06-11T07:08:50Z</time>
      </trkpt>
      <trkpt lat="44.55471" lon="2.67351">
        <ele>318</ele>
        <time>2012-06-11T07:09:11Z</time>
      </trkpt>
      <trkpt lat="44.5547" lon="2.67346">
        <ele>318</ele>
        <time>2012-06-11T07:09:15Z</time>
      </trkpt>
      <trkpt lat="44.5547" lon="2.67344">
        <ele>318</ele>
        <time>2012-06-11T07:09:16Z</time>
      </trkpt>
      <trkpt lat="44.5547" lon="2.67342">
        <ele>318</ele>
        <time>2012-06-11T07:09:17Z</time>
      </trkpt>
      <trkpt lat="44.55471" lon="2.6734">
        <ele>318</ele>
        <time>2012-06-11T07:09:18Z</time>
      </trkpt>
      <trkpt lat="44.55471" lon="2.67338">
        <ele>318</ele>
        <time>2012-06-11T07:09:19Z</time>
      </trkpt>
      <trkpt lat="44.55471" lon="2.67336">
        <ele>318</ele>
        <time>2012-06-11T07:09:20Z</time>
      </trkpt>
      <trkpt lat="44.55471" lon="2.67332">
        <ele>318</ele>
        <time>2012-06-11T07:09:22Z</time>
      </trkpt>
      <trkpt lat="44.5547" lon="2.67331">
        <ele>318</ele>
        <time>2012-06-11T07:09:23Z</time>
      </trkpt>
      <trkpt lat="44.55468" lon="2.67328">
        <ele>318</ele>
        <time>2012-06-11T07:09:25Z</time>
      </trkpt>
      <trkpt lat="44.55466" lon="2.67326">
        <ele>318</ele>
        <time>2012-06-11T07:09:27Z</time>
      </trkpt>
      <trkpt lat="44.55464" lon="2.67323">
        <ele>318</ele>
        <time>2012-06-11T07:09:29Z</time>
      </trkpt>
      <trkpt lat="44.55463" lon="2.67321">
        <ele>318</ele>
        <time>2012-06-11T07:09:30Z</time>
      </trkpt>
      <trkpt lat="44.55463" lon="2.6732">
        <ele>318</ele>
        <time>2012-06-11T07:09:31Z</time>
      </trkpt>
      <trkpt lat="44.55462" lon="2.67318">
        <ele>318</ele>
        <time>2012-06-11T07:09:32Z</time>
      </trkpt>
      <trkpt lat="44.55461" lon="2.67315">
        <ele>318</ele>
        <time>2012-06-11T07:09:34Z</time>
      </trkpt>
      <trkpt lat="44.5546" lon="2.67314">
        <ele>318</ele>
        <time>2012-06-11T07:09:35Z</time>
      </trkpt>
      <trkpt lat="44.55459" lon="2.67312">
        <ele>318</ele>
        <time>2012-06-11T07:09:36Z</time>
      </trkpt>
      <trkpt lat="44.55457" lon="2.67312">
        <ele>318</ele>
        <time>2012-06-11T07:09:37Z</time>
      </trkpt>
      <trkpt lat="44.55457" lon="2.67308">
        <ele>318</ele>
        <time>2012-06-11T07:09:39Z</time>
      </trkpt>
      <trkpt lat="44.55456" lon="2.67306">
        <ele>318</ele>
        <time>2012-06-11T07:09:40Z</time>
      </trkpt>
      <trkpt lat="44.55455" lon="2.67305">
        <ele>318</ele>
        <time>2012-06-11T07:09:41Z</time>
      </trkpt>
      <trkpt lat="44.55454" lon="2.67303">
        <ele>318</ele>
        <time>2012-06-11T07:09:42Z</time>
      </trkpt>
      <trkpt lat="44.55451" lon="2.67302">
        <ele>318</ele>
        <time>2012-06-11T07:09:44Z</time>
      </trkpt>
      <trkpt lat="44.5545" lon="2.67301">
        <ele>318</ele>
        <time>2012-06-11T07:09:45Z</time>
      </trkpt>
      <trkpt lat="44.55449" lon="2.67301">
        <ele>318</ele>
        <time>2012-06-11T07:09:46Z</time>
      </trkpt>
      <trkpt lat="44.55447" lon="2.67301">
        <ele>318</ele>
        <time>2012-06-11T07:09:47Z</time>
      </trkpt>
      <trkpt lat="44.55447" lon="2.67299">
        <ele>318</ele>
        <time>2012-06-11T07:09:48Z</time>
      </trkpt>
      <trkpt lat="44.55445" lon="2.67297">
        <ele>318</ele>
        <time>2012-06-11T07:09:50Z</time>
      </trkpt>
      <trkpt lat="44.55444" lon="2.67295">
        <ele>318</ele>
        <time>2012-06-11T07:09:52Z</time>
      </trkpt>
      <trkpt lat="44.55444" lon="2.67293">
        <ele>318</ele>
        <time>2012-06-11T07:09:54Z</time>
      </trkpt>
      <trkpt lat="44.55441" lon="2.67293">
        <ele>319</ele>
        <time>2012-06-11T07:09:56Z</time>
      </trkpt>
      <trkpt lat="44.5544" lon="2.67292">
        <ele>319</ele>
        <time>2012-06-11T07:09:57Z</time>
      </trkpt>
      <trkpt lat="44.55438" lon="2.67291">
        <ele>320</ele>
        <time>2012-06-11T07:09:58Z</time>
      </trkpt>
      <trkpt lat="44.55437" lon="2.6729">
        <ele>320</ele>
        <time>2012-06-11T07:09:59Z</time>
      </trkpt>
      <trkpt lat="44.55434" lon="2.67287">
        <ele>321</ele>
        <time>2012-06-11T07:10:01Z</time>
      </trkpt>
      <trkpt lat="44.55433" lon="2.67287">
        <ele>321</ele>
        <time>2012-06-11T07:10:02Z</time>
      </trkpt>
      <trkpt lat="44.55433" lon="2.67285">
        <ele>321</ele>
        <time>2012-06-11T07:10:03Z</time>
      </trkpt>
      <trkpt lat="44.55431" lon="2.67283">
        <ele>321</ele>
        <time>2012-06-11T07:10:05Z</time>
      </trkpt>
      <trkpt lat="44.5543" lon="2.67281">
        <ele>321</ele>
        <time>2012-06-11T07:10:07Z</time>
      </trkpt>
      <trkpt lat="44.55428" lon="2.67279">
        <ele>321</ele>
        <time>2012-06-11T07:10:09Z</time>
      </trkpt>
      <trkpt lat="44.55427" lon="2.67277">
        <ele>322</ele>
        <time>2012-06-11T07:10:12Z</time>
      </trkpt>
      <trkpt lat="44.55425" lon="2.67275">
        <ele>323</ele>
        <time>2012-06-11T07:10:15Z</time>
      </trkpt>
      <trkpt lat="44.55424" lon="2.67273">
        <ele>323</ele>
        <time>2012-06-11T07:10:17Z</time>
      </trkpt>
      <trkpt lat="44.55423" lon="2.67271">
        <ele>324</ele>
        <time>2012-06-11T07:10:19Z</time>
      </trkpt>
      <trkpt lat="44.55424" lon="2.67264">
        <ele>324</ele>
        <time>2012-06-11T07:10:24Z</time>
      </trkpt>
      <trkpt lat="44.55424" lon="2.67261">
        <ele>324</ele>
        <time>2012-06-11T07:10:26Z</time>
      </trkpt>
      <trkpt lat="44.55425" lon="2.6726">
        <ele>324</ele>
        <time>2012-06-11T07:10:27Z</time>
      </trkpt>
      <trkpt lat="44.55424" lon="2.67257">
        <ele>325</ele>
        <time>2012-06-11T07:10:29Z</time>
      </trkpt>
      <trkpt lat="44.55425" lon="2.67253">
        <ele>325</ele>
        <time>2012-06-11T07:10:32Z</time>
      </trkpt>
      <trkpt lat="44.55425" lon="2.6725">
        <ele>325</ele>
        <time>2012-06-11T07:10:34Z</time>
      </trkpt>
      <trkpt lat="44.55425" lon="2.67238">
        <ele>325</ele>
        <time>2012-06-11T07:10:44Z</time>
      </trkpt>
      <trkpt lat="44.55426" lon="2.67235">
        <ele>325</ele>
        <time>2012-06-11T07:10:46Z</time>
      </trkpt>
      <trkpt lat="44.55427" lon="2.67234">
        <ele>325</ele>
        <time>2012-06-11T07:10:47Z</time>
      </trkpt>
      <trkpt lat="44.55427" lon="2.67231">
        <ele>325</ele>
        <time>2012-06-11T07:10:49Z</time>
      </trkpt>
      <trkpt lat="44.55426" lon="2.67224">
        <ele>326</ele>
        <time>2012-06-11T07:10:54Z</time>
      </trkpt>
      <trkpt lat="44.55427" lon="2.67222">
        <ele>326</ele>
        <time>2012-06-11T07:10:55Z</time>
      </trkpt>
      <trkpt lat="44.55426" lon="2.6722">
        <ele>326</ele>
        <time>2012-06-11T07:10:56Z</time>
      </trkpt>
      <trkpt lat="44.55426" lon="2.67217">
        <ele>326</ele>
        <time>2012-06-11T07:10:58Z</time>
      </trkpt>
      <trkpt lat="44.55425" lon="2.67216">
        <ele>326</ele>
        <time>2012-06-11T07:11:00Z</time>
      </trkpt>
      <trkpt lat="44.55426" lon="2.67214">
        <ele>326</ele>
        <time>2012-06-11T07:11:02Z</time>
      </trkpt>
      <trkpt lat="44.55425" lon="2.67213">
        <ele>326</ele>
        <time>2012-06-11T07:11:04Z</time>
      </trkpt>
      <trkpt lat="44.55427" lon="2.67211">
        <ele>326</ele>
        <time>2012-06-11T07:11:10Z</time>
      </trkpt>
      <trkpt lat="44.55428" lon="2.67211">
        <ele>326</ele>
        <time>2012-06-11T07:11:12Z</time>
      </trkpt>
      <trkpt lat="44.5543" lon="2.6721">
        <ele>326</ele>
        <time>2012-06-11T07:11:14Z</time>
      </trkpt>
      <trkpt lat="44.55432" lon="2.67209">
        <ele>326</ele>
        <time>2012-06-11T07:11:16Z</time>
      </trkpt>
      <trkpt lat="44.55433" lon="2.67209">
        <ele>326</ele>
        <time>2012-06-11T07:11:17Z</time>
      </trkpt>
      <trkpt lat="44.55434" lon="2.67207">
        <ele>326</ele>
        <time>2012-06-11T07:11:19Z</time>
      </trkpt>
      <trkpt lat="44.55436" lon="2.67206">
        <ele>326</ele>
        <time>2012-06-11T07:11:21Z</time>
      </trkpt>
      <trkpt lat="44.55437" lon="2.67205">
        <ele>328</ele>
        <time>2012-06-11T07:11:24Z</time>
      </trkpt>
      <trkpt lat="44.55439" lon="2.67203">
        <ele>329</ele>
        <time>2012-06-11T07:11:26Z</time>
      </trkpt>
      <trkpt lat="44.5544" lon="2.67203">
        <ele>329</ele>
        <time>2012-06-11T07:11:28Z</time>
      </trkpt>
      <trkpt lat="44.55443" lon="2.67202">
        <ele>329</ele>
        <time>2012-06-11T07:11:32Z</time>
      </trkpt>
      <trkpt lat="44.55444" lon="2.67203">
        <ele>330</ele>
        <time>2012-06-11T07:11:35Z</time>
      </trkpt>
      <trkpt lat="44.55446" lon="2.67201">
        <ele>330</ele>
        <time>2012-06-11T07:11:37Z</time>
      </trkpt>
      <trkpt lat="44.55447" lon="2.672">
        <ele>330</ele>
        <time>2012-06-11T07:11:38Z</time>
      </trkpt>
      <trkpt lat="44.55449" lon="2.67201">
        <ele>330</ele>
        <time>2012-06-11T07:11:39Z</time>
      </trkpt>
      <trkpt lat="44.5545" lon="2.672">
        <ele>330</ele>
        <time>2012-06-11T07:11:40Z</time>
      </trkpt>
      <trkpt lat="44.55452" lon="2.67198">
        <ele>330</ele>
        <time>2012-06-11T07:11:42Z</time>
      </trkpt>
      <trkpt lat="44.55453" lon="2.67198">
        <ele>330</ele>
        <time>2012-06-11T07:11:44Z</time>
      </trkpt>
      <trkpt lat="44.55455" lon="2.67198">
        <ele>330</ele>
        <time>2012-06-11T07:11:45Z</time>
      </trkpt>
      <trkpt lat="44.55456" lon="2.67198">
        <ele>330</ele>
        <time>2012-06-11T07:11:46Z</time>
      </trkpt>
      <trkpt lat="44.55458" lon="2.67198">
        <ele>330</ele>
        <time>2012-06-11T07:11:47Z</time>
      </trkpt>
      <trkpt lat="44.55458" lon="2.67196">
        <ele>330</ele>
        <time>2012-06-11T07:11:48Z</time>
      </trkpt>
      <trkpt lat="44.55461" lon="2.67194">
        <ele>330</ele>
        <time>2012-06-11T07:11:50Z</time>
      </trkpt>
      <trkpt lat="44.55462" lon="2.67193">
        <ele>330</ele>
        <time>2012-06-11T07:11:51Z</time>
      </trkpt>
      <trkpt lat="44.55463" lon="2.67191">
        <ele>330</ele>
        <time>2012-06-11T07:11:52Z</time>
      </trkpt>
      <trkpt lat="44.55465" lon="2.6719">
        <ele>330</ele>
        <time>2012-06-11T07:11:53Z</time>
      </trkpt>
      <trkpt lat="44.55467" lon="2.6719">
        <ele>330</ele>
        <time>2012-06-11T07:11:54Z</time>
      </trkpt>
      <trkpt lat="44.55468" lon="2.6719">
        <ele>330</ele>
        <time>2012-06-11T07:11:55Z</time>
      </trkpt>
      <trkpt lat="44.55471" lon="2.67189">
        <ele>330</ele>
        <time>2012-06-11T07:11:56Z</time>
      </trkpt>
      <trkpt lat="44.55472" lon="2.67187">
        <ele>330</ele>
        <time>2012-06-11T07:11:57Z</time>
      </trkpt>
      <trkpt lat="44.55474" lon="2.67185">
        <ele>330</ele>
        <time>2012-06-11T07:11:58Z</time>
      </trkpt>
      <trkpt lat="44.55475" lon="2.67183">
        <ele>330</ele>
        <time>2012-06-11T07:11:59Z</time>
      </trkpt>
      <trkpt lat="44.55477" lon="2.6718">
        <ele>330</ele>
        <time>2012-06-11T07:12:00Z</time>
      </trkpt>
      <trkpt lat="44.55477" lon="2.67178">
        <ele>331</ele>
        <time>2012-06-11T07:12:01Z</time>
      </trkpt>
      <trkpt lat="44.55479" lon="2.67176">
        <ele>332</ele>
        <time>2012-06-11T07:12:02Z</time>
      </trkpt>
      <trkpt lat="44.5548" lon="2.67175">
        <ele>333</ele>
        <time>2012-06-11T07:12:03Z</time>
      </trkpt>
      <trkpt lat="44.55481" lon="2.67173">
        <ele>334</ele>
        <time>2012-06-11T07:12:04Z</time>
      </trkpt>
      <trkpt lat="44.55483" lon="2.67172">
        <ele>335</ele>
        <time>2012-06-11T07:12:05Z</time>
      </trkpt>
      <trkpt lat="44.55484" lon="2.67171">
        <ele>336</ele>
        <time>2012-06-11T07:12:06Z</time>
      </trkpt>
      <trkpt lat="44.55486" lon="2.6717">
        <ele>337</ele>
        <time>2012-06-11T07:12:07Z</time>
      </trkpt>
      <trkpt lat="44.55487" lon="2.67169">
        <ele>337</ele>
        <time>2012-06-11T07:12:08Z</time>
      </trkpt>
      <trkpt lat="44.55489" lon="2.67169">
        <ele>337</ele>
        <time>2012-06-11T07:12:09Z</time>
      </trkpt>
      <trkpt lat="44.5549" lon="2.67168">
        <ele>337</ele>
        <time>2012-06-11T07:12:10Z</time>
      </trkpt>
      <trkpt lat="44.55492" lon="2.67168">
        <ele>337</ele>
        <time>2012-06-11T07:12:11Z</time>
      </trkpt>
      <trkpt lat="44.55493" lon="2.67167">
        <ele>337</ele>
        <time>2012-06-11T07:12:12Z</time>
      </trkpt>
      <trkpt lat="44.55495" lon="2.67166">
        <ele>337</ele>
        <time>2012-06-11T07:12:13Z</time>
      </trkpt>
      <trkpt lat="44.55496" lon="2.67165">
        <ele>337</ele>
        <time>2012-06-11T07:12:14Z</time>
      </trkpt>
      <trkpt lat="44.55498" lon="2.67163">
        <ele>337</ele>
        <time>2012-06-11T07:12:15Z</time>
      </trkpt>
      <trkpt lat="44.555" lon="2.67163">
        <ele>337</ele>
        <time>2012-06-11T07:12:16Z</time>
      </trkpt>
      <trkpt lat="44.55502" lon="2.67163">
        <ele>337</ele>
        <time>2012-06-11T07:12:17Z</time>
      </trkpt>
      <trkpt lat="44.55505" lon="2.67163">
        <ele>337</ele>
        <time>2012-06-11T07:12:18Z</time>
      </trkpt>
      <trkpt lat="44.55507" lon="2.67162">
        <ele>338</ele>
        <time>2012-06-11T07:12:19Z</time>
      </trkpt>
      <trkpt lat="44.55508" lon="2.67161">
        <ele>339</ele>
        <time>2012-06-11T07:12:20Z</time>
      </trkpt>
      <trkpt lat="44.5551" lon="2.67161">
        <ele>340</ele>
        <time>2012-06-11T07:12:21Z</time>
      </trkpt>
      <trkpt lat="44.55512" lon="2.6716">
        <ele>342</ele>
        <time>2012-06-11T07:12:23Z</time>
      </trkpt>
      <trkpt lat="44.55513" lon="2.67159">
        <ele>343</ele>
        <time>2012-06-11T07:12:24Z</time>
      </trkpt>
      <trkpt lat="44.55517" lon="2.6716">
        <ele>344</ele>
        <time>2012-06-11T07:12:26Z</time>
      </trkpt>
      <trkpt lat="44.55518" lon="2.6716">
        <ele>344</ele>
        <time>2012-06-11T07:12:29Z</time>
      </trkpt>
      <trkpt lat="44.5552" lon="2.67161">
        <ele>344</ele>
        <time>2012-06-11T07:12:31Z</time>
      </trkpt>
      <trkpt lat="44.55522" lon="2.67164">
        <ele>344</ele>
        <time>2012-06-11T07:12:33Z</time>
      </trkpt>
      <trkpt lat="44.55524" lon="2.67165">
        <ele>343</ele>
        <time>2012-06-11T07:12:35Z</time>
      </trkpt>
      <trkpt lat="44.55525" lon="2.67165">
        <ele>342</ele>
        <time>2012-06-11T07:12:36Z</time>
      </trkpt>
      <trkpt lat="44.55528" lon="2.67166">
        <ele>341</ele>
        <time>2012-06-11T07:12:38Z</time>
      </trkpt>
      <trkpt lat="44.55529" lon="2.67166">
        <ele>341</ele>
        <time>2012-06-11T07:12:39Z</time>
      </trkpt>
      <trkpt lat="44.55531" lon="2.67165">
        <ele>340</ele>
        <time>2012-06-11T07:12:40Z</time>
      </trkpt>
      <trkpt lat="44.55532" lon="2.67165">
        <ele>340</ele>
        <time>2012-06-11T07:12:41Z</time>
      </trkpt>
      <trkpt lat="44.55535" lon="2.67165">
        <ele>339</ele>
        <time>2012-06-11T07:12:43Z</time>
      </trkpt>
      <trkpt lat="44.55537" lon="2.67164">
        <ele>338</ele>
        <time>2012-06-11T07:12:44Z</time>
      </trkpt>
      <trkpt lat="44.55538" lon="2.67164">
        <ele>338</ele>
        <time>2012-06-11T07:12:46Z</time>
      </trkpt>
      <trkpt lat="44.55539" lon="2.67163">
        <ele>337</ele>
        <time>2012-06-11T07:12:46Z</time>
      </trkpt>
      <trkpt lat="44.55541" lon="2.67161">
        <ele>336</ele>
        <time>2012-06-11T07:12:48Z</time>
      </trkpt>
      <trkpt lat="44.55543" lon="2.67161">
        <ele>336</ele>
        <time>2012-06-11T07:12:49Z</time>
      </trkpt>
      <trkpt lat="44.55545" lon="2.6716">
        <ele>336</ele>
        <time>2012-06-11T07:12:50Z</time>
      </trkpt>
      <trkpt lat="44.55546" lon="2.67158">
        <ele>336</ele>
        <time>2012-06-11T07:12:51Z</time>
      </trkpt>
      <trkpt lat="44.55547" lon="2.67157">
        <ele>336</ele>
        <time>2012-06-11T07:12:52Z</time>
      </trkpt>
      <trkpt lat="44.55548" lon="2.67155">
        <ele>336</ele>
        <time>2012-06-11T07:12:53Z</time>
      </trkpt>
      <trkpt lat="44.5555" lon="2.67153">
        <ele>336</ele>
        <time>2012-06-11T07:12:55Z</time>
      </trkpt>
      <trkpt lat="44.55551" lon="2.6715">
        <ele>336</ele>
        <time>2012-06-11T07:12:57Z</time>
      </trkpt>
      <trkpt lat="44.55552" lon="2.67148">
        <ele>336</ele>
        <time>2012-06-11T07:12:59Z</time>
      </trkpt>
      <trkpt lat="44.55554" lon="2.67146">
        <ele>336</ele>
        <time>2012-06-11T07:13:01Z</time>
      </trkpt>
      <trkpt lat="44.55555" lon="2.67144">
        <ele>336</ele>
        <time>2012-06-11T07:13:02Z</time>
      </trkpt>
      <trkpt lat="44.55556" lon="2.67143">
        <ele>336</ele>
        <time>2012-06-11T07:13:03Z</time>
      </trkpt>
      <trkpt lat="44.55558" lon="2.67141">
        <ele>336</ele>
        <time>2012-06-11T07:13:05Z</time>
      </trkpt>
      <trkpt lat="44.5556" lon="2.6714">
        <ele>336</ele>
        <time>2012-06-11T07:13:06Z</time>
      </trkpt>
      <trkpt lat="44.55561" lon="2.67139">
        <ele>336</ele>
        <time>2012-06-11T07:13:07Z</time>
      </trkpt>
      <trkpt lat="44.55563" lon="2.67136">
        <ele>337</ele>
        <time>2012-06-11T07:13:09Z</time>
      </trkpt>
      <trkpt lat="44.55564" lon="2.67134">
        <ele>338</ele>
        <time>2012-06-11T07:13:10Z</time>
      </trkpt>
      <trkpt lat="44.55565" lon="2.67133">
        <ele>339</ele>
        <time>2012-06-11T07:13:11Z</time>
      </trkpt>
      <trkpt lat="44.55566" lon="2.67131">
        <ele>340</ele>
        <time>2012-06-11T07:13:12Z</time>
      </trkpt>
      <trkpt lat="44.55568" lon="2.67128">
        <ele>342</ele>
        <time>2012-06-11T07:13:14Z</time>
      </trkpt>
      <trkpt lat="44.55568" lon="2.67127">
        <ele>343</ele>
        <time>2012-06-11T07:13:15Z</time>
      </trkpt>
      <trkpt lat="44.55569" lon="2.67124">
        <ele>344</ele>
        <time>2012-06-11T07:13:16Z</time>
      </trkpt>
      <trkpt lat="44.55571" lon="2.67122">
        <ele>346</ele>
        <time>2012-06-11T07:13:18Z</time>
      </trkpt>
      <trkpt lat="44.55573" lon="2.67124">
        <ele>347</ele>
        <time>2012-06-11T07:13:33Z</time>
      </trkpt>
      <trkpt lat="44.55576" lon="2.67124">
        <ele>346</ele>
        <time>2012-06-11T07:13:35Z</time>
      </trkpt>
      <trkpt lat="44.55577" lon="2.67125">
        <ele>345</ele>
        <time>2012-06-11T07:13:36Z</time>
      </trkpt>
      <trkpt lat="44.55579" lon="2.67125">
        <ele>344</ele>
        <time>2012-06-11T07:13:37Z</time>
      </trkpt>
      <trkpt lat="44.55581" lon="2.67125">
        <ele>342</ele>
        <time>2012-06-11T07:13:39Z</time>
      </trkpt>
      <trkpt lat="44.55582" lon="2.67125">
        <ele>341</ele>
        <time>2012-06-11T07:13:40Z</time>
      </trkpt>
      <trkpt lat="44.55584" lon="2.67122">
        <ele>339</ele>
        <time>2012-06-11T07:13:42Z</time>
      </trkpt>
      <trkpt lat="44.55586" lon="2.67121">
        <ele>338</ele>
        <time>2012-06-11T07:13:43Z</time>
      </trkpt>
      <trkpt lat="44.55587" lon="2.6712">
        <ele>338</ele>
        <time>2012-06-11T07:13:44Z</time>
      </trkpt>
      <trkpt lat="44.55589" lon="2.67119">
        <ele>338</ele>
        <time>2012-06-11T07:13:45Z</time>
      </trkpt>
      <trkpt lat="44.5559" lon="2.67118">
        <ele>338</ele>
        <time>2012-06-11T07:13:47Z</time>
      </trkpt>
      <trkpt lat="44.55592" lon="2.67117">
        <ele>338</ele>
        <time>2012-06-11T07:13:48Z</time>
      </trkpt>
      <trkpt lat="44.55594" lon="2.67115">
        <ele>338</ele>
        <time>2012-06-11T07:13:50Z</time>
      </trkpt>
      <trkpt lat="44.55597" lon="2.67115">
        <ele>338</ele>
        <time>2012-06-11T07:13:53Z</time>
      </trkpt>
      <trkpt lat="44.55598" lon="2.67114">
        <ele>338</ele>
        <time>2012-06-11T07:13:54Z</time>
      </trkpt>
      <trkpt lat="44.55601" lon="2.67113">
        <ele>337</ele>
        <time>2012-06-11T07:13:56Z</time>
      </trkpt>
      <trkpt lat="44.55603" lon="2.67112">
        <ele>336</ele>
        <time>2012-06-11T07:13:58Z</time>
      </trkpt>
      <trkpt lat="44.55605" lon="2.6711">
        <ele>336</ele>
        <time>2012-06-11T07:14:00Z</time>
      </trkpt>
      <trkpt lat="44.55606" lon="2.6711">
        <ele>336</ele>
        <time>2012-06-11T07:14:01Z</time>
      </trkpt>
      <trkpt lat="44.55608" lon="2.67109">
        <ele>336</ele>
        <time>2012-06-11T07:14:02Z</time>
      </trkpt>
      <trkpt lat="44.5561" lon="2.67109">
        <ele>335</ele>
        <time>2012-06-11T07:14:04Z</time>
      </trkpt>
      <trkpt lat="44.55612" lon="2.67108">
        <ele>335</ele>
        <time>2012-06-11T07:14:05Z</time>
      </trkpt>
      <trkpt lat="44.55613" lon="2.67108">
        <ele>334</ele>
        <time>2012-06-11T07:14:06Z</time>
      </trkpt>
      <trkpt lat="44.55615" lon="2.67106">
        <ele>333</ele>
        <time>2012-06-11T07:14:08Z</time>
      </trkpt>
      <trkpt lat="44.55616" lon="2.67106">
        <ele>332</ele>
        <time>2012-06-11T07:14:09Z</time>
      </trkpt>
      <trkpt lat="44.55617" lon="2.67105">
        <ele>331</ele>
        <time>2012-06-11T07:14:10Z</time>
      </trkpt>
      <trkpt lat="44.55619" lon="2.67104">
        <ele>331</ele>
        <time>2012-06-11T07:14:11Z</time>
      </trkpt>
      <trkpt lat="44.5562" lon="2.67104">
        <ele>331</ele>
        <time>2012-06-11T07:14:12Z</time>
      </trkpt>
      <trkpt lat="44.55622" lon="2.67102">
        <ele>330</ele>
        <time>2012-06-11T07:14:14Z</time>
      </trkpt>
      <trkpt lat="44.55623" lon="2.67101">
        <ele>330</ele>
        <time>2012-06-11T07:14:15Z</time>
      </trkpt>
      <trkpt lat="44.55624" lon="2.67101">
        <ele>330</ele>
        <time>2012-06-11T07:14:16Z</time>
      </trkpt>
      <trkpt lat="44.55625" lon="2.671">
        <ele>329</ele>
        <time>2012-06-11T07:14:17Z</time>
      </trkpt>
      <trkpt lat="44.55627" lon="2.67098">
        <ele>329</ele>
        <time>2012-06-11T07:14:19Z</time>
      </trkpt>
      <trkpt lat="44.55629" lon="2.67097">
        <ele>328</ele>
        <time>2012-06-11T07:14:21Z</time>
      </trkpt>
      <trkpt lat="44.55631" lon="2.67095">
        <ele>328</ele>
        <time>2012-06-11T07:14:23Z</time>
      </trkpt>
      <trkpt lat="44.55633" lon="2.67094">
        <ele>328</ele>
        <time>2012-06-11T07:14:25Z</time>
      </trkpt>
      <trkpt lat="44.55634" lon="2.67093">
        <ele>328</ele>
        <time>2012-06-11T07:14:26Z</time>
      </trkpt>
      <trkpt lat="44.55635" lon="2.67092">
        <ele>328</ele>
        <time>2012-06-11T07:14:27Z</time>
      </trkpt>
      <trkpt lat="44.55636" lon="2.67091">
        <ele>328</ele>
        <time>2012-06-11T07:14:28Z</time>
      </trkpt>
      <trkpt lat="44.55638" lon="2.67091">
        <ele>328</ele>
        <time>2012-06-11T07:14:29Z</time>
      </trkpt>
      <trkpt lat="44.55639" lon="2.6709">
        <ele>328</ele>
        <time>2012-06-11T07:14:30Z</time>
      </trkpt>
      <trkpt lat="44.55641" lon="2.67088">
        <ele>328</ele>
        <time>2012-06-11T07:14:32Z</time>
      </trkpt>
      <trkpt lat="44.55642" lon="2.67088">
        <ele>328</ele>
        <time>2012-06-11T07:14:33Z</time>
      </trkpt>
      <trkpt lat="44.55644" lon="2.67087">
        <ele>328</ele>
        <time>2012-06-11T07:14:34Z</time>
      </trkpt>
      <trkpt lat="44.55645" lon="2.67087">
        <ele>328</ele>
        <time>2012-06-11T07:14:35Z</time>
      </trkpt>
      <trkpt lat="44.55647" lon="2.67085">
        <ele>328</ele>
        <time>2012-06-11T07:14:37Z</time>
      </trkpt>
      <trkpt lat="44.55648" lon="2.67085">
        <ele>328</ele>
        <time>2012-06-11T07:14:40Z</time>
      </trkpt>
      <trkpt lat="44.5565" lon="2.67084">
        <ele>328</ele>
        <time>2012-06-11T07:14:43Z</time>
      </trkpt>
      <trkpt lat="44.55652" lon="2.67083">
        <ele>328</ele>
        <time>2012-06-11T07:14:45Z</time>
      </trkpt>
      <trkpt lat="44.55654" lon="2.67082">
        <ele>328</ele>
        <time>2012-06-11T07:14:47Z</time>
      </trkpt>
      <trkpt lat="44.55655" lon="2.67081">
        <ele>328</ele>
        <time>2012-06-11T07:14:48Z</time>
      </trkpt>
      <trkpt lat="44.55656" lon="2.67081">
        <ele>328</ele>
        <time>2012-06-11T07:14:49Z</time>
      </trkpt>
      <trkpt lat="44.55658" lon="2.67079">
        <ele>328</ele>
        <time>2012-06-11T07:14:51Z</time>
      </trkpt>
      <trkpt lat="44.5566" lon="2.67078">
        <ele>328</ele>
        <time>2012-06-11T07:14:53Z</time>
      </trkpt>
      <trkpt lat="44.55662" lon="2.67077">
        <ele>328</ele>
        <time>2012-06-11T07:14:55Z</time>
      </trkpt>
      <trkpt lat="44.55663" lon="2.67076">
        <ele>328</ele>
        <time>2012-06-11T07:14:56Z</time>
      </trkpt>
      <trkpt lat="44.55667" lon="2.67076">
        <ele>328</ele>
        <time>2012-06-11T07:14:59Z</time>
      </trkpt>
      <trkpt lat="44.5567" lon="2.67076">
        <ele>328</ele>
        <time>2012-06-11T07:15:02Z</time>
      </trkpt>
      <trkpt lat="44.55672" lon="2.67075">
        <ele>328</ele>
        <time>2012-06-11T07:15:04Z</time>
      </trkpt>
      <trkpt lat="44.55674" lon="2.67074">
        <ele>328</ele>
        <time>2012-06-11T07:15:06Z</time>
      </trkpt>
      <trkpt lat="44.55676" lon="2.67074">
        <ele>328</ele>
        <time>2012-06-11T07:15:08Z</time>
      </trkpt>
      <trkpt lat="44.55677" lon="2.67074">
        <ele>328</ele>
        <time>2012-06-11T07:15:10Z</time>
      </trkpt>
      <trkpt lat="44.55678" lon="2.67075">
        <ele>328</ele>
        <time>2012-06-11T07:15:12Z</time>
      </trkpt>
      <trkpt lat="44.55679" lon="2.67075">
        <ele>328</ele>
        <time>2012-06-11T07:15:15Z</time>
      </trkpt>
      <trkpt lat="44.55681" lon="2.67075">
        <ele>328</ele>
        <time>2012-06-11T07:15:17Z</time>
      </trkpt>
      <trkpt lat="44.55682" lon="2.67077">
        <ele>328</ele>
        <time>2012-06-11T07:15:19Z</time>
      </trkpt>
      <trkpt lat="44.55683" lon="2.67081">
        <ele>328</ele>
        <time>2012-06-11T07:15:21Z</time>
      </trkpt>
      <trkpt lat="44.55683" lon="2.67085">
        <ele>328</ele>
        <time>2012-06-11T07:15:23Z</time>
      </trkpt>
      <trkpt lat="44.55684" lon="2.67086">
        <ele>328</ele>
        <time>2012-06-11T07:15:24Z</time>
      </trkpt>
      <trkpt lat="44.55684" lon="2.67089">
        <ele>328</ele>
        <time>2012-06-11T07:15:25Z</time>
      </trkpt>
      <trkpt lat="44.55685" lon="2.6709">
        <ele>328</ele>
        <time>2012-06-11T07:15:26Z</time>
      </trkpt>
      <trkpt lat="44.55686" lon="2.67093">
        <ele>328</ele>
        <time>2012-06-11T07:15:28Z</time>
      </trkpt>
      <trkpt lat="44.55687" lon="2.67095">
        <ele>328</ele>
        <time>2012-06-11T07:15:30Z</time>
      </trkpt>
      <trkpt lat="44.55688" lon="2.67095">
        <ele>328</ele>
        <time>2012-06-11T07:15:32Z</time>
      </trkpt>
      <trkpt lat="44.55688" lon="2.67096">
        <ele>329</ele>
        <time>2012-06-11T07:15:38Z</time>
      </trkpt>
      <trkpt lat="44.55688" lon="2.67098">
        <ele>330</ele>
        <time>2012-06-11T07:15:40Z</time>
      </trkpt>
      <trkpt lat="44.55687" lon="2.671">
        <ele>331</ele>
        <time>2012-06-11T07:15:43Z</time>
      </trkpt>
      <trkpt lat="44.55688" lon="2.67101">
        <ele>334</ele>
        <time>2012-06-11T07:15:46Z</time>
      </trkpt>
      <trkpt lat="44.5569" lon="2.671">
        <ele>338</ele>
        <time>2012-06-11T07:15:50Z</time>
      </trkpt>
      <trkpt lat="44.55691" lon="2.67101">
        <ele>339</ele>
        <time>2012-06-11T07:15:53Z</time>
      </trkpt>
      <trkpt lat="44.55692" lon="2.67099">
        <ele>339</ele>
        <time>2012-06-11T07:15:54Z</time>
      </trkpt>
      <trkpt lat="44.55693" lon="2.67098">
        <ele>339</ele>
        <time>2012-06-11T07:15:55Z</time>
      </trkpt>
      <trkpt lat="44.55695" lon="2.67096">
        <ele>339</ele>
        <time>2012-06-11T07:15:56Z</time>
      </trkpt>
      <trkpt lat="44.55696" lon="2.67094">
        <ele>339</ele>
        <time>2012-06-11T07:15:57Z</time>
      </trkpt>
      <trkpt lat="44.55697" lon="2.67093">
        <ele>339</ele>
        <time>2012-06-11T07:15:58Z</time>
      </trkpt>
      <trkpt lat="44.55698" lon="2.67091">
        <ele>339</ele>
        <time>2012-06-11T07:15:59Z</time>
      </trkpt>
      <trkpt lat="44.55699" lon="2.6709">
        <ele>339</ele>
        <time>2012-06-11T07:16:00Z</time>
      </trkpt>
      <trkpt lat="44.55701" lon="2.67087">
        <ele>339</ele>
        <time>2012-06-11T07:16:02Z</time>
      </trkpt>
      <trkpt lat="44.55702" lon="2.67086">
        <ele>339</ele>
        <time>2012-06-11T07:16:03Z</time>
      </trkpt>
      <trkpt lat="44.55704" lon="2.67084">
        <ele>339</ele>
        <time>2012-06-11T07:16:05Z</time>
      </trkpt>
      <trkpt lat="44.55706" lon="2.67083">
        <ele>339</ele>
        <time>2012-06-11T07:16:06Z</time>
      </trkpt>
      <trkpt lat="44.55707" lon="2.67083">
        <ele>339</ele>
        <time>2012-06-11T07:16:07Z</time>
      </trkpt>
      <trkpt lat="44.55709" lon="2.67082">
        <ele>339</ele>
        <time>2012-06-11T07:16:09Z</time>
      </trkpt>
      <trkpt lat="44.5571" lon="2.67082">
        <ele>339</ele>
        <time>2012-06-11T07:16:10Z</time>
      </trkpt>
      <trkpt lat="44.55712" lon="2.67081">
        <ele>339</ele>
        <time>2012-06-11T07:16:11Z</time>
      </trkpt>
      <trkpt lat="44.55714" lon="2.67081">
        <ele>339</ele>
        <time>2012-06-11T07:16:12Z</time>
      </trkpt>
      <trkpt lat="44.55716" lon="2.6708">
        <ele>339</ele>
        <time>2012-06-11T07:16:13Z</time>
      </trkpt>
      <trkpt lat="44.55717" lon="2.6708">
        <ele>339</ele>
        <time>2012-06-11T07:16:14Z</time>
      </trkpt>
      <trkpt lat="44.55718" lon="2.67079">
        <ele>339</ele>
        <time>2012-06-11T07:16:15Z</time>
      </trkpt>
      <trkpt lat="44.55719" lon="2.67077">
        <ele>339</ele>
        <time>2012-06-11T07:16:17Z</time>
      </trkpt>
      <trkpt lat="44.5572" lon="2.67074">
        <ele>339</ele>
        <time>2012-06-11T07:16:19Z</time>
      </trkpt>
      <trkpt lat="44.55722" lon="2.67072">
        <ele>339</ele>
        <time>2012-06-11T07:16:21Z</time>
      </trkpt>
      <trkpt lat="44.55723" lon="2.6707">
        <ele>338</ele>
        <time>2012-06-11T07:16:23Z</time>
      </trkpt>
      <trkpt lat="44.55724" lon="2.67068">
        <ele>338</ele>
        <time>2012-06-11T07:16:24Z</time>
      </trkpt>
      <trkpt lat="44.55724" lon="2.67066">
        <ele>337</ele>
        <time>2012-06-11T07:16:26Z</time>
      </trkpt>
      <trkpt lat="44.55726" lon="2.67065">
        <ele>337</ele>
        <time>2012-06-11T07:16:28Z</time>
      </trkpt>
      <trkpt lat="44.55728" lon="2.67064">
        <ele>336</ele>
        <time>2012-06-11T07:16:30Z</time>
      </trkpt>
      <trkpt lat="44.55729" lon="2.67064">
        <ele>336</ele>
        <time>2012-06-11T07:16:31Z</time>
      </trkpt>
      <trkpt lat="44.5573" lon="2.67064">
        <ele>335</ele>
        <time>2012-06-11T07:16:32Z</time>
      </trkpt>
      <trkpt lat="44.55732" lon="2.67063">
        <ele>335</ele>
        <time>2012-06-11T07:16:34Z</time>
      </trkpt>
      <trkpt lat="44.55734" lon="2.67063">
        <ele>334</ele>
        <time>2012-06-11T07:16:35Z</time>
      </trkpt>
      <trkpt lat="44.55735" lon="2.67063">
        <ele>334</ele>
        <time>2012-06-11T07:16:36Z</time>
      </trkpt>
      <trkpt lat="44.55737" lon="2.67063">
        <ele>334</ele>
        <time>2012-06-11T07:16:37Z</time>
      </trkpt>
      <trkpt lat="44.55738" lon="2.67062">
        <ele>334</ele>
        <time>2012-06-11T07:16:38Z</time>
      </trkpt>
      <trkpt lat="44.55739" lon="2.67062">
        <ele>334</ele>
        <time>2012-06-11T07:16:39Z</time>
      </trkpt>
      <trkpt lat="44.5574" lon="2.67062">
        <ele>334</ele>
        <time>2012-06-11T07:16:40Z</time>
      </trkpt>
      <trkpt lat="44.55741" lon="2.67061">
        <ele>334</ele>
        <time>2012-06-11T07:16:41Z</time>
      </trkpt>
      <trkpt lat="44.55743" lon="2.67061">
        <ele>334</ele>
        <time>2012-06-11T07:16:42Z</time>
      </trkpt>
      <trkpt lat="44.55744" lon="2.67061">
        <ele>334</ele>
        <time>2012-06-11T07:16:43Z</time>
      </trkpt>
      <trkpt lat="44.55746" lon="2.67061">
        <ele>334</ele>
        <time>2012-06-11T07:16:45Z</time>
      </trkpt>
      <trkpt lat="44.55748" lon="2.6706">
        <ele>334</ele>
        <time>2012-06-11T07:16:47Z</time>
      </trkpt>
      <trkpt lat="44.5575" lon="2.6706">
        <ele>334</ele>
        <time>2012-06-11T07:16:48Z</time>
      </trkpt>
      <trkpt lat="44.55751" lon="2.6706">
        <ele>334</ele>
        <time>2012-06-11T07:16:49Z</time>
      </trkpt>
      <trkpt lat="44.55752" lon="2.67059">
        <ele>334</ele>
        <time>2012-06-11T07:16:50Z</time>
      </trkpt>
      <trkpt lat="44.55754" lon="2.67059">
        <ele>334</ele>
        <time>2012-06-11T07:16:51Z</time>
      </trkpt>
      <trkpt lat="44.55755" lon="2.67059">
        <ele>334</ele>
        <time>2012-06-11T07:16:52Z</time>
      </trkpt>
      <trkpt lat="44.55756" lon="2.67058">
        <ele>334</ele>
        <time>2012-06-11T07:16:53Z</time>
      </trkpt>
      <trkpt lat="44.55757" lon="2.67058">
        <ele>334</ele>
        <time>2012-06-11T07:16:54Z</time>
      </trkpt>
      <trkpt lat="44.55759" lon="2.67058">
        <ele>334</ele>
        <time>2012-06-11T07:16:55Z</time>
      </trkpt>
      <trkpt lat="44.5576" lon="2.67057">
        <ele>334</ele>
        <time>2012-06-11T07:16:56Z</time>
      </trkpt>
      <trkpt lat="44.55761" lon="2.67057">
        <ele>334</ele>
        <time>2012-06-11T07:16:57Z</time>
      </trkpt>
      <trkpt lat="44.55762" lon="2.67057">
        <ele>334</ele>
        <time>2012-06-11T07:16:58Z</time>
      </trkpt>
      <trkpt lat="44.55768" lon="2.67057">
        <ele>334</ele>
        <time>2012-06-11T07:17:02Z</time>
      </trkpt>
      <trkpt lat="44.55769" lon="2.67057">
        <ele>334</ele>
        <time>2012-06-11T07:17:03Z</time>
      </trkpt>
      <trkpt lat="44.55772" lon="2.67057">
        <ele>334</ele>
        <time>2012-06-11T07:17:05Z</time>
      </trkpt>
      <trkpt lat="44.55773" lon="2.67056">
        <ele>334</ele>
        <time>2012-06-11T07:17:06Z</time>
      </trkpt>
      <trkpt lat="44.55775" lon="2.67056">
        <ele>334</ele>
        <time>2012-06-11T07:17:07Z</time>
      </trkpt>
      <trkpt lat="44.55776" lon="2.67056">
        <ele>334</ele>
        <time>2012-06-11T07:17:08Z</time>
      </trkpt>
      <trkpt lat="44.55777" lon="2.67056">
        <ele>334</ele>
        <time>2012-06-11T07:17:09Z</time>
      </trkpt>
      <trkpt lat="44.55779" lon="2.67056">
        <ele>334</ele>
        <time>2012-06-11T07:17:10Z</time>
      </trkpt>
      <trkpt lat="44.5578" lon="2.67056">
        <ele>334</ele>
        <time>2012-06-11T07:17:11Z</time>
      </trkpt>
      <trkpt lat="44.55781" lon="2.67055">
        <ele>334</ele>
        <time>2012-06-11T07:17:12Z</time>
      </trkpt>
      <trkpt lat="44.55782" lon="2.67055">
        <ele>334</ele>
        <time>2012-06-11T07:17:13Z</time>
      </trkpt>
      <trkpt lat="44.55784" lon="2.67054">
        <ele>334</ele>
        <time>2012-06-11T07:17:14Z</time>
      </trkpt>
      <trkpt lat="44.55785" lon="2.67054">
        <ele>334</ele>
        <time>2012-06-11T07:17:15Z</time>
      </trkpt>
      <trkpt lat="44.55786" lon="2.67054">
        <ele>334</ele>
        <time>2012-06-11T07:17:16Z</time>
      </trkpt>
      <trkpt lat="44.55789" lon="2.67053">
        <ele>334</ele>
        <time>2012-06-11T07:17:18Z</time>
      </trkpt>
      <trkpt lat="44.5579" lon="2.67053">
        <ele>334</ele>
        <time>2012-06-11T07:17:19Z</time>
      </trkpt>
      <trkpt lat="44.55791" lon="2.67053">
        <ele>334</ele>
        <time>2012-06-11T07:17:20Z</time>
      </trkpt>
      <trkpt lat="44.55793" lon="2.67053">
        <ele>334</ele>
        <time>2012-06-11T07:17:22Z</time>
      </trkpt>
      <trkpt lat="44.55796" lon="2.67052">
        <ele>334</ele>
        <time>2012-06-11T07:17:24Z</time>
      </trkpt>
      <trkpt lat="44.55797" lon="2.67052">
        <ele>334</ele>
        <time>2012-06-11T07:17:25Z</time>
      </trkpt>
      <trkpt lat="44.55799" lon="2.67052">
        <ele>334</ele>
        <time>2012-06-11T07:17:26Z</time>
      </trkpt>
      <trkpt lat="44.558" lon="2.67052">
        <ele>334</ele>
        <time>2012-06-11T07:17:27Z</time>
      </trkpt>
      <trkpt lat="44.55803" lon="2.67052">
        <ele>334</ele>
        <time>2012-06-11T07:17:29Z</time>
      </trkpt>
      <trkpt lat="44.55805" lon="2.67051">
        <ele>334</ele>
        <time>2012-06-11T07:17:31Z</time>
      </trkpt>
      <trkpt lat="44.55808" lon="2.67051">
        <ele>334</ele>
        <time>2012-06-11T07:17:33Z</time>
      </trkpt>
      <trkpt lat="44.5581" lon="2.67051">
        <ele>334</ele>
        <time>2012-06-11T07:17:34Z</time>
      </trkpt>
      <trkpt lat="44.55811" lon="2.6705">
        <ele>334</ele>
        <time>2012-06-11T07:17:35Z</time>
      </trkpt>
      <trkpt lat="44.55813" lon="2.6705">
        <ele>334</ele>
        <time>2012-06-11T07:17:36Z</time>
      </trkpt>
      <trkpt lat="44.55814" lon="2.67049">
        <ele>334</ele>
        <time>2012-06-11T07:17:37Z</time>
      </trkpt>
      <trkpt lat="44.55815" lon="2.67049">
        <ele>334</ele>
        <time>2012-06-11T07:17:38Z</time>
      </trkpt>
      <trkpt lat="44.55816" lon="2.67049">
        <ele>334</ele>
        <time>2012-06-11T07:17:39Z</time>
      </trkpt>
      <trkpt lat="44.55817" lon="2.67049">
        <ele>334</ele>
        <time>2012-06-11T07:17:40Z</time>
      </trkpt>
      <trkpt lat="44.55819" lon="2.67049">
        <ele>334</ele>
        <time>2012-06-11T07:17:41Z</time>
      </trkpt>
      <trkpt lat="44.5582" lon="2.67048">
        <ele>334</ele>
        <time>2012-06-11T07:17:42Z</time>
      </trkpt>
      <trkpt lat="44.55822" lon="2.67048">
        <ele>334</ele>
        <time>2012-06-11T07:17:43Z</time>
      </trkpt>
      <trkpt lat="44.55823" lon="2.67047">
        <ele>334</ele>
        <time>2012-06-11T07:17:44Z</time>
      </trkpt>
      <trkpt lat="44.55824" lon="2.67047">
        <ele>334</ele>
        <time>2012-06-11T07:17:45Z</time>
      </trkpt>
      <trkpt lat="44.55825" lon="2.67047">
        <ele>334</ele>
        <time>2012-06-11T07:17:46Z</time>
      </trkpt>
      <trkpt lat="44.55827" lon="2.67046">
        <ele>334</ele>
        <time>2012-06-11T07:17:47Z</time>
      </trkpt>
      <trkpt lat="44.55828" lon="2.67046">
        <ele>334</ele>
        <time>2012-06-11T07:17:48Z</time>
      </trkpt>
      <trkpt lat="44.55829" lon="2.67046">
        <ele>334</ele>
        <time>2012-06-11T07:17:49Z</time>
      </trkpt>
      <trkpt lat="44.5583" lon="2.67046">
        <ele>334</ele>
        <time>2012-06-11T07:17:50Z</time>
      </trkpt>
      <trkpt lat="44.55832" lon="2.67046">
        <ele>334</ele>
        <time>2012-06-11T07:17:51Z</time>
      </trkpt>
      <trkpt lat="44.55833" lon="2.67045">
        <ele>334</ele>
        <time>2012-06-11T07:17:52Z</time>
      </trkpt>
      <trkpt lat="44.55834" lon="2.67045">
        <ele>334</ele>
        <time>2012-06-11T07:17:53Z</time>
      </trkpt>
      <trkpt lat="44.55836" lon="2.67045">
        <ele>334</ele>
        <time>2012-06-11T07:17:54Z</time>
      </trkpt>
      <trkpt lat="44.55837" lon="2.67045">
        <ele>334</ele>
        <time>2012-06-11T07:17:55Z</time>
      </trkpt>
      <trkpt lat="44.55839" lon="2.67044">
        <ele>334</ele>
        <time>2012-06-11T07:17:56Z</time>
      </trkpt>
      <trkpt lat="44.5584" lon="2.67044">
        <ele>334</ele>
        <time>2012-06-11T07:17:57Z</time>
      </trkpt>
      <trkpt lat="44.55841" lon="2.67044">
        <ele>334</ele>
        <time>2012-06-11T07:17:58Z</time>
      </trkpt>
      <trkpt lat="44.55843" lon="2.67044">
        <ele>334</ele>
        <time>2012-06-11T07:17:59Z</time>
      </trkpt>
      <trkpt lat="44.55844" lon="2.67044">
        <ele>334</ele>
        <time>2012-06-11T07:18:00Z</time>
      </trkpt>
      <trkpt lat="44.55845" lon="2.67043">
        <ele>334</ele>
        <time>2012-06-11T07:18:01Z</time>
      </trkpt>
      <trkpt lat="44.55846" lon="2.67043">
        <ele>334</ele>
        <time>2012-06-11T07:18:02Z</time>
      </trkpt>
      <trkpt lat="44.55848" lon="2.67043">
        <ele>334</ele>
        <time>2012-06-11T07:18:03Z</time>
      </trkpt>
      <trkpt lat="44.55849" lon="2.67043">
        <ele>334</ele>
        <time>2012-06-11T07:18:04Z</time>
      </trkpt>
      <trkpt lat="44.5585" lon="2.67042">
        <ele>334</ele>
        <time>2012-06-11T07:18:05Z</time>
      </trkpt>
      <trkpt lat="44.55853" lon="2.67042">
        <ele>334</ele>
        <time>2012-06-11T07:18:07Z</time>
      </trkpt>
      <trkpt lat="44.55854" lon="2.67042">
        <ele>334</ele>
        <time>2012-06-11T07:18:08Z</time>
      </trkpt>
      <trkpt lat="44.55855" lon="2.67041">
        <ele>334</ele>
        <time>2012-06-11T07:18:09Z</time>
      </trkpt>
      <trkpt lat="44.55857" lon="2.67041">
        <ele>334</ele>
        <time>2012-06-11T07:18:10Z</time>
      </trkpt>
      <trkpt lat="44.55858" lon="2.67041">
        <ele>334</ele>
        <time>2012-06-11T07:18:11Z</time>
      </trkpt>
      <trkpt lat="44.55859" lon="2.67041">
        <ele>334</ele>
        <time>2012-06-11T07:18:12Z</time>
      </trkpt>
      <trkpt lat="44.55861" lon="2.67041">
        <ele>334</ele>
        <time>2012-06-11T07:18:13Z</time>
      </trkpt>
      <trkpt lat="44.55862" lon="2.67041">
        <ele>334</ele>
        <time>2012-06-11T07:18:14Z</time>
      </trkpt>
      <trkpt lat="44.55863" lon="2.6704">
        <ele>333</ele>
        <time>2012-06-11T07:18:15Z</time>
      </trkpt>
      <trkpt lat="44.55864" lon="2.6704">
        <ele>333</ele>
        <time>2012-06-11T07:18:16Z</time>
      </trkpt>
      <trkpt lat="44.55866" lon="2.6704">
        <ele>333</ele>
        <time>2012-06-11T07:18:17Z</time>
      </trkpt>
      <trkpt lat="44.55867" lon="2.67039">
        <ele>333</ele>
        <time>2012-06-11T07:18:18Z</time>
      </trkpt>
      <trkpt lat="44.55869" lon="2.67039">
        <ele>333</ele>
        <time>2012-06-11T07:18:19Z</time>
      </trkpt>
      <trkpt lat="44.5587" lon="2.67039">
        <ele>333</ele>
        <time>2012-06-11T07:18:20Z</time>
      </trkpt>
      <trkpt lat="44.55871" lon="2.67039">
        <ele>333</ele>
        <time>2012-06-11T07:18:21Z</time>
      </trkpt>
      <trkpt lat="44.55872" lon="2.67038">
        <ele>333</ele>
        <time>2012-06-11T07:18:22Z</time>
      </trkpt>
      <trkpt lat="44.55874" lon="2.67038">
        <ele>333</ele>
        <time>2012-06-11T07:18:23Z</time>
      </trkpt>
      <trkpt lat="44.55875" lon="2.67038">
        <ele>333</ele>
        <time>2012-06-11T07:18:24Z</time>
      </trkpt>
      <trkpt lat="44.55877" lon="2.67037">
        <ele>333</ele>
        <time>2012-06-11T07:18:25Z</time>
      </trkpt>
      <trkpt lat="44.55878" lon="2.67037">
        <ele>333</ele>
        <time>2012-06-11T07:18:26Z</time>
      </trkpt>
      <trkpt lat="44.55879" lon="2.67036">
        <ele>333</ele>
        <time>2012-06-11T07:18:27Z</time>
      </trkpt>
      <trkpt lat="44.5588" lon="2.67036">
        <ele>333</ele>
        <time>2012-06-11T07:18:28Z</time>
      </trkpt>
      <trkpt lat="44.55882" lon="2.67035">
        <ele>333</ele>
        <time>2012-06-11T07:18:29Z</time>
      </trkpt>
      <trkpt lat="44.55883" lon="2.67034">
        <ele>333</ele>
        <time>2012-06-11T07:18:30Z</time>
      </trkpt>
      <trkpt lat="44.55885" lon="2.67034">
        <ele>333</ele>
        <time>2012-06-11T07:18:31Z</time>
      </trkpt>
      <trkpt lat="44.55887" lon="2.67033">
        <ele>333</ele>
        <time>2012-06-11T07:18:33Z</time>
      </trkpt>
      <trkpt lat="44.55888" lon="2.67032">
        <ele>333</ele>
        <time>2012-06-11T07:18:34Z</time>
      </trkpt>
      <trkpt lat="44.5589" lon="2.67031">
        <ele>333</ele>
        <time>2012-06-11T07:18:35Z</time>
      </trkpt>
      <trkpt lat="44.55891" lon="2.67031">
        <ele>333</ele>
        <time>2012-06-11T07:18:36Z</time>
      </trkpt>
      <trkpt lat="44.55893" lon="2.6703">
        <ele>333</ele>
        <time>2012-06-11T07:18:37Z</time>
      </trkpt>
      <trkpt lat="44.55894" lon="2.6703">
        <ele>333</ele>
        <time>2012-06-11T07:18:38Z</time>
      </trkpt>
      <trkpt lat="44.55895" lon="2.67029">
        <ele>333</ele>
        <time>2012-06-11T07:18:39Z</time>
      </trkpt>
      <trkpt lat="44.55896" lon="2.67028">
        <ele>333</ele>
        <time>2012-06-11T07:18:40Z</time>
      </trkpt>
      <trkpt lat="44.55898" lon="2.67028">
        <ele>333</ele>
        <time>2012-06-11T07:18:41Z</time>
      </trkpt>
      <trkpt lat="44.559" lon="2.67027">
        <ele>333</ele>
        <time>2012-06-11T07:18:42Z</time>
      </trkpt>
      <trkpt lat="44.55901" lon="2.67026">
        <ele>333</ele>
        <time>2012-06-11T07:18:43Z</time>
      </trkpt>
      <trkpt lat="44.55902" lon="2.67025">
        <ele>333</ele>
        <time>2012-06-11T07:18:44Z</time>
      </trkpt>
      <trkpt lat="44.55904" lon="2.67024">
        <ele>333</ele>
        <time>2012-06-11T07:18:45Z</time>
      </trkpt>
      <trkpt lat="44.55905" lon="2.67024">
        <ele>333</ele>
        <time>2012-06-11T07:18:46Z</time>
      </trkpt>
      <trkpt lat="44.55906" lon="2.67023">
        <ele>333</ele>
        <time>2012-06-11T07:18:47Z</time>
      </trkpt>
      <trkpt lat="44.55908" lon="2.67022">
        <ele>333</ele>
        <time>2012-06-11T07:18:48Z</time>
      </trkpt>
      <trkpt lat="44.55909" lon="2.67021">
        <ele>333</ele>
        <time>2012-06-11T07:18:49Z</time>
      </trkpt>
      <trkpt lat="44.5591" lon="2.67021">
        <ele>333</ele>
        <time>2012-06-11T07:18:50Z</time>
      </trkpt>
      <trkpt lat="44.55912" lon="2.6702">
        <ele>333</ele>
        <time>2012-06-11T07:18:52Z</time>
      </trkpt>
      <trkpt lat="44.55914" lon="2.6702">
        <ele>333</ele>
        <time>2012-06-11T07:18:54Z</time>
      </trkpt>
      <trkpt lat="44.55914" lon="2.67019">
        <ele>334</ele>
        <time>2012-06-11T07:19:05Z</time>
      </trkpt>
      <trkpt lat="44.55915" lon="2.67016">
        <ele>335</ele>
        <time>2012-06-11T07:19:07Z</time>
      </trkpt>
      <trkpt lat="44.55917" lon="2.67016">
        <ele>335</ele>
        <time>2012-06-11T07:19:08Z</time>
      </trkpt>
      <trkpt lat="44.55918" lon="2.67015">
        <ele>336</ele>
        <time>2012-06-11T07:19:09Z</time>
      </trkpt>
      <trkpt lat="44.55919" lon="2.67014">
        <ele>336</ele>
        <time>2012-06-11T07:19:10Z</time>
      </trkpt>
      <trkpt lat="44.5592" lon="2.67013">
        <ele>336</ele>
        <time>2012-06-11T07:19:11Z</time>
      </trkpt>
      <trkpt lat="44.55922" lon="2.67012">
        <ele>336</ele>
        <time>2012-06-11T07:19:12Z</time>
      </trkpt>
      <trkpt lat="44.55923" lon="2.67012">
        <ele>336</ele>
        <time>2012-06-11T07:19:13Z</time>
      </trkpt>
      <trkpt lat="44.55924" lon="2.67011">
        <ele>337</ele>
        <time>2012-06-11T07:19:14Z</time>
      </trkpt>
      <trkpt lat="44.55927" lon="2.67009">
        <ele>337</ele>
        <time>2012-06-11T07:19:16Z</time>
      </trkpt>
      <trkpt lat="44.55928" lon="2.67008">
        <ele>337</ele>
        <time>2012-06-11T07:19:17Z</time>
      </trkpt>
      <trkpt lat="44.55929" lon="2.67007">
        <ele>337</ele>
        <time>2012-06-11T07:19:18Z</time>
      </trkpt>
      <trkpt lat="44.5593" lon="2.67006">
        <ele>337</ele>
        <time>2012-06-11T07:19:19Z</time>
      </trkpt>
      <trkpt lat="44.55931" lon="2.67005">
        <ele>337</ele>
        <time>2012-06-11T07:19:20Z</time>
      </trkpt>
      <trkpt lat="44.55933" lon="2.67004">
        <ele>337</ele>
        <time>2012-06-11T07:19:21Z</time>
      </trkpt>
      <trkpt lat="44.55935" lon="2.67002">
        <ele>337</ele>
        <time>2012-06-11T07:19:23Z</time>
      </trkpt>
      <trkpt lat="44.55936" lon="2.67001">
        <ele>337</ele>
        <time>2012-06-11T07:19:24Z</time>
      </trkpt>
      <trkpt lat="44.55937" lon="2.67">
        <ele>337</ele>
        <time>2012-06-11T07:19:25Z</time>
      </trkpt>
      <trkpt lat="44.55938" lon="2.66999">
        <ele>337</ele>
        <time>2012-06-11T07:19:26Z</time>
      </trkpt>
      <trkpt lat="44.5594" lon="2.66998">
        <ele>337</ele>
        <time>2012-06-11T07:19:27Z</time>
      </trkpt>
      <trkpt lat="44.55942" lon="2.66996">
        <ele>337</ele>
        <time>2012-06-11T07:19:29Z</time>
      </trkpt>
      <trkpt lat="44.55943" lon="2.66995">
        <ele>337</ele>
        <time>2012-06-11T07:19:30Z</time>
      </trkpt>
      <trkpt lat="44.55944" lon="2.66994">
        <ele>337</ele>
        <time>2012-06-11T07:19:31Z</time>
      </trkpt>
      <trkpt lat="44.55945" lon="2.66993">
        <ele>337</ele>
        <time>2012-06-11T07:19:32Z</time>
      </trkpt>
      <trkpt lat="44.55947" lon="2.6699">
        <ele>337</ele>
        <time>2012-06-11T07:19:34Z</time>
      </trkpt>
      <trkpt lat="44.55948" lon="2.66989">
        <ele>337</ele>
        <time>2012-06-11T07:19:35Z</time>
      </trkpt>
      <trkpt lat="44.5595" lon="2.66986">
        <ele>337</ele>
        <time>2012-06-11T07:19:37Z</time>
      </trkpt>
      <trkpt lat="44.55952" lon="2.66984">
        <ele>337</ele>
        <time>2012-06-11T07:19:39Z</time>
      </trkpt>
      <trkpt lat="44.55953" lon="2.66982">
        <ele>337</ele>
        <time>2012-06-11T07:19:40Z</time>
      </trkpt>
      <trkpt lat="44.55954" lon="2.66981">
        <ele>337</ele>
        <time>2012-06-11T07:19:41Z</time>
      </trkpt>
      <trkpt lat="44.55954" lon="2.66979">
        <ele>337</ele>
        <time>2012-06-11T07:19:42Z</time>
      </trkpt>
      <trkpt lat="44.55955" lon="2.66978">
        <ele>337</ele>
        <time>2012-06-11T07:19:43Z</time>
      </trkpt>
      <trkpt lat="44.55956" lon="2.66976">
        <ele>337</ele>
        <time>2012-06-11T07:19:44Z</time>
      </trkpt>
      <trkpt lat="44.55957" lon="2.66975">
        <ele>337</ele>
        <time>2012-06-11T07:19:45Z</time>
      </trkpt>
      <trkpt lat="44.55958" lon="2.66973">
        <ele>337</ele>
        <time>2012-06-11T07:19:46Z</time>
      </trkpt>
      <trkpt lat="44.55959" lon="2.66971">
        <ele>337</ele>
        <time>2012-06-11T07:19:47Z</time>
      </trkpt>
      <trkpt lat="44.5596" lon="2.6697">
        <ele>337</ele>
        <time>2012-06-11T07:19:48Z</time>
      </trkpt>
      <trkpt lat="44.55962" lon="2.66967">
        <ele>337</ele>
        <time>2012-06-11T07:19:50Z</time>
      </trkpt>
      <trkpt lat="44.55962" lon="2.66966">
        <ele>337</ele>
        <time>2012-06-11T07:19:51Z</time>
      </trkpt>
      <trkpt lat="44.55963" lon="2.66964">
        <ele>337</ele>
        <time>2012-06-11T07:19:52Z</time>
      </trkpt>
      <trkpt lat="44.55964" lon="2.66963">
        <ele>337</ele>
        <time>2012-06-11T07:19:53Z</time>
      </trkpt>
      <trkpt lat="44.55965" lon="2.66961">
        <ele>337</ele>
        <time>2012-06-11T07:19:54Z</time>
      </trkpt>
      <trkpt lat="44.55965" lon="2.6696">
        <ele>337</ele>
        <time>2012-06-11T07:19:55Z</time>
      </trkpt>
      <trkpt lat="44.55966" lon="2.66958">
        <ele>337</ele>
        <time>2012-06-11T07:19:56Z</time>
      </trkpt>
      <trkpt lat="44.55967" lon="2.66957">
        <ele>337</ele>
        <time>2012-06-11T07:19:57Z</time>
      </trkpt>
      <trkpt lat="44.55968" lon="2.66955">
        <ele>337</ele>
        <time>2012-06-11T07:19:58Z</time>
      </trkpt>
      <trkpt lat="44.55969" lon="2.66953">
        <ele>337</ele>
        <time>2012-06-11T07:19:59Z</time>
      </trkpt>
      <trkpt lat="44.55969" lon="2.66952">
        <ele>337</ele>
        <time>2012-06-11T07:20:00Z</time>
      </trkpt>
      <trkpt lat="44.5597" lon="2.6695">
        <ele>337</ele>
        <time>2012-06-11T07:20:01Z</time>
      </trkpt>
      <trkpt lat="44.55971" lon="2.66948">
        <ele>337</ele>
        <time>2012-06-11T07:20:03Z</time>
      </trkpt>
      <trkpt lat="44.55973" lon="2.66947">
        <ele>337</ele>
        <time>2012-06-11T07:20:07Z</time>
      </trkpt>
      <trkpt lat="44.55974" lon="2.66947">
        <ele>337</ele>
        <time>2012-06-11T07:20:12Z</time>
      </trkpt>
      <trkpt lat="44.55975" lon="2.66945">
        <ele>337</ele>
        <time>2012-06-11T07:20:26Z</time>
      </trkpt>
      <trkpt lat="44.55976" lon="2.66942">
        <ele>337</ele>
        <time>2012-06-11T07:20:28Z</time>
      </trkpt>
      <trkpt lat="44.55977" lon="2.6694">
        <ele>337</ele>
        <time>2012-06-11T07:20:29Z</time>
      </trkpt>
      <trkpt lat="44.55978" lon="2.66937">
        <ele>337</ele>
        <time>2012-06-11T07:20:31Z</time>
      </trkpt>
      <trkpt lat="44.5598" lon="2.66935">
        <ele>337</ele>
        <time>2012-06-11T07:20:33Z</time>
      </trkpt>
      <trkpt lat="44.55981" lon="2.66933">
        <ele>337</ele>
        <time>2012-06-11T07:20:34Z</time>
      </trkpt>
      <trkpt lat="44.55983" lon="2.6693">
        <ele>337</ele>
        <time>2012-06-11T07:20:36Z</time>
      </trkpt>
      <trkpt lat="44.55984" lon="2.66929">
        <ele>337</ele>
        <time>2012-06-11T07:20:37Z</time>
      </trkpt>
      <trkpt lat="44.55985" lon="2.66927">
        <ele>337</ele>
        <time>2012-06-11T07:20:38Z</time>
      </trkpt>
      <trkpt lat="44.55986" lon="2.66925">
        <ele>337</ele>
        <time>2012-06-11T07:20:39Z</time>
      </trkpt>
      <trkpt lat="44.55986" lon="2.66924">
        <ele>337</ele>
        <time>2012-06-11T07:20:40Z</time>
      </trkpt>
      <trkpt lat="44.55987" lon="2.66922">
        <ele>337</ele>
        <time>2012-06-11T07:20:41Z</time>
      </trkpt>
      <trkpt lat="44.55989" lon="2.66919">
        <ele>337</ele>
        <time>2012-06-11T07:20:43Z</time>
      </trkpt>
      <trkpt lat="44.5599" lon="2.66918">
        <ele>337</ele>
        <time>2012-06-11T07:20:44Z</time>
      </trkpt>
      <trkpt lat="44.55991" lon="2.66916">
        <ele>337</ele>
        <time>2012-06-11T07:20:45Z</time>
      </trkpt>
      <trkpt lat="44.55991" lon="2.66914">
        <ele>337</ele>
        <time>2012-06-11T07:20:46Z</time>
      </trkpt>
      <trkpt lat="44.55992" lon="2.66912">
        <ele>337</ele>
        <time>2012-06-11T07:20:47Z</time>
      </trkpt>
      <trkpt lat="44.55992" lon="2.66909">
        <ele>337</ele>
        <time>2012-06-11T07:20:49Z</time>
      </trkpt>
      <trkpt lat="44.55993" lon="2.66906">
        <ele>337</ele>
        <time>2012-06-11T07:20:51Z</time>
      </trkpt>
      <trkpt lat="44.55994" lon="2.66904">
        <ele>337</ele>
        <time>2012-06-11T07:20:52Z</time>
      </trkpt>
      <trkpt lat="44.55995" lon="2.66903">
        <ele>337</ele>
        <time>2012-06-11T07:20:53Z</time>
      </trkpt>
      <trkpt lat="44.55997" lon="2.669">
        <ele>337</ele>
        <time>2012-06-11T07:20:55Z</time>
      </trkpt>
      <trkpt lat="44.55999" lon="2.66898">
        <ele>337</ele>
        <time>2012-06-11T07:20:57Z</time>
      </trkpt>
      <trkpt lat="44.56" lon="2.66896">
        <ele>337</ele>
        <time>2012-06-11T07:20:58Z</time>
      </trkpt>
      <trkpt lat="44.56001" lon="2.66895">
        <ele>337</ele>
        <time>2012-06-11T07:20:59Z</time>
      </trkpt>
      <trkpt lat="44.56002" lon="2.66893">
        <ele>337</ele>
        <time>2012-06-11T07:21:00Z</time>
      </trkpt>
      <trkpt lat="44.56004" lon="2.66891">
        <ele>337</ele>
        <time>2012-06-11T07:21:02Z</time>
      </trkpt>
      <trkpt lat="44.56005" lon="2.66889">
        <ele>337</ele>
        <time>2012-06-11T07:21:03Z</time>
      </trkpt>
      <trkpt lat="44.56007" lon="2.66888">
        <ele>337</ele>
        <time>2012-06-11T07:21:04Z</time>
      </trkpt>
      <trkpt lat="44.56008" lon="2.66886">
        <ele>337</ele>
        <time>2012-06-11T07:21:06Z</time>
      </trkpt>
      <trkpt lat="44.5601" lon="2.66884">
        <ele>337</ele>
        <time>2012-06-11T07:21:08Z</time>
      </trkpt>
      <trkpt lat="44.56011" lon="2.66882">
        <ele>337</ele>
        <time>2012-06-11T07:21:09Z</time>
      </trkpt>
      <trkpt lat="44.56014" lon="2.66881">
        <ele>337</ele>
        <time>2012-06-11T07:21:11Z</time>
      </trkpt>
      <trkpt lat="44.56016" lon="2.66879">
        <ele>337</ele>
        <time>2012-06-11T07:21:13Z</time>
      </trkpt>
      <trkpt lat="44.56018" lon="2.66877">
        <ele>337</ele>
        <time>2012-06-11T07:21:15Z</time>
      </trkpt>
      <trkpt lat="44.5602" lon="2.66875">
        <ele>337</ele>
        <time>2012-06-11T07:21:17Z</time>
      </trkpt>
      <trkpt lat="44.56022" lon="2.66873">
        <ele>337</ele>
        <time>2012-06-11T07:21:19Z</time>
      </trkpt>
      <trkpt lat="44.56023" lon="2.66872">
        <ele>337</ele>
        <time>2012-06-11T07:21:20Z</time>
      </trkpt>
      <trkpt lat="44.56025" lon="2.66871">
        <ele>337</ele>
        <time>2012-06-11T07:21:21Z</time>
      </trkpt>
      <trkpt lat="44.56026" lon="2.6687">
        <ele>337</ele>
        <time>2012-06-11T07:21:22Z</time>
      </trkpt>
      <trkpt lat="44.56027" lon="2.6687">
        <ele>337</ele>
        <time>2012-06-11T07:21:23Z</time>
      </trkpt>
      <trkpt lat="44.56029" lon="2.66868">
        <ele>337</ele>
        <time>2012-06-11T07:21:25Z</time>
      </trkpt>
      <trkpt lat="44.56031" lon="2.66867">
        <ele>337</ele>
        <time>2012-06-11T07:21:26Z</time>
      </trkpt>
      <trkpt lat="44.56032" lon="2.66866">
        <ele>337</ele>
        <time>2012-06-11T07:21:27Z</time>
      </trkpt>
      <trkpt lat="44.56033" lon="2.66865">
        <ele>337</ele>
        <time>2012-06-11T07:21:28Z</time>
      </trkpt>
      <trkpt lat="44.56034" lon="2.66864">
        <ele>337</ele>
        <time>2012-06-11T07:21:29Z</time>
      </trkpt>
      <trkpt lat="44.56036" lon="2.66864">
        <ele>337</ele>
        <time>2012-06-11T07:21:30Z</time>
      </trkpt>
      <trkpt lat="44.56037" lon="2.66863">
        <ele>337</ele>
        <time>2012-06-11T07:21:31Z</time>
      </trkpt>
      <trkpt lat="44.56038" lon="2.66862">
        <ele>337</ele>
        <time>2012-06-11T07:21:32Z</time>
      </trkpt>
      <trkpt lat="44.56039" lon="2.66862">
        <ele>337</ele>
        <time>2012-06-11T07:21:33Z</time>
      </trkpt>
      <trkpt lat="44.56041" lon="2.66861">
        <ele>337</ele>
        <time>2012-06-11T07:21:34Z</time>
      </trkpt>
      <trkpt lat="44.56042" lon="2.6686">
        <ele>337</ele>
        <time>2012-06-11T07:21:35Z</time>
      </trkpt>
      <trkpt lat="44.56043" lon="2.66859">
        <ele>337</ele>
        <time>2012-06-11T07:21:36Z</time>
      </trkpt>
      <trkpt lat="44.56045" lon="2.66859">
        <ele>337</ele>
        <time>2012-06-11T07:21:37Z</time>
      </trkpt>
      <trkpt lat="44.56046" lon="2.66858">
        <ele>337</ele>
        <time>2012-06-11T07:21:38Z</time>
      </trkpt>
      <trkpt lat="44.56047" lon="2.66857">
        <ele>337</ele>
        <time>2012-06-11T07:21:39Z</time>
      </trkpt>
      <trkpt lat="44.56049" lon="2.66857">
        <ele>337</ele>
        <time>2012-06-11T07:21:40Z</time>
      </trkpt>
      <trkpt lat="44.5605" lon="2.66856">
        <ele>337</ele>
        <time>2012-06-11T07:21:41Z</time>
      </trkpt>
      <trkpt lat="44.56051" lon="2.66855">
        <ele>337</ele>
        <time>2012-06-11T07:21:42Z</time>
      </trkpt>
      <trkpt lat="44.56052" lon="2.66855">
        <ele>337</ele>
        <time>2012-06-11T07:21:43Z</time>
      </trkpt>
      <trkpt lat="44.56054" lon="2.66854">
        <ele>337</ele>
        <time>2012-06-11T07:21:44Z</time>
      </trkpt>
      <trkpt lat="44.56055" lon="2.66854">
        <ele>337</ele>
        <time>2012-06-11T07:21:45Z</time>
      </trkpt>
      <trkpt lat="44.56056" lon="2.66853">
        <ele>337</ele>
        <time>2012-06-11T07:21:46Z</time>
      </trkpt>
      <trkpt lat="44.56058" lon="2.66852">
        <ele>337</ele>
        <time>2012-06-11T07:21:48Z</time>
      </trkpt>
      <trkpt lat="44.56059" lon="2.66852">
        <ele>337</ele>
        <time>2012-06-11T07:21:49Z</time>
      </trkpt>
      <trkpt lat="44.5606" lon="2.66852">
        <ele>337</ele>
        <time>2012-06-11T07:21:50Z</time>
      </trkpt>
      <trkpt lat="44.56062" lon="2.66851">
        <ele>337</ele>
        <time>2012-06-11T07:21:51Z</time>
      </trkpt>
      <trkpt lat="44.56063" lon="2.66851">
        <ele>337</ele>
        <time>2012-06-11T07:21:52Z</time>
      </trkpt>
      <trkpt lat="44.56064" lon="2.6685">
        <ele>337</ele>
        <time>2012-06-11T07:21:53Z</time>
      </trkpt>
      <trkpt lat="44.56065" lon="2.66849">
        <ele>337</ele>
        <time>2012-06-11T07:21:54Z</time>
      </trkpt>
      <trkpt lat="44.56067" lon="2.66849">
        <ele>337</ele>
        <time>2012-06-11T07:21:55Z</time>
      </trkpt>
      <trkpt lat="44.56068" lon="2.66849">
        <ele>337</ele>
        <time>2012-06-11T07:21:56Z</time>
      </trkpt>
      <trkpt lat="44.56069" lon="2.66848">
        <ele>337</ele>
        <time>2012-06-11T07:21:57Z</time>
      </trkpt>
      <trkpt lat="44.5607" lon="2.66848">
        <ele>337</ele>
        <time>2012-06-11T07:21:58Z</time>
      </trkpt>
      <trkpt lat="44.56071" lon="2.66848">
        <ele>337</ele>
        <time>2012-06-11T07:21:59Z</time>
      </trkpt>
      <trkpt lat="44.56073" lon="2.66847">
        <ele>337</ele>
        <time>2012-06-11T07:22:00Z</time>
      </trkpt>
      <trkpt lat="44.56074" lon="2.66847">
        <ele>337</ele>
        <time>2012-06-11T07:22:01Z</time>
      </trkpt>
      <trkpt lat="44.56075" lon="2.66847">
        <ele>337</ele>
        <time>2012-06-11T07:22:02Z</time>
      </trkpt>
      <trkpt lat="44.56076" lon="2.66846">
        <ele>337</ele>
        <time>2012-06-11T07:22:03Z</time>
      </trkpt>
      <trkpt lat="44.56078" lon="2.66846">
        <ele>337</ele>
        <time>2012-06-11T07:22:04Z</time>
      </trkpt>
      <trkpt lat="44.56079" lon="2.66846">
        <ele>337</ele>
        <time>2012-06-11T07:22:05Z</time>
      </trkpt>
      <trkpt lat="44.5608" lon="2.66845">
        <ele>337</ele>
        <time>2012-06-11T07:22:06Z</time>
      </trkpt>
      <trkpt lat="44.56082" lon="2.66845">
        <ele>337</ele>
        <time>2012-06-11T07:22:07Z</time>
      </trkpt>
      <trkpt lat="44.56083" lon="2.66845">
        <ele>337</ele>
        <time>2012-06-11T07:22:08Z</time>
      </trkpt>
      <trkpt lat="44.56084" lon="2.66845">
        <ele>337</ele>
        <time>2012-06-11T07:22:09Z</time>
      </trkpt>
      <trkpt lat="44.56088" lon="2.66845">
        <ele>337</ele>
        <time>2012-06-11T07:22:12Z</time>
      </trkpt>
      <trkpt lat="44.5609" lon="2.66844">
        <ele>337</ele>
        <time>2012-06-11T07:22:14Z</time>
      </trkpt>
      <trkpt lat="44.56091" lon="2.66845">
        <ele>337</ele>
        <time>2012-06-11T07:22:15Z</time>
      </trkpt>
      <trkpt lat="44.56092" lon="2.66845">
        <ele>337</ele>
        <time>2012-06-11T07:22:16Z</time>
      </trkpt>
      <trkpt lat="44.56095" lon="2.66845">
        <ele>337</ele>
        <time>2012-06-11T07:22:18Z</time>
      </trkpt>
      <trkpt lat="44.56096" lon="2.66845">
        <ele>337</ele>
        <time>2012-06-11T07:22:19Z</time>
      </trkpt>
      <trkpt lat="44.56099" lon="2.66845">
        <ele>337</ele>
        <time>2012-06-11T07:22:22Z</time>
      </trkpt>
      <trkpt lat="44.56102" lon="2.66845">
        <ele>337</ele>
        <time>2012-06-11T07:22:31Z</time>
      </trkpt>
      <trkpt lat="44.56104" lon="2.66846">
        <ele>337</ele>
        <time>2012-06-11T07:22:33Z</time>
      </trkpt>
      <trkpt lat="44.56105" lon="2.66846">
        <ele>337</ele>
        <time>2012-06-11T07:22:34Z</time>
      </trkpt>
      <trkpt lat="44.56106" lon="2.66847">
        <ele>337</ele>
        <time>2012-06-11T07:22:35Z</time>
      </trkpt>
      <trkpt lat="44.56108" lon="2.66847">
        <ele>337</ele>
        <time>2012-06-11T07:22:37Z</time>
      </trkpt>
      <trkpt lat="44.56109" lon="2.66847">
        <ele>337</ele>
        <time>2012-06-11T07:22:38Z</time>
      </trkpt>
      <trkpt lat="44.5611" lon="2.66848">
        <ele>337</ele>
        <time>2012-06-11T07:22:39Z</time>
      </trkpt>
      <trkpt lat="44.56112" lon="2.66848">
        <ele>337</ele>
        <time>2012-06-11T07:22:40Z</time>
      </trkpt>
      <trkpt lat="44.56113" lon="2.66849">
        <ele>337</ele>
        <time>2012-06-11T07:22:41Z</time>
      </trkpt>
      <trkpt lat="44.56114" lon="2.66849">
        <ele>337</ele>
        <time>2012-06-11T07:22:42Z</time>
      </trkpt>
      <trkpt lat="44.56115" lon="2.6685">
        <ele>337</ele>
        <time>2012-06-11T07:22:43Z</time>
      </trkpt>
      <trkpt lat="44.56118" lon="2.66851">
        <ele>338</ele>
        <time>2012-06-11T07:22:45Z</time>
      </trkpt>
      <trkpt lat="44.56119" lon="2.66852">
        <ele>338</ele>
        <time>2012-06-11T07:22:46Z</time>
      </trkpt>
      <trkpt lat="44.5612" lon="2.66852">
        <ele>338</ele>
        <time>2012-06-11T07:22:47Z</time>
      </trkpt>
      <trkpt lat="44.56121" lon="2.66853">
        <ele>338</ele>
        <time>2012-06-11T07:22:48Z</time>
      </trkpt>
      <trkpt lat="44.56123" lon="2.66853">
        <ele>338</ele>
        <time>2012-06-11T07:22:49Z</time>
      </trkpt>
      <trkpt lat="44.56124" lon="2.66854">
        <ele>338</ele>
        <time>2012-06-11T07:22:50Z</time>
      </trkpt>
      <trkpt lat="44.56125" lon="2.66855">
        <ele>338</ele>
        <time>2012-06-11T07:22:51Z</time>
      </trkpt>
      <trkpt lat="44.56126" lon="2.66856">
        <ele>339</ele>
        <time>2012-06-11T07:22:52Z</time>
      </trkpt>
      <trkpt lat="44.56128" lon="2.66856">
        <ele>339</ele>
        <time>2012-06-11T07:22:53Z</time>
      </trkpt>
      <trkpt lat="44.56129" lon="2.66857">
        <ele>339</ele>
        <time>2012-06-11T07:22:54Z</time>
      </trkpt>
      <trkpt lat="44.56131" lon="2.66858">
        <ele>339</ele>
        <time>2012-06-11T07:22:56Z</time>
      </trkpt>
      <trkpt lat="44.56132" lon="2.66859">
        <ele>339</ele>
        <time>2012-06-11T07:22:57Z</time>
      </trkpt>
      <trkpt lat="44.56134" lon="2.6686">
        <ele>339</ele>
        <time>2012-06-11T07:22:58Z</time>
      </trkpt>
      <trkpt lat="44.56135" lon="2.66861">
        <ele>339</ele>
        <time>2012-06-11T07:22:59Z</time>
      </trkpt>
      <trkpt lat="44.56136" lon="2.66861">
        <ele>339</ele>
        <time>2012-06-11T07:23:00Z</time>
      </trkpt>
      <trkpt lat="44.56137" lon="2.66862">
        <ele>339</ele>
        <time>2012-06-11T07:23:01Z</time>
      </trkpt>
      <trkpt lat="44.56138" lon="2.66863">
        <ele>339</ele>
        <time>2012-06-11T07:23:02Z</time>
      </trkpt>
      <trkpt lat="44.56139" lon="2.66863">
        <ele>339</ele>
        <time>2012-06-11T07:23:03Z</time>
      </trkpt>
      <trkpt lat="44.56141" lon="2.66864">
        <ele>339</ele>
        <time>2012-06-11T07:23:04Z</time>
      </trkpt>
      <trkpt lat="44.56142" lon="2.66865">
        <ele>339</ele>
        <time>2012-06-11T07:23:05Z</time>
      </trkpt>
      <trkpt lat="44.56144" lon="2.66866">
        <ele>339</ele>
        <time>2012-06-11T07:23:07Z</time>
      </trkpt>
      <trkpt lat="44.56146" lon="2.66869">
        <ele>339</ele>
        <time>2012-06-11T07:23:09Z</time>
      </trkpt>
      <trkpt lat="44.56148" lon="2.66871">
        <ele>339</ele>
        <time>2012-06-11T07:23:11Z</time>
      </trkpt>
      <trkpt lat="44.5615" lon="2.66873">
        <ele>339</ele>
        <time>2012-06-11T07:23:13Z</time>
      </trkpt>
      <trkpt lat="44.56152" lon="2.66875">
        <ele>339</ele>
        <time>2012-06-11T07:23:15Z</time>
      </trkpt>
      <trkpt lat="44.56153" lon="2.66875">
        <ele>339</ele>
        <time>2012-06-11T07:23:16Z</time>
      </trkpt>
      <trkpt lat="44.56155" lon="2.66877">
        <ele>339</ele>
        <time>2012-06-11T07:23:18Z</time>
      </trkpt>
      <trkpt lat="44.56157" lon="2.66879">
        <ele>339</ele>
        <time>2012-06-11T07:23:20Z</time>
      </trkpt>
      <trkpt lat="44.56159" lon="2.66881">
        <ele>339</ele>
        <time>2012-06-11T07:23:22Z</time>
      </trkpt>
      <trkpt lat="44.5616" lon="2.66883">
        <ele>339</ele>
        <time>2012-06-11T07:23:24Z</time>
      </trkpt>
      <trkpt lat="44.56162" lon="2.66885">
        <ele>339</ele>
        <time>2012-06-11T07:23:26Z</time>
      </trkpt>
      <trkpt lat="44.56164" lon="2.66886">
        <ele>339</ele>
        <time>2012-06-11T07:23:28Z</time>
      </trkpt>
      <trkpt lat="44.56166" lon="2.66888">
        <ele>339</ele>
        <time>2012-06-11T07:23:30Z</time>
      </trkpt>
      <trkpt lat="44.56167" lon="2.6689">
        <ele>339</ele>
        <time>2012-06-11T07:23:32Z</time>
      </trkpt>
      <trkpt lat="44.56168" lon="2.66892">
        <ele>339</ele>
        <time>2012-06-11T07:23:34Z</time>
      </trkpt>
      <trkpt lat="44.5617" lon="2.66894">
        <ele>339</ele>
        <time>2012-06-11T07:23:36Z</time>
      </trkpt>
      <trkpt lat="44.56171" lon="2.66896">
        <ele>339</ele>
        <time>2012-06-11T07:23:38Z</time>
      </trkpt>
      <trkpt lat="44.56173" lon="2.66898">
        <ele>339</ele>
        <time>2012-06-11T07:23:40Z</time>
      </trkpt>
      <trkpt lat="44.56174" lon="2.669">
        <ele>339</ele>
        <time>2012-06-11T07:23:42Z</time>
      </trkpt>
      <trkpt lat="44.56176" lon="2.66901">
        <ele>339</ele>
        <time>2012-06-11T07:23:44Z</time>
      </trkpt>
      <trkpt lat="44.56177" lon="2.66903">
        <ele>340</ele>
        <time>2012-06-11T07:23:55Z</time>
      </trkpt>
      <trkpt lat="44.56178" lon="2.66904">
        <ele>341</ele>
        <time>2012-06-11T07:23:57Z</time>
      </trkpt>
      <trkpt lat="44.56179" lon="2.66906">
        <ele>341</ele>
        <time>2012-06-11T07:23:59Z</time>
      </trkpt>
      <trkpt lat="44.5618" lon="2.66907">
        <ele>341</ele>
        <time>2012-06-11T07:24:01Z</time>
      </trkpt>
      <trkpt lat="44.56181" lon="2.66909">
        <ele>342</ele>
        <time>2012-06-11T07:24:11Z</time>
      </trkpt>
      <trkpt lat="44.56181" lon="2.66912">
        <ele>343</ele>
        <time>2012-06-11T07:24:13Z</time>
      </trkpt>
      <trkpt lat="44.56182" lon="2.66914">
        <ele>343</ele>
        <time>2012-06-11T07:24:14Z</time>
      </trkpt>
      <trkpt lat="44.56182" lon="2.66915">
        <ele>343</ele>
        <time>2012-06-11T07:24:15Z</time>
      </trkpt>
      <trkpt lat="44.56183" lon="2.66917">
        <ele>343</ele>
        <time>2012-06-11T07:24:16Z</time>
      </trkpt>
      <trkpt lat="44.56183" lon="2.66918">
        <ele>343</ele>
        <time>2012-06-11T07:24:17Z</time>
      </trkpt>
      <trkpt lat="44.56184" lon="2.6692">
        <ele>343</ele>
        <time>2012-06-11T07:24:18Z</time>
      </trkpt>
      <trkpt lat="44.56184" lon="2.66922">
        <ele>343</ele>
        <time>2012-06-11T07:24:19Z</time>
      </trkpt>
      <trkpt lat="44.56185" lon="2.66923">
        <ele>343</ele>
        <time>2012-06-11T07:24:20Z</time>
      </trkpt>
      <trkpt lat="44.56185" lon="2.66925">
        <ele>343</ele>
        <time>2012-06-11T07:24:21Z</time>
      </trkpt>
      <trkpt lat="44.56186" lon="2.66927">
        <ele>343</ele>
        <time>2012-06-11T07:24:22Z</time>
      </trkpt>
      <trkpt lat="44.56186" lon="2.66929">
        <ele>343</ele>
        <time>2012-06-11T07:24:23Z</time>
      </trkpt>
      <trkpt lat="44.56186" lon="2.66932">
        <ele>343</ele>
        <time>2012-06-11T07:24:25Z</time>
      </trkpt>
      <trkpt lat="44.56187" lon="2.66934">
        <ele>343</ele>
        <time>2012-06-11T07:24:26Z</time>
      </trkpt>
      <trkpt lat="44.56187" lon="2.66937">
        <ele>343</ele>
        <time>2012-06-11T07:24:28Z</time>
      </trkpt>
      <trkpt lat="44.56188" lon="2.6694">
        <ele>343</ele>
        <time>2012-06-11T07:24:29Z</time>
      </trkpt>
      <trkpt lat="44.56189" lon="2.66943">
        <ele>343</ele>
        <time>2012-06-11T07:24:31Z</time>
      </trkpt>
      <trkpt lat="44.56189" lon="2.66945">
        <ele>343</ele>
        <time>2012-06-11T07:24:32Z</time>
      </trkpt>
      <trkpt lat="44.56189" lon="2.66947">
        <ele>343</ele>
        <time>2012-06-11T07:24:33Z</time>
      </trkpt>
      <trkpt lat="44.5619" lon="2.66951">
        <ele>343</ele>
        <time>2012-06-11T07:24:35Z</time>
      </trkpt>
      <trkpt lat="44.5619" lon="2.66953">
        <ele>343</ele>
        <time>2012-06-11T07:24:36Z</time>
      </trkpt>
      <trkpt lat="44.56191" lon="2.66955">
        <ele>343</ele>
        <time>2012-06-11T07:24:37Z</time>
      </trkpt>
      <trkpt lat="44.56191" lon="2.66958">
        <ele>343</ele>
        <time>2012-06-11T07:24:39Z</time>
      </trkpt>
      <trkpt lat="44.56192" lon="2.6696">
        <ele>343</ele>
        <time>2012-06-11T07:24:40Z</time>
      </trkpt>
      <trkpt lat="44.56192" lon="2.66961">
        <ele>343</ele>
        <time>2012-06-11T07:24:41Z</time>
      </trkpt>
      <trkpt lat="44.56192" lon="2.66963">
        <ele>343</ele>
        <time>2012-06-11T07:24:42Z</time>
      </trkpt>
      <trkpt lat="44.56193" lon="2.66965">
        <ele>343</ele>
        <time>2012-06-11T07:24:43Z</time>
      </trkpt>
      <trkpt lat="44.56193" lon="2.66967">
        <ele>343</ele>
        <time>2012-06-11T07:24:44Z</time>
      </trkpt>
      <trkpt lat="44.56194" lon="2.66968">
        <ele>343</ele>
        <time>2012-06-11T07:24:45Z</time>
      </trkpt>
      <trkpt lat="44.56194" lon="2.6697">
        <ele>343</ele>
        <time>2012-06-11T07:24:46Z</time>
      </trkpt>
      <trkpt lat="44.56194" lon="2.66972">
        <ele>343</ele>
        <time>2012-06-11T07:24:47Z</time>
      </trkpt>
      <trkpt lat="44.56195" lon="2.66974">
        <ele>343</ele>
        <time>2012-06-11T07:24:48Z</time>
      </trkpt>
      <trkpt lat="44.56195" lon="2.66977">
        <ele>343</ele>
        <time>2012-06-11T07:24:50Z</time>
      </trkpt>
      <trkpt lat="44.56195" lon="2.66981">
        <ele>343</ele>
        <time>2012-06-11T07:24:52Z</time>
      </trkpt>
      <trkpt lat="44.56196" lon="2.66985">
        <ele>343</ele>
        <time>2012-06-11T07:24:54Z</time>
      </trkpt>
      <trkpt lat="44.56196" lon="2.66987">
        <ele>343</ele>
        <time>2012-06-11T07:24:55Z</time>
      </trkpt>
      <trkpt lat="44.56197" lon="2.66988">
        <ele>343</ele>
        <time>2012-06-11T07:24:56Z</time>
      </trkpt>
      <trkpt lat="44.56197" lon="2.6699">
        <ele>343</ele>
        <time>2012-06-11T07:24:57Z</time>
      </trkpt>
      <trkpt lat="44.56197" lon="2.66992">
        <ele>343</ele>
        <time>2012-06-11T07:24:58Z</time>
      </trkpt>
      <trkpt lat="44.56198" lon="2.66994">
        <ele>343</ele>
        <time>2012-06-11T07:24:59Z</time>
      </trkpt>
      <trkpt lat="44.56198" lon="2.66996">
        <ele>343</ele>
        <time>2012-06-11T07:25:00Z</time>
      </trkpt>
      <trkpt lat="44.56199" lon="2.67">
        <ele>343</ele>
        <time>2012-06-11T07:25:02Z</time>
      </trkpt>
      <trkpt lat="44.56199" lon="2.67002">
        <ele>343</ele>
        <time>2012-06-11T07:25:03Z</time>
      </trkpt>
      <trkpt lat="44.56199" lon="2.67006">
        <ele>343</ele>
        <time>2012-06-11T07:25:05Z</time>
      </trkpt>
      <trkpt lat="44.562" lon="2.6701">
        <ele>343</ele>
        <time>2012-06-11T07:25:07Z</time>
      </trkpt>
      <trkpt lat="44.562" lon="2.67012">
        <ele>343</ele>
        <time>2012-06-11T07:25:08Z</time>
      </trkpt>
      <trkpt lat="44.562" lon="2.67014">
        <ele>343</ele>
        <time>2012-06-11T07:25:09Z</time>
      </trkpt>
      <trkpt lat="44.562" lon="2.67017">
        <ele>343</ele>
        <time>2012-06-11T07:25:11Z</time>
      </trkpt>
      <trkpt lat="44.562" lon="2.67019">
        <ele>343</ele>
        <time>2012-06-11T07:25:12Z</time>
      </trkpt>
      <trkpt lat="44.562" lon="2.67023">
        <ele>343</ele>
        <time>2012-06-11T07:25:14Z</time>
      </trkpt>
      <trkpt lat="44.562" lon="2.67025">
        <ele>343</ele>
        <time>2012-06-11T07:25:15Z</time>
      </trkpt>
      <trkpt lat="44.56201" lon="2.67029">
        <ele>343</ele>
        <time>2012-06-11T07:25:17Z</time>
      </trkpt>
      <trkpt lat="44.56201" lon="2.67034">
        <ele>343</ele>
        <time>2012-06-11T07:25:20Z</time>
      </trkpt>
      <trkpt lat="44.56202" lon="2.67043">
        <ele>343</ele>
        <time>2012-06-11T07:25:25Z</time>
      </trkpt>
      <trkpt lat="44.56202" lon="2.67051">
        <ele>343</ele>
        <time>2012-06-11T07:25:29Z</time>
      </trkpt>
      <trkpt lat="44.56202" lon="2.67056">
        <ele>343</ele>
        <time>2012-06-11T07:25:32Z</time>
      </trkpt>
      <trkpt lat="44.56202" lon="2.67081">
        <ele>343</ele>
        <time>2012-06-11T07:25:45Z</time>
      </trkpt>
      <trkpt lat="44.56202" lon="2.67091">
        <ele>343</ele>
        <time>2012-06-11T07:25:50Z</time>
      </trkpt>
      <trkpt lat="44.56203" lon="2.6711">
        <ele>343</ele>
        <time>2012-06-11T07:26:00Z</time>
      </trkpt>
      <trkpt lat="44.56203" lon="2.67114">
        <ele>343</ele>
        <time>2012-06-11T07:26:02Z</time>
      </trkpt>
      <trkpt lat="44.56203" lon="2.67118">
        <ele>343</ele>
        <time>2012-06-11T07:26:04Z</time>
      </trkpt>
      <trkpt lat="44.56204" lon="2.67122">
        <ele>343</ele>
        <time>2012-06-11T07:26:06Z</time>
      </trkpt>
      <trkpt lat="44.56204" lon="2.67131">
        <ele>343</ele>
        <time>2012-06-11T07:26:11Z</time>
      </trkpt>
      <trkpt lat="44.56205" lon="2.67135">
        <ele>343</ele>
        <time>2012-06-11T07:26:13Z</time>
      </trkpt>
      <trkpt lat="44.56205" lon="2.67138">
        <ele>343</ele>
        <time>2012-06-11T07:26:15Z</time>
      </trkpt>
      <trkpt lat="44.56205" lon="2.67144">
        <ele>343</ele>
        <time>2012-06-11T07:26:18Z</time>
      </trkpt>
      <trkpt lat="44.56206" lon="2.6715">
        <ele>343</ele>
        <time>2012-06-11T07:26:21Z</time>
      </trkpt>
      <trkpt lat="44.56206" lon="2.67157">
        <ele>343</ele>
        <time>2012-06-11T07:26:25Z</time>
      </trkpt>
      <trkpt lat="44.56207" lon="2.67165">
        <ele>343</ele>
        <time>2012-06-11T07:26:29Z</time>
      </trkpt>
      <trkpt lat="44.56207" lon="2.67174">
        <ele>343</ele>
        <time>2012-06-11T07:26:34Z</time>
      </trkpt>
      <trkpt lat="44.56207" lon="2.67176">
        <ele>343</ele>
        <time>2012-06-11T07:26:35Z</time>
      </trkpt>
      <trkpt lat="44.56208" lon="2.67179">
        <ele>343</ele>
        <time>2012-06-11T07:26:37Z</time>
      </trkpt>
      <trkpt lat="44.56208" lon="2.67188">
        <ele>343</ele>
        <time>2012-06-11T07:26:42Z</time>
      </trkpt>
      <trkpt lat="44.56208" lon="2.67195">
        <ele>343</ele>
        <time>2012-06-11T07:26:46Z</time>
      </trkpt>
      <trkpt lat="44.56209" lon="2.67196">
        <ele>343</ele>
        <time>2012-06-11T07:26:47Z</time>
      </trkpt>
      <trkpt lat="44.56209" lon="2.67198">
        <ele>343</ele>
        <time>2012-06-11T07:26:48Z</time>
      </trkpt>
      <trkpt lat="44.5621" lon="2.67206">
        <ele>343</ele>
        <time>2012-06-11T07:26:52Z</time>
      </trkpt>
      <trkpt lat="44.5621" lon="2.67222">
        <ele>343</ele>
        <time>2012-06-11T07:27:00Z</time>
      </trkpt>
      <trkpt lat="44.5621" lon="2.67227">
        <ele>343</ele>
        <time>2012-06-11T07:27:03Z</time>
      </trkpt>
      <trkpt lat="44.56211" lon="2.67236">
        <ele>343</ele>
        <time>2012-06-11T07:27:08Z</time>
      </trkpt>
      <trkpt lat="44.56211" lon="2.67248">
        <ele>343</ele>
        <time>2012-06-11T07:27:14Z</time>
      </trkpt>
      <trkpt lat="44.56211" lon="2.67278">
        <ele>343</ele>
        <time>2012-06-11T07:27:29Z</time>
      </trkpt>
      <trkpt lat="44.5621" lon="2.67284">
        <ele>343</ele>
        <time>2012-06-11T07:27:32Z</time>
      </trkpt>
      <trkpt lat="44.5621" lon="2.6729">
        <ele>343</ele>
        <time>2012-06-11T07:27:35Z</time>
      </trkpt>
      <trkpt lat="44.5621" lon="2.67292">
        <ele>343</ele>
        <time>2012-06-11T07:27:36Z</time>
      </trkpt>
      <trkpt lat="44.56209" lon="2.67294">
        <ele>343</ele>
        <time>2012-06-11T07:27:37Z</time>
      </trkpt>
      <trkpt lat="44.56209" lon="2.67298">
        <ele>343</ele>
        <time>2012-06-11T07:27:39Z</time>
      </trkpt>
      <trkpt lat="44.56208" lon="2.673">
        <ele>343</ele>
        <time>2012-06-11T07:27:40Z</time>
      </trkpt>
      <trkpt lat="44.56208" lon="2.67302">
        <ele>343</ele>
        <time>2012-06-11T07:27:41Z</time>
      </trkpt>
      <trkpt lat="44.56207" lon="2.67304">
        <ele>343</ele>
        <time>2012-06-11T07:27:42Z</time>
      </trkpt>
      <trkpt lat="44.56207" lon="2.67306">
        <ele>343</ele>
        <time>2012-06-11T07:27:43Z</time>
      </trkpt>
      <trkpt lat="44.56206" lon="2.67308">
        <ele>343</ele>
        <time>2012-06-11T07:27:44Z</time>
      </trkpt>
      <trkpt lat="44.56206" lon="2.6731">
        <ele>343</ele>
        <time>2012-06-11T07:27:45Z</time>
      </trkpt>
      <trkpt lat="44.56205" lon="2.67312">
        <ele>343</ele>
        <time>2012-06-11T07:27:46Z</time>
      </trkpt>
      <trkpt lat="44.56205" lon="2.67313">
        <ele>343</ele>
        <time>2012-06-11T07:27:47Z</time>
      </trkpt>
      <trkpt lat="44.56204" lon="2.67315">
        <ele>343</ele>
        <time>2012-06-11T07:27:48Z</time>
      </trkpt>
      <trkpt lat="44.56204" lon="2.67317">
        <ele>343</ele>
        <time>2012-06-11T07:27:49Z</time>
      </trkpt>
      <trkpt lat="44.56203" lon="2.67319">
        <ele>343</ele>
        <time>2012-06-11T07:27:50Z</time>
      </trkpt>
      <trkpt lat="44.56203" lon="2.6732">
        <ele>343</ele>
        <time>2012-06-11T07:27:51Z</time>
      </trkpt>
      <trkpt lat="44.56202" lon="2.67322">
        <ele>343</ele>
        <time>2012-06-11T07:27:54Z</time>
      </trkpt>
      <trkpt lat="44.56201" lon="2.67322">
        <ele>343</ele>
        <time>2012-06-11T07:28:05Z</time>
      </trkpt>
      <trkpt lat="44.562" lon="2.67323">
        <ele>343</ele>
        <time>2012-06-11T07:28:07Z</time>
      </trkpt>
      <trkpt lat="44.56199" lon="2.67326">
        <ele>343</ele>
        <time>2012-06-11T07:28:09Z</time>
      </trkpt>
      <trkpt lat="44.56199" lon="2.67328">
        <ele>343</ele>
        <time>2012-06-11T07:28:10Z</time>
      </trkpt>
      <trkpt lat="44.56198" lon="2.67329">
        <ele>343</ele>
        <time>2012-06-11T07:28:11Z</time>
      </trkpt>
      <trkpt lat="44.56197" lon="2.67331">
        <ele>343</ele>
        <time>2012-06-11T07:28:12Z</time>
      </trkpt>
      <trkpt lat="44.56197" lon="2.67333">
        <ele>343</ele>
        <time>2012-06-11T07:28:13Z</time>
      </trkpt>
      <trkpt lat="44.56196" lon="2.67335">
        <ele>343</ele>
        <time>2012-06-11T07:28:14Z</time>
      </trkpt>
      <trkpt lat="44.56195" lon="2.67336">
        <ele>343</ele>
        <time>2012-06-11T07:28:15Z</time>
      </trkpt>
      <trkpt lat="44.56195" lon="2.67338">
        <ele>343</ele>
        <time>2012-06-11T07:28:16Z</time>
      </trkpt>
      <trkpt lat="44.56194" lon="2.67339">
        <ele>343</ele>
        <time>2012-06-11T07:28:17Z</time>
      </trkpt>
      <trkpt lat="44.56193" lon="2.67341">
        <ele>343</ele>
        <time>2012-06-11T07:28:18Z</time>
      </trkpt>
      <trkpt lat="44.56192" lon="2.67343">
        <ele>343</ele>
        <time>2012-06-11T07:28:19Z</time>
      </trkpt>
      <trkpt lat="44.56192" lon="2.67345">
        <ele>343</ele>
        <time>2012-06-11T07:28:20Z</time>
      </trkpt>
      <trkpt lat="44.56191" lon="2.67347">
        <ele>343</ele>
        <time>2012-06-11T07:28:21Z</time>
      </trkpt>
      <trkpt lat="44.5619" lon="2.67348">
        <ele>343</ele>
        <time>2012-06-11T07:28:22Z</time>
      </trkpt>
      <trkpt lat="44.56189" lon="2.6735">
        <ele>343</ele>
        <time>2012-06-11T07:28:23Z</time>
      </trkpt>
      <trkpt lat="44.56189" lon="2.67352">
        <ele>343</ele>
        <time>2012-06-11T07:28:24Z</time>
      </trkpt>
      <trkpt lat="44.56188" lon="2.67354">
        <ele>343</ele>
        <time>2012-06-11T07:28:25Z</time>
      </trkpt>
      <trkpt lat="44.56187" lon="2.67355">
        <ele>343</ele>
        <time>2012-06-11T07:28:26Z</time>
      </trkpt>
      <trkpt lat="44.56186" lon="2.67357">
        <ele>343</ele>
        <time>2012-06-11T07:28:27Z</time>
      </trkpt>
      <trkpt lat="44.56186" lon="2.67359">
        <ele>343</ele>
        <time>2012-06-11T07:28:28Z</time>
      </trkpt>
      <trkpt lat="44.56185" lon="2.67361">
        <ele>343</ele>
        <time>2012-06-11T07:28:29Z</time>
      </trkpt>
      <trkpt lat="44.56184" lon="2.67362">
        <ele>343</ele>
        <time>2012-06-11T07:28:30Z</time>
      </trkpt>
      <trkpt lat="44.56183" lon="2.67364">
        <ele>343</ele>
        <time>2012-06-11T07:28:31Z</time>
      </trkpt>
      <trkpt lat="44.56182" lon="2.67365">
        <ele>343</ele>
        <time>2012-06-11T07:28:32Z</time>
      </trkpt>
      <trkpt lat="44.56182" lon="2.67367">
        <ele>343</ele>
        <time>2012-06-11T07:28:33Z</time>
      </trkpt>
      <trkpt lat="44.56181" lon="2.67369">
        <ele>343</ele>
        <time>2012-06-11T07:28:34Z</time>
      </trkpt>
      <trkpt lat="44.5618" lon="2.6737">
        <ele>343</ele>
        <time>2012-06-11T07:28:35Z</time>
      </trkpt>
      <trkpt lat="44.56179" lon="2.67372">
        <ele>343</ele>
        <time>2012-06-11T07:28:36Z</time>
      </trkpt>
      <trkpt lat="44.56178" lon="2.67374">
        <ele>343</ele>
        <time>2012-06-11T07:28:37Z</time>
      </trkpt>
      <trkpt lat="44.56178" lon="2.67376">
        <ele>343</ele>
        <time>2012-06-11T07:28:38Z</time>
      </trkpt>
      <trkpt lat="44.56177" lon="2.67377">
        <ele>343</ele>
        <time>2012-06-11T07:28:39Z</time>
      </trkpt>
      <trkpt lat="44.56176" lon="2.67379">
        <ele>343</ele>
        <time>2012-06-11T07:28:40Z</time>
      </trkpt>
      <trkpt lat="44.56176" lon="2.6738">
        <ele>343</ele>
        <time>2012-06-11T07:28:41Z</time>
      </trkpt>
      <trkpt lat="44.56175" lon="2.67382">
        <ele>343</ele>
        <time>2012-06-11T07:28:42Z</time>
      </trkpt>
      <trkpt lat="44.56174" lon="2.67384">
        <ele>343</ele>
        <time>2012-06-11T07:28:43Z</time>
      </trkpt>
      <trkpt lat="44.56173" lon="2.67385">
        <ele>343</ele>
        <time>2012-06-11T07:28:44Z</time>
      </trkpt>
      <trkpt lat="44.56172" lon="2.67387">
        <ele>343</ele>
        <time>2012-06-11T07:28:45Z</time>
      </trkpt>
      <trkpt lat="44.56171" lon="2.67389">
        <ele>343</ele>
        <time>2012-06-11T07:28:46Z</time>
      </trkpt>
      <trkpt lat="44.56171" lon="2.6739">
        <ele>343</ele>
        <time>2012-06-11T07:28:47Z</time>
      </trkpt>
      <trkpt lat="44.5617" lon="2.67392">
        <ele>343</ele>
        <time>2012-06-11T07:28:48Z</time>
      </trkpt>
      <trkpt lat="44.56169" lon="2.67394">
        <ele>343</ele>
        <time>2012-06-11T07:28:49Z</time>
      </trkpt>
      <trkpt lat="44.56168" lon="2.67395">
        <ele>343</ele>
        <time>2012-06-11T07:28:50Z</time>
      </trkpt>
      <trkpt lat="44.56168" lon="2.67397">
        <ele>343</ele>
        <time>2012-06-11T07:28:51Z</time>
      </trkpt>
      <trkpt lat="44.56167" lon="2.67399">
        <ele>343</ele>
        <time>2012-06-11T07:28:52Z</time>
      </trkpt>
      <trkpt lat="44.56166" lon="2.67401">
        <ele>343</ele>
        <time>2012-06-11T07:28:53Z</time>
      </trkpt>
      <trkpt lat="44.56165" lon="2.67402">
        <ele>343</ele>
        <time>2012-06-11T07:28:54Z</time>
      </trkpt>
      <trkpt lat="44.56165" lon="2.67404">
        <ele>343</ele>
        <time>2012-06-11T07:28:55Z</time>
      </trkpt>
      <trkpt lat="44.56165" lon="2.67405">
        <ele>343</ele>
        <time>2012-06-11T07:28:56Z</time>
      </trkpt>
      <trkpt lat="44.56164" lon="2.67407">
        <ele>343</ele>
        <time>2012-06-11T07:28:57Z</time>
      </trkpt>
      <trkpt lat="44.56163" lon="2.67409">
        <ele>343</ele>
        <time>2012-06-11T07:28:58Z</time>
      </trkpt>
      <trkpt lat="44.56162" lon="2.6741">
        <ele>343</ele>
        <time>2012-06-11T07:28:59Z</time>
      </trkpt>
      <trkpt lat="44.56162" lon="2.67412">
        <ele>343</ele>
        <time>2012-06-11T07:29:00Z</time>
      </trkpt>
      <trkpt lat="44.56161" lon="2.67414">
        <ele>343</ele>
        <time>2012-06-11T07:29:01Z</time>
      </trkpt>
      <trkpt lat="44.5616" lon="2.67415">
        <ele>343</ele>
        <time>2012-06-11T07:29:02Z</time>
      </trkpt>
      <trkpt lat="44.5616" lon="2.67417">
        <ele>343</ele>
        <time>2012-06-11T07:29:03Z</time>
      </trkpt>
      <trkpt lat="44.56159" lon="2.67419">
        <ele>343</ele>
        <time>2012-06-11T07:29:04Z</time>
      </trkpt>
      <trkpt lat="44.56158" lon="2.67421">
        <ele>343</ele>
        <time>2012-06-11T07:29:05Z</time>
      </trkpt>
      <trkpt lat="44.56158" lon="2.67423">
        <ele>343</ele>
        <time>2012-06-11T07:29:06Z</time>
      </trkpt>
      <trkpt lat="44.56157" lon="2.67424">
        <ele>343</ele>
        <time>2012-06-11T07:29:07Z</time>
      </trkpt>
      <trkpt lat="44.56157" lon="2.67426">
        <ele>343</ele>
        <time>2012-06-11T07:29:08Z</time>
      </trkpt>
      <trkpt lat="44.56156" lon="2.67427">
        <ele>343</ele>
        <time>2012-06-11T07:29:09Z</time>
      </trkpt>
      <trkpt lat="44.56155" lon="2.67429">
        <ele>343</ele>
        <time>2012-06-11T07:29:10Z</time>
      </trkpt>
      <trkpt lat="44.56155" lon="2.67431">
        <ele>343</ele>
        <time>2012-06-11T07:29:11Z</time>
      </trkpt>
      <trkpt lat="44.56154" lon="2.67432">
        <ele>343</ele>
        <time>2012-06-11T07:29:12Z</time>
      </trkpt>
      <trkpt lat="44.56153" lon="2.67434">
        <ele>343</ele>
        <time>2012-06-11T07:29:13Z</time>
      </trkpt>
      <trkpt lat="44.56153" lon="2.67436">
        <ele>343</ele>
        <time>2012-06-11T07:29:14Z</time>
      </trkpt>
      <trkpt lat="44.56152" lon="2.67438">
        <ele>343</ele>
        <time>2012-06-11T07:29:15Z</time>
      </trkpt>
      <trkpt lat="44.56152" lon="2.6744">
        <ele>343</ele>
        <time>2012-06-11T07:29:16Z</time>
      </trkpt>
      <trkpt lat="44.56152" lon="2.67442">
        <ele>343</ele>
        <time>2012-06-11T07:29:17Z</time>
      </trkpt>
      <trkpt lat="44.56151" lon="2.67443">
        <ele>343</ele>
        <time>2012-06-11T07:29:18Z</time>
      </trkpt>
      <trkpt lat="44.5615" lon="2.67447">
        <ele>343</ele>
        <time>2012-06-11T07:29:20Z</time>
      </trkpt>
      <trkpt lat="44.5615" lon="2.67449">
        <ele>343</ele>
        <time>2012-06-11T07:29:21Z</time>
      </trkpt>
      <trkpt lat="44.56149" lon="2.6745">
        <ele>343</ele>
        <time>2012-06-11T07:29:22Z</time>
      </trkpt>
      <trkpt lat="44.56149" lon="2.67452">
        <ele>343</ele>
        <time>2012-06-11T07:29:23Z</time>
      </trkpt>
      <trkpt lat="44.56148" lon="2.67454">
        <ele>343</ele>
        <time>2012-06-11T07:29:24Z</time>
      </trkpt>
      <trkpt lat="44.56148" lon="2.67456">
        <ele>343</ele>
        <time>2012-06-11T07:29:25Z</time>
      </trkpt>
      <trkpt lat="44.56147" lon="2.67457">
        <ele>343</ele>
        <time>2012-06-11T07:29:26Z</time>
      </trkpt>
      <trkpt lat="44.56147" lon="2.67459">
        <ele>343</ele>
        <time>2012-06-11T07:29:27Z</time>
      </trkpt>
      <trkpt lat="44.56146" lon="2.67461">
        <ele>343</ele>
        <time>2012-06-11T07:29:28Z</time>
      </trkpt>
      <trkpt lat="44.56145" lon="2.67463">
        <ele>343</ele>
        <time>2012-06-11T07:29:29Z</time>
      </trkpt>
      <trkpt lat="44.56145" lon="2.67465">
        <ele>343</ele>
        <time>2012-06-11T07:29:30Z</time>
      </trkpt>
      <trkpt lat="44.56144" lon="2.67467">
        <ele>343</ele>
        <time>2012-06-11T07:29:31Z</time>
      </trkpt>
      <trkpt lat="44.56144" lon="2.67468">
        <ele>343</ele>
        <time>2012-06-11T07:29:32Z</time>
      </trkpt>
      <trkpt lat="44.56144" lon="2.6747">
        <ele>343</ele>
        <time>2012-06-11T07:29:33Z</time>
      </trkpt>
      <trkpt lat="44.56143" lon="2.67472">
        <ele>343</ele>
        <time>2012-06-11T07:29:34Z</time>
      </trkpt>
      <trkpt lat="44.56143" lon="2.67474">
        <ele>343</ele>
        <time>2012-06-11T07:29:35Z</time>
      </trkpt>
      <trkpt lat="44.56142" lon="2.67476">
        <ele>343</ele>
        <time>2012-06-11T07:29:36Z</time>
      </trkpt>
      <trkpt lat="44.56142" lon="2.67477">
        <ele>343</ele>
        <time>2012-06-11T07:29:37Z</time>
      </trkpt>
      <trkpt lat="44.56141" lon="2.67479">
        <ele>343</ele>
        <time>2012-06-11T07:29:38Z</time>
      </trkpt>
      <trkpt lat="44.56141" lon="2.67481">
        <ele>343</ele>
        <time>2012-06-11T07:29:39Z</time>
      </trkpt>
      <trkpt lat="44.5614" lon="2.67483">
        <ele>343</ele>
        <time>2012-06-11T07:29:40Z</time>
      </trkpt>
      <trkpt lat="44.56139" lon="2.67485">
        <ele>343</ele>
        <time>2012-06-11T07:29:41Z</time>
      </trkpt>
      <trkpt lat="44.56139" lon="2.67486">
        <ele>343</ele>
        <time>2012-06-11T07:29:42Z</time>
      </trkpt>
      <trkpt lat="44.56139" lon="2.67488">
        <ele>343</ele>
        <time>2012-06-11T07:29:43Z</time>
      </trkpt>
      <trkpt lat="44.56138" lon="2.6749">
        <ele>343</ele>
        <time>2012-06-11T07:29:44Z</time>
      </trkpt>
      <trkpt lat="44.56138" lon="2.67492">
        <ele>343</ele>
        <time>2012-06-11T07:29:45Z</time>
      </trkpt>
      <trkpt lat="44.56137" lon="2.67494">
        <ele>343</ele>
        <time>2012-06-11T07:29:46Z</time>
      </trkpt>
      <trkpt lat="44.56137" lon="2.67495">
        <ele>343</ele>
        <time>2012-06-11T07:29:47Z</time>
      </trkpt>
      <trkpt lat="44.56136" lon="2.67499">
        <ele>343</ele>
        <time>2012-06-11T07:29:55Z</time>
      </trkpt>
      <trkpt lat="44.56135" lon="2.67501">
        <ele>343</ele>
        <time>2012-06-11T07:29:56Z</time>
      </trkpt>
      <trkpt lat="44.56135" lon="2.67503">
        <ele>343</ele>
        <time>2012-06-11T07:29:57Z</time>
      </trkpt>
      <trkpt lat="44.56134" lon="2.67505">
        <ele>343</ele>
        <time>2012-06-11T07:29:58Z</time>
      </trkpt>
      <trkpt lat="44.56134" lon="2.67506">
        <ele>343</ele>
        <time>2012-06-11T07:29:59Z</time>
      </trkpt>
      <trkpt lat="44.56133" lon="2.67508">
        <ele>343</ele>
        <time>2012-06-11T07:30:00Z</time>
      </trkpt>
      <trkpt lat="44.56133" lon="2.6751">
        <ele>343</ele>
        <time>2012-06-11T07:30:01Z</time>
      </trkpt>
      <trkpt lat="44.56132" lon="2.67512">
        <ele>343</ele>
        <time>2012-06-11T07:30:02Z</time>
      </trkpt>
      <trkpt lat="44.56132" lon="2.67514">
        <ele>343</ele>
        <time>2012-06-11T07:30:03Z</time>
      </trkpt>
      <trkpt lat="44.56131" lon="2.67516">
        <ele>343</ele>
        <time>2012-06-11T07:30:04Z</time>
      </trkpt>
      <trkpt lat="44.56131" lon="2.67517">
        <ele>343</ele>
        <time>2012-06-11T07:30:05Z</time>
      </trkpt>
      <trkpt lat="44.56131" lon="2.67519">
        <ele>343</ele>
        <time>2012-06-11T07:30:06Z</time>
      </trkpt>
      <trkpt lat="44.5613" lon="2.67521">
        <ele>343</ele>
        <time>2012-06-11T07:30:07Z</time>
      </trkpt>
      <trkpt lat="44.56129" lon="2.67523">
        <ele>343</ele>
        <time>2012-06-11T07:30:08Z</time>
      </trkpt>
      <trkpt lat="44.56128" lon="2.67525">
        <ele>343</ele>
        <time>2012-06-11T07:30:09Z</time>
      </trkpt>
      <trkpt lat="44.56128" lon="2.67526">
        <ele>343</ele>
        <time>2012-06-11T07:30:10Z</time>
      </trkpt>
      <trkpt lat="44.56128" lon="2.67528">
        <ele>343</ele>
        <time>2012-06-11T07:30:11Z</time>
      </trkpt>
      <trkpt lat="44.56127" lon="2.6753">
        <ele>343</ele>
        <time>2012-06-11T07:30:12Z</time>
      </trkpt>
      <trkpt lat="44.56126" lon="2.67533">
        <ele>343</ele>
        <time>2012-06-11T07:30:14Z</time>
      </trkpt>
      <trkpt lat="44.56126" lon="2.67535">
        <ele>343</ele>
        <time>2012-06-11T07:30:15Z</time>
      </trkpt>
      <trkpt lat="44.56125" lon="2.67539">
        <ele>343</ele>
        <time>2012-06-11T07:30:17Z</time>
      </trkpt>
      <trkpt lat="44.56125" lon="2.67543">
        <ele>343</ele>
        <time>2012-06-11T07:30:19Z</time>
      </trkpt>
      <trkpt lat="44.56124" lon="2.67545">
        <ele>343</ele>
        <time>2012-06-11T07:30:20Z</time>
      </trkpt>
      <trkpt lat="44.56124" lon="2.67546">
        <ele>343</ele>
        <time>2012-06-11T07:30:21Z</time>
      </trkpt>
      <trkpt lat="44.56123" lon="2.67548">
        <ele>343</ele>
        <time>2012-06-11T07:30:22Z</time>
      </trkpt>
      <trkpt lat="44.56123" lon="2.6755">
        <ele>343</ele>
        <time>2012-06-11T07:30:23Z</time>
      </trkpt>
      <trkpt lat="44.56122" lon="2.67552">
        <ele>343</ele>
        <time>2012-06-11T07:30:24Z</time>
      </trkpt>
      <trkpt lat="44.56122" lon="2.67554">
        <ele>343</ele>
        <time>2012-06-11T07:30:25Z</time>
      </trkpt>
      <trkpt lat="44.56121" lon="2.67556">
        <ele>343</ele>
        <time>2012-06-11T07:30:26Z</time>
      </trkpt>
      <trkpt lat="44.56121" lon="2.67558">
        <ele>343</ele>
        <time>2012-06-11T07:30:27Z</time>
      </trkpt>
      <trkpt lat="44.56121" lon="2.6756">
        <ele>343</ele>
        <time>2012-06-11T07:30:28Z</time>
      </trkpt>
      <trkpt lat="44.5612" lon="2.67562">
        <ele>343</ele>
        <time>2012-06-11T07:30:29Z</time>
      </trkpt>
      <trkpt lat="44.5612" lon="2.67565">
        <ele>343</ele>
        <time>2012-06-11T07:30:31Z</time>
      </trkpt>
      <trkpt lat="44.5612" lon="2.67566">
        <ele>343</ele>
        <time>2012-06-11T07:30:32Z</time>
      </trkpt>
      <trkpt lat="44.56119" lon="2.67569">
        <ele>343</ele>
        <time>2012-06-11T07:30:34Z</time>
      </trkpt>
      <trkpt lat="44.56119" lon="2.67573">
        <ele>343</ele>
        <time>2012-06-11T07:30:36Z</time>
      </trkpt>
      <trkpt lat="44.56118" lon="2.67575">
        <ele>343</ele>
        <time>2012-06-11T07:30:37Z</time>
      </trkpt>
      <trkpt lat="44.56118" lon="2.67578">
        <ele>343</ele>
        <time>2012-06-11T07:30:39Z</time>
      </trkpt>
      <trkpt lat="44.56118" lon="2.6758">
        <ele>343</ele>
        <time>2012-06-11T07:30:40Z</time>
      </trkpt>
      <trkpt lat="44.56117" lon="2.67587">
        <ele>343</ele>
        <time>2012-06-11T07:30:45Z</time>
      </trkpt>
      <trkpt lat="44.56117" lon="2.67591">
        <ele>343</ele>
        <time>2012-06-11T07:30:47Z</time>
      </trkpt>
      <trkpt lat="44.56117" lon="2.67618">
        <ele>343</ele>
        <time>2012-06-11T07:31:01Z</time>
      </trkpt>
      <trkpt lat="44.56118" lon="2.67622">
        <ele>343</ele>
        <time>2012-06-11T07:31:03Z</time>
      </trkpt>
      <trkpt lat="44.56118" lon="2.67624">
        <ele>343</ele>
        <time>2012-06-11T07:31:04Z</time>
      </trkpt>
      <trkpt lat="44.56118" lon="2.67627">
        <ele>343</ele>
        <time>2012-06-11T07:31:06Z</time>
      </trkpt>
      <trkpt lat="44.56119" lon="2.67629">
        <ele>343</ele>
        <time>2012-06-11T07:31:07Z</time>
      </trkpt>
      <trkpt lat="44.56119" lon="2.67632">
        <ele>343</ele>
        <time>2012-06-11T07:31:09Z</time>
      </trkpt>
      <trkpt lat="44.5612" lon="2.67636">
        <ele>343</ele>
        <time>2012-06-11T07:31:11Z</time>
      </trkpt>
      <trkpt lat="44.5612" lon="2.6764">
        <ele>343</ele>
        <time>2012-06-11T07:31:14Z</time>
      </trkpt>
      <trkpt lat="44.56121" lon="2.67645">
        <ele>343</ele>
        <time>2012-06-11T07:31:22Z</time>
      </trkpt>
      <trkpt lat="44.56121" lon="2.67646">
        <ele>343</ele>
        <time>2012-06-11T07:31:23Z</time>
      </trkpt>
      <trkpt lat="44.56122" lon="2.67648">
        <ele>343</ele>
        <time>2012-06-11T07:31:24Z</time>
      </trkpt>
      <trkpt lat="44.56122" lon="2.6765">
        <ele>343</ele>
        <time>2012-06-11T07:31:25Z</time>
      </trkpt>
      <trkpt lat="44.56123" lon="2.67651">
        <ele>343</ele>
        <time>2012-06-11T07:31:26Z</time>
      </trkpt>
      <trkpt lat="44.56123" lon="2.67653">
        <ele>343</ele>
        <time>2012-06-11T07:31:27Z</time>
      </trkpt>
      <trkpt lat="44.56123" lon="2.67654">
        <ele>343</ele>
        <time>2012-06-11T07:31:28Z</time>
      </trkpt>
      <trkpt lat="44.56124" lon="2.67656">
        <ele>343</ele>
        <time>2012-06-11T07:31:29Z</time>
      </trkpt>
      <trkpt lat="44.56125" lon="2.67658">
        <ele>343</ele>
        <time>2012-06-11T07:31:30Z</time>
      </trkpt>
      <trkpt lat="44.56125" lon="2.6766">
        <ele>343</ele>
        <time>2012-06-11T07:31:31Z</time>
      </trkpt>
      <trkpt lat="44.56126" lon="2.67662">
        <ele>343</ele>
        <time>2012-06-11T07:31:32Z</time>
      </trkpt>
      <trkpt lat="44.56126" lon="2.67664">
        <ele>343</ele>
        <time>2012-06-11T07:31:33Z</time>
      </trkpt>
      <trkpt lat="44.56127" lon="2.67665">
        <ele>343</ele>
        <time>2012-06-11T07:31:34Z</time>
      </trkpt>
      <trkpt lat="44.56127" lon="2.67667">
        <ele>343</ele>
        <time>2012-06-11T07:31:35Z</time>
      </trkpt>
      <trkpt lat="44.56128" lon="2.67669">
        <ele>343</ele>
        <time>2012-06-11T07:31:36Z</time>
      </trkpt>
      <trkpt lat="44.56128" lon="2.67671">
        <ele>343</ele>
        <time>2012-06-11T07:31:37Z</time>
      </trkpt>
      <trkpt lat="44.56129" lon="2.67672">
        <ele>343</ele>
        <time>2012-06-11T07:31:38Z</time>
      </trkpt>
      <trkpt lat="44.56131" lon="2.67675">
        <ele>342</ele>
        <time>2012-06-11T07:31:40Z</time>
      </trkpt>
      <trkpt lat="44.56133" lon="2.67678">
        <ele>342</ele>
        <time>2012-06-11T07:31:42Z</time>
      </trkpt>
      <trkpt lat="44.56134" lon="2.67679">
        <ele>342</ele>
        <time>2012-06-11T07:31:43Z</time>
      </trkpt>
      <trkpt lat="44.56134" lon="2.67681">
        <ele>342</ele>
        <time>2012-06-11T07:31:44Z</time>
      </trkpt>
      <trkpt lat="44.56135" lon="2.67683">
        <ele>342</ele>
        <time>2012-06-11T07:31:45Z</time>
      </trkpt>
      <trkpt lat="44.56137" lon="2.67685">
        <ele>342</ele>
        <time>2012-06-11T07:31:47Z</time>
      </trkpt>
      <trkpt lat="44.56139" lon="2.67688">
        <ele>342</ele>
        <time>2012-06-11T07:31:49Z</time>
      </trkpt>
      <trkpt lat="44.5614" lon="2.6769">
        <ele>342</ele>
        <time>2012-06-11T07:31:51Z</time>
      </trkpt>
      <trkpt lat="44.56142" lon="2.67693">
        <ele>342</ele>
        <time>2012-06-11T07:31:53Z</time>
      </trkpt>
      <trkpt lat="44.56144" lon="2.67696">
        <ele>342</ele>
        <time>2012-06-11T07:31:55Z</time>
      </trkpt>
      <trkpt lat="44.56144" lon="2.67698">
        <ele>342</ele>
        <time>2012-06-11T07:31:56Z</time>
      </trkpt>
      <trkpt lat="44.56145" lon="2.677">
        <ele>342</ele>
        <time>2012-06-11T07:31:57Z</time>
      </trkpt>
      <trkpt lat="44.56146" lon="2.67701">
        <ele>342</ele>
        <time>2012-06-11T07:31:58Z</time>
      </trkpt>
      <trkpt lat="44.56148" lon="2.67704">
        <ele>342</ele>
        <time>2012-06-11T07:32:00Z</time>
      </trkpt>
      <trkpt lat="44.5615" lon="2.67706">
        <ele>342</ele>
        <time>2012-06-11T07:32:02Z</time>
      </trkpt>
      <trkpt lat="44.56151" lon="2.67708">
        <ele>342</ele>
        <time>2012-06-11T07:32:03Z</time>
      </trkpt>
      <trkpt lat="44.56152" lon="2.67709">
        <ele>342</ele>
        <time>2012-06-11T07:32:04Z</time>
      </trkpt>
      <trkpt lat="44.56152" lon="2.67711">
        <ele>342</ele>
        <time>2012-06-11T07:32:05Z</time>
      </trkpt>
      <trkpt lat="44.56153" lon="2.67712">
        <ele>342</ele>
        <time>2012-06-11T07:32:06Z</time>
      </trkpt>
      <trkpt lat="44.56155" lon="2.67714">
        <ele>342</ele>
        <time>2012-06-11T07:32:07Z</time>
      </trkpt>
      <trkpt lat="44.56155" lon="2.67715">
        <ele>342</ele>
        <time>2012-06-11T07:32:08Z</time>
      </trkpt>
      <trkpt lat="44.56156" lon="2.67717">
        <ele>342</ele>
        <time>2012-06-11T07:32:09Z</time>
      </trkpt>
      <trkpt lat="44.56157" lon="2.67719">
        <ele>342</ele>
        <time>2012-06-11T07:32:11Z</time>
      </trkpt>
      <trkpt lat="44.56159" lon="2.67722">
        <ele>342</ele>
        <time>2012-06-11T07:32:13Z</time>
      </trkpt>
      <trkpt lat="44.56161" lon="2.67724">
        <ele>342</ele>
        <time>2012-06-11T07:32:15Z</time>
      </trkpt>
      <trkpt lat="44.56162" lon="2.67726">
        <ele>342</ele>
        <time>2012-06-11T07:32:16Z</time>
      </trkpt>
      <trkpt lat="44.56162" lon="2.67728">
        <ele>342</ele>
        <time>2012-06-11T07:32:17Z</time>
      </trkpt>
      <trkpt lat="44.56163" lon="2.6773">
        <ele>342</ele>
        <time>2012-06-11T07:32:18Z</time>
      </trkpt>
      <trkpt lat="44.56165" lon="2.67732">
        <ele>342</ele>
        <time>2012-06-11T07:32:20Z</time>
      </trkpt>
      <trkpt lat="44.56166" lon="2.67735">
        <ele>342</ele>
        <time>2012-06-11T07:32:22Z</time>
      </trkpt>
      <trkpt lat="44.56168" lon="2.67737">
        <ele>342</ele>
        <time>2012-06-11T07:32:24Z</time>
      </trkpt>
      <trkpt lat="44.56168" lon="2.67739">
        <ele>342</ele>
        <time>2012-06-11T07:32:25Z</time>
      </trkpt>
      <trkpt lat="44.56169" lon="2.6774">
        <ele>342</ele>
        <time>2012-06-11T07:32:26Z</time>
      </trkpt>
      <trkpt lat="44.56171" lon="2.67743">
        <ele>342</ele>
        <time>2012-06-11T07:32:28Z</time>
      </trkpt>
      <trkpt lat="44.56172" lon="2.67745">
        <ele>342</ele>
        <time>2012-06-11T07:32:30Z</time>
      </trkpt>
      <trkpt lat="44.56173" lon="2.67748">
        <ele>342</ele>
        <time>2012-06-11T07:32:32Z</time>
      </trkpt>
      <trkpt lat="44.56174" lon="2.67748">
        <ele>342</ele>
        <time>2012-06-11T07:32:37Z</time>
      </trkpt>
      <trkpt lat="44.56176" lon="2.67747">
        <ele>342</ele>
        <time>2012-06-11T07:32:41Z</time>
      </trkpt>
      <trkpt lat="44.56172" lon="2.67752">
        <ele>342</ele>
        <time>2012-06-11T07:32:46Z</time>
      </trkpt>
      <trkpt lat="44.56173" lon="2.6775">
        <ele>343</ele>
        <time>2012-06-11T07:32:58Z</time>
      </trkpt>
      <trkpt lat="44.56174" lon="2.67749">
        <ele>343</ele>
        <time>2012-06-11T07:33:02Z</time>
      </trkpt>
      <trkpt lat="44.56175" lon="2.6775">
        <ele>343</ele>
        <time>2012-06-11T07:33:04Z</time>
      </trkpt>
      <trkpt lat="44.56177" lon="2.67751">
        <ele>343</ele>
        <time>2012-06-11T07:33:17Z</time>
      </trkpt>
      <trkpt lat="44.56177" lon="2.67752">
        <ele>343</ele>
        <time>2012-06-11T07:33:29Z</time>
      </trkpt>
      <trkpt lat="44.56179" lon="2.67751">
        <ele>343</ele>
        <time>2012-06-11T07:33:36Z</time>
      </trkpt>
      <trkpt lat="44.5618" lon="2.6775">
        <ele>343</ele>
        <time>2012-06-11T07:33:37Z</time>
      </trkpt>
      <trkpt lat="44.5618" lon="2.67748">
        <ele>343</ele>
        <time>2012-06-11T07:33:38Z</time>
      </trkpt>
      <trkpt lat="44.56181" lon="2.67746">
        <ele>343</ele>
        <time>2012-06-11T07:33:39Z</time>
      </trkpt>
      <trkpt lat="44.56181" lon="2.67744">
        <ele>343</ele>
        <time>2012-06-11T07:33:40Z</time>
      </trkpt>
      <trkpt lat="44.56181" lon="2.67736">
        <ele>343</ele>
        <time>2012-06-11T07:33:44Z</time>
      </trkpt>
      <trkpt lat="44.56182" lon="2.67734">
        <ele>343</ele>
        <time>2012-06-11T07:33:45Z</time>
      </trkpt>
      <trkpt lat="44.56182" lon="2.67732">
        <ele>343</ele>
        <time>2012-06-11T07:33:46Z</time>
      </trkpt>
      <trkpt lat="44.56183" lon="2.6773">
        <ele>343</ele>
        <time>2012-06-11T07:33:47Z</time>
      </trkpt>
      <trkpt lat="44.56184" lon="2.67728">
        <ele>343</ele>
        <time>2012-06-11T07:33:48Z</time>
      </trkpt>
      <trkpt lat="44.56184" lon="2.67727">
        <ele>343</ele>
        <time>2012-06-11T07:33:49Z</time>
      </trkpt>
      <trkpt lat="44.56185" lon="2.67724">
        <ele>343</ele>
        <time>2012-06-11T07:33:51Z</time>
      </trkpt>
      <trkpt lat="44.56187" lon="2.67723">
        <ele>343</ele>
        <time>2012-06-11T07:33:53Z</time>
      </trkpt>
      <trkpt lat="44.56189" lon="2.67723">
        <ele>343</ele>
        <time>2012-06-11T07:33:54Z</time>
      </trkpt>
      <trkpt lat="44.5619" lon="2.67722">
        <ele>343</ele>
        <time>2012-06-11T07:33:55Z</time>
      </trkpt>
      <trkpt lat="44.56192" lon="2.67721">
        <ele>343</ele>
        <time>2012-06-11T07:33:56Z</time>
      </trkpt>
      <trkpt lat="44.56193" lon="2.67721">
        <ele>343</ele>
        <time>2012-06-11T07:33:57Z</time>
      </trkpt>
      <trkpt lat="44.56195" lon="2.67723">
        <ele>344</ele>
        <time>2012-06-11T07:33:59Z</time>
      </trkpt>
      <trkpt lat="44.56197" lon="2.67724">
        <ele>344</ele>
        <time>2012-06-11T07:34:01Z</time>
      </trkpt>
      <trkpt lat="44.56198" lon="2.67725">
        <ele>344</ele>
        <time>2012-06-11T07:34:02Z</time>
      </trkpt>
      <trkpt lat="44.56199" lon="2.67726">
        <ele>344</ele>
        <time>2012-06-11T07:34:03Z</time>
      </trkpt>
      <trkpt lat="44.562" lon="2.67727">
        <ele>344</ele>
        <time>2012-06-11T07:34:04Z</time>
      </trkpt>
      <trkpt lat="44.56202" lon="2.67729">
        <ele>344</ele>
        <time>2012-06-11T07:34:06Z</time>
      </trkpt>
      <trkpt lat="44.56204" lon="2.67732">
        <ele>345</ele>
        <time>2012-06-11T07:34:08Z</time>
      </trkpt>
      <trkpt lat="44.56205" lon="2.67733">
        <ele>345</ele>
        <time>2012-06-11T07:34:09Z</time>
      </trkpt>
      <trkpt lat="44.56207" lon="2.67734">
        <ele>345</ele>
        <time>2012-06-11T07:34:10Z</time>
      </trkpt>
      <trkpt lat="44.56208" lon="2.67735">
        <ele>345</ele>
        <time>2012-06-11T07:34:11Z</time>
      </trkpt>
      <trkpt lat="44.56209" lon="2.67736">
        <ele>345</ele>
        <time>2012-06-11T07:34:12Z</time>
      </trkpt>
      <trkpt lat="44.56211" lon="2.67736">
        <ele>345</ele>
        <time>2012-06-11T07:34:13Z</time>
      </trkpt>
      <trkpt lat="44.56212" lon="2.67736">
        <ele>345</ele>
        <time>2012-06-11T07:34:14Z</time>
      </trkpt>
      <trkpt lat="44.56214" lon="2.67736">
        <ele>345</ele>
        <time>2012-06-11T07:34:15Z</time>
      </trkpt>
      <trkpt lat="44.56215" lon="2.67738">
        <ele>345</ele>
        <time>2012-06-11T07:34:16Z</time>
      </trkpt>
      <trkpt lat="44.56216" lon="2.67739">
        <ele>345</ele>
        <time>2012-06-11T07:34:17Z</time>
      </trkpt>
      <trkpt lat="44.56217" lon="2.6774">
        <ele>345</ele>
        <time>2012-06-11T07:34:18Z</time>
      </trkpt>
      <trkpt lat="44.56218" lon="2.67742">
        <ele>345</ele>
        <time>2012-06-11T07:34:19Z</time>
      </trkpt>
      <trkpt lat="44.56219" lon="2.67743">
        <ele>345</ele>
        <time>2012-06-11T07:34:20Z</time>
      </trkpt>
      <trkpt lat="44.56221" lon="2.67743">
        <ele>345</ele>
        <time>2012-06-11T07:34:21Z</time>
      </trkpt>
      <trkpt lat="44.56223" lon="2.67744">
        <ele>345</ele>
        <time>2012-06-11T07:34:22Z</time>
      </trkpt>
      <trkpt lat="44.56224" lon="2.67744">
        <ele>345</ele>
        <time>2012-06-11T07:34:23Z</time>
      </trkpt>
      <trkpt lat="44.56226" lon="2.67745">
        <ele>345</ele>
        <time>2012-06-11T07:34:24Z</time>
      </trkpt>
      <trkpt lat="44.56227" lon="2.67746">
        <ele>345</ele>
        <time>2012-06-11T07:34:25Z</time>
      </trkpt>
      <trkpt lat="44.56228" lon="2.67747">
        <ele>345</ele>
        <time>2012-06-11T07:34:26Z</time>
      </trkpt>
      <trkpt lat="44.56229" lon="2.67747">
        <ele>345</ele>
        <time>2012-06-11T07:34:27Z</time>
      </trkpt>
      <trkpt lat="44.56231" lon="2.67749">
        <ele>345</ele>
        <time>2012-06-11T07:34:28Z</time>
      </trkpt>
      <trkpt lat="44.56232" lon="2.67749">
        <ele>345</ele>
        <time>2012-06-11T07:34:29Z</time>
      </trkpt>
      <trkpt lat="44.56233" lon="2.6775">
        <ele>345</ele>
        <time>2012-06-11T07:34:30Z</time>
      </trkpt>
      <trkpt lat="44.56234" lon="2.6775">
        <ele>345</ele>
        <time>2012-06-11T07:34:31Z</time>
      </trkpt>
      <trkpt lat="44.56236" lon="2.67751">
        <ele>345</ele>
        <time>2012-06-11T07:34:32Z</time>
      </trkpt>
      <trkpt lat="44.56237" lon="2.67751">
        <ele>345</ele>
        <time>2012-06-11T07:34:33Z</time>
      </trkpt>
      <trkpt lat="44.56239" lon="2.67752">
        <ele>345</ele>
        <time>2012-06-11T07:34:34Z</time>
      </trkpt>
      <trkpt lat="44.5624" lon="2.67753">
        <ele>345</ele>
        <time>2012-06-11T07:34:35Z</time>
      </trkpt>
      <trkpt lat="44.56241" lon="2.67754">
        <ele>345</ele>
        <time>2012-06-11T07:34:36Z</time>
      </trkpt>
      <trkpt lat="44.56242" lon="2.67755">
        <ele>345</ele>
        <time>2012-06-11T07:34:37Z</time>
      </trkpt>
      <trkpt lat="44.56244" lon="2.67757">
        <ele>345</ele>
        <time>2012-06-11T07:34:39Z</time>
      </trkpt>
      <trkpt lat="44.56245" lon="2.67758">
        <ele>345</ele>
        <time>2012-06-11T07:34:46Z</time>
      </trkpt>
      <trkpt lat="44.56246" lon="2.67761">
        <ele>345</ele>
        <time>2012-06-11T07:34:58Z</time>
      </trkpt>
      <trkpt lat="44.56247" lon="2.67761">
        <ele>345</ele>
        <time>2012-06-11T07:35:00Z</time>
      </trkpt>
      <trkpt lat="44.5625" lon="2.67762">
        <ele>345</ele>
        <time>2012-06-11T07:35:02Z</time>
      </trkpt>
      <trkpt lat="44.56252" lon="2.67763">
        <ele>345</ele>
        <time>2012-06-11T07:35:04Z</time>
      </trkpt>
      <trkpt lat="44.56253" lon="2.67764">
        <ele>345</ele>
        <time>2012-06-11T07:35:06Z</time>
      </trkpt>
      <trkpt lat="44.56255" lon="2.67764">
        <ele>345</ele>
        <time>2012-06-11T07:35:08Z</time>
      </trkpt>
      <trkpt lat="44.56258" lon="2.67765">
        <ele>345</ele>
        <time>2012-06-11T07:35:10Z</time>
      </trkpt>
      <trkpt lat="44.56259" lon="2.67766">
        <ele>345</ele>
        <time>2012-06-11T07:35:11Z</time>
      </trkpt>
      <trkpt lat="44.5626" lon="2.67767">
        <ele>345</ele>
        <time>2012-06-11T07:35:12Z</time>
      </trkpt>
      <trkpt lat="44.56261" lon="2.67768">
        <ele>345</ele>
        <time>2012-06-11T07:35:13Z</time>
      </trkpt>
      <trkpt lat="44.56263" lon="2.67768">
        <ele>345</ele>
        <time>2012-06-11T07:35:14Z</time>
      </trkpt>
      <trkpt lat="44.56264" lon="2.6777">
        <ele>345</ele>
        <time>2012-06-11T07:35:15Z</time>
      </trkpt>
      <trkpt lat="44.56265" lon="2.67771">
        <ele>345</ele>
        <time>2012-06-11T07:35:16Z</time>
      </trkpt>
      <trkpt lat="44.56267" lon="2.67771">
        <ele>345</ele>
        <time>2012-06-11T07:35:18Z</time>
      </trkpt>
      <trkpt lat="44.56268" lon="2.67773">
        <ele>345</ele>
        <time>2012-06-11T07:35:20Z</time>
      </trkpt>
      <trkpt lat="44.5627" lon="2.67773">
        <ele>345</ele>
        <time>2012-06-11T07:35:21Z</time>
      </trkpt>
      <trkpt lat="44.56271" lon="2.67774">
        <ele>346</ele>
        <time>2012-06-11T07:35:22Z</time>
      </trkpt>
      <trkpt lat="44.56273" lon="2.67776">
        <ele>346</ele>
        <time>2012-06-11T07:35:23Z</time>
      </trkpt>
      <trkpt lat="44.56274" lon="2.67776">
        <ele>346</ele>
        <time>2012-06-11T07:35:24Z</time>
      </trkpt>
      <trkpt lat="44.56275" lon="2.67777">
        <ele>346</ele>
        <time>2012-06-11T07:35:25Z</time>
      </trkpt>
      <trkpt lat="44.56276" lon="2.67778">
        <ele>346</ele>
        <time>2012-06-11T07:35:26Z</time>
      </trkpt>
      <trkpt lat="44.56278" lon="2.67779">
        <ele>346</ele>
        <time>2012-06-11T07:35:27Z</time>
      </trkpt>
      <trkpt lat="44.56279" lon="2.6778">
        <ele>346</ele>
        <time>2012-06-11T07:35:28Z</time>
      </trkpt>
      <trkpt lat="44.56281" lon="2.67781">
        <ele>346</ele>
        <time>2012-06-11T07:35:29Z</time>
      </trkpt>
      <trkpt lat="44.56283" lon="2.67784">
        <ele>346</ele>
        <time>2012-06-11T07:35:31Z</time>
      </trkpt>
      <trkpt lat="44.56284" lon="2.67784">
        <ele>346</ele>
        <time>2012-06-11T07:35:32Z</time>
      </trkpt>
      <trkpt lat="44.56285" lon="2.67784">
        <ele>346</ele>
        <time>2012-06-11T07:35:33Z</time>
      </trkpt>
      <trkpt lat="44.56287" lon="2.67786">
        <ele>346</ele>
        <time>2012-06-11T07:35:35Z</time>
      </trkpt>
      <trkpt lat="44.56289" lon="2.67786">
        <ele>346</ele>
        <time>2012-06-11T07:35:36Z</time>
      </trkpt>
      <trkpt lat="44.56291" lon="2.67787">
        <ele>346</ele>
        <time>2012-06-11T07:35:37Z</time>
      </trkpt>
      <trkpt lat="44.56292" lon="2.67787">
        <ele>346</ele>
        <time>2012-06-11T07:35:38Z</time>
      </trkpt>
      <trkpt lat="44.56295" lon="2.67788">
        <ele>345</ele>
        <time>2012-06-11T07:35:40Z</time>
      </trkpt>
      <trkpt lat="44.56297" lon="2.67789">
        <ele>345</ele>
        <time>2012-06-11T07:35:42Z</time>
      </trkpt>
      <trkpt lat="44.56298" lon="2.6779">
        <ele>344</ele>
        <time>2012-06-11T07:35:43Z</time>
      </trkpt>
      <trkpt lat="44.563" lon="2.6779">
        <ele>344</ele>
        <time>2012-06-11T07:35:44Z</time>
      </trkpt>
      <trkpt lat="44.56301" lon="2.67792">
        <ele>343</ele>
        <time>2012-06-11T07:35:46Z</time>
      </trkpt>
      <trkpt lat="44.56303" lon="2.67793">
        <ele>343</ele>
        <time>2012-06-11T07:35:48Z</time>
      </trkpt>
      <trkpt lat="44.56305" lon="2.67794">
        <ele>343</ele>
        <time>2012-06-11T07:35:50Z</time>
      </trkpt>
      <trkpt lat="44.56307" lon="2.67796">
        <ele>343</ele>
        <time>2012-06-11T07:35:52Z</time>
      </trkpt>
      <trkpt lat="44.56309" lon="2.67797">
        <ele>343</ele>
        <time>2012-06-11T07:35:53Z</time>
      </trkpt>
      <trkpt lat="44.56311" lon="2.67796">
        <ele>343</ele>
        <time>2012-06-11T07:35:54Z</time>
      </trkpt>
      <trkpt lat="44.56313" lon="2.67798">
        <ele>342</ele>
        <time>2012-06-11T07:35:56Z</time>
      </trkpt>
      <trkpt lat="44.56316" lon="2.678">
        <ele>342</ele>
        <time>2012-06-11T07:35:58Z</time>
      </trkpt>
      <trkpt lat="44.56317" lon="2.678">
        <ele>341</ele>
        <time>2012-06-11T07:35:59Z</time>
      </trkpt>
      <trkpt lat="44.56319" lon="2.67802">
        <ele>340</ele>
        <time>2012-06-11T07:36:01Z</time>
      </trkpt>
      <trkpt lat="44.56321" lon="2.67803">
        <ele>340</ele>
        <time>2012-06-11T07:36:02Z</time>
      </trkpt>
      <trkpt lat="44.56322" lon="2.67804">
        <ele>340</ele>
        <time>2012-06-11T07:36:03Z</time>
      </trkpt>
      <trkpt lat="44.56323" lon="2.67805">
        <ele>339</ele>
        <time>2012-06-11T07:36:04Z</time>
      </trkpt>
      <trkpt lat="44.56325" lon="2.67806">
        <ele>339</ele>
        <time>2012-06-11T07:36:06Z</time>
      </trkpt>
      <trkpt lat="44.56327" lon="2.67807">
        <ele>339</ele>
        <time>2012-06-11T07:36:07Z</time>
      </trkpt>
      <trkpt lat="44.56328" lon="2.67808">
        <ele>339</ele>
        <time>2012-06-11T07:36:08Z</time>
      </trkpt>
      <trkpt lat="44.5633" lon="2.67809">
        <ele>339</ele>
        <time>2012-06-11T07:36:09Z</time>
      </trkpt>
      <trkpt lat="44.56332" lon="2.67811">
        <ele>339</ele>
        <time>2012-06-11T07:36:10Z</time>
      </trkpt>
      <trkpt lat="44.56335" lon="2.67812">
        <ele>339</ele>
        <time>2012-06-11T07:36:11Z</time>
      </trkpt>
      <trkpt lat="44.56337" lon="2.67815">
        <ele>340</ele>
        <time>2012-06-11T07:36:13Z</time>
      </trkpt>
      <trkpt lat="44.56339" lon="2.67816">
        <ele>341</ele>
        <time>2012-06-11T07:36:15Z</time>
      </trkpt>
      <trkpt lat="44.5634" lon="2.67817">
        <ele>341</ele>
        <time>2012-06-11T07:36:16Z</time>
      </trkpt>
      <trkpt lat="44.56342" lon="2.67818">
        <ele>341</ele>
        <time>2012-06-11T07:36:17Z</time>
      </trkpt>
      <trkpt lat="44.56343" lon="2.67818">
        <ele>341</ele>
        <time>2012-06-11T07:36:18Z</time>
      </trkpt>
      <trkpt lat="44.56344" lon="2.67819">
        <ele>341</ele>
        <time>2012-06-11T07:36:19Z</time>
      </trkpt>
      <trkpt lat="44.56345" lon="2.6782">
        <ele>341</ele>
        <time>2012-06-11T07:36:20Z</time>
      </trkpt>
      <trkpt lat="44.56347" lon="2.67821">
        <ele>341</ele>
        <time>2012-06-11T07:36:21Z</time>
      </trkpt>
      <trkpt lat="44.56349" lon="2.67823">
        <ele>341</ele>
        <time>2012-06-11T07:36:23Z</time>
      </trkpt>
      <trkpt lat="44.5635" lon="2.67824">
        <ele>341</ele>
        <time>2012-06-11T07:36:24Z</time>
      </trkpt>
      <trkpt lat="44.56351" lon="2.67824">
        <ele>341</ele>
        <time>2012-06-11T07:36:25Z</time>
      </trkpt>
      <trkpt lat="44.56354" lon="2.67825">
        <ele>341</ele>
        <time>2012-06-11T07:36:27Z</time>
      </trkpt>
      <trkpt lat="44.56355" lon="2.67827">
        <ele>341</ele>
        <time>2012-06-11T07:36:29Z</time>
      </trkpt>
      <trkpt lat="44.56356" lon="2.67828">
        <ele>341</ele>
        <time>2012-06-11T07:36:30Z</time>
      </trkpt>
      <trkpt lat="44.56359" lon="2.6783">
        <ele>341</ele>
        <time>2012-06-11T07:36:32Z</time>
      </trkpt>
      <trkpt lat="44.5636" lon="2.67831">
        <ele>341</ele>
        <time>2012-06-11T07:36:33Z</time>
      </trkpt>
      <trkpt lat="44.56361" lon="2.67832">
        <ele>341</ele>
        <time>2012-06-11T07:36:34Z</time>
      </trkpt>
      <trkpt lat="44.56363" lon="2.67833">
        <ele>341</ele>
        <time>2012-06-11T07:36:35Z</time>
      </trkpt>
      <trkpt lat="44.56364" lon="2.67834">
        <ele>341</ele>
        <time>2012-06-11T07:36:36Z</time>
      </trkpt>
      <trkpt lat="44.56365" lon="2.67835">
        <ele>341</ele>
        <time>2012-06-11T07:36:37Z</time>
      </trkpt>
      <trkpt lat="44.56366" lon="2.67836">
        <ele>341</ele>
        <time>2012-06-11T07:36:38Z</time>
      </trkpt>
      <trkpt lat="44.56368" lon="2.67837">
        <ele>341</ele>
        <time>2012-06-11T07:36:39Z</time>
      </trkpt>
      <trkpt lat="44.56369" lon="2.67838">
        <ele>341</ele>
        <time>2012-06-11T07:36:40Z</time>
      </trkpt>
      <trkpt lat="44.5637" lon="2.6784">
        <ele>341</ele>
        <time>2012-06-11T07:36:41Z</time>
      </trkpt>
      <trkpt lat="44.56372" lon="2.67842">
        <ele>341</ele>
        <time>2012-06-11T07:36:42Z</time>
      </trkpt>
      <trkpt lat="44.56373" lon="2.67844">
        <ele>341</ele>
        <time>2012-06-11T07:36:43Z</time>
      </trkpt>
      <trkpt lat="44.56375" lon="2.67845">
        <ele>341</ele>
        <time>2012-06-11T07:36:44Z</time>
      </trkpt>
      <trkpt lat="44.56376" lon="2.67846">
        <ele>341</ele>
        <time>2012-06-11T07:36:45Z</time>
      </trkpt>
      <trkpt lat="44.56378" lon="2.67846">
        <ele>341</ele>
        <time>2012-06-11T07:36:46Z</time>
      </trkpt>
      <trkpt lat="44.5638" lon="2.67846">
        <ele>341</ele>
        <time>2012-06-11T07:36:47Z</time>
      </trkpt>
      <trkpt lat="44.56381" lon="2.67846">
        <ele>341</ele>
        <time>2012-06-11T07:36:48Z</time>
      </trkpt>
      <trkpt lat="44.56383" lon="2.67847">
        <ele>341</ele>
        <time>2012-06-11T07:36:49Z</time>
      </trkpt>
      <trkpt lat="44.56384" lon="2.67848">
        <ele>341</ele>
        <time>2012-06-11T07:36:50Z</time>
      </trkpt>
      <trkpt lat="44.56385" lon="2.67848">
        <ele>341</ele>
        <time>2012-06-11T07:36:51Z</time>
      </trkpt>
      <trkpt lat="44.56387" lon="2.67849">
        <ele>341</ele>
        <time>2012-06-11T07:36:52Z</time>
      </trkpt>
      <trkpt lat="44.56388" lon="2.6785">
        <ele>341</ele>
        <time>2012-06-11T07:36:53Z</time>
      </trkpt>
      <trkpt lat="44.5639" lon="2.67851">
        <ele>341</ele>
        <time>2012-06-11T07:36:54Z</time>
      </trkpt>
      <trkpt lat="44.56391" lon="2.67852">
        <ele>341</ele>
        <time>2012-06-11T07:36:55Z</time>
      </trkpt>
      <trkpt lat="44.56393" lon="2.67853">
        <ele>341</ele>
        <time>2012-06-11T07:36:56Z</time>
      </trkpt>
      <trkpt lat="44.56394" lon="2.67854">
        <ele>341</ele>
        <time>2012-06-11T07:36:57Z</time>
      </trkpt>
      <trkpt lat="44.56395" lon="2.67856">
        <ele>341</ele>
        <time>2012-06-11T07:36:58Z</time>
      </trkpt>
      <trkpt lat="44.56397" lon="2.67856">
        <ele>341</ele>
        <time>2012-06-11T07:36:59Z</time>
      </trkpt>
      <trkpt lat="44.56398" lon="2.67857">
        <ele>341</ele>
        <time>2012-06-11T07:37:00Z</time>
      </trkpt>
      <trkpt lat="44.564" lon="2.67857">
        <ele>341</ele>
        <time>2012-06-11T07:37:01Z</time>
      </trkpt>
      <trkpt lat="44.56401" lon="2.67857">
        <ele>342</ele>
        <time>2012-06-11T07:37:02Z</time>
      </trkpt>
      <trkpt lat="44.56403" lon="2.67858">
        <ele>342</ele>
        <time>2012-06-11T07:37:03Z</time>
      </trkpt>
      <trkpt lat="44.56405" lon="2.67859">
        <ele>342</ele>
        <time>2012-06-11T07:37:04Z</time>
      </trkpt>
      <trkpt lat="44.56406" lon="2.67859">
        <ele>342</ele>
        <time>2012-06-11T07:37:05Z</time>
      </trkpt>
      <trkpt lat="44.56408" lon="2.6786">
        <ele>342</ele>
        <time>2012-06-11T07:37:06Z</time>
      </trkpt>
      <trkpt lat="44.56409" lon="2.6786">
        <ele>342</ele>
        <time>2012-06-11T07:37:07Z</time>
      </trkpt>
      <trkpt lat="44.56411" lon="2.6786">
        <ele>343</ele>
        <time>2012-06-11T07:37:08Z</time>
      </trkpt>
      <trkpt lat="44.56412" lon="2.6786">
        <ele>343</ele>
        <time>2012-06-11T07:37:09Z</time>
      </trkpt>
      <trkpt lat="44.56414" lon="2.67861">
        <ele>343</ele>
        <time>2012-06-11T07:37:10Z</time>
      </trkpt>
      <trkpt lat="44.56415" lon="2.67861">
        <ele>343</ele>
        <time>2012-06-11T07:37:11Z</time>
      </trkpt>
      <trkpt lat="44.56416" lon="2.67862">
        <ele>343</ele>
        <time>2012-06-11T07:37:12Z</time>
      </trkpt>
      <trkpt lat="44.56418" lon="2.67862">
        <ele>343</ele>
        <time>2012-06-11T07:37:13Z</time>
      </trkpt>
      <trkpt lat="44.5642" lon="2.67862">
        <ele>343</ele>
        <time>2012-06-11T07:37:14Z</time>
      </trkpt>
      <trkpt lat="44.56421" lon="2.67862">
        <ele>343</ele>
        <time>2012-06-11T07:37:15Z</time>
      </trkpt>
      <trkpt lat="44.56422" lon="2.67862">
        <ele>343</ele>
        <time>2012-06-11T07:37:16Z</time>
      </trkpt>
      <trkpt lat="44.56424" lon="2.67861">
        <ele>343</ele>
        <time>2012-06-11T07:37:17Z</time>
      </trkpt>
      <trkpt lat="44.56426" lon="2.67862">
        <ele>343</ele>
        <time>2012-06-11T07:37:18Z</time>
      </trkpt>
      <trkpt lat="44.56427" lon="2.67863">
        <ele>343</ele>
        <time>2012-06-11T07:37:19Z</time>
      </trkpt>
      <trkpt lat="44.56428" lon="2.67863">
        <ele>343</ele>
        <time>2012-06-11T07:37:20Z</time>
      </trkpt>
      <trkpt lat="44.56432" lon="2.67863">
        <ele>344</ele>
        <time>2012-06-11T07:37:23Z</time>
      </trkpt>
      <trkpt lat="44.56434" lon="2.67863">
        <ele>344</ele>
        <time>2012-06-11T07:37:24Z</time>
      </trkpt>
      <trkpt lat="44.56435" lon="2.67863">
        <ele>344</ele>
        <time>2012-06-11T07:37:25Z</time>
      </trkpt>
      <trkpt lat="44.56436" lon="2.67863">
        <ele>344</ele>
        <time>2012-06-11T07:37:26Z</time>
      </trkpt>
      <trkpt lat="44.56438" lon="2.67863">
        <ele>344</ele>
        <time>2012-06-11T07:37:27Z</time>
      </trkpt>
      <trkpt lat="44.56439" lon="2.67862">
        <ele>344</ele>
        <time>2012-06-11T07:37:28Z</time>
      </trkpt>
      <trkpt lat="44.56441" lon="2.67862">
        <ele>344</ele>
        <time>2012-06-11T07:37:29Z</time>
      </trkpt>
      <trkpt lat="44.56443" lon="2.67862">
        <ele>344</ele>
        <time>2012-06-11T07:37:31Z</time>
      </trkpt>
      <trkpt lat="44.56445" lon="2.67862">
        <ele>344</ele>
        <time>2012-06-11T07:37:32Z</time>
      </trkpt>
      <trkpt lat="44.56446" lon="2.67862">
        <ele>344</ele>
        <time>2012-06-11T07:37:33Z</time>
      </trkpt>
      <trkpt lat="44.56449" lon="2.67862">
        <ele>344</ele>
        <time>2012-06-11T07:37:35Z</time>
      </trkpt>
      <trkpt lat="44.56451" lon="2.67862">
        <ele>344</ele>
        <time>2012-06-11T07:37:36Z</time>
      </trkpt>
      <trkpt lat="44.56452" lon="2.67861">
        <ele>344</ele>
        <time>2012-06-11T07:37:37Z</time>
      </trkpt>
      <trkpt lat="44.56454" lon="2.67861">
        <ele>344</ele>
        <time>2012-06-11T07:37:38Z</time>
      </trkpt>
      <trkpt lat="44.56455" lon="2.67861">
        <ele>344</ele>
        <time>2012-06-11T07:37:39Z</time>
      </trkpt>
      <trkpt lat="44.56456" lon="2.67861">
        <ele>344</ele>
        <time>2012-06-11T07:37:40Z</time>
      </trkpt>
      <trkpt lat="44.56458" lon="2.6786">
        <ele>344</ele>
        <time>2012-06-11T07:37:41Z</time>
      </trkpt>
      <trkpt lat="44.56459" lon="2.6786">
        <ele>344</ele>
        <time>2012-06-11T07:37:42Z</time>
      </trkpt>
      <trkpt lat="44.56461" lon="2.67859">
        <ele>344</ele>
        <time>2012-06-11T07:37:43Z</time>
      </trkpt>
      <trkpt lat="44.56462" lon="2.67859">
        <ele>344</ele>
        <time>2012-06-11T07:37:44Z</time>
      </trkpt>
      <trkpt lat="44.56463" lon="2.67858">
        <ele>344</ele>
        <time>2012-06-11T07:37:45Z</time>
      </trkpt>
      <trkpt lat="44.56464" lon="2.67857">
        <ele>344</ele>
        <time>2012-06-11T07:37:46Z</time>
      </trkpt>
      <trkpt lat="44.56466" lon="2.67857">
        <ele>344</ele>
        <time>2012-06-11T07:37:47Z</time>
      </trkpt>
      <trkpt lat="44.56467" lon="2.67856">
        <ele>344</ele>
        <time>2012-06-11T07:37:48Z</time>
      </trkpt>
      <trkpt lat="44.56468" lon="2.67855">
        <ele>344</ele>
        <time>2012-06-11T07:37:49Z</time>
      </trkpt>
      <trkpt lat="44.56469" lon="2.67854">
        <ele>344</ele>
        <time>2012-06-11T07:37:50Z</time>
      </trkpt>
      <trkpt lat="44.56471" lon="2.67854">
        <ele>344</ele>
        <time>2012-06-11T07:37:51Z</time>
      </trkpt>
      <trkpt lat="44.56472" lon="2.67852">
        <ele>344</ele>
        <time>2012-06-11T07:37:52Z</time>
      </trkpt>
      <trkpt lat="44.56474" lon="2.67852">
        <ele>344</ele>
        <time>2012-06-11T07:37:53Z</time>
      </trkpt>
      <trkpt lat="44.56476" lon="2.6785">
        <ele>344</ele>
        <time>2012-06-11T07:37:55Z</time>
      </trkpt>
      <trkpt lat="44.56477" lon="2.67849">
        <ele>344</ele>
        <time>2012-06-11T07:37:56Z</time>
      </trkpt>
      <trkpt lat="44.56479" lon="2.67849">
        <ele>344</ele>
        <time>2012-06-11T07:37:57Z</time>
      </trkpt>
      <trkpt lat="44.5648" lon="2.67848">
        <ele>344</ele>
        <time>2012-06-11T07:37:58Z</time>
      </trkpt>
      <trkpt lat="44.56481" lon="2.67847">
        <ele>344</ele>
        <time>2012-06-11T07:37:59Z</time>
      </trkpt>
      <trkpt lat="44.56482" lon="2.67846">
        <ele>344</ele>
        <time>2012-06-11T07:38:00Z</time>
      </trkpt>
      <trkpt lat="44.56483" lon="2.67846">
        <ele>344</ele>
        <time>2012-06-11T07:38:01Z</time>
      </trkpt>
      <trkpt lat="44.56486" lon="2.67844">
        <ele>344</ele>
        <time>2012-06-11T07:38:03Z</time>
      </trkpt>
      <trkpt lat="44.56488" lon="2.67844">
        <ele>344</ele>
        <time>2012-06-11T07:38:04Z</time>
      </trkpt>
      <trkpt lat="44.56489" lon="2.67843">
        <ele>344</ele>
        <time>2012-06-11T07:38:05Z</time>
      </trkpt>
      <trkpt lat="44.56491" lon="2.67843">
        <ele>344</ele>
        <time>2012-06-11T07:38:07Z</time>
      </trkpt>
      <trkpt lat="44.56492" lon="2.67843">
        <ele>344</ele>
        <time>2012-06-11T07:38:08Z</time>
      </trkpt>
      <trkpt lat="44.56494" lon="2.67842">
        <ele>344</ele>
        <time>2012-06-11T07:38:10Z</time>
      </trkpt>
      <trkpt lat="44.56496" lon="2.67842">
        <ele>344</ele>
        <time>2012-06-11T07:38:12Z</time>
      </trkpt>
      <trkpt lat="44.56498" lon="2.6784">
        <ele>344</ele>
        <time>2012-06-11T07:38:13Z</time>
      </trkpt>
      <trkpt lat="44.56499" lon="2.67839">
        <ele>344</ele>
        <time>2012-06-11T07:38:14Z</time>
      </trkpt>
      <trkpt lat="44.565" lon="2.67838">
        <ele>344</ele>
        <time>2012-06-11T07:38:15Z</time>
      </trkpt>
      <trkpt lat="44.56503" lon="2.67837">
        <ele>344</ele>
        <time>2012-06-11T07:38:17Z</time>
      </trkpt>
      <trkpt lat="44.56504" lon="2.67837">
        <ele>344</ele>
        <time>2012-06-11T07:38:19Z</time>
      </trkpt>
      <trkpt lat="44.56506" lon="2.67837">
        <ele>343</ele>
        <time>2012-06-11T07:38:20Z</time>
      </trkpt>
      <trkpt lat="44.56507" lon="2.67836">
        <ele>343</ele>
        <time>2012-06-11T07:38:21Z</time>
      </trkpt>
      <trkpt lat="44.56508" lon="2.67836">
        <ele>343</ele>
        <time>2012-06-11T07:38:22Z</time>
      </trkpt>
      <trkpt lat="44.56509" lon="2.67835">
        <ele>343</ele>
        <time>2012-06-11T07:38:23Z</time>
      </trkpt>
      <trkpt lat="44.56511" lon="2.67835">
        <ele>342</ele>
        <time>2012-06-11T07:38:24Z</time>
      </trkpt>
      <trkpt lat="44.56513" lon="2.67834">
        <ele>342</ele>
        <time>2012-06-11T07:38:25Z</time>
      </trkpt>
      <trkpt lat="44.56514" lon="2.67834">
        <ele>342</ele>
        <time>2012-06-11T07:38:26Z</time>
      </trkpt>
      <trkpt lat="44.56516" lon="2.67833">
        <ele>341</ele>
        <time>2012-06-11T07:38:27Z</time>
      </trkpt>
      <trkpt lat="44.56518" lon="2.67833">
        <ele>341</ele>
        <time>2012-06-11T07:38:28Z</time>
      </trkpt>
      <trkpt lat="44.56519" lon="2.67832">
        <ele>341</ele>
        <time>2012-06-11T07:38:29Z</time>
      </trkpt>
      <trkpt lat="44.5652" lon="2.67832">
        <ele>341</ele>
        <time>2012-06-11T07:38:30Z</time>
      </trkpt>
      <trkpt lat="44.56522" lon="2.67831">
        <ele>341</ele>
        <time>2012-06-11T07:38:31Z</time>
      </trkpt>
      <trkpt lat="44.56524" lon="2.67831">
        <ele>341</ele>
        <time>2012-06-11T07:38:32Z</time>
      </trkpt>
      <trkpt lat="44.56525" lon="2.67831">
        <ele>341</ele>
        <time>2012-06-11T07:38:33Z</time>
      </trkpt>
      <trkpt lat="44.56527" lon="2.6783">
        <ele>340</ele>
        <time>2012-06-11T07:38:34Z</time>
      </trkpt>
      <trkpt lat="44.56528" lon="2.6783">
        <ele>340</ele>
        <time>2012-06-11T07:38:35Z</time>
      </trkpt>
      <trkpt lat="44.56529" lon="2.6783">
        <ele>340</ele>
        <time>2012-06-11T07:38:36Z</time>
      </trkpt>
      <trkpt lat="44.56531" lon="2.67829">
        <ele>340</ele>
        <time>2012-06-11T07:38:37Z</time>
      </trkpt>
      <trkpt lat="44.56532" lon="2.67829">
        <ele>340</ele>
        <time>2012-06-11T07:38:38Z</time>
      </trkpt>
      <trkpt lat="44.56534" lon="2.67829">
        <ele>340</ele>
        <time>2012-06-11T07:38:39Z</time>
      </trkpt>
      <trkpt lat="44.56535" lon="2.67829">
        <ele>340</ele>
        <time>2012-06-11T07:38:40Z</time>
      </trkpt>
      <trkpt lat="44.56537" lon="2.67829">
        <ele>340</ele>
        <time>2012-06-11T07:38:41Z</time>
      </trkpt>
      <trkpt lat="44.56538" lon="2.67828">
        <ele>340</ele>
        <time>2012-06-11T07:38:42Z</time>
      </trkpt>
      <trkpt lat="44.56539" lon="2.67828">
        <ele>340</ele>
        <time>2012-06-11T07:38:43Z</time>
      </trkpt>
      <trkpt lat="44.56541" lon="2.67828">
        <ele>340</ele>
        <time>2012-06-11T07:38:44Z</time>
      </trkpt>
      <trkpt lat="44.56544" lon="2.67829">
        <ele>340</ele>
        <time>2012-06-11T07:38:45Z</time>
      </trkpt>
      <trkpt lat="44.56545" lon="2.67829">
        <ele>340</ele>
        <time>2012-06-11T07:38:46Z</time>
      </trkpt>
      <trkpt lat="44.56547" lon="2.67829">
        <ele>340</ele>
        <time>2012-06-11T07:38:48Z</time>
      </trkpt>
      <trkpt lat="44.56551" lon="2.67829">
        <ele>342</ele>
        <time>2012-06-11T07:38:50Z</time>
      </trkpt>
      <trkpt lat="44.56553" lon="2.67829">
        <ele>342</ele>
        <time>2012-06-11T07:38:52Z</time>
      </trkpt>
      <trkpt lat="44.56555" lon="2.67829">
        <ele>342</ele>
        <time>2012-06-11T07:38:53Z</time>
      </trkpt>
      <trkpt lat="44.56556" lon="2.67829">
        <ele>342</ele>
        <time>2012-06-11T07:38:55Z</time>
      </trkpt>
      <trkpt lat="44.56557" lon="2.67828">
        <ele>342</ele>
        <time>2012-06-11T07:38:55Z</time>
      </trkpt>
      <trkpt lat="44.56559" lon="2.67828">
        <ele>342</ele>
        <time>2012-06-11T07:38:56Z</time>
      </trkpt>
      <trkpt lat="44.5656" lon="2.67828">
        <ele>342</ele>
        <time>2012-06-11T07:38:57Z</time>
      </trkpt>
      <trkpt lat="44.56561" lon="2.67828">
        <ele>342</ele>
        <time>2012-06-11T07:38:58Z</time>
      </trkpt>
      <trkpt lat="44.56563" lon="2.67828">
        <ele>342</ele>
        <time>2012-06-11T07:39:00Z</time>
      </trkpt>
      <trkpt lat="44.56565" lon="2.67827">
        <ele>342</ele>
        <time>2012-06-11T07:39:01Z</time>
      </trkpt>
      <trkpt lat="44.56566" lon="2.67827">
        <ele>342</ele>
        <time>2012-06-11T07:39:02Z</time>
      </trkpt>
      <trkpt lat="44.56567" lon="2.67826">
        <ele>342</ele>
        <time>2012-06-11T07:39:03Z</time>
      </trkpt>
      <trkpt lat="44.5657" lon="2.67826">
        <ele>342</ele>
        <time>2012-06-11T07:39:05Z</time>
      </trkpt>
      <trkpt lat="44.56571" lon="2.67826">
        <ele>342</ele>
        <time>2012-06-11T07:39:06Z</time>
      </trkpt>
      <trkpt lat="44.56574" lon="2.67826">
        <ele>342</ele>
        <time>2012-06-11T07:39:08Z</time>
      </trkpt>
      <trkpt lat="44.56576" lon="2.67825">
        <ele>342</ele>
        <time>2012-06-11T07:39:09Z</time>
      </trkpt>
      <trkpt lat="44.56579" lon="2.67826">
        <ele>342</ele>
        <time>2012-06-11T07:39:12Z</time>
      </trkpt>
      <trkpt lat="44.56581" lon="2.67825">
        <ele>341</ele>
        <time>2012-06-11T07:39:13Z</time>
      </trkpt>
      <trkpt lat="44.56584" lon="2.67827">
        <ele>341</ele>
        <time>2012-06-11T07:39:14Z</time>
      </trkpt>
      <trkpt lat="44.56588" lon="2.67827">
        <ele>341</ele>
        <time>2012-06-11T07:39:17Z</time>
      </trkpt>
      <trkpt lat="44.5659" lon="2.67828">
        <ele>341</ele>
        <time>2012-06-11T07:39:18Z</time>
      </trkpt>
      <trkpt lat="44.56591" lon="2.67828">
        <ele>341</ele>
        <time>2012-06-11T07:39:19Z</time>
      </trkpt>
      <trkpt lat="44.56593" lon="2.67828">
        <ele>341</ele>
        <time>2012-06-11T07:39:20Z</time>
      </trkpt>
      <trkpt lat="44.56594" lon="2.67828">
        <ele>341</ele>
        <time>2012-06-11T07:39:21Z</time>
      </trkpt>
      <trkpt lat="44.56596" lon="2.67829">
        <ele>341</ele>
        <time>2012-06-11T07:39:22Z</time>
      </trkpt>
      <trkpt lat="44.56598" lon="2.6783">
        <ele>341</ele>
        <time>2012-06-11T07:39:23Z</time>
      </trkpt>
      <trkpt lat="44.56599" lon="2.6783">
        <ele>341</ele>
        <time>2012-06-11T07:39:24Z</time>
      </trkpt>
      <trkpt lat="44.56601" lon="2.6783">
        <ele>341</ele>
        <time>2012-06-11T07:39:25Z</time>
      </trkpt>
      <trkpt lat="44.56602" lon="2.67831">
        <ele>341</ele>
        <time>2012-06-11T07:39:26Z</time>
      </trkpt>
      <trkpt lat="44.56604" lon="2.67831">
        <ele>341</ele>
        <time>2012-06-11T07:39:27Z</time>
      </trkpt>
      <trkpt lat="44.56606" lon="2.67832">
        <ele>341</ele>
        <time>2012-06-11T07:39:28Z</time>
      </trkpt>
      <trkpt lat="44.56607" lon="2.67832">
        <ele>341</ele>
        <time>2012-06-11T07:39:29Z</time>
      </trkpt>
      <trkpt lat="44.56609" lon="2.67833">
        <ele>341</ele>
        <time>2012-06-11T07:39:30Z</time>
      </trkpt>
      <trkpt lat="44.5661" lon="2.67834">
        <ele>341</ele>
        <time>2012-06-11T07:39:31Z</time>
      </trkpt>
      <trkpt lat="44.56612" lon="2.67835">
        <ele>342</ele>
        <time>2012-06-11T07:39:32Z</time>
      </trkpt>
      <trkpt lat="44.56613" lon="2.67836">
        <ele>342</ele>
        <time>2012-06-11T07:39:33Z</time>
      </trkpt>
      <trkpt lat="44.56615" lon="2.67836">
        <ele>343</ele>
        <time>2012-06-11T07:39:34Z</time>
      </trkpt>
      <trkpt lat="44.56616" lon="2.67837">
        <ele>344</ele>
        <time>2012-06-11T07:39:35Z</time>
      </trkpt>
      <trkpt lat="44.56618" lon="2.67837">
        <ele>344</ele>
        <time>2012-06-11T07:39:36Z</time>
      </trkpt>
      <trkpt lat="44.56619" lon="2.67837">
        <ele>345</ele>
        <time>2012-06-11T07:39:37Z</time>
      </trkpt>
      <trkpt lat="44.56621" lon="2.67838">
        <ele>346</ele>
        <time>2012-06-11T07:39:38Z</time>
      </trkpt>
      <trkpt lat="44.56622" lon="2.67838">
        <ele>346</ele>
        <time>2012-06-11T07:39:39Z</time>
      </trkpt>
      <trkpt lat="44.56624" lon="2.67839">
        <ele>347</ele>
        <time>2012-06-11T07:39:40Z</time>
      </trkpt>
      <trkpt lat="44.56625" lon="2.67839">
        <ele>347</ele>
        <time>2012-06-11T07:39:41Z</time>
      </trkpt>
      <trkpt lat="44.56627" lon="2.67839">
        <ele>348</ele>
        <time>2012-06-11T07:39:42Z</time>
      </trkpt>
      <trkpt lat="44.56628" lon="2.67839">
        <ele>348</ele>
        <time>2012-06-11T07:39:43Z</time>
      </trkpt>
      <trkpt lat="44.5663" lon="2.67839">
        <ele>348</ele>
        <time>2012-06-11T07:39:44Z</time>
      </trkpt>
      <trkpt lat="44.56631" lon="2.67838">
        <ele>348</ele>
        <time>2012-06-11T07:39:45Z</time>
      </trkpt>
      <trkpt lat="44.56633" lon="2.67838">
        <ele>348</ele>
        <time>2012-06-11T07:39:46Z</time>
      </trkpt>
      <trkpt lat="44.56634" lon="2.67837">
        <ele>348</ele>
        <time>2012-06-11T07:39:47Z</time>
      </trkpt>
      <trkpt lat="44.56635" lon="2.67837">
        <ele>349</ele>
        <time>2012-06-11T07:39:48Z</time>
      </trkpt>
      <trkpt lat="44.56636" lon="2.67836">
        <ele>349</ele>
        <time>2012-06-11T07:39:49Z</time>
      </trkpt>
      <trkpt lat="44.56638" lon="2.67836">
        <ele>349</ele>
        <time>2012-06-11T07:39:50Z</time>
      </trkpt>
      <trkpt lat="44.56639" lon="2.67836">
        <ele>349</ele>
        <time>2012-06-11T07:39:51Z</time>
      </trkpt>
      <trkpt lat="44.56641" lon="2.67835">
        <ele>349</ele>
        <time>2012-06-11T07:39:52Z</time>
      </trkpt>
      <trkpt lat="44.56643" lon="2.67835">
        <ele>349</ele>
        <time>2012-06-11T07:39:54Z</time>
      </trkpt>
      <trkpt lat="44.56644" lon="2.67835">
        <ele>349</ele>
        <time>2012-06-11T07:39:55Z</time>
      </trkpt>
      <trkpt lat="44.56646" lon="2.67834">
        <ele>349</ele>
        <time>2012-06-11T07:39:57Z</time>
      </trkpt>
      <trkpt lat="44.56648" lon="2.67833">
        <ele>349</ele>
        <time>2012-06-11T07:39:59Z</time>
      </trkpt>
      <trkpt lat="44.56649" lon="2.67832">
        <ele>349</ele>
        <time>2012-06-11T07:40:00Z</time>
      </trkpt>
      <trkpt lat="44.56651" lon="2.67832">
        <ele>349</ele>
        <time>2012-06-11T07:40:02Z</time>
      </trkpt>
      <trkpt lat="44.56655" lon="2.67833">
        <ele>349</ele>
        <time>2012-06-11T07:40:04Z</time>
      </trkpt>
      <trkpt lat="44.56656" lon="2.67832">
        <ele>349</ele>
        <time>2012-06-11T07:40:06Z</time>
      </trkpt>
      <trkpt lat="44.56658" lon="2.67833">
        <ele>349</ele>
        <time>2012-06-11T07:40:07Z</time>
      </trkpt>
      <trkpt lat="44.56659" lon="2.67833">
        <ele>349</ele>
        <time>2012-06-11T07:40:08Z</time>
      </trkpt>
      <trkpt lat="44.5666" lon="2.67833">
        <ele>350</ele>
        <time>2012-06-11T07:40:09Z</time>
      </trkpt>
      <trkpt lat="44.56662" lon="2.67833">
        <ele>350</ele>
        <time>2012-06-11T07:40:10Z</time>
      </trkpt>
      <trkpt lat="44.56664" lon="2.67832">
        <ele>350</ele>
        <time>2012-06-11T07:40:12Z</time>
      </trkpt>
      <trkpt lat="44.56665" lon="2.67832">
        <ele>351</ele>
        <time>2012-06-11T07:40:13Z</time>
      </trkpt>
      <trkpt lat="44.56666" lon="2.67832">
        <ele>351</ele>
        <time>2012-06-11T07:40:14Z</time>
      </trkpt>
      <trkpt lat="44.56668" lon="2.67832">
        <ele>351</ele>
        <time>2012-06-11T07:40:16Z</time>
      </trkpt>
      <trkpt lat="44.5667" lon="2.67831">
        <ele>352</ele>
        <time>2012-06-11T07:40:17Z</time>
      </trkpt>
      <trkpt lat="44.56672" lon="2.67831">
        <ele>352</ele>
        <time>2012-06-11T07:40:19Z</time>
      </trkpt>
      <trkpt lat="44.56675" lon="2.67832">
        <ele>352</ele>
        <time>2012-06-11T07:40:21Z</time>
      </trkpt>
      <trkpt lat="44.56676" lon="2.67832">
        <ele>353</ele>
        <time>2012-06-11T07:40:22Z</time>
      </trkpt>
      <trkpt lat="44.56678" lon="2.67833">
        <ele>353</ele>
        <time>2012-06-11T07:40:23Z</time>
      </trkpt>
      <trkpt lat="44.56679" lon="2.67833">
        <ele>353</ele>
        <time>2012-06-11T07:40:24Z</time>
      </trkpt>
      <trkpt lat="44.56682" lon="2.67836">
        <ele>353</ele>
        <time>2012-06-11T07:40:26Z</time>
      </trkpt>
      <trkpt lat="44.56684" lon="2.67836">
        <ele>354</ele>
        <time>2012-06-11T07:40:27Z</time>
      </trkpt>
      <trkpt lat="44.56689" lon="2.67836">
        <ele>357</ele>
        <time>2012-06-11T07:40:30Z</time>
      </trkpt>
      <trkpt lat="44.5669" lon="2.67836">
        <ele>358</ele>
        <time>2012-06-11T07:40:31Z</time>
      </trkpt>
      <trkpt lat="44.56693" lon="2.67837">
        <ele>360</ele>
        <time>2012-06-11T07:40:33Z</time>
      </trkpt>
      <trkpt lat="44.56695" lon="2.67839">
        <ele>362</ele>
        <time>2012-06-11T07:40:35Z</time>
      </trkpt>
      <trkpt lat="44.56696" lon="2.6784">
        <ele>363</ele>
        <time>2012-06-11T07:40:36Z</time>
      </trkpt>
      <trkpt lat="44.56698" lon="2.67841">
        <ele>364</ele>
        <time>2012-06-11T07:40:37Z</time>
      </trkpt>
      <trkpt lat="44.56699" lon="2.67842">
        <ele>365</ele>
        <time>2012-06-11T07:40:38Z</time>
      </trkpt>
      <trkpt lat="44.567" lon="2.67843">
        <ele>365</ele>
        <time>2012-06-11T07:40:39Z</time>
      </trkpt>
      <trkpt lat="44.56702" lon="2.67846">
        <ele>365</ele>
        <time>2012-06-11T07:40:41Z</time>
      </trkpt>
      <trkpt lat="44.56704" lon="2.67847">
        <ele>365</ele>
        <time>2012-06-11T07:40:42Z</time>
      </trkpt>
      <trkpt lat="44.56706" lon="2.67851">
        <ele>365</ele>
        <time>2012-06-11T07:40:44Z</time>
      </trkpt>
      <trkpt lat="44.56708" lon="2.67853">
        <ele>365</ele>
        <time>2012-06-11T07:40:45Z</time>
      </trkpt>
      <trkpt lat="44.56709" lon="2.67855">
        <ele>366</ele>
        <time>2012-06-11T07:40:46Z</time>
      </trkpt>
      <trkpt lat="44.5671" lon="2.67858">
        <ele>367</ele>
        <time>2012-06-11T07:40:47Z</time>
      </trkpt>
      <trkpt lat="44.56712" lon="2.67858">
        <ele>369</ele>
        <time>2012-06-11T07:40:49Z</time>
      </trkpt>
      <trkpt lat="44.56714" lon="2.67858">
        <ele>370</ele>
        <time>2012-06-11T07:40:51Z</time>
      </trkpt>
      <trkpt lat="44.56715" lon="2.67859">
        <ele>370</ele>
        <time>2012-06-11T07:40:52Z</time>
      </trkpt>
      <trkpt lat="44.56717" lon="2.67861">
        <ele>370</ele>
        <time>2012-06-11T07:40:54Z</time>
      </trkpt>
      <trkpt lat="44.56718" lon="2.67861">
        <ele>370</ele>
        <time>2012-06-11T07:40:55Z</time>
      </trkpt>
      <trkpt lat="44.5672" lon="2.67863">
        <ele>370</ele>
        <time>2012-06-11T07:40:57Z</time>
      </trkpt>
      <trkpt lat="44.56722" lon="2.67865">
        <ele>370</ele>
        <time>2012-06-11T07:40:59Z</time>
      </trkpt>
      <trkpt lat="44.56723" lon="2.67866">
        <ele>370</ele>
        <time>2012-06-11T07:41:00Z</time>
      </trkpt>
      <trkpt lat="44.56725" lon="2.67868">
        <ele>370</ele>
        <time>2012-06-11T07:41:02Z</time>
      </trkpt>
      <trkpt lat="44.56725" lon="2.6787">
        <ele>370</ele>
        <time>2012-06-11T07:41:03Z</time>
      </trkpt>
      <trkpt lat="44.56727" lon="2.67872">
        <ele>370</ele>
        <time>2012-06-11T07:41:05Z</time>
      </trkpt>
      <trkpt lat="44.56729" lon="2.67874">
        <ele>370</ele>
        <time>2012-06-11T07:41:07Z</time>
      </trkpt>
      <trkpt lat="44.56731" lon="2.67876">
        <ele>370</ele>
        <time>2012-06-11T07:41:09Z</time>
      </trkpt>
      <trkpt lat="44.56732" lon="2.67877">
        <ele>370</ele>
        <time>2012-06-11T07:41:10Z</time>
      </trkpt>
      <trkpt lat="44.56733" lon="2.67877">
        <ele>370</ele>
        <time>2012-06-11T07:41:11Z</time>
      </trkpt>
      <trkpt lat="44.56735" lon="2.67877">
        <ele>370</ele>
        <time>2012-06-11T07:41:12Z</time>
      </trkpt>
      <trkpt lat="44.56736" lon="2.67878">
        <ele>370</ele>
        <time>2012-06-11T07:41:13Z</time>
      </trkpt>
      <trkpt lat="44.56737" lon="2.67878">
        <ele>370</ele>
        <time>2012-06-11T07:41:14Z</time>
      </trkpt>
      <trkpt lat="44.56739" lon="2.6788">
        <ele>370</ele>
        <time>2012-06-11T07:41:16Z</time>
      </trkpt>
      <trkpt lat="44.56741" lon="2.67881">
        <ele>370</ele>
        <time>2012-06-11T07:41:17Z</time>
      </trkpt>
      <trkpt lat="44.56742" lon="2.67882">
        <ele>370</ele>
        <time>2012-06-11T07:41:18Z</time>
      </trkpt>
      <trkpt lat="44.56743" lon="2.67883">
        <ele>370</ele>
        <time>2012-06-11T07:41:19Z</time>
      </trkpt>
      <trkpt lat="44.56745" lon="2.67883">
        <ele>370</ele>
        <time>2012-06-11T07:41:20Z</time>
      </trkpt>
      <trkpt lat="44.56747" lon="2.67885">
        <ele>370</ele>
        <time>2012-06-11T07:41:22Z</time>
      </trkpt>
      <trkpt lat="44.56748" lon="2.67885">
        <ele>370</ele>
        <time>2012-06-11T07:41:23Z</time>
      </trkpt>
      <trkpt lat="44.5675" lon="2.67886">
        <ele>370</ele>
        <time>2012-06-11T07:41:25Z</time>
      </trkpt>
      <trkpt lat="44.56753" lon="2.67888">
        <ele>370</ele>
        <time>2012-06-11T07:41:27Z</time>
      </trkpt>
      <trkpt lat="44.56754" lon="2.67889">
        <ele>370</ele>
        <time>2012-06-11T07:41:28Z</time>
      </trkpt>
      <trkpt lat="44.56755" lon="2.6789">
        <ele>370</ele>
        <time>2012-06-11T07:41:29Z</time>
      </trkpt>
      <trkpt lat="44.56757" lon="2.67893">
        <ele>370</ele>
        <time>2012-06-11T07:41:31Z</time>
      </trkpt>
      <trkpt lat="44.56759" lon="2.67895">
        <ele>370</ele>
        <time>2012-06-11T07:41:33Z</time>
      </trkpt>
      <trkpt lat="44.5676" lon="2.67896">
        <ele>370</ele>
        <time>2012-06-11T07:41:34Z</time>
      </trkpt>
      <trkpt lat="44.56762" lon="2.67898">
        <ele>370</ele>
        <time>2012-06-11T07:41:36Z</time>
      </trkpt>
      <trkpt lat="44.56763" lon="2.67899">
        <ele>370</ele>
        <time>2012-06-11T07:41:37Z</time>
      </trkpt>
      <trkpt lat="44.56762" lon="2.67902">
        <ele>370</ele>
        <time>2012-06-11T07:41:38Z</time>
      </trkpt>
      <trkpt lat="44.56762" lon="2.67906">
        <ele>370</ele>
        <time>2012-06-11T07:41:39Z</time>
      </trkpt>
      <trkpt lat="44.56763" lon="2.67909">
        <ele>370</ele>
        <time>2012-06-11T07:41:42Z</time>
      </trkpt>
      <trkpt lat="44.56765" lon="2.6791">
        <ele>370</ele>
        <time>2012-06-11T07:41:44Z</time>
      </trkpt>
      <trkpt lat="44.56767" lon="2.67911">
        <ele>370</ele>
        <time>2012-06-11T07:41:46Z</time>
      </trkpt>
      <trkpt lat="44.56768" lon="2.67912">
        <ele>370</ele>
        <time>2012-06-11T07:41:48Z</time>
      </trkpt>
      <trkpt lat="44.56769" lon="2.67913">
        <ele>370</ele>
        <time>2012-06-11T07:41:50Z</time>
      </trkpt>
      <trkpt lat="44.56771" lon="2.67914">
        <ele>370</ele>
        <time>2012-06-11T07:41:52Z</time>
      </trkpt>
      <trkpt lat="44.56773" lon="2.67915">
        <ele>370</ele>
        <time>2012-06-11T07:41:54Z</time>
      </trkpt>
      <trkpt lat="44.56775" lon="2.67915">
        <ele>370</ele>
        <time>2012-06-11T07:41:56Z</time>
      </trkpt>
      <trkpt lat="44.56776" lon="2.67915">
        <ele>369</ele>
        <time>2012-06-11T07:41:58Z</time>
      </trkpt>
      <trkpt lat="44.56777" lon="2.67916">
        <ele>368</ele>
        <time>2012-06-11T07:42:00Z</time>
      </trkpt>
      <trkpt lat="44.56779" lon="2.67917">
        <ele>367</ele>
        <time>2012-06-11T07:42:03Z</time>
      </trkpt>
      <trkpt lat="44.5678" lon="2.67917">
        <ele>366</ele>
        <time>2012-06-11T07:42:05Z</time>
      </trkpt>
      <trkpt lat="44.56784" lon="2.67917">
        <ele>366</ele>
        <time>2012-06-11T07:42:09Z</time>
      </trkpt>
      <trkpt lat="44.56786" lon="2.67918">
        <ele>366</ele>
        <time>2012-06-11T07:42:10Z</time>
      </trkpt>
      <trkpt lat="44.56787" lon="2.67917">
        <ele>366</ele>
        <time>2012-06-11T07:42:13Z</time>
      </trkpt>
      <trkpt lat="44.56789" lon="2.67916">
        <ele>366</ele>
        <time>2012-06-11T07:42:15Z</time>
      </trkpt>
      <trkpt lat="44.5679" lon="2.67915">
        <ele>366</ele>
        <time>2012-06-11T07:42:16Z</time>
      </trkpt>
      <trkpt lat="44.56791" lon="2.67914">
        <ele>366</ele>
        <time>2012-06-11T07:42:17Z</time>
      </trkpt>
      <trkpt lat="44.56794" lon="2.67911">
        <ele>366</ele>
        <time>2012-06-11T07:42:19Z</time>
      </trkpt>
      <trkpt lat="44.56796" lon="2.67909">
        <ele>366</ele>
        <time>2012-06-11T07:42:21Z</time>
      </trkpt>
      <trkpt lat="44.56798" lon="2.67906">
        <ele>366</ele>
        <time>2012-06-11T07:42:23Z</time>
      </trkpt>
      <trkpt lat="44.568" lon="2.67905">
        <ele>366</ele>
        <time>2012-06-11T07:42:25Z</time>
      </trkpt>
      <trkpt lat="44.56802" lon="2.67904">
        <ele>366</ele>
        <time>2012-06-11T07:42:26Z</time>
      </trkpt>
      <trkpt lat="44.56803" lon="2.67903">
        <ele>366</ele>
        <time>2012-06-11T07:42:27Z</time>
      </trkpt>
      <trkpt lat="44.56805" lon="2.67902">
        <ele>366</ele>
        <time>2012-06-11T07:42:28Z</time>
      </trkpt>
      <trkpt lat="44.56806" lon="2.67901">
        <ele>366</ele>
        <time>2012-06-11T07:42:29Z</time>
      </trkpt>
      <trkpt lat="44.56807" lon="2.679">
        <ele>366</ele>
        <time>2012-06-11T07:42:30Z</time>
      </trkpt>
      <trkpt lat="44.56809" lon="2.67899">
        <ele>366</ele>
        <time>2012-06-11T07:42:31Z</time>
      </trkpt>
      <trkpt lat="44.5681" lon="2.67898">
        <ele>366</ele>
        <time>2012-06-11T07:42:32Z</time>
      </trkpt>
      <trkpt lat="44.56812" lon="2.67896">
        <ele>366</ele>
        <time>2012-06-11T07:42:33Z</time>
      </trkpt>
      <trkpt lat="44.56813" lon="2.67895">
        <ele>366</ele>
        <time>2012-06-11T07:42:34Z</time>
      </trkpt>
      <trkpt lat="44.56815" lon="2.67894">
        <ele>366</ele>
        <time>2012-06-11T07:42:35Z</time>
      </trkpt>
      <trkpt lat="44.56816" lon="2.67893">
        <ele>366</ele>
        <time>2012-06-11T07:42:36Z</time>
      </trkpt>
      <trkpt lat="44.56818" lon="2.67892">
        <ele>366</ele>
        <time>2012-06-11T07:42:37Z</time>
      </trkpt>
      <trkpt lat="44.5682" lon="2.67891">
        <ele>366</ele>
        <time>2012-06-11T07:42:38Z</time>
      </trkpt>
      <trkpt lat="44.56821" lon="2.6789">
        <ele>366</ele>
        <time>2012-06-11T07:42:39Z</time>
      </trkpt>
      <trkpt lat="44.56822" lon="2.67889">
        <ele>366</ele>
        <time>2012-06-11T07:42:40Z</time>
      </trkpt>
      <trkpt lat="44.56823" lon="2.67888">
        <ele>366</ele>
        <time>2012-06-11T07:42:41Z</time>
      </trkpt>
      <trkpt lat="44.56825" lon="2.67887">
        <ele>365</ele>
        <time>2012-06-11T07:42:42Z</time>
      </trkpt>
      <trkpt lat="44.56827" lon="2.67886">
        <ele>365</ele>
        <time>2012-06-11T07:42:43Z</time>
      </trkpt>
      <trkpt lat="44.56828" lon="2.67886">
        <ele>365</ele>
        <time>2012-06-11T07:42:44Z</time>
      </trkpt>
      <trkpt lat="44.56829" lon="2.67885">
        <ele>365</ele>
        <time>2012-06-11T07:42:45Z</time>
      </trkpt>
      <trkpt lat="44.56831" lon="2.67884">
        <ele>365</ele>
        <time>2012-06-11T07:42:46Z</time>
      </trkpt>
      <trkpt lat="44.56832" lon="2.67883">
        <ele>365</ele>
        <time>2012-06-11T07:42:47Z</time>
      </trkpt>
      <trkpt lat="44.56833" lon="2.67882">
        <ele>365</ele>
        <time>2012-06-11T07:42:48Z</time>
      </trkpt>
      <trkpt lat="44.56834" lon="2.67882">
        <ele>365</ele>
        <time>2012-06-11T07:42:49Z</time>
      </trkpt>
      <trkpt lat="44.56836" lon="2.67881">
        <ele>365</ele>
        <time>2012-06-11T07:42:50Z</time>
      </trkpt>
      <trkpt lat="44.56838" lon="2.6788">
        <ele>365</ele>
        <time>2012-06-11T07:42:52Z</time>
      </trkpt>
      <trkpt lat="44.56841" lon="2.67879">
        <ele>365</ele>
        <time>2012-06-11T07:42:54Z</time>
      </trkpt>
      <trkpt lat="44.56842" lon="2.67879">
        <ele>365</ele>
        <time>2012-06-11T07:42:55Z</time>
      </trkpt>
      <trkpt lat="44.56844" lon="2.67878">
        <ele>365</ele>
        <time>2012-06-11T07:42:56Z</time>
      </trkpt>
      <trkpt lat="44.56845" lon="2.67878">
        <ele>365</ele>
        <time>2012-06-11T07:42:57Z</time>
      </trkpt>
      <trkpt lat="44.56847" lon="2.67877">
        <ele>365</ele>
        <time>2012-06-11T07:42:58Z</time>
      </trkpt>
      <trkpt lat="44.56849" lon="2.67878">
        <ele>365</ele>
        <time>2012-06-11T07:42:59Z</time>
      </trkpt>
      <trkpt lat="44.56851" lon="2.67879">
        <ele>365</ele>
        <time>2012-06-11T07:43:01Z</time>
      </trkpt>
      <trkpt lat="44.56854" lon="2.67879">
        <ele>365</ele>
        <time>2012-06-11T07:43:03Z</time>
      </trkpt>
      <trkpt lat="44.56856" lon="2.67877">
        <ele>370</ele>
        <time>2012-06-11T07:43:08Z</time>
      </trkpt>
      <trkpt lat="44.56858" lon="2.67877">
        <ele>374</ele>
        <time>2012-06-11T07:43:12Z</time>
      </trkpt>
      <trkpt lat="44.5686" lon="2.67877">
        <ele>374</ele>
        <time>2012-06-11T07:43:14Z</time>
      </trkpt>
      <trkpt lat="44.56862" lon="2.67877">
        <ele>375</ele>
        <time>2012-06-11T07:43:16Z</time>
      </trkpt>
      <trkpt lat="44.56863" lon="2.67876">
        <ele>375</ele>
        <time>2012-06-11T07:43:17Z</time>
      </trkpt>
      <trkpt lat="44.56865" lon="2.67875">
        <ele>375</ele>
        <time>2012-06-11T07:43:18Z</time>
      </trkpt>
      <trkpt lat="44.56866" lon="2.67875">
        <ele>375</ele>
        <time>2012-06-11T07:43:19Z</time>
      </trkpt>
      <trkpt lat="44.56868" lon="2.67874">
        <ele>375</ele>
        <time>2012-06-11T07:43:20Z</time>
      </trkpt>
      <trkpt lat="44.56869" lon="2.67873">
        <ele>375</ele>
        <time>2012-06-11T07:43:21Z</time>
      </trkpt>
      <trkpt lat="44.56871" lon="2.67872">
        <ele>375</ele>
        <time>2012-06-11T07:43:22Z</time>
      </trkpt>
      <trkpt lat="44.56873" lon="2.67872">
        <ele>375</ele>
        <time>2012-06-11T07:43:23Z</time>
      </trkpt>
      <trkpt lat="44.56874" lon="2.67871">
        <ele>375</ele>
        <time>2012-06-11T07:43:24Z</time>
      </trkpt>
      <trkpt lat="44.56876" lon="2.67871">
        <ele>375</ele>
        <time>2012-06-11T07:43:25Z</time>
      </trkpt>
      <trkpt lat="44.56877" lon="2.6787">
        <ele>375</ele>
        <time>2012-06-11T07:43:26Z</time>
      </trkpt>
      <trkpt lat="44.56879" lon="2.67868">
        <ele>375</ele>
        <time>2012-06-11T07:43:27Z</time>
      </trkpt>
      <trkpt lat="44.5688" lon="2.67867">
        <ele>375</ele>
        <time>2012-06-11T07:43:28Z</time>
      </trkpt>
      <trkpt lat="44.56881" lon="2.67867">
        <ele>375</ele>
        <time>2012-06-11T07:43:29Z</time>
      </trkpt>
      <trkpt lat="44.56883" lon="2.67867">
        <ele>375</ele>
        <time>2012-06-11T07:43:30Z</time>
      </trkpt>
      <trkpt lat="44.56884" lon="2.67867">
        <ele>375</ele>
        <time>2012-06-11T07:43:31Z</time>
      </trkpt>
      <trkpt lat="44.56886" lon="2.67866">
        <ele>375</ele>
        <time>2012-06-11T07:43:32Z</time>
      </trkpt>
      <trkpt lat="44.56888" lon="2.67864">
        <ele>374</ele>
        <time>2012-06-11T07:43:33Z</time>
      </trkpt>
      <trkpt lat="44.5689" lon="2.67863">
        <ele>374</ele>
        <time>2012-06-11T07:43:34Z</time>
      </trkpt>
      <trkpt lat="44.56892" lon="2.67863">
        <ele>373</ele>
        <time>2012-06-11T07:43:36Z</time>
      </trkpt>
      <trkpt lat="44.56894" lon="2.67863">
        <ele>373</ele>
        <time>2012-06-11T07:43:37Z</time>
      </trkpt>
      <trkpt lat="44.56897" lon="2.67864">
        <ele>372</ele>
        <time>2012-06-11T07:43:40Z</time>
      </trkpt>
      <trkpt lat="44.56901" lon="2.67865">
        <ele>371</ele>
        <time>2012-06-11T07:43:42Z</time>
      </trkpt>
      <trkpt lat="44.56903" lon="2.67866">
        <ele>371</ele>
        <time>2012-06-11T07:43:43Z</time>
      </trkpt>
      <trkpt lat="44.56904" lon="2.67866">
        <ele>371</ele>
        <time>2012-06-11T07:43:44Z</time>
      </trkpt>
      <trkpt lat="44.56906" lon="2.67868">
        <ele>371</ele>
        <time>2012-06-11T07:43:45Z</time>
      </trkpt>
      <trkpt lat="44.56909" lon="2.67868">
        <ele>371</ele>
        <time>2012-06-11T07:43:47Z</time>
      </trkpt>
      <trkpt lat="44.5691" lon="2.67869">
        <ele>371</ele>
        <time>2012-06-11T07:43:48Z</time>
      </trkpt>
      <trkpt lat="44.56912" lon="2.6787">
        <ele>371</ele>
        <time>2012-06-11T07:43:49Z</time>
      </trkpt>
      <trkpt lat="44.56914" lon="2.6787">
        <ele>371</ele>
        <time>2012-06-11T07:43:50Z</time>
      </trkpt>
      <trkpt lat="44.56915" lon="2.67872">
        <ele>371</ele>
        <time>2012-06-11T07:43:51Z</time>
      </trkpt>
      <trkpt lat="44.56916" lon="2.67872">
        <ele>371</ele>
        <time>2012-06-11T07:43:52Z</time>
      </trkpt>
      <trkpt lat="44.56918" lon="2.67872">
        <ele>371</ele>
        <time>2012-06-11T07:43:53Z</time>
      </trkpt>
      <trkpt lat="44.56919" lon="2.67872">
        <ele>371</ele>
        <time>2012-06-11T07:43:54Z</time>
      </trkpt>
      <trkpt lat="44.56921" lon="2.67873">
        <ele>371</ele>
        <time>2012-06-11T07:43:55Z</time>
      </trkpt>
      <trkpt lat="44.56923" lon="2.67872">
        <ele>371</ele>
        <time>2012-06-11T07:43:56Z</time>
      </trkpt>
      <trkpt lat="44.56926" lon="2.67873">
        <ele>371</ele>
        <time>2012-06-11T07:43:59Z</time>
      </trkpt>
      <trkpt lat="44.56929" lon="2.67873">
        <ele>371</ele>
        <time>2012-06-11T07:44:01Z</time>
      </trkpt>
      <trkpt lat="44.5693" lon="2.67873">
        <ele>371</ele>
        <time>2012-06-11T07:44:02Z</time>
      </trkpt>
      <trkpt lat="44.56932" lon="2.67872">
        <ele>371</ele>
        <time>2012-06-11T07:44:03Z</time>
      </trkpt>
      <trkpt lat="44.56933" lon="2.67874">
        <ele>371</ele>
        <time>2012-06-11T07:44:05Z</time>
      </trkpt>
      <trkpt lat="44.56935" lon="2.67875">
        <ele>371</ele>
        <time>2012-06-11T07:44:07Z</time>
      </trkpt>
      <trkpt lat="44.56937" lon="2.67875">
        <ele>371</ele>
        <time>2012-06-11T07:44:08Z</time>
      </trkpt>
      <trkpt lat="44.56938" lon="2.67875">
        <ele>371</ele>
        <time>2012-06-11T07:44:09Z</time>
      </trkpt>
      <trkpt lat="44.56939" lon="2.67875">
        <ele>371</ele>
        <time>2012-06-11T07:44:10Z</time>
      </trkpt>
      <trkpt lat="44.56941" lon="2.67876">
        <ele>371</ele>
        <time>2012-06-11T07:44:12Z</time>
      </trkpt>
      <trkpt lat="44.56943" lon="2.67876">
        <ele>371</ele>
        <time>2012-06-11T07:44:13Z</time>
      </trkpt>
      <trkpt lat="44.56944" lon="2.67876">
        <ele>371</ele>
        <time>2012-06-11T07:44:14Z</time>
      </trkpt>
      <trkpt lat="44.56946" lon="2.67875">
        <ele>370</ele>
        <time>2012-06-11T07:44:15Z</time>
      </trkpt>
      <trkpt lat="44.56947" lon="2.67876">
        <ele>370</ele>
        <time>2012-06-11T07:44:16Z</time>
      </trkpt>
      <trkpt lat="44.56949" lon="2.67875">
        <ele>370</ele>
        <time>2012-06-11T07:44:17Z</time>
      </trkpt>
      <trkpt lat="44.5695" lon="2.67875">
        <ele>370</ele>
        <time>2012-06-11T07:44:18Z</time>
      </trkpt>
      <trkpt lat="44.56952" lon="2.67875">
        <ele>369</ele>
        <time>2012-06-11T07:44:19Z</time>
      </trkpt>
      <trkpt lat="44.56956" lon="2.67875">
        <ele>368</ele>
        <time>2012-06-11T07:44:21Z</time>
      </trkpt>
      <trkpt lat="44.56958" lon="2.67875">
        <ele>368</ele>
        <time>2012-06-11T07:44:22Z</time>
      </trkpt>
      <trkpt lat="44.56961" lon="2.67876">
        <ele>368</ele>
        <time>2012-06-11T07:44:24Z</time>
      </trkpt>
      <trkpt lat="44.56962" lon="2.67876">
        <ele>368</ele>
        <time>2012-06-11T07:44:25Z</time>
      </trkpt>
      <trkpt lat="44.56964" lon="2.67877">
        <ele>368</ele>
        <time>2012-06-11T07:44:27Z</time>
      </trkpt>
      <trkpt lat="44.56966" lon="2.67878">
        <ele>368</ele>
        <time>2012-06-11T07:44:28Z</time>
      </trkpt>
      <trkpt lat="44.56967" lon="2.67879">
        <ele>368</ele>
        <time>2012-06-11T07:44:29Z</time>
      </trkpt>
      <trkpt lat="44.56969" lon="2.6788">
        <ele>368</ele>
        <time>2012-06-11T07:44:30Z</time>
      </trkpt>
      <trkpt lat="44.5697" lon="2.6788">
        <ele>368</ele>
        <time>2012-06-11T07:44:31Z</time>
      </trkpt>
      <trkpt lat="44.56971" lon="2.67881">
        <ele>368</ele>
        <time>2012-06-11T07:44:32Z</time>
      </trkpt>
      <trkpt lat="44.56972" lon="2.67883">
        <ele>368</ele>
        <time>2012-06-11T07:44:33Z</time>
      </trkpt>
      <trkpt lat="44.56974" lon="2.67883">
        <ele>368</ele>
        <time>2012-06-11T07:44:34Z</time>
      </trkpt>
      <trkpt lat="44.56975" lon="2.67886">
        <ele>368</ele>
        <time>2012-06-11T07:44:36Z</time>
      </trkpt>
      <trkpt lat="44.56976" lon="2.67887">
        <ele>368</ele>
        <time>2012-06-11T07:44:37Z</time>
      </trkpt>
      <trkpt lat="44.56978" lon="2.67887">
        <ele>368</ele>
        <time>2012-06-11T07:44:38Z</time>
      </trkpt>
      <trkpt lat="44.5698" lon="2.67887">
        <ele>368</ele>
        <time>2012-06-11T07:44:39Z</time>
      </trkpt>
      <trkpt lat="44.56982" lon="2.67888">
        <ele>368</ele>
        <time>2012-06-11T07:44:40Z</time>
      </trkpt>
      <trkpt lat="44.56983" lon="2.67887">
        <ele>368</ele>
        <time>2012-06-11T07:44:41Z</time>
      </trkpt>
      <trkpt lat="44.56985" lon="2.67888">
        <ele>368</ele>
        <time>2012-06-11T07:44:42Z</time>
      </trkpt>
      <trkpt lat="44.56986" lon="2.67888">
        <ele>368</ele>
        <time>2012-06-11T07:44:43Z</time>
      </trkpt>
      <trkpt lat="44.56989" lon="2.67888">
        <ele>368</ele>
        <time>2012-06-11T07:44:44Z</time>
      </trkpt>
      <trkpt lat="44.5699" lon="2.67888">
        <ele>368</ele>
        <time>2012-06-11T07:44:45Z</time>
      </trkpt>
      <trkpt lat="44.56994" lon="2.67892">
        <ele>368</ele>
        <time>2012-06-11T07:44:46Z</time>
      </trkpt>
      <trkpt lat="44.56997" lon="2.67895">
        <ele>370</ele>
        <time>2012-06-11T07:44:48Z</time>
      </trkpt>
      <trkpt lat="44.56999" lon="2.67895">
        <ele>371</ele>
        <time>2012-06-11T07:44:49Z</time>
      </trkpt>
      <trkpt lat="44.57001" lon="2.67895">
        <ele>372</ele>
        <time>2012-06-11T07:44:50Z</time>
      </trkpt>
      <trkpt lat="44.57002" lon="2.67895">
        <ele>373</ele>
        <time>2012-06-11T07:44:51Z</time>
      </trkpt>
      <trkpt lat="44.57006" lon="2.67895">
        <ele>376</ele>
        <time>2012-06-11T07:44:54Z</time>
      </trkpt>
      <trkpt lat="44.57008" lon="2.67897">
        <ele>377</ele>
        <time>2012-06-11T07:44:56Z</time>
      </trkpt>
      <trkpt lat="44.57009" lon="2.67897">
        <ele>377</ele>
        <time>2012-06-11T07:44:57Z</time>
      </trkpt>
      <trkpt lat="44.57011" lon="2.67898">
        <ele>377</ele>
        <time>2012-06-11T07:44:58Z</time>
      </trkpt>
      <trkpt lat="44.57012" lon="2.67898">
        <ele>377</ele>
        <time>2012-06-11T07:44:59Z</time>
      </trkpt>
      <trkpt lat="44.57013" lon="2.67897">
        <ele>377</ele>
        <time>2012-06-11T07:45:00Z</time>
      </trkpt>
      <trkpt lat="44.57014" lon="2.67898">
        <ele>377</ele>
        <time>2012-06-11T07:45:01Z</time>
      </trkpt>
      <trkpt lat="44.57016" lon="2.679">
        <ele>377</ele>
        <time>2012-06-11T07:45:02Z</time>
      </trkpt>
      <trkpt lat="44.57017" lon="2.67901">
        <ele>377</ele>
        <time>2012-06-11T07:45:03Z</time>
      </trkpt>
      <trkpt lat="44.57019" lon="2.67902">
        <ele>378</ele>
        <time>2012-06-11T07:45:05Z</time>
      </trkpt>
      <trkpt lat="44.5702" lon="2.67904">
        <ele>379</ele>
        <time>2012-06-11T07:45:06Z</time>
      </trkpt>
      <trkpt lat="44.57022" lon="2.67907">
        <ele>380</ele>
        <time>2012-06-11T07:45:07Z</time>
      </trkpt>
      <trkpt lat="44.57024" lon="2.67908">
        <ele>381</ele>
        <time>2012-06-11T07:45:08Z</time>
      </trkpt>
      <trkpt lat="44.57024" lon="2.6791">
        <ele>382</ele>
        <time>2012-06-11T07:45:09Z</time>
      </trkpt>
      <trkpt lat="44.57025" lon="2.67912">
        <ele>383</ele>
        <time>2012-06-11T07:45:10Z</time>
      </trkpt>
      <trkpt lat="44.57026" lon="2.67914">
        <ele>384</ele>
        <time>2012-06-11T07:45:11Z</time>
      </trkpt>
      <trkpt lat="44.57027" lon="2.67916">
        <ele>386</ele>
        <time>2012-06-11T07:45:13Z</time>
      </trkpt>
      <trkpt lat="44.57029" lon="2.67917">
        <ele>386</ele>
        <time>2012-06-11T07:45:15Z</time>
      </trkpt>
      <trkpt lat="44.57028" lon="2.67919">
        <ele>386</ele>
        <time>2012-06-11T07:45:16Z</time>
      </trkpt>
      <trkpt lat="44.57027" lon="2.67922">
        <ele>386</ele>
        <time>2012-06-11T07:45:18Z</time>
      </trkpt>
      <trkpt lat="44.57027" lon="2.67923">
        <ele>384</ele>
        <time>2012-06-11T07:45:20Z</time>
      </trkpt>
      <trkpt lat="44.57026" lon="2.67925">
        <ele>379</ele>
        <time>2012-06-11T07:45:25Z</time>
      </trkpt>
      <trkpt lat="44.57026" lon="2.67923">
        <ele>373</ele>
        <time>2012-06-11T07:45:42Z</time>
      </trkpt>
      <trkpt lat="44.57024" lon="2.67919">
        <ele>373</ele>
        <time>2012-06-11T07:45:44Z</time>
      </trkpt>
      <trkpt lat="44.57026" lon="2.67917">
        <ele>373</ele>
        <time>2012-06-11T07:45:46Z</time>
      </trkpt>
      <trkpt lat="44.57027" lon="2.67915">
        <ele>373</ele>
        <time>2012-06-11T07:45:48Z</time>
      </trkpt>
      <trkpt lat="44.57028" lon="2.67911">
        <ele>373</ele>
        <time>2012-06-11T07:45:50Z</time>
      </trkpt>
      <trkpt lat="44.57029" lon="2.6791">
        <ele>374</ele>
        <time>2012-06-11T07:45:52Z</time>
      </trkpt>
      <trkpt lat="44.57028" lon="2.67907">
        <ele>375</ele>
        <time>2012-06-11T07:45:53Z</time>
      </trkpt>
      <trkpt lat="44.57027" lon="2.67904">
        <ele>376</ele>
        <time>2012-06-11T07:45:54Z</time>
      </trkpt>
      <trkpt lat="44.57026" lon="2.679">
        <ele>379</ele>
        <time>2012-06-11T07:45:57Z</time>
      </trkpt>
      <trkpt lat="44.57024" lon="2.67899">
        <ele>381</ele>
        <time>2012-06-11T07:45:59Z</time>
      </trkpt>
      <trkpt lat="44.57022" lon="2.67897">
        <ele>383</ele>
        <time>2012-06-11T07:46:01Z</time>
      </trkpt>
      <trkpt lat="44.57021" lon="2.67895">
        <ele>384</ele>
        <time>2012-06-11T07:46:02Z</time>
      </trkpt>
      <trkpt lat="44.57019" lon="2.67894">
        <ele>385</ele>
        <time>2012-06-11T07:46:03Z</time>
      </trkpt>
      <trkpt lat="44.57018" lon="2.67892">
        <ele>387</ele>
        <time>2012-06-11T07:46:05Z</time>
      </trkpt>
      <trkpt lat="44.57016" lon="2.67893">
        <ele>388</ele>
        <time>2012-06-11T07:46:06Z</time>
      </trkpt>
      <trkpt lat="44.57015" lon="2.67894">
        <ele>389</ele>
        <time>2012-06-11T07:46:07Z</time>
      </trkpt>
      <trkpt lat="44.57012" lon="2.67893">
        <ele>391</ele>
        <time>2012-06-11T07:46:09Z</time>
      </trkpt>
      <trkpt lat="44.57011" lon="2.67892">
        <ele>391</ele>
        <time>2012-06-11T07:46:10Z</time>
      </trkpt>
      <trkpt lat="44.57009" lon="2.67892">
        <ele>391</ele>
        <time>2012-06-11T07:46:11Z</time>
      </trkpt>
      <trkpt lat="44.57008" lon="2.67893">
        <ele>391</ele>
        <time>2012-06-11T07:46:12Z</time>
      </trkpt>
      <trkpt lat="44.57005" lon="2.67891">
        <ele>392</ele>
        <time>2012-06-11T07:46:14Z</time>
      </trkpt>
      <trkpt lat="44.57004" lon="2.6789">
        <ele>392</ele>
        <time>2012-06-11T07:46:15Z</time>
      </trkpt>
      <trkpt lat="44.57001" lon="2.67889">
        <ele>393</ele>
        <time>2012-06-11T07:46:17Z</time>
      </trkpt>
      <trkpt lat="44.56999" lon="2.67888">
        <ele>394</ele>
        <time>2012-06-11T07:46:19Z</time>
      </trkpt>
      <trkpt lat="44.56998" lon="2.67889">
        <ele>395</ele>
        <time>2012-06-11T07:46:20Z</time>
      </trkpt>
      <trkpt lat="44.56995" lon="2.6789">
        <ele>395</ele>
        <time>2012-06-11T07:46:22Z</time>
      </trkpt>
      <trkpt lat="44.56993" lon="2.6789">
        <ele>395</ele>
        <time>2012-06-11T07:46:23Z</time>
      </trkpt>
      <trkpt lat="44.56992" lon="2.6789">
        <ele>396</ele>
        <time>2012-06-11T07:46:24Z</time>
      </trkpt>
      <trkpt lat="44.5699" lon="2.67889">
        <ele>396</ele>
        <time>2012-06-11T07:46:26Z</time>
      </trkpt>
      <trkpt lat="44.56989" lon="2.67889">
        <ele>397</ele>
        <time>2012-06-11T07:46:27Z</time>
      </trkpt>
      <trkpt lat="44.56987" lon="2.67888">
        <ele>398</ele>
        <time>2012-06-11T07:46:28Z</time>
      </trkpt>
      <trkpt lat="44.56986" lon="2.67887">
        <ele>399</ele>
        <time>2012-06-11T07:46:29Z</time>
      </trkpt>
      <trkpt lat="44.56984" lon="2.67887">
        <ele>401</ele>
        <time>2012-06-11T07:46:31Z</time>
      </trkpt>
      <trkpt lat="44.56982" lon="2.67885">
        <ele>402</ele>
        <time>2012-06-11T07:46:32Z</time>
      </trkpt>
      <trkpt lat="44.5698" lon="2.67883">
        <ele>403</ele>
        <time>2012-06-11T07:46:33Z</time>
      </trkpt>
      <trkpt lat="44.56979" lon="2.67883">
        <ele>404</ele>
        <time>2012-06-11T07:46:34Z</time>
      </trkpt>
      <trkpt lat="44.56977" lon="2.67882">
        <ele>405</ele>
        <time>2012-06-11T07:46:35Z</time>
      </trkpt>
      <trkpt lat="44.56976" lon="2.67881">
        <ele>406</ele>
        <time>2012-06-11T07:46:36Z</time>
      </trkpt>
      <trkpt lat="44.56975" lon="2.67881">
        <ele>406</ele>
        <time>2012-06-11T07:46:37Z</time>
      </trkpt>
      <trkpt lat="44.56974" lon="2.6788">
        <ele>407</ele>
        <time>2012-06-11T07:46:38Z</time>
      </trkpt>
      <trkpt lat="44.56972" lon="2.67879">
        <ele>408</ele>
        <time>2012-06-11T07:46:39Z</time>
      </trkpt>
      <trkpt lat="44.56969" lon="2.6788">
        <ele>410</ele>
        <time>2012-06-11T07:46:41Z</time>
      </trkpt>
      <trkpt lat="44.56968" lon="2.67879">
        <ele>411</ele>
        <time>2012-06-11T07:46:42Z</time>
      </trkpt>
      <trkpt lat="44.56967" lon="2.67878">
        <ele>411</ele>
        <time>2012-06-11T07:46:43Z</time>
      </trkpt>
      <trkpt lat="44.56964" lon="2.67879">
        <ele>412</ele>
        <time>2012-06-11T07:46:45Z</time>
      </trkpt>
      <trkpt lat="44.56963" lon="2.67878">
        <ele>413</ele>
        <time>2012-06-11T07:46:46Z</time>
      </trkpt>
      <trkpt lat="44.56961" lon="2.67879">
        <ele>413</ele>
        <time>2012-06-11T07:46:47Z</time>
      </trkpt>
      <trkpt lat="44.56959" lon="2.67878">
        <ele>414</ele>
        <time>2012-06-11T07:46:48Z</time>
      </trkpt>
      <trkpt lat="44.56957" lon="2.67879">
        <ele>414</ele>
        <time>2012-06-11T07:46:49Z</time>
      </trkpt>
      <trkpt lat="44.56954" lon="2.67878">
        <ele>414</ele>
        <time>2012-06-11T07:46:51Z</time>
      </trkpt>
      <trkpt lat="44.56952" lon="2.67877">
        <ele>414</ele>
        <time>2012-06-11T07:46:53Z</time>
      </trkpt>
      <trkpt lat="44.5695" lon="2.67876">
        <ele>414</ele>
        <time>2012-06-11T07:46:54Z</time>
      </trkpt>
      <trkpt lat="44.56949" lon="2.67877">
        <ele>414</ele>
        <time>2012-06-11T07:46:55Z</time>
      </trkpt>
      <trkpt lat="44.56947" lon="2.67877">
        <ele>414</ele>
        <time>2012-06-11T07:46:56Z</time>
      </trkpt>
      <trkpt lat="44.56946" lon="2.67877">
        <ele>414</ele>
        <time>2012-06-11T07:46:57Z</time>
      </trkpt>
      <trkpt lat="44.56943" lon="2.67876">
        <ele>414</ele>
        <time>2012-06-11T07:46:58Z</time>
      </trkpt>
      <trkpt lat="44.56942" lon="2.67874">
        <ele>414</ele>
        <time>2012-06-11T07:46:59Z</time>
      </trkpt>
      <trkpt lat="44.5694" lon="2.67875">
        <ele>413</ele>
        <time>2012-06-11T07:47:00Z</time>
      </trkpt>
      <trkpt lat="44.56939" lon="2.67875">
        <ele>412</ele>
        <time>2012-06-11T07:47:01Z</time>
      </trkpt>
      <trkpt lat="44.56937" lon="2.67875">
        <ele>411</ele>
        <time>2012-06-11T07:47:02Z</time>
      </trkpt>
      <trkpt lat="44.56936" lon="2.67876">
        <ele>410</ele>
        <time>2012-06-11T07:47:03Z</time>
      </trkpt>
      <trkpt lat="44.56934" lon="2.67875">
        <ele>409</ele>
        <time>2012-06-11T07:47:04Z</time>
      </trkpt>
      <trkpt lat="44.56933" lon="2.67874">
        <ele>408</ele>
        <time>2012-06-11T07:47:05Z</time>
      </trkpt>
      <trkpt lat="44.56931" lon="2.67874">
        <ele>408</ele>
        <time>2012-06-11T07:47:06Z</time>
      </trkpt>
      <trkpt lat="44.56929" lon="2.67873">
        <ele>408</ele>
        <time>2012-06-11T07:47:07Z</time>
      </trkpt>
      <trkpt lat="44.56928" lon="2.67872">
        <ele>408</ele>
        <time>2012-06-11T07:47:08Z</time>
      </trkpt>
      <trkpt lat="44.56927" lon="2.67872">
        <ele>408</ele>
        <time>2012-06-11T07:47:09Z</time>
      </trkpt>
      <trkpt lat="44.56924" lon="2.67872">
        <ele>408</ele>
        <time>2012-06-11T07:47:11Z</time>
      </trkpt>
      <trkpt lat="44.56922" lon="2.67872">
        <ele>408</ele>
        <time>2012-06-11T07:47:12Z</time>
      </trkpt>
      <trkpt lat="44.56921" lon="2.67873">
        <ele>408</ele>
        <time>2012-06-11T07:47:13Z</time>
      </trkpt>
      <trkpt lat="44.5692" lon="2.67873">
        <ele>408</ele>
        <time>2012-06-11T07:47:14Z</time>
      </trkpt>
      <trkpt lat="44.56917" lon="2.67873">
        <ele>408</ele>
        <time>2012-06-11T07:47:15Z</time>
      </trkpt>
      <trkpt lat="44.56915" lon="2.67873">
        <ele>408</ele>
        <time>2012-06-11T07:47:16Z</time>
      </trkpt>
      <trkpt lat="44.56913" lon="2.67873">
        <ele>408</ele>
        <time>2012-06-11T07:47:17Z</time>
      </trkpt>
      <trkpt lat="44.56912" lon="2.67873">
        <ele>408</ele>
        <time>2012-06-11T07:47:18Z</time>
      </trkpt>
      <trkpt lat="44.5691" lon="2.67874">
        <ele>408</ele>
        <time>2012-06-11T07:47:19Z</time>
      </trkpt>
      <trkpt lat="44.56908" lon="2.67874">
        <ele>408</ele>
        <time>2012-06-11T07:47:20Z</time>
      </trkpt>
      <trkpt lat="44.56905" lon="2.67874">
        <ele>408</ele>
        <time>2012-06-11T07:47:22Z</time>
      </trkpt>
      <trkpt lat="44.56903" lon="2.67873">
        <ele>408</ele>
        <time>2012-06-11T07:47:24Z</time>
      </trkpt>
      <trkpt lat="44.56901" lon="2.67874">
        <ele>408</ele>
        <time>2012-06-11T07:47:25Z</time>
      </trkpt>
      <trkpt lat="44.56899" lon="2.67874">
        <ele>408</ele>
        <time>2012-06-11T07:47:26Z</time>
      </trkpt>
      <trkpt lat="44.56897" lon="2.67875">
        <ele>408</ele>
        <time>2012-06-11T07:47:27Z</time>
      </trkpt>
      <trkpt lat="44.56896" lon="2.67875">
        <ele>408</ele>
        <time>2012-06-11T07:47:28Z</time>
      </trkpt>
      <trkpt lat="44.56895" lon="2.67874">
        <ele>408</ele>
        <time>2012-06-11T07:47:29Z</time>
      </trkpt>
      <trkpt lat="44.56893" lon="2.67874">
        <ele>408</ele>
        <time>2012-06-11T07:47:30Z</time>
      </trkpt>
      <trkpt lat="44.56892" lon="2.67874">
        <ele>408</ele>
        <time>2012-06-11T07:47:31Z</time>
      </trkpt>
      <trkpt lat="44.56889" lon="2.67875">
        <ele>408</ele>
        <time>2012-06-11T07:47:33Z</time>
      </trkpt>
      <trkpt lat="44.56887" lon="2.67875">
        <ele>408</ele>
        <time>2012-06-11T07:47:34Z</time>
      </trkpt>
      <trkpt lat="44.56881" lon="2.67875">
        <ele>408</ele>
        <time>2012-06-11T07:47:38Z</time>
      </trkpt>
      <trkpt lat="44.56879" lon="2.67875">
        <ele>408</ele>
        <time>2012-06-11T07:47:39Z</time>
      </trkpt>
      <trkpt lat="44.56877" lon="2.67876">
        <ele>408</ele>
        <time>2012-06-11T07:47:40Z</time>
      </trkpt>
      <trkpt lat="44.56876" lon="2.67878">
        <ele>408</ele>
        <time>2012-06-11T07:47:41Z</time>
      </trkpt>
      <trkpt lat="44.56874" lon="2.67879">
        <ele>408</ele>
        <time>2012-06-11T07:47:42Z</time>
      </trkpt>
      <trkpt lat="44.56873" lon="2.6788">
        <ele>408</ele>
        <time>2012-06-11T07:47:43Z</time>
      </trkpt>
      <trkpt lat="44.56871" lon="2.67883">
        <ele>408</ele>
        <time>2012-06-11T07:47:44Z</time>
      </trkpt>
      <trkpt lat="44.5687" lon="2.67885">
        <ele>408</ele>
        <time>2012-06-11T07:47:45Z</time>
      </trkpt>
      <trkpt lat="44.56868" lon="2.67885">
        <ele>408</ele>
        <time>2012-06-11T07:47:46Z</time>
      </trkpt>
      <trkpt lat="44.56866" lon="2.67886">
        <ele>408</ele>
        <time>2012-06-11T07:47:47Z</time>
      </trkpt>
      <trkpt lat="44.56865" lon="2.67886">
        <ele>408</ele>
        <time>2012-06-11T07:47:48Z</time>
      </trkpt>
      <trkpt lat="44.56863" lon="2.67886">
        <ele>408</ele>
        <time>2012-06-11T07:47:49Z</time>
      </trkpt>
      <trkpt lat="44.56861" lon="2.67886">
        <ele>408</ele>
        <time>2012-06-11T07:47:50Z</time>
      </trkpt>
      <trkpt lat="44.5686" lon="2.67886">
        <ele>408</ele>
        <time>2012-06-11T07:47:51Z</time>
      </trkpt>
      <trkpt lat="44.56858" lon="2.67887">
        <ele>408</ele>
        <time>2012-06-11T07:47:52Z</time>
      </trkpt>
      <trkpt lat="44.56856" lon="2.67887">
        <ele>408</ele>
        <time>2012-06-11T07:47:53Z</time>
      </trkpt>
      <trkpt lat="44.56855" lon="2.67889">
        <ele>408</ele>
        <time>2012-06-11T07:47:54Z</time>
      </trkpt>
      <trkpt lat="44.56853" lon="2.67889">
        <ele>407</ele>
        <time>2012-06-11T07:47:55Z</time>
      </trkpt>
      <trkpt lat="44.56851" lon="2.67891">
        <ele>407</ele>
        <time>2012-06-11T07:47:56Z</time>
      </trkpt>
      <trkpt lat="44.56849" lon="2.67891">
        <ele>407</ele>
        <time>2012-06-11T07:47:57Z</time>
      </trkpt>
      <trkpt lat="44.56848" lon="2.67889">
        <ele>406</ele>
        <time>2012-06-11T07:47:58Z</time>
      </trkpt>
      <trkpt lat="44.56846" lon="2.6789">
        <ele>405</ele>
        <time>2012-06-11T07:47:59Z</time>
      </trkpt>
      <trkpt lat="44.56845" lon="2.6789">
        <ele>404</ele>
        <time>2012-06-11T07:48:00Z</time>
      </trkpt>
      <trkpt lat="44.56843" lon="2.67891">
        <ele>403</ele>
        <time>2012-06-11T07:48:01Z</time>
      </trkpt>
      <trkpt lat="44.56841" lon="2.67891">
        <ele>402</ele>
        <time>2012-06-11T07:48:02Z</time>
      </trkpt>
      <trkpt lat="44.5684" lon="2.67891">
        <ele>402</ele>
        <time>2012-06-11T07:48:03Z</time>
      </trkpt>
      <trkpt lat="44.56839" lon="2.67891">
        <ele>401</ele>
        <time>2012-06-11T07:48:04Z</time>
      </trkpt>
      <trkpt lat="44.56837" lon="2.67892">
        <ele>400</ele>
        <time>2012-06-11T07:48:05Z</time>
      </trkpt>
      <trkpt lat="44.56836" lon="2.67892">
        <ele>400</ele>
        <time>2012-06-11T07:48:06Z</time>
      </trkpt>
      <trkpt lat="44.56834" lon="2.67893">
        <ele>399</ele>
        <time>2012-06-11T07:48:07Z</time>
      </trkpt>
      <trkpt lat="44.56833" lon="2.67894">
        <ele>399</ele>
        <time>2012-06-11T07:48:08Z</time>
      </trkpt>
      <trkpt lat="44.56831" lon="2.67895">
        <ele>398</ele>
        <time>2012-06-11T07:48:09Z</time>
      </trkpt>
      <trkpt lat="44.56829" lon="2.67895">
        <ele>398</ele>
        <time>2012-06-11T07:48:10Z</time>
      </trkpt>
      <trkpt lat="44.56828" lon="2.67896">
        <ele>398</ele>
        <time>2012-06-11T07:48:11Z</time>
      </trkpt>
      <trkpt lat="44.56826" lon="2.67897">
        <ele>398</ele>
        <time>2012-06-11T07:48:12Z</time>
      </trkpt>
      <trkpt lat="44.56824" lon="2.67898">
        <ele>397</ele>
        <time>2012-06-11T07:48:13Z</time>
      </trkpt>
      <trkpt lat="44.56823" lon="2.67899">
        <ele>397</ele>
        <time>2012-06-11T07:48:14Z</time>
      </trkpt>
      <trkpt lat="44.56821" lon="2.679">
        <ele>397</ele>
        <time>2012-06-11T07:48:15Z</time>
      </trkpt>
      <trkpt lat="44.56819" lon="2.67902">
        <ele>397</ele>
        <time>2012-06-11T07:48:16Z</time>
      </trkpt>
      <trkpt lat="44.56818" lon="2.67904">
        <ele>396</ele>
        <time>2012-06-11T07:48:17Z</time>
      </trkpt>
      <trkpt lat="44.56816" lon="2.67905">
        <ele>396</ele>
        <time>2012-06-11T07:48:18Z</time>
      </trkpt>
      <trkpt lat="44.56815" lon="2.67906">
        <ele>396</ele>
        <time>2012-06-11T07:48:19Z</time>
      </trkpt>
      <trkpt lat="44.56814" lon="2.67906">
        <ele>395</ele>
        <time>2012-06-11T07:48:20Z</time>
      </trkpt>
      <trkpt lat="44.56812" lon="2.67906">
        <ele>395</ele>
        <time>2012-06-11T07:48:21Z</time>
      </trkpt>
      <trkpt lat="44.56811" lon="2.67907">
        <ele>395</ele>
        <time>2012-06-11T07:48:22Z</time>
      </trkpt>
      <trkpt lat="44.56809" lon="2.67907">
        <ele>394</ele>
        <time>2012-06-11T07:48:23Z</time>
      </trkpt>
      <trkpt lat="44.56806" lon="2.67907">
        <ele>393</ele>
        <time>2012-06-11T07:48:24Z</time>
      </trkpt>
      <trkpt lat="44.56805" lon="2.67908">
        <ele>392</ele>
        <time>2012-06-11T07:48:25Z</time>
      </trkpt>
      <trkpt lat="44.56803" lon="2.67909">
        <ele>391</ele>
        <time>2012-06-11T07:48:26Z</time>
      </trkpt>
      <trkpt lat="44.56802" lon="2.6791">
        <ele>390</ele>
        <time>2012-06-11T07:48:27Z</time>
      </trkpt>
      <trkpt lat="44.568" lon="2.67911">
        <ele>389</ele>
        <time>2012-06-11T07:48:28Z</time>
      </trkpt>
      <trkpt lat="44.56799" lon="2.67911">
        <ele>389</ele>
        <time>2012-06-11T07:48:29Z</time>
      </trkpt>
      <trkpt lat="44.56797" lon="2.67912">
        <ele>389</ele>
        <time>2012-06-11T07:48:30Z</time>
      </trkpt>
      <trkpt lat="44.56796" lon="2.67913">
        <ele>388</ele>
        <time>2012-06-11T07:48:31Z</time>
      </trkpt>
      <trkpt lat="44.56795" lon="2.67914">
        <ele>388</ele>
        <time>2012-06-11T07:48:32Z</time>
      </trkpt>
      <trkpt lat="44.56794" lon="2.67915">
        <ele>388</ele>
        <time>2012-06-11T07:48:33Z</time>
      </trkpt>
      <trkpt lat="44.56792" lon="2.67916">
        <ele>388</ele>
        <time>2012-06-11T07:48:34Z</time>
      </trkpt>
      <trkpt lat="44.5679" lon="2.67917">
        <ele>387</ele>
        <time>2012-06-11T07:48:36Z</time>
      </trkpt>
      <trkpt lat="44.56789" lon="2.67918">
        <ele>387</ele>
        <time>2012-06-11T07:48:37Z</time>
      </trkpt>
      <trkpt lat="44.56787" lon="2.67919">
        <ele>387</ele>
        <time>2012-06-11T07:48:38Z</time>
      </trkpt>
      <trkpt lat="44.56785" lon="2.67919">
        <ele>386</ele>
        <time>2012-06-11T07:48:39Z</time>
      </trkpt>
      <trkpt lat="44.56784" lon="2.67919">
        <ele>385</ele>
        <time>2012-06-11T07:48:40Z</time>
      </trkpt>
      <trkpt lat="44.56782" lon="2.6792">
        <ele>385</ele>
        <time>2012-06-11T07:48:41Z</time>
      </trkpt>
      <trkpt lat="44.56781" lon="2.67919">
        <ele>384</ele>
        <time>2012-06-11T07:48:42Z</time>
      </trkpt>
      <trkpt lat="44.56779" lon="2.67918">
        <ele>383</ele>
        <time>2012-06-11T07:48:45Z</time>
      </trkpt>
      <trkpt lat="44.56778" lon="2.67916">
        <ele>380</ele>
        <time>2012-06-11T07:48:53Z</time>
      </trkpt>
      <trkpt lat="44.56777" lon="2.67915">
        <ele>380</ele>
        <time>2012-06-11T07:48:56Z</time>
      </trkpt>
      <trkpt lat="44.56776" lon="2.67913">
        <ele>380</ele>
        <time>2012-06-11T07:48:58Z</time>
      </trkpt>
      <trkpt lat="44.56775" lon="2.67912">
        <ele>380</ele>
        <time>2012-06-11T07:49:05Z</time>
      </trkpt>
      <trkpt lat="44.56776" lon="2.67913">
        <ele>380</ele>
        <time>2012-06-11T07:49:41Z</time>
      </trkpt>
      <trkpt lat="44.56776" lon="2.67914">
        <ele>379</ele>
        <time>2012-06-11T07:49:48Z</time>
      </trkpt>
      <trkpt lat="44.56775" lon="2.67914">
        <ele>378</ele>
        <time>2012-06-11T07:49:58Z</time>
      </trkpt>
      <trkpt lat="44.56773" lon="2.67913">
        <ele>378</ele>
        <time>2012-06-11T07:49:59Z</time>
      </trkpt>
      <trkpt lat="44.56772" lon="2.67913">
        <ele>378</ele>
        <time>2012-06-11T07:50:00Z</time>
      </trkpt>
      <trkpt lat="44.5677" lon="2.67913">
        <ele>378</ele>
        <time>2012-06-11T07:50:01Z</time>
      </trkpt>
      <trkpt lat="44.56768" lon="2.67912">
        <ele>378</ele>
        <time>2012-06-11T07:50:03Z</time>
      </trkpt>
      <trkpt lat="44.56767" lon="2.6791">
        <ele>378</ele>
        <time>2012-06-11T07:50:04Z</time>
      </trkpt>
      <trkpt lat="44.56765" lon="2.67909">
        <ele>377</ele>
        <time>2012-06-11T07:50:06Z</time>
      </trkpt>
      <trkpt lat="44.56763" lon="2.67906">
        <ele>377</ele>
        <time>2012-06-11T07:50:08Z</time>
      </trkpt>
      <trkpt lat="44.56761" lon="2.67904">
        <ele>376</ele>
        <time>2012-06-11T07:50:10Z</time>
      </trkpt>
      <trkpt lat="44.56759" lon="2.679">
        <ele>375</ele>
        <time>2012-06-11T07:50:12Z</time>
      </trkpt>
      <trkpt lat="44.56758" lon="2.67899">
        <ele>375</ele>
        <time>2012-06-11T07:50:13Z</time>
      </trkpt>
      <trkpt lat="44.56757" lon="2.67898">
        <ele>375</ele>
        <time>2012-06-11T07:50:14Z</time>
      </trkpt>
      <trkpt lat="44.56756" lon="2.67896">
        <ele>374</ele>
        <time>2012-06-11T07:50:15Z</time>
      </trkpt>
      <trkpt lat="44.56754" lon="2.67893">
        <ele>373</ele>
        <time>2012-06-11T07:50:17Z</time>
      </trkpt>
      <trkpt lat="44.56752" lon="2.67891">
        <ele>373</ele>
        <time>2012-06-11T07:50:18Z</time>
      </trkpt>
      <trkpt lat="44.56751" lon="2.6789">
        <ele>373</ele>
        <time>2012-06-11T07:50:19Z</time>
      </trkpt>
      <trkpt lat="44.5675" lon="2.67888">
        <ele>373</ele>
        <time>2012-06-11T07:50:20Z</time>
      </trkpt>
      <trkpt lat="44.56749" lon="2.67886">
        <ele>373</ele>
        <time>2012-06-11T07:50:21Z</time>
      </trkpt>
      <trkpt lat="44.56748" lon="2.67884">
        <ele>373</ele>
        <time>2012-06-11T07:50:22Z</time>
      </trkpt>
      <trkpt lat="44.56746" lon="2.67881">
        <ele>373</ele>
        <time>2012-06-11T07:50:24Z</time>
      </trkpt>
      <trkpt lat="44.56745" lon="2.6788">
        <ele>373</ele>
        <time>2012-06-11T07:50:25Z</time>
      </trkpt>
      <trkpt lat="44.56743" lon="2.67877">
        <ele>372</ele>
        <time>2012-06-11T07:50:27Z</time>
      </trkpt>
      <trkpt lat="44.56742" lon="2.67876">
        <ele>372</ele>
        <time>2012-06-11T07:50:28Z</time>
      </trkpt>
      <trkpt lat="44.56741" lon="2.67874">
        <ele>371</ele>
        <time>2012-06-11T07:50:29Z</time>
      </trkpt>
      <trkpt lat="44.56739" lon="2.67873">
        <ele>371</ele>
        <time>2012-06-11T07:50:30Z</time>
      </trkpt>
      <trkpt lat="44.56738" lon="2.67871">
        <ele>371</ele>
        <time>2012-06-11T07:50:31Z</time>
      </trkpt>
      <trkpt lat="44.56737" lon="2.67868">
        <ele>371</ele>
        <time>2012-06-11T07:50:32Z</time>
      </trkpt>
      <trkpt lat="44.56736" lon="2.67867">
        <ele>371</ele>
        <time>2012-06-11T07:50:33Z</time>
      </trkpt>
      <trkpt lat="44.56734" lon="2.67865">
        <ele>371</ele>
        <time>2012-06-11T07:50:34Z</time>
      </trkpt>
      <trkpt lat="44.56734" lon="2.67863">
        <ele>371</ele>
        <time>2012-06-11T07:50:35Z</time>
      </trkpt>
      <trkpt lat="44.56733" lon="2.67862">
        <ele>371</ele>
        <time>2012-06-11T07:50:36Z</time>
      </trkpt>
      <trkpt lat="44.56731" lon="2.67861">
        <ele>371</ele>
        <time>2012-06-11T07:50:37Z</time>
      </trkpt>
      <trkpt lat="44.5673" lon="2.6786">
        <ele>371</ele>
        <time>2012-06-11T07:50:38Z</time>
      </trkpt>
      <trkpt lat="44.56728" lon="2.67858">
        <ele>371</ele>
        <time>2012-06-11T07:50:40Z</time>
      </trkpt>
      <trkpt lat="44.56726" lon="2.67856">
        <ele>371</ele>
        <time>2012-06-11T07:50:42Z</time>
      </trkpt>
      <trkpt lat="44.56724" lon="2.67856">
        <ele>371</ele>
        <time>2012-06-11T07:50:43Z</time>
      </trkpt>
      <trkpt lat="44.56722" lon="2.67854">
        <ele>371</ele>
        <time>2012-06-11T07:50:44Z</time>
      </trkpt>
      <trkpt lat="44.56721" lon="2.67854">
        <ele>371</ele>
        <time>2012-06-11T07:50:45Z</time>
      </trkpt>
      <trkpt lat="44.56719" lon="2.67851">
        <ele>371</ele>
        <time>2012-06-11T07:50:47Z</time>
      </trkpt>
      <trkpt lat="44.56718" lon="2.6785">
        <ele>371</ele>
        <time>2012-06-11T07:50:48Z</time>
      </trkpt>
      <trkpt lat="44.56717" lon="2.67849">
        <ele>371</ele>
        <time>2012-06-11T07:50:49Z</time>
      </trkpt>
      <trkpt lat="44.56715" lon="2.67847">
        <ele>371</ele>
        <time>2012-06-11T07:50:50Z</time>
      </trkpt>
      <trkpt lat="44.56713" lon="2.67847">
        <ele>371</ele>
        <time>2012-06-11T07:50:51Z</time>
      </trkpt>
      <trkpt lat="44.56712" lon="2.67846">
        <ele>371</ele>
        <time>2012-06-11T07:50:52Z</time>
      </trkpt>
      <trkpt lat="44.5671" lon="2.67845">
        <ele>371</ele>
        <time>2012-06-11T07:50:53Z</time>
      </trkpt>
      <trkpt lat="44.56709" lon="2.67844">
        <ele>371</ele>
        <time>2012-06-11T07:50:54Z</time>
      </trkpt>
      <trkpt lat="44.56707" lon="2.67843">
        <ele>371</ele>
        <time>2012-06-11T07:50:55Z</time>
      </trkpt>
      <trkpt lat="44.56706" lon="2.67842">
        <ele>371</ele>
        <time>2012-06-11T07:50:56Z</time>
      </trkpt>
      <trkpt lat="44.56704" lon="2.67841">
        <ele>371</ele>
        <time>2012-06-11T07:50:57Z</time>
      </trkpt>
      <trkpt lat="44.56703" lon="2.6784">
        <ele>371</ele>
        <time>2012-06-11T07:50:58Z</time>
      </trkpt>
      <trkpt lat="44.56702" lon="2.67841">
        <ele>371</ele>
        <time>2012-06-11T07:50:59Z</time>
      </trkpt>
      <trkpt lat="44.56699" lon="2.6784">
        <ele>371</ele>
        <time>2012-06-11T07:51:00Z</time>
      </trkpt>
      <trkpt lat="44.56697" lon="2.6784">
        <ele>371</ele>
        <time>2012-06-11T07:51:01Z</time>
      </trkpt>
      <trkpt lat="44.56696" lon="2.6784">
        <ele>371</ele>
        <time>2012-06-11T07:51:02Z</time>
      </trkpt>
      <trkpt lat="44.56694" lon="2.67838">
        <ele>371</ele>
        <time>2012-06-11T07:51:03Z</time>
      </trkpt>
      <trkpt lat="44.56692" lon="2.67838">
        <ele>371</ele>
        <time>2012-06-11T07:51:04Z</time>
      </trkpt>
      <trkpt lat="44.56691" lon="2.67837">
        <ele>371</ele>
        <time>2012-06-11T07:51:05Z</time>
      </trkpt>
      <trkpt lat="44.56689" lon="2.67836">
        <ele>371</ele>
        <time>2012-06-11T07:51:06Z</time>
      </trkpt>
      <trkpt lat="44.56687" lon="2.67834">
        <ele>371</ele>
        <time>2012-06-11T07:51:07Z</time>
      </trkpt>
      <trkpt lat="44.56685" lon="2.67834">
        <ele>371</ele>
        <time>2012-06-11T07:51:08Z</time>
      </trkpt>
      <trkpt lat="44.56683" lon="2.67834">
        <ele>371</ele>
        <time>2012-06-11T07:51:09Z</time>
      </trkpt>
      <trkpt lat="44.56681" lon="2.67834">
        <ele>371</ele>
        <time>2012-06-11T07:51:10Z</time>
      </trkpt>
      <trkpt lat="44.56679" lon="2.67832">
        <ele>371</ele>
        <time>2012-06-11T07:51:11Z</time>
      </trkpt>
      <trkpt lat="44.56677" lon="2.67831">
        <ele>371</ele>
        <time>2012-06-11T07:51:12Z</time>
      </trkpt>
      <trkpt lat="44.56675" lon="2.67831">
        <ele>371</ele>
        <time>2012-06-11T07:51:13Z</time>
      </trkpt>
      <trkpt lat="44.56673" lon="2.6783">
        <ele>371</ele>
        <time>2012-06-11T07:51:14Z</time>
      </trkpt>
      <trkpt lat="44.56669" lon="2.6783">
        <ele>371</ele>
        <time>2012-06-11T07:51:16Z</time>
      </trkpt>
      <trkpt lat="44.56668" lon="2.6783">
        <ele>371</ele>
        <time>2012-06-11T07:51:17Z</time>
      </trkpt>
      <trkpt lat="44.56666" lon="2.6783">
        <ele>371</ele>
        <time>2012-06-11T07:51:19Z</time>
      </trkpt>
      <trkpt lat="44.56665" lon="2.6783">
        <ele>371</ele>
        <time>2012-06-11T07:51:22Z</time>
      </trkpt>
      <trkpt lat="44.56667" lon="2.6783">
        <ele>371</ele>
        <time>2012-06-11T07:51:28Z</time>
      </trkpt>
      <trkpt lat="44.56672" lon="2.67831">
        <ele>371</ele>
        <time>2012-06-11T07:51:31Z</time>
      </trkpt>
      <trkpt lat="44.56674" lon="2.67833">
        <ele>371</ele>
        <time>2012-06-11T07:51:32Z</time>
      </trkpt>
      <trkpt lat="44.56677" lon="2.67833">
        <ele>369</ele>
        <time>2012-06-11T07:51:34Z</time>
      </trkpt>
      <trkpt lat="44.56681" lon="2.67833">
        <ele>368</ele>
        <time>2012-06-11T07:51:36Z</time>
      </trkpt>
      <trkpt lat="44.56682" lon="2.67832">
        <ele>367</ele>
        <time>2012-06-11T07:51:37Z</time>
      </trkpt>
      <trkpt lat="44.56683" lon="2.67833">
        <ele>367</ele>
        <time>2012-06-11T07:51:38Z</time>
      </trkpt>
      <trkpt lat="44.56682" lon="2.67832">
        <ele>367</ele>
        <time>2012-06-11T07:51:42Z</time>
      </trkpt>
      <trkpt lat="44.56679" lon="2.67831">
        <ele>367</ele>
        <time>2012-06-11T07:51:44Z</time>
      </trkpt>
      <trkpt lat="44.56677" lon="2.6783">
        <ele>367</ele>
        <time>2012-06-11T07:51:45Z</time>
      </trkpt>
      <trkpt lat="44.56675" lon="2.6783">
        <ele>366</ele>
        <time>2012-06-11T07:51:46Z</time>
      </trkpt>
      <trkpt lat="44.56674" lon="2.6783">
        <ele>366</ele>
        <time>2012-06-11T07:51:47Z</time>
      </trkpt>
      <trkpt lat="44.56672" lon="2.6783">
        <ele>365</ele>
        <time>2012-06-11T07:51:48Z</time>
      </trkpt>
      <trkpt lat="44.56671" lon="2.6783">
        <ele>365</ele>
        <time>2012-06-11T07:51:49Z</time>
      </trkpt>
      <trkpt lat="44.5667" lon="2.6783">
        <ele>364</ele>
        <time>2012-06-11T07:51:50Z</time>
      </trkpt>
      <trkpt lat="44.56666" lon="2.67829">
        <ele>364</ele>
        <time>2012-06-11T07:51:52Z</time>
      </trkpt>
      <trkpt lat="44.56664" lon="2.67829">
        <ele>364</ele>
        <time>2012-06-11T07:51:53Z</time>
      </trkpt>
      <trkpt lat="44.56659" lon="2.67828">
        <ele>362</ele>
        <time>2012-06-11T07:51:57Z</time>
      </trkpt>
      <trkpt lat="44.56656" lon="2.67829">
        <ele>362</ele>
        <time>2012-06-11T07:51:59Z</time>
      </trkpt>
      <trkpt lat="44.56654" lon="2.67829">
        <ele>362</ele>
        <time>2012-06-11T07:52:00Z</time>
      </trkpt>
      <trkpt lat="44.56652" lon="2.67829">
        <ele>362</ele>
        <time>2012-06-11T07:52:01Z</time>
      </trkpt>
      <trkpt lat="44.5665" lon="2.67829">
        <ele>362</ele>
        <time>2012-06-11T07:52:02Z</time>
      </trkpt>
      <trkpt lat="44.56648" lon="2.67829">
        <ele>361</ele>
        <time>2012-06-11T07:52:03Z</time>
      </trkpt>
      <trkpt lat="44.56646" lon="2.6783">
        <ele>361</ele>
        <time>2012-06-11T07:52:04Z</time>
      </trkpt>
      <trkpt lat="44.56645" lon="2.6783">
        <ele>361</ele>
        <time>2012-06-11T07:52:05Z</time>
      </trkpt>
      <trkpt lat="44.56643" lon="2.67831">
        <ele>361</ele>
        <time>2012-06-11T07:52:06Z</time>
      </trkpt>
      <trkpt lat="44.56642" lon="2.67831">
        <ele>360</ele>
        <time>2012-06-11T07:52:07Z</time>
      </trkpt>
      <trkpt lat="44.5664" lon="2.67832">
        <ele>360</ele>
        <time>2012-06-11T07:52:08Z</time>
      </trkpt>
      <trkpt lat="44.56639" lon="2.67832">
        <ele>359</ele>
        <time>2012-06-11T07:52:09Z</time>
      </trkpt>
      <trkpt lat="44.56636" lon="2.67832">
        <ele>359</ele>
        <time>2012-06-11T07:52:10Z</time>
      </trkpt>
      <trkpt lat="44.56635" lon="2.67832">
        <ele>359</ele>
        <time>2012-06-11T07:52:11Z</time>
      </trkpt>
      <trkpt lat="44.56633" lon="2.67832">
        <ele>359</ele>
        <time>2012-06-11T07:52:12Z</time>
      </trkpt>
      <trkpt lat="44.5663" lon="2.67832">
        <ele>359</ele>
        <time>2012-06-11T07:52:13Z</time>
      </trkpt>
      <trkpt lat="44.56628" lon="2.67831">
        <ele>359</ele>
        <time>2012-06-11T07:52:14Z</time>
      </trkpt>
      <trkpt lat="44.56627" lon="2.67832">
        <ele>359</ele>
        <time>2012-06-11T07:52:15Z</time>
      </trkpt>
      <trkpt lat="44.56623" lon="2.67832">
        <ele>359</ele>
        <time>2012-06-11T07:52:17Z</time>
      </trkpt>
      <trkpt lat="44.56621" lon="2.67831">
        <ele>359</ele>
        <time>2012-06-11T07:52:18Z</time>
      </trkpt>
      <trkpt lat="44.5662" lon="2.67831">
        <ele>359</ele>
        <time>2012-06-11T07:52:19Z</time>
      </trkpt>
      <trkpt lat="44.56618" lon="2.67831">
        <ele>358</ele>
        <time>2012-06-11T07:52:20Z</time>
      </trkpt>
      <trkpt lat="44.56616" lon="2.6783">
        <ele>358</ele>
        <time>2012-06-11T07:52:21Z</time>
      </trkpt>
      <trkpt lat="44.56615" lon="2.6783">
        <ele>358</ele>
        <time>2012-06-11T07:52:22Z</time>
      </trkpt>
      <trkpt lat="44.56614" lon="2.6783">
        <ele>358</ele>
        <time>2012-06-11T07:52:23Z</time>
      </trkpt>
      <trkpt lat="44.56612" lon="2.67829">
        <ele>357</ele>
        <time>2012-06-11T07:52:24Z</time>
      </trkpt>
      <trkpt lat="44.5661" lon="2.67828">
        <ele>357</ele>
        <time>2012-06-11T07:52:25Z</time>
      </trkpt>
      <trkpt lat="44.56608" lon="2.67828">
        <ele>357</ele>
        <time>2012-06-11T07:52:26Z</time>
      </trkpt>
      <trkpt lat="44.56606" lon="2.67828">
        <ele>357</ele>
        <time>2012-06-11T07:52:27Z</time>
      </trkpt>
      <trkpt lat="44.56605" lon="2.67827">
        <ele>357</ele>
        <time>2012-06-11T07:52:28Z</time>
      </trkpt>
      <trkpt lat="44.56603" lon="2.67827">
        <ele>357</ele>
        <time>2012-06-11T07:52:29Z</time>
      </trkpt>
      <trkpt lat="44.566" lon="2.67827">
        <ele>357</ele>
        <time>2012-06-11T07:52:31Z</time>
      </trkpt>
      <trkpt lat="44.56599" lon="2.67826">
        <ele>357</ele>
        <time>2012-06-11T07:52:32Z</time>
      </trkpt>
      <trkpt lat="44.56597" lon="2.67826">
        <ele>357</ele>
        <time>2012-06-11T07:52:33Z</time>
      </trkpt>
      <trkpt lat="44.56594" lon="2.67826">
        <ele>357</ele>
        <time>2012-06-11T07:52:35Z</time>
      </trkpt>
      <trkpt lat="44.56588" lon="2.67827">
        <ele>357</ele>
        <time>2012-06-11T07:52:39Z</time>
      </trkpt>
      <trkpt lat="44.56586" lon="2.67828">
        <ele>357</ele>
        <time>2012-06-11T07:52:40Z</time>
      </trkpt>
      <trkpt lat="44.56584" lon="2.67828">
        <ele>357</ele>
        <time>2012-06-11T07:52:41Z</time>
      </trkpt>
      <trkpt lat="44.56583" lon="2.67829">
        <ele>357</ele>
        <time>2012-06-11T07:52:42Z</time>
      </trkpt>
      <trkpt lat="44.56581" lon="2.67829">
        <ele>357</ele>
        <time>2012-06-11T07:52:43Z</time>
      </trkpt>
      <trkpt lat="44.5658" lon="2.6783">
        <ele>357</ele>
        <time>2012-06-11T07:52:44Z</time>
      </trkpt>
      <trkpt lat="44.56578" lon="2.6783">
        <ele>357</ele>
        <time>2012-06-11T07:52:45Z</time>
      </trkpt>
      <trkpt lat="44.56576" lon="2.6783">
        <ele>357</ele>
        <time>2012-06-11T07:52:46Z</time>
      </trkpt>
      <trkpt lat="44.56572" lon="2.6783">
        <ele>357</ele>
        <time>2012-06-11T07:52:48Z</time>
      </trkpt>
      <trkpt lat="44.56571" lon="2.6783">
        <ele>357</ele>
        <time>2012-06-11T07:52:49Z</time>
      </trkpt>
      <trkpt lat="44.5657" lon="2.6783">
        <ele>357</ele>
        <time>2012-06-11T07:52:50Z</time>
      </trkpt>
      <trkpt lat="44.56566" lon="2.6783">
        <ele>357</ele>
        <time>2012-06-11T07:52:53Z</time>
      </trkpt>
      <trkpt lat="44.56565" lon="2.6783">
        <ele>357</ele>
        <time>2012-06-11T07:52:54Z</time>
      </trkpt>
      <trkpt lat="44.56563" lon="2.6783">
        <ele>358</ele>
        <time>2012-06-11T07:52:55Z</time>
      </trkpt>
      <trkpt lat="44.56562" lon="2.67831">
        <ele>358</ele>
        <time>2012-06-11T07:52:56Z</time>
      </trkpt>
      <trkpt lat="44.5656" lon="2.67831">
        <ele>359</ele>
        <time>2012-06-11T07:52:57Z</time>
      </trkpt>
      <trkpt lat="44.56558" lon="2.67831">
        <ele>360</ele>
        <time>2012-06-11T07:52:58Z</time>
      </trkpt>
      <trkpt lat="44.56557" lon="2.67831">
        <ele>360</ele>
        <time>2012-06-11T07:52:59Z</time>
      </trkpt>
      <trkpt lat="44.56556" lon="2.67831">
        <ele>361</ele>
        <time>2012-06-11T07:53:00Z</time>
      </trkpt>
      <trkpt lat="44.56552" lon="2.67831">
        <ele>361</ele>
        <time>2012-06-11T07:53:02Z</time>
      </trkpt>
      <trkpt lat="44.56551" lon="2.67831">
        <ele>361</ele>
        <time>2012-06-11T07:53:03Z</time>
      </trkpt>
      <trkpt lat="44.56548" lon="2.67832">
        <ele>362</ele>
        <time>2012-06-11T07:53:05Z</time>
      </trkpt>
      <trkpt lat="44.56546" lon="2.67832">
        <ele>362</ele>
        <time>2012-06-11T07:53:06Z</time>
      </trkpt>
      <trkpt lat="44.56544" lon="2.67832">
        <ele>362</ele>
        <time>2012-06-11T07:53:07Z</time>
      </trkpt>
      <trkpt lat="44.56542" lon="2.67833">
        <ele>362</ele>
        <time>2012-06-11T07:53:08Z</time>
      </trkpt>
      <trkpt lat="44.5654" lon="2.67834">
        <ele>362</ele>
        <time>2012-06-11T07:53:10Z</time>
      </trkpt>
      <trkpt lat="44.56536" lon="2.67835">
        <ele>362</ele>
        <time>2012-06-11T07:53:12Z</time>
      </trkpt>
      <trkpt lat="44.56535" lon="2.67834">
        <ele>362</ele>
        <time>2012-06-11T07:53:13Z</time>
      </trkpt>
      <trkpt lat="44.56533" lon="2.67835">
        <ele>362</ele>
        <time>2012-06-11T07:53:14Z</time>
      </trkpt>
      <trkpt lat="44.56532" lon="2.67836">
        <ele>362</ele>
        <time>2012-06-11T07:53:15Z</time>
      </trkpt>
      <trkpt lat="44.5653" lon="2.67838">
        <ele>363</ele>
        <time>2012-06-11T07:53:16Z</time>
      </trkpt>
      <trkpt lat="44.56529" lon="2.67838">
        <ele>363</ele>
        <time>2012-06-11T07:53:17Z</time>
      </trkpt>
      <trkpt lat="44.56527" lon="2.67838">
        <ele>364</ele>
        <time>2012-06-11T07:53:18Z</time>
      </trkpt>
      <trkpt lat="44.56525" lon="2.67838">
        <ele>364</ele>
        <time>2012-06-11T07:53:20Z</time>
      </trkpt>
      <trkpt lat="44.56522" lon="2.67838">
        <ele>365</ele>
        <time>2012-06-11T07:53:21Z</time>
      </trkpt>
      <trkpt lat="44.56519" lon="2.67838">
        <ele>365</ele>
        <time>2012-06-11T07:53:23Z</time>
      </trkpt>
      <trkpt lat="44.56517" lon="2.67837">
        <ele>365</ele>
        <time>2012-06-11T07:53:24Z</time>
      </trkpt>
      <trkpt lat="44.56516" lon="2.67837">
        <ele>365</ele>
        <time>2012-06-11T07:53:25Z</time>
      </trkpt>
      <trkpt lat="44.56514" lon="2.67837">
        <ele>365</ele>
        <time>2012-06-11T07:53:26Z</time>
      </trkpt>
      <trkpt lat="44.56512" lon="2.67838">
        <ele>365</ele>
        <time>2012-06-11T07:53:27Z</time>
      </trkpt>
      <trkpt lat="44.5651" lon="2.67838">
        <ele>365</ele>
        <time>2012-06-11T07:53:28Z</time>
      </trkpt>
      <trkpt lat="44.56508" lon="2.67839">
        <ele>365</ele>
        <time>2012-06-11T07:53:29Z</time>
      </trkpt>
      <trkpt lat="44.56506" lon="2.67839">
        <ele>365</ele>
        <time>2012-06-11T07:53:30Z</time>
      </trkpt>
      <trkpt lat="44.56505" lon="2.67839">
        <ele>365</ele>
        <time>2012-06-11T07:53:31Z</time>
      </trkpt>
      <trkpt lat="44.56504" lon="2.6784">
        <ele>365</ele>
        <time>2012-06-11T07:53:32Z</time>
      </trkpt>
      <trkpt lat="44.56501" lon="2.67842">
        <ele>365</ele>
        <time>2012-06-11T07:53:34Z</time>
      </trkpt>
      <trkpt lat="44.56499" lon="2.67843">
        <ele>365</ele>
        <time>2012-06-11T07:53:35Z</time>
      </trkpt>
      <trkpt lat="44.56498" lon="2.67843">
        <ele>364</ele>
        <time>2012-06-11T07:53:36Z</time>
      </trkpt>
      <trkpt lat="44.56496" lon="2.67844">
        <ele>363</ele>
        <time>2012-06-11T07:53:37Z</time>
      </trkpt>
      <trkpt lat="44.56495" lon="2.67844">
        <ele>362</ele>
        <time>2012-06-11T07:53:38Z</time>
      </trkpt>
      <trkpt lat="44.56493" lon="2.67845">
        <ele>362</ele>
        <time>2012-06-11T07:53:39Z</time>
      </trkpt>
      <trkpt lat="44.56491" lon="2.67846">
        <ele>362</ele>
        <time>2012-06-11T07:53:40Z</time>
      </trkpt>
      <trkpt lat="44.56489" lon="2.67847">
        <ele>362</ele>
        <time>2012-06-11T07:53:41Z</time>
      </trkpt>
      <trkpt lat="44.56487" lon="2.67848">
        <ele>361</ele>
        <time>2012-06-11T07:53:42Z</time>
      </trkpt>
      <trkpt lat="44.56485" lon="2.67848">
        <ele>361</ele>
        <time>2012-06-11T07:53:43Z</time>
      </trkpt>
      <trkpt lat="44.56484" lon="2.67849">
        <ele>360</ele>
        <time>2012-06-11T07:53:44Z</time>
      </trkpt>
      <trkpt lat="44.56482" lon="2.6785">
        <ele>360</ele>
        <time>2012-06-11T07:53:45Z</time>
      </trkpt>
      <trkpt lat="44.5648" lon="2.6785">
        <ele>359</ele>
        <time>2012-06-11T07:53:46Z</time>
      </trkpt>
      <trkpt lat="44.56478" lon="2.6785">
        <ele>358</ele>
        <time>2012-06-11T07:53:47Z</time>
      </trkpt>
      <trkpt lat="44.56477" lon="2.67851">
        <ele>357</ele>
        <time>2012-06-11T07:53:48Z</time>
      </trkpt>
      <trkpt lat="44.56475" lon="2.67852">
        <ele>356</ele>
        <time>2012-06-11T07:53:49Z</time>
      </trkpt>
      <trkpt lat="44.56474" lon="2.67852">
        <ele>355</ele>
        <time>2012-06-11T07:53:50Z</time>
      </trkpt>
      <trkpt lat="44.56472" lon="2.67853">
        <ele>354</ele>
        <time>2012-06-11T07:53:51Z</time>
      </trkpt>
      <trkpt lat="44.56471" lon="2.67854">
        <ele>354</ele>
        <time>2012-06-11T07:53:52Z</time>
      </trkpt>
      <trkpt lat="44.56469" lon="2.67855">
        <ele>353</ele>
        <time>2012-06-11T07:53:53Z</time>
      </trkpt>
      <trkpt lat="44.56467" lon="2.67855">
        <ele>353</ele>
        <time>2012-06-11T07:53:54Z</time>
      </trkpt>
      <trkpt lat="44.56466" lon="2.67856">
        <ele>353</ele>
        <time>2012-06-11T07:53:55Z</time>
      </trkpt>
      <trkpt lat="44.56464" lon="2.67857">
        <ele>353</ele>
        <time>2012-06-11T07:53:56Z</time>
      </trkpt>
      <trkpt lat="44.56462" lon="2.67857">
        <ele>353</ele>
        <time>2012-06-11T07:53:57Z</time>
      </trkpt>
      <trkpt lat="44.56461" lon="2.67858">
        <ele>353</ele>
        <time>2012-06-11T07:53:58Z</time>
      </trkpt>
      <trkpt lat="44.56459" lon="2.67859">
        <ele>353</ele>
        <time>2012-06-11T07:53:59Z</time>
      </trkpt>
      <trkpt lat="44.56457" lon="2.67859">
        <ele>353</ele>
        <time>2012-06-11T07:54:00Z</time>
      </trkpt>
      <trkpt lat="44.56455" lon="2.6786">
        <ele>353</ele>
        <time>2012-06-11T07:54:01Z</time>
      </trkpt>
      <trkpt lat="44.56454" lon="2.6786">
        <ele>353</ele>
        <time>2012-06-11T07:54:02Z</time>
      </trkpt>
      <trkpt lat="44.56452" lon="2.67861">
        <ele>353</ele>
        <time>2012-06-11T07:54:03Z</time>
      </trkpt>
      <trkpt lat="44.5645" lon="2.67861">
        <ele>352</ele>
        <time>2012-06-11T07:54:04Z</time>
      </trkpt>
      <trkpt lat="44.56448" lon="2.67861">
        <ele>352</ele>
        <time>2012-06-11T07:54:05Z</time>
      </trkpt>
      <trkpt lat="44.56447" lon="2.67862">
        <ele>352</ele>
        <time>2012-06-11T07:54:06Z</time>
      </trkpt>
      <trkpt lat="44.56445" lon="2.67862">
        <ele>352</ele>
        <time>2012-06-11T07:54:07Z</time>
      </trkpt>
      <trkpt lat="44.56443" lon="2.67862">
        <ele>352</ele>
        <time>2012-06-11T07:54:08Z</time>
      </trkpt>
      <trkpt lat="44.56442" lon="2.67862">
        <ele>352</ele>
        <time>2012-06-11T07:54:09Z</time>
      </trkpt>
      <trkpt lat="44.5644" lon="2.67863">
        <ele>352</ele>
        <time>2012-06-11T07:54:10Z</time>
      </trkpt>
      <trkpt lat="44.56438" lon="2.67863">
        <ele>352</ele>
        <time>2012-06-11T07:54:11Z</time>
      </trkpt>
      <trkpt lat="44.56434" lon="2.67863">
        <ele>352</ele>
        <time>2012-06-11T07:54:13Z</time>
      </trkpt>
      <trkpt lat="44.56429" lon="2.67863">
        <ele>352</ele>
        <time>2012-06-11T07:54:16Z</time>
      </trkpt>
      <trkpt lat="44.56428" lon="2.67863">
        <ele>352</ele>
        <time>2012-06-11T07:54:17Z</time>
      </trkpt>
      <trkpt lat="44.56426" lon="2.67863">
        <ele>352</ele>
        <time>2012-06-11T07:54:18Z</time>
      </trkpt>
      <trkpt lat="44.56425" lon="2.67864">
        <ele>352</ele>
        <time>2012-06-11T07:54:19Z</time>
      </trkpt>
      <trkpt lat="44.56422" lon="2.67863">
        <ele>352</ele>
        <time>2012-06-11T07:54:21Z</time>
      </trkpt>
      <trkpt lat="44.5642" lon="2.67863">
        <ele>352</ele>
        <time>2012-06-11T07:54:22Z</time>
      </trkpt>
      <trkpt lat="44.56419" lon="2.67862">
        <ele>352</ele>
        <time>2012-06-11T07:54:23Z</time>
      </trkpt>
      <trkpt lat="44.56417" lon="2.67862">
        <ele>352</ele>
        <time>2012-06-11T07:54:24Z</time>
      </trkpt>
      <trkpt lat="44.56416" lon="2.67861">
        <ele>352</ele>
        <time>2012-06-11T07:54:25Z</time>
      </trkpt>
      <trkpt lat="44.56414" lon="2.67861">
        <ele>352</ele>
        <time>2012-06-11T07:54:26Z</time>
      </trkpt>
      <trkpt lat="44.56413" lon="2.67861">
        <ele>352</ele>
        <time>2012-06-11T07:54:27Z</time>
      </trkpt>
      <trkpt lat="44.56411" lon="2.67861">
        <ele>352</ele>
        <time>2012-06-11T07:54:28Z</time>
      </trkpt>
      <trkpt lat="44.5641" lon="2.6786">
        <ele>352</ele>
        <time>2012-06-11T07:54:29Z</time>
      </trkpt>
      <trkpt lat="44.56408" lon="2.67859">
        <ele>352</ele>
        <time>2012-06-11T07:54:30Z</time>
      </trkpt>
      <trkpt lat="44.56406" lon="2.67859">
        <ele>352</ele>
        <time>2012-06-11T07:54:31Z</time>
      </trkpt>
      <trkpt lat="44.56405" lon="2.67858">
        <ele>352</ele>
        <time>2012-06-11T07:54:34Z</time>
      </trkpt>
      <trkpt lat="44.56404" lon="2.67858">
        <ele>352</ele>
        <time>2012-06-11T07:54:45Z</time>
      </trkpt>
      <trkpt lat="44.56403" lon="2.67858">
        <ele>352</ele>
        <time>2012-06-11T07:54:46Z</time>
      </trkpt>
      <trkpt lat="44.56401" lon="2.67857">
        <ele>352</ele>
        <time>2012-06-11T07:54:47Z</time>
      </trkpt>
      <trkpt lat="44.564" lon="2.67857">
        <ele>352</ele>
        <time>2012-06-11T07:54:48Z</time>
      </trkpt>
      <trkpt lat="44.56399" lon="2.67856">
        <ele>352</ele>
        <time>2012-06-11T07:54:49Z</time>
      </trkpt>
      <trkpt lat="44.56397" lon="2.67855">
        <ele>352</ele>
        <time>2012-06-11T07:54:50Z</time>
      </trkpt>
      <trkpt lat="44.56396" lon="2.67855">
        <ele>352</ele>
        <time>2012-06-11T07:54:51Z</time>
      </trkpt>
      <trkpt lat="44.56395" lon="2.67854">
        <ele>352</ele>
        <time>2012-06-11T07:54:52Z</time>
      </trkpt>
      <trkpt lat="44.56393" lon="2.67853">
        <ele>352</ele>
        <time>2012-06-11T07:54:53Z</time>
      </trkpt>
      <trkpt lat="44.56392" lon="2.67852">
        <ele>352</ele>
        <time>2012-06-11T07:54:54Z</time>
      </trkpt>
      <trkpt lat="44.5639" lon="2.67851">
        <ele>352</ele>
        <time>2012-06-11T07:54:56Z</time>
      </trkpt>
      <trkpt lat="44.56389" lon="2.67849">
        <ele>352</ele>
        <time>2012-06-11T07:54:58Z</time>
      </trkpt>
      <trkpt lat="44.56387" lon="2.67848">
        <ele>352</ele>
        <time>2012-06-11T07:54:59Z</time>
      </trkpt>
      <trkpt lat="44.56386" lon="2.67847">
        <ele>352</ele>
        <time>2012-06-11T07:55:00Z</time>
      </trkpt>
      <trkpt lat="44.56384" lon="2.67846">
        <ele>352</ele>
        <time>2012-06-11T07:55:01Z</time>
      </trkpt>
      <trkpt lat="44.56383" lon="2.67845">
        <ele>352</ele>
        <time>2012-06-11T07:55:02Z</time>
      </trkpt>
      <trkpt lat="44.56381" lon="2.67844">
        <ele>352</ele>
        <time>2012-06-11T07:55:03Z</time>
      </trkpt>
      <trkpt lat="44.5638" lon="2.67843">
        <ele>352</ele>
        <time>2012-06-11T07:55:04Z</time>
      </trkpt>
      <trkpt lat="44.56379" lon="2.67842">
        <ele>352</ele>
        <time>2012-06-11T07:55:05Z</time>
      </trkpt>
      <trkpt lat="44.56377" lon="2.67841">
        <ele>352</ele>
        <time>2012-06-11T07:55:06Z</time>
      </trkpt>
      <trkpt lat="44.56376" lon="2.6784">
        <ele>352</ele>
        <time>2012-06-11T07:55:07Z</time>
      </trkpt>
      <trkpt lat="44.56374" lon="2.67838">
        <ele>352</ele>
        <time>2012-06-11T07:55:08Z</time>
      </trkpt>
      <trkpt lat="44.56372" lon="2.67837">
        <ele>352</ele>
        <time>2012-06-11T07:55:09Z</time>
      </trkpt>
      <trkpt lat="44.56371" lon="2.67836">
        <ele>352</ele>
        <time>2012-06-11T07:55:10Z</time>
      </trkpt>
      <trkpt lat="44.56369" lon="2.67835">
        <ele>352</ele>
        <time>2012-06-11T07:55:11Z</time>
      </trkpt>
      <trkpt lat="44.56368" lon="2.67834">
        <ele>352</ele>
        <time>2012-06-11T07:55:12Z</time>
      </trkpt>
      <trkpt lat="44.56367" lon="2.67833">
        <ele>352</ele>
        <time>2012-06-11T07:55:13Z</time>
      </trkpt>
      <trkpt lat="44.56365" lon="2.67832">
        <ele>352</ele>
        <time>2012-06-11T07:55:14Z</time>
      </trkpt>
      <trkpt lat="44.56364" lon="2.6783">
        <ele>352</ele>
        <time>2012-06-11T07:55:15Z</time>
      </trkpt>
      <trkpt lat="44.56363" lon="2.67829">
        <ele>352</ele>
        <time>2012-06-11T07:55:16Z</time>
      </trkpt>
      <trkpt lat="44.56361" lon="2.67828">
        <ele>352</ele>
        <time>2012-06-11T07:55:17Z</time>
      </trkpt>
      <trkpt lat="44.56359" lon="2.67827">
        <ele>352</ele>
        <time>2012-06-11T07:55:18Z</time>
      </trkpt>
      <trkpt lat="44.56358" lon="2.67826">
        <ele>352</ele>
        <time>2012-06-11T07:55:19Z</time>
      </trkpt>
      <trkpt lat="44.56356" lon="2.67825">
        <ele>352</ele>
        <time>2012-06-11T07:55:20Z</time>
      </trkpt>
      <trkpt lat="44.56355" lon="2.67825">
        <ele>352</ele>
        <time>2012-06-11T07:55:21Z</time>
      </trkpt>
      <trkpt lat="44.56353" lon="2.67823">
        <ele>352</ele>
        <time>2012-06-11T07:55:22Z</time>
      </trkpt>
      <trkpt lat="44.56351" lon="2.67821">
        <ele>352</ele>
        <time>2012-06-11T07:55:23Z</time>
      </trkpt>
      <trkpt lat="44.56349" lon="2.6782">
        <ele>352</ele>
        <time>2012-06-11T07:55:24Z</time>
      </trkpt>
      <trkpt lat="44.56347" lon="2.67819">
        <ele>352</ele>
        <time>2012-06-11T07:55:25Z</time>
      </trkpt>
      <trkpt lat="44.56346" lon="2.67818">
        <ele>352</ele>
        <time>2012-06-11T07:55:26Z</time>
      </trkpt>
      <trkpt lat="44.56344" lon="2.67817">
        <ele>352</ele>
        <time>2012-06-11T07:55:27Z</time>
      </trkpt>
      <trkpt lat="44.56343" lon="2.67815">
        <ele>352</ele>
        <time>2012-06-11T07:55:28Z</time>
      </trkpt>
      <trkpt lat="44.56341" lon="2.67815">
        <ele>352</ele>
        <time>2012-06-11T07:55:29Z</time>
      </trkpt>
      <trkpt lat="44.5634" lon="2.67814">
        <ele>352</ele>
        <time>2012-06-11T07:55:30Z</time>
      </trkpt>
      <trkpt lat="44.56338" lon="2.67814">
        <ele>352</ele>
        <time>2012-06-11T07:55:31Z</time>
      </trkpt>
      <trkpt lat="44.56337" lon="2.67813">
        <ele>352</ele>
        <time>2012-06-11T07:55:32Z</time>
      </trkpt>
      <trkpt lat="44.56335" lon="2.67812">
        <ele>352</ele>
        <time>2012-06-11T07:55:33Z</time>
      </trkpt>
      <trkpt lat="44.56333" lon="2.67811">
        <ele>352</ele>
        <time>2012-06-11T07:55:34Z</time>
      </trkpt>
      <trkpt lat="44.56331" lon="2.6781">
        <ele>352</ele>
        <time>2012-06-11T07:55:35Z</time>
      </trkpt>
      <trkpt lat="44.56329" lon="2.67809">
        <ele>352</ele>
        <time>2012-06-11T07:55:36Z</time>
      </trkpt>
      <trkpt lat="44.56328" lon="2.67808">
        <ele>352</ele>
        <time>2012-06-11T07:55:37Z</time>
      </trkpt>
      <trkpt lat="44.56327" lon="2.67806">
        <ele>352</ele>
        <time>2012-06-11T07:55:38Z</time>
      </trkpt>
      <trkpt lat="44.56325" lon="2.67805">
        <ele>352</ele>
        <time>2012-06-11T07:55:39Z</time>
      </trkpt>
      <trkpt lat="44.56324" lon="2.67804">
        <ele>352</ele>
        <time>2012-06-11T07:55:40Z</time>
      </trkpt>
      <trkpt lat="44.56322" lon="2.67803">
        <ele>352</ele>
        <time>2012-06-11T07:55:41Z</time>
      </trkpt>
      <trkpt lat="44.56321" lon="2.67803">
        <ele>352</ele>
        <time>2012-06-11T07:55:42Z</time>
      </trkpt>
      <trkpt lat="44.56319" lon="2.67802">
        <ele>352</ele>
        <time>2012-06-11T07:55:43Z</time>
      </trkpt>
      <trkpt lat="44.56318" lon="2.67801">
        <ele>352</ele>
        <time>2012-06-11T07:55:44Z</time>
      </trkpt>
      <trkpt lat="44.56316" lon="2.678">
        <ele>352</ele>
        <time>2012-06-11T07:55:46Z</time>
      </trkpt>
      <trkpt lat="44.56314" lon="2.67799">
        <ele>352</ele>
        <time>2012-06-11T07:55:47Z</time>
      </trkpt>
      <trkpt lat="44.56313" lon="2.67798">
        <ele>352</ele>
        <time>2012-06-11T07:55:48Z</time>
      </trkpt>
      <trkpt lat="44.56311" lon="2.67797">
        <ele>352</ele>
        <time>2012-06-11T07:55:49Z</time>
      </trkpt>
      <trkpt lat="44.5631" lon="2.67795">
        <ele>352</ele>
        <time>2012-06-11T07:55:50Z</time>
      </trkpt>
      <trkpt lat="44.56309" lon="2.67794">
        <ele>352</ele>
        <time>2012-06-11T07:55:51Z</time>
      </trkpt>
      <trkpt lat="44.56307" lon="2.67793">
        <ele>352</ele>
        <time>2012-06-11T07:55:52Z</time>
      </trkpt>
      <trkpt lat="44.56305" lon="2.67792">
        <ele>352</ele>
        <time>2012-06-11T07:55:53Z</time>
      </trkpt>
      <trkpt lat="44.56303" lon="2.67791">
        <ele>352</ele>
        <time>2012-06-11T07:55:54Z</time>
      </trkpt>
      <trkpt lat="44.56301" lon="2.67789">
        <ele>352</ele>
        <time>2012-06-11T07:55:55Z</time>
      </trkpt>
      <trkpt lat="44.56299" lon="2.67788">
        <ele>352</ele>
        <time>2012-06-11T07:55:56Z</time>
      </trkpt>
      <trkpt lat="44.56297" lon="2.67787">
        <ele>352</ele>
        <time>2012-06-11T07:55:57Z</time>
      </trkpt>
      <trkpt lat="44.56295" lon="2.67785">
        <ele>352</ele>
        <time>2012-06-11T07:55:58Z</time>
      </trkpt>
      <trkpt lat="44.56293" lon="2.67784">
        <ele>352</ele>
        <time>2012-06-11T07:55:59Z</time>
      </trkpt>
      <trkpt lat="44.56292" lon="2.67783">
        <ele>352</ele>
        <time>2012-06-11T07:56:00Z</time>
      </trkpt>
      <trkpt lat="44.5629" lon="2.67782">
        <ele>353</ele>
        <time>2012-06-11T07:56:01Z</time>
      </trkpt>
      <trkpt lat="44.56289" lon="2.67782">
        <ele>354</ele>
        <time>2012-06-11T07:56:03Z</time>
      </trkpt>
      <trkpt lat="44.56287" lon="2.67782">
        <ele>354</ele>
        <time>2012-06-11T07:56:04Z</time>
      </trkpt>
      <trkpt lat="44.56286" lon="2.67781">
        <ele>354</ele>
        <time>2012-06-11T07:56:05Z</time>
      </trkpt>
      <trkpt lat="44.56284" lon="2.67779">
        <ele>354</ele>
        <time>2012-06-11T07:56:07Z</time>
      </trkpt>
      <trkpt lat="44.56282" lon="2.67778">
        <ele>354</ele>
        <time>2012-06-11T07:56:08Z</time>
      </trkpt>
      <trkpt lat="44.56279" lon="2.67777">
        <ele>354</ele>
        <time>2012-06-11T07:56:09Z</time>
      </trkpt>
      <trkpt lat="44.56277" lon="2.67775">
        <ele>354</ele>
        <time>2012-06-11T07:56:10Z</time>
      </trkpt>
      <trkpt lat="44.56275" lon="2.67774">
        <ele>354</ele>
        <time>2012-06-11T07:56:11Z</time>
      </trkpt>
      <trkpt lat="44.56274" lon="2.67772">
        <ele>354</ele>
        <time>2012-06-11T07:56:12Z</time>
      </trkpt>
      <trkpt lat="44.56272" lon="2.67771">
        <ele>354</ele>
        <time>2012-06-11T07:56:13Z</time>
      </trkpt>
      <trkpt lat="44.56269" lon="2.67769">
        <ele>355</ele>
        <time>2012-06-11T07:56:15Z</time>
      </trkpt>
      <trkpt lat="44.56268" lon="2.67768">
        <ele>355</ele>
        <time>2012-06-11T07:56:16Z</time>
      </trkpt>
      <trkpt lat="44.56266" lon="2.67767">
        <ele>355</ele>
        <time>2012-06-11T07:56:17Z</time>
      </trkpt>
      <trkpt lat="44.56264" lon="2.67765">
        <ele>355</ele>
        <time>2012-06-11T07:56:19Z</time>
      </trkpt>
      <trkpt lat="44.56263" lon="2.67764">
        <ele>355</ele>
        <time>2012-06-11T07:56:20Z</time>
      </trkpt>
      <trkpt lat="44.56261" lon="2.67762">
        <ele>355</ele>
        <time>2012-06-11T07:56:21Z</time>
      </trkpt>
      <trkpt lat="44.56259" lon="2.67761">
        <ele>355</ele>
        <time>2012-06-11T07:56:23Z</time>
      </trkpt>
      <trkpt lat="44.56258" lon="2.6776">
        <ele>355</ele>
        <time>2012-06-11T07:56:24Z</time>
      </trkpt>
      <trkpt lat="44.56255" lon="2.67759">
        <ele>355</ele>
        <time>2012-06-11T07:56:25Z</time>
      </trkpt>
      <trkpt lat="44.56253" lon="2.67758">
        <ele>355</ele>
        <time>2012-06-11T07:56:26Z</time>
      </trkpt>
      <trkpt lat="44.56252" lon="2.67756">
        <ele>355</ele>
        <time>2012-06-11T07:56:27Z</time>
      </trkpt>
      <trkpt lat="44.5625" lon="2.67755">
        <ele>355</ele>
        <time>2012-06-11T07:56:28Z</time>
      </trkpt>
      <trkpt lat="44.56248" lon="2.67754">
        <ele>355</ele>
        <time>2012-06-11T07:56:29Z</time>
      </trkpt>
      <trkpt lat="44.56246" lon="2.67752">
        <ele>355</ele>
        <time>2012-06-11T07:56:30Z</time>
      </trkpt>
      <trkpt lat="44.56245" lon="2.67752">
        <ele>355</ele>
        <time>2012-06-11T07:56:31Z</time>
      </trkpt>
      <trkpt lat="44.56244" lon="2.67752">
        <ele>355</ele>
        <time>2012-06-11T07:56:32Z</time>
      </trkpt>
      <trkpt lat="44.56241" lon="2.67752">
        <ele>355</ele>
        <time>2012-06-11T07:56:34Z</time>
      </trkpt>
      <trkpt lat="44.56239" lon="2.67751">
        <ele>355</ele>
        <time>2012-06-11T07:56:35Z</time>
      </trkpt>
      <trkpt lat="44.56238" lon="2.6775">
        <ele>355</ele>
        <time>2012-06-11T07:56:36Z</time>
      </trkpt>
      <trkpt lat="44.56237" lon="2.67749">
        <ele>355</ele>
        <time>2012-06-11T07:56:37Z</time>
      </trkpt>
      <trkpt lat="44.56235" lon="2.67747">
        <ele>355</ele>
        <time>2012-06-11T07:56:38Z</time>
      </trkpt>
      <trkpt lat="44.56233" lon="2.67746">
        <ele>355</ele>
        <time>2012-06-11T07:56:39Z</time>
      </trkpt>
      <trkpt lat="44.56232" lon="2.67745">
        <ele>355</ele>
        <time>2012-06-11T07:56:40Z</time>
      </trkpt>
      <trkpt lat="44.5623" lon="2.67744">
        <ele>355</ele>
        <time>2012-06-11T07:56:41Z</time>
      </trkpt>
      <trkpt lat="44.56229" lon="2.67743">
        <ele>355</ele>
        <time>2012-06-11T07:56:42Z</time>
      </trkpt>
      <trkpt lat="44.56227" lon="2.67743">
        <ele>355</ele>
        <time>2012-06-11T07:56:43Z</time>
      </trkpt>
      <trkpt lat="44.56226" lon="2.67743">
        <ele>355</ele>
        <time>2012-06-11T07:56:45Z</time>
      </trkpt>
      <trkpt lat="44.56224" lon="2.67742">
        <ele>355</ele>
        <time>2012-06-11T07:56:47Z</time>
      </trkpt>
      <trkpt lat="44.56223" lon="2.67741">
        <ele>354</ele>
        <time>2012-06-11T07:56:48Z</time>
      </trkpt>
      <trkpt lat="44.56221" lon="2.67741">
        <ele>353</ele>
        <time>2012-06-11T07:56:49Z</time>
      </trkpt>
      <trkpt lat="44.5622" lon="2.6774">
        <ele>353</ele>
        <time>2012-06-11T07:56:50Z</time>
      </trkpt>
      <trkpt lat="44.56218" lon="2.67738">
        <ele>352</ele>
        <time>2012-06-11T07:56:52Z</time>
      </trkpt>
      <trkpt lat="44.56217" lon="2.67737">
        <ele>352</ele>
        <time>2012-06-11T07:56:53Z</time>
      </trkpt>
      <trkpt lat="44.56216" lon="2.67736">
        <ele>351</ele>
        <time>2012-06-11T07:56:54Z</time>
      </trkpt>
      <trkpt lat="44.56214" lon="2.67734">
        <ele>351</ele>
        <time>2012-06-11T07:56:55Z</time>
      </trkpt>
      <trkpt lat="44.56213" lon="2.67733">
        <ele>351</ele>
        <time>2012-06-11T07:56:56Z</time>
      </trkpt>
      <trkpt lat="44.56211" lon="2.67733">
        <ele>350</ele>
        <time>2012-06-11T07:56:57Z</time>
      </trkpt>
      <trkpt lat="44.5621" lon="2.67732">
        <ele>350</ele>
        <time>2012-06-11T07:56:58Z</time>
      </trkpt>
      <trkpt lat="44.56209" lon="2.67731">
        <ele>350</ele>
        <time>2012-06-11T07:56:59Z</time>
      </trkpt>
      <trkpt lat="44.56208" lon="2.6773">
        <ele>350</ele>
        <time>2012-06-11T07:57:00Z</time>
      </trkpt>
      <trkpt lat="44.56206" lon="2.6773">
        <ele>349</ele>
        <time>2012-06-11T07:57:02Z</time>
      </trkpt>
      <trkpt lat="44.56205" lon="2.67727">
        <ele>348</ele>
        <time>2012-06-11T07:57:04Z</time>
      </trkpt>
      <trkpt lat="44.56206" lon="2.67724">
        <ele>348</ele>
        <time>2012-06-11T07:57:14Z</time>
      </trkpt>
      <trkpt lat="44.56205" lon="2.67722">
        <ele>348</ele>
        <time>2012-06-11T07:57:15Z</time>
      </trkpt>
      <trkpt lat="44.56205" lon="2.6772">
        <ele>349</ele>
        <time>2012-06-11T07:57:16Z</time>
      </trkpt>
      <trkpt lat="44.56205" lon="2.67719">
        <ele>349</ele>
        <time>2012-06-11T07:57:17Z</time>
      </trkpt>
      <trkpt lat="44.56205" lon="2.67717">
        <ele>350</ele>
        <time>2012-06-11T07:57:18Z</time>
      </trkpt>
      <trkpt lat="44.56207" lon="2.67716">
        <ele>351</ele>
        <time>2012-06-11T07:57:20Z</time>
      </trkpt>
      <trkpt lat="44.56209" lon="2.67716">
        <ele>351</ele>
        <time>2012-06-11T07:57:22Z</time>
      </trkpt>
      <trkpt lat="44.56211" lon="2.67717">
        <ele>351</ele>
        <time>2012-06-11T07:57:24Z</time>
      </trkpt>
      <trkpt lat="44.56213" lon="2.67718">
        <ele>351</ele>
        <time>2012-06-11T07:57:26Z</time>
      </trkpt>
      <trkpt lat="44.56216" lon="2.67718">
        <ele>351</ele>
        <time>2012-06-11T07:57:29Z</time>
      </trkpt>
      <trkpt lat="44.56218" lon="2.67719">
        <ele>351</ele>
        <time>2012-06-11T07:57:31Z</time>
      </trkpt>
      <trkpt lat="44.5622" lon="2.6772">
        <ele>351</ele>
        <time>2012-06-11T07:57:32Z</time>
      </trkpt>
      <trkpt lat="44.56222" lon="2.6772">
        <ele>351</ele>
        <time>2012-06-11T07:57:33Z</time>
      </trkpt>
      <trkpt lat="44.56223" lon="2.6772">
        <ele>351</ele>
        <time>2012-06-11T07:57:34Z</time>
      </trkpt>
      <trkpt lat="44.56224" lon="2.67721">
        <ele>351</ele>
        <time>2012-06-11T07:57:35Z</time>
      </trkpt>
      <trkpt lat="44.56231" lon="2.67721">
        <ele>352</ele>
        <time>2012-06-11T07:57:41Z</time>
      </trkpt>
      <trkpt lat="44.56232" lon="2.67721">
        <ele>352</ele>
        <time>2012-06-11T07:57:42Z</time>
      </trkpt>
      <trkpt lat="44.56234" lon="2.67721">
        <ele>353</ele>
        <time>2012-06-11T07:57:44Z</time>
      </trkpt>
      <trkpt lat="44.56236" lon="2.67721">
        <ele>353</ele>
        <time>2012-06-11T07:57:46Z</time>
      </trkpt>
      <trkpt lat="44.56237" lon="2.67721">
        <ele>353</ele>
        <time>2012-06-11T07:57:47Z</time>
      </trkpt>
      <trkpt lat="44.56239" lon="2.6772">
        <ele>354</ele>
        <time>2012-06-11T07:57:49Z</time>
      </trkpt>
      <trkpt lat="44.56241" lon="2.6772">
        <ele>355</ele>
        <time>2012-06-11T07:57:50Z</time>
      </trkpt>
      <trkpt lat="44.56244" lon="2.6772">
        <ele>356</ele>
        <time>2012-06-11T07:57:52Z</time>
      </trkpt>
      <trkpt lat="44.56245" lon="2.6772">
        <ele>356</ele>
        <time>2012-06-11T07:57:53Z</time>
      </trkpt>
      <trkpt lat="44.56247" lon="2.67719">
        <ele>357</ele>
        <time>2012-06-11T07:57:55Z</time>
      </trkpt>
      <trkpt lat="44.56249" lon="2.67718">
        <ele>358</ele>
        <time>2012-06-11T07:57:57Z</time>
      </trkpt>
      <trkpt lat="44.5625" lon="2.67718">
        <ele>358</ele>
        <time>2012-06-11T07:57:58Z</time>
      </trkpt>
      <trkpt lat="44.56253" lon="2.67718">
        <ele>358</ele>
        <time>2012-06-11T07:58:00Z</time>
      </trkpt>
      <trkpt lat="44.56255" lon="2.67718">
        <ele>359</ele>
        <time>2012-06-11T07:58:02Z</time>
      </trkpt>
      <trkpt lat="44.56257" lon="2.67717">
        <ele>359</ele>
        <time>2012-06-11T07:58:04Z</time>
      </trkpt>
      <trkpt lat="44.56258" lon="2.67717">
        <ele>360</ele>
        <time>2012-06-11T07:58:05Z</time>
      </trkpt>
      <trkpt lat="44.56261" lon="2.67716">
        <ele>360</ele>
        <time>2012-06-11T07:58:07Z</time>
      </trkpt>
      <trkpt lat="44.56263" lon="2.67716">
        <ele>361</ele>
        <time>2012-06-11T07:58:09Z</time>
      </trkpt>
      <trkpt lat="44.56265" lon="2.67716">
        <ele>362</ele>
        <time>2012-06-11T07:58:11Z</time>
      </trkpt>
      <trkpt lat="44.56268" lon="2.67716">
        <ele>363</ele>
        <time>2012-06-11T07:58:14Z</time>
      </trkpt>
      <trkpt lat="44.56269" lon="2.67717">
        <ele>364</ele>
        <time>2012-06-11T07:58:16Z</time>
      </trkpt>
      <trkpt lat="44.5627" lon="2.67717">
        <ele>364</ele>
        <time>2012-06-11T07:58:17Z</time>
      </trkpt>
      <trkpt lat="44.56272" lon="2.67717">
        <ele>364</ele>
        <time>2012-06-11T07:58:19Z</time>
      </trkpt>
      <trkpt lat="44.56275" lon="2.67717">
        <ele>365</ele>
        <time>2012-06-11T07:58:23Z</time>
      </trkpt>
      <trkpt lat="44.56277" lon="2.67718">
        <ele>365</ele>
        <time>2012-06-11T07:58:25Z</time>
      </trkpt>
      <trkpt lat="44.5628" lon="2.67719">
        <ele>365</ele>
        <time>2012-06-11T07:58:29Z</time>
      </trkpt>
      <trkpt lat="44.56282" lon="2.6772">
        <ele>365</ele>
        <time>2012-06-11T07:58:31Z</time>
      </trkpt>
      <trkpt lat="44.56283" lon="2.67722">
        <ele>365</ele>
        <time>2012-06-11T07:58:33Z</time>
      </trkpt>
      <trkpt lat="44.56284" lon="2.6772">
        <ele>365</ele>
        <time>2012-06-11T07:58:40Z</time>
      </trkpt>
      <trkpt lat="44.56284" lon="2.67722">
        <ele>365</ele>
        <time>2012-06-11T07:58:44Z</time>
      </trkpt>
      <trkpt lat="44.56285" lon="2.67723">
        <ele>365</ele>
        <time>2012-06-11T07:58:46Z</time>
      </trkpt>
      <trkpt lat="44.56286" lon="2.67724">
        <ele>365</ele>
        <time>2012-06-11T07:58:47Z</time>
      </trkpt>
      <trkpt lat="44.56289" lon="2.67724">
        <ele>365</ele>
        <time>2012-06-11T07:58:49Z</time>
      </trkpt>
      <trkpt lat="44.56291" lon="2.67724">
        <ele>365</ele>
        <time>2012-06-11T07:58:50Z</time>
      </trkpt>
      <trkpt lat="44.56292" lon="2.67724">
        <ele>365</ele>
        <time>2012-06-11T07:58:51Z</time>
      </trkpt>
      <trkpt lat="44.56293" lon="2.67725">
        <ele>365</ele>
        <time>2012-06-11T07:58:52Z</time>
      </trkpt>
      <trkpt lat="44.56295" lon="2.67725">
        <ele>365</ele>
        <time>2012-06-11T07:58:53Z</time>
      </trkpt>
      <trkpt lat="44.56297" lon="2.67727">
        <ele>365</ele>
        <time>2012-06-11T07:58:55Z</time>
      </trkpt>
      <trkpt lat="44.56298" lon="2.67728">
        <ele>365</ele>
        <time>2012-06-11T07:58:56Z</time>
      </trkpt>
      <trkpt lat="44.56299" lon="2.67729">
        <ele>365</ele>
        <time>2012-06-11T07:58:57Z</time>
      </trkpt>
      <trkpt lat="44.563" lon="2.6773">
        <ele>365</ele>
        <time>2012-06-11T07:58:58Z</time>
      </trkpt>
      <trkpt lat="44.56302" lon="2.6773">
        <ele>365</ele>
        <time>2012-06-11T07:58:59Z</time>
      </trkpt>
      <trkpt lat="44.56303" lon="2.6773">
        <ele>365</ele>
        <time>2012-06-11T07:59:00Z</time>
      </trkpt>
      <trkpt lat="44.56306" lon="2.67731">
        <ele>365</ele>
        <time>2012-06-11T07:59:02Z</time>
      </trkpt>
      <trkpt lat="44.56308" lon="2.67731">
        <ele>365</ele>
        <time>2012-06-11T07:59:03Z</time>
      </trkpt>
      <trkpt lat="44.5631" lon="2.67732">
        <ele>365</ele>
        <time>2012-06-11T07:59:05Z</time>
      </trkpt>
      <trkpt lat="44.56313" lon="2.67732">
        <ele>365</ele>
        <time>2012-06-11T07:59:07Z</time>
      </trkpt>
      <trkpt lat="44.56314" lon="2.67733">
        <ele>365</ele>
        <time>2012-06-11T07:59:08Z</time>
      </trkpt>
      <trkpt lat="44.56316" lon="2.67733">
        <ele>365</ele>
        <time>2012-06-11T07:59:09Z</time>
      </trkpt>
      <trkpt lat="44.56317" lon="2.67734">
        <ele>365</ele>
        <time>2012-06-11T07:59:10Z</time>
      </trkpt>
      <trkpt lat="44.56318" lon="2.67735">
        <ele>365</ele>
        <time>2012-06-11T07:59:11Z</time>
      </trkpt>
      <trkpt lat="44.5632" lon="2.67736">
        <ele>365</ele>
        <time>2012-06-11T07:59:12Z</time>
      </trkpt>
      <trkpt lat="44.56321" lon="2.67736">
        <ele>365</ele>
        <time>2012-06-11T07:59:13Z</time>
      </trkpt>
      <trkpt lat="44.56322" lon="2.67736">
        <ele>365</ele>
        <time>2012-06-11T07:59:14Z</time>
      </trkpt>
      <trkpt lat="44.56324" lon="2.67737">
        <ele>365</ele>
        <time>2012-06-11T07:59:15Z</time>
      </trkpt>
      <trkpt lat="44.56325" lon="2.67737">
        <ele>365</ele>
        <time>2012-06-11T07:59:16Z</time>
      </trkpt>
      <trkpt lat="44.56327" lon="2.67737">
        <ele>365</ele>
        <time>2012-06-11T07:59:17Z</time>
      </trkpt>
      <trkpt lat="44.56328" lon="2.67738">
        <ele>365</ele>
        <time>2012-06-11T07:59:18Z</time>
      </trkpt>
      <trkpt lat="44.56329" lon="2.67739">
        <ele>365</ele>
        <time>2012-06-11T07:59:19Z</time>
      </trkpt>
      <trkpt lat="44.56331" lon="2.67741">
        <ele>365</ele>
        <time>2012-06-11T07:59:21Z</time>
      </trkpt>
      <trkpt lat="44.56332" lon="2.67742">
        <ele>365</ele>
        <time>2012-06-11T07:59:22Z</time>
      </trkpt>
      <trkpt lat="44.56334" lon="2.67742">
        <ele>365</ele>
        <time>2012-06-11T07:59:23Z</time>
      </trkpt>
      <trkpt lat="44.56335" lon="2.67743">
        <ele>365</ele>
        <time>2012-06-11T07:59:24Z</time>
      </trkpt>
      <trkpt lat="44.56337" lon="2.67744">
        <ele>365</ele>
        <time>2012-06-11T07:59:25Z</time>
      </trkpt>
      <trkpt lat="44.56338" lon="2.67745">
        <ele>365</ele>
        <time>2012-06-11T07:59:26Z</time>
      </trkpt>
      <trkpt lat="44.56339" lon="2.67745">
        <ele>365</ele>
        <time>2012-06-11T07:59:27Z</time>
      </trkpt>
      <trkpt lat="44.5634" lon="2.67746">
        <ele>365</ele>
        <time>2012-06-11T07:59:28Z</time>
      </trkpt>
      <trkpt lat="44.56341" lon="2.67747">
        <ele>365</ele>
        <time>2012-06-11T07:59:29Z</time>
      </trkpt>
      <trkpt lat="44.56342" lon="2.67748">
        <ele>365</ele>
        <time>2012-06-11T07:59:30Z</time>
      </trkpt>
      <trkpt lat="44.56344" lon="2.67749">
        <ele>365</ele>
        <time>2012-06-11T07:59:31Z</time>
      </trkpt>
      <trkpt lat="44.56345" lon="2.6775">
        <ele>365</ele>
        <time>2012-06-11T07:59:32Z</time>
      </trkpt>
      <trkpt lat="44.56346" lon="2.67751">
        <ele>365</ele>
        <time>2012-06-11T07:59:33Z</time>
      </trkpt>
      <trkpt lat="44.56348" lon="2.67752">
        <ele>365</ele>
        <time>2012-06-11T07:59:34Z</time>
      </trkpt>
      <trkpt lat="44.5635" lon="2.67754">
        <ele>365</ele>
        <time>2012-06-11T07:59:36Z</time>
      </trkpt>
      <trkpt lat="44.56351" lon="2.67755">
        <ele>365</ele>
        <time>2012-06-11T07:59:37Z</time>
      </trkpt>
      <trkpt lat="44.56352" lon="2.67756">
        <ele>365</ele>
        <time>2012-06-11T07:59:38Z</time>
      </trkpt>
      <trkpt lat="44.56353" lon="2.67757">
        <ele>365</ele>
        <time>2012-06-11T07:59:39Z</time>
      </trkpt>
      <trkpt lat="44.56355" lon="2.67758">
        <ele>365</ele>
        <time>2012-06-11T07:59:41Z</time>
      </trkpt>
      <trkpt lat="44.56356" lon="2.67759">
        <ele>365</ele>
        <time>2012-06-11T07:59:42Z</time>
      </trkpt>
      <trkpt lat="44.56359" lon="2.67761">
        <ele>365</ele>
        <time>2012-06-11T07:59:44Z</time>
      </trkpt>
      <trkpt lat="44.56361" lon="2.67763">
        <ele>365</ele>
        <time>2012-06-11T07:59:46Z</time>
      </trkpt>
      <trkpt lat="44.56363" lon="2.67765">
        <ele>365</ele>
        <time>2012-06-11T07:59:48Z</time>
      </trkpt>
      <trkpt lat="44.56365" lon="2.67766">
        <ele>365</ele>
        <time>2012-06-11T07:59:50Z</time>
      </trkpt>
      <trkpt lat="44.56366" lon="2.67764">
        <ele>365</ele>
        <time>2012-06-11T07:59:55Z</time>
      </trkpt>
      <trkpt lat="44.56366" lon="2.6776">
        <ele>365</ele>
        <time>2012-06-11T07:59:59Z</time>
      </trkpt>
      <trkpt lat="44.56364" lon="2.67758">
        <ele>366</ele>
        <time>2012-06-11T08:00:02Z</time>
      </trkpt>
      <trkpt lat="44.56367" lon="2.67758">
        <ele>368</ele>
        <time>2012-06-11T08:00:10Z</time>
      </trkpt>
      <trkpt lat="44.56369" lon="2.67757">
        <ele>369</ele>
        <time>2012-06-11T08:00:12Z</time>
      </trkpt>
      <trkpt lat="44.56371" lon="2.67756">
        <ele>369</ele>
        <time>2012-06-11T08:00:14Z</time>
      </trkpt>
      <trkpt lat="44.56372" lon="2.67756">
        <ele>369</ele>
        <time>2012-06-11T08:00:16Z</time>
      </trkpt>
      <trkpt lat="44.56374" lon="2.67755">
        <ele>369</ele>
        <time>2012-06-11T08:00:18Z</time>
      </trkpt>
      <trkpt lat="44.56376" lon="2.67754">
        <ele>370</ele>
        <time>2012-06-11T08:00:20Z</time>
      </trkpt>
      <trkpt lat="44.56379" lon="2.67753">
        <ele>370</ele>
        <time>2012-06-11T08:00:24Z</time>
      </trkpt>
      <trkpt lat="44.56381" lon="2.67751">
        <ele>370</ele>
        <time>2012-06-11T08:00:28Z</time>
      </trkpt>
      <trkpt lat="44.56382" lon="2.6775">
        <ele>371</ele>
        <time>2012-06-11T08:00:31Z</time>
      </trkpt>
      <trkpt lat="44.56384" lon="2.6775">
        <ele>372</ele>
        <time>2012-06-11T08:00:34Z</time>
      </trkpt>
      <trkpt lat="44.56385" lon="2.67749">
        <ele>372</ele>
        <time>2012-06-11T08:00:36Z</time>
      </trkpt>
      <trkpt lat="44.56386" lon="2.67749">
        <ele>372</ele>
        <time>2012-06-11T08:00:38Z</time>
      </trkpt>
      <trkpt lat="44.56388" lon="2.6775">
        <ele>373</ele>
        <time>2012-06-11T08:00:40Z</time>
      </trkpt>
      <trkpt lat="44.56389" lon="2.67749">
        <ele>374</ele>
        <time>2012-06-11T08:00:42Z</time>
      </trkpt>
      <trkpt lat="44.56391" lon="2.67748">
        <ele>375</ele>
        <time>2012-06-11T08:00:44Z</time>
      </trkpt>
      <trkpt lat="44.56393" lon="2.67747">
        <ele>375</ele>
        <time>2012-06-11T08:00:46Z</time>
      </trkpt>
      <trkpt lat="44.56394" lon="2.67746">
        <ele>375</ele>
        <time>2012-06-11T08:00:48Z</time>
      </trkpt>
      <trkpt lat="44.56396" lon="2.67745">
        <ele>375</ele>
        <time>2012-06-11T08:00:50Z</time>
      </trkpt>
      <trkpt lat="44.56397" lon="2.67743">
        <ele>375</ele>
        <time>2012-06-11T08:00:52Z</time>
      </trkpt>
      <trkpt lat="44.56395" lon="2.67742">
        <ele>379</ele>
        <time>2012-06-11T08:01:00Z</time>
      </trkpt>
      <trkpt lat="44.56395" lon="2.67741">
        <ele>379</ele>
        <time>2012-06-11T08:01:02Z</time>
      </trkpt>
      <trkpt lat="44.56394" lon="2.67739">
        <ele>379</ele>
        <time>2012-06-11T08:01:04Z</time>
      </trkpt>
      <trkpt lat="44.56393" lon="2.67736">
        <ele>379</ele>
        <time>2012-06-11T08:01:07Z</time>
      </trkpt>
      <trkpt lat="44.56392" lon="2.67734">
        <ele>379</ele>
        <time>2012-06-11T08:01:09Z</time>
      </trkpt>
      <trkpt lat="44.5639" lon="2.67732">
        <ele>380</ele>
        <time>2012-06-11T08:01:11Z</time>
      </trkpt>
      <trkpt lat="44.56389" lon="2.6773">
        <ele>381</ele>
        <time>2012-06-11T08:01:13Z</time>
      </trkpt>
      <trkpt lat="44.56388" lon="2.67727">
        <ele>383</ele>
        <time>2012-06-11T08:01:16Z</time>
      </trkpt>
      <trkpt lat="44.56387" lon="2.67726">
        <ele>383</ele>
        <time>2012-06-11T08:01:19Z</time>
      </trkpt>
      <trkpt lat="44.56386" lon="2.67723">
        <ele>384</ele>
        <time>2012-06-11T08:01:21Z</time>
      </trkpt>
      <trkpt lat="44.56385" lon="2.67721">
        <ele>385</ele>
        <time>2012-06-11T08:01:23Z</time>
      </trkpt>
      <trkpt lat="44.56385" lon="2.67715">
        <ele>387</ele>
        <time>2012-06-11T08:01:31Z</time>
      </trkpt>
      <trkpt lat="44.56383" lon="2.67713">
        <ele>388</ele>
        <time>2012-06-11T08:01:34Z</time>
      </trkpt>
      <trkpt lat="44.56382" lon="2.67712">
        <ele>389</ele>
        <time>2012-06-11T08:01:36Z</time>
      </trkpt>
      <trkpt lat="44.56382" lon="2.67709">
        <ele>390</ele>
        <time>2012-06-11T08:01:38Z</time>
      </trkpt>
      <trkpt lat="44.56381" lon="2.67708">
        <ele>391</ele>
        <time>2012-06-11T08:01:42Z</time>
      </trkpt>
      <trkpt lat="44.5638" lon="2.67708">
        <ele>395</ele>
        <time>2012-06-11T08:01:53Z</time>
      </trkpt>
      <trkpt lat="44.56379" lon="2.67708">
        <ele>396</ele>
        <time>2012-06-11T08:01:58Z</time>
      </trkpt>
      <trkpt lat="44.56378" lon="2.67707">
        <ele>396</ele>
        <time>2012-06-11T08:02:03Z</time>
      </trkpt>
      <trkpt lat="44.56375" lon="2.67705">
        <ele>398</ele>
        <time>2012-06-11T08:02:11Z</time>
      </trkpt>
      <trkpt lat="44.56375" lon="2.67704">
        <ele>398</ele>
        <time>2012-06-11T08:02:12Z</time>
      </trkpt>
      <trkpt lat="44.56373" lon="2.67702">
        <ele>398</ele>
        <time>2012-06-11T08:02:14Z</time>
      </trkpt>
      <trkpt lat="44.56371" lon="2.677">
        <ele>398</ele>
        <time>2012-06-11T08:02:16Z</time>
      </trkpt>
      <trkpt lat="44.56369" lon="2.67699">
        <ele>398</ele>
        <time>2012-06-11T08:02:18Z</time>
      </trkpt>
      <trkpt lat="44.56367" lon="2.67698">
        <ele>398</ele>
        <time>2012-06-11T08:02:20Z</time>
      </trkpt>
      <trkpt lat="44.56365" lon="2.67697">
        <ele>398</ele>
        <time>2012-06-11T08:02:22Z</time>
      </trkpt>
      <trkpt lat="44.56364" lon="2.67696">
        <ele>398</ele>
        <time>2012-06-11T08:02:24Z</time>
      </trkpt>
      <trkpt lat="44.56367" lon="2.67697">
        <ele>398</ele>
        <time>2012-06-11T08:02:26Z</time>
      </trkpt>
      <trkpt lat="44.56368" lon="2.67698">
        <ele>398</ele>
        <time>2012-06-11T08:02:27Z</time>
      </trkpt>
      <trkpt lat="44.56369" lon="2.67698">
        <ele>398</ele>
        <time>2012-06-11T08:02:28Z</time>
      </trkpt>
      <trkpt lat="44.56371" lon="2.677">
        <ele>398</ele>
        <time>2012-06-11T08:02:30Z</time>
      </trkpt>
      <trkpt lat="44.56372" lon="2.67701">
        <ele>398</ele>
        <time>2012-06-11T08:02:31Z</time>
      </trkpt>
      <trkpt lat="44.56374" lon="2.67701">
        <ele>398</ele>
        <time>2012-06-11T08:02:32Z</time>
      </trkpt>
      <trkpt lat="44.56376" lon="2.67702">
        <ele>398</ele>
        <time>2012-06-11T08:02:34Z</time>
      </trkpt>
      <trkpt lat="44.56374" lon="2.677">
        <ele>398</ele>
        <time>2012-06-11T08:02:37Z</time>
      </trkpt>
      <trkpt lat="44.56373" lon="2.677">
        <ele>398</ele>
        <time>2012-06-11T08:02:38Z</time>
      </trkpt>
      <trkpt lat="44.56372" lon="2.67699">
        <ele>398</ele>
        <time>2012-06-11T08:02:39Z</time>
      </trkpt>
      <trkpt lat="44.56371" lon="2.67698">
        <ele>398</ele>
        <time>2012-06-11T08:02:40Z</time>
      </trkpt>
      <trkpt lat="44.56369" lon="2.67697">
        <ele>398</ele>
        <time>2012-06-11T08:02:42Z</time>
      </trkpt>
      <trkpt lat="44.56367" lon="2.67697">
        <ele>398</ele>
        <time>2012-06-11T08:02:43Z</time>
      </trkpt>
      <trkpt lat="44.56366" lon="2.67697">
        <ele>398</ele>
        <time>2012-06-11T08:02:44Z</time>
      </trkpt>
      <trkpt lat="44.56365" lon="2.67696">
        <ele>398</ele>
        <time>2012-06-11T08:02:45Z</time>
      </trkpt>
      <trkpt lat="44.56364" lon="2.67696">
        <ele>398</ele>
        <time>2012-06-11T08:02:46Z</time>
      </trkpt>
      <trkpt lat="44.56363" lon="2.67695">
        <ele>398</ele>
        <time>2012-06-11T08:02:47Z</time>
      </trkpt>
      <trkpt lat="44.56361" lon="2.67695">
        <ele>398</ele>
        <time>2012-06-11T08:02:48Z</time>
      </trkpt>
      <trkpt lat="44.5636" lon="2.67694">
        <ele>398</ele>
        <time>2012-06-11T08:02:49Z</time>
      </trkpt>
      <trkpt lat="44.56359" lon="2.67693">
        <ele>398</ele>
        <time>2012-06-11T08:02:50Z</time>
      </trkpt>
      <trkpt lat="44.56358" lon="2.67692">
        <ele>398</ele>
        <time>2012-06-11T08:02:52Z</time>
      </trkpt>
      <trkpt lat="44.56356" lon="2.67691">
        <ele>398</ele>
        <time>2012-06-11T08:02:54Z</time>
      </trkpt>
      <trkpt lat="44.56355" lon="2.6769">
        <ele>398</ele>
        <time>2012-06-11T08:02:56Z</time>
      </trkpt>
      <trkpt lat="44.56353" lon="2.67689">
        <ele>398</ele>
        <time>2012-06-11T08:02:58Z</time>
      </trkpt>
      <trkpt lat="44.56351" lon="2.67688">
        <ele>398</ele>
        <time>2012-06-11T08:03:03Z</time>
      </trkpt>
      <trkpt lat="44.56351" lon="2.67689">
        <ele>398</ele>
        <time>2012-06-11T08:03:11Z</time>
      </trkpt>
      <trkpt lat="44.56349" lon="2.67689">
        <ele>398</ele>
        <time>2012-06-11T08:03:23Z</time>
      </trkpt>
      <trkpt lat="44.56347" lon="2.67688">
        <ele>398</ele>
        <time>2012-06-11T08:03:25Z</time>
      </trkpt>
      <trkpt lat="44.56345" lon="2.67687">
        <ele>398</ele>
        <time>2012-06-11T08:03:26Z</time>
      </trkpt>
      <trkpt lat="44.56343" lon="2.67685">
        <ele>398</ele>
        <time>2012-06-11T08:03:28Z</time>
      </trkpt>
      <trkpt lat="44.56342" lon="2.67684">
        <ele>398</ele>
        <time>2012-06-11T08:03:29Z</time>
      </trkpt>
      <trkpt lat="44.56341" lon="2.67683">
        <ele>398</ele>
        <time>2012-06-11T08:03:30Z</time>
      </trkpt>
      <trkpt lat="44.56339" lon="2.67683">
        <ele>398</ele>
        <time>2012-06-11T08:03:31Z</time>
      </trkpt>
      <trkpt lat="44.56338" lon="2.67682">
        <ele>398</ele>
        <time>2012-06-11T08:03:32Z</time>
      </trkpt>
      <trkpt lat="44.56336" lon="2.67681">
        <ele>398</ele>
        <time>2012-06-11T08:03:34Z</time>
      </trkpt>
      <trkpt lat="44.56334" lon="2.67681">
        <ele>398</ele>
        <time>2012-06-11T08:03:36Z</time>
      </trkpt>
      <trkpt lat="44.56333" lon="2.67681">
        <ele>398</ele>
        <time>2012-06-11T08:03:37Z</time>
      </trkpt>
      <trkpt lat="44.56332" lon="2.6768">
        <ele>398</ele>
        <time>2012-06-11T08:03:38Z</time>
      </trkpt>
      <trkpt lat="44.56329" lon="2.67679">
        <ele>398</ele>
        <time>2012-06-11T08:03:40Z</time>
      </trkpt>
      <trkpt lat="44.56327" lon="2.67679">
        <ele>398</ele>
        <time>2012-06-11T08:03:42Z</time>
      </trkpt>
      <trkpt lat="44.56325" lon="2.67677">
        <ele>398</ele>
        <time>2012-06-11T08:03:44Z</time>
      </trkpt>
      <trkpt lat="44.56323" lon="2.67676">
        <ele>398</ele>
        <time>2012-06-11T08:03:46Z</time>
      </trkpt>
      <trkpt lat="44.56321" lon="2.67675">
        <ele>397</ele>
        <time>2012-06-11T08:03:47Z</time>
      </trkpt>
      <trkpt lat="44.56319" lon="2.67674">
        <ele>397</ele>
        <time>2012-06-11T08:03:48Z</time>
      </trkpt>
      <trkpt lat="44.56318" lon="2.67673">
        <ele>397</ele>
        <time>2012-06-11T08:03:49Z</time>
      </trkpt>
      <trkpt lat="44.56316" lon="2.67673">
        <ele>397</ele>
        <time>2012-06-11T08:03:50Z</time>
      </trkpt>
      <trkpt lat="44.56313" lon="2.67673">
        <ele>397</ele>
        <time>2012-06-11T08:03:52Z</time>
      </trkpt>
      <trkpt lat="44.56312" lon="2.67672">
        <ele>397</ele>
        <time>2012-06-11T08:03:53Z</time>
      </trkpt>
      <trkpt lat="44.5631" lon="2.6767">
        <ele>397</ele>
        <time>2012-06-11T08:03:54Z</time>
      </trkpt>
      <trkpt lat="44.56308" lon="2.6767">
        <ele>397</ele>
        <time>2012-06-11T08:03:55Z</time>
      </trkpt>
      <trkpt lat="44.56307" lon="2.6767">
        <ele>397</ele>
        <time>2012-06-11T08:03:56Z</time>
      </trkpt>
      <trkpt lat="44.56306" lon="2.6767">
        <ele>397</ele>
        <time>2012-06-11T08:03:57Z</time>
      </trkpt>
      <trkpt lat="44.56305" lon="2.6767">
        <ele>397</ele>
        <time>2012-06-11T08:03:58Z</time>
      </trkpt>
      <trkpt lat="44.56303" lon="2.67669">
        <ele>397</ele>
        <time>2012-06-11T08:03:59Z</time>
      </trkpt>
      <trkpt lat="44.56302" lon="2.67669">
        <ele>397</ele>
        <time>2012-06-11T08:04:00Z</time>
      </trkpt>
      <trkpt lat="44.563" lon="2.67668">
        <ele>396</ele>
        <time>2012-06-11T08:04:01Z</time>
      </trkpt>
      <trkpt lat="44.56299" lon="2.67668">
        <ele>396</ele>
        <time>2012-06-11T08:04:02Z</time>
      </trkpt>
      <trkpt lat="44.56298" lon="2.67668">
        <ele>396</ele>
        <time>2012-06-11T08:04:03Z</time>
      </trkpt>
      <trkpt lat="44.56296" lon="2.67668">
        <ele>396</ele>
        <time>2012-06-11T08:04:04Z</time>
      </trkpt>
      <trkpt lat="44.56295" lon="2.67667">
        <ele>396</ele>
        <time>2012-06-11T08:04:05Z</time>
      </trkpt>
      <trkpt lat="44.56294" lon="2.67667">
        <ele>396</ele>
        <time>2012-06-11T08:04:06Z</time>
      </trkpt>
      <trkpt lat="44.56292" lon="2.67667">
        <ele>396</ele>
        <time>2012-06-11T08:04:07Z</time>
      </trkpt>
      <trkpt lat="44.5629" lon="2.67666">
        <ele>396</ele>
        <time>2012-06-11T08:04:08Z</time>
      </trkpt>
      <trkpt lat="44.56288" lon="2.67666">
        <ele>395</ele>
        <time>2012-06-11T08:04:10Z</time>
      </trkpt>
      <trkpt lat="44.56287" lon="2.67665">
        <ele>395</ele>
        <time>2012-06-11T08:04:11Z</time>
      </trkpt>
      <trkpt lat="44.56285" lon="2.67665">
        <ele>395</ele>
        <time>2012-06-11T08:04:12Z</time>
      </trkpt>
      <trkpt lat="44.56284" lon="2.67665">
        <ele>395</ele>
        <time>2012-06-11T08:04:13Z</time>
      </trkpt>
      <trkpt lat="44.56282" lon="2.67664">
        <ele>395</ele>
        <time>2012-06-11T08:04:14Z</time>
      </trkpt>
      <trkpt lat="44.56281" lon="2.67664">
        <ele>395</ele>
        <time>2012-06-11T08:04:15Z</time>
      </trkpt>
      <trkpt lat="44.56279" lon="2.67663">
        <ele>395</ele>
        <time>2012-06-11T08:04:16Z</time>
      </trkpt>
      <trkpt lat="44.56278" lon="2.67662">
        <ele>395</ele>
        <time>2012-06-11T08:04:17Z</time>
      </trkpt>
      <trkpt lat="44.56276" lon="2.67661">
        <ele>395</ele>
        <time>2012-06-11T08:04:18Z</time>
      </trkpt>
      <trkpt lat="44.56274" lon="2.67661">
        <ele>395</ele>
        <time>2012-06-11T08:04:19Z</time>
      </trkpt>
      <trkpt lat="44.56273" lon="2.6766">
        <ele>395</ele>
        <time>2012-06-11T08:04:20Z</time>
      </trkpt>
      <trkpt lat="44.56271" lon="2.6766">
        <ele>395</ele>
        <time>2012-06-11T08:04:22Z</time>
      </trkpt>
      <trkpt lat="44.56269" lon="2.6766">
        <ele>395</ele>
        <time>2012-06-11T08:04:23Z</time>
      </trkpt>
      <trkpt lat="44.56268" lon="2.67659">
        <ele>395</ele>
        <time>2012-06-11T08:04:24Z</time>
      </trkpt>
      <trkpt lat="44.56266" lon="2.67659">
        <ele>395</ele>
        <time>2012-06-11T08:04:25Z</time>
      </trkpt>
      <trkpt lat="44.56265" lon="2.67659">
        <ele>395</ele>
        <time>2012-06-11T08:04:26Z</time>
      </trkpt>
      <trkpt lat="44.56264" lon="2.67658">
        <ele>395</ele>
        <time>2012-06-11T08:04:27Z</time>
      </trkpt>
      <trkpt lat="44.56263" lon="2.67658">
        <ele>395</ele>
        <time>2012-06-11T08:04:28Z</time>
      </trkpt>
      <trkpt lat="44.56262" lon="2.67657">
        <ele>395</ele>
        <time>2012-06-11T08:04:29Z</time>
      </trkpt>
      <trkpt lat="44.5626" lon="2.67656">
        <ele>395</ele>
        <time>2012-06-11T08:04:30Z</time>
      </trkpt>
      <trkpt lat="44.56259" lon="2.67655">
        <ele>395</ele>
        <time>2012-06-11T08:04:31Z</time>
      </trkpt>
      <trkpt lat="44.56258" lon="2.67654">
        <ele>395</ele>
        <time>2012-06-11T08:04:32Z</time>
      </trkpt>
      <trkpt lat="44.56256" lon="2.67653">
        <ele>395</ele>
        <time>2012-06-11T08:04:33Z</time>
      </trkpt>
      <trkpt lat="44.56255" lon="2.67652">
        <ele>395</ele>
        <time>2012-06-11T08:04:34Z</time>
      </trkpt>
      <trkpt lat="44.56254" lon="2.67651">
        <ele>394</ele>
        <time>2012-06-11T08:04:35Z</time>
      </trkpt>
      <trkpt lat="44.56252" lon="2.67649">
        <ele>394</ele>
        <time>2012-06-11T08:04:37Z</time>
      </trkpt>
      <trkpt lat="44.5625" lon="2.67647">
        <ele>393</ele>
        <time>2012-06-11T08:04:39Z</time>
      </trkpt>
      <trkpt lat="44.56248" lon="2.67644">
        <ele>393</ele>
        <time>2012-06-11T08:04:41Z</time>
      </trkpt>
      <trkpt lat="44.56247" lon="2.67642">
        <ele>393</ele>
        <time>2012-06-11T08:04:43Z</time>
      </trkpt>
      <trkpt lat="44.56245" lon="2.67641">
        <ele>393</ele>
        <time>2012-06-11T08:04:44Z</time>
      </trkpt>
      <trkpt lat="44.56244" lon="2.67639">
        <ele>393</ele>
        <time>2012-06-11T08:04:46Z</time>
      </trkpt>
      <trkpt lat="44.56243" lon="2.67637">
        <ele>393</ele>
        <time>2012-06-11T08:04:48Z</time>
      </trkpt>
      <trkpt lat="44.56241" lon="2.67635">
        <ele>393</ele>
        <time>2012-06-11T08:04:50Z</time>
      </trkpt>
      <trkpt lat="44.5624" lon="2.67633">
        <ele>393</ele>
        <time>2012-06-11T08:04:52Z</time>
      </trkpt>
      <trkpt lat="44.56239" lon="2.67631">
        <ele>393</ele>
        <time>2012-06-11T08:04:54Z</time>
      </trkpt>
      <trkpt lat="44.56237" lon="2.67629">
        <ele>393</ele>
        <time>2012-06-11T08:04:56Z</time>
      </trkpt>
      <trkpt lat="44.56236" lon="2.67626">
        <ele>393</ele>
        <time>2012-06-11T08:04:58Z</time>
      </trkpt>
      <trkpt lat="44.56235" lon="2.67624">
        <ele>393</ele>
        <time>2012-06-11T08:05:00Z</time>
      </trkpt>
      <trkpt lat="44.56234" lon="2.67621">
        <ele>393</ele>
        <time>2012-06-11T08:05:02Z</time>
      </trkpt>
      <trkpt lat="44.56233" lon="2.67619">
        <ele>393</ele>
        <time>2012-06-11T08:05:04Z</time>
      </trkpt>
      <trkpt lat="44.56234" lon="2.67621">
        <ele>393</ele>
        <time>2012-06-11T08:05:08Z</time>
      </trkpt>
      <trkpt lat="44.56235" lon="2.67623">
        <ele>393</ele>
        <time>2012-06-11T08:05:10Z</time>
      </trkpt>
      <trkpt lat="44.56234" lon="2.67621">
        <ele>393</ele>
        <time>2012-06-11T08:05:15Z</time>
      </trkpt>
      <trkpt lat="44.56233" lon="2.67618">
        <ele>393</ele>
        <time>2012-06-11T08:05:17Z</time>
      </trkpt>
      <trkpt lat="44.56232" lon="2.67616">
        <ele>393</ele>
        <time>2012-06-11T08:05:19Z</time>
      </trkpt>
      <trkpt lat="44.56231" lon="2.67613">
        <ele>393</ele>
        <time>2012-06-11T08:05:21Z</time>
      </trkpt>
      <trkpt lat="44.56231" lon="2.6761">
        <ele>393</ele>
        <time>2012-06-11T08:05:23Z</time>
      </trkpt>
      <trkpt lat="44.5623" lon="2.67609">
        <ele>393</ele>
        <time>2012-06-11T08:05:24Z</time>
      </trkpt>
      <trkpt lat="44.5623" lon="2.67607">
        <ele>393</ele>
        <time>2012-06-11T08:05:25Z</time>
      </trkpt>
      <trkpt lat="44.56229" lon="2.67606">
        <ele>393</ele>
        <time>2012-06-11T08:05:26Z</time>
      </trkpt>
      <trkpt lat="44.56229" lon="2.67603">
        <ele>393</ele>
        <time>2012-06-11T08:05:28Z</time>
      </trkpt>
      <trkpt lat="44.56228" lon="2.67596">
        <ele>393</ele>
        <time>2012-06-11T08:05:34Z</time>
      </trkpt>
      <trkpt lat="44.56227" lon="2.67595">
        <ele>393</ele>
        <time>2012-06-11T08:05:46Z</time>
      </trkpt>
      <trkpt lat="44.56226" lon="2.67595">
        <ele>393</ele>
        <time>2012-06-11T08:05:55Z</time>
      </trkpt>
      <trkpt lat="44.56226" lon="2.67598">
        <ele>393</ele>
        <time>2012-06-11T08:05:57Z</time>
      </trkpt>
      <trkpt lat="44.56226" lon="2.676">
        <ele>393</ele>
        <time>2012-06-11T08:05:58Z</time>
      </trkpt>
      <trkpt lat="44.56226" lon="2.67604">
        <ele>393</ele>
        <time>2012-06-11T08:06:00Z</time>
      </trkpt>
      <trkpt lat="44.56227" lon="2.67608">
        <ele>393</ele>
        <time>2012-06-11T08:06:02Z</time>
      </trkpt>
      <trkpt lat="44.56227" lon="2.6761">
        <ele>393</ele>
        <time>2012-06-11T08:06:03Z</time>
      </trkpt>
      <trkpt lat="44.56228" lon="2.67612">
        <ele>393</ele>
        <time>2012-06-11T08:06:04Z</time>
      </trkpt>
      <trkpt lat="44.56228" lon="2.67613">
        <ele>393</ele>
        <time>2012-06-11T08:06:05Z</time>
      </trkpt>
      <trkpt lat="44.56229" lon="2.67615">
        <ele>393</ele>
        <time>2012-06-11T08:06:06Z</time>
      </trkpt>
      <trkpt lat="44.56229" lon="2.67617">
        <ele>393</ele>
        <time>2012-06-11T08:06:07Z</time>
      </trkpt>
      <trkpt lat="44.5623" lon="2.67618">
        <ele>393</ele>
        <time>2012-06-11T08:06:08Z</time>
      </trkpt>
      <trkpt lat="44.56229" lon="2.6762">
        <ele>393</ele>
        <time>2012-06-11T08:06:10Z</time>
      </trkpt>
      <trkpt lat="44.56227" lon="2.67618">
        <ele>393</ele>
        <time>2012-06-11T08:06:12Z</time>
      </trkpt>
      <trkpt lat="44.56226" lon="2.67617">
        <ele>393</ele>
        <time>2012-06-11T08:06:13Z</time>
      </trkpt>
      <trkpt lat="44.56224" lon="2.67615">
        <ele>393</ele>
        <time>2012-06-11T08:06:15Z</time>
      </trkpt>
      <trkpt lat="44.56223" lon="2.67613">
        <ele>393</ele>
        <time>2012-06-11T08:06:16Z</time>
      </trkpt>
      <trkpt lat="44.56223" lon="2.67612">
        <ele>393</ele>
        <time>2012-06-11T08:06:17Z</time>
      </trkpt>
      <trkpt lat="44.56222" lon="2.6761">
        <ele>393</ele>
        <time>2012-06-11T08:06:18Z</time>
      </trkpt>
      <trkpt lat="44.56221" lon="2.67609">
        <ele>393</ele>
        <time>2012-06-11T08:06:19Z</time>
      </trkpt>
      <trkpt lat="44.5622" lon="2.67607">
        <ele>393</ele>
        <time>2012-06-11T08:06:20Z</time>
      </trkpt>
      <trkpt lat="44.56219" lon="2.67606">
        <ele>393</ele>
        <time>2012-06-11T08:06:21Z</time>
      </trkpt>
      <trkpt lat="44.56218" lon="2.67603">
        <ele>393</ele>
        <time>2012-06-11T08:06:23Z</time>
      </trkpt>
      <trkpt lat="44.56217" lon="2.676">
        <ele>393</ele>
        <time>2012-06-11T08:06:25Z</time>
      </trkpt>
      <trkpt lat="44.56216" lon="2.67599">
        <ele>393</ele>
        <time>2012-06-11T08:06:26Z</time>
      </trkpt>
      <trkpt lat="44.56216" lon="2.67597">
        <ele>393</ele>
        <time>2012-06-11T08:06:28Z</time>
      </trkpt>
      <trkpt lat="44.56215" lon="2.67595">
        <ele>391</ele>
        <time>2012-06-11T08:06:39Z</time>
      </trkpt>
      <trkpt lat="44.56214" lon="2.67593">
        <ele>391</ele>
        <time>2012-06-11T08:06:40Z</time>
      </trkpt>
      <trkpt lat="44.56214" lon="2.67592">
        <ele>391</ele>
        <time>2012-06-11T08:06:41Z</time>
      </trkpt>
      <trkpt lat="44.56213" lon="2.67589">
        <ele>390</ele>
        <time>2012-06-11T08:06:43Z</time>
      </trkpt>
      <trkpt lat="44.56213" lon="2.67587">
        <ele>390</ele>
        <time>2012-06-11T08:06:44Z</time>
      </trkpt>
      <trkpt lat="44.56212" lon="2.67585">
        <ele>389</ele>
        <time>2012-06-11T08:06:45Z</time>
      </trkpt>
      <trkpt lat="44.56212" lon="2.67581">
        <ele>389</ele>
        <time>2012-06-11T08:06:47Z</time>
      </trkpt>
      <trkpt lat="44.56212" lon="2.67575">
        <ele>388</ele>
        <time>2012-06-11T08:06:50Z</time>
      </trkpt>
      <trkpt lat="44.56213" lon="2.67562">
        <ele>388</ele>
        <time>2012-06-11T08:06:56Z</time>
      </trkpt>
      <trkpt lat="44.56213" lon="2.67554">
        <ele>387</ele>
        <time>2012-06-11T08:07:00Z</time>
      </trkpt>
      <trkpt lat="44.56214" lon="2.67545">
        <ele>387</ele>
        <time>2012-06-11T08:07:05Z</time>
      </trkpt>
      <trkpt lat="44.56215" lon="2.67541">
        <ele>386</ele>
        <time>2012-06-11T08:07:07Z</time>
      </trkpt>
      <trkpt lat="44.56215" lon="2.67539">
        <ele>386</ele>
        <time>2012-06-11T08:07:08Z</time>
      </trkpt>
      <trkpt lat="44.56216" lon="2.67537">
        <ele>386</ele>
        <time>2012-06-11T08:07:09Z</time>
      </trkpt>
      <trkpt lat="44.56216" lon="2.67535">
        <ele>386</ele>
        <time>2012-06-11T08:07:17Z</time>
      </trkpt>
      <trkpt lat="44.56217" lon="2.67533">
        <ele>385</ele>
        <time>2012-06-11T08:07:18Z</time>
      </trkpt>
      <trkpt lat="44.56217" lon="2.67531">
        <ele>385</ele>
        <time>2012-06-11T08:07:19Z</time>
      </trkpt>
      <trkpt lat="44.56218" lon="2.6753">
        <ele>385</ele>
        <time>2012-06-11T08:07:20Z</time>
      </trkpt>
      <trkpt lat="44.56218" lon="2.67528">
        <ele>385</ele>
        <time>2012-06-11T08:07:21Z</time>
      </trkpt>
      <trkpt lat="44.56219" lon="2.67526">
        <ele>385</ele>
        <time>2012-06-11T08:07:22Z</time>
      </trkpt>
      <trkpt lat="44.56219" lon="2.67524">
        <ele>385</ele>
        <time>2012-06-11T08:07:23Z</time>
      </trkpt>
      <trkpt lat="44.5622" lon="2.67522">
        <ele>384</ele>
        <time>2012-06-11T08:07:24Z</time>
      </trkpt>
      <trkpt lat="44.5622" lon="2.6752">
        <ele>384</ele>
        <time>2012-06-11T08:07:25Z</time>
      </trkpt>
      <trkpt lat="44.56221" lon="2.67518">
        <ele>384</ele>
        <time>2012-06-11T08:07:26Z</time>
      </trkpt>
      <trkpt lat="44.56221" lon="2.67516">
        <ele>384</ele>
        <time>2012-06-11T08:07:27Z</time>
      </trkpt>
      <trkpt lat="44.56222" lon="2.67514">
        <ele>384</ele>
        <time>2012-06-11T08:07:28Z</time>
      </trkpt>
      <trkpt lat="44.56223" lon="2.67512">
        <ele>384</ele>
        <time>2012-06-11T08:07:29Z</time>
      </trkpt>
      <trkpt lat="44.56223" lon="2.67511">
        <ele>383</ele>
        <time>2012-06-11T08:07:30Z</time>
      </trkpt>
      <trkpt lat="44.56223" lon="2.6751">
        <ele>383</ele>
        <time>2012-06-11T08:07:32Z</time>
      </trkpt>
      <trkpt lat="44.56224" lon="2.67511">
        <ele>382</ele>
        <time>2012-06-11T08:08:20Z</time>
      </trkpt>
      <trkpt lat="44.56223" lon="2.67515">
        <ele>380</ele>
        <time>2012-06-11T08:08:28Z</time>
      </trkpt>
      <trkpt lat="44.56223" lon="2.67518">
        <ele>380</ele>
        <time>2012-06-11T08:08:30Z</time>
      </trkpt>
      <trkpt lat="44.56223" lon="2.67519">
        <ele>380</ele>
        <time>2012-06-11T08:08:31Z</time>
      </trkpt>
      <trkpt lat="44.56222" lon="2.67522">
        <ele>380</ele>
        <time>2012-06-11T08:08:33Z</time>
      </trkpt>
      <trkpt lat="44.56221" lon="2.67524">
        <ele>380</ele>
        <time>2012-06-11T08:08:35Z</time>
      </trkpt>
      <trkpt lat="44.56223" lon="2.67523">
        <ele>380</ele>
        <time>2012-06-11T08:08:49Z</time>
      </trkpt>
      <trkpt lat="44.56224" lon="2.67522">
        <ele>380</ele>
        <time>2012-06-11T08:09:11Z</time>
      </trkpt>
      <trkpt lat="44.56223" lon="2.67524">
        <ele>380</ele>
        <time>2012-06-11T08:09:15Z</time>
      </trkpt>
      <trkpt lat="44.56223" lon="2.67526">
        <ele>380</ele>
        <time>2012-06-11T08:09:16Z</time>
      </trkpt>
      <trkpt lat="44.56222" lon="2.67528">
        <ele>379</ele>
        <time>2012-06-11T08:09:17Z</time>
      </trkpt>
      <trkpt lat="44.56222" lon="2.6753">
        <ele>379</ele>
        <time>2012-06-11T08:09:18Z</time>
      </trkpt>
      <trkpt lat="44.56221" lon="2.67531">
        <ele>379</ele>
        <time>2012-06-11T08:09:19Z</time>
      </trkpt>
      <trkpt lat="44.56221" lon="2.67534">
        <ele>379</ele>
        <time>2012-06-11T08:09:21Z</time>
      </trkpt>
      <trkpt lat="44.5622" lon="2.67536">
        <ele>379</ele>
        <time>2012-06-11T08:09:23Z</time>
      </trkpt>
      <trkpt lat="44.56219" lon="2.67538">
        <ele>379</ele>
        <time>2012-06-11T08:09:24Z</time>
      </trkpt>
      <trkpt lat="44.56219" lon="2.67541">
        <ele>379</ele>
        <time>2012-06-11T08:09:26Z</time>
      </trkpt>
      <trkpt lat="44.56218" lon="2.67542">
        <ele>379</ele>
        <time>2012-06-11T08:09:27Z</time>
      </trkpt>
      <trkpt lat="44.56218" lon="2.67545">
        <ele>379</ele>
        <time>2012-06-11T08:09:29Z</time>
      </trkpt>
      <trkpt lat="44.56217" lon="2.67548">
        <ele>379</ele>
        <time>2012-06-11T08:09:31Z</time>
      </trkpt>
      <trkpt lat="44.56217" lon="2.67554">
        <ele>379</ele>
        <time>2012-06-11T08:09:34Z</time>
      </trkpt>
      <trkpt lat="44.56216" lon="2.67562">
        <ele>379</ele>
        <time>2012-06-11T08:09:38Z</time>
      </trkpt>
      <trkpt lat="44.56216" lon="2.67564">
        <ele>379</ele>
        <time>2012-06-11T08:09:39Z</time>
      </trkpt>
      <trkpt lat="44.56216" lon="2.67566">
        <ele>379</ele>
        <time>2012-06-11T08:09:40Z</time>
      </trkpt>
      <trkpt lat="44.56215" lon="2.67573">
        <ele>379</ele>
        <time>2012-06-11T08:09:43Z</time>
      </trkpt>
      <trkpt lat="44.56215" lon="2.67579">
        <ele>380</ele>
        <time>2012-06-11T08:09:46Z</time>
      </trkpt>
      <trkpt lat="44.56215" lon="2.67583">
        <ele>380</ele>
        <time>2012-06-11T08:09:48Z</time>
      </trkpt>
      <trkpt lat="44.56216" lon="2.67587">
        <ele>381</ele>
        <time>2012-06-11T08:09:50Z</time>
      </trkpt>
      <trkpt lat="44.56216" lon="2.67589">
        <ele>381</ele>
        <time>2012-06-11T08:09:51Z</time>
      </trkpt>
      <trkpt lat="44.56216" lon="2.6759">
        <ele>382</ele>
        <time>2012-06-11T08:09:52Z</time>
      </trkpt>
      <trkpt lat="44.56217" lon="2.67592">
        <ele>382</ele>
        <time>2012-06-11T08:09:53Z</time>
      </trkpt>
      <trkpt lat="44.56218" lon="2.67595">
        <ele>382</ele>
        <time>2012-06-11T08:09:55Z</time>
      </trkpt>
      <trkpt lat="44.56218" lon="2.67596">
        <ele>383</ele>
        <time>2012-06-11T08:09:56Z</time>
      </trkpt>
      <trkpt lat="44.5622" lon="2.67599">
        <ele>383</ele>
        <time>2012-06-11T08:09:58Z</time>
      </trkpt>
      <trkpt lat="44.56221" lon="2.67601">
        <ele>384</ele>
        <time>2012-06-11T08:10:00Z</time>
      </trkpt>
      <trkpt lat="44.56222" lon="2.67604">
        <ele>384</ele>
        <time>2012-06-11T08:10:02Z</time>
      </trkpt>
      <trkpt lat="44.56224" lon="2.67607">
        <ele>385</ele>
        <time>2012-06-11T08:10:04Z</time>
      </trkpt>
      <trkpt lat="44.56224" lon="2.67608">
        <ele>385</ele>
        <time>2012-06-11T08:10:05Z</time>
      </trkpt>
      <trkpt lat="44.56225" lon="2.6761">
        <ele>385</ele>
        <time>2012-06-11T08:10:06Z</time>
      </trkpt>
      <trkpt lat="44.56226" lon="2.67611">
        <ele>385</ele>
        <time>2012-06-11T08:10:07Z</time>
      </trkpt>
      <trkpt lat="44.56227" lon="2.67613">
        <ele>385</ele>
        <time>2012-06-11T08:10:08Z</time>
      </trkpt>
      <trkpt lat="44.56228" lon="2.67614">
        <ele>386</ele>
        <time>2012-06-11T08:10:09Z</time>
      </trkpt>
      <trkpt lat="44.56229" lon="2.67616">
        <ele>386</ele>
        <time>2012-06-11T08:10:10Z</time>
      </trkpt>
      <trkpt lat="44.5623" lon="2.67618">
        <ele>386</ele>
        <time>2012-06-11T08:10:11Z</time>
      </trkpt>
      <trkpt lat="44.56232" lon="2.6762">
        <ele>386</ele>
        <time>2012-06-11T08:10:13Z</time>
      </trkpt>
      <trkpt lat="44.56233" lon="2.6762">
        <ele>386</ele>
        <time>2012-06-11T08:10:14Z</time>
      </trkpt>
      <trkpt lat="44.56234" lon="2.67618">
        <ele>386</ele>
        <time>2012-06-11T08:10:16Z</time>
      </trkpt>
      <trkpt lat="44.56233" lon="2.67616">
        <ele>386</ele>
        <time>2012-06-11T08:10:18Z</time>
      </trkpt>
      <trkpt lat="44.56232" lon="2.67614">
        <ele>386</ele>
        <time>2012-06-11T08:10:20Z</time>
      </trkpt>
      <trkpt lat="44.56231" lon="2.67612">
        <ele>386</ele>
        <time>2012-06-11T08:10:23Z</time>
      </trkpt>
      <trkpt lat="44.5623" lon="2.67609">
        <ele>387</ele>
        <time>2012-06-11T08:10:25Z</time>
      </trkpt>
      <trkpt lat="44.5623" lon="2.67601">
        <ele>387</ele>
        <time>2012-06-11T08:10:30Z</time>
      </trkpt>
      <trkpt lat="44.56229" lon="2.676">
        <ele>387</ele>
        <time>2012-06-11T08:10:31Z</time>
      </trkpt>
      <trkpt lat="44.5623" lon="2.67591">
        <ele>388</ele>
        <time>2012-06-11T08:10:37Z</time>
      </trkpt>
      <trkpt lat="44.5623" lon="2.67589">
        <ele>388</ele>
        <time>2012-06-11T08:10:38Z</time>
      </trkpt>
      <trkpt lat="44.56231" lon="2.67583">
        <ele>389</ele>
        <time>2012-06-11T08:10:42Z</time>
      </trkpt>
      <trkpt lat="44.56231" lon="2.67581">
        <ele>390</ele>
        <time>2012-06-11T08:10:44Z</time>
      </trkpt>
      <trkpt lat="44.56232" lon="2.67578">
        <ele>390</ele>
        <time>2012-06-11T08:10:46Z</time>
      </trkpt>
      <trkpt lat="44.56232" lon="2.67575">
        <ele>390</ele>
        <time>2012-06-11T08:10:48Z</time>
      </trkpt>
      <trkpt lat="44.56232" lon="2.67573">
        <ele>390</ele>
        <time>2012-06-11T08:10:49Z</time>
      </trkpt>
      <trkpt lat="44.56233" lon="2.67571">
        <ele>390</ele>
        <time>2012-06-11T08:10:50Z</time>
      </trkpt>
      <trkpt lat="44.56233" lon="2.6757">
        <ele>390</ele>
        <time>2012-06-11T08:10:51Z</time>
      </trkpt>
      <trkpt lat="44.56234" lon="2.67566">
        <ele>390</ele>
        <time>2012-06-11T08:10:53Z</time>
      </trkpt>
      <trkpt lat="44.56234" lon="2.67565">
        <ele>390</ele>
        <time>2012-06-11T08:10:54Z</time>
      </trkpt>
      <trkpt lat="44.56235" lon="2.67563">
        <ele>390</ele>
        <time>2012-06-11T08:10:55Z</time>
      </trkpt>
      <trkpt lat="44.56236" lon="2.67561">
        <ele>390</ele>
        <time>2012-06-11T08:10:56Z</time>
      </trkpt>
      <trkpt lat="44.56236" lon="2.6756">
        <ele>390</ele>
        <time>2012-06-11T08:10:57Z</time>
      </trkpt>
      <trkpt lat="44.56237" lon="2.67558">
        <ele>390</ele>
        <time>2012-06-11T08:10:58Z</time>
      </trkpt>
      <trkpt lat="44.56237" lon="2.67556">
        <ele>390</ele>
        <time>2012-06-11T08:10:59Z</time>
      </trkpt>
      <trkpt lat="44.56238" lon="2.67554">
        <ele>390</ele>
        <time>2012-06-11T08:11:01Z</time>
      </trkpt>
      <trkpt lat="44.56239" lon="2.67552">
        <ele>390</ele>
        <time>2012-06-11T08:11:02Z</time>
      </trkpt>
      <trkpt lat="44.56239" lon="2.6755">
        <ele>390</ele>
        <time>2012-06-11T08:11:03Z</time>
      </trkpt>
      <trkpt lat="44.5624" lon="2.67549">
        <ele>390</ele>
        <time>2012-06-11T08:11:04Z</time>
      </trkpt>
      <trkpt lat="44.56241" lon="2.67547">
        <ele>390</ele>
        <time>2012-06-11T08:11:05Z</time>
      </trkpt>
      <trkpt lat="44.56242" lon="2.67546">
        <ele>390</ele>
        <time>2012-06-11T08:11:06Z</time>
      </trkpt>
      <trkpt lat="44.56243" lon="2.67544">
        <ele>390</ele>
        <time>2012-06-11T08:11:07Z</time>
      </trkpt>
      <trkpt lat="44.56244" lon="2.67541">
        <ele>390</ele>
        <time>2012-06-11T08:11:09Z</time>
      </trkpt>
      <trkpt lat="44.56245" lon="2.6754">
        <ele>390</ele>
        <time>2012-06-11T08:11:10Z</time>
      </trkpt>
      <trkpt lat="44.56246" lon="2.67538">
        <ele>391</ele>
        <time>2012-06-11T08:11:11Z</time>
      </trkpt>
      <trkpt lat="44.56247" lon="2.67537">
        <ele>391</ele>
        <time>2012-06-11T08:11:12Z</time>
      </trkpt>
      <trkpt lat="44.56248" lon="2.67534">
        <ele>391</ele>
        <time>2012-06-11T08:11:14Z</time>
      </trkpt>
      <trkpt lat="44.56249" lon="2.67532">
        <ele>391</ele>
        <time>2012-06-11T08:11:15Z</time>
      </trkpt>
      <trkpt lat="44.5625" lon="2.67531">
        <ele>391</ele>
        <time>2012-06-11T08:11:16Z</time>
      </trkpt>
      <trkpt lat="44.56251" lon="2.67529">
        <ele>391</ele>
        <time>2012-06-11T08:11:17Z</time>
      </trkpt>
      <trkpt lat="44.56253" lon="2.67527">
        <ele>392</ele>
        <time>2012-06-11T08:11:19Z</time>
      </trkpt>
      <trkpt lat="44.56254" lon="2.67526">
        <ele>392</ele>
        <time>2012-06-11T08:11:20Z</time>
      </trkpt>
      <trkpt lat="44.56255" lon="2.67523">
        <ele>392</ele>
        <time>2012-06-11T08:11:22Z</time>
      </trkpt>
      <trkpt lat="44.56257" lon="2.6752">
        <ele>393</ele>
        <time>2012-06-11T08:11:24Z</time>
      </trkpt>
      <trkpt lat="44.56259" lon="2.67518">
        <ele>393</ele>
        <time>2012-06-11T08:11:26Z</time>
      </trkpt>
      <trkpt lat="44.56261" lon="2.67515">
        <ele>393</ele>
        <time>2012-06-11T08:11:28Z</time>
      </trkpt>
      <trkpt lat="44.56262" lon="2.67513">
        <ele>393</ele>
        <time>2012-06-11T08:11:30Z</time>
      </trkpt>
      <trkpt lat="44.56264" lon="2.6751">
        <ele>394</ele>
        <time>2012-06-11T08:11:32Z</time>
      </trkpt>
      <trkpt lat="44.56266" lon="2.67509">
        <ele>394</ele>
        <time>2012-06-11T08:11:33Z</time>
      </trkpt>
      <trkpt lat="44.56267" lon="2.67507">
        <ele>394</ele>
        <time>2012-06-11T08:11:35Z</time>
      </trkpt>
      <trkpt lat="44.56269" lon="2.67504">
        <ele>395</ele>
        <time>2012-06-11T08:11:37Z</time>
      </trkpt>
      <trkpt lat="44.5627" lon="2.67503">
        <ele>395</ele>
        <time>2012-06-11T08:11:38Z</time>
      </trkpt>
      <trkpt lat="44.56272" lon="2.675">
        <ele>395</ele>
        <time>2012-06-11T08:11:40Z</time>
      </trkpt>
      <trkpt lat="44.56274" lon="2.67498">
        <ele>396</ele>
        <time>2012-06-11T08:11:42Z</time>
      </trkpt>
      <trkpt lat="44.56275" lon="2.67496">
        <ele>396</ele>
        <time>2012-06-11T08:11:43Z</time>
      </trkpt>
      <trkpt lat="44.56276" lon="2.67494">
        <ele>396</ele>
        <time>2012-06-11T08:11:44Z</time>
      </trkpt>
      <trkpt lat="44.56277" lon="2.67492">
        <ele>397</ele>
        <time>2012-06-11T08:11:46Z</time>
      </trkpt>
      <trkpt lat="44.56279" lon="2.67489">
        <ele>397</ele>
        <time>2012-06-11T08:11:48Z</time>
      </trkpt>
      <trkpt lat="44.56281" lon="2.67487">
        <ele>398</ele>
        <time>2012-06-11T08:11:50Z</time>
      </trkpt>
      <trkpt lat="44.56282" lon="2.67484">
        <ele>398</ele>
        <time>2012-06-11T08:11:52Z</time>
      </trkpt>
      <trkpt lat="44.56284" lon="2.67482">
        <ele>398</ele>
        <time>2012-06-11T08:11:53Z</time>
      </trkpt>
      <trkpt lat="44.56285" lon="2.67481">
        <ele>398</ele>
        <time>2012-06-11T08:11:54Z</time>
      </trkpt>
      <trkpt lat="44.56286" lon="2.67478">
        <ele>399</ele>
        <time>2012-06-11T08:11:56Z</time>
      </trkpt>
      <trkpt lat="44.56287" lon="2.67476">
        <ele>399</ele>
        <time>2012-06-11T08:11:58Z</time>
      </trkpt>
      <trkpt lat="44.56288" lon="2.67474">
        <ele>399</ele>
        <time>2012-06-11T08:11:59Z</time>
      </trkpt>
      <trkpt lat="44.56289" lon="2.67473">
        <ele>399</ele>
        <time>2012-06-11T08:12:00Z</time>
      </trkpt>
      <trkpt lat="44.5629" lon="2.6747">
        <ele>400</ele>
        <time>2012-06-11T08:12:02Z</time>
      </trkpt>
      <trkpt lat="44.56292" lon="2.67468">
        <ele>400</ele>
        <time>2012-06-11T08:12:05Z</time>
      </trkpt>
      <trkpt lat="44.56293" lon="2.67466">
        <ele>400</ele>
        <time>2012-06-11T08:12:07Z</time>
      </trkpt>
      <trkpt lat="44.56294" lon="2.67464">
        <ele>401</ele>
        <time>2012-06-11T08:12:08Z</time>
      </trkpt>
      <trkpt lat="44.56295" lon="2.67461">
        <ele>401</ele>
        <time>2012-06-11T08:12:10Z</time>
      </trkpt>
      <trkpt lat="44.56297" lon="2.67459">
        <ele>402</ele>
        <time>2012-06-11T08:12:12Z</time>
      </trkpt>
      <trkpt lat="44.56298" lon="2.67457">
        <ele>402</ele>
        <time>2012-06-11T08:12:14Z</time>
      </trkpt>
      <trkpt lat="44.563" lon="2.67454">
        <ele>402</ele>
        <time>2012-06-11T08:12:16Z</time>
      </trkpt>
      <trkpt lat="44.56301" lon="2.67452">
        <ele>402</ele>
        <time>2012-06-11T08:12:17Z</time>
      </trkpt>
      <trkpt lat="44.56302" lon="2.6745">
        <ele>402</ele>
        <time>2012-06-11T08:12:18Z</time>
      </trkpt>
      <trkpt lat="44.56303" lon="2.67449">
        <ele>402</ele>
        <time>2012-06-11T08:12:19Z</time>
      </trkpt>
      <trkpt lat="44.56304" lon="2.67447">
        <ele>403</ele>
        <time>2012-06-11T08:12:20Z</time>
      </trkpt>
      <trkpt lat="44.56305" lon="2.67445">
        <ele>403</ele>
        <time>2012-06-11T08:12:22Z</time>
      </trkpt>
      <trkpt lat="44.56307" lon="2.67442">
        <ele>403</ele>
        <time>2012-06-11T08:12:24Z</time>
      </trkpt>
      <trkpt lat="44.56308" lon="2.6744">
        <ele>403</ele>
        <time>2012-06-11T08:12:25Z</time>
      </trkpt>
      <trkpt lat="44.56309" lon="2.67439">
        <ele>403</ele>
        <time>2012-06-11T08:12:26Z</time>
      </trkpt>
      <trkpt lat="44.56311" lon="2.67436">
        <ele>403</ele>
        <time>2012-06-11T08:12:28Z</time>
      </trkpt>
      <trkpt lat="44.56313" lon="2.67433">
        <ele>404</ele>
        <time>2012-06-11T08:12:30Z</time>
      </trkpt>
      <trkpt lat="44.56314" lon="2.67431">
        <ele>404</ele>
        <time>2012-06-11T08:12:32Z</time>
      </trkpt>
      <trkpt lat="44.56316" lon="2.67428">
        <ele>404</ele>
        <time>2012-06-11T08:12:34Z</time>
      </trkpt>
      <trkpt lat="44.56318" lon="2.67426">
        <ele>404</ele>
        <time>2012-06-11T08:12:36Z</time>
      </trkpt>
      <trkpt lat="44.5632" lon="2.67424">
        <ele>404</ele>
        <time>2012-06-11T08:12:38Z</time>
      </trkpt>
      <trkpt lat="44.56321" lon="2.67422">
        <ele>404</ele>
        <time>2012-06-11T08:12:39Z</time>
      </trkpt>
      <trkpt lat="44.56323" lon="2.6742">
        <ele>404</ele>
        <time>2012-06-11T08:12:41Z</time>
      </trkpt>
      <trkpt lat="44.56325" lon="2.67418">
        <ele>404</ele>
        <time>2012-06-11T08:12:43Z</time>
      </trkpt>
      <trkpt lat="44.56327" lon="2.67416">
        <ele>404</ele>
        <time>2012-06-11T08:12:45Z</time>
      </trkpt>
      <trkpt lat="44.56329" lon="2.67414">
        <ele>404</ele>
        <time>2012-06-11T08:12:47Z</time>
      </trkpt>
      <trkpt lat="44.56331" lon="2.67413">
        <ele>404</ele>
        <time>2012-06-11T08:12:49Z</time>
      </trkpt>
      <trkpt lat="44.56333" lon="2.67411">
        <ele>404</ele>
        <time>2012-06-11T08:12:51Z</time>
      </trkpt>
      <trkpt lat="44.56334" lon="2.6741">
        <ele>404</ele>
        <time>2012-06-11T08:12:52Z</time>
      </trkpt>
      <trkpt lat="44.56337" lon="2.67408">
        <ele>404</ele>
        <time>2012-06-11T08:12:54Z</time>
      </trkpt>
      <trkpt lat="44.56338" lon="2.67408">
        <ele>404</ele>
        <time>2012-06-11T08:12:55Z</time>
      </trkpt>
      <trkpt lat="44.56339" lon="2.67407">
        <ele>404</ele>
        <time>2012-06-11T08:12:56Z</time>
      </trkpt>
      <trkpt lat="44.5634" lon="2.67407">
        <ele>404</ele>
        <time>2012-06-11T08:12:57Z</time>
      </trkpt>
      <trkpt lat="44.56341" lon="2.67407">
        <ele>404</ele>
        <time>2012-06-11T08:12:58Z</time>
      </trkpt>
      <trkpt lat="44.56342" lon="2.67406">
        <ele>404</ele>
        <time>2012-06-11T08:12:59Z</time>
      </trkpt>
      <trkpt lat="44.56344" lon="2.67406">
        <ele>404</ele>
        <time>2012-06-11T08:13:00Z</time>
      </trkpt>
      <trkpt lat="44.56345" lon="2.67405">
        <ele>404</ele>
        <time>2012-06-11T08:13:02Z</time>
      </trkpt>
      <trkpt lat="44.56348" lon="2.67404">
        <ele>404</ele>
        <time>2012-06-11T08:13:04Z</time>
      </trkpt>
      <trkpt lat="44.5635" lon="2.67402">
        <ele>404</ele>
        <time>2012-06-11T08:13:06Z</time>
      </trkpt>
      <trkpt lat="44.56351" lon="2.67399">
        <ele>405</ele>
        <time>2012-06-11T08:13:08Z</time>
      </trkpt>
      <trkpt lat="44.56353" lon="2.67397">
        <ele>405</ele>
        <time>2012-06-11T08:13:10Z</time>
      </trkpt>
      <trkpt lat="44.56354" lon="2.67395">
        <ele>405</ele>
        <time>2012-06-11T08:13:11Z</time>
      </trkpt>
      <trkpt lat="44.56355" lon="2.67393">
        <ele>405</ele>
        <time>2012-06-11T08:13:12Z</time>
      </trkpt>
      <trkpt lat="44.56356" lon="2.67392">
        <ele>405</ele>
        <time>2012-06-11T08:13:13Z</time>
      </trkpt>
      <trkpt lat="44.56357" lon="2.6739">
        <ele>405</ele>
        <time>2012-06-11T08:13:14Z</time>
      </trkpt>
      <trkpt lat="44.56358" lon="2.67388">
        <ele>405</ele>
        <time>2012-06-11T08:13:16Z</time>
      </trkpt>
      <trkpt lat="44.5636" lon="2.67385">
        <ele>405</ele>
        <time>2012-06-11T08:13:18Z</time>
      </trkpt>
      <trkpt lat="44.56361" lon="2.67383">
        <ele>405</ele>
        <time>2012-06-11T08:13:19Z</time>
      </trkpt>
      <trkpt lat="44.56362" lon="2.67381">
        <ele>405</ele>
        <time>2012-06-11T08:13:20Z</time>
      </trkpt>
      <trkpt lat="44.56363" lon="2.67379">
        <ele>405</ele>
        <time>2012-06-11T08:13:22Z</time>
      </trkpt>
      <trkpt lat="44.56365" lon="2.67376">
        <ele>406</ele>
        <time>2012-06-11T08:13:24Z</time>
      </trkpt>
      <trkpt lat="44.56367" lon="2.67373">
        <ele>406</ele>
        <time>2012-06-11T08:13:26Z</time>
      </trkpt>
      <trkpt lat="44.56368" lon="2.6737">
        <ele>406</ele>
        <time>2012-06-11T08:13:28Z</time>
      </trkpt>
      <trkpt lat="44.5637" lon="2.67368">
        <ele>406</ele>
        <time>2012-06-11T08:13:30Z</time>
      </trkpt>
      <trkpt lat="44.56371" lon="2.67365">
        <ele>406</ele>
        <time>2012-06-11T08:13:32Z</time>
      </trkpt>
      <trkpt lat="44.56373" lon="2.67362">
        <ele>406</ele>
        <time>2012-06-11T08:13:34Z</time>
      </trkpt>
      <trkpt lat="44.56374" lon="2.67361">
        <ele>406</ele>
        <time>2012-06-11T08:13:35Z</time>
      </trkpt>
      <trkpt lat="44.56374" lon="2.67359">
        <ele>406</ele>
        <time>2012-06-11T08:13:36Z</time>
      </trkpt>
      <trkpt lat="44.56375" lon="2.67358">
        <ele>406</ele>
        <time>2012-06-11T08:13:37Z</time>
      </trkpt>
      <trkpt lat="44.56376" lon="2.67356">
        <ele>406</ele>
        <time>2012-06-11T08:13:38Z</time>
      </trkpt>
      <trkpt lat="44.56378" lon="2.67354">
        <ele>406</ele>
        <time>2012-06-11T08:13:40Z</time>
      </trkpt>
      <trkpt lat="44.56379" lon="2.67351">
        <ele>407</ele>
        <time>2012-06-11T08:13:42Z</time>
      </trkpt>
      <trkpt lat="44.5638" lon="2.6735">
        <ele>407</ele>
        <time>2012-06-11T08:13:43Z</time>
      </trkpt>
      <trkpt lat="44.56381" lon="2.67348">
        <ele>407</ele>
        <time>2012-06-11T08:13:44Z</time>
      </trkpt>
      <trkpt lat="44.56383" lon="2.67345">
        <ele>407</ele>
        <time>2012-06-11T08:13:46Z</time>
      </trkpt>
      <trkpt lat="44.56384" lon="2.67343">
        <ele>407</ele>
        <time>2012-06-11T08:13:47Z</time>
      </trkpt>
      <trkpt lat="44.56385" lon="2.67341">
        <ele>407</ele>
        <time>2012-06-11T08:13:48Z</time>
      </trkpt>
      <trkpt lat="44.56386" lon="2.6734">
        <ele>407</ele>
        <time>2012-06-11T08:13:49Z</time>
      </trkpt>
      <trkpt lat="44.56386" lon="2.67338">
        <ele>407</ele>
        <time>2012-06-11T08:13:50Z</time>
      </trkpt>
      <trkpt lat="44.56387" lon="2.67337">
        <ele>407</ele>
        <time>2012-06-11T08:13:51Z</time>
      </trkpt>
      <trkpt lat="44.56388" lon="2.67335">
        <ele>407</ele>
        <time>2012-06-11T08:13:52Z</time>
      </trkpt>
      <trkpt lat="44.56389" lon="2.67333">
        <ele>407</ele>
        <time>2012-06-11T08:13:53Z</time>
      </trkpt>
      <trkpt lat="44.56389" lon="2.67331">
        <ele>407</ele>
        <time>2012-06-11T08:13:54Z</time>
      </trkpt>
      <trkpt lat="44.5639" lon="2.6733">
        <ele>407</ele>
        <time>2012-06-11T08:13:55Z</time>
      </trkpt>
      <trkpt lat="44.56391" lon="2.67328">
        <ele>407</ele>
        <time>2012-06-11T08:13:56Z</time>
      </trkpt>
      <trkpt lat="44.56391" lon="2.67327">
        <ele>407</ele>
        <time>2012-06-11T08:13:57Z</time>
      </trkpt>
      <trkpt lat="44.56392" lon="2.67325">
        <ele>407</ele>
        <time>2012-06-11T08:13:58Z</time>
      </trkpt>
      <trkpt lat="44.56393" lon="2.67323">
        <ele>407</ele>
        <time>2012-06-11T08:13:59Z</time>
      </trkpt>
      <trkpt lat="44.56393" lon="2.67321">
        <ele>407</ele>
        <time>2012-06-11T08:14:00Z</time>
      </trkpt>
      <trkpt lat="44.56394" lon="2.6732">
        <ele>407</ele>
        <time>2012-06-11T08:14:01Z</time>
      </trkpt>
      <trkpt lat="44.56395" lon="2.67318">
        <ele>407</ele>
        <time>2012-06-11T08:14:02Z</time>
      </trkpt>
      <trkpt lat="44.56395" lon="2.67316">
        <ele>407</ele>
        <time>2012-06-11T08:14:03Z</time>
      </trkpt>
      <trkpt lat="44.56396" lon="2.67315">
        <ele>407</ele>
        <time>2012-06-11T08:14:04Z</time>
      </trkpt>
      <trkpt lat="44.56397" lon="2.67313">
        <ele>407</ele>
        <time>2012-06-11T08:14:05Z</time>
      </trkpt>
      <trkpt lat="44.56398" lon="2.67311">
        <ele>407</ele>
        <time>2012-06-11T08:14:06Z</time>
      </trkpt>
      <trkpt lat="44.56398" lon="2.67309">
        <ele>407</ele>
        <time>2012-06-11T08:14:07Z</time>
      </trkpt>
      <trkpt lat="44.56399" lon="2.67308">
        <ele>407</ele>
        <time>2012-06-11T08:14:08Z</time>
      </trkpt>
      <trkpt lat="44.564" lon="2.67306">
        <ele>407</ele>
        <time>2012-06-11T08:14:09Z</time>
      </trkpt>
      <trkpt lat="44.56401" lon="2.67304">
        <ele>407</ele>
        <time>2012-06-11T08:14:10Z</time>
      </trkpt>
      <trkpt lat="44.56401" lon="2.67302">
        <ele>407</ele>
        <time>2012-06-11T08:14:11Z</time>
      </trkpt>
      <trkpt lat="44.56402" lon="2.67301">
        <ele>407</ele>
        <time>2012-06-11T08:14:12Z</time>
      </trkpt>
      <trkpt lat="44.56403" lon="2.67299">
        <ele>407</ele>
        <time>2012-06-11T08:14:13Z</time>
      </trkpt>
      <trkpt lat="44.56403" lon="2.67298">
        <ele>407</ele>
        <time>2012-06-11T08:14:14Z</time>
      </trkpt>
      <trkpt lat="44.56404" lon="2.67296">
        <ele>407</ele>
        <time>2012-06-11T08:14:15Z</time>
      </trkpt>
      <trkpt lat="44.56405" lon="2.67294">
        <ele>407</ele>
        <time>2012-06-11T08:14:16Z</time>
      </trkpt>
      <trkpt lat="44.56405" lon="2.67293">
        <ele>407</ele>
        <time>2012-06-11T08:14:17Z</time>
      </trkpt>
      <trkpt lat="44.56406" lon="2.67291">
        <ele>407</ele>
        <time>2012-06-11T08:14:18Z</time>
      </trkpt>
      <trkpt lat="44.56407" lon="2.6729">
        <ele>407</ele>
        <time>2012-06-11T08:14:19Z</time>
      </trkpt>
      <trkpt lat="44.56407" lon="2.67288">
        <ele>407</ele>
        <time>2012-06-11T08:14:20Z</time>
      </trkpt>
      <trkpt lat="44.56408" lon="2.67287">
        <ele>407</ele>
        <time>2012-06-11T08:14:21Z</time>
      </trkpt>
      <trkpt lat="44.56408" lon="2.67285">
        <ele>407</ele>
        <time>2012-06-11T08:14:22Z</time>
      </trkpt>
      <trkpt lat="44.56409" lon="2.67284">
        <ele>407</ele>
        <time>2012-06-11T08:14:23Z</time>
      </trkpt>
      <trkpt lat="44.56409" lon="2.67282">
        <ele>407</ele>
        <time>2012-06-11T08:14:24Z</time>
      </trkpt>
      <trkpt lat="44.5641" lon="2.67281">
        <ele>407</ele>
        <time>2012-06-11T08:14:25Z</time>
      </trkpt>
      <trkpt lat="44.56411" lon="2.67279">
        <ele>407</ele>
        <time>2012-06-11T08:14:26Z</time>
      </trkpt>
      <trkpt lat="44.56412" lon="2.67278">
        <ele>407</ele>
        <time>2012-06-11T08:14:27Z</time>
      </trkpt>
      <trkpt lat="44.56413" lon="2.67275">
        <ele>407</ele>
        <time>2012-06-11T08:14:29Z</time>
      </trkpt>
      <trkpt lat="44.56414" lon="2.67273">
        <ele>407</ele>
        <time>2012-06-11T08:14:30Z</time>
      </trkpt>
      <trkpt lat="44.56414" lon="2.67271">
        <ele>407</ele>
        <time>2012-06-11T08:14:31Z</time>
      </trkpt>
      <trkpt lat="44.56415" lon="2.67269">
        <ele>407</ele>
        <time>2012-06-11T08:14:32Z</time>
      </trkpt>
      <trkpt lat="44.56416" lon="2.67268">
        <ele>407</ele>
        <time>2012-06-11T08:14:33Z</time>
      </trkpt>
      <trkpt lat="44.56416" lon="2.67266">
        <ele>407</ele>
        <time>2012-06-11T08:14:34Z</time>
      </trkpt>
      <trkpt lat="44.56417" lon="2.67265">
        <ele>407</ele>
        <time>2012-06-11T08:14:35Z</time>
      </trkpt>
      <trkpt lat="44.56417" lon="2.67263">
        <ele>407</ele>
        <time>2012-06-11T08:14:36Z</time>
      </trkpt>
      <trkpt lat="44.56418" lon="2.67262">
        <ele>407</ele>
        <time>2012-06-11T08:14:37Z</time>
      </trkpt>
      <trkpt lat="44.56419" lon="2.6726">
        <ele>407</ele>
        <time>2012-06-11T08:14:38Z</time>
      </trkpt>
      <trkpt lat="44.56419" lon="2.67259">
        <ele>407</ele>
        <time>2012-06-11T08:14:39Z</time>
      </trkpt>
      <trkpt lat="44.56421" lon="2.67256">
        <ele>407</ele>
        <time>2012-06-11T08:14:41Z</time>
      </trkpt>
      <trkpt lat="44.56421" lon="2.67254">
        <ele>407</ele>
        <time>2012-06-11T08:14:42Z</time>
      </trkpt>
      <trkpt lat="44.56422" lon="2.67252">
        <ele>407</ele>
        <time>2012-06-11T08:14:43Z</time>
      </trkpt>
      <trkpt lat="44.56422" lon="2.6725">
        <ele>407</ele>
        <time>2012-06-11T08:14:44Z</time>
      </trkpt>
      <trkpt lat="44.56422" lon="2.67249">
        <ele>407</ele>
        <time>2012-06-11T08:14:45Z</time>
      </trkpt>
      <trkpt lat="44.56423" lon="2.67247">
        <ele>408</ele>
        <time>2012-06-11T08:14:46Z</time>
      </trkpt>
      <trkpt lat="44.56424" lon="2.67246">
        <ele>408</ele>
        <time>2012-06-11T08:14:47Z</time>
      </trkpt>
      <trkpt lat="44.56424" lon="2.67244">
        <ele>408</ele>
        <time>2012-06-11T08:14:48Z</time>
      </trkpt>
      <trkpt lat="44.56425" lon="2.67242">
        <ele>408</ele>
        <time>2012-06-11T08:14:49Z</time>
      </trkpt>
      <trkpt lat="44.56426" lon="2.67241">
        <ele>409</ele>
        <time>2012-06-11T08:14:50Z</time>
      </trkpt>
      <trkpt lat="44.56427" lon="2.67239">
        <ele>409</ele>
        <time>2012-06-11T08:14:51Z</time>
      </trkpt>
      <trkpt lat="44.56427" lon="2.67237">
        <ele>409</ele>
        <time>2012-06-11T08:14:52Z</time>
      </trkpt>
      <trkpt lat="44.56428" lon="2.67236">
        <ele>409</ele>
        <time>2012-06-11T08:14:53Z</time>
      </trkpt>
      <trkpt lat="44.56429" lon="2.67234">
        <ele>409</ele>
        <time>2012-06-11T08:14:54Z</time>
      </trkpt>
      <trkpt lat="44.56429" lon="2.67233">
        <ele>410</ele>
        <time>2012-06-11T08:14:56Z</time>
      </trkpt>
      <trkpt lat="44.56431" lon="2.67231">
        <ele>411</ele>
        <time>2012-06-11T08:14:59Z</time>
      </trkpt>
      <trkpt lat="44.56432" lon="2.67229">
        <ele>411</ele>
        <time>2012-06-11T08:15:01Z</time>
      </trkpt>
      <trkpt lat="44.56433" lon="2.67226">
        <ele>412</ele>
        <time>2012-06-11T08:15:03Z</time>
      </trkpt>
      <trkpt lat="44.56434" lon="2.67225">
        <ele>412</ele>
        <time>2012-06-11T08:15:04Z</time>
      </trkpt>
      <trkpt lat="44.56434" lon="2.67223">
        <ele>412</ele>
        <time>2012-06-11T08:15:05Z</time>
      </trkpt>
      <trkpt lat="44.56435" lon="2.67222">
        <ele>412</ele>
        <time>2012-06-11T08:15:06Z</time>
      </trkpt>
      <trkpt lat="44.56435" lon="2.6722">
        <ele>413</ele>
        <time>2012-06-11T08:15:07Z</time>
      </trkpt>
      <trkpt lat="44.56435" lon="2.67218">
        <ele>413</ele>
        <time>2012-06-11T08:15:08Z</time>
      </trkpt>
      <trkpt lat="44.56436" lon="2.67217">
        <ele>413</ele>
        <time>2012-06-11T08:15:09Z</time>
      </trkpt>
      <trkpt lat="44.56437" lon="2.67213">
        <ele>416</ele>
        <time>2012-06-11T08:15:42Z</time>
      </trkpt>
      <trkpt lat="44.56439" lon="2.67211">
        <ele>416</ele>
        <time>2012-06-11T08:15:44Z</time>
      </trkpt>
      <trkpt lat="44.5644" lon="2.6721">
        <ele>416</ele>
        <time>2012-06-11T08:15:45Z</time>
      </trkpt>
      <trkpt lat="44.56442" lon="2.67207">
        <ele>416</ele>
        <time>2012-06-11T08:15:47Z</time>
      </trkpt>
      <trkpt lat="44.56443" lon="2.67205">
        <ele>416</ele>
        <time>2012-06-11T08:15:48Z</time>
      </trkpt>
      <trkpt lat="44.56443" lon="2.67204">
        <ele>416</ele>
        <time>2012-06-11T08:15:49Z</time>
      </trkpt>
      <trkpt lat="44.56445" lon="2.67202">
        <ele>416</ele>
        <time>2012-06-11T08:15:50Z</time>
      </trkpt>
      <trkpt lat="44.56445" lon="2.672">
        <ele>416</ele>
        <time>2012-06-11T08:15:51Z</time>
      </trkpt>
      <trkpt lat="44.56446" lon="2.67198">
        <ele>416</ele>
        <time>2012-06-11T08:15:52Z</time>
      </trkpt>
      <trkpt lat="44.56447" lon="2.67197">
        <ele>416</ele>
        <time>2012-06-11T08:15:53Z</time>
      </trkpt>
      <trkpt lat="44.56448" lon="2.67195">
        <ele>416</ele>
        <time>2012-06-11T08:15:54Z</time>
      </trkpt>
      <trkpt lat="44.56449" lon="2.67192">
        <ele>416</ele>
        <time>2012-06-11T08:15:56Z</time>
      </trkpt>
      <trkpt lat="44.5645" lon="2.67191">
        <ele>416</ele>
        <time>2012-06-11T08:15:57Z</time>
      </trkpt>
      <trkpt lat="44.56451" lon="2.67188">
        <ele>416</ele>
        <time>2012-06-11T08:15:59Z</time>
      </trkpt>
      <trkpt lat="44.56451" lon="2.67186">
        <ele>416</ele>
        <time>2012-06-11T08:16:00Z</time>
      </trkpt>
      <trkpt lat="44.56452" lon="2.67185">
        <ele>416</ele>
        <time>2012-06-11T08:16:01Z</time>
      </trkpt>
      <trkpt lat="44.56453" lon="2.67183">
        <ele>416</ele>
        <time>2012-06-11T08:16:02Z</time>
      </trkpt>
      <trkpt lat="44.56454" lon="2.67181">
        <ele>416</ele>
        <time>2012-06-11T08:16:03Z</time>
      </trkpt>
      <trkpt lat="44.56455" lon="2.67179">
        <ele>416</ele>
        <time>2012-06-11T08:16:04Z</time>
      </trkpt>
      <trkpt lat="44.56456" lon="2.67178">
        <ele>416</ele>
        <time>2012-06-11T08:16:05Z</time>
      </trkpt>
      <trkpt lat="44.56457" lon="2.67176">
        <ele>416</ele>
        <time>2012-06-11T08:16:06Z</time>
      </trkpt>
      <trkpt lat="44.56458" lon="2.67174">
        <ele>416</ele>
        <time>2012-06-11T08:16:07Z</time>
      </trkpt>
      <trkpt lat="44.56459" lon="2.67172">
        <ele>416</ele>
        <time>2012-06-11T08:16:08Z</time>
      </trkpt>
      <trkpt lat="44.5646" lon="2.6717">
        <ele>416</ele>
        <time>2012-06-11T08:16:09Z</time>
      </trkpt>
      <trkpt lat="44.56461" lon="2.67169">
        <ele>416</ele>
        <time>2012-06-11T08:16:10Z</time>
      </trkpt>
      <trkpt lat="44.56462" lon="2.67167">
        <ele>416</ele>
        <time>2012-06-11T08:16:11Z</time>
      </trkpt>
      <trkpt lat="44.56463" lon="2.67166">
        <ele>416</ele>
        <time>2012-06-11T08:16:12Z</time>
      </trkpt>
      <trkpt lat="44.56464" lon="2.67164">
        <ele>416</ele>
        <time>2012-06-11T08:16:13Z</time>
      </trkpt>
      <trkpt lat="44.56466" lon="2.67163">
        <ele>416</ele>
        <time>2012-06-11T08:16:14Z</time>
      </trkpt>
      <trkpt lat="44.56467" lon="2.67161">
        <ele>416</ele>
        <time>2012-06-11T08:16:15Z</time>
      </trkpt>
      <trkpt lat="44.56469" lon="2.67159">
        <ele>416</ele>
        <time>2012-06-11T08:16:17Z</time>
      </trkpt>
      <trkpt lat="44.56471" lon="2.67156">
        <ele>416</ele>
        <time>2012-06-11T08:16:19Z</time>
      </trkpt>
      <trkpt lat="44.56473" lon="2.67153">
        <ele>416</ele>
        <time>2012-06-11T08:16:21Z</time>
      </trkpt>
      <trkpt lat="44.56475" lon="2.67151">
        <ele>416</ele>
        <time>2012-06-11T08:16:23Z</time>
      </trkpt>
      <trkpt lat="44.56476" lon="2.6715">
        <ele>416</ele>
        <time>2012-06-11T08:16:24Z</time>
      </trkpt>
      <trkpt lat="44.56478" lon="2.67148">
        <ele>416</ele>
        <time>2012-06-11T08:16:25Z</time>
      </trkpt>
      <trkpt lat="44.56479" lon="2.67147">
        <ele>416</ele>
        <time>2012-06-11T08:16:26Z</time>
      </trkpt>
      <trkpt lat="44.56481" lon="2.67145">
        <ele>416</ele>
        <time>2012-06-11T08:16:27Z</time>
      </trkpt>
      <trkpt lat="44.56482" lon="2.67145">
        <ele>416</ele>
        <time>2012-06-11T08:16:28Z</time>
      </trkpt>
      <trkpt lat="44.56484" lon="2.67144">
        <ele>416</ele>
        <time>2012-06-11T08:16:29Z</time>
      </trkpt>
      <trkpt lat="44.56486" lon="2.67144">
        <ele>416</ele>
        <time>2012-06-11T08:16:30Z</time>
      </trkpt>
      <trkpt lat="44.56488" lon="2.67143">
        <ele>416</ele>
        <time>2012-06-11T08:16:31Z</time>
      </trkpt>
      <trkpt lat="44.56489" lon="2.67142">
        <ele>416</ele>
        <time>2012-06-11T08:16:32Z</time>
      </trkpt>
      <trkpt lat="44.56491" lon="2.67141">
        <ele>416</ele>
        <time>2012-06-11T08:16:33Z</time>
      </trkpt>
      <trkpt lat="44.56493" lon="2.67141">
        <ele>416</ele>
        <time>2012-06-11T08:16:34Z</time>
      </trkpt>
      <trkpt lat="44.56495" lon="2.6714">
        <ele>416</ele>
        <time>2012-06-11T08:16:35Z</time>
      </trkpt>
      <trkpt lat="44.56496" lon="2.67139">
        <ele>416</ele>
        <time>2012-06-11T08:16:36Z</time>
      </trkpt>
      <trkpt lat="44.56498" lon="2.67137">
        <ele>416</ele>
        <time>2012-06-11T08:16:38Z</time>
      </trkpt>
      <trkpt lat="44.565" lon="2.67138">
        <ele>416</ele>
        <time>2012-06-11T08:16:39Z</time>
      </trkpt>
      <trkpt lat="44.56501" lon="2.67135">
        <ele>417</ele>
        <time>2012-06-11T08:16:41Z</time>
      </trkpt>
      <trkpt lat="44.56502" lon="2.67134">
        <ele>418</ele>
        <time>2012-06-11T08:16:42Z</time>
      </trkpt>
      <trkpt lat="44.56504" lon="2.67132">
        <ele>419</ele>
        <time>2012-06-11T08:16:44Z</time>
      </trkpt>
      <trkpt lat="44.56505" lon="2.67132">
        <ele>420</ele>
        <time>2012-06-11T08:16:45Z</time>
      </trkpt>
      <trkpt lat="44.56506" lon="2.6713">
        <ele>420</ele>
        <time>2012-06-11T08:16:46Z</time>
      </trkpt>
      <trkpt lat="44.56508" lon="2.67129">
        <ele>420</ele>
        <time>2012-06-11T08:16:47Z</time>
      </trkpt>
      <trkpt lat="44.56509" lon="2.67129">
        <ele>421</ele>
        <time>2012-06-11T08:16:48Z</time>
      </trkpt>
      <trkpt lat="44.5651" lon="2.67128">
        <ele>421</ele>
        <time>2012-06-11T08:16:49Z</time>
      </trkpt>
      <trkpt lat="44.56512" lon="2.67127">
        <ele>421</ele>
        <time>2012-06-11T08:16:50Z</time>
      </trkpt>
      <trkpt lat="44.56515" lon="2.67127">
        <ele>421</ele>
        <time>2012-06-11T08:16:52Z</time>
      </trkpt>
      <trkpt lat="44.56516" lon="2.67126">
        <ele>421</ele>
        <time>2012-06-11T08:16:53Z</time>
      </trkpt>
      <trkpt lat="44.56517" lon="2.67125">
        <ele>421</ele>
        <time>2012-06-11T08:16:54Z</time>
      </trkpt>
      <trkpt lat="44.56517" lon="2.67123">
        <ele>421</ele>
        <time>2012-06-11T08:16:55Z</time>
      </trkpt>
      <trkpt lat="44.56519" lon="2.67121">
        <ele>422</ele>
        <time>2012-06-11T08:16:56Z</time>
      </trkpt>
      <trkpt lat="44.5652" lon="2.67121">
        <ele>422</ele>
        <time>2012-06-11T08:16:57Z</time>
      </trkpt>
      <trkpt lat="44.56522" lon="2.6712">
        <ele>422</ele>
        <time>2012-06-11T08:16:58Z</time>
      </trkpt>
      <trkpt lat="44.56524" lon="2.67119">
        <ele>423</ele>
        <time>2012-06-11T08:16:59Z</time>
      </trkpt>
      <trkpt lat="44.56525" lon="2.67118">
        <ele>423</ele>
        <time>2012-06-11T08:17:00Z</time>
      </trkpt>
      <trkpt lat="44.56526" lon="2.67117">
        <ele>423</ele>
        <time>2012-06-11T08:17:01Z</time>
      </trkpt>
      <trkpt lat="44.56528" lon="2.67115">
        <ele>423</ele>
        <time>2012-06-11T08:17:03Z</time>
      </trkpt>
      <trkpt lat="44.5653" lon="2.67113">
        <ele>423</ele>
        <time>2012-06-11T08:17:04Z</time>
      </trkpt>
      <trkpt lat="44.56531" lon="2.67112">
        <ele>423</ele>
        <time>2012-06-11T08:17:05Z</time>
      </trkpt>
      <trkpt lat="44.56533" lon="2.67111">
        <ele>423</ele>
        <time>2012-06-11T08:17:06Z</time>
      </trkpt>
      <trkpt lat="44.56534" lon="2.67108">
        <ele>423</ele>
        <time>2012-06-11T08:17:08Z</time>
      </trkpt>
      <trkpt lat="44.56536" lon="2.67107">
        <ele>423</ele>
        <time>2012-06-11T08:17:09Z</time>
      </trkpt>
      <trkpt lat="44.56537" lon="2.67106">
        <ele>423</ele>
        <time>2012-06-11T08:17:10Z</time>
      </trkpt>
      <trkpt lat="44.56538" lon="2.67105">
        <ele>423</ele>
        <time>2012-06-11T08:17:11Z</time>
      </trkpt>
      <trkpt lat="44.5654" lon="2.67104">
        <ele>423</ele>
        <time>2012-06-11T08:17:12Z</time>
      </trkpt>
      <trkpt lat="44.56541" lon="2.67102">
        <ele>423</ele>
        <time>2012-06-11T08:17:13Z</time>
      </trkpt>
      <trkpt lat="44.56543" lon="2.67101">
        <ele>423</ele>
        <time>2012-06-11T08:17:14Z</time>
      </trkpt>
      <trkpt lat="44.56544" lon="2.671">
        <ele>423</ele>
        <time>2012-06-11T08:17:15Z</time>
      </trkpt>
      <trkpt lat="44.56546" lon="2.67099">
        <ele>423</ele>
        <time>2012-06-11T08:17:16Z</time>
      </trkpt>
      <trkpt lat="44.56547" lon="2.67098">
        <ele>423</ele>
        <time>2012-06-11T08:17:17Z</time>
      </trkpt>
      <trkpt lat="44.56548" lon="2.67096">
        <ele>423</ele>
        <time>2012-06-11T08:17:18Z</time>
      </trkpt>
      <trkpt lat="44.56548" lon="2.67093">
        <ele>423</ele>
        <time>2012-06-11T08:17:19Z</time>
      </trkpt>
      <trkpt lat="44.56549" lon="2.67091">
        <ele>423</ele>
        <time>2012-06-11T08:17:20Z</time>
      </trkpt>
      <trkpt lat="44.56549" lon="2.67089">
        <ele>423</ele>
        <time>2012-06-11T08:17:21Z</time>
      </trkpt>
      <trkpt lat="44.5655" lon="2.67087">
        <ele>423</ele>
        <time>2012-06-11T08:17:22Z</time>
      </trkpt>
      <trkpt lat="44.56549" lon="2.67084">
        <ele>423</ele>
        <time>2012-06-11T08:17:23Z</time>
      </trkpt>
      <trkpt lat="44.56548" lon="2.67081">
        <ele>423</ele>
        <time>2012-06-11T08:17:24Z</time>
      </trkpt>
      <trkpt lat="44.56548" lon="2.6708">
        <ele>423</ele>
        <time>2012-06-11T08:17:25Z</time>
      </trkpt>
      <trkpt lat="44.56548" lon="2.67074">
        <ele>424</ele>
        <time>2012-06-11T08:17:28Z</time>
      </trkpt>
      <trkpt lat="44.56547" lon="2.67073">
        <ele>424</ele>
        <time>2012-06-11T08:17:29Z</time>
      </trkpt>
      <trkpt lat="44.56547" lon="2.67071">
        <ele>424</ele>
        <time>2012-06-11T08:17:30Z</time>
      </trkpt>
      <trkpt lat="44.56546" lon="2.67069">
        <ele>424</ele>
        <time>2012-06-11T08:17:31Z</time>
      </trkpt>
      <trkpt lat="44.56545" lon="2.67068">
        <ele>424</ele>
        <time>2012-06-11T08:17:32Z</time>
      </trkpt>
      <trkpt lat="44.56544" lon="2.67066">
        <ele>424</ele>
        <time>2012-06-11T08:17:33Z</time>
      </trkpt>
      <trkpt lat="44.56543" lon="2.67064">
        <ele>424</ele>
        <time>2012-06-11T08:17:35Z</time>
      </trkpt>
      <trkpt lat="44.56542" lon="2.67062">
        <ele>424</ele>
        <time>2012-06-11T08:17:36Z</time>
      </trkpt>
      <trkpt lat="44.56541" lon="2.67061">
        <ele>424</ele>
        <time>2012-06-11T08:17:37Z</time>
      </trkpt>
      <trkpt lat="44.5654" lon="2.67058">
        <ele>424</ele>
        <time>2012-06-11T08:17:39Z</time>
      </trkpt>
      <trkpt lat="44.56538" lon="2.67056">
        <ele>424</ele>
        <time>2012-06-11T08:17:41Z</time>
      </trkpt>
      <trkpt lat="44.56536" lon="2.67053">
        <ele>424</ele>
        <time>2012-06-11T08:17:43Z</time>
      </trkpt>
      <trkpt lat="44.56534" lon="2.67051">
        <ele>424</ele>
        <time>2012-06-11T08:17:45Z</time>
      </trkpt>
      <trkpt lat="44.56533" lon="2.67049">
        <ele>424</ele>
        <time>2012-06-11T08:17:46Z</time>
      </trkpt>
      <trkpt lat="44.56532" lon="2.67048">
        <ele>424</ele>
        <time>2012-06-11T08:17:47Z</time>
      </trkpt>
      <trkpt lat="44.56532" lon="2.67046">
        <ele>424</ele>
        <time>2012-06-11T08:17:48Z</time>
      </trkpt>
      <trkpt lat="44.5653" lon="2.67043">
        <ele>424</ele>
        <time>2012-06-11T08:17:50Z</time>
      </trkpt>
      <trkpt lat="44.56529" lon="2.67042">
        <ele>424</ele>
        <time>2012-06-11T08:17:51Z</time>
      </trkpt>
      <trkpt lat="44.56528" lon="2.6704">
        <ele>424</ele>
        <time>2012-06-11T08:17:52Z</time>
      </trkpt>
      <trkpt lat="44.56527" lon="2.67038">
        <ele>424</ele>
        <time>2012-06-11T08:17:54Z</time>
      </trkpt>
      <trkpt lat="44.56526" lon="2.67036">
        <ele>424</ele>
        <time>2012-06-11T08:17:55Z</time>
      </trkpt>
      <trkpt lat="44.56526" lon="2.67035">
        <ele>424</ele>
        <time>2012-06-11T08:17:56Z</time>
      </trkpt>
      <trkpt lat="44.56525" lon="2.67033">
        <ele>424</ele>
        <time>2012-06-11T08:17:57Z</time>
      </trkpt>
      <trkpt lat="44.56525" lon="2.67031">
        <ele>424</ele>
        <time>2012-06-11T08:17:58Z</time>
      </trkpt>
      <trkpt lat="44.56524" lon="2.6703">
        <ele>424</ele>
        <time>2012-06-11T08:17:59Z</time>
      </trkpt>
      <trkpt lat="44.56524" lon="2.67028">
        <ele>424</ele>
        <time>2012-06-11T08:18:00Z</time>
      </trkpt>
      <trkpt lat="44.56522" lon="2.67025">
        <ele>423</ele>
        <time>2012-06-11T08:18:02Z</time>
      </trkpt>
      <trkpt lat="44.56521" lon="2.67023">
        <ele>423</ele>
        <time>2012-06-11T08:18:04Z</time>
      </trkpt>
      <trkpt lat="44.5652" lon="2.67022">
        <ele>423</ele>
        <time>2012-06-11T08:18:06Z</time>
      </trkpt>
      <trkpt lat="44.56519" lon="2.6702">
        <ele>423</ele>
        <time>2012-06-11T08:18:27Z</time>
      </trkpt>
      <trkpt lat="44.56519" lon="2.67017">
        <ele>423</ele>
        <time>2012-06-11T08:18:29Z</time>
      </trkpt>
      <trkpt lat="44.56518" lon="2.67015">
        <ele>423</ele>
        <time>2012-06-11T08:18:31Z</time>
      </trkpt>
      <trkpt lat="44.56516" lon="2.67012">
        <ele>423</ele>
        <time>2012-06-11T08:18:33Z</time>
      </trkpt>
      <trkpt lat="44.56515" lon="2.6701">
        <ele>423</ele>
        <time>2012-06-11T08:18:34Z</time>
      </trkpt>
      <trkpt lat="44.56515" lon="2.67008">
        <ele>423</ele>
        <time>2012-06-11T08:18:35Z</time>
      </trkpt>
      <trkpt lat="44.56514" lon="2.67006">
        <ele>423</ele>
        <time>2012-06-11T08:18:36Z</time>
      </trkpt>
      <trkpt lat="44.56514" lon="2.67004">
        <ele>423</ele>
        <time>2012-06-11T08:18:37Z</time>
      </trkpt>
      <trkpt lat="44.56513" lon="2.67003">
        <ele>423</ele>
        <time>2012-06-11T08:18:38Z</time>
      </trkpt>
      <trkpt lat="44.56512" lon="2.67001">
        <ele>423</ele>
        <time>2012-06-11T08:18:39Z</time>
      </trkpt>
      <trkpt lat="44.56512" lon="2.66999">
        <ele>423</ele>
        <time>2012-06-11T08:18:40Z</time>
      </trkpt>
      <trkpt lat="44.56512" lon="2.66997">
        <ele>423</ele>
        <time>2012-06-11T08:18:41Z</time>
      </trkpt>
      <trkpt lat="44.56511" lon="2.66992">
        <ele>423</ele>
        <time>2012-06-11T08:18:43Z</time>
      </trkpt>
      <trkpt lat="44.56511" lon="2.6699">
        <ele>423</ele>
        <time>2012-06-11T08:18:44Z</time>
      </trkpt>
      <trkpt lat="44.5651" lon="2.66988">
        <ele>423</ele>
        <time>2012-06-11T08:18:45Z</time>
      </trkpt>
      <trkpt lat="44.56509" lon="2.66984">
        <ele>423</ele>
        <time>2012-06-11T08:18:47Z</time>
      </trkpt>
      <trkpt lat="44.56509" lon="2.66982">
        <ele>423</ele>
        <time>2012-06-11T08:18:48Z</time>
      </trkpt>
      <trkpt lat="44.56508" lon="2.6698">
        <ele>423</ele>
        <time>2012-06-11T08:18:49Z</time>
      </trkpt>
      <trkpt lat="44.56508" lon="2.66978">
        <ele>423</ele>
        <time>2012-06-11T08:18:50Z</time>
      </trkpt>
      <trkpt lat="44.56507" lon="2.66976">
        <ele>423</ele>
        <time>2012-06-11T08:18:51Z</time>
      </trkpt>
      <trkpt lat="44.56507" lon="2.66974">
        <ele>423</ele>
        <time>2012-06-11T08:18:52Z</time>
      </trkpt>
      <trkpt lat="44.56506" lon="2.66972">
        <ele>423</ele>
        <time>2012-06-11T08:18:53Z</time>
      </trkpt>
      <trkpt lat="44.56506" lon="2.6697">
        <ele>423</ele>
        <time>2012-06-11T08:18:54Z</time>
      </trkpt>
      <trkpt lat="44.56505" lon="2.66968">
        <ele>423</ele>
        <time>2012-06-11T08:18:55Z</time>
      </trkpt>
      <trkpt lat="44.56504" lon="2.66967">
        <ele>423</ele>
        <time>2012-06-11T08:18:56Z</time>
      </trkpt>
      <trkpt lat="44.56504" lon="2.66965">
        <ele>423</ele>
        <time>2012-06-11T08:18:57Z</time>
      </trkpt>
      <trkpt lat="44.56503" lon="2.66963">
        <ele>423</ele>
        <time>2012-06-11T08:18:58Z</time>
      </trkpt>
      <trkpt lat="44.56503" lon="2.66961">
        <ele>423</ele>
        <time>2012-06-11T08:18:59Z</time>
      </trkpt>
      <trkpt lat="44.56503" lon="2.66959">
        <ele>423</ele>
        <time>2012-06-11T08:19:00Z</time>
      </trkpt>
      <trkpt lat="44.56502" lon="2.66956">
        <ele>423</ele>
        <time>2012-06-11T08:19:01Z</time>
      </trkpt>
      <trkpt lat="44.56502" lon="2.66948">
        <ele>423</ele>
        <time>2012-06-11T08:19:05Z</time>
      </trkpt>
      <trkpt lat="44.56501" lon="2.66946">
        <ele>423</ele>
        <time>2012-06-11T08:19:06Z</time>
      </trkpt>
      <trkpt lat="44.56501" lon="2.66937">
        <ele>423</ele>
        <time>2012-06-11T08:19:10Z</time>
      </trkpt>
      <trkpt lat="44.56501" lon="2.66935">
        <ele>423</ele>
        <time>2012-06-11T08:19:11Z</time>
      </trkpt>
      <trkpt lat="44.565" lon="2.66931">
        <ele>423</ele>
        <time>2012-06-11T08:19:13Z</time>
      </trkpt>
      <trkpt lat="44.56501" lon="2.66929">
        <ele>423</ele>
        <time>2012-06-11T08:19:14Z</time>
      </trkpt>
      <trkpt lat="44.565" lon="2.66919">
        <ele>423</ele>
        <time>2012-06-11T08:19:18Z</time>
      </trkpt>
      <trkpt lat="44.565" lon="2.66915">
        <ele>423</ele>
        <time>2012-06-11T08:19:20Z</time>
      </trkpt>
      <trkpt lat="44.56499" lon="2.66911">
        <ele>423</ele>
        <time>2012-06-11T08:19:22Z</time>
      </trkpt>
      <trkpt lat="44.56499" lon="2.66907">
        <ele>423</ele>
        <time>2012-06-11T08:19:24Z</time>
      </trkpt>
      <trkpt lat="44.56499" lon="2.66903">
        <ele>423</ele>
        <time>2012-06-11T08:19:26Z</time>
      </trkpt>
      <trkpt lat="44.56498" lon="2.669">
        <ele>423</ele>
        <time>2012-06-11T08:19:27Z</time>
      </trkpt>
      <trkpt lat="44.56499" lon="2.66896">
        <ele>423</ele>
        <time>2012-06-11T08:19:29Z</time>
      </trkpt>
      <trkpt lat="44.56498" lon="2.66895">
        <ele>423</ele>
        <time>2012-06-11T08:19:30Z</time>
      </trkpt>
      <trkpt lat="44.56498" lon="2.66881">
        <ele>423</ele>
        <time>2012-06-11T08:19:37Z</time>
      </trkpt>
      <trkpt lat="44.56498" lon="2.6688">
        <ele>423</ele>
        <time>2012-06-11T08:19:38Z</time>
      </trkpt>
      <trkpt lat="44.56497" lon="2.66878">
        <ele>423</ele>
        <time>2012-06-11T08:19:39Z</time>
      </trkpt>
      <trkpt lat="44.56497" lon="2.66874">
        <ele>423</ele>
        <time>2012-06-11T08:19:42Z</time>
      </trkpt>
      <trkpt lat="44.56496" lon="2.66872">
        <ele>423</ele>
        <time>2012-06-11T08:19:43Z</time>
      </trkpt>
      <trkpt lat="44.56496" lon="2.66871">
        <ele>423</ele>
        <time>2012-06-11T08:19:44Z</time>
      </trkpt>
      <trkpt lat="44.56495" lon="2.66869">
        <ele>423</ele>
        <time>2012-06-11T08:19:45Z</time>
      </trkpt>
      <trkpt lat="44.56495" lon="2.66864">
        <ele>423</ele>
        <time>2012-06-11T08:19:47Z</time>
      </trkpt>
      <trkpt lat="44.56495" lon="2.66863">
        <ele>423</ele>
        <time>2012-06-11T08:19:48Z</time>
      </trkpt>
      <trkpt lat="44.56494" lon="2.66861">
        <ele>423</ele>
        <time>2012-06-11T08:19:49Z</time>
      </trkpt>
      <trkpt lat="44.56494" lon="2.66859">
        <ele>423</ele>
        <time>2012-06-11T08:19:50Z</time>
      </trkpt>
      <trkpt lat="44.56493" lon="2.66854">
        <ele>423</ele>
        <time>2012-06-11T08:19:53Z</time>
      </trkpt>
      <trkpt lat="44.56493" lon="2.66852">
        <ele>423</ele>
        <time>2012-06-11T08:19:54Z</time>
      </trkpt>
      <trkpt lat="44.56492" lon="2.66849">
        <ele>423</ele>
        <time>2012-06-11T08:19:56Z</time>
      </trkpt>
      <trkpt lat="44.56491" lon="2.66847">
        <ele>423</ele>
        <time>2012-06-11T08:19:58Z</time>
      </trkpt>
      <trkpt lat="44.56492" lon="2.66843">
        <ele>421</ele>
        <time>2012-06-11T08:20:05Z</time>
      </trkpt>
      <trkpt lat="44.5649" lon="2.6684">
        <ele>421</ele>
        <time>2012-06-11T08:20:07Z</time>
      </trkpt>
      <trkpt lat="44.5649" lon="2.66838">
        <ele>421</ele>
        <time>2012-06-11T08:20:09Z</time>
      </trkpt>
      <trkpt lat="44.56489" lon="2.66837">
        <ele>421</ele>
        <time>2012-06-11T08:20:12Z</time>
      </trkpt>
      <trkpt lat="44.56487" lon="2.66836">
        <ele>421</ele>
        <time>2012-06-11T08:20:17Z</time>
      </trkpt>
      <trkpt lat="44.56486" lon="2.66835">
        <ele>421</ele>
        <time>2012-06-11T08:20:23Z</time>
      </trkpt>
      <trkpt lat="44.56485" lon="2.66833">
        <ele>422</ele>
        <time>2012-06-11T08:20:30Z</time>
      </trkpt>
      <trkpt lat="44.56484" lon="2.6683">
        <ele>422</ele>
        <time>2012-06-11T08:20:32Z</time>
      </trkpt>
      <trkpt lat="44.56484" lon="2.66828">
        <ele>422</ele>
        <time>2012-06-11T08:20:33Z</time>
      </trkpt>
      <trkpt lat="44.56483" lon="2.66826">
        <ele>422</ele>
        <time>2012-06-11T08:20:34Z</time>
      </trkpt>
      <trkpt lat="44.56482" lon="2.66824">
        <ele>422</ele>
        <time>2012-06-11T08:20:35Z</time>
      </trkpt>
      <trkpt lat="44.56481" lon="2.66823">
        <ele>422</ele>
        <time>2012-06-11T08:20:36Z</time>
      </trkpt>
      <trkpt lat="44.56481" lon="2.66821">
        <ele>422</ele>
        <time>2012-06-11T08:20:37Z</time>
      </trkpt>
      <trkpt lat="44.5648" lon="2.66819">
        <ele>422</ele>
        <time>2012-06-11T08:20:38Z</time>
      </trkpt>
      <trkpt lat="44.56478" lon="2.66817">
        <ele>422</ele>
        <time>2012-06-11T08:20:39Z</time>
      </trkpt>
      <trkpt lat="44.56478" lon="2.66815">
        <ele>422</ele>
        <time>2012-06-11T08:20:40Z</time>
      </trkpt>
      <trkpt lat="44.56477" lon="2.66813">
        <ele>422</ele>
        <time>2012-06-11T08:20:41Z</time>
      </trkpt>
      <trkpt lat="44.56477" lon="2.66811">
        <ele>422</ele>
        <time>2012-06-11T08:20:42Z</time>
      </trkpt>
      <trkpt lat="44.56476" lon="2.66808">
        <ele>422</ele>
        <time>2012-06-11T08:20:44Z</time>
      </trkpt>
      <trkpt lat="44.56476" lon="2.66807">
        <ele>422</ele>
        <time>2012-06-11T08:20:45Z</time>
      </trkpt>
      <trkpt lat="44.56475" lon="2.66805">
        <ele>422</ele>
        <time>2012-06-11T08:20:46Z</time>
      </trkpt>
      <trkpt lat="44.56475" lon="2.66803">
        <ele>422</ele>
        <time>2012-06-11T08:20:47Z</time>
      </trkpt>
      <trkpt lat="44.56475" lon="2.668">
        <ele>422</ele>
        <time>2012-06-11T08:20:49Z</time>
      </trkpt>
      <trkpt lat="44.56474" lon="2.66799">
        <ele>422</ele>
        <time>2012-06-11T08:20:50Z</time>
      </trkpt>
      <trkpt lat="44.56473" lon="2.66797">
        <ele>422</ele>
        <time>2012-06-11T08:20:51Z</time>
      </trkpt>
      <trkpt lat="44.56472" lon="2.66792">
        <ele>422</ele>
        <time>2012-06-11T08:20:53Z</time>
      </trkpt>
      <trkpt lat="44.56472" lon="2.66791">
        <ele>422</ele>
        <time>2012-06-11T08:20:54Z</time>
      </trkpt>
      <trkpt lat="44.56472" lon="2.66786">
        <ele>422</ele>
        <time>2012-06-11T08:20:56Z</time>
      </trkpt>
      <trkpt lat="44.56471" lon="2.66783">
        <ele>422</ele>
        <time>2012-06-11T08:20:58Z</time>
      </trkpt>
      <trkpt lat="44.5647" lon="2.66781">
        <ele>422</ele>
        <time>2012-06-11T08:20:59Z</time>
      </trkpt>
      <trkpt lat="44.5647" lon="2.66779">
        <ele>422</ele>
        <time>2012-06-11T08:21:00Z</time>
      </trkpt>
      <trkpt lat="44.56469" lon="2.66776">
        <ele>422</ele>
        <time>2012-06-11T08:21:01Z</time>
      </trkpt>
      <trkpt lat="44.56469" lon="2.66774">
        <ele>422</ele>
        <time>2012-06-11T08:21:02Z</time>
      </trkpt>
      <trkpt lat="44.56468" lon="2.66772">
        <ele>422</ele>
        <time>2012-06-11T08:21:03Z</time>
      </trkpt>
      <trkpt lat="44.56468" lon="2.6677">
        <ele>422</ele>
        <time>2012-06-11T08:21:04Z</time>
      </trkpt>
      <trkpt lat="44.56467" lon="2.66769">
        <ele>422</ele>
        <time>2012-06-11T08:21:05Z</time>
      </trkpt>
      <trkpt lat="44.56466" lon="2.66763">
        <ele>422</ele>
        <time>2012-06-11T08:21:08Z</time>
      </trkpt>
      <trkpt lat="44.56465" lon="2.66761">
        <ele>422</ele>
        <time>2012-06-11T08:21:09Z</time>
      </trkpt>
      <trkpt lat="44.56465" lon="2.66759">
        <ele>422</ele>
        <time>2012-06-11T08:21:10Z</time>
      </trkpt>
      <trkpt lat="44.56464" lon="2.66757">
        <ele>422</ele>
        <time>2012-06-11T08:21:11Z</time>
      </trkpt>
      <trkpt lat="44.56464" lon="2.66753">
        <ele>422</ele>
        <time>2012-06-11T08:21:13Z</time>
      </trkpt>
      <trkpt lat="44.56464" lon="2.66751">
        <ele>422</ele>
        <time>2012-06-11T08:21:14Z</time>
      </trkpt>
      <trkpt lat="44.56463" lon="2.66749">
        <ele>422</ele>
        <time>2012-06-11T08:21:15Z</time>
      </trkpt>
      <trkpt lat="44.56462" lon="2.66744">
        <ele>422</ele>
        <time>2012-06-11T08:21:17Z</time>
      </trkpt>
      <trkpt lat="44.56462" lon="2.66742">
        <ele>422</ele>
        <time>2012-06-11T08:21:18Z</time>
      </trkpt>
      <trkpt lat="44.56461" lon="2.6674">
        <ele>422</ele>
        <time>2012-06-11T08:21:19Z</time>
      </trkpt>
      <trkpt lat="44.56461" lon="2.66738">
        <ele>422</ele>
        <time>2012-06-11T08:21:20Z</time>
      </trkpt>
      <trkpt lat="44.56461" lon="2.66736">
        <ele>422</ele>
        <time>2012-06-11T08:21:21Z</time>
      </trkpt>
      <trkpt lat="44.5646" lon="2.66734">
        <ele>422</ele>
        <time>2012-06-11T08:21:22Z</time>
      </trkpt>
      <trkpt lat="44.5646" lon="2.66732">
        <ele>422</ele>
        <time>2012-06-11T08:21:23Z</time>
      </trkpt>
      <trkpt lat="44.56459" lon="2.6673">
        <ele>422</ele>
        <time>2012-06-11T08:21:24Z</time>
      </trkpt>
      <trkpt lat="44.56459" lon="2.66728">
        <ele>422</ele>
        <time>2012-06-11T08:21:25Z</time>
      </trkpt>
      <trkpt lat="44.56458" lon="2.66725">
        <ele>422</ele>
        <time>2012-06-11T08:21:26Z</time>
      </trkpt>
      <trkpt lat="44.56458" lon="2.66723">
        <ele>422</ele>
        <time>2012-06-11T08:21:27Z</time>
      </trkpt>
      <trkpt lat="44.56457" lon="2.66721">
        <ele>422</ele>
        <time>2012-06-11T08:21:28Z</time>
      </trkpt>
      <trkpt lat="44.56457" lon="2.66719">
        <ele>422</ele>
        <time>2012-06-11T08:21:29Z</time>
      </trkpt>
      <trkpt lat="44.56456" lon="2.66717">
        <ele>422</ele>
        <time>2012-06-11T08:21:30Z</time>
      </trkpt>
      <trkpt lat="44.56456" lon="2.66715">
        <ele>422</ele>
        <time>2012-06-11T08:21:31Z</time>
      </trkpt>
      <trkpt lat="44.56455" lon="2.66711">
        <ele>422</ele>
        <time>2012-06-11T08:21:33Z</time>
      </trkpt>
      <trkpt lat="44.56455" lon="2.66709">
        <ele>422</ele>
        <time>2012-06-11T08:21:34Z</time>
      </trkpt>
      <trkpt lat="44.56454" lon="2.66707">
        <ele>422</ele>
        <time>2012-06-11T08:21:35Z</time>
      </trkpt>
      <trkpt lat="44.56454" lon="2.66706">
        <ele>422</ele>
        <time>2012-06-11T08:21:36Z</time>
      </trkpt>
      <trkpt lat="44.56453" lon="2.66704">
        <ele>422</ele>
        <time>2012-06-11T08:21:37Z</time>
      </trkpt>
      <trkpt lat="44.56453" lon="2.66703">
        <ele>422</ele>
        <time>2012-06-11T08:21:38Z</time>
      </trkpt>
      <trkpt lat="44.56453" lon="2.66701">
        <ele>422</ele>
        <time>2012-06-11T08:21:39Z</time>
      </trkpt>
      <trkpt lat="44.56452" lon="2.66699">
        <ele>422</ele>
        <time>2012-06-11T08:21:40Z</time>
      </trkpt>
      <trkpt lat="44.56451" lon="2.66697">
        <ele>422</ele>
        <time>2012-06-11T08:21:41Z</time>
      </trkpt>
      <trkpt lat="44.56451" lon="2.66695">
        <ele>422</ele>
        <time>2012-06-11T08:21:42Z</time>
      </trkpt>
      <trkpt lat="44.5645" lon="2.66693">
        <ele>422</ele>
        <time>2012-06-11T08:21:43Z</time>
      </trkpt>
      <trkpt lat="44.5645" lon="2.66691">
        <ele>422</ele>
        <time>2012-06-11T08:21:44Z</time>
      </trkpt>
      <trkpt lat="44.56449" lon="2.66689">
        <ele>422</ele>
        <time>2012-06-11T08:21:45Z</time>
      </trkpt>
      <trkpt lat="44.56448" lon="2.66687">
        <ele>422</ele>
        <time>2012-06-11T08:21:46Z</time>
      </trkpt>
      <trkpt lat="44.56448" lon="2.66686">
        <ele>422</ele>
        <time>2012-06-11T08:21:47Z</time>
      </trkpt>
      <trkpt lat="44.56447" lon="2.66684">
        <ele>422</ele>
        <time>2012-06-11T08:21:48Z</time>
      </trkpt>
      <trkpt lat="44.56446" lon="2.66682">
        <ele>422</ele>
        <time>2012-06-11T08:21:49Z</time>
      </trkpt>
      <trkpt lat="44.56445" lon="2.6668">
        <ele>422</ele>
        <time>2012-06-11T08:21:50Z</time>
      </trkpt>
      <trkpt lat="44.56445" lon="2.66678">
        <ele>422</ele>
        <time>2012-06-11T08:21:51Z</time>
      </trkpt>
      <trkpt lat="44.56444" lon="2.66676">
        <ele>422</ele>
        <time>2012-06-11T08:21:52Z</time>
      </trkpt>
      <trkpt lat="44.56443" lon="2.66674">
        <ele>421</ele>
        <time>2012-06-11T08:21:53Z</time>
      </trkpt>
      <trkpt lat="44.56442" lon="2.66672">
        <ele>421</ele>
        <time>2012-06-11T08:21:54Z</time>
      </trkpt>
      <trkpt lat="44.56441" lon="2.66671">
        <ele>421</ele>
        <time>2012-06-11T08:21:55Z</time>
      </trkpt>
      <trkpt lat="44.56439" lon="2.66669">
        <ele>420</ele>
        <time>2012-06-11T08:21:57Z</time>
      </trkpt>
      <trkpt lat="44.56438" lon="2.66668">
        <ele>420</ele>
        <time>2012-06-11T08:21:58Z</time>
      </trkpt>
      <trkpt lat="44.56437" lon="2.66666">
        <ele>420</ele>
        <time>2012-06-11T08:21:59Z</time>
      </trkpt>
      <trkpt lat="44.56435" lon="2.66664">
        <ele>419</ele>
        <time>2012-06-11T08:22:01Z</time>
      </trkpt>
      <trkpt lat="44.56433" lon="2.66661">
        <ele>419</ele>
        <time>2012-06-11T08:22:03Z</time>
      </trkpt>
      <trkpt lat="44.56431" lon="2.6666">
        <ele>419</ele>
        <time>2012-06-11T08:22:05Z</time>
      </trkpt>
      <trkpt lat="44.56429" lon="2.66657">
        <ele>418</ele>
        <time>2012-06-11T08:22:07Z</time>
      </trkpt>
      <trkpt lat="44.56427" lon="2.66655">
        <ele>418</ele>
        <time>2012-06-11T08:22:09Z</time>
      </trkpt>
      <trkpt lat="44.56425" lon="2.66653">
        <ele>417</ele>
        <time>2012-06-11T08:22:11Z</time>
      </trkpt>
      <trkpt lat="44.56423" lon="2.66651">
        <ele>417</ele>
        <time>2012-06-11T08:22:13Z</time>
      </trkpt>
      <trkpt lat="44.56421" lon="2.66648">
        <ele>416</ele>
        <time>2012-06-11T08:22:15Z</time>
      </trkpt>
      <trkpt lat="44.56419" lon="2.66646">
        <ele>416</ele>
        <time>2012-06-11T08:22:17Z</time>
      </trkpt>
      <trkpt lat="44.56418" lon="2.66644">
        <ele>415</ele>
        <time>2012-06-11T08:22:18Z</time>
      </trkpt>
      <trkpt lat="44.56417" lon="2.66643">
        <ele>415</ele>
        <time>2012-06-11T08:22:19Z</time>
      </trkpt>
      <trkpt lat="44.56416" lon="2.66642">
        <ele>415</ele>
        <time>2012-06-11T08:22:20Z</time>
      </trkpt>
      <trkpt lat="44.56415" lon="2.66641">
        <ele>415</ele>
        <time>2012-06-11T08:22:21Z</time>
      </trkpt>
      <trkpt lat="44.56413" lon="2.66639">
        <ele>414</ele>
        <time>2012-06-11T08:22:23Z</time>
      </trkpt>
      <trkpt lat="44.56411" lon="2.66637">
        <ele>414</ele>
        <time>2012-06-11T08:22:24Z</time>
      </trkpt>
      <trkpt lat="44.56409" lon="2.66635">
        <ele>414</ele>
        <time>2012-06-11T08:22:26Z</time>
      </trkpt>
      <trkpt lat="44.56407" lon="2.66633">
        <ele>413</ele>
        <time>2012-06-11T08:22:28Z</time>
      </trkpt>
      <trkpt lat="44.56406" lon="2.66632">
        <ele>413</ele>
        <time>2012-06-11T08:22:29Z</time>
      </trkpt>
      <trkpt lat="44.56405" lon="2.6663">
        <ele>413</ele>
        <time>2012-06-11T08:22:30Z</time>
      </trkpt>
      <trkpt lat="44.56403" lon="2.66628">
        <ele>412</ele>
        <time>2012-06-11T08:22:32Z</time>
      </trkpt>
      <trkpt lat="44.56401" lon="2.66626">
        <ele>412</ele>
        <time>2012-06-11T08:22:34Z</time>
      </trkpt>
      <trkpt lat="44.564" lon="2.66623">
        <ele>412</ele>
        <time>2012-06-11T08:22:36Z</time>
      </trkpt>
      <trkpt lat="44.564" lon="2.66621">
        <ele>412</ele>
        <time>2012-06-11T08:22:37Z</time>
      </trkpt>
      <trkpt lat="44.56399" lon="2.6662">
        <ele>411</ele>
        <time>2012-06-11T08:22:38Z</time>
      </trkpt>
      <trkpt lat="44.56398" lon="2.66617">
        <ele>411</ele>
        <time>2012-06-11T08:22:40Z</time>
      </trkpt>
      <trkpt lat="44.56396" lon="2.66616">
        <ele>410</ele>
        <time>2012-06-11T08:22:42Z</time>
      </trkpt>
      <trkpt lat="44.56395" lon="2.66615">
        <ele>410</ele>
        <time>2012-06-11T08:22:59Z</time>
      </trkpt>
      <trkpt lat="44.56393" lon="2.66613">
        <ele>410</ele>
        <time>2012-06-11T08:23:14Z</time>
      </trkpt>
      <trkpt lat="44.56392" lon="2.66613">
        <ele>410</ele>
        <time>2012-06-11T08:23:16Z</time>
      </trkpt>
      <trkpt lat="44.56392" lon="2.66611">
        <ele>409</ele>
        <time>2012-06-11T08:23:32Z</time>
      </trkpt>
      <trkpt lat="44.56391" lon="2.6661">
        <ele>409</ele>
        <time>2012-06-11T08:23:33Z</time>
      </trkpt>
      <trkpt lat="44.56391" lon="2.66608">
        <ele>409</ele>
        <time>2012-06-11T08:23:34Z</time>
      </trkpt>
      <trkpt lat="44.56389" lon="2.66605">
        <ele>409</ele>
        <time>2012-06-11T08:23:36Z</time>
      </trkpt>
      <trkpt lat="44.56387" lon="2.66603">
        <ele>408</ele>
        <time>2012-06-11T08:23:38Z</time>
      </trkpt>
      <trkpt lat="44.56386" lon="2.66601">
        <ele>408</ele>
        <time>2012-06-11T08:23:40Z</time>
      </trkpt>
      <trkpt lat="44.56385" lon="2.66599">
        <ele>407</ele>
        <time>2012-06-11T08:23:42Z</time>
      </trkpt>
      <trkpt lat="44.56383" lon="2.66597">
        <ele>407</ele>
        <time>2012-06-11T08:23:44Z</time>
      </trkpt>
      <trkpt lat="44.56382" lon="2.66595">
        <ele>407</ele>
        <time>2012-06-11T08:23:46Z</time>
      </trkpt>
      <trkpt lat="44.56381" lon="2.66592">
        <ele>406</ele>
        <time>2012-06-11T08:23:49Z</time>
      </trkpt>
      <trkpt lat="44.5638" lon="2.6659">
        <ele>406</ele>
        <time>2012-06-11T08:23:50Z</time>
      </trkpt>
      <trkpt lat="44.56379" lon="2.66589">
        <ele>406</ele>
        <time>2012-06-11T08:23:51Z</time>
      </trkpt>
      <trkpt lat="44.56379" lon="2.66587">
        <ele>406</ele>
        <time>2012-06-11T08:23:52Z</time>
      </trkpt>
      <trkpt lat="44.56378" lon="2.66585">
        <ele>406</ele>
        <time>2012-06-11T08:23:53Z</time>
      </trkpt>
      <trkpt lat="44.56377" lon="2.66583">
        <ele>405</ele>
        <time>2012-06-11T08:23:55Z</time>
      </trkpt>
      <trkpt lat="44.56376" lon="2.66581">
        <ele>405</ele>
        <time>2012-06-11T08:23:57Z</time>
      </trkpt>
      <trkpt lat="44.56375" lon="2.66579">
        <ele>405</ele>
        <time>2012-06-11T08:24:15Z</time>
      </trkpt>
      <trkpt lat="44.56373" lon="2.66578">
        <ele>404</ele>
        <time>2012-06-11T08:24:17Z</time>
      </trkpt>
      <trkpt lat="44.5637" lon="2.66577">
        <ele>404</ele>
        <time>2012-06-11T08:24:19Z</time>
      </trkpt>
      <trkpt lat="44.56369" lon="2.66576">
        <ele>404</ele>
        <time>2012-06-11T08:24:20Z</time>
      </trkpt>
      <trkpt lat="44.56368" lon="2.66575">
        <ele>404</ele>
        <time>2012-06-11T08:24:21Z</time>
      </trkpt>
      <trkpt lat="44.56366" lon="2.66574">
        <ele>404</ele>
        <time>2012-06-11T08:24:22Z</time>
      </trkpt>
      <trkpt lat="44.56365" lon="2.66573">
        <ele>404</ele>
        <time>2012-06-11T08:24:23Z</time>
      </trkpt>
      <trkpt lat="44.56364" lon="2.66572">
        <ele>404</ele>
        <time>2012-06-11T08:24:24Z</time>
      </trkpt>
      <trkpt lat="44.56362" lon="2.66571">
        <ele>404</ele>
        <time>2012-06-11T08:24:25Z</time>
      </trkpt>
      <trkpt lat="44.56361" lon="2.6657">
        <ele>404</ele>
        <time>2012-06-11T08:24:26Z</time>
      </trkpt>
      <trkpt lat="44.56359" lon="2.66569">
        <ele>404</ele>
        <time>2012-06-11T08:24:27Z</time>
      </trkpt>
      <trkpt lat="44.56358" lon="2.66568">
        <ele>404</ele>
        <time>2012-06-11T08:24:28Z</time>
      </trkpt>
      <trkpt lat="44.56357" lon="2.66567">
        <ele>403</ele>
        <time>2012-06-11T08:24:29Z</time>
      </trkpt>
      <trkpt lat="44.56355" lon="2.66566">
        <ele>403</ele>
        <time>2012-06-11T08:24:30Z</time>
      </trkpt>
      <trkpt lat="44.56354" lon="2.66565">
        <ele>403</ele>
        <time>2012-06-11T08:24:31Z</time>
      </trkpt>
      <trkpt lat="44.56353" lon="2.66564">
        <ele>403</ele>
        <time>2012-06-11T08:24:32Z</time>
      </trkpt>
      <trkpt lat="44.56351" lon="2.66563">
        <ele>402</ele>
        <time>2012-06-11T08:24:33Z</time>
      </trkpt>
      <trkpt lat="44.5635" lon="2.66563">
        <ele>402</ele>
        <time>2012-06-11T08:24:34Z</time>
      </trkpt>
      <trkpt lat="44.56349" lon="2.66562">
        <ele>402</ele>
        <time>2012-06-11T08:24:35Z</time>
      </trkpt>
      <trkpt lat="44.56348" lon="2.66561">
        <ele>402</ele>
        <time>2012-06-11T08:24:36Z</time>
      </trkpt>
      <trkpt lat="44.56346" lon="2.6656">
        <ele>402</ele>
        <time>2012-06-11T08:24:37Z</time>
      </trkpt>
      <trkpt lat="44.56345" lon="2.66559">
        <ele>401</ele>
        <time>2012-06-11T08:24:38Z</time>
      </trkpt>
      <trkpt lat="44.56344" lon="2.66558">
        <ele>401</ele>
        <time>2012-06-11T08:24:39Z</time>
      </trkpt>
      <trkpt lat="44.56343" lon="2.66557">
        <ele>401</ele>
        <time>2012-06-11T08:24:40Z</time>
      </trkpt>
      <trkpt lat="44.56341" lon="2.66555">
        <ele>400</ele>
        <time>2012-06-11T08:24:42Z</time>
      </trkpt>
      <trkpt lat="44.56339" lon="2.66554">
        <ele>400</ele>
        <time>2012-06-11T08:24:43Z</time>
      </trkpt>
      <trkpt lat="44.56338" lon="2.66553">
        <ele>400</ele>
        <time>2012-06-11T08:24:44Z</time>
      </trkpt>
      <trkpt lat="44.56337" lon="2.66552">
        <ele>400</ele>
        <time>2012-06-11T08:24:45Z</time>
      </trkpt>
      <trkpt lat="44.56336" lon="2.66551">
        <ele>399</ele>
        <time>2012-06-11T08:24:46Z</time>
      </trkpt>
      <trkpt lat="44.56334" lon="2.6655">
        <ele>399</ele>
        <time>2012-06-11T08:24:47Z</time>
      </trkpt>
      <trkpt lat="44.56332" lon="2.66548">
        <ele>399</ele>
        <time>2012-06-11T08:24:49Z</time>
      </trkpt>
      <trkpt lat="44.5633" lon="2.66547">
        <ele>398</ele>
        <time>2012-06-11T08:24:50Z</time>
      </trkpt>
      <trkpt lat="44.56329" lon="2.66546">
        <ele>398</ele>
        <time>2012-06-11T08:24:51Z</time>
      </trkpt>
      <trkpt lat="44.56328" lon="2.66546">
        <ele>398</ele>
        <time>2012-06-11T08:24:52Z</time>
      </trkpt>
      <trkpt lat="44.56327" lon="2.66545">
        <ele>398</ele>
        <time>2012-06-11T08:24:53Z</time>
      </trkpt>
      <trkpt lat="44.56326" lon="2.66544">
        <ele>397</ele>
        <time>2012-06-11T08:24:54Z</time>
      </trkpt>
      <trkpt lat="44.56324" lon="2.66543">
        <ele>397</ele>
        <time>2012-06-11T08:24:55Z</time>
      </trkpt>
      <trkpt lat="44.56322" lon="2.66543">
        <ele>397</ele>
        <time>2012-06-11T08:24:56Z</time>
      </trkpt>
      <trkpt lat="44.56321" lon="2.66542">
        <ele>397</ele>
        <time>2012-06-11T08:24:57Z</time>
      </trkpt>
      <trkpt lat="44.56319" lon="2.66541">
        <ele>396</ele>
        <time>2012-06-11T08:24:58Z</time>
      </trkpt>
      <trkpt lat="44.56318" lon="2.6654">
        <ele>396</ele>
        <time>2012-06-11T08:24:59Z</time>
      </trkpt>
      <trkpt lat="44.56317" lon="2.6654">
        <ele>396</ele>
        <time>2012-06-11T08:25:00Z</time>
      </trkpt>
      <trkpt lat="44.56315" lon="2.66539">
        <ele>396</ele>
        <time>2012-06-11T08:25:01Z</time>
      </trkpt>
      <trkpt lat="44.56314" lon="2.66539">
        <ele>395</ele>
        <time>2012-06-11T08:25:02Z</time>
      </trkpt>
      <trkpt lat="44.56312" lon="2.66538">
        <ele>395</ele>
        <time>2012-06-11T08:25:03Z</time>
      </trkpt>
      <trkpt lat="44.56311" lon="2.66538">
        <ele>395</ele>
        <time>2012-06-11T08:25:04Z</time>
      </trkpt>
      <trkpt lat="44.56309" lon="2.66537">
        <ele>395</ele>
        <time>2012-06-11T08:25:05Z</time>
      </trkpt>
      <trkpt lat="44.56308" lon="2.66536">
        <ele>395</ele>
        <time>2012-06-11T08:25:06Z</time>
      </trkpt>
      <trkpt lat="44.56306" lon="2.66536">
        <ele>394</ele>
        <time>2012-06-11T08:25:07Z</time>
      </trkpt>
      <trkpt lat="44.56305" lon="2.66536">
        <ele>394</ele>
        <time>2012-06-11T08:25:08Z</time>
      </trkpt>
      <trkpt lat="44.56304" lon="2.66536">
        <ele>394</ele>
        <time>2012-06-11T08:25:09Z</time>
      </trkpt>
      <trkpt lat="44.56303" lon="2.66535">
        <ele>394</ele>
        <time>2012-06-11T08:25:10Z</time>
      </trkpt>
      <trkpt lat="44.56301" lon="2.66535">
        <ele>393</ele>
        <time>2012-06-11T08:25:11Z</time>
      </trkpt>
      <trkpt lat="44.56299" lon="2.66534">
        <ele>393</ele>
        <time>2012-06-11T08:25:12Z</time>
      </trkpt>
      <trkpt lat="44.56298" lon="2.66534">
        <ele>393</ele>
        <time>2012-06-11T08:25:13Z</time>
      </trkpt>
      <trkpt lat="44.56297" lon="2.66534">
        <ele>393</ele>
        <time>2012-06-11T08:25:14Z</time>
      </trkpt>
      <trkpt lat="44.56295" lon="2.66534">
        <ele>393</ele>
        <time>2012-06-11T08:25:16Z</time>
      </trkpt>
      <trkpt lat="44.56292" lon="2.66533">
        <ele>393</ele>
        <time>2012-06-11T08:25:18Z</time>
      </trkpt>
      <trkpt lat="44.56291" lon="2.66532">
        <ele>393</ele>
        <time>2012-06-11T08:25:31Z</time>
      </trkpt>
      <trkpt lat="44.5629" lon="2.6653">
        <ele>393</ele>
        <time>2012-06-11T08:25:33Z</time>
      </trkpt>
      <trkpt lat="44.56289" lon="2.66529">
        <ele>393</ele>
        <time>2012-06-11T08:25:35Z</time>
      </trkpt>
      <trkpt lat="44.56287" lon="2.66528">
        <ele>393</ele>
        <time>2012-06-11T08:25:37Z</time>
      </trkpt>
      <trkpt lat="44.56285" lon="2.66528">
        <ele>393</ele>
        <time>2012-06-11T08:25:42Z</time>
      </trkpt>
      <trkpt lat="44.56284" lon="2.66526">
        <ele>393</ele>
        <time>2012-06-11T08:25:43Z</time>
      </trkpt>
      <trkpt lat="44.56283" lon="2.66525">
        <ele>393</ele>
        <time>2012-06-11T08:25:44Z</time>
      </trkpt>
      <trkpt lat="44.56282" lon="2.66524">
        <ele>393</ele>
        <time>2012-06-11T08:25:45Z</time>
      </trkpt>
      <trkpt lat="44.5628" lon="2.66524">
        <ele>393</ele>
        <time>2012-06-11T08:25:46Z</time>
      </trkpt>
      <trkpt lat="44.56279" lon="2.66523">
        <ele>393</ele>
        <time>2012-06-11T08:25:48Z</time>
      </trkpt>
      <trkpt lat="44.56277" lon="2.66523">
        <ele>393</ele>
        <time>2012-06-11T08:25:50Z</time>
      </trkpt>
      <trkpt lat="44.56279" lon="2.66524">
        <ele>393</ele>
        <time>2012-06-11T08:25:55Z</time>
      </trkpt>
      <trkpt lat="44.56281" lon="2.66524">
        <ele>393</ele>
        <time>2012-06-11T08:25:57Z</time>
      </trkpt>
      <trkpt lat="44.56283" lon="2.66525">
        <ele>393</ele>
        <time>2012-06-11T08:26:04Z</time>
      </trkpt>
      <trkpt lat="44.56284" lon="2.66525">
        <ele>393</ele>
        <time>2012-06-11T08:26:05Z</time>
      </trkpt>
      <trkpt lat="44.56286" lon="2.66524">
        <ele>393</ele>
        <time>2012-06-11T08:26:07Z</time>
      </trkpt>
      <trkpt lat="44.56285" lon="2.66527">
        <ele>393</ele>
        <time>2012-06-11T08:26:20Z</time>
      </trkpt>
      <trkpt lat="44.56285" lon="2.66528">
        <ele>393</ele>
        <time>2012-06-11T08:26:22Z</time>
      </trkpt>
      <trkpt lat="44.56284" lon="2.6653">
        <ele>393</ele>
        <time>2012-06-11T08:26:24Z</time>
      </trkpt>
      <trkpt lat="44.56283" lon="2.66529">
        <ele>393</ele>
        <time>2012-06-11T08:26:26Z</time>
      </trkpt>
      <trkpt lat="44.56281" lon="2.66526">
        <ele>393</ele>
        <time>2012-06-11T08:26:28Z</time>
      </trkpt>
      <trkpt lat="44.56279" lon="2.66524">
        <ele>393</ele>
        <time>2012-06-11T08:26:30Z</time>
      </trkpt>
      <trkpt lat="44.56277" lon="2.66524">
        <ele>393</ele>
        <time>2012-06-11T08:26:31Z</time>
      </trkpt>
      <trkpt lat="44.56276" lon="2.66523">
        <ele>393</ele>
        <time>2012-06-11T08:26:32Z</time>
      </trkpt>
      <trkpt lat="44.56275" lon="2.66523">
        <ele>393</ele>
        <time>2012-06-11T08:26:33Z</time>
      </trkpt>
      <trkpt lat="44.56274" lon="2.66522">
        <ele>393</ele>
        <time>2012-06-11T08:26:34Z</time>
      </trkpt>
      <trkpt lat="44.56272" lon="2.66521">
        <ele>393</ele>
        <time>2012-06-11T08:26:35Z</time>
      </trkpt>
      <trkpt lat="44.56271" lon="2.66521">
        <ele>393</ele>
        <time>2012-06-11T08:26:36Z</time>
      </trkpt>
      <trkpt lat="44.5627" lon="2.6652">
        <ele>393</ele>
        <time>2012-06-11T08:26:37Z</time>
      </trkpt>
      <trkpt lat="44.56268" lon="2.66519">
        <ele>393</ele>
        <time>2012-06-11T08:26:38Z</time>
      </trkpt>
      <trkpt lat="44.56267" lon="2.66518">
        <ele>393</ele>
        <time>2012-06-11T08:26:39Z</time>
      </trkpt>
      <trkpt lat="44.56266" lon="2.66518">
        <ele>392</ele>
        <time>2012-06-11T08:26:40Z</time>
      </trkpt>
      <trkpt lat="44.56265" lon="2.66517">
        <ele>392</ele>
        <time>2012-06-11T08:26:41Z</time>
      </trkpt>
      <trkpt lat="44.56263" lon="2.66516">
        <ele>392</ele>
        <time>2012-06-11T08:26:42Z</time>
      </trkpt>
      <trkpt lat="44.56262" lon="2.66515">
        <ele>392</ele>
        <time>2012-06-11T08:26:43Z</time>
      </trkpt>
      <trkpt lat="44.56261" lon="2.66514">
        <ele>392</ele>
        <time>2012-06-11T08:26:44Z</time>
      </trkpt>
      <trkpt lat="44.56259" lon="2.66513">
        <ele>392</ele>
        <time>2012-06-11T08:26:45Z</time>
      </trkpt>
      <trkpt lat="44.56258" lon="2.66512">
        <ele>392</ele>
        <time>2012-06-11T08:26:46Z</time>
      </trkpt>
      <trkpt lat="44.56256" lon="2.66511">
        <ele>392</ele>
        <time>2012-06-11T08:26:47Z</time>
      </trkpt>
      <trkpt lat="44.56255" lon="2.66509">
        <ele>392</ele>
        <time>2012-06-11T08:26:48Z</time>
      </trkpt>
      <trkpt lat="44.56253" lon="2.66508">
        <ele>392</ele>
        <time>2012-06-11T08:26:49Z</time>
      </trkpt>
      <trkpt lat="44.56252" lon="2.66507">
        <ele>392</ele>
        <time>2012-06-11T08:26:50Z</time>
      </trkpt>
      <trkpt lat="44.56251" lon="2.66505">
        <ele>392</ele>
        <time>2012-06-11T08:26:51Z</time>
      </trkpt>
      <trkpt lat="44.5625" lon="2.66504">
        <ele>392</ele>
        <time>2012-06-11T08:26:52Z</time>
      </trkpt>
      <trkpt lat="44.56248" lon="2.66501">
        <ele>392</ele>
        <time>2012-06-11T08:26:54Z</time>
      </trkpt>
      <trkpt lat="44.56247" lon="2.66499">
        <ele>392</ele>
        <time>2012-06-11T08:26:55Z</time>
      </trkpt>
      <trkpt lat="44.56245" lon="2.66498">
        <ele>392</ele>
        <time>2012-06-11T08:26:56Z</time>
      </trkpt>
      <trkpt lat="44.56244" lon="2.66497">
        <ele>392</ele>
        <time>2012-06-11T08:26:57Z</time>
      </trkpt>
      <trkpt lat="44.56243" lon="2.66495">
        <ele>392</ele>
        <time>2012-06-11T08:26:58Z</time>
      </trkpt>
      <trkpt lat="44.56242" lon="2.66494">
        <ele>392</ele>
        <time>2012-06-11T08:26:59Z</time>
      </trkpt>
      <trkpt lat="44.5624" lon="2.66493">
        <ele>392</ele>
        <time>2012-06-11T08:27:00Z</time>
      </trkpt>
      <trkpt lat="44.56239" lon="2.66492">
        <ele>392</ele>
        <time>2012-06-11T08:27:01Z</time>
      </trkpt>
      <trkpt lat="44.56238" lon="2.6649">
        <ele>391</ele>
        <time>2012-06-11T08:27:02Z</time>
      </trkpt>
      <trkpt lat="44.56237" lon="2.66489">
        <ele>391</ele>
        <time>2012-06-11T08:27:03Z</time>
      </trkpt>
      <trkpt lat="44.56236" lon="2.66488">
        <ele>391</ele>
        <time>2012-06-11T08:27:04Z</time>
      </trkpt>
      <trkpt lat="44.56234" lon="2.66486">
        <ele>391</ele>
        <time>2012-06-11T08:27:05Z</time>
      </trkpt>
      <trkpt lat="44.56233" lon="2.66485">
        <ele>391</ele>
        <time>2012-06-11T08:27:06Z</time>
      </trkpt>
      <trkpt lat="44.56232" lon="2.66484">
        <ele>391</ele>
        <time>2012-06-11T08:27:07Z</time>
      </trkpt>
      <trkpt lat="44.56231" lon="2.66483">
        <ele>391</ele>
        <time>2012-06-11T08:27:08Z</time>
      </trkpt>
      <trkpt lat="44.56229" lon="2.66482">
        <ele>391</ele>
        <time>2012-06-11T08:27:09Z</time>
      </trkpt>
      <trkpt lat="44.56228" lon="2.66481">
        <ele>391</ele>
        <time>2012-06-11T08:27:10Z</time>
      </trkpt>
      <trkpt lat="44.56226" lon="2.6648">
        <ele>391</ele>
        <time>2012-06-11T08:27:11Z</time>
      </trkpt>
      <trkpt lat="44.56225" lon="2.66479">
        <ele>391</ele>
        <time>2012-06-11T08:27:12Z</time>
      </trkpt>
      <trkpt lat="44.56223" lon="2.66479">
        <ele>390</ele>
        <time>2012-06-11T08:27:13Z</time>
      </trkpt>
      <trkpt lat="44.56221" lon="2.66478">
        <ele>390</ele>
        <time>2012-06-11T08:27:14Z</time>
      </trkpt>
      <trkpt lat="44.5622" lon="2.66478">
        <ele>390</ele>
        <time>2012-06-11T08:27:15Z</time>
      </trkpt>
      <trkpt lat="44.56218" lon="2.66478">
        <ele>390</ele>
        <time>2012-06-11T08:27:16Z</time>
      </trkpt>
      <trkpt lat="44.56217" lon="2.66478">
        <ele>390</ele>
        <time>2012-06-11T08:27:17Z</time>
      </trkpt>
      <trkpt lat="44.56215" lon="2.66478">
        <ele>390</ele>
        <time>2012-06-11T08:27:18Z</time>
      </trkpt>
      <trkpt lat="44.56213" lon="2.66477">
        <ele>390</ele>
        <time>2012-06-11T08:27:19Z</time>
      </trkpt>
      <trkpt lat="44.56212" lon="2.66477">
        <ele>390</ele>
        <time>2012-06-11T08:27:20Z</time>
      </trkpt>
      <trkpt lat="44.56211" lon="2.66477">
        <ele>390</ele>
        <time>2012-06-11T08:27:21Z</time>
      </trkpt>
      <trkpt lat="44.5621" lon="2.66476">
        <ele>390</ele>
        <time>2012-06-11T08:27:22Z</time>
      </trkpt>
      <trkpt lat="44.56208" lon="2.66476">
        <ele>390</ele>
        <time>2012-06-11T08:27:23Z</time>
      </trkpt>
      <trkpt lat="44.56207" lon="2.66476">
        <ele>390</ele>
        <time>2012-06-11T08:27:24Z</time>
      </trkpt>
      <trkpt lat="44.56205" lon="2.66475">
        <ele>390</ele>
        <time>2012-06-11T08:27:26Z</time>
      </trkpt>
      <trkpt lat="44.56203" lon="2.66474">
        <ele>390</ele>
        <time>2012-06-11T08:27:28Z</time>
      </trkpt>
      <trkpt lat="44.56201" lon="2.66473">
        <ele>390</ele>
        <time>2012-06-11T08:27:30Z</time>
      </trkpt>
      <trkpt lat="44.56199" lon="2.66472">
        <ele>390</ele>
        <time>2012-06-11T08:27:32Z</time>
      </trkpt>
      <trkpt lat="44.562" lon="2.66476">
        <ele>390</ele>
        <time>2012-06-11T08:27:42Z</time>
      </trkpt>
      <trkpt lat="44.56199" lon="2.66473">
        <ele>390</ele>
        <time>2012-06-11T08:27:54Z</time>
      </trkpt>
      <trkpt lat="44.56198" lon="2.66471">
        <ele>390</ele>
        <time>2012-06-11T08:27:55Z</time>
      </trkpt>
      <trkpt lat="44.56198" lon="2.66468">
        <ele>390</ele>
        <time>2012-06-11T08:27:57Z</time>
      </trkpt>
      <trkpt lat="44.56197" lon="2.66467">
        <ele>390</ele>
        <time>2012-06-11T08:27:58Z</time>
      </trkpt>
      <trkpt lat="44.56197" lon="2.66465">
        <ele>390</ele>
        <time>2012-06-11T08:27:59Z</time>
      </trkpt>
      <trkpt lat="44.56196" lon="2.66463">
        <ele>390</ele>
        <time>2012-06-11T08:28:00Z</time>
      </trkpt>
      <trkpt lat="44.56195" lon="2.66461">
        <ele>390</ele>
        <time>2012-06-11T08:28:02Z</time>
      </trkpt>
      <trkpt lat="44.56194" lon="2.66459">
        <ele>390</ele>
        <time>2012-06-11T08:28:03Z</time>
      </trkpt>
      <trkpt lat="44.56193" lon="2.66457">
        <ele>390</ele>
        <time>2012-06-11T08:28:04Z</time>
      </trkpt>
      <trkpt lat="44.56193" lon="2.66456">
        <ele>390</ele>
        <time>2012-06-11T08:28:05Z</time>
      </trkpt>
      <trkpt lat="44.56192" lon="2.66454">
        <ele>390</ele>
        <time>2012-06-11T08:28:06Z</time>
      </trkpt>
      <trkpt lat="44.56191" lon="2.66452">
        <ele>390</ele>
        <time>2012-06-11T08:28:07Z</time>
      </trkpt>
      <trkpt lat="44.5619" lon="2.66451">
        <ele>390</ele>
        <time>2012-06-11T08:28:08Z</time>
      </trkpt>
      <trkpt lat="44.56189" lon="2.66449">
        <ele>390</ele>
        <time>2012-06-11T08:28:09Z</time>
      </trkpt>
      <trkpt lat="44.56189" lon="2.66447">
        <ele>390</ele>
        <time>2012-06-11T08:28:10Z</time>
      </trkpt>
      <trkpt lat="44.56187" lon="2.66444">
        <ele>390</ele>
        <time>2012-06-11T08:28:12Z</time>
      </trkpt>
      <trkpt lat="44.56187" lon="2.66442">
        <ele>390</ele>
        <time>2012-06-11T08:28:13Z</time>
      </trkpt>
      <trkpt lat="44.56186" lon="2.66441">
        <ele>390</ele>
        <time>2012-06-11T08:28:14Z</time>
      </trkpt>
      <trkpt lat="44.56185" lon="2.6644">
        <ele>390</ele>
        <time>2012-06-11T08:28:16Z</time>
      </trkpt>
      <trkpt lat="44.56184" lon="2.66438">
        <ele>390</ele>
        <time>2012-06-11T08:28:30Z</time>
      </trkpt>
      <trkpt lat="44.56183" lon="2.66435">
        <ele>390</ele>
        <time>2012-06-11T08:28:32Z</time>
      </trkpt>
      <trkpt lat="44.56182" lon="2.66434">
        <ele>390</ele>
        <time>2012-06-11T08:28:33Z</time>
      </trkpt>
      <trkpt lat="44.56181" lon="2.66432">
        <ele>390</ele>
        <time>2012-06-11T08:28:34Z</time>
      </trkpt>
      <trkpt lat="44.5618" lon="2.66431">
        <ele>390</ele>
        <time>2012-06-11T08:28:35Z</time>
      </trkpt>
      <trkpt lat="44.56178" lon="2.6643">
        <ele>390</ele>
        <time>2012-06-11T08:28:37Z</time>
      </trkpt>
      <trkpt lat="44.56178" lon="2.66428">
        <ele>390</ele>
        <time>2012-06-11T08:28:41Z</time>
      </trkpt>
      <trkpt lat="44.56176" lon="2.66425">
        <ele>389</ele>
        <time>2012-06-11T08:28:43Z</time>
      </trkpt>
      <trkpt lat="44.56174" lon="2.66424">
        <ele>389</ele>
        <time>2012-06-11T08:28:44Z</time>
      </trkpt>
      <trkpt lat="44.56173" lon="2.66422">
        <ele>389</ele>
        <time>2012-06-11T08:28:45Z</time>
      </trkpt>
      <trkpt lat="44.56172" lon="2.6642">
        <ele>389</ele>
        <time>2012-06-11T08:28:47Z</time>
      </trkpt>
      <trkpt lat="44.56171" lon="2.66418">
        <ele>388</ele>
        <time>2012-06-11T08:28:50Z</time>
      </trkpt>
      <trkpt lat="44.5617" lon="2.66416">
        <ele>388</ele>
        <time>2012-06-11T08:28:52Z</time>
      </trkpt>
      <trkpt lat="44.56168" lon="2.66414">
        <ele>388</ele>
        <time>2012-06-11T08:28:54Z</time>
      </trkpt>
      <trkpt lat="44.56167" lon="2.66411">
        <ele>387</ele>
        <time>2012-06-11T08:28:56Z</time>
      </trkpt>
      <trkpt lat="44.56165" lon="2.66408">
        <ele>387</ele>
        <time>2012-06-11T08:28:58Z</time>
      </trkpt>
      <trkpt lat="44.56164" lon="2.66407">
        <ele>387</ele>
        <time>2012-06-11T08:28:59Z</time>
      </trkpt>
      <trkpt lat="44.56162" lon="2.66405">
        <ele>387</ele>
        <time>2012-06-11T08:29:00Z</time>
      </trkpt>
      <trkpt lat="44.56161" lon="2.66403">
        <ele>387</ele>
        <time>2012-06-11T08:29:01Z</time>
      </trkpt>
      <trkpt lat="44.5616" lon="2.66402">
        <ele>387</ele>
        <time>2012-06-11T08:29:02Z</time>
      </trkpt>
      <trkpt lat="44.56159" lon="2.664">
        <ele>387</ele>
        <time>2012-06-11T08:29:03Z</time>
      </trkpt>
      <trkpt lat="44.56158" lon="2.66399">
        <ele>387</ele>
        <time>2012-06-11T08:29:04Z</time>
      </trkpt>
      <trkpt lat="44.56157" lon="2.66397">
        <ele>387</ele>
        <time>2012-06-11T08:29:05Z</time>
      </trkpt>
      <trkpt lat="44.56155" lon="2.66395">
        <ele>387</ele>
        <time>2012-06-11T08:29:06Z</time>
      </trkpt>
      <trkpt lat="44.56154" lon="2.66393">
        <ele>387</ele>
        <time>2012-06-11T08:29:08Z</time>
      </trkpt>
      <trkpt lat="44.56153" lon="2.66391">
        <ele>387</ele>
        <time>2012-06-11T08:29:09Z</time>
      </trkpt>
      <trkpt lat="44.56152" lon="2.66389">
        <ele>387</ele>
        <time>2012-06-11T08:29:10Z</time>
      </trkpt>
      <trkpt lat="44.5615" lon="2.66386">
        <ele>387</ele>
        <time>2012-06-11T08:29:12Z</time>
      </trkpt>
      <trkpt lat="44.5615" lon="2.66385">
        <ele>387</ele>
        <time>2012-06-11T08:29:13Z</time>
      </trkpt>
      <trkpt lat="44.56148" lon="2.66383">
        <ele>387</ele>
        <time>2012-06-11T08:29:14Z</time>
      </trkpt>
      <trkpt lat="44.56147" lon="2.66381">
        <ele>387</ele>
        <time>2012-06-11T08:29:15Z</time>
      </trkpt>
      <trkpt lat="44.56146" lon="2.6638">
        <ele>387</ele>
        <time>2012-06-11T08:29:16Z</time>
      </trkpt>
      <trkpt lat="44.56145" lon="2.66379">
        <ele>387</ele>
        <time>2012-06-11T08:29:17Z</time>
      </trkpt>
      <trkpt lat="44.56144" lon="2.66377">
        <ele>387</ele>
        <time>2012-06-11T08:29:18Z</time>
      </trkpt>
      <trkpt lat="44.56142" lon="2.66374">
        <ele>387</ele>
        <time>2012-06-11T08:29:20Z</time>
      </trkpt>
      <trkpt lat="44.5614" lon="2.66371">
        <ele>387</ele>
        <time>2012-06-11T08:29:22Z</time>
      </trkpt>
      <trkpt lat="44.56138" lon="2.66369">
        <ele>387</ele>
        <time>2012-06-11T08:29:23Z</time>
      </trkpt>
      <trkpt lat="44.56137" lon="2.66367">
        <ele>387</ele>
        <time>2012-06-11T08:29:24Z</time>
      </trkpt>
      <trkpt lat="44.56136" lon="2.66366">
        <ele>387</ele>
        <time>2012-06-11T08:29:25Z</time>
      </trkpt>
      <trkpt lat="44.56135" lon="2.66365">
        <ele>387</ele>
        <time>2012-06-11T08:29:26Z</time>
      </trkpt>
      <trkpt lat="44.56134" lon="2.66363">
        <ele>387</ele>
        <time>2012-06-11T08:29:28Z</time>
      </trkpt>
      <trkpt lat="44.56132" lon="2.66362">
        <ele>386</ele>
        <time>2012-06-11T08:29:30Z</time>
      </trkpt>
      <trkpt lat="44.56131" lon="2.6636">
        <ele>386</ele>
        <time>2012-06-11T08:29:32Z</time>
      </trkpt>
      <trkpt lat="44.56129" lon="2.66358">
        <ele>386</ele>
        <time>2012-06-11T08:29:33Z</time>
      </trkpt>
      <trkpt lat="44.56128" lon="2.66357">
        <ele>386</ele>
        <time>2012-06-11T08:29:34Z</time>
      </trkpt>
      <trkpt lat="44.56126" lon="2.66355">
        <ele>386</ele>
        <time>2012-06-11T08:29:36Z</time>
      </trkpt>
      <trkpt lat="44.56123" lon="2.66354">
        <ele>386</ele>
        <time>2012-06-11T08:29:37Z</time>
      </trkpt>
      <trkpt lat="44.56122" lon="2.66353">
        <ele>386</ele>
        <time>2012-06-11T08:29:38Z</time>
      </trkpt>
      <trkpt lat="44.5612" lon="2.66351">
        <ele>385</ele>
        <time>2012-06-11T08:29:40Z</time>
      </trkpt>
      <trkpt lat="44.56118" lon="2.6635">
        <ele>385</ele>
        <time>2012-06-11T08:29:41Z</time>
      </trkpt>
      <trkpt lat="44.56116" lon="2.66349">
        <ele>385</ele>
        <time>2012-06-11T08:29:43Z</time>
      </trkpt>
      <trkpt lat="44.56115" lon="2.66348">
        <ele>385</ele>
        <time>2012-06-11T08:29:45Z</time>
      </trkpt>
      <trkpt lat="44.56113" lon="2.66347">
        <ele>385</ele>
        <time>2012-06-11T08:29:46Z</time>
      </trkpt>
      <trkpt lat="44.56111" lon="2.66345">
        <ele>385</ele>
        <time>2012-06-11T08:29:47Z</time>
      </trkpt>
      <trkpt lat="44.5611" lon="2.66345">
        <ele>385</ele>
        <time>2012-06-11T08:29:48Z</time>
      </trkpt>
      <trkpt lat="44.56108" lon="2.66344">
        <ele>385</ele>
        <time>2012-06-11T08:29:49Z</time>
      </trkpt>
      <trkpt lat="44.56107" lon="2.66343">
        <ele>385</ele>
        <time>2012-06-11T08:29:50Z</time>
      </trkpt>
      <trkpt lat="44.56105" lon="2.66342">
        <ele>385</ele>
        <time>2012-06-11T08:29:51Z</time>
      </trkpt>
      <trkpt lat="44.56104" lon="2.66341">
        <ele>385</ele>
        <time>2012-06-11T08:29:52Z</time>
      </trkpt>
      <trkpt lat="44.56103" lon="2.6634">
        <ele>385</ele>
        <time>2012-06-11T08:29:53Z</time>
      </trkpt>
      <trkpt lat="44.56102" lon="2.66339">
        <ele>385</ele>
        <time>2012-06-11T08:29:54Z</time>
      </trkpt>
      <trkpt lat="44.561" lon="2.66338">
        <ele>385</ele>
        <time>2012-06-11T08:29:55Z</time>
      </trkpt>
      <trkpt lat="44.56099" lon="2.66336">
        <ele>385</ele>
        <time>2012-06-11T08:29:57Z</time>
      </trkpt>
      <trkpt lat="44.56097" lon="2.66334">
        <ele>385</ele>
        <time>2012-06-11T08:29:59Z</time>
      </trkpt>
      <trkpt lat="44.56096" lon="2.66332">
        <ele>385</ele>
        <time>2012-06-11T08:30:00Z</time>
      </trkpt>
      <trkpt lat="44.56095" lon="2.66332">
        <ele>385</ele>
        <time>2012-06-11T08:30:01Z</time>
      </trkpt>
      <trkpt lat="44.56093" lon="2.6633">
        <ele>385</ele>
        <time>2012-06-11T08:30:03Z</time>
      </trkpt>
      <trkpt lat="44.56091" lon="2.66327">
        <ele>385</ele>
        <time>2012-06-11T08:30:05Z</time>
      </trkpt>
      <trkpt lat="44.5609" lon="2.66326">
        <ele>385</ele>
        <time>2012-06-11T08:30:06Z</time>
      </trkpt>
      <trkpt lat="44.56089" lon="2.66324">
        <ele>385</ele>
        <time>2012-06-11T08:30:08Z</time>
      </trkpt>
      <trkpt lat="44.56087" lon="2.66323">
        <ele>385</ele>
        <time>2012-06-11T08:30:09Z</time>
      </trkpt>
      <trkpt lat="44.56086" lon="2.66321">
        <ele>385</ele>
        <time>2012-06-11T08:30:10Z</time>
      </trkpt>
      <trkpt lat="44.56084" lon="2.66319">
        <ele>385</ele>
        <time>2012-06-11T08:30:11Z</time>
      </trkpt>
      <trkpt lat="44.56083" lon="2.66318">
        <ele>385</ele>
        <time>2012-06-11T08:30:12Z</time>
      </trkpt>
      <trkpt lat="44.56081" lon="2.66316">
        <ele>385</ele>
        <time>2012-06-11T08:30:13Z</time>
      </trkpt>
      <trkpt lat="44.56079" lon="2.66315">
        <ele>385</ele>
        <time>2012-06-11T08:30:14Z</time>
      </trkpt>
      <trkpt lat="44.56077" lon="2.66314">
        <ele>385</ele>
        <time>2012-06-11T08:30:15Z</time>
      </trkpt>
      <trkpt lat="44.56076" lon="2.66313">
        <ele>385</ele>
        <time>2012-06-11T08:30:16Z</time>
      </trkpt>
      <trkpt lat="44.56074" lon="2.66312">
        <ele>385</ele>
        <time>2012-06-11T08:30:17Z</time>
      </trkpt>
      <trkpt lat="44.56073" lon="2.66312">
        <ele>385</ele>
        <time>2012-06-11T08:30:18Z</time>
      </trkpt>
      <trkpt lat="44.56072" lon="2.66311">
        <ele>385</ele>
        <time>2012-06-11T08:30:19Z</time>
      </trkpt>
      <trkpt lat="44.5607" lon="2.66311">
        <ele>385</ele>
        <time>2012-06-11T08:30:20Z</time>
      </trkpt>
      <trkpt lat="44.56069" lon="2.6631">
        <ele>385</ele>
        <time>2012-06-11T08:30:21Z</time>
      </trkpt>
      <trkpt lat="44.56068" lon="2.6631">
        <ele>385</ele>
        <time>2012-06-11T08:30:22Z</time>
      </trkpt>
      <trkpt lat="44.56066" lon="2.6631">
        <ele>385</ele>
        <time>2012-06-11T08:30:23Z</time>
      </trkpt>
      <trkpt lat="44.56065" lon="2.6631">
        <ele>385</ele>
        <time>2012-06-11T08:30:24Z</time>
      </trkpt>
      <trkpt lat="44.56061" lon="2.66309">
        <ele>385</ele>
        <time>2012-06-11T08:30:26Z</time>
      </trkpt>
      <trkpt lat="44.5606" lon="2.66309">
        <ele>385</ele>
        <time>2012-06-11T08:30:27Z</time>
      </trkpt>
      <trkpt lat="44.56058" lon="2.66309">
        <ele>385</ele>
        <time>2012-06-11T08:30:29Z</time>
      </trkpt>
      <trkpt lat="44.56057" lon="2.6631">
        <ele>386</ele>
        <time>2012-06-11T08:30:30Z</time>
      </trkpt>
      <trkpt lat="44.56055" lon="2.6631">
        <ele>386</ele>
        <time>2012-06-11T08:30:31Z</time>
      </trkpt>
      <trkpt lat="44.56054" lon="2.66311">
        <ele>386</ele>
        <time>2012-06-11T08:30:32Z</time>
      </trkpt>
      <trkpt lat="44.56051" lon="2.66311">
        <ele>386</ele>
        <time>2012-06-11T08:30:34Z</time>
      </trkpt>
      <trkpt lat="44.5605" lon="2.66311">
        <ele>386</ele>
        <time>2012-06-11T08:30:35Z</time>
      </trkpt>
      <trkpt lat="44.56048" lon="2.6631">
        <ele>388</ele>
        <time>2012-06-11T08:30:41Z</time>
      </trkpt>
      <trkpt lat="44.56047" lon="2.66309">
        <ele>391</ele>
        <time>2012-06-11T08:30:45Z</time>
      </trkpt>
      <trkpt lat="44.56046" lon="2.66308">
        <ele>394</ele>
        <time>2012-06-11T08:30:54Z</time>
      </trkpt>
      <trkpt lat="44.56045" lon="2.66307">
        <ele>396</ele>
        <time>2012-06-11T08:31:27Z</time>
      </trkpt>
      <trkpt lat="44.56044" lon="2.66305">
        <ele>397</ele>
        <time>2012-06-11T08:32:00Z</time>
      </trkpt>
      <trkpt lat="44.56046" lon="2.66307">
        <ele>397</ele>
        <time>2012-06-11T08:32:14Z</time>
      </trkpt>
      <trkpt lat="44.56047" lon="2.66308">
        <ele>397</ele>
        <time>2012-06-11T08:32:15Z</time>
      </trkpt>
      <trkpt lat="44.56048" lon="2.6631">
        <ele>397</ele>
        <time>2012-06-11T08:32:16Z</time>
      </trkpt>
      <trkpt lat="44.56049" lon="2.66311">
        <ele>397</ele>
        <time>2012-06-11T08:32:17Z</time>
      </trkpt>
      <trkpt lat="44.5605" lon="2.66313">
        <ele>396</ele>
        <time>2012-06-11T08:32:19Z</time>
      </trkpt>
      <trkpt lat="44.56052" lon="2.66315">
        <ele>392</ele>
        <time>2012-06-11T08:32:24Z</time>
      </trkpt>
      <trkpt lat="44.56052" lon="2.66316">
        <ele>390</ele>
        <time>2012-06-11T08:32:30Z</time>
      </trkpt>
      <trkpt lat="44.56054" lon="2.66316">
        <ele>389</ele>
        <time>2012-06-11T08:32:36Z</time>
      </trkpt>
      <trkpt lat="44.56056" lon="2.66314">
        <ele>389</ele>
        <time>2012-06-11T08:32:38Z</time>
      </trkpt>
      <trkpt lat="44.56058" lon="2.66314">
        <ele>389</ele>
        <time>2012-06-11T08:32:39Z</time>
      </trkpt>
      <trkpt lat="44.56061" lon="2.66313">
        <ele>389</ele>
        <time>2012-06-11T08:32:41Z</time>
      </trkpt>
      <trkpt lat="44.56062" lon="2.66313">
        <ele>389</ele>
        <time>2012-06-11T08:32:42Z</time>
      </trkpt>
      <trkpt lat="44.56064" lon="2.66313">
        <ele>389</ele>
        <time>2012-06-11T08:32:44Z</time>
      </trkpt>
      <trkpt lat="44.56065" lon="2.66314">
        <ele>388</ele>
        <time>2012-06-11T08:32:45Z</time>
      </trkpt>
      <trkpt lat="44.56066" lon="2.66314">
        <ele>388</ele>
        <time>2012-06-11T08:32:46Z</time>
      </trkpt>
      <trkpt lat="44.56068" lon="2.66315">
        <ele>388</ele>
        <time>2012-06-11T08:32:47Z</time>
      </trkpt>
      <trkpt lat="44.56069" lon="2.66316">
        <ele>388</ele>
        <time>2012-06-11T08:32:48Z</time>
      </trkpt>
      <trkpt lat="44.56071" lon="2.66317">
        <ele>387</ele>
        <time>2012-06-11T08:32:50Z</time>
      </trkpt>
      <trkpt lat="44.56073" lon="2.66317">
        <ele>387</ele>
        <time>2012-06-11T08:32:51Z</time>
      </trkpt>
      <trkpt lat="44.56075" lon="2.66318">
        <ele>386</ele>
        <time>2012-06-11T08:32:52Z</time>
      </trkpt>
      <trkpt lat="44.56076" lon="2.66319">
        <ele>386</ele>
        <time>2012-06-11T08:32:54Z</time>
      </trkpt>
      <trkpt lat="44.56079" lon="2.66319">
        <ele>386</ele>
        <time>2012-06-11T08:32:56Z</time>
      </trkpt>
      <trkpt lat="44.56081" lon="2.6632">
        <ele>386</ele>
        <time>2012-06-11T08:32:58Z</time>
      </trkpt>
      <trkpt lat="44.56084" lon="2.66321">
        <ele>386</ele>
        <time>2012-06-11T08:32:59Z</time>
      </trkpt>
      <trkpt lat="44.56086" lon="2.66321">
        <ele>386</ele>
        <time>2012-06-11T08:33:00Z</time>
      </trkpt>
      <trkpt lat="44.56087" lon="2.66322">
        <ele>386</ele>
        <time>2012-06-11T08:33:01Z</time>
      </trkpt>
      <trkpt lat="44.56089" lon="2.66323">
        <ele>386</ele>
        <time>2012-06-11T08:33:02Z</time>
      </trkpt>
      <trkpt lat="44.5609" lon="2.66325">
        <ele>384</ele>
        <time>2012-06-11T08:33:04Z</time>
      </trkpt>
      <trkpt lat="44.56092" lon="2.66327">
        <ele>383</ele>
        <time>2012-06-11T08:33:06Z</time>
      </trkpt>
      <trkpt lat="44.56094" lon="2.6633">
        <ele>382</ele>
        <time>2012-06-11T08:33:08Z</time>
      </trkpt>
      <trkpt lat="44.56096" lon="2.66332">
        <ele>381</ele>
        <time>2012-06-11T08:33:10Z</time>
      </trkpt>
      <trkpt lat="44.56098" lon="2.66333">
        <ele>381</ele>
        <time>2012-06-11T08:33:12Z</time>
      </trkpt>
      <trkpt lat="44.561" lon="2.66336">
        <ele>380</ele>
        <time>2012-06-11T08:33:14Z</time>
      </trkpt>
      <trkpt lat="44.56102" lon="2.66337">
        <ele>380</ele>
        <time>2012-06-11T08:33:15Z</time>
      </trkpt>
      <trkpt lat="44.56103" lon="2.66338">
        <ele>380</ele>
        <time>2012-06-11T08:33:16Z</time>
      </trkpt>
      <trkpt lat="44.56105" lon="2.66339">
        <ele>379</ele>
        <time>2012-06-11T08:33:17Z</time>
      </trkpt>
      <trkpt lat="44.56106" lon="2.6634">
        <ele>379</ele>
        <time>2012-06-11T08:33:18Z</time>
      </trkpt>
      <trkpt lat="44.56107" lon="2.66341">
        <ele>379</ele>
        <time>2012-06-11T08:33:19Z</time>
      </trkpt>
      <trkpt lat="44.56109" lon="2.66342">
        <ele>379</ele>
        <time>2012-06-11T08:33:20Z</time>
      </trkpt>
      <trkpt lat="44.5611" lon="2.66343">
        <ele>379</ele>
        <time>2012-06-11T08:33:21Z</time>
      </trkpt>
      <trkpt lat="44.56111" lon="2.66344">
        <ele>379</ele>
        <time>2012-06-11T08:33:22Z</time>
      </trkpt>
      <trkpt lat="44.56113" lon="2.66344">
        <ele>379</ele>
        <time>2012-06-11T08:33:23Z</time>
      </trkpt>
      <trkpt lat="44.56115" lon="2.66345">
        <ele>378</ele>
        <time>2012-06-11T08:33:25Z</time>
      </trkpt>
      <trkpt lat="44.56116" lon="2.66346">
        <ele>378</ele>
        <time>2012-06-11T08:33:26Z</time>
      </trkpt>
      <trkpt lat="44.56117" lon="2.66347">
        <ele>378</ele>
        <time>2012-06-11T08:33:27Z</time>
      </trkpt>
      <trkpt lat="44.56119" lon="2.66348">
        <ele>378</ele>
        <time>2012-06-11T08:33:28Z</time>
      </trkpt>
      <trkpt lat="44.5612" lon="2.66349">
        <ele>378</ele>
        <time>2012-06-11T08:33:30Z</time>
      </trkpt>
      <trkpt lat="44.56121" lon="2.66349">
        <ele>378</ele>
        <time>2012-06-11T08:33:33Z</time>
      </trkpt>
      <trkpt lat="44.56123" lon="2.66353">
        <ele>378</ele>
        <time>2012-06-11T08:33:35Z</time>
      </trkpt>
      <trkpt lat="44.56126" lon="2.66355">
        <ele>378</ele>
        <time>2012-06-11T08:33:37Z</time>
      </trkpt>
      <trkpt lat="44.56127" lon="2.66357">
        <ele>378</ele>
        <time>2012-06-11T08:33:38Z</time>
      </trkpt>
      <trkpt lat="44.56129" lon="2.66358">
        <ele>378</ele>
        <time>2012-06-11T08:33:39Z</time>
      </trkpt>
      <trkpt lat="44.56131" lon="2.6636">
        <ele>378</ele>
        <time>2012-06-11T08:33:40Z</time>
      </trkpt>
      <trkpt lat="44.56133" lon="2.66361">
        <ele>378</ele>
        <time>2012-06-11T08:33:41Z</time>
      </trkpt>
      <trkpt lat="44.56134" lon="2.66362">
        <ele>378</ele>
        <time>2012-06-11T08:33:42Z</time>
      </trkpt>
      <trkpt lat="44.56136" lon="2.66363">
        <ele>378</ele>
        <time>2012-06-11T08:33:43Z</time>
      </trkpt>
      <trkpt lat="44.56137" lon="2.66365">
        <ele>378</ele>
        <time>2012-06-11T08:33:44Z</time>
      </trkpt>
      <trkpt lat="44.56138" lon="2.66366">
        <ele>378</ele>
        <time>2012-06-11T08:33:45Z</time>
      </trkpt>
      <trkpt lat="44.56139" lon="2.66368">
        <ele>378</ele>
        <time>2012-06-11T08:33:46Z</time>
      </trkpt>
      <trkpt lat="44.56141" lon="2.66369">
        <ele>378</ele>
        <time>2012-06-11T08:33:48Z</time>
      </trkpt>
      <trkpt lat="44.56142" lon="2.6637">
        <ele>378</ele>
        <time>2012-06-11T08:33:50Z</time>
      </trkpt>
      <trkpt lat="44.56143" lon="2.66372">
        <ele>378</ele>
        <time>2012-06-11T08:33:50Z</time>
      </trkpt>
      <trkpt lat="44.56145" lon="2.66374">
        <ele>378</ele>
        <time>2012-06-11T08:33:52Z</time>
      </trkpt>
      <trkpt lat="44.56147" lon="2.66376">
        <ele>378</ele>
        <time>2012-06-11T08:33:54Z</time>
      </trkpt>
      <trkpt lat="44.56149" lon="2.66379">
        <ele>378</ele>
        <time>2012-06-11T08:33:56Z</time>
      </trkpt>
      <trkpt lat="44.5615" lon="2.66381">
        <ele>378</ele>
        <time>2012-06-11T08:33:57Z</time>
      </trkpt>
      <trkpt lat="44.56151" lon="2.66383">
        <ele>378</ele>
        <time>2012-06-11T08:33:58Z</time>
      </trkpt>
      <trkpt lat="44.56152" lon="2.66385">
        <ele>378</ele>
        <time>2012-06-11T08:33:59Z</time>
      </trkpt>
      <trkpt lat="44.56152" lon="2.66386">
        <ele>378</ele>
        <time>2012-06-11T08:34:00Z</time>
      </trkpt>
      <trkpt lat="44.56153" lon="2.66388">
        <ele>378</ele>
        <time>2012-06-11T08:34:01Z</time>
      </trkpt>
      <trkpt lat="44.56154" lon="2.66389">
        <ele>378</ele>
        <time>2012-06-11T08:34:02Z</time>
      </trkpt>
      <trkpt lat="44.56155" lon="2.66391">
        <ele>378</ele>
        <time>2012-06-11T08:34:03Z</time>
      </trkpt>
      <trkpt lat="44.56157" lon="2.66393">
        <ele>378</ele>
        <time>2012-06-11T08:34:05Z</time>
      </trkpt>
      <trkpt lat="44.56159" lon="2.66396">
        <ele>378</ele>
        <time>2012-06-11T08:34:07Z</time>
      </trkpt>
      <trkpt lat="44.5616" lon="2.66398">
        <ele>378</ele>
        <time>2012-06-11T08:34:08Z</time>
      </trkpt>
      <trkpt lat="44.56162" lon="2.66401">
        <ele>378</ele>
        <time>2012-06-11T08:34:10Z</time>
      </trkpt>
      <trkpt lat="44.56164" lon="2.66403">
        <ele>378</ele>
        <time>2012-06-11T08:34:12Z</time>
      </trkpt>
      <trkpt lat="44.56165" lon="2.66405">
        <ele>378</ele>
        <time>2012-06-11T08:34:13Z</time>
      </trkpt>
      <trkpt lat="44.56166" lon="2.66406">
        <ele>378</ele>
        <time>2012-06-11T08:34:14Z</time>
      </trkpt>
      <trkpt lat="44.56168" lon="2.66409">
        <ele>378</ele>
        <time>2012-06-11T08:34:16Z</time>
      </trkpt>
      <trkpt lat="44.56169" lon="2.66411">
        <ele>378</ele>
        <time>2012-06-11T08:34:17Z</time>
      </trkpt>
      <trkpt lat="44.5617" lon="2.66413">
        <ele>378</ele>
        <time>2012-06-11T08:34:18Z</time>
      </trkpt>
      <trkpt lat="44.56171" lon="2.66415">
        <ele>378</ele>
        <time>2012-06-11T08:34:19Z</time>
      </trkpt>
      <trkpt lat="44.56173" lon="2.66418">
        <ele>378</ele>
        <time>2012-06-11T08:34:21Z</time>
      </trkpt>
      <trkpt lat="44.56174" lon="2.66421">
        <ele>378</ele>
        <time>2012-06-11T08:34:22Z</time>
      </trkpt>
      <trkpt lat="44.56175" lon="2.66422">
        <ele>378</ele>
        <time>2012-06-11T08:34:23Z</time>
      </trkpt>
      <trkpt lat="44.56176" lon="2.66424">
        <ele>378</ele>
        <time>2012-06-11T08:34:24Z</time>
      </trkpt>
      <trkpt lat="44.56177" lon="2.66425">
        <ele>378</ele>
        <time>2012-06-11T08:34:25Z</time>
      </trkpt>
      <trkpt lat="44.56179" lon="2.66428">
        <ele>378</ele>
        <time>2012-06-11T08:34:27Z</time>
      </trkpt>
      <trkpt lat="44.56181" lon="2.66431">
        <ele>378</ele>
        <time>2012-06-11T08:34:29Z</time>
      </trkpt>
      <trkpt lat="44.56183" lon="2.66434">
        <ele>378</ele>
        <time>2012-06-11T08:34:31Z</time>
      </trkpt>
      <trkpt lat="44.56184" lon="2.66435">
        <ele>379</ele>
        <time>2012-06-11T08:34:32Z</time>
      </trkpt>
      <trkpt lat="44.56186" lon="2.66438">
        <ele>379</ele>
        <time>2012-06-11T08:34:34Z</time>
      </trkpt>
      <trkpt lat="44.56186" lon="2.66439">
        <ele>379</ele>
        <time>2012-06-11T08:34:35Z</time>
      </trkpt>
      <trkpt lat="44.56187" lon="2.66441">
        <ele>379</ele>
        <time>2012-06-11T08:34:36Z</time>
      </trkpt>
      <trkpt lat="44.56188" lon="2.66443">
        <ele>379</ele>
        <time>2012-06-11T08:34:37Z</time>
      </trkpt>
      <trkpt lat="44.56189" lon="2.66444">
        <ele>379</ele>
        <time>2012-06-11T08:34:38Z</time>
      </trkpt>
      <trkpt lat="44.5619" lon="2.66446">
        <ele>379</ele>
        <time>2012-06-11T08:34:39Z</time>
      </trkpt>
      <trkpt lat="44.5619" lon="2.66448">
        <ele>379</ele>
        <time>2012-06-11T08:34:40Z</time>
      </trkpt>
      <trkpt lat="44.56191" lon="2.6645">
        <ele>379</ele>
        <time>2012-06-11T08:34:41Z</time>
      </trkpt>
      <trkpt lat="44.56192" lon="2.66451">
        <ele>379</ele>
        <time>2012-06-11T08:34:42Z</time>
      </trkpt>
      <trkpt lat="44.56192" lon="2.66453">
        <ele>379</ele>
        <time>2012-06-11T08:34:43Z</time>
      </trkpt>
      <trkpt lat="44.56194" lon="2.66455">
        <ele>379</ele>
        <time>2012-06-11T08:34:45Z</time>
      </trkpt>
      <trkpt lat="44.56195" lon="2.66457">
        <ele>379</ele>
        <time>2012-06-11T08:34:47Z</time>
      </trkpt>
      <trkpt lat="44.56197" lon="2.66458">
        <ele>379</ele>
        <time>2012-06-11T08:34:53Z</time>
      </trkpt>
      <trkpt lat="44.56198" lon="2.66459">
        <ele>379</ele>
        <time>2012-06-11T08:34:55Z</time>
      </trkpt>
      <trkpt lat="44.56199" lon="2.6646">
        <ele>379</ele>
        <time>2012-06-11T08:34:57Z</time>
      </trkpt>
      <trkpt lat="44.56201" lon="2.66461">
        <ele>379</ele>
        <time>2012-06-11T08:35:00Z</time>
      </trkpt>
      <trkpt lat="44.56202" lon="2.66463">
        <ele>379</ele>
        <time>2012-06-11T08:35:02Z</time>
      </trkpt>
      <trkpt lat="44.56203" lon="2.66464">
        <ele>379</ele>
        <time>2012-06-11T08:35:04Z</time>
      </trkpt>
      <trkpt lat="44.56205" lon="2.66465">
        <ele>379</ele>
        <time>2012-06-11T08:35:06Z</time>
      </trkpt>
      <trkpt lat="44.56206" lon="2.66466">
        <ele>379</ele>
        <time>2012-06-11T08:35:22Z</time>
      </trkpt>
      <trkpt lat="44.56208" lon="2.66466">
        <ele>379</ele>
        <time>2012-06-11T08:35:26Z</time>
      </trkpt>
      <trkpt lat="44.5621" lon="2.66466">
        <ele>379</ele>
        <time>2012-06-11T08:35:28Z</time>
      </trkpt>
      <trkpt lat="44.56212" lon="2.66466">
        <ele>379</ele>
        <time>2012-06-11T08:35:30Z</time>
      </trkpt>
      <trkpt lat="44.5621" lon="2.66467">
        <ele>379</ele>
        <time>2012-06-11T08:35:34Z</time>
      </trkpt>
      <trkpt lat="44.56209" lon="2.66468">
        <ele>379</ele>
        <time>2012-06-11T08:35:35Z</time>
      </trkpt>
      <trkpt lat="44.56208" lon="2.66469">
        <ele>379</ele>
        <time>2012-06-11T08:35:36Z</time>
      </trkpt>
      <trkpt lat="44.56208" lon="2.66471">
        <ele>379</ele>
        <time>2012-06-11T08:35:38Z</time>
      </trkpt>
      <trkpt lat="44.5621" lon="2.66473">
        <ele>380</ele>
        <time>2012-06-11T08:35:40Z</time>
      </trkpt>
      <trkpt lat="44.56211" lon="2.66473">
        <ele>380</ele>
        <time>2012-06-11T08:35:42Z</time>
      </trkpt>
      <trkpt lat="44.56213" lon="2.66475">
        <ele>381</ele>
        <time>2012-06-11T08:35:44Z</time>
      </trkpt>
      <trkpt lat="44.56215" lon="2.66475">
        <ele>382</ele>
        <time>2012-06-11T08:35:46Z</time>
      </trkpt>
      <trkpt lat="44.56217" lon="2.66476">
        <ele>384</ele>
        <time>2012-06-11T08:35:54Z</time>
      </trkpt>
      <trkpt lat="44.56219" lon="2.66476">
        <ele>384</ele>
        <time>2012-06-11T08:35:56Z</time>
      </trkpt>
      <trkpt lat="44.5622" lon="2.66476">
        <ele>384</ele>
        <time>2012-06-11T08:35:57Z</time>
      </trkpt>
      <trkpt lat="44.56218" lon="2.66476">
        <ele>385</ele>
        <time>2012-06-11T08:36:02Z</time>
      </trkpt>
      <trkpt lat="44.56217" lon="2.66475">
        <ele>385</ele>
        <time>2012-06-11T08:36:03Z</time>
      </trkpt>
      <trkpt lat="44.56215" lon="2.66475">
        <ele>385</ele>
        <time>2012-06-11T08:36:04Z</time>
      </trkpt>
      <trkpt lat="44.56212" lon="2.66475">
        <ele>385</ele>
        <time>2012-06-11T08:36:06Z</time>
      </trkpt>
      <trkpt lat="44.5621" lon="2.66474">
        <ele>385</ele>
        <time>2012-06-11T08:36:07Z</time>
      </trkpt>
      <trkpt lat="44.56208" lon="2.66474">
        <ele>385</ele>
        <time>2012-06-11T08:36:08Z</time>
      </trkpt>
      <trkpt lat="44.56207" lon="2.66471">
        <ele>385</ele>
        <time>2012-06-11T08:36:10Z</time>
      </trkpt>
      <trkpt lat="44.56208" lon="2.6647">
        <ele>386</ele>
        <time>2012-06-11T08:36:12Z</time>
      </trkpt>
      <trkpt lat="44.5621" lon="2.66469">
        <ele>386</ele>
        <time>2012-06-11T08:36:13Z</time>
      </trkpt>
      <trkpt lat="44.56211" lon="2.66468">
        <ele>386</ele>
        <time>2012-06-11T08:36:14Z</time>
      </trkpt>
      <trkpt lat="44.56212" lon="2.66468">
        <ele>386</ele>
        <time>2012-06-11T08:36:15Z</time>
      </trkpt>
      <trkpt lat="44.56214" lon="2.66468">
        <ele>386</ele>
        <time>2012-06-11T08:36:16Z</time>
      </trkpt>
      <trkpt lat="44.56215" lon="2.66467">
        <ele>386</ele>
        <time>2012-06-11T08:36:18Z</time>
      </trkpt>
      <trkpt lat="44.56216" lon="2.66467">
        <ele>386</ele>
        <time>2012-06-11T08:36:19Z</time>
      </trkpt>
      <trkpt lat="44.56218" lon="2.66466">
        <ele>386</ele>
        <time>2012-06-11T08:36:20Z</time>
      </trkpt>
      <trkpt lat="44.56219" lon="2.66466">
        <ele>386</ele>
        <time>2012-06-11T08:36:22Z</time>
      </trkpt>
      <trkpt lat="44.56221" lon="2.66467">
        <ele>386</ele>
        <time>2012-06-11T08:36:25Z</time>
      </trkpt>
      <trkpt lat="44.56223" lon="2.66468">
        <ele>386</ele>
        <time>2012-06-11T08:36:26Z</time>
      </trkpt>
      <trkpt lat="44.56225" lon="2.66469">
        <ele>386</ele>
        <time>2012-06-11T08:36:28Z</time>
      </trkpt>
      <trkpt lat="44.56226" lon="2.6647">
        <ele>386</ele>
        <time>2012-06-11T08:36:29Z</time>
      </trkpt>
      <trkpt lat="44.56227" lon="2.66471">
        <ele>386</ele>
        <time>2012-06-11T08:36:30Z</time>
      </trkpt>
      <trkpt lat="44.56229" lon="2.66471">
        <ele>386</ele>
        <time>2012-06-11T08:36:31Z</time>
      </trkpt>
      <trkpt lat="44.5623" lon="2.66471">
        <ele>386</ele>
        <time>2012-06-11T08:36:32Z</time>
      </trkpt>
      <trkpt lat="44.56233" lon="2.66471">
        <ele>386</ele>
        <time>2012-06-11T08:36:34Z</time>
      </trkpt>
      <trkpt lat="44.56234" lon="2.66471">
        <ele>386</ele>
        <time>2012-06-11T08:36:35Z</time>
      </trkpt>
      <trkpt lat="44.56236" lon="2.66471">
        <ele>386</ele>
        <time>2012-06-11T08:36:36Z</time>
      </trkpt>
      <trkpt lat="44.56238" lon="2.6647">
        <ele>386</ele>
        <time>2012-06-11T08:36:38Z</time>
      </trkpt>
      <trkpt lat="44.5624" lon="2.66471">
        <ele>386</ele>
        <time>2012-06-11T08:36:40Z</time>
      </trkpt>
      <trkpt lat="44.56242" lon="2.66471">
        <ele>386</ele>
        <time>2012-06-11T08:36:42Z</time>
      </trkpt>
      <trkpt lat="44.56243" lon="2.66472">
        <ele>386</ele>
        <time>2012-06-11T08:36:43Z</time>
      </trkpt>
      <trkpt lat="44.56245" lon="2.66473">
        <ele>386</ele>
        <time>2012-06-11T08:36:44Z</time>
      </trkpt>
      <trkpt lat="44.56247" lon="2.66474">
        <ele>386</ele>
        <time>2012-06-11T08:36:46Z</time>
      </trkpt>
      <trkpt lat="44.56249" lon="2.66476">
        <ele>386</ele>
        <time>2012-06-11T08:36:48Z</time>
      </trkpt>
      <trkpt lat="44.56251" lon="2.66477">
        <ele>386</ele>
        <time>2012-06-11T08:36:50Z</time>
      </trkpt>
      <trkpt lat="44.56256" lon="2.66477">
        <ele>386</ele>
        <time>2012-06-11T08:36:54Z</time>
      </trkpt>
      <trkpt lat="44.56258" lon="2.66477">
        <ele>385</ele>
        <time>2012-06-11T08:36:55Z</time>
      </trkpt>
      <trkpt lat="44.56259" lon="2.66477">
        <ele>385</ele>
        <time>2012-06-11T08:36:56Z</time>
      </trkpt>
      <trkpt lat="44.56261" lon="2.66478">
        <ele>385</ele>
        <time>2012-06-11T08:36:57Z</time>
      </trkpt>
      <trkpt lat="44.56263" lon="2.66477">
        <ele>384</ele>
        <time>2012-06-11T08:36:58Z</time>
      </trkpt>
      <trkpt lat="44.56266" lon="2.66477">
        <ele>384</ele>
        <time>2012-06-11T08:37:00Z</time>
      </trkpt>
      <trkpt lat="44.56267" lon="2.66477">
        <ele>384</ele>
        <time>2012-06-11T08:37:01Z</time>
      </trkpt>
      <trkpt lat="44.56269" lon="2.66479">
        <ele>384</ele>
        <time>2012-06-11T08:37:03Z</time>
      </trkpt>
      <trkpt lat="44.56271" lon="2.6648">
        <ele>384</ele>
        <time>2012-06-11T08:37:04Z</time>
      </trkpt>
      <trkpt lat="44.56273" lon="2.66482">
        <ele>384</ele>
        <time>2012-06-11T08:37:05Z</time>
      </trkpt>
      <trkpt lat="44.56274" lon="2.66483">
        <ele>384</ele>
        <time>2012-06-11T08:37:06Z</time>
      </trkpt>
      <trkpt lat="44.56276" lon="2.66484">
        <ele>384</ele>
        <time>2012-06-11T08:37:07Z</time>
      </trkpt>
      <trkpt lat="44.56278" lon="2.66485">
        <ele>384</ele>
        <time>2012-06-11T08:37:08Z</time>
      </trkpt>
      <trkpt lat="44.56279" lon="2.66486">
        <ele>384</ele>
        <time>2012-06-11T08:37:09Z</time>
      </trkpt>
      <trkpt lat="44.56281" lon="2.66487">
        <ele>384</ele>
        <time>2012-06-11T08:37:10Z</time>
      </trkpt>
      <trkpt lat="44.56283" lon="2.66488">
        <ele>384</ele>
        <time>2012-06-11T08:37:12Z</time>
      </trkpt>
      <trkpt lat="44.56284" lon="2.6649">
        <ele>384</ele>
        <time>2012-06-11T08:37:13Z</time>
      </trkpt>
      <trkpt lat="44.56287" lon="2.6649">
        <ele>384</ele>
        <time>2012-06-11T08:37:15Z</time>
      </trkpt>
      <trkpt lat="44.56288" lon="2.66492">
        <ele>384</ele>
        <time>2012-06-11T08:37:16Z</time>
      </trkpt>
      <trkpt lat="44.5629" lon="2.66492">
        <ele>384</ele>
        <time>2012-06-11T08:37:17Z</time>
      </trkpt>
      <trkpt lat="44.56294" lon="2.66493">
        <ele>384</ele>
        <time>2012-06-11T08:37:19Z</time>
      </trkpt>
      <trkpt lat="44.56295" lon="2.66494">
        <ele>384</ele>
        <time>2012-06-11T08:37:20Z</time>
      </trkpt>
      <trkpt lat="44.56297" lon="2.66494">
        <ele>384</ele>
        <time>2012-06-11T08:37:21Z</time>
      </trkpt>
      <trkpt lat="44.56299" lon="2.66495">
        <ele>384</ele>
        <time>2012-06-11T08:37:22Z</time>
      </trkpt>
      <trkpt lat="44.563" lon="2.66496">
        <ele>384</ele>
        <time>2012-06-11T08:37:23Z</time>
      </trkpt>
      <trkpt lat="44.56301" lon="2.66496">
        <ele>384</ele>
        <time>2012-06-11T08:37:24Z</time>
      </trkpt>
      <trkpt lat="44.56303" lon="2.66497">
        <ele>384</ele>
        <time>2012-06-11T08:37:25Z</time>
      </trkpt>
      <trkpt lat="44.56304" lon="2.66497">
        <ele>383</ele>
        <time>2012-06-11T08:37:26Z</time>
      </trkpt>
      <trkpt lat="44.56305" lon="2.66498">
        <ele>383</ele>
        <time>2012-06-11T08:37:27Z</time>
      </trkpt>
      <trkpt lat="44.56308" lon="2.66498">
        <ele>383</ele>
        <time>2012-06-11T08:37:29Z</time>
      </trkpt>
      <trkpt lat="44.5631" lon="2.66499">
        <ele>383</ele>
        <time>2012-06-11T08:37:31Z</time>
      </trkpt>
      <trkpt lat="44.56312" lon="2.665">
        <ele>383</ele>
        <time>2012-06-11T08:37:33Z</time>
      </trkpt>
      <trkpt lat="44.56314" lon="2.66501">
        <ele>383</ele>
        <time>2012-06-11T08:37:34Z</time>
      </trkpt>
      <trkpt lat="44.56316" lon="2.66501">
        <ele>383</ele>
        <time>2012-06-11T08:37:35Z</time>
      </trkpt>
      <trkpt lat="44.56317" lon="2.66501">
        <ele>383</ele>
        <time>2012-06-11T08:37:36Z</time>
      </trkpt>
      <trkpt lat="44.56319" lon="2.66502">
        <ele>383</ele>
        <time>2012-06-11T08:37:37Z</time>
      </trkpt>
      <trkpt lat="44.5632" lon="2.66502">
        <ele>383</ele>
        <time>2012-06-11T08:37:38Z</time>
      </trkpt>
      <trkpt lat="44.56322" lon="2.66503">
        <ele>383</ele>
        <time>2012-06-11T08:37:40Z</time>
      </trkpt>
      <trkpt lat="44.56325" lon="2.66504">
        <ele>383</ele>
        <time>2012-06-11T08:37:42Z</time>
      </trkpt>
      <trkpt lat="44.56326" lon="2.66504">
        <ele>383</ele>
        <time>2012-06-11T08:37:43Z</time>
      </trkpt>
      <trkpt lat="44.56327" lon="2.66505">
        <ele>383</ele>
        <time>2012-06-11T08:37:44Z</time>
      </trkpt>
      <trkpt lat="44.56329" lon="2.66505">
        <ele>383</ele>
        <time>2012-06-11T08:37:45Z</time>
      </trkpt>
      <trkpt lat="44.5633" lon="2.66505">
        <ele>383</ele>
        <time>2012-06-11T08:37:46Z</time>
      </trkpt>
      <trkpt lat="44.56332" lon="2.66506">
        <ele>383</ele>
        <time>2012-06-11T08:37:47Z</time>
      </trkpt>
      <trkpt lat="44.56333" lon="2.66507">
        <ele>383</ele>
        <time>2012-06-11T08:37:48Z</time>
      </trkpt>
      <trkpt lat="44.56334" lon="2.66507">
        <ele>383</ele>
        <time>2012-06-11T08:37:49Z</time>
      </trkpt>
      <trkpt lat="44.56337" lon="2.66508">
        <ele>383</ele>
        <time>2012-06-11T08:37:51Z</time>
      </trkpt>
      <trkpt lat="44.5634" lon="2.66509">
        <ele>383</ele>
        <time>2012-06-11T08:37:53Z</time>
      </trkpt>
      <trkpt lat="44.56341" lon="2.6651">
        <ele>383</ele>
        <time>2012-06-11T08:37:54Z</time>
      </trkpt>
      <trkpt lat="44.56343" lon="2.66511">
        <ele>383</ele>
        <time>2012-06-11T08:37:55Z</time>
      </trkpt>
      <trkpt lat="44.56345" lon="2.66512">
        <ele>383</ele>
        <time>2012-06-11T08:37:56Z</time>
      </trkpt>
      <trkpt lat="44.56346" lon="2.66513">
        <ele>383</ele>
        <time>2012-06-11T08:37:57Z</time>
      </trkpt>
      <trkpt lat="44.56347" lon="2.66513">
        <ele>383</ele>
        <time>2012-06-11T08:37:58Z</time>
      </trkpt>
      <trkpt lat="44.56348" lon="2.66514">
        <ele>383</ele>
        <time>2012-06-11T08:37:59Z</time>
      </trkpt>
      <trkpt lat="44.5635" lon="2.66515">
        <ele>383</ele>
        <time>2012-06-11T08:38:00Z</time>
      </trkpt>
      <trkpt lat="44.56352" lon="2.66515">
        <ele>382</ele>
        <time>2012-06-11T08:38:01Z</time>
      </trkpt>
      <trkpt lat="44.56353" lon="2.66516">
        <ele>382</ele>
        <time>2012-06-11T08:38:02Z</time>
      </trkpt>
      <trkpt lat="44.56355" lon="2.66516">
        <ele>382</ele>
        <time>2012-06-11T08:38:03Z</time>
      </trkpt>
      <trkpt lat="44.56358" lon="2.66517">
        <ele>382</ele>
        <time>2012-06-11T08:38:06Z</time>
      </trkpt>
      <trkpt lat="44.56359" lon="2.66518">
        <ele>382</ele>
        <time>2012-06-11T08:38:07Z</time>
      </trkpt>
      <trkpt lat="44.5636" lon="2.66518">
        <ele>382</ele>
        <time>2012-06-11T08:38:08Z</time>
      </trkpt>
      <trkpt lat="44.56361" lon="2.66519">
        <ele>382</ele>
        <time>2012-06-11T08:38:09Z</time>
      </trkpt>
      <trkpt lat="44.56364" lon="2.66519">
        <ele>382</ele>
        <time>2012-06-11T08:38:11Z</time>
      </trkpt>
      <trkpt lat="44.56365" lon="2.6652">
        <ele>382</ele>
        <time>2012-06-11T08:38:12Z</time>
      </trkpt>
      <trkpt lat="44.56366" lon="2.6652">
        <ele>382</ele>
        <time>2012-06-11T08:38:13Z</time>
      </trkpt>
      <trkpt lat="44.56369" lon="2.66521">
        <ele>382</ele>
        <time>2012-06-11T08:38:15Z</time>
      </trkpt>
      <trkpt lat="44.5637" lon="2.66521">
        <ele>382</ele>
        <time>2012-06-11T08:38:16Z</time>
      </trkpt>
      <trkpt lat="44.56372" lon="2.66522">
        <ele>382</ele>
        <time>2012-06-11T08:38:17Z</time>
      </trkpt>
      <trkpt lat="44.56375" lon="2.66522">
        <ele>382</ele>
        <time>2012-06-11T08:38:19Z</time>
      </trkpt>
      <trkpt lat="44.56377" lon="2.66523">
        <ele>382</ele>
        <time>2012-06-11T08:38:20Z</time>
      </trkpt>
      <trkpt lat="44.56379" lon="2.66524">
        <ele>382</ele>
        <time>2012-06-11T08:38:21Z</time>
      </trkpt>
      <trkpt lat="44.56381" lon="2.66524">
        <ele>382</ele>
        <time>2012-06-11T08:38:22Z</time>
      </trkpt>
      <trkpt lat="44.56382" lon="2.66524">
        <ele>382</ele>
        <time>2012-06-11T08:38:23Z</time>
      </trkpt>
      <trkpt lat="44.56384" lon="2.66525">
        <ele>382</ele>
        <time>2012-06-11T08:38:24Z</time>
      </trkpt>
      <trkpt lat="44.56385" lon="2.66526">
        <ele>382</ele>
        <time>2012-06-11T08:38:25Z</time>
      </trkpt>
      <trkpt lat="44.56386" lon="2.66526">
        <ele>382</ele>
        <time>2012-06-11T08:38:26Z</time>
      </trkpt>
      <trkpt lat="44.56387" lon="2.66527">
        <ele>382</ele>
        <time>2012-06-11T08:38:27Z</time>
      </trkpt>
      <trkpt lat="44.56389" lon="2.66527">
        <ele>382</ele>
        <time>2012-06-11T08:38:28Z</time>
      </trkpt>
      <trkpt lat="44.5639" lon="2.66528">
        <ele>382</ele>
        <time>2012-06-11T08:38:29Z</time>
      </trkpt>
      <trkpt lat="44.56391" lon="2.66528">
        <ele>381</ele>
        <time>2012-06-11T08:38:30Z</time>
      </trkpt>
      <trkpt lat="44.56393" lon="2.66529">
        <ele>381</ele>
        <time>2012-06-11T08:38:31Z</time>
      </trkpt>
      <trkpt lat="44.56394" lon="2.66529">
        <ele>381</ele>
        <time>2012-06-11T08:38:32Z</time>
      </trkpt>
      <trkpt lat="44.56396" lon="2.66529">
        <ele>380</ele>
        <time>2012-06-11T08:38:33Z</time>
      </trkpt>
      <trkpt lat="44.56398" lon="2.66529">
        <ele>380</ele>
        <time>2012-06-11T08:38:34Z</time>
      </trkpt>
      <trkpt lat="44.56399" lon="2.6653">
        <ele>380</ele>
        <time>2012-06-11T08:38:35Z</time>
      </trkpt>
      <trkpt lat="44.56401" lon="2.6653">
        <ele>380</ele>
        <time>2012-06-11T08:38:36Z</time>
      </trkpt>
      <trkpt lat="44.56402" lon="2.6653">
        <ele>380</ele>
        <time>2012-06-11T08:38:37Z</time>
      </trkpt>
      <trkpt lat="44.56404" lon="2.66531">
        <ele>379</ele>
        <time>2012-06-11T08:38:38Z</time>
      </trkpt>
      <trkpt lat="44.56405" lon="2.66531">
        <ele>379</ele>
        <time>2012-06-11T08:38:39Z</time>
      </trkpt>
      <trkpt lat="44.56407" lon="2.66532">
        <ele>379</ele>
        <time>2012-06-11T08:38:40Z</time>
      </trkpt>
      <trkpt lat="44.56408" lon="2.66532">
        <ele>379</ele>
        <time>2012-06-11T08:38:41Z</time>
      </trkpt>
      <trkpt lat="44.5641" lon="2.66532">
        <ele>379</ele>
        <time>2012-06-11T08:38:42Z</time>
      </trkpt>
      <trkpt lat="44.56412" lon="2.66533">
        <ele>379</ele>
        <time>2012-06-11T08:38:43Z</time>
      </trkpt>
      <trkpt lat="44.56413" lon="2.66533">
        <ele>379</ele>
        <time>2012-06-11T08:38:44Z</time>
      </trkpt>
      <trkpt lat="44.56414" lon="2.66533">
        <ele>379</ele>
        <time>2012-06-11T08:38:45Z</time>
      </trkpt>
      <trkpt lat="44.56417" lon="2.66534">
        <ele>379</ele>
        <time>2012-06-11T08:38:47Z</time>
      </trkpt>
      <trkpt lat="44.56418" lon="2.66534">
        <ele>379</ele>
        <time>2012-06-11T08:38:48Z</time>
      </trkpt>
      <trkpt lat="44.56419" lon="2.66535">
        <ele>379</ele>
        <time>2012-06-11T08:38:49Z</time>
      </trkpt>
      <trkpt lat="44.56421" lon="2.66536">
        <ele>379</ele>
        <time>2012-06-11T08:38:50Z</time>
      </trkpt>
      <trkpt lat="44.56422" lon="2.66537">
        <ele>379</ele>
        <time>2012-06-11T08:38:51Z</time>
      </trkpt>
      <trkpt lat="44.56424" lon="2.66537">
        <ele>379</ele>
        <time>2012-06-11T08:38:52Z</time>
      </trkpt>
      <trkpt lat="44.56426" lon="2.66538">
        <ele>379</ele>
        <time>2012-06-11T08:38:53Z</time>
      </trkpt>
      <trkpt lat="44.56427" lon="2.66538">
        <ele>379</ele>
        <time>2012-06-11T08:38:54Z</time>
      </trkpt>
      <trkpt lat="44.56429" lon="2.66539">
        <ele>379</ele>
        <time>2012-06-11T08:38:55Z</time>
      </trkpt>
      <trkpt lat="44.56431" lon="2.66539">
        <ele>379</ele>
        <time>2012-06-11T08:38:56Z</time>
      </trkpt>
      <trkpt lat="44.56432" lon="2.6654">
        <ele>379</ele>
        <time>2012-06-11T08:38:57Z</time>
      </trkpt>
      <trkpt lat="44.56434" lon="2.6654">
        <ele>379</ele>
        <time>2012-06-11T08:38:58Z</time>
      </trkpt>
      <trkpt lat="44.56436" lon="2.66541">
        <ele>379</ele>
        <time>2012-06-11T08:38:59Z</time>
      </trkpt>
      <trkpt lat="44.56437" lon="2.66541">
        <ele>378</ele>
        <time>2012-06-11T08:39:00Z</time>
      </trkpt>
      <trkpt lat="44.56438" lon="2.66541">
        <ele>378</ele>
        <time>2012-06-11T08:39:01Z</time>
      </trkpt>
      <trkpt lat="44.5644" lon="2.66542">
        <ele>378</ele>
        <time>2012-06-11T08:39:02Z</time>
      </trkpt>
      <trkpt lat="44.56442" lon="2.66542">
        <ele>378</ele>
        <time>2012-06-11T08:39:03Z</time>
      </trkpt>
      <trkpt lat="44.56444" lon="2.66543">
        <ele>378</ele>
        <time>2012-06-11T08:39:04Z</time>
      </trkpt>
      <trkpt lat="44.56445" lon="2.66543">
        <ele>378</ele>
        <time>2012-06-11T08:39:05Z</time>
      </trkpt>
      <trkpt lat="44.56447" lon="2.66544">
        <ele>378</ele>
        <time>2012-06-11T08:39:06Z</time>
      </trkpt>
      <trkpt lat="44.56448" lon="2.66544">
        <ele>378</ele>
        <time>2012-06-11T08:39:07Z</time>
      </trkpt>
      <trkpt lat="44.5645" lon="2.66544">
        <ele>378</ele>
        <time>2012-06-11T08:39:08Z</time>
      </trkpt>
      <trkpt lat="44.56452" lon="2.66544">
        <ele>378</ele>
        <time>2012-06-11T08:39:09Z</time>
      </trkpt>
      <trkpt lat="44.56453" lon="2.66545">
        <ele>378</ele>
        <time>2012-06-11T08:39:10Z</time>
      </trkpt>
      <trkpt lat="44.56454" lon="2.66545">
        <ele>378</ele>
        <time>2012-06-11T08:39:11Z</time>
      </trkpt>
      <trkpt lat="44.56456" lon="2.66545">
        <ele>378</ele>
        <time>2012-06-11T08:39:12Z</time>
      </trkpt>
      <trkpt lat="44.56457" lon="2.66546">
        <ele>378</ele>
        <time>2012-06-11T08:39:13Z</time>
      </trkpt>
      <trkpt lat="44.56459" lon="2.66546">
        <ele>378</ele>
        <time>2012-06-11T08:39:14Z</time>
      </trkpt>
      <trkpt lat="44.5646" lon="2.66547">
        <ele>378</ele>
        <time>2012-06-11T08:39:15Z</time>
      </trkpt>
      <trkpt lat="44.56462" lon="2.66547">
        <ele>378</ele>
        <time>2012-06-11T08:39:16Z</time>
      </trkpt>
      <trkpt lat="44.56463" lon="2.66547">
        <ele>378</ele>
        <time>2012-06-11T08:39:17Z</time>
      </trkpt>
      <trkpt lat="44.56465" lon="2.66547">
        <ele>378</ele>
        <time>2012-06-11T08:39:18Z</time>
      </trkpt>
      <trkpt lat="44.56468" lon="2.66547">
        <ele>378</ele>
        <time>2012-06-11T08:39:21Z</time>
      </trkpt>
      <trkpt lat="44.56469" lon="2.66547">
        <ele>378</ele>
        <time>2012-06-11T08:39:22Z</time>
      </trkpt>
      <trkpt lat="44.56471" lon="2.66547">
        <ele>378</ele>
        <time>2012-06-11T08:39:23Z</time>
      </trkpt>
      <trkpt lat="44.56474" lon="2.66547">
        <ele>378</ele>
        <time>2012-06-11T08:39:25Z</time>
      </trkpt>
      <trkpt lat="44.56476" lon="2.66547">
        <ele>378</ele>
        <time>2012-06-11T08:39:27Z</time>
      </trkpt>
      <trkpt lat="44.56479" lon="2.66547">
        <ele>378</ele>
        <time>2012-06-11T08:39:29Z</time>
      </trkpt>
      <trkpt lat="44.56482" lon="2.66547">
        <ele>378</ele>
        <time>2012-06-11T08:39:32Z</time>
      </trkpt>
      <trkpt lat="44.56483" lon="2.66547">
        <ele>378</ele>
        <time>2012-06-11T08:39:33Z</time>
      </trkpt>
      <trkpt lat="44.56487" lon="2.66547">
        <ele>379</ele>
        <time>2012-06-11T08:39:35Z</time>
      </trkpt>
      <trkpt lat="44.5649" lon="2.66547">
        <ele>379</ele>
        <time>2012-06-11T08:39:37Z</time>
      </trkpt>
      <trkpt lat="44.56494" lon="2.66548">
        <ele>379</ele>
        <time>2012-06-11T08:39:40Z</time>
      </trkpt>
      <trkpt lat="44.56496" lon="2.66547">
        <ele>379</ele>
        <time>2012-06-11T08:39:42Z</time>
      </trkpt>
      <trkpt lat="44.56498" lon="2.66547">
        <ele>379</ele>
        <time>2012-06-11T08:39:43Z</time>
      </trkpt>
      <trkpt lat="44.56501" lon="2.66547">
        <ele>379</ele>
        <time>2012-06-11T08:39:45Z</time>
      </trkpt>
      <trkpt lat="44.56503" lon="2.66547">
        <ele>379</ele>
        <time>2012-06-11T08:39:46Z</time>
      </trkpt>
      <trkpt lat="44.56505" lon="2.66547">
        <ele>379</ele>
        <time>2012-06-11T08:39:47Z</time>
      </trkpt>
      <trkpt lat="44.56507" lon="2.66547">
        <ele>379</ele>
        <time>2012-06-11T08:39:48Z</time>
      </trkpt>
      <trkpt lat="44.56508" lon="2.66547">
        <ele>379</ele>
        <time>2012-06-11T08:39:49Z</time>
      </trkpt>
      <trkpt lat="44.5651" lon="2.66546">
        <ele>379</ele>
        <time>2012-06-11T08:39:50Z</time>
      </trkpt>
      <trkpt lat="44.56512" lon="2.66546">
        <ele>379</ele>
        <time>2012-06-11T08:39:51Z</time>
      </trkpt>
      <trkpt lat="44.56513" lon="2.66546">
        <ele>379</ele>
        <time>2012-06-11T08:39:52Z</time>
      </trkpt>
      <trkpt lat="44.56514" lon="2.66546">
        <ele>379</ele>
        <time>2012-06-11T08:39:53Z</time>
      </trkpt>
      <trkpt lat="44.56517" lon="2.66545">
        <ele>379</ele>
        <time>2012-06-11T08:39:55Z</time>
      </trkpt>
      <trkpt lat="44.56519" lon="2.66545">
        <ele>379</ele>
        <time>2012-06-11T08:39:56Z</time>
      </trkpt>
      <trkpt lat="44.5652" lon="2.66544">
        <ele>379</ele>
        <time>2012-06-11T08:39:57Z</time>
      </trkpt>
      <trkpt lat="44.56522" lon="2.66543">
        <ele>379</ele>
        <time>2012-06-11T08:39:58Z</time>
      </trkpt>
      <trkpt lat="44.56524" lon="2.66543">
        <ele>379</ele>
        <time>2012-06-11T08:39:59Z</time>
      </trkpt>
      <trkpt lat="44.56525" lon="2.66543">
        <ele>379</ele>
        <time>2012-06-11T08:40:00Z</time>
      </trkpt>
      <trkpt lat="44.56527" lon="2.66542">
        <ele>379</ele>
        <time>2012-06-11T08:40:01Z</time>
      </trkpt>
      <trkpt lat="44.56528" lon="2.66541">
        <ele>379</ele>
        <time>2012-06-11T08:40:02Z</time>
      </trkpt>
      <trkpt lat="44.5653" lon="2.6654">
        <ele>379</ele>
        <time>2012-06-11T08:40:03Z</time>
      </trkpt>
      <trkpt lat="44.56531" lon="2.6654">
        <ele>379</ele>
        <time>2012-06-11T08:40:04Z</time>
      </trkpt>
      <trkpt lat="44.56532" lon="2.66539">
        <ele>379</ele>
        <time>2012-06-11T08:40:05Z</time>
      </trkpt>
      <trkpt lat="44.56534" lon="2.66538">
        <ele>379</ele>
        <time>2012-06-11T08:40:06Z</time>
      </trkpt>
      <trkpt lat="44.56535" lon="2.66537">
        <ele>379</ele>
        <time>2012-06-11T08:40:07Z</time>
      </trkpt>
      <trkpt lat="44.56537" lon="2.66537">
        <ele>379</ele>
        <time>2012-06-11T08:40:08Z</time>
      </trkpt>
      <trkpt lat="44.56538" lon="2.66536">
        <ele>379</ele>
        <time>2012-06-11T08:40:09Z</time>
      </trkpt>
      <trkpt lat="44.56539" lon="2.66536">
        <ele>379</ele>
        <time>2012-06-11T08:40:10Z</time>
      </trkpt>
      <trkpt lat="44.56541" lon="2.66535">
        <ele>379</ele>
        <time>2012-06-11T08:40:11Z</time>
      </trkpt>
      <trkpt lat="44.56543" lon="2.66533">
        <ele>379</ele>
        <time>2012-06-11T08:40:13Z</time>
      </trkpt>
      <trkpt lat="44.56544" lon="2.66533">
        <ele>379</ele>
        <time>2012-06-11T08:40:14Z</time>
      </trkpt>
      <trkpt lat="44.56546" lon="2.66533">
        <ele>379</ele>
        <time>2012-06-11T08:40:15Z</time>
      </trkpt>
      <trkpt lat="44.56547" lon="2.66532">
        <ele>379</ele>
        <time>2012-06-11T08:40:16Z</time>
      </trkpt>
      <trkpt lat="44.56549" lon="2.66532">
        <ele>379</ele>
        <time>2012-06-11T08:40:17Z</time>
      </trkpt>
      <trkpt lat="44.5655" lon="2.66532">
        <ele>379</ele>
        <time>2012-06-11T08:40:18Z</time>
      </trkpt>
      <trkpt lat="44.56552" lon="2.66531">
        <ele>379</ele>
        <time>2012-06-11T08:40:19Z</time>
      </trkpt>
      <trkpt lat="44.56553" lon="2.6653">
        <ele>379</ele>
        <time>2012-06-11T08:40:20Z</time>
      </trkpt>
      <trkpt lat="44.56556" lon="2.66529">
        <ele>379</ele>
        <time>2012-06-11T08:40:22Z</time>
      </trkpt>
      <trkpt lat="44.56557" lon="2.66529">
        <ele>379</ele>
        <time>2012-06-11T08:40:23Z</time>
      </trkpt>
      <trkpt lat="44.56558" lon="2.66529">
        <ele>379</ele>
        <time>2012-06-11T08:40:24Z</time>
      </trkpt>
      <trkpt lat="44.56559" lon="2.66528">
        <ele>379</ele>
        <time>2012-06-11T08:40:25Z</time>
      </trkpt>
      <trkpt lat="44.56561" lon="2.66527">
        <ele>379</ele>
        <time>2012-06-11T08:40:26Z</time>
      </trkpt>
      <trkpt lat="44.56562" lon="2.66526">
        <ele>379</ele>
        <time>2012-06-11T08:40:27Z</time>
      </trkpt>
      <trkpt lat="44.56563" lon="2.66525">
        <ele>379</ele>
        <time>2012-06-11T08:40:28Z</time>
      </trkpt>
      <trkpt lat="44.56564" lon="2.66524">
        <ele>379</ele>
        <time>2012-06-11T08:40:29Z</time>
      </trkpt>
      <trkpt lat="44.56566" lon="2.66523">
        <ele>379</ele>
        <time>2012-06-11T08:40:31Z</time>
      </trkpt>
      <trkpt lat="44.56567" lon="2.66522">
        <ele>379</ele>
        <time>2012-06-11T08:40:32Z</time>
      </trkpt>
      <trkpt lat="44.56569" lon="2.66522">
        <ele>379</ele>
        <time>2012-06-11T08:40:33Z</time>
      </trkpt>
      <trkpt lat="44.56571" lon="2.66521">
        <ele>379</ele>
        <time>2012-06-11T08:40:34Z</time>
      </trkpt>
      <trkpt lat="44.56572" lon="2.66521">
        <ele>379</ele>
        <time>2012-06-11T08:40:35Z</time>
      </trkpt>
      <trkpt lat="44.56574" lon="2.6652">
        <ele>379</ele>
        <time>2012-06-11T08:40:36Z</time>
      </trkpt>
      <trkpt lat="44.56575" lon="2.6652">
        <ele>379</ele>
        <time>2012-06-11T08:40:37Z</time>
      </trkpt>
      <trkpt lat="44.56577" lon="2.6652">
        <ele>379</ele>
        <time>2012-06-11T08:40:38Z</time>
      </trkpt>
      <trkpt lat="44.56578" lon="2.66519">
        <ele>379</ele>
        <time>2012-06-11T08:40:39Z</time>
      </trkpt>
      <trkpt lat="44.5658" lon="2.66519">
        <ele>379</ele>
        <time>2012-06-11T08:40:40Z</time>
      </trkpt>
      <trkpt lat="44.56581" lon="2.66518">
        <ele>379</ele>
        <time>2012-06-11T08:40:41Z</time>
      </trkpt>
      <trkpt lat="44.56583" lon="2.66518">
        <ele>379</ele>
        <time>2012-06-11T08:40:42Z</time>
      </trkpt>
      <trkpt lat="44.56583" lon="2.66516">
        <ele>379</ele>
        <time>2012-06-11T08:40:44Z</time>
      </trkpt>
      <trkpt lat="44.56585" lon="2.66514">
        <ele>379</ele>
        <time>2012-06-11T08:40:46Z</time>
      </trkpt>
      <trkpt lat="44.56586" lon="2.66513">
        <ele>379</ele>
        <time>2012-06-11T08:40:47Z</time>
      </trkpt>
      <trkpt lat="44.56588" lon="2.66513">
        <ele>379</ele>
        <time>2012-06-11T08:40:48Z</time>
      </trkpt>
      <trkpt lat="44.56589" lon="2.66512">
        <ele>379</ele>
        <time>2012-06-11T08:40:49Z</time>
      </trkpt>
      <trkpt lat="44.5659" lon="2.66511">
        <ele>379</ele>
        <time>2012-06-11T08:40:50Z</time>
      </trkpt>
      <trkpt lat="44.56591" lon="2.66511">
        <ele>379</ele>
        <time>2012-06-11T08:40:51Z</time>
      </trkpt>
      <trkpt lat="44.56593" lon="2.6651">
        <ele>379</ele>
        <time>2012-06-11T08:40:52Z</time>
      </trkpt>
      <trkpt lat="44.56594" lon="2.6651">
        <ele>379</ele>
        <time>2012-06-11T08:40:53Z</time>
      </trkpt>
      <trkpt lat="44.56596" lon="2.66509">
        <ele>379</ele>
        <time>2012-06-11T08:40:54Z</time>
      </trkpt>
      <trkpt lat="44.56597" lon="2.66508">
        <ele>379</ele>
        <time>2012-06-11T08:40:55Z</time>
      </trkpt>
      <trkpt lat="44.56599" lon="2.66508">
        <ele>379</ele>
        <time>2012-06-11T08:40:56Z</time>
      </trkpt>
      <trkpt lat="44.566" lon="2.66507">
        <ele>380</ele>
        <time>2012-06-11T08:40:57Z</time>
      </trkpt>
      <trkpt lat="44.56601" lon="2.66506">
        <ele>380</ele>
        <time>2012-06-11T08:40:58Z</time>
      </trkpt>
      <trkpt lat="44.56604" lon="2.66504">
        <ele>380</ele>
        <time>2012-06-11T08:41:00Z</time>
      </trkpt>
      <trkpt lat="44.56605" lon="2.66504">
        <ele>380</ele>
        <time>2012-06-11T08:41:01Z</time>
      </trkpt>
      <trkpt lat="44.56607" lon="2.66503">
        <ele>380</ele>
        <time>2012-06-11T08:41:02Z</time>
      </trkpt>
      <trkpt lat="44.56609" lon="2.66502">
        <ele>380</ele>
        <time>2012-06-11T08:41:04Z</time>
      </trkpt>
      <trkpt lat="44.5661" lon="2.66501">
        <ele>380</ele>
        <time>2012-06-11T08:41:05Z</time>
      </trkpt>
      <trkpt lat="44.56611" lon="2.665">
        <ele>380</ele>
        <time>2012-06-11T08:41:06Z</time>
      </trkpt>
      <trkpt lat="44.56612" lon="2.665">
        <ele>380</ele>
        <time>2012-06-11T08:41:07Z</time>
      </trkpt>
      <trkpt lat="44.56614" lon="2.66499">
        <ele>380</ele>
        <time>2012-06-11T08:41:08Z</time>
      </trkpt>
      <trkpt lat="44.56616" lon="2.66499">
        <ele>380</ele>
        <time>2012-06-11T08:41:09Z</time>
      </trkpt>
      <trkpt lat="44.56618" lon="2.66499">
        <ele>380</ele>
        <time>2012-06-11T08:41:10Z</time>
      </trkpt>
      <trkpt lat="44.5662" lon="2.66499">
        <ele>380</ele>
        <time>2012-06-11T08:41:11Z</time>
      </trkpt>
      <trkpt lat="44.56621" lon="2.66498">
        <ele>380</ele>
        <time>2012-06-11T08:41:12Z</time>
      </trkpt>
      <trkpt lat="44.56622" lon="2.66497">
        <ele>380</ele>
        <time>2012-06-11T08:41:13Z</time>
      </trkpt>
      <trkpt lat="44.56623" lon="2.66496">
        <ele>380</ele>
        <time>2012-06-11T08:41:14Z</time>
      </trkpt>
      <trkpt lat="44.56624" lon="2.66495">
        <ele>380</ele>
        <time>2012-06-11T08:41:15Z</time>
      </trkpt>
      <trkpt lat="44.56626" lon="2.66494">
        <ele>380</ele>
        <time>2012-06-11T08:41:16Z</time>
      </trkpt>
      <trkpt lat="44.56628" lon="2.66492">
        <ele>380</ele>
        <time>2012-06-11T08:41:18Z</time>
      </trkpt>
      <trkpt lat="44.56629" lon="2.66491">
        <ele>380</ele>
        <time>2012-06-11T08:41:19Z</time>
      </trkpt>
      <trkpt lat="44.5663" lon="2.6649">
        <ele>380</ele>
        <time>2012-06-11T08:41:20Z</time>
      </trkpt>
      <trkpt lat="44.56631" lon="2.66489">
        <ele>380</ele>
        <time>2012-06-11T08:41:21Z</time>
      </trkpt>
      <trkpt lat="44.56633" lon="2.66488">
        <ele>380</ele>
        <time>2012-06-11T08:41:22Z</time>
      </trkpt>
      <trkpt lat="44.56634" lon="2.66487">
        <ele>380</ele>
        <time>2012-06-11T08:41:23Z</time>
      </trkpt>
      <trkpt lat="44.56636" lon="2.66486">
        <ele>380</ele>
        <time>2012-06-11T08:41:24Z</time>
      </trkpt>
      <trkpt lat="44.56637" lon="2.66485">
        <ele>379</ele>
        <time>2012-06-11T08:41:25Z</time>
      </trkpt>
      <trkpt lat="44.56638" lon="2.66484">
        <ele>379</ele>
        <time>2012-06-11T08:41:26Z</time>
      </trkpt>
      <trkpt lat="44.56639" lon="2.66483">
        <ele>379</ele>
        <time>2012-06-11T08:41:27Z</time>
      </trkpt>
      <trkpt lat="44.5664" lon="2.66482">
        <ele>379</ele>
        <time>2012-06-11T08:41:28Z</time>
      </trkpt>
      <trkpt lat="44.56643" lon="2.6648">
        <ele>378</ele>
        <time>2012-06-11T08:41:30Z</time>
      </trkpt>
      <trkpt lat="44.56644" lon="2.66479">
        <ele>378</ele>
        <time>2012-06-11T08:41:31Z</time>
      </trkpt>
      <trkpt lat="44.56645" lon="2.66479">
        <ele>378</ele>
        <time>2012-06-11T08:41:32Z</time>
      </trkpt>
      <trkpt lat="44.56646" lon="2.66478">
        <ele>378</ele>
        <time>2012-06-11T08:41:33Z</time>
      </trkpt>
      <trkpt lat="44.56648" lon="2.66477">
        <ele>377</ele>
        <time>2012-06-11T08:41:34Z</time>
      </trkpt>
      <trkpt lat="44.56649" lon="2.66476">
        <ele>377</ele>
        <time>2012-06-11T08:41:35Z</time>
      </trkpt>
      <trkpt lat="44.5665" lon="2.66475">
        <ele>377</ele>
        <time>2012-06-11T08:41:36Z</time>
      </trkpt>
      <trkpt lat="44.56651" lon="2.66474">
        <ele>377</ele>
        <time>2012-06-11T08:41:37Z</time>
      </trkpt>
      <trkpt lat="44.56653" lon="2.66473">
        <ele>377</ele>
        <time>2012-06-11T08:41:38Z</time>
      </trkpt>
      <trkpt lat="44.56654" lon="2.66473">
        <ele>376</ele>
        <time>2012-06-11T08:41:39Z</time>
      </trkpt>
      <trkpt lat="44.56656" lon="2.66472">
        <ele>376</ele>
        <time>2012-06-11T08:41:40Z</time>
      </trkpt>
      <trkpt lat="44.56657" lon="2.66471">
        <ele>376</ele>
        <time>2012-06-11T08:41:41Z</time>
      </trkpt>
      <trkpt lat="44.56659" lon="2.6647">
        <ele>376</ele>
        <time>2012-06-11T08:41:42Z</time>
      </trkpt>
      <trkpt lat="44.5666" lon="2.66469">
        <ele>376</ele>
        <time>2012-06-11T08:41:43Z</time>
      </trkpt>
      <trkpt lat="44.56662" lon="2.66469">
        <ele>376</ele>
        <time>2012-06-11T08:41:44Z</time>
      </trkpt>
      <trkpt lat="44.56663" lon="2.66468">
        <ele>376</ele>
        <time>2012-06-11T08:41:45Z</time>
      </trkpt>
      <trkpt lat="44.56664" lon="2.66467">
        <ele>376</ele>
        <time>2012-06-11T08:41:46Z</time>
      </trkpt>
      <trkpt lat="44.56665" lon="2.66466">
        <ele>376</ele>
        <time>2012-06-11T08:41:47Z</time>
      </trkpt>
      <trkpt lat="44.56667" lon="2.66466">
        <ele>376</ele>
        <time>2012-06-11T08:41:48Z</time>
      </trkpt>
      <trkpt lat="44.56668" lon="2.66465">
        <ele>376</ele>
        <time>2012-06-11T08:41:49Z</time>
      </trkpt>
      <trkpt lat="44.5667" lon="2.66463">
        <ele>376</ele>
        <time>2012-06-11T08:41:50Z</time>
      </trkpt>
      <trkpt lat="44.56671" lon="2.66462">
        <ele>376</ele>
        <time>2012-06-11T08:41:51Z</time>
      </trkpt>
      <trkpt lat="44.56673" lon="2.6646">
        <ele>376</ele>
        <time>2012-06-11T08:41:53Z</time>
      </trkpt>
      <trkpt lat="44.56675" lon="2.66459">
        <ele>376</ele>
        <time>2012-06-11T08:41:55Z</time>
      </trkpt>
      <trkpt lat="44.56676" lon="2.66457">
        <ele>376</ele>
        <time>2012-06-11T08:41:56Z</time>
      </trkpt>
      <trkpt lat="44.56678" lon="2.66456">
        <ele>376</ele>
        <time>2012-06-11T08:41:58Z</time>
      </trkpt>
      <trkpt lat="44.56679" lon="2.66455">
        <ele>376</ele>
        <time>2012-06-11T08:41:59Z</time>
      </trkpt>
      <trkpt lat="44.56681" lon="2.66453">
        <ele>376</ele>
        <time>2012-06-11T08:42:01Z</time>
      </trkpt>
      <trkpt lat="44.56682" lon="2.66449">
        <ele>376</ele>
        <time>2012-06-11T08:42:04Z</time>
      </trkpt>
      <trkpt lat="44.56684" lon="2.66447">
        <ele>376</ele>
        <time>2012-06-11T08:42:06Z</time>
      </trkpt>
      <trkpt lat="44.56686" lon="2.66446">
        <ele>376</ele>
        <time>2012-06-11T08:42:07Z</time>
      </trkpt>
      <trkpt lat="44.56687" lon="2.66444">
        <ele>376</ele>
        <time>2012-06-11T08:42:09Z</time>
      </trkpt>
      <trkpt lat="44.56688" lon="2.66443">
        <ele>376</ele>
        <time>2012-06-11T08:42:10Z</time>
      </trkpt>
      <trkpt lat="44.56689" lon="2.66441">
        <ele>376</ele>
        <time>2012-06-11T08:42:11Z</time>
      </trkpt>
      <trkpt lat="44.56691" lon="2.6644">
        <ele>376</ele>
        <time>2012-06-11T08:42:13Z</time>
      </trkpt>
      <trkpt lat="44.56695" lon="2.66439">
        <ele>376</ele>
        <time>2012-06-11T08:42:20Z</time>
      </trkpt>
      <trkpt lat="44.56696" lon="2.66438">
        <ele>376</ele>
        <time>2012-06-11T08:42:21Z</time>
      </trkpt>
      <trkpt lat="44.56698" lon="2.66436">
        <ele>376</ele>
        <time>2012-06-11T08:42:23Z</time>
      </trkpt>
      <trkpt lat="44.56699" lon="2.66434">
        <ele>376</ele>
        <time>2012-06-11T08:42:24Z</time>
      </trkpt>
      <trkpt lat="44.56701" lon="2.66433">
        <ele>376</ele>
        <time>2012-06-11T08:42:25Z</time>
      </trkpt>
      <trkpt lat="44.56702" lon="2.66432">
        <ele>376</ele>
        <time>2012-06-11T08:42:26Z</time>
      </trkpt>
      <trkpt lat="44.56704" lon="2.66429">
        <ele>376</ele>
        <time>2012-06-11T08:42:28Z</time>
      </trkpt>
      <trkpt lat="44.56705" lon="2.66428">
        <ele>376</ele>
        <time>2012-06-11T08:42:29Z</time>
      </trkpt>
      <trkpt lat="44.56707" lon="2.66426">
        <ele>376</ele>
        <time>2012-06-11T08:42:30Z</time>
      </trkpt>
      <trkpt lat="44.56708" lon="2.66424">
        <ele>377</ele>
        <time>2012-06-11T08:42:32Z</time>
      </trkpt>
      <trkpt lat="44.5671" lon="2.66421">
        <ele>377</ele>
        <time>2012-06-11T08:42:34Z</time>
      </trkpt>
      <trkpt lat="44.56712" lon="2.66421">
        <ele>377</ele>
        <time>2012-06-11T08:42:35Z</time>
      </trkpt>
      <trkpt lat="44.56714" lon="2.66419">
        <ele>377</ele>
        <time>2012-06-11T08:42:37Z</time>
      </trkpt>
      <trkpt lat="44.56715" lon="2.66419">
        <ele>377</ele>
        <time>2012-06-11T08:42:38Z</time>
      </trkpt>
      <trkpt lat="44.56717" lon="2.66418">
        <ele>377</ele>
        <time>2012-06-11T08:42:39Z</time>
      </trkpt>
      <trkpt lat="44.56718" lon="2.66417">
        <ele>377</ele>
        <time>2012-06-11T08:42:40Z</time>
      </trkpt>
      <trkpt lat="44.5672" lon="2.66417">
        <ele>377</ele>
        <time>2012-06-11T08:42:41Z</time>
      </trkpt>
      <trkpt lat="44.56721" lon="2.66416">
        <ele>377</ele>
        <time>2012-06-11T08:42:42Z</time>
      </trkpt>
      <trkpt lat="44.56722" lon="2.66416">
        <ele>377</ele>
        <time>2012-06-11T08:42:43Z</time>
      </trkpt>
      <trkpt lat="44.56723" lon="2.66414">
        <ele>377</ele>
        <time>2012-06-11T08:42:44Z</time>
      </trkpt>
      <trkpt lat="44.56726" lon="2.66413">
        <ele>377</ele>
        <time>2012-06-11T08:42:46Z</time>
      </trkpt>
      <trkpt lat="44.56727" lon="2.66412">
        <ele>377</ele>
        <time>2012-06-11T08:42:47Z</time>
      </trkpt>
      <trkpt lat="44.56728" lon="2.66412">
        <ele>377</ele>
        <time>2012-06-11T08:42:48Z</time>
      </trkpt>
      <trkpt lat="44.5673" lon="2.6641">
        <ele>377</ele>
        <time>2012-06-11T08:42:50Z</time>
      </trkpt>
      <trkpt lat="44.56732" lon="2.66408">
        <ele>377</ele>
        <time>2012-06-11T08:42:52Z</time>
      </trkpt>
      <trkpt lat="44.56734" lon="2.66406">
        <ele>377</ele>
        <time>2012-06-11T08:42:54Z</time>
      </trkpt>
      <trkpt lat="44.56736" lon="2.66404">
        <ele>377</ele>
        <time>2012-06-11T08:42:56Z</time>
      </trkpt>
      <trkpt lat="44.56738" lon="2.66403">
        <ele>377</ele>
        <time>2012-06-11T08:42:57Z</time>
      </trkpt>
      <trkpt lat="44.5674" lon="2.66401">
        <ele>377</ele>
        <time>2012-06-11T08:42:59Z</time>
      </trkpt>
      <trkpt lat="44.56741" lon="2.66399">
        <ele>377</ele>
        <time>2012-06-11T08:43:01Z</time>
      </trkpt>
      <trkpt lat="44.56743" lon="2.66398">
        <ele>377</ele>
        <time>2012-06-11T08:43:02Z</time>
      </trkpt>
      <trkpt lat="44.56744" lon="2.66398">
        <ele>377</ele>
        <time>2012-06-11T08:43:03Z</time>
      </trkpt>
      <trkpt lat="44.56746" lon="2.66397">
        <ele>377</ele>
        <time>2012-06-11T08:43:04Z</time>
      </trkpt>
      <trkpt lat="44.56747" lon="2.66394">
        <ele>377</ele>
        <time>2012-06-11T08:43:06Z</time>
      </trkpt>
      <trkpt lat="44.56749" lon="2.66393">
        <ele>377</ele>
        <time>2012-06-11T08:43:08Z</time>
      </trkpt>
      <trkpt lat="44.5675" lon="2.66393">
        <ele>377</ele>
        <time>2012-06-11T08:43:09Z</time>
      </trkpt>
      <trkpt lat="44.56752" lon="2.66392">
        <ele>377</ele>
        <time>2012-06-11T08:43:10Z</time>
      </trkpt>
      <trkpt lat="44.56753" lon="2.66391">
        <ele>377</ele>
        <time>2012-06-11T08:43:11Z</time>
      </trkpt>
      <trkpt lat="44.56755" lon="2.6639">
        <ele>377</ele>
        <time>2012-06-11T08:43:12Z</time>
      </trkpt>
      <trkpt lat="44.56756" lon="2.6639">
        <ele>377</ele>
        <time>2012-06-11T08:43:13Z</time>
      </trkpt>
      <trkpt lat="44.56758" lon="2.66388">
        <ele>377</ele>
        <time>2012-06-11T08:43:15Z</time>
      </trkpt>
      <trkpt lat="44.5676" lon="2.66387">
        <ele>377</ele>
        <time>2012-06-11T08:43:16Z</time>
      </trkpt>
      <trkpt lat="44.56761" lon="2.66384">
        <ele>377</ele>
        <time>2012-06-11T08:43:17Z</time>
      </trkpt>
      <trkpt lat="44.56762" lon="2.66383">
        <ele>377</ele>
        <time>2012-06-11T08:43:18Z</time>
      </trkpt>
      <trkpt lat="44.56764" lon="2.66382">
        <ele>377</ele>
        <time>2012-06-11T08:43:19Z</time>
      </trkpt>
      <trkpt lat="44.56766" lon="2.66381">
        <ele>377</ele>
        <time>2012-06-11T08:43:20Z</time>
      </trkpt>
      <trkpt lat="44.56768" lon="2.66379">
        <ele>377</ele>
        <time>2012-06-11T08:43:21Z</time>
      </trkpt>
      <trkpt lat="44.56769" lon="2.66379">
        <ele>377</ele>
        <time>2012-06-11T08:43:22Z</time>
      </trkpt>
      <trkpt lat="44.56771" lon="2.66376">
        <ele>377</ele>
        <time>2012-06-11T08:43:24Z</time>
      </trkpt>
      <trkpt lat="44.56773" lon="2.66374">
        <ele>377</ele>
        <time>2012-06-11T08:43:26Z</time>
      </trkpt>
      <trkpt lat="44.56775" lon="2.66372">
        <ele>377</ele>
        <time>2012-06-11T08:43:28Z</time>
      </trkpt>
      <trkpt lat="44.56777" lon="2.66371">
        <ele>377</ele>
        <time>2012-06-11T08:43:30Z</time>
      </trkpt>
      <trkpt lat="44.56779" lon="2.6637">
        <ele>377</ele>
        <time>2012-06-11T08:43:31Z</time>
      </trkpt>
      <trkpt lat="44.5678" lon="2.6637">
        <ele>377</ele>
        <time>2012-06-11T08:43:32Z</time>
      </trkpt>
      <trkpt lat="44.56782" lon="2.6637">
        <ele>377</ele>
        <time>2012-06-11T08:43:33Z</time>
      </trkpt>
      <trkpt lat="44.56784" lon="2.66369">
        <ele>377</ele>
        <time>2012-06-11T08:43:34Z</time>
      </trkpt>
      <trkpt lat="44.56786" lon="2.66367">
        <ele>377</ele>
        <time>2012-06-11T08:43:36Z</time>
      </trkpt>
      <trkpt lat="44.56787" lon="2.66366">
        <ele>377</ele>
        <time>2012-06-11T08:43:37Z</time>
      </trkpt>
      <trkpt lat="44.56788" lon="2.66364">
        <ele>377</ele>
        <time>2012-06-11T08:43:38Z</time>
      </trkpt>
      <trkpt lat="44.56791" lon="2.66363">
        <ele>377</ele>
        <time>2012-06-11T08:43:40Z</time>
      </trkpt>
      <trkpt lat="44.56791" lon="2.66361">
        <ele>377</ele>
        <time>2012-06-11T08:43:41Z</time>
      </trkpt>
      <trkpt lat="44.56792" lon="2.6636">
        <ele>377</ele>
        <time>2012-06-11T08:43:42Z</time>
      </trkpt>
      <trkpt lat="44.56795" lon="2.66358">
        <ele>377</ele>
        <time>2012-06-11T08:43:44Z</time>
      </trkpt>
      <trkpt lat="44.56796" lon="2.66356">
        <ele>377</ele>
        <time>2012-06-11T08:43:45Z</time>
      </trkpt>
      <trkpt lat="44.56798" lon="2.66356">
        <ele>377</ele>
        <time>2012-06-11T08:43:46Z</time>
      </trkpt>
      <trkpt lat="44.56799" lon="2.66354">
        <ele>377</ele>
        <time>2012-06-11T08:43:47Z</time>
      </trkpt>
      <trkpt lat="44.56802" lon="2.66354">
        <ele>377</ele>
        <time>2012-06-11T08:43:49Z</time>
      </trkpt>
      <trkpt lat="44.56803" lon="2.66352">
        <ele>377</ele>
        <time>2012-06-11T08:43:50Z</time>
      </trkpt>
      <trkpt lat="44.56804" lon="2.6635">
        <ele>377</ele>
        <time>2012-06-11T08:43:51Z</time>
      </trkpt>
      <trkpt lat="44.56805" lon="2.66348">
        <ele>378</ele>
        <time>2012-06-11T08:43:52Z</time>
      </trkpt>
      <trkpt lat="44.56807" lon="2.66348">
        <ele>378</ele>
        <time>2012-06-11T08:43:53Z</time>
      </trkpt>
      <trkpt lat="44.56809" lon="2.66347">
        <ele>379</ele>
        <time>2012-06-11T08:43:54Z</time>
      </trkpt>
      <trkpt lat="44.5681" lon="2.66345">
        <ele>380</ele>
        <time>2012-06-11T08:43:56Z</time>
      </trkpt>
      <trkpt lat="44.56813" lon="2.66343">
        <ele>380</ele>
        <time>2012-06-11T08:43:58Z</time>
      </trkpt>
      <trkpt lat="44.56814" lon="2.66342">
        <ele>380</ele>
        <time>2012-06-11T08:43:59Z</time>
      </trkpt>
      <trkpt lat="44.56815" lon="2.66341">
        <ele>381</ele>
        <time>2012-06-11T08:44:00Z</time>
      </trkpt>
      <trkpt lat="44.56816" lon="2.66339">
        <ele>381</ele>
        <time>2012-06-11T08:44:01Z</time>
      </trkpt>
      <trkpt lat="44.56818" lon="2.66338">
        <ele>381</ele>
        <time>2012-06-11T08:44:02Z</time>
      </trkpt>
      <trkpt lat="44.56819" lon="2.66337">
        <ele>381</ele>
        <time>2012-06-11T08:44:03Z</time>
      </trkpt>
      <trkpt lat="44.56821" lon="2.66336">
        <ele>381</ele>
        <time>2012-06-11T08:44:04Z</time>
      </trkpt>
      <trkpt lat="44.56823" lon="2.66333">
        <ele>381</ele>
        <time>2012-06-11T08:44:06Z</time>
      </trkpt>
      <trkpt lat="44.56825" lon="2.66332">
        <ele>381</ele>
        <time>2012-06-11T08:44:07Z</time>
      </trkpt>
      <trkpt lat="44.56826" lon="2.6633">
        <ele>381</ele>
        <time>2012-06-11T08:44:08Z</time>
      </trkpt>
      <trkpt lat="44.56827" lon="2.6633">
        <ele>381</ele>
        <time>2012-06-11T08:44:09Z</time>
      </trkpt>
      <trkpt lat="44.56828" lon="2.66329">
        <ele>381</ele>
        <time>2012-06-11T08:44:10Z</time>
      </trkpt>
      <trkpt lat="44.5683" lon="2.66328">
        <ele>381</ele>
        <time>2012-06-11T08:44:11Z</time>
      </trkpt>
      <trkpt lat="44.56831" lon="2.66327">
        <ele>381</ele>
        <time>2012-06-11T08:44:12Z</time>
      </trkpt>
      <trkpt lat="44.56833" lon="2.66326">
        <ele>381</ele>
        <time>2012-06-11T08:44:13Z</time>
      </trkpt>
      <trkpt lat="44.56834" lon="2.66326">
        <ele>381</ele>
        <time>2012-06-11T08:44:14Z</time>
      </trkpt>
      <trkpt lat="44.56835" lon="2.66325">
        <ele>381</ele>
        <time>2012-06-11T08:44:15Z</time>
      </trkpt>
      <trkpt lat="44.56836" lon="2.66324">
        <ele>381</ele>
        <time>2012-06-11T08:44:16Z</time>
      </trkpt>
      <trkpt lat="44.56838" lon="2.66322">
        <ele>382</ele>
        <time>2012-06-11T08:44:18Z</time>
      </trkpt>
      <trkpt lat="44.5684" lon="2.66322">
        <ele>382</ele>
        <time>2012-06-11T08:44:19Z</time>
      </trkpt>
      <trkpt lat="44.56842" lon="2.66322">
        <ele>382</ele>
        <time>2012-06-11T08:44:20Z</time>
      </trkpt>
      <trkpt lat="44.56844" lon="2.66322">
        <ele>382</ele>
        <time>2012-06-11T08:44:21Z</time>
      </trkpt>
      <trkpt lat="44.56846" lon="2.66321">
        <ele>382</ele>
        <time>2012-06-11T08:44:23Z</time>
      </trkpt>
      <trkpt lat="44.56847" lon="2.66322">
        <ele>382</ele>
        <time>2012-06-11T08:44:24Z</time>
      </trkpt>
      <trkpt lat="44.56849" lon="2.66322">
        <ele>382</ele>
        <time>2012-06-11T08:44:25Z</time>
      </trkpt>
      <trkpt lat="44.56851" lon="2.66323">
        <ele>383</ele>
        <time>2012-06-11T08:44:27Z</time>
      </trkpt>
      <trkpt lat="44.56853" lon="2.66325">
        <ele>384</ele>
        <time>2012-06-11T08:44:29Z</time>
      </trkpt>
      <trkpt lat="44.56854" lon="2.66326">
        <ele>384</ele>
        <time>2012-06-11T08:44:30Z</time>
      </trkpt>
      <trkpt lat="44.56855" lon="2.66327">
        <ele>384</ele>
        <time>2012-06-11T08:44:31Z</time>
      </trkpt>
      <trkpt lat="44.56857" lon="2.66328">
        <ele>384</ele>
        <time>2012-06-11T08:44:32Z</time>
      </trkpt>
      <trkpt lat="44.5686" lon="2.6633">
        <ele>384</ele>
        <time>2012-06-11T08:44:34Z</time>
      </trkpt>
      <trkpt lat="44.56862" lon="2.6633">
        <ele>384</ele>
        <time>2012-06-11T08:44:35Z</time>
      </trkpt>
      <trkpt lat="44.56864" lon="2.6633">
        <ele>384</ele>
        <time>2012-06-11T08:44:36Z</time>
      </trkpt>
      <trkpt lat="44.56865" lon="2.6633">
        <ele>384</ele>
        <time>2012-06-11T08:44:37Z</time>
      </trkpt>
      <trkpt lat="44.56867" lon="2.6633">
        <ele>385</ele>
        <time>2012-06-11T08:44:38Z</time>
      </trkpt>
      <trkpt lat="44.56868" lon="2.66329">
        <ele>385</ele>
        <time>2012-06-11T08:44:39Z</time>
      </trkpt>
      <trkpt lat="44.5687" lon="2.66328">
        <ele>386</ele>
        <time>2012-06-11T08:44:40Z</time>
      </trkpt>
      <trkpt lat="44.56871" lon="2.66328">
        <ele>386</ele>
        <time>2012-06-11T08:44:41Z</time>
      </trkpt>
      <trkpt lat="44.56873" lon="2.66328">
        <ele>386</ele>
        <time>2012-06-11T08:44:42Z</time>
      </trkpt>
      <trkpt lat="44.56874" lon="2.66327">
        <ele>386</ele>
        <time>2012-06-11T08:44:43Z</time>
      </trkpt>
      <trkpt lat="44.56876" lon="2.66327">
        <ele>386</ele>
        <time>2012-06-11T08:44:44Z</time>
      </trkpt>
      <trkpt lat="44.56877" lon="2.66327">
        <ele>386</ele>
        <time>2012-06-11T08:44:45Z</time>
      </trkpt>
      <trkpt lat="44.56878" lon="2.66327">
        <ele>386</ele>
        <time>2012-06-11T08:44:46Z</time>
      </trkpt>
      <trkpt lat="44.5688" lon="2.66327">
        <ele>386</ele>
        <time>2012-06-11T08:44:47Z</time>
      </trkpt>
      <trkpt lat="44.56881" lon="2.66328">
        <ele>386</ele>
        <time>2012-06-11T08:44:48Z</time>
      </trkpt>
      <trkpt lat="44.56883" lon="2.66329">
        <ele>386</ele>
        <time>2012-06-11T08:44:49Z</time>
      </trkpt>
      <trkpt lat="44.56885" lon="2.6633">
        <ele>386</ele>
        <time>2012-06-11T08:44:51Z</time>
      </trkpt>
      <trkpt lat="44.56888" lon="2.66331">
        <ele>386</ele>
        <time>2012-06-11T08:44:52Z</time>
      </trkpt>
      <trkpt lat="44.56889" lon="2.66331">
        <ele>386</ele>
        <time>2012-06-11T08:44:53Z</time>
      </trkpt>
      <trkpt lat="44.56891" lon="2.66332">
        <ele>386</ele>
        <time>2012-06-11T08:44:54Z</time>
      </trkpt>
      <trkpt lat="44.56894" lon="2.66331">
        <ele>386</ele>
        <time>2012-06-11T08:44:57Z</time>
      </trkpt>
      <trkpt lat="44.56896" lon="2.6633">
        <ele>386</ele>
        <time>2012-06-11T08:44:59Z</time>
      </trkpt>
      <trkpt lat="44.56897" lon="2.66328">
        <ele>389</ele>
        <time>2012-06-11T08:45:02Z</time>
      </trkpt>
      <trkpt lat="44.56899" lon="2.66329">
        <ele>390</ele>
        <time>2012-06-11T08:45:03Z</time>
      </trkpt>
      <trkpt lat="44.56901" lon="2.6633">
        <ele>391</ele>
        <time>2012-06-11T08:45:04Z</time>
      </trkpt>
      <trkpt lat="44.56903" lon="2.6633">
        <ele>392</ele>
        <time>2012-06-11T08:45:05Z</time>
      </trkpt>
      <trkpt lat="44.56905" lon="2.6633">
        <ele>393</ele>
        <time>2012-06-11T08:45:07Z</time>
      </trkpt>
      <trkpt lat="44.56908" lon="2.6633">
        <ele>396</ele>
        <time>2012-06-11T08:45:10Z</time>
      </trkpt>
      <trkpt lat="44.56909" lon="2.6633">
        <ele>397</ele>
        <time>2012-06-11T08:45:11Z</time>
      </trkpt>
      <trkpt lat="44.56913" lon="2.6633">
        <ele>398</ele>
        <time>2012-06-11T08:45:13Z</time>
      </trkpt>
      <trkpt lat="44.56914" lon="2.66329">
        <ele>399</ele>
        <time>2012-06-11T08:45:14Z</time>
      </trkpt>
      <trkpt lat="44.56916" lon="2.66328">
        <ele>399</ele>
        <time>2012-06-11T08:45:16Z</time>
      </trkpt>
      <trkpt lat="44.56917" lon="2.66326">
        <ele>400</ele>
        <time>2012-06-11T08:45:18Z</time>
      </trkpt>
      <trkpt lat="44.56918" lon="2.66325">
        <ele>401</ele>
        <time>2012-06-11T08:45:20Z</time>
      </trkpt>
      <trkpt lat="44.56918" lon="2.66323">
        <ele>402</ele>
        <time>2012-06-11T08:45:22Z</time>
      </trkpt>
      <trkpt lat="44.56919" lon="2.66319">
        <ele>402</ele>
        <time>2012-06-11T08:45:25Z</time>
      </trkpt>
      <trkpt lat="44.56921" lon="2.66317">
        <ele>402</ele>
        <time>2012-06-11T08:45:28Z</time>
      </trkpt>
      <trkpt lat="44.56922" lon="2.66315">
        <ele>402</ele>
        <time>2012-06-11T08:45:29Z</time>
      </trkpt>
      <trkpt lat="44.56922" lon="2.66311">
        <ele>402</ele>
        <time>2012-06-11T08:45:31Z</time>
      </trkpt>
      <trkpt lat="44.56923" lon="2.66308">
        <ele>401</ele>
        <time>2012-06-11T08:45:33Z</time>
      </trkpt>
      <trkpt lat="44.56923" lon="2.66298">
        <ele>398</ele>
        <time>2012-06-11T08:45:38Z</time>
      </trkpt>
      <trkpt lat="44.56922" lon="2.66294">
        <ele>397</ele>
        <time>2012-06-11T08:45:40Z</time>
      </trkpt>
      <trkpt lat="44.56922" lon="2.66292">
        <ele>397</ele>
        <time>2012-06-11T08:45:41Z</time>
      </trkpt>
      <trkpt lat="44.5692" lon="2.66286">
        <ele>397</ele>
        <time>2012-06-11T08:45:44Z</time>
      </trkpt>
      <trkpt lat="44.5692" lon="2.6628">
        <ele>397</ele>
        <time>2012-06-11T08:45:47Z</time>
      </trkpt>
      <trkpt lat="44.56921" lon="2.66278">
        <ele>397</ele>
        <time>2012-06-11T08:45:48Z</time>
      </trkpt>
      <trkpt lat="44.5692" lon="2.66276">
        <ele>396</ele>
        <time>2012-06-11T08:45:49Z</time>
      </trkpt>
      <trkpt lat="44.56921" lon="2.66274">
        <ele>396</ele>
        <time>2012-06-11T08:45:50Z</time>
      </trkpt>
      <trkpt lat="44.56921" lon="2.66266">
        <ele>394</ele>
        <time>2012-06-11T08:45:54Z</time>
      </trkpt>
      <trkpt lat="44.56921" lon="2.66262">
        <ele>394</ele>
        <time>2012-06-11T08:45:56Z</time>
      </trkpt>
      <trkpt lat="44.5692" lon="2.6626">
        <ele>392</ele>
        <time>2012-06-11T08:45:58Z</time>
      </trkpt>
      <trkpt lat="44.56919" lon="2.66258">
        <ele>391</ele>
        <time>2012-06-11T08:46:00Z</time>
      </trkpt>
      <trkpt lat="44.56919" lon="2.66254">
        <ele>389</ele>
        <time>2012-06-11T08:46:02Z</time>
      </trkpt>
      <trkpt lat="44.56918" lon="2.66251">
        <ele>389</ele>
        <time>2012-06-11T08:46:04Z</time>
      </trkpt>
      <trkpt lat="44.56913" lon="2.66247">
        <ele>388</ele>
        <time>2012-06-11T08:46:06Z</time>
      </trkpt>
      <trkpt lat="44.56912" lon="2.66243">
        <ele>388</ele>
        <time>2012-06-11T08:46:09Z</time>
      </trkpt>
      <trkpt lat="44.5691" lon="2.6624">
        <ele>388</ele>
        <time>2012-06-11T08:46:10Z</time>
      </trkpt>
      <trkpt lat="44.56909" lon="2.66238">
        <ele>388</ele>
        <time>2012-06-11T08:46:11Z</time>
      </trkpt>
      <trkpt lat="44.56909" lon="2.66237">
        <ele>388</ele>
        <time>2012-06-11T08:46:12Z</time>
      </trkpt>
      <trkpt lat="44.56906" lon="2.66233">
        <ele>388</ele>
        <time>2012-06-11T08:46:14Z</time>
      </trkpt>
      <trkpt lat="44.56905" lon="2.66232">
        <ele>388</ele>
        <time>2012-06-11T08:46:15Z</time>
      </trkpt>
      <trkpt lat="44.56903" lon="2.6623">
        <ele>388</ele>
        <time>2012-06-11T08:46:16Z</time>
      </trkpt>
      <trkpt lat="44.56902" lon="2.66229">
        <ele>388</ele>
        <time>2012-06-11T08:46:17Z</time>
      </trkpt>
      <trkpt lat="44.569" lon="2.66228">
        <ele>388</ele>
        <time>2012-06-11T08:46:18Z</time>
      </trkpt>
      <trkpt lat="44.56899" lon="2.66226">
        <ele>388</ele>
        <time>2012-06-11T08:46:19Z</time>
      </trkpt>
      <trkpt lat="44.56898" lon="2.66224">
        <ele>388</ele>
        <time>2012-06-11T08:46:20Z</time>
      </trkpt>
      <trkpt lat="44.56897" lon="2.66222">
        <ele>388</ele>
        <time>2012-06-11T08:46:21Z</time>
      </trkpt>
      <trkpt lat="44.56896" lon="2.6622">
        <ele>388</ele>
        <time>2012-06-11T08:46:22Z</time>
      </trkpt>
      <trkpt lat="44.56895" lon="2.66218">
        <ele>388</ele>
        <time>2012-06-11T08:46:23Z</time>
      </trkpt>
      <trkpt lat="44.56894" lon="2.66213">
        <ele>388</ele>
        <time>2012-06-11T08:46:25Z</time>
      </trkpt>
      <trkpt lat="44.56894" lon="2.66211">
        <ele>388</ele>
        <time>2012-06-11T08:46:26Z</time>
      </trkpt>
      <trkpt lat="44.56894" lon="2.66209">
        <ele>388</ele>
        <time>2012-06-11T08:46:27Z</time>
      </trkpt>
      <trkpt lat="44.56894" lon="2.662">
        <ele>388</ele>
        <time>2012-06-11T08:46:31Z</time>
      </trkpt>
      <trkpt lat="44.56894" lon="2.66197">
        <ele>388</ele>
        <time>2012-06-11T08:46:32Z</time>
      </trkpt>
      <trkpt lat="44.56894" lon="2.6619">
        <ele>387</ele>
        <time>2012-06-11T08:46:36Z</time>
      </trkpt>
      <trkpt lat="44.56894" lon="2.66187">
        <ele>387</ele>
        <time>2012-06-11T08:46:38Z</time>
      </trkpt>
      <trkpt lat="44.56894" lon="2.66185">
        <ele>387</ele>
        <time>2012-06-11T08:46:39Z</time>
      </trkpt>
      <trkpt lat="44.56894" lon="2.66183">
        <ele>387</ele>
        <time>2012-06-11T08:46:40Z</time>
      </trkpt>
      <trkpt lat="44.56894" lon="2.66181">
        <ele>386</ele>
        <time>2012-06-11T08:46:41Z</time>
      </trkpt>
      <trkpt lat="44.56894" lon="2.6618">
        <ele>386</ele>
        <time>2012-06-11T08:46:42Z</time>
      </trkpt>
      <trkpt lat="44.56895" lon="2.66174">
        <ele>383</ele>
        <time>2012-06-11T08:46:45Z</time>
      </trkpt>
      <trkpt lat="44.56895" lon="2.66172">
        <ele>383</ele>
        <time>2012-06-11T08:46:46Z</time>
      </trkpt>
      <trkpt lat="44.56895" lon="2.6617">
        <ele>382</ele>
        <time>2012-06-11T08:46:47Z</time>
      </trkpt>
      <trkpt lat="44.56894" lon="2.66165">
        <ele>381</ele>
        <time>2012-06-11T08:46:51Z</time>
      </trkpt>
      <trkpt lat="44.56893" lon="2.66163">
        <ele>380</ele>
        <time>2012-06-11T08:46:53Z</time>
      </trkpt>
      <trkpt lat="44.56892" lon="2.6616">
        <ele>380</ele>
        <time>2012-06-11T08:46:55Z</time>
      </trkpt>
      <trkpt lat="44.5689" lon="2.66158">
        <ele>380</ele>
        <time>2012-06-11T08:46:56Z</time>
      </trkpt>
      <trkpt lat="44.5689" lon="2.66156">
        <ele>380</ele>
        <time>2012-06-11T08:46:57Z</time>
      </trkpt>
      <trkpt lat="44.56889" lon="2.66153">
        <ele>380</ele>
        <time>2012-06-11T08:46:59Z</time>
      </trkpt>
      <trkpt lat="44.56888" lon="2.66152">
        <ele>380</ele>
        <time>2012-06-11T08:47:01Z</time>
      </trkpt>
      <trkpt lat="44.56885" lon="2.66149">
        <ele>380</ele>
        <time>2012-06-11T08:47:03Z</time>
      </trkpt>
      <trkpt lat="44.56884" lon="2.66147">
        <ele>380</ele>
        <time>2012-06-11T08:47:04Z</time>
      </trkpt>
      <trkpt lat="44.56882" lon="2.66145">
        <ele>380</ele>
        <time>2012-06-11T08:47:05Z</time>
      </trkpt>
      <trkpt lat="44.56881" lon="2.66143">
        <ele>380</ele>
        <time>2012-06-11T08:47:06Z</time>
      </trkpt>
      <trkpt lat="44.56881" lon="2.66141">
        <ele>380</ele>
        <time>2012-06-11T08:47:09Z</time>
      </trkpt>
      <trkpt lat="44.56879" lon="2.66137">
        <ele>380</ele>
        <time>2012-06-11T08:47:15Z</time>
      </trkpt>
      <trkpt lat="44.56881" lon="2.66138">
        <ele>380</ele>
        <time>2012-06-11T08:47:18Z</time>
      </trkpt>
      <trkpt lat="44.5688" lon="2.66135">
        <ele>380</ele>
        <time>2012-06-11T08:47:23Z</time>
      </trkpt>
      <trkpt lat="44.5688" lon="2.66132">
        <ele>380</ele>
        <time>2012-06-11T08:47:25Z</time>
      </trkpt>
      <trkpt lat="44.56878" lon="2.6613">
        <ele>380</ele>
        <time>2012-06-11T08:47:26Z</time>
      </trkpt>
      <trkpt lat="44.56876" lon="2.66127">
        <ele>380</ele>
        <time>2012-06-11T08:47:27Z</time>
      </trkpt>
      <trkpt lat="44.56876" lon="2.66125">
        <ele>380</ele>
        <time>2012-06-11T08:47:29Z</time>
      </trkpt>
      <trkpt lat="44.56874" lon="2.66126">
        <ele>380</ele>
        <time>2012-06-11T08:47:32Z</time>
      </trkpt>
      <trkpt lat="44.56873" lon="2.66125">
        <ele>380</ele>
        <time>2012-06-11T08:47:36Z</time>
      </trkpt>
      <trkpt lat="44.56872" lon="2.66124">
        <ele>380</ele>
        <time>2012-06-11T08:47:39Z</time>
      </trkpt>
      <trkpt lat="44.56871" lon="2.66123">
        <ele>380</ele>
        <time>2012-06-11T08:47:41Z</time>
      </trkpt>
      <trkpt lat="44.56869" lon="2.66122">
        <ele>380</ele>
        <time>2012-06-11T08:47:43Z</time>
      </trkpt>
      <trkpt lat="44.56868" lon="2.6612">
        <ele>383</ele>
        <time>2012-06-11T08:47:47Z</time>
      </trkpt>
      <trkpt lat="44.56866" lon="2.66119">
        <ele>386</ele>
        <time>2012-06-11T08:47:53Z</time>
      </trkpt>
      <trkpt lat="44.56865" lon="2.66118">
        <ele>387</ele>
        <time>2012-06-11T08:47:55Z</time>
      </trkpt>
      <trkpt lat="44.56866" lon="2.66119">
        <ele>389</ele>
        <time>2012-06-11T08:48:05Z</time>
      </trkpt>
      <trkpt lat="44.56868" lon="2.66119">
        <ele>389</ele>
        <time>2012-06-11T08:48:10Z</time>
      </trkpt>
      <trkpt lat="44.56869" lon="2.6612">
        <ele>389</ele>
        <time>2012-06-11T08:48:15Z</time>
      </trkpt>
      <trkpt lat="44.5687" lon="2.6612">
        <ele>389</ele>
        <time>2012-06-11T08:48:19Z</time>
      </trkpt>
      <trkpt lat="44.56872" lon="2.66119">
        <ele>388</ele>
        <time>2012-06-11T08:48:34Z</time>
      </trkpt>
      <trkpt lat="44.56872" lon="2.66114">
        <ele>386</ele>
        <time>2012-06-11T08:48:38Z</time>
      </trkpt>
      <trkpt lat="44.56873" lon="2.66112">
        <ele>385</ele>
        <time>2012-06-11T08:48:40Z</time>
      </trkpt>
      <trkpt lat="44.56873" lon="2.6611">
        <ele>384</ele>
        <time>2012-06-11T08:48:42Z</time>
      </trkpt>
      <trkpt lat="44.56874" lon="2.66103">
        <ele>381</ele>
        <time>2012-06-11T08:48:47Z</time>
      </trkpt>
      <trkpt lat="44.56874" lon="2.66099">
        <ele>380</ele>
        <time>2012-06-11T08:48:49Z</time>
      </trkpt>
      <trkpt lat="44.56874" lon="2.66096">
        <ele>379</ele>
        <time>2012-06-11T08:48:51Z</time>
      </trkpt>
      <trkpt lat="44.56874" lon="2.66095">
        <ele>378</ele>
        <time>2012-06-11T08:48:52Z</time>
      </trkpt>
      <trkpt lat="44.56874" lon="2.66093">
        <ele>378</ele>
        <time>2012-06-11T08:48:53Z</time>
      </trkpt>
      <trkpt lat="44.56874" lon="2.66091">
        <ele>378</ele>
        <time>2012-06-11T08:48:54Z</time>
      </trkpt>
      <trkpt lat="44.56873" lon="2.66087">
        <ele>378</ele>
        <time>2012-06-11T08:48:56Z</time>
      </trkpt>
      <trkpt lat="44.56872" lon="2.6608">
        <ele>378</ele>
        <time>2012-06-11T08:49:00Z</time>
      </trkpt>
      <trkpt lat="44.56871" lon="2.66078">
        <ele>378</ele>
        <time>2012-06-11T08:49:01Z</time>
      </trkpt>
      <trkpt lat="44.56871" lon="2.66077">
        <ele>378</ele>
        <time>2012-06-11T08:49:02Z</time>
      </trkpt>
      <trkpt lat="44.56871" lon="2.66075">
        <ele>378</ele>
        <time>2012-06-11T08:49:03Z</time>
      </trkpt>
      <trkpt lat="44.56871" lon="2.66069">
        <ele>378</ele>
        <time>2012-06-11T08:49:06Z</time>
      </trkpt>
      <trkpt lat="44.56871" lon="2.66063">
        <ele>378</ele>
        <time>2012-06-11T08:49:09Z</time>
      </trkpt>
      <trkpt lat="44.5687" lon="2.66061">
        <ele>378</ele>
        <time>2012-06-11T08:49:10Z</time>
      </trkpt>
      <trkpt lat="44.5687" lon="2.66058">
        <ele>378</ele>
        <time>2012-06-11T08:49:11Z</time>
      </trkpt>
      <trkpt lat="44.5687" lon="2.66054">
        <ele>378</ele>
        <time>2012-06-11T08:49:13Z</time>
      </trkpt>
      <trkpt lat="44.56869" lon="2.66053">
        <ele>378</ele>
        <time>2012-06-11T08:49:14Z</time>
      </trkpt>
      <trkpt lat="44.56868" lon="2.6605">
        <ele>378</ele>
        <time>2012-06-11T08:49:16Z</time>
      </trkpt>
      <trkpt lat="44.56867" lon="2.66046">
        <ele>379</ele>
        <time>2012-06-11T08:49:18Z</time>
      </trkpt>
      <trkpt lat="44.56867" lon="2.66044">
        <ele>379</ele>
        <time>2012-06-11T08:49:19Z</time>
      </trkpt>
      <trkpt lat="44.56867" lon="2.66036">
        <ele>380</ele>
        <time>2012-06-11T08:49:23Z</time>
      </trkpt>
      <trkpt lat="44.56866" lon="2.66032">
        <ele>381</ele>
        <time>2012-06-11T08:49:26Z</time>
      </trkpt>
      <trkpt lat="44.56865" lon="2.66028">
        <ele>382</ele>
        <time>2012-06-11T08:49:29Z</time>
      </trkpt>
      <trkpt lat="44.56866" lon="2.66025">
        <ele>382</ele>
        <time>2012-06-11T08:49:31Z</time>
      </trkpt>
      <trkpt lat="44.56866" lon="2.66022">
        <ele>383</ele>
        <time>2012-06-11T08:49:33Z</time>
      </trkpt>
      <trkpt lat="44.56866" lon="2.66018">
        <ele>383</ele>
        <time>2012-06-11T08:49:35Z</time>
      </trkpt>
      <trkpt lat="44.56867" lon="2.66012">
        <ele>383</ele>
        <time>2012-06-11T08:49:38Z</time>
      </trkpt>
      <trkpt lat="44.56866" lon="2.6601">
        <ele>383</ele>
        <time>2012-06-11T08:49:40Z</time>
      </trkpt>
      <trkpt lat="44.56865" lon="2.66008">
        <ele>383</ele>
        <time>2012-06-11T08:49:41Z</time>
      </trkpt>
      <trkpt lat="44.56863" lon="2.66006">
        <ele>383</ele>
        <time>2012-06-11T08:49:42Z</time>
      </trkpt>
      <trkpt lat="44.56862" lon="2.66003">
        <ele>383</ele>
        <time>2012-06-11T08:49:43Z</time>
      </trkpt>
      <trkpt lat="44.56861" lon="2.66001">
        <ele>383</ele>
        <time>2012-06-11T08:49:45Z</time>
      </trkpt>
      <trkpt lat="44.5686" lon="2.65999">
        <ele>383</ele>
        <time>2012-06-11T08:49:46Z</time>
      </trkpt>
      <trkpt lat="44.5686" lon="2.65994">
        <ele>383</ele>
        <time>2012-06-11T08:49:48Z</time>
      </trkpt>
      <trkpt lat="44.56859" lon="2.65992">
        <ele>383</ele>
        <time>2012-06-11T08:49:49Z</time>
      </trkpt>
      <trkpt lat="44.56858" lon="2.6599">
        <ele>383</ele>
        <time>2012-06-11T08:49:50Z</time>
      </trkpt>
      <trkpt lat="44.56857" lon="2.65988">
        <ele>383</ele>
        <time>2012-06-11T08:49:51Z</time>
      </trkpt>
      <trkpt lat="44.56855" lon="2.65984">
        <ele>383</ele>
        <time>2012-06-11T08:49:53Z</time>
      </trkpt>
      <trkpt lat="44.56854" lon="2.65983">
        <ele>383</ele>
        <time>2012-06-11T08:49:54Z</time>
      </trkpt>
      <trkpt lat="44.56852" lon="2.6598">
        <ele>383</ele>
        <time>2012-06-11T08:49:56Z</time>
      </trkpt>
      <trkpt lat="44.56852" lon="2.65978">
        <ele>383</ele>
        <time>2012-06-11T08:49:57Z</time>
      </trkpt>
      <trkpt lat="44.56849" lon="2.65975">
        <ele>383</ele>
        <time>2012-06-11T08:49:58Z</time>
      </trkpt>
      <trkpt lat="44.56848" lon="2.65974">
        <ele>383</ele>
        <time>2012-06-11T08:49:59Z</time>
      </trkpt>
      <trkpt lat="44.56848" lon="2.65971">
        <ele>383</ele>
        <time>2012-06-11T08:50:00Z</time>
      </trkpt>
      <trkpt lat="44.56847" lon="2.65969">
        <ele>383</ele>
        <time>2012-06-11T08:50:02Z</time>
      </trkpt>
      <trkpt lat="44.56845" lon="2.65968">
        <ele>383</ele>
        <time>2012-06-11T08:50:03Z</time>
      </trkpt>
      <trkpt lat="44.56844" lon="2.65965">
        <ele>382</ele>
        <time>2012-06-11T08:50:08Z</time>
      </trkpt>
      <trkpt lat="44.56842" lon="2.65962">
        <ele>381</ele>
        <time>2012-06-11T08:50:10Z</time>
      </trkpt>
      <trkpt lat="44.56841" lon="2.6596">
        <ele>381</ele>
        <time>2012-06-11T08:50:11Z</time>
      </trkpt>
      <trkpt lat="44.56839" lon="2.65958">
        <ele>381</ele>
        <time>2012-06-11T08:50:14Z</time>
      </trkpt>
      <trkpt lat="44.56837" lon="2.65957">
        <ele>380</ele>
        <time>2012-06-11T08:50:16Z</time>
      </trkpt>
      <trkpt lat="44.56835" lon="2.65955">
        <ele>379</ele>
        <time>2012-06-11T08:50:18Z</time>
      </trkpt>
      <trkpt lat="44.56834" lon="2.65953">
        <ele>378</ele>
        <time>2012-06-11T08:50:20Z</time>
      </trkpt>
      <trkpt lat="44.56832" lon="2.65951">
        <ele>378</ele>
        <time>2012-06-11T08:50:22Z</time>
      </trkpt>
      <trkpt lat="44.5683" lon="2.65949">
        <ele>378</ele>
        <time>2012-06-11T08:50:24Z</time>
      </trkpt>
      <trkpt lat="44.56829" lon="2.65948">
        <ele>378</ele>
        <time>2012-06-11T08:50:25Z</time>
      </trkpt>
      <trkpt lat="44.56829" lon="2.65943">
        <ele>377</ele>
        <time>2012-06-11T08:50:28Z</time>
      </trkpt>
      <trkpt lat="44.56826" lon="2.6594">
        <ele>377</ele>
        <time>2012-06-11T08:50:30Z</time>
      </trkpt>
      <trkpt lat="44.56825" lon="2.65939">
        <ele>377</ele>
        <time>2012-06-11T08:50:31Z</time>
      </trkpt>
      <trkpt lat="44.56824" lon="2.65939">
        <ele>377</ele>
        <time>2012-06-11T08:50:32Z</time>
      </trkpt>
      <trkpt lat="44.56822" lon="2.65936">
        <ele>377</ele>
        <time>2012-06-11T08:50:34Z</time>
      </trkpt>
      <trkpt lat="44.56821" lon="2.65934">
        <ele>377</ele>
        <time>2012-06-11T08:50:35Z</time>
      </trkpt>
      <trkpt lat="44.56821" lon="2.65933">
        <ele>377</ele>
        <time>2012-06-11T08:50:36Z</time>
      </trkpt>
      <trkpt lat="44.56821" lon="2.65931">
        <ele>377</ele>
        <time>2012-06-11T08:50:37Z</time>
      </trkpt>
      <trkpt lat="44.56818" lon="2.65929">
        <ele>377</ele>
        <time>2012-06-11T08:50:39Z</time>
      </trkpt>
      <trkpt lat="44.56818" lon="2.65927">
        <ele>377</ele>
        <time>2012-06-11T08:50:40Z</time>
      </trkpt>
      <trkpt lat="44.56816" lon="2.65925">
        <ele>377</ele>
        <time>2012-06-11T08:50:41Z</time>
      </trkpt>
      <trkpt lat="44.56815" lon="2.65924">
        <ele>377</ele>
        <time>2012-06-11T08:50:43Z</time>
      </trkpt>
      <trkpt lat="44.56814" lon="2.65922">
        <ele>377</ele>
        <time>2012-06-11T08:50:44Z</time>
      </trkpt>
      <trkpt lat="44.56811" lon="2.6592">
        <ele>376</ele>
        <time>2012-06-11T08:50:46Z</time>
      </trkpt>
      <trkpt lat="44.56809" lon="2.65918">
        <ele>375</ele>
        <time>2012-06-11T08:50:48Z</time>
      </trkpt>
      <trkpt lat="44.56808" lon="2.65916">
        <ele>375</ele>
        <time>2012-06-11T08:50:49Z</time>
      </trkpt>
      <trkpt lat="44.56807" lon="2.65915">
        <ele>375</ele>
        <time>2012-06-11T08:50:50Z</time>
      </trkpt>
      <trkpt lat="44.56806" lon="2.65914">
        <ele>375</ele>
        <time>2012-06-11T08:50:51Z</time>
      </trkpt>
      <trkpt lat="44.56804" lon="2.65913">
        <ele>375</ele>
        <time>2012-06-11T08:50:52Z</time>
      </trkpt>
      <trkpt lat="44.56803" lon="2.65911">
        <ele>375</ele>
        <time>2012-06-11T08:50:53Z</time>
      </trkpt>
      <trkpt lat="44.56801" lon="2.65909">
        <ele>374</ele>
        <time>2012-06-11T08:50:55Z</time>
      </trkpt>
      <trkpt lat="44.568" lon="2.65909">
        <ele>374</ele>
        <time>2012-06-11T08:50:56Z</time>
      </trkpt>
      <trkpt lat="44.56798" lon="2.65907">
        <ele>372</ele>
        <time>2012-06-11T08:50:58Z</time>
      </trkpt>
      <trkpt lat="44.56796" lon="2.65906">
        <ele>372</ele>
        <time>2012-06-11T08:50:59Z</time>
      </trkpt>
      <trkpt lat="44.56794" lon="2.65905">
        <ele>372</ele>
        <time>2012-06-11T08:51:00Z</time>
      </trkpt>
      <trkpt lat="44.56793" lon="2.65904">
        <ele>372</ele>
        <time>2012-06-11T08:51:01Z</time>
      </trkpt>
      <trkpt lat="44.56791" lon="2.65903">
        <ele>372</ele>
        <time>2012-06-11T08:51:02Z</time>
      </trkpt>
      <trkpt lat="44.56789" lon="2.65902">
        <ele>372</ele>
        <time>2012-06-11T08:51:04Z</time>
      </trkpt>
      <trkpt lat="44.56787" lon="2.65902">
        <ele>372</ele>
        <time>2012-06-11T08:51:05Z</time>
      </trkpt>
      <trkpt lat="44.56786" lon="2.65901">
        <ele>372</ele>
        <time>2012-06-11T08:51:06Z</time>
      </trkpt>
      <trkpt lat="44.56784" lon="2.659">
        <ele>372</ele>
        <time>2012-06-11T08:51:07Z</time>
      </trkpt>
      <trkpt lat="44.56782" lon="2.65899">
        <ele>372</ele>
        <time>2012-06-11T08:51:09Z</time>
      </trkpt>
      <trkpt lat="44.56781" lon="2.65898">
        <ele>372</ele>
        <time>2012-06-11T08:51:10Z</time>
      </trkpt>
      <trkpt lat="44.56779" lon="2.65897">
        <ele>372</ele>
        <time>2012-06-11T08:51:11Z</time>
      </trkpt>
      <trkpt lat="44.56778" lon="2.65895">
        <ele>372</ele>
        <time>2012-06-11T08:51:12Z</time>
      </trkpt>
      <trkpt lat="44.56776" lon="2.65895">
        <ele>372</ele>
        <time>2012-06-11T08:51:13Z</time>
      </trkpt>
      <trkpt lat="44.56775" lon="2.65894">
        <ele>372</ele>
        <time>2012-06-11T08:51:14Z</time>
      </trkpt>
      <trkpt lat="44.56773" lon="2.65894">
        <ele>372</ele>
        <time>2012-06-11T08:51:15Z</time>
      </trkpt>
      <trkpt lat="44.56772" lon="2.65894">
        <ele>372</ele>
        <time>2012-06-11T08:51:16Z</time>
      </trkpt>
      <trkpt lat="44.56771" lon="2.65895">
        <ele>372</ele>
        <time>2012-06-11T08:51:17Z</time>
      </trkpt>
      <trkpt lat="44.56769" lon="2.65893">
        <ele>372</ele>
        <time>2012-06-11T08:51:18Z</time>
      </trkpt>
      <trkpt lat="44.56768" lon="2.65891">
        <ele>372</ele>
        <time>2012-06-11T08:51:20Z</time>
      </trkpt>
      <trkpt lat="44.56766" lon="2.6589">
        <ele>372</ele>
        <time>2012-06-11T08:51:22Z</time>
      </trkpt>
      <trkpt lat="44.56765" lon="2.6589">
        <ele>371</ele>
        <time>2012-06-11T08:51:23Z</time>
      </trkpt>
      <trkpt lat="44.56764" lon="2.65891">
        <ele>371</ele>
        <time>2012-06-11T08:51:24Z</time>
      </trkpt>
      <trkpt lat="44.56762" lon="2.65891">
        <ele>370</ele>
        <time>2012-06-11T08:51:25Z</time>
      </trkpt>
      <trkpt lat="44.56761" lon="2.65891">
        <ele>370</ele>
        <time>2012-06-11T08:51:26Z</time>
      </trkpt>
      <trkpt lat="44.56759" lon="2.6589">
        <ele>370</ele>
        <time>2012-06-11T08:51:27Z</time>
      </trkpt>
      <trkpt lat="44.56758" lon="2.65889">
        <ele>370</ele>
        <time>2012-06-11T08:51:28Z</time>
      </trkpt>
      <trkpt lat="44.56757" lon="2.65889">
        <ele>370</ele>
        <time>2012-06-11T08:51:29Z</time>
      </trkpt>
      <trkpt lat="44.56756" lon="2.65887">
        <ele>370</ele>
        <time>2012-06-11T08:51:30Z</time>
      </trkpt>
      <trkpt lat="44.56754" lon="2.65885">
        <ele>370</ele>
        <time>2012-06-11T08:51:32Z</time>
      </trkpt>
      <trkpt lat="44.56752" lon="2.65883">
        <ele>369</ele>
        <time>2012-06-11T08:51:34Z</time>
      </trkpt>
      <trkpt lat="44.56751" lon="2.65883">
        <ele>368</ele>
        <time>2012-06-11T08:51:36Z</time>
      </trkpt>
      <trkpt lat="44.56749" lon="2.65882">
        <ele>367</ele>
        <time>2012-06-11T08:51:38Z</time>
      </trkpt>
      <trkpt lat="44.56748" lon="2.65881">
        <ele>366</ele>
        <time>2012-06-11T08:51:39Z</time>
      </trkpt>
      <trkpt lat="44.56746" lon="2.6588">
        <ele>364</ele>
        <time>2012-06-11T08:51:41Z</time>
      </trkpt>
      <trkpt lat="44.56744" lon="2.6588">
        <ele>363</ele>
        <time>2012-06-11T08:51:42Z</time>
      </trkpt>
      <trkpt lat="44.56743" lon="2.65879">
        <ele>363</ele>
        <time>2012-06-11T08:51:43Z</time>
      </trkpt>
      <trkpt lat="44.56742" lon="2.65878">
        <ele>362</ele>
        <time>2012-06-11T08:51:44Z</time>
      </trkpt>
      <trkpt lat="44.5674" lon="2.65876">
        <ele>362</ele>
        <time>2012-06-11T08:51:46Z</time>
      </trkpt>
      <trkpt lat="44.56738" lon="2.65875">
        <ele>362</ele>
        <time>2012-06-11T08:51:47Z</time>
      </trkpt>
      <trkpt lat="44.56737" lon="2.65874">
        <ele>362</ele>
        <time>2012-06-11T08:51:48Z</time>
      </trkpt>
      <trkpt lat="44.56735" lon="2.65874">
        <ele>362</ele>
        <time>2012-06-11T08:51:49Z</time>
      </trkpt>
      <trkpt lat="44.56733" lon="2.65873">
        <ele>362</ele>
        <time>2012-06-11T08:51:50Z</time>
      </trkpt>
      <trkpt lat="44.56732" lon="2.65872">
        <ele>362</ele>
        <time>2012-06-11T08:51:51Z</time>
      </trkpt>
      <trkpt lat="44.5673" lon="2.6587">
        <ele>362</ele>
        <time>2012-06-11T08:51:53Z</time>
      </trkpt>
      <trkpt lat="44.56729" lon="2.65869">
        <ele>362</ele>
        <time>2012-06-11T08:51:54Z</time>
      </trkpt>
      <trkpt lat="44.56728" lon="2.65868">
        <ele>362</ele>
        <time>2012-06-11T08:51:55Z</time>
      </trkpt>
      <trkpt lat="44.56727" lon="2.65868">
        <ele>362</ele>
        <time>2012-06-11T08:51:56Z</time>
      </trkpt>
      <trkpt lat="44.56725" lon="2.65866">
        <ele>361</ele>
        <time>2012-06-11T08:51:58Z</time>
      </trkpt>
      <trkpt lat="44.56723" lon="2.65865">
        <ele>361</ele>
        <time>2012-06-11T08:51:59Z</time>
      </trkpt>
      <trkpt lat="44.56722" lon="2.65863">
        <ele>361</ele>
        <time>2012-06-11T08:52:00Z</time>
      </trkpt>
      <trkpt lat="44.56721" lon="2.65862">
        <ele>360</ele>
        <time>2012-06-11T08:52:01Z</time>
      </trkpt>
      <trkpt lat="44.56719" lon="2.65861">
        <ele>360</ele>
        <time>2012-06-11T08:52:02Z</time>
      </trkpt>
      <trkpt lat="44.56718" lon="2.65859">
        <ele>360</ele>
        <time>2012-06-11T08:52:03Z</time>
      </trkpt>
      <trkpt lat="44.56716" lon="2.65857">
        <ele>359</ele>
        <time>2012-06-11T08:52:05Z</time>
      </trkpt>
      <trkpt lat="44.56713" lon="2.65855">
        <ele>359</ele>
        <time>2012-06-11T08:52:07Z</time>
      </trkpt>
      <trkpt lat="44.56712" lon="2.65853">
        <ele>359</ele>
        <time>2012-06-11T08:52:09Z</time>
      </trkpt>
      <trkpt lat="44.5671" lon="2.6585">
        <ele>358</ele>
        <time>2012-06-11T08:52:11Z</time>
      </trkpt>
      <trkpt lat="44.56709" lon="2.65847">
        <ele>357</ele>
        <time>2012-06-11T08:52:13Z</time>
      </trkpt>
      <trkpt lat="44.56708" lon="2.65846">
        <ele>357</ele>
        <time>2012-06-11T08:52:14Z</time>
      </trkpt>
      <trkpt lat="44.56707" lon="2.65844">
        <ele>356</ele>
        <time>2012-06-11T08:52:15Z</time>
      </trkpt>
      <trkpt lat="44.56706" lon="2.65843">
        <ele>356</ele>
        <time>2012-06-11T08:52:16Z</time>
      </trkpt>
      <trkpt lat="44.56705" lon="2.65841">
        <ele>356</ele>
        <time>2012-06-11T08:52:17Z</time>
      </trkpt>
      <trkpt lat="44.56704" lon="2.65838">
        <ele>356</ele>
        <time>2012-06-11T08:52:19Z</time>
      </trkpt>
      <trkpt lat="44.56703" lon="2.65836">
        <ele>355</ele>
        <time>2012-06-11T08:52:21Z</time>
      </trkpt>
      <trkpt lat="44.56702" lon="2.65833">
        <ele>355</ele>
        <time>2012-06-11T08:52:23Z</time>
      </trkpt>
      <trkpt lat="44.56703" lon="2.65831">
        <ele>355</ele>
        <time>2012-06-11T08:52:24Z</time>
      </trkpt>
      <trkpt lat="44.56703" lon="2.65829">
        <ele>355</ele>
        <time>2012-06-11T08:52:25Z</time>
      </trkpt>
      <trkpt lat="44.56702" lon="2.65824">
        <ele>355</ele>
        <time>2012-06-11T08:52:28Z</time>
      </trkpt>
      <trkpt lat="44.56702" lon="2.65821">
        <ele>355</ele>
        <time>2012-06-11T08:52:30Z</time>
      </trkpt>
      <trkpt lat="44.56701" lon="2.6582">
        <ele>355</ele>
        <time>2012-06-11T08:52:32Z</time>
      </trkpt>
      <trkpt lat="44.56701" lon="2.65815">
        <ele>355</ele>
        <time>2012-06-11T08:52:35Z</time>
      </trkpt>
      <trkpt lat="44.56701" lon="2.65808">
        <ele>355</ele>
        <time>2012-06-11T08:52:39Z</time>
      </trkpt>
      <trkpt lat="44.56701" lon="2.65802">
        <ele>355</ele>
        <time>2012-06-11T08:52:42Z</time>
      </trkpt>
      <trkpt lat="44.567" lon="2.658">
        <ele>355</ele>
        <time>2012-06-11T08:52:44Z</time>
      </trkpt>
      <trkpt lat="44.567" lon="2.65798">
        <ele>355</ele>
        <time>2012-06-11T08:52:45Z</time>
      </trkpt>
      <trkpt lat="44.56699" lon="2.65796">
        <ele>355</ele>
        <time>2012-06-11T08:52:46Z</time>
      </trkpt>
      <trkpt lat="44.567" lon="2.65783">
        <ele>355</ele>
        <time>2012-06-11T08:52:53Z</time>
      </trkpt>
      <trkpt lat="44.56699" lon="2.65779">
        <ele>355</ele>
        <time>2012-06-11T08:52:55Z</time>
      </trkpt>
      <trkpt lat="44.567" lon="2.65777">
        <ele>355</ele>
        <time>2012-06-11T08:52:56Z</time>
      </trkpt>
      <trkpt lat="44.56699" lon="2.65775">
        <ele>355</ele>
        <time>2012-06-11T08:52:57Z</time>
      </trkpt>
      <trkpt lat="44.567" lon="2.65755">
        <ele>355</ele>
        <time>2012-06-11T08:53:08Z</time>
      </trkpt>
      <trkpt lat="44.56699" lon="2.65748">
        <ele>355</ele>
        <time>2012-06-11T08:53:13Z</time>
      </trkpt>
      <trkpt lat="44.567" lon="2.65742">
        <ele>355</ele>
        <time>2012-06-11T08:53:17Z</time>
      </trkpt>
      <trkpt lat="44.56699" lon="2.65733">
        <ele>354</ele>
        <time>2012-06-11T08:53:24Z</time>
      </trkpt>
      <trkpt lat="44.56699" lon="2.65732">
        <ele>354</ele>
        <time>2012-06-11T08:53:43Z</time>
      </trkpt>
      <trkpt lat="44.56698" lon="2.6573">
        <ele>354</ele>
        <time>2012-06-11T08:53:58Z</time>
      </trkpt>
      <trkpt lat="44.56699" lon="2.65729">
        <ele>354</ele>
        <time>2012-06-11T08:54:00Z</time>
      </trkpt>
      <trkpt lat="44.56702" lon="2.65725">
        <ele>354</ele>
        <time>2012-06-11T08:54:02Z</time>
      </trkpt>
      <trkpt lat="44.56703" lon="2.65724">
        <ele>354</ele>
        <time>2012-06-11T08:54:03Z</time>
      </trkpt>
      <trkpt lat="44.56704" lon="2.65722">
        <ele>354</ele>
        <time>2012-06-11T08:54:04Z</time>
      </trkpt>
      <trkpt lat="44.56705" lon="2.65721">
        <ele>354</ele>
        <time>2012-06-11T08:54:05Z</time>
      </trkpt>
      <trkpt lat="44.56706" lon="2.65719">
        <ele>354</ele>
        <time>2012-06-11T08:54:06Z</time>
      </trkpt>
      <trkpt lat="44.56707" lon="2.65716">
        <ele>354</ele>
        <time>2012-06-11T08:54:08Z</time>
      </trkpt>
      <trkpt lat="44.56709" lon="2.65714">
        <ele>354</ele>
        <time>2012-06-11T08:54:09Z</time>
      </trkpt>
      <trkpt lat="44.56711" lon="2.65712">
        <ele>354</ele>
        <time>2012-06-11T08:54:11Z</time>
      </trkpt>
      <trkpt lat="44.56712" lon="2.6571">
        <ele>354</ele>
        <time>2012-06-11T08:54:13Z</time>
      </trkpt>
      <trkpt lat="44.56714" lon="2.65708">
        <ele>354</ele>
        <time>2012-06-11T08:54:15Z</time>
      </trkpt>
      <trkpt lat="44.56715" lon="2.65706">
        <ele>355</ele>
        <time>2012-06-11T08:54:17Z</time>
      </trkpt>
      <trkpt lat="44.56717" lon="2.65705">
        <ele>355</ele>
        <time>2012-06-11T08:54:18Z</time>
      </trkpt>
      <trkpt lat="44.56719" lon="2.65703">
        <ele>356</ele>
        <time>2012-06-11T08:54:20Z</time>
      </trkpt>
      <trkpt lat="44.5672" lon="2.65702">
        <ele>356</ele>
        <time>2012-06-11T08:54:21Z</time>
      </trkpt>
      <trkpt lat="44.56722" lon="2.65701">
        <ele>356</ele>
        <time>2012-06-11T08:54:22Z</time>
      </trkpt>
      <trkpt lat="44.56723" lon="2.65699">
        <ele>356</ele>
        <time>2012-06-11T08:54:24Z</time>
      </trkpt>
      <trkpt lat="44.56725" lon="2.65697">
        <ele>356</ele>
        <time>2012-06-11T08:54:26Z</time>
      </trkpt>
      <trkpt lat="44.56726" lon="2.65695">
        <ele>356</ele>
        <time>2012-06-11T08:54:27Z</time>
      </trkpt>
      <trkpt lat="44.56728" lon="2.65693">
        <ele>356</ele>
        <time>2012-06-11T08:54:29Z</time>
      </trkpt>
      <trkpt lat="44.5673" lon="2.6569">
        <ele>356</ele>
        <time>2012-06-11T08:54:31Z</time>
      </trkpt>
      <trkpt lat="44.56731" lon="2.6569">
        <ele>357</ele>
        <time>2012-06-11T08:54:32Z</time>
      </trkpt>
      <trkpt lat="44.56733" lon="2.65688">
        <ele>357</ele>
        <time>2012-06-11T08:54:34Z</time>
      </trkpt>
      <trkpt lat="44.56734" lon="2.65686">
        <ele>357</ele>
        <time>2012-06-11T08:54:36Z</time>
      </trkpt>
      <trkpt lat="44.56736" lon="2.65685">
        <ele>357</ele>
        <time>2012-06-11T08:54:38Z</time>
      </trkpt>
      <trkpt lat="44.56738" lon="2.65683">
        <ele>357</ele>
        <time>2012-06-11T08:54:39Z</time>
      </trkpt>
      <trkpt lat="44.56739" lon="2.65681">
        <ele>357</ele>
        <time>2012-06-11T08:54:41Z</time>
      </trkpt>
      <trkpt lat="44.56741" lon="2.65679">
        <ele>357</ele>
        <time>2012-06-11T08:54:43Z</time>
      </trkpt>
      <trkpt lat="44.56742" lon="2.65677">
        <ele>358</ele>
        <time>2012-06-11T08:54:45Z</time>
      </trkpt>
      <trkpt lat="44.56742" lon="2.65675">
        <ele>358</ele>
        <time>2012-06-11T08:54:47Z</time>
      </trkpt>
      <trkpt lat="44.56743" lon="2.65673">
        <ele>358</ele>
        <time>2012-06-11T08:54:49Z</time>
      </trkpt>
      <trkpt lat="44.56744" lon="2.65671">
        <ele>358</ele>
        <time>2012-06-11T08:54:50Z</time>
      </trkpt>
      <trkpt lat="44.56745" lon="2.65669">
        <ele>358</ele>
        <time>2012-06-11T08:54:52Z</time>
      </trkpt>
      <trkpt lat="44.56746" lon="2.65667">
        <ele>359</ele>
        <time>2012-06-11T08:54:54Z</time>
      </trkpt>
      <trkpt lat="44.56747" lon="2.65665">
        <ele>359</ele>
        <time>2012-06-11T08:54:56Z</time>
      </trkpt>
      <trkpt lat="44.56747" lon="2.65663">
        <ele>360</ele>
        <time>2012-06-11T08:54:57Z</time>
      </trkpt>
      <trkpt lat="44.56749" lon="2.65661">
        <ele>360</ele>
        <time>2012-06-11T08:54:59Z</time>
      </trkpt>
      <trkpt lat="44.56749" lon="2.6566">
        <ele>360</ele>
        <time>2012-06-11T08:55:00Z</time>
      </trkpt>
      <trkpt lat="44.5675" lon="2.65658">
        <ele>360</ele>
        <time>2012-06-11T08:55:01Z</time>
      </trkpt>
      <trkpt lat="44.56751" lon="2.65656">
        <ele>360</ele>
        <time>2012-06-11T08:55:02Z</time>
      </trkpt>
      <trkpt lat="44.56752" lon="2.65654">
        <ele>360</ele>
        <time>2012-06-11T08:55:03Z</time>
      </trkpt>
      <trkpt lat="44.56753" lon="2.65653">
        <ele>360</ele>
        <time>2012-06-11T08:55:04Z</time>
      </trkpt>
      <trkpt lat="44.56754" lon="2.65651">
        <ele>360</ele>
        <time>2012-06-11T08:55:05Z</time>
      </trkpt>
      <trkpt lat="44.56755" lon="2.6565">
        <ele>360</ele>
        <time>2012-06-11T08:55:06Z</time>
      </trkpt>
      <trkpt lat="44.56757" lon="2.65647">
        <ele>361</ele>
        <time>2012-06-11T08:55:08Z</time>
      </trkpt>
      <trkpt lat="44.56758" lon="2.65645">
        <ele>361</ele>
        <time>2012-06-11T08:55:09Z</time>
      </trkpt>
      <trkpt lat="44.56759" lon="2.65644">
        <ele>361</ele>
        <time>2012-06-11T08:55:10Z</time>
      </trkpt>
      <trkpt lat="44.5676" lon="2.65642">
        <ele>361</ele>
        <time>2012-06-11T08:55:11Z</time>
      </trkpt>
      <trkpt lat="44.56761" lon="2.65639">
        <ele>361</ele>
        <time>2012-06-11T08:55:13Z</time>
      </trkpt>
      <trkpt lat="44.56762" lon="2.65637">
        <ele>361</ele>
        <time>2012-06-11T08:55:14Z</time>
      </trkpt>
      <trkpt lat="44.56763" lon="2.65635">
        <ele>361</ele>
        <time>2012-06-11T08:55:15Z</time>
      </trkpt>
      <trkpt lat="44.56763" lon="2.65634">
        <ele>361</ele>
        <time>2012-06-11T08:55:16Z</time>
      </trkpt>
      <trkpt lat="44.56764" lon="2.65632">
        <ele>361</ele>
        <time>2012-06-11T08:55:17Z</time>
      </trkpt>
      <trkpt lat="44.56765" lon="2.65631">
        <ele>361</ele>
        <time>2012-06-11T08:55:18Z</time>
      </trkpt>
      <trkpt lat="44.56765" lon="2.65629">
        <ele>361</ele>
        <time>2012-06-11T08:55:19Z</time>
      </trkpt>
      <trkpt lat="44.56767" lon="2.65627">
        <ele>361</ele>
        <time>2012-06-11T08:55:20Z</time>
      </trkpt>
      <trkpt lat="44.56768" lon="2.65625">
        <ele>361</ele>
        <time>2012-06-11T08:55:21Z</time>
      </trkpt>
      <trkpt lat="44.5677" lon="2.65622">
        <ele>361</ele>
        <time>2012-06-11T08:55:23Z</time>
      </trkpt>
      <trkpt lat="44.56771" lon="2.65619">
        <ele>361</ele>
        <time>2012-06-11T08:55:25Z</time>
      </trkpt>
      <trkpt lat="44.56772" lon="2.65619">
        <ele>361</ele>
        <time>2012-06-11T08:55:26Z</time>
      </trkpt>
      <trkpt lat="44.56773" lon="2.65617">
        <ele>361</ele>
        <time>2012-06-11T08:55:27Z</time>
      </trkpt>
      <trkpt lat="44.56774" lon="2.65616">
        <ele>361</ele>
        <time>2012-06-11T08:55:28Z</time>
      </trkpt>
      <trkpt lat="44.56776" lon="2.65613">
        <ele>361</ele>
        <time>2012-06-11T08:55:30Z</time>
      </trkpt>
      <trkpt lat="44.56777" lon="2.65611">
        <ele>361</ele>
        <time>2012-06-11T08:55:32Z</time>
      </trkpt>
      <trkpt lat="44.56779" lon="2.65609">
        <ele>361</ele>
        <time>2012-06-11T08:55:34Z</time>
      </trkpt>
      <trkpt lat="44.56781" lon="2.65607">
        <ele>361</ele>
        <time>2012-06-11T08:55:36Z</time>
      </trkpt>
      <trkpt lat="44.56783" lon="2.65605">
        <ele>361</ele>
        <time>2012-06-11T08:55:37Z</time>
      </trkpt>
      <trkpt lat="44.56784" lon="2.65603">
        <ele>361</ele>
        <time>2012-06-11T08:55:38Z</time>
      </trkpt>
      <trkpt lat="44.56785" lon="2.65602">
        <ele>361</ele>
        <time>2012-06-11T08:55:39Z</time>
      </trkpt>
      <trkpt lat="44.56786" lon="2.656">
        <ele>361</ele>
        <time>2012-06-11T08:55:40Z</time>
      </trkpt>
      <trkpt lat="44.56786" lon="2.65598">
        <ele>361</ele>
        <time>2012-06-11T08:55:41Z</time>
      </trkpt>
      <trkpt lat="44.56788" lon="2.65596">
        <ele>361</ele>
        <time>2012-06-11T08:55:43Z</time>
      </trkpt>
      <trkpt lat="44.5679" lon="2.65596">
        <ele>361</ele>
        <time>2012-06-11T08:55:44Z</time>
      </trkpt>
      <trkpt lat="44.56791" lon="2.65594">
        <ele>361</ele>
        <time>2012-06-11T08:55:45Z</time>
      </trkpt>
      <trkpt lat="44.56792" lon="2.65593">
        <ele>361</ele>
        <time>2012-06-11T08:55:46Z</time>
      </trkpt>
      <trkpt lat="44.56794" lon="2.6559">
        <ele>361</ele>
        <time>2012-06-11T08:55:48Z</time>
      </trkpt>
      <trkpt lat="44.56796" lon="2.65588">
        <ele>361</ele>
        <time>2012-06-11T08:55:50Z</time>
      </trkpt>
      <trkpt lat="44.56796" lon="2.65586">
        <ele>361</ele>
        <time>2012-06-11T08:55:51Z</time>
      </trkpt>
      <trkpt lat="44.56797" lon="2.65584">
        <ele>361</ele>
        <time>2012-06-11T08:55:52Z</time>
      </trkpt>
      <trkpt lat="44.56797" lon="2.65581">
        <ele>361</ele>
        <time>2012-06-11T08:55:54Z</time>
      </trkpt>
      <trkpt lat="44.56797" lon="2.65579">
        <ele>361</ele>
        <time>2012-06-11T08:55:55Z</time>
      </trkpt>
      <trkpt lat="44.56798" lon="2.65574">
        <ele>361</ele>
        <time>2012-06-11T08:55:58Z</time>
      </trkpt>
      <trkpt lat="44.56798" lon="2.65572">
        <ele>361</ele>
        <time>2012-06-11T08:55:59Z</time>
      </trkpt>
      <trkpt lat="44.56799" lon="2.6557">
        <ele>361</ele>
        <time>2012-06-11T08:56:00Z</time>
      </trkpt>
      <trkpt lat="44.56799" lon="2.65567">
        <ele>361</ele>
        <time>2012-06-11T08:56:01Z</time>
      </trkpt>
      <trkpt lat="44.568" lon="2.65565">
        <ele>361</ele>
        <time>2012-06-11T08:56:02Z</time>
      </trkpt>
      <trkpt lat="44.568" lon="2.65563">
        <ele>361</ele>
        <time>2012-06-11T08:56:04Z</time>
      </trkpt>
      <trkpt lat="44.56801" lon="2.65562">
        <ele>361</ele>
        <time>2012-06-11T08:56:05Z</time>
      </trkpt>
      <trkpt lat="44.56801" lon="2.6556">
        <ele>361</ele>
        <time>2012-06-11T08:56:06Z</time>
      </trkpt>
      <trkpt lat="44.56802" lon="2.65558">
        <ele>361</ele>
        <time>2012-06-11T08:56:07Z</time>
      </trkpt>
      <trkpt lat="44.56803" lon="2.65555">
        <ele>361</ele>
        <time>2012-06-11T08:56:09Z</time>
      </trkpt>
      <trkpt lat="44.56804" lon="2.65552">
        <ele>361</ele>
        <time>2012-06-11T08:56:11Z</time>
      </trkpt>
      <trkpt lat="44.56805" lon="2.65551">
        <ele>361</ele>
        <time>2012-06-11T08:56:12Z</time>
      </trkpt>
      <trkpt lat="44.56807" lon="2.65548">
        <ele>361</ele>
        <time>2012-06-11T08:56:14Z</time>
      </trkpt>
      <trkpt lat="44.56808" lon="2.65547">
        <ele>361</ele>
        <time>2012-06-11T08:56:15Z</time>
      </trkpt>
      <trkpt lat="44.5681" lon="2.65545">
        <ele>361</ele>
        <time>2012-06-11T08:56:17Z</time>
      </trkpt>
      <trkpt lat="44.56811" lon="2.65544">
        <ele>361</ele>
        <time>2012-06-11T08:56:18Z</time>
      </trkpt>
      <trkpt lat="44.56812" lon="2.65541">
        <ele>361</ele>
        <time>2012-06-11T08:56:20Z</time>
      </trkpt>
      <trkpt lat="44.56814" lon="2.65539">
        <ele>361</ele>
        <time>2012-06-11T08:56:22Z</time>
      </trkpt>
      <trkpt lat="44.56816" lon="2.65536">
        <ele>362</ele>
        <time>2012-06-11T08:56:24Z</time>
      </trkpt>
      <trkpt lat="44.56818" lon="2.65534">
        <ele>362</ele>
        <time>2012-06-11T08:56:26Z</time>
      </trkpt>
      <trkpt lat="44.56819" lon="2.65532">
        <ele>363</ele>
        <time>2012-06-11T08:56:28Z</time>
      </trkpt>
      <trkpt lat="44.56821" lon="2.6553">
        <ele>363</ele>
        <time>2012-06-11T08:56:30Z</time>
      </trkpt>
      <trkpt lat="44.56822" lon="2.65528">
        <ele>364</ele>
        <time>2012-06-11T08:56:32Z</time>
      </trkpt>
      <trkpt lat="44.56824" lon="2.65526">
        <ele>364</ele>
        <time>2012-06-11T08:56:34Z</time>
      </trkpt>
      <trkpt lat="44.56826" lon="2.65523">
        <ele>365</ele>
        <time>2012-06-11T08:56:36Z</time>
      </trkpt>
      <trkpt lat="44.56827" lon="2.65522">
        <ele>365</ele>
        <time>2012-06-11T08:56:37Z</time>
      </trkpt>
      <trkpt lat="44.56829" lon="2.6552">
        <ele>365</ele>
        <time>2012-06-11T08:56:39Z</time>
      </trkpt>
      <trkpt lat="44.5683" lon="2.65518">
        <ele>366</ele>
        <time>2012-06-11T08:56:41Z</time>
      </trkpt>
      <trkpt lat="44.56832" lon="2.65517">
        <ele>366</ele>
        <time>2012-06-11T08:56:43Z</time>
      </trkpt>
      <trkpt lat="44.56833" lon="2.65516">
        <ele>367</ele>
        <time>2012-06-11T08:56:44Z</time>
      </trkpt>
      <trkpt lat="44.56835" lon="2.65513">
        <ele>367</ele>
        <time>2012-06-11T08:56:46Z</time>
      </trkpt>
      <trkpt lat="44.56835" lon="2.65512">
        <ele>368</ele>
        <time>2012-06-11T08:56:47Z</time>
      </trkpt>
      <trkpt lat="44.56836" lon="2.6551">
        <ele>368</ele>
        <time>2012-06-11T08:56:48Z</time>
      </trkpt>
      <trkpt lat="44.56837" lon="2.65508">
        <ele>368</ele>
        <time>2012-06-11T08:56:49Z</time>
      </trkpt>
      <trkpt lat="44.56838" lon="2.65507">
        <ele>368</ele>
        <time>2012-06-11T08:56:50Z</time>
      </trkpt>
      <trkpt lat="44.56839" lon="2.65504">
        <ele>369</ele>
        <time>2012-06-11T08:56:52Z</time>
      </trkpt>
      <trkpt lat="44.56841" lon="2.65502">
        <ele>369</ele>
        <time>2012-06-11T08:56:54Z</time>
      </trkpt>
      <trkpt lat="44.56842" lon="2.65501">
        <ele>369</ele>
        <time>2012-06-11T08:56:55Z</time>
      </trkpt>
      <trkpt lat="44.56844" lon="2.655">
        <ele>369</ele>
        <time>2012-06-11T08:56:56Z</time>
      </trkpt>
      <trkpt lat="44.56846" lon="2.65498">
        <ele>369</ele>
        <time>2012-06-11T08:56:58Z</time>
      </trkpt>
      <trkpt lat="44.56848" lon="2.65496">
        <ele>369</ele>
        <time>2012-06-11T08:57:00Z</time>
      </trkpt>
      <trkpt lat="44.5685" lon="2.65495">
        <ele>370</ele>
        <time>2012-06-11T08:57:02Z</time>
      </trkpt>
      <trkpt lat="44.56852" lon="2.65494">
        <ele>370</ele>
        <time>2012-06-11T08:57:03Z</time>
      </trkpt>
      <trkpt lat="44.56853" lon="2.65494">
        <ele>371</ele>
        <time>2012-06-11T08:57:04Z</time>
      </trkpt>
      <trkpt lat="44.56855" lon="2.65492">
        <ele>371</ele>
        <time>2012-06-11T08:57:06Z</time>
      </trkpt>
      <trkpt lat="44.56856" lon="2.65491">
        <ele>372</ele>
        <time>2012-06-11T08:57:07Z</time>
      </trkpt>
      <trkpt lat="44.56858" lon="2.65489">
        <ele>372</ele>
        <time>2012-06-11T08:57:09Z</time>
      </trkpt>
      <trkpt lat="44.5686" lon="2.65487">
        <ele>372</ele>
        <time>2012-06-11T08:57:11Z</time>
      </trkpt>
      <trkpt lat="44.56862" lon="2.65485">
        <ele>372</ele>
        <time>2012-06-11T08:57:13Z</time>
      </trkpt>
      <trkpt lat="44.56863" lon="2.65484">
        <ele>372</ele>
        <time>2012-06-11T08:57:14Z</time>
      </trkpt>
      <trkpt lat="44.56865" lon="2.65483">
        <ele>372</ele>
        <time>2012-06-11T08:57:16Z</time>
      </trkpt>
      <trkpt lat="44.56866" lon="2.65482">
        <ele>372</ele>
        <time>2012-06-11T08:57:17Z</time>
      </trkpt>
      <trkpt lat="44.56868" lon="2.65479">
        <ele>372</ele>
        <time>2012-06-11T08:57:19Z</time>
      </trkpt>
      <trkpt lat="44.56869" lon="2.65477">
        <ele>372</ele>
        <time>2012-06-11T08:57:21Z</time>
      </trkpt>
      <trkpt lat="44.56871" lon="2.65476">
        <ele>374</ele>
        <time>2012-06-11T08:57:23Z</time>
      </trkpt>
      <trkpt lat="44.56873" lon="2.65474">
        <ele>374</ele>
        <time>2012-06-11T08:57:25Z</time>
      </trkpt>
      <trkpt lat="44.56874" lon="2.65472">
        <ele>375</ele>
        <time>2012-06-11T08:57:27Z</time>
      </trkpt>
      <trkpt lat="44.56876" lon="2.6547">
        <ele>375</ele>
        <time>2012-06-11T08:57:29Z</time>
      </trkpt>
      <trkpt lat="44.56878" lon="2.6547">
        <ele>375</ele>
        <time>2012-06-11T08:57:31Z</time>
      </trkpt>
      <trkpt lat="44.56879" lon="2.65469">
        <ele>375</ele>
        <time>2012-06-11T08:57:32Z</time>
      </trkpt>
      <trkpt lat="44.56881" lon="2.65468">
        <ele>375</ele>
        <time>2012-06-11T08:57:33Z</time>
      </trkpt>
      <trkpt lat="44.56882" lon="2.65467">
        <ele>375</ele>
        <time>2012-06-11T08:57:34Z</time>
      </trkpt>
      <trkpt lat="44.56884" lon="2.65466">
        <ele>376</ele>
        <time>2012-06-11T08:57:35Z</time>
      </trkpt>
      <trkpt lat="44.56885" lon="2.65465">
        <ele>376</ele>
        <time>2012-06-11T08:57:36Z</time>
      </trkpt>
      <trkpt lat="44.56887" lon="2.65463">
        <ele>376</ele>
        <time>2012-06-11T08:57:38Z</time>
      </trkpt>
      <trkpt lat="44.56889" lon="2.65461">
        <ele>376</ele>
        <time>2012-06-11T08:57:40Z</time>
      </trkpt>
      <trkpt lat="44.5689" lon="2.65459">
        <ele>376</ele>
        <time>2012-06-11T08:57:41Z</time>
      </trkpt>
      <trkpt lat="44.56891" lon="2.65458">
        <ele>376</ele>
        <time>2012-06-11T08:57:42Z</time>
      </trkpt>
      <trkpt lat="44.56892" lon="2.65456">
        <ele>377</ele>
        <time>2012-06-11T08:57:44Z</time>
      </trkpt>
      <trkpt lat="44.56895" lon="2.65454">
        <ele>377</ele>
        <time>2012-06-11T08:57:46Z</time>
      </trkpt>
      <trkpt lat="44.56896" lon="2.65454">
        <ele>377</ele>
        <time>2012-06-11T08:57:47Z</time>
      </trkpt>
      <trkpt lat="44.56898" lon="2.65452">
        <ele>377</ele>
        <time>2012-06-11T08:57:49Z</time>
      </trkpt>
      <trkpt lat="44.56899" lon="2.65452">
        <ele>377</ele>
        <time>2012-06-11T08:57:50Z</time>
      </trkpt>
      <trkpt lat="44.56902" lon="2.65451">
        <ele>377</ele>
        <time>2012-06-11T08:57:52Z</time>
      </trkpt>
      <trkpt lat="44.56903" lon="2.6545">
        <ele>377</ele>
        <time>2012-06-11T08:57:53Z</time>
      </trkpt>
      <trkpt lat="44.56904" lon="2.65448">
        <ele>377</ele>
        <time>2012-06-11T08:57:54Z</time>
      </trkpt>
      <trkpt lat="44.56905" lon="2.65446">
        <ele>377</ele>
        <time>2012-06-11T08:57:55Z</time>
      </trkpt>
      <trkpt lat="44.56905" lon="2.65444">
        <ele>377</ele>
        <time>2012-06-11T08:57:56Z</time>
      </trkpt>
      <trkpt lat="44.56907" lon="2.65443">
        <ele>377</ele>
        <time>2012-06-11T08:57:58Z</time>
      </trkpt>
      <trkpt lat="44.56907" lon="2.65441">
        <ele>379</ele>
        <time>2012-06-11T08:58:04Z</time>
      </trkpt>
      <trkpt lat="44.56907" lon="2.65443">
        <ele>381</ele>
        <time>2012-06-11T08:58:56Z</time>
      </trkpt>
      <trkpt lat="44.56908" lon="2.65441">
        <ele>381</ele>
        <time>2012-06-11T08:58:58Z</time>
      </trkpt>
      <trkpt lat="44.56909" lon="2.65439">
        <ele>382</ele>
        <time>2012-06-11T08:59:00Z</time>
      </trkpt>
      <trkpt lat="44.5691" lon="2.65437">
        <ele>383</ele>
        <time>2012-06-11T08:59:02Z</time>
      </trkpt>
      <trkpt lat="44.56911" lon="2.65435">
        <ele>383</ele>
        <time>2012-06-11T08:59:04Z</time>
      </trkpt>
      <trkpt lat="44.56913" lon="2.65434">
        <ele>384</ele>
        <time>2012-06-11T08:59:06Z</time>
      </trkpt>
      <trkpt lat="44.56915" lon="2.65432">
        <ele>384</ele>
        <time>2012-06-11T08:59:08Z</time>
      </trkpt>
      <trkpt lat="44.56916" lon="2.6543">
        <ele>384</ele>
        <time>2012-06-11T08:59:10Z</time>
      </trkpt>
      <trkpt lat="44.56918" lon="2.65428">
        <ele>384</ele>
        <time>2012-06-11T08:59:12Z</time>
      </trkpt>
      <trkpt lat="44.56921" lon="2.65426">
        <ele>384</ele>
        <time>2012-06-11T08:59:14Z</time>
      </trkpt>
      <trkpt lat="44.56922" lon="2.65425">
        <ele>384</ele>
        <time>2012-06-11T08:59:15Z</time>
      </trkpt>
      <trkpt lat="44.56924" lon="2.65424">
        <ele>384</ele>
        <time>2012-06-11T08:59:17Z</time>
      </trkpt>
      <trkpt lat="44.56926" lon="2.65422">
        <ele>384</ele>
        <time>2012-06-11T08:59:19Z</time>
      </trkpt>
      <trkpt lat="44.56928" lon="2.6542">
        <ele>384</ele>
        <time>2012-06-11T08:59:21Z</time>
      </trkpt>
      <trkpt lat="44.56929" lon="2.65419">
        <ele>384</ele>
        <time>2012-06-11T08:59:24Z</time>
      </trkpt>
      <trkpt lat="44.56931" lon="2.65418">
        <ele>384</ele>
        <time>2012-06-11T08:59:26Z</time>
      </trkpt>
      <trkpt lat="44.56931" lon="2.65416">
        <ele>384</ele>
        <time>2012-06-11T08:59:33Z</time>
      </trkpt>
      <trkpt lat="44.56932" lon="2.65415">
        <ele>384</ele>
        <time>2012-06-11T08:59:35Z</time>
      </trkpt>
      <trkpt lat="44.56931" lon="2.65412">
        <ele>384</ele>
        <time>2012-06-11T08:59:37Z</time>
      </trkpt>
      <trkpt lat="44.56931" lon="2.65411">
        <ele>385</ele>
        <time>2012-06-11T08:59:39Z</time>
      </trkpt>
      <trkpt lat="44.56932" lon="2.65409">
        <ele>386</ele>
        <time>2012-06-11T08:59:43Z</time>
      </trkpt>
      <trkpt lat="44.56933" lon="2.65403">
        <ele>389</ele>
        <time>2012-06-11T09:00:06Z</time>
      </trkpt>
      <trkpt lat="44.56932" lon="2.65405">
        <ele>391</ele>
        <time>2012-06-11T09:00:11Z</time>
      </trkpt>
      <trkpt lat="44.56931" lon="2.65407">
        <ele>391</ele>
        <time>2012-06-11T09:00:14Z</time>
      </trkpt>
      <trkpt lat="44.56931" lon="2.65409">
        <ele>391</ele>
        <time>2012-06-11T09:00:18Z</time>
      </trkpt>
      <trkpt lat="44.56931" lon="2.6541">
        <ele>391</ele>
        <time>2012-06-11T09:00:20Z</time>
      </trkpt>
      <trkpt lat="44.56929" lon="2.65414">
        <ele>391</ele>
        <time>2012-06-11T09:00:25Z</time>
      </trkpt>
      <trkpt lat="44.56931" lon="2.65416">
        <ele>391</ele>
        <time>2012-06-11T09:00:51Z</time>
      </trkpt>
      <trkpt lat="44.56932" lon="2.65417">
        <ele>391</ele>
        <time>2012-06-11T09:00:54Z</time>
      </trkpt>
      <trkpt lat="44.56933" lon="2.65418">
        <ele>391</ele>
        <time>2012-06-11T09:00:57Z</time>
      </trkpt>
      <trkpt lat="44.56934" lon="2.65419">
        <ele>390</ele>
        <time>2012-06-11T09:01:07Z</time>
      </trkpt>
      <trkpt lat="44.56933" lon="2.65419">
        <ele>389</ele>
        <time>2012-06-11T09:01:15Z</time>
      </trkpt>
      <trkpt lat="44.56932" lon="2.65417">
        <ele>389</ele>
        <time>2012-06-11T09:01:18Z</time>
      </trkpt>
      <trkpt lat="44.5693" lon="2.65417">
        <ele>389</ele>
        <time>2012-06-11T09:01:21Z</time>
      </trkpt>
      <trkpt lat="44.56929" lon="2.65416">
        <ele>389</ele>
        <time>2012-06-11T09:01:43Z</time>
      </trkpt>
      <trkpt lat="44.56931" lon="2.65417">
        <ele>389</ele>
        <time>2012-06-11T09:01:52Z</time>
      </trkpt>
      <trkpt lat="44.56933" lon="2.65418">
        <ele>389</ele>
        <time>2012-06-11T09:02:18Z</time>
      </trkpt>
      <trkpt lat="44.56932" lon="2.65418">
        <ele>389</ele>
        <time>2012-06-11T09:02:37Z</time>
      </trkpt>
      <trkpt lat="44.5693" lon="2.65416">
        <ele>389</ele>
        <time>2012-06-11T09:02:40Z</time>
      </trkpt>
      <trkpt lat="44.56929" lon="2.65418">
        <ele>389</ele>
        <time>2012-06-11T09:02:42Z</time>
      </trkpt>
      <trkpt lat="44.56931" lon="2.6542">
        <ele>389</ele>
        <time>2012-06-11T09:02:44Z</time>
      </trkpt>
      <trkpt lat="44.56934" lon="2.65419">
        <ele>389</ele>
        <time>2012-06-11T09:02:47Z</time>
      </trkpt>
      <trkpt lat="44.56935" lon="2.65417">
        <ele>389</ele>
        <time>2012-06-11T09:02:48Z</time>
      </trkpt>
      <trkpt lat="44.56936" lon="2.65416">
        <ele>389</ele>
        <time>2012-06-11T09:02:49Z</time>
      </trkpt>
      <trkpt lat="44.56938" lon="2.65415">
        <ele>389</ele>
        <time>2012-06-11T09:02:50Z</time>
      </trkpt>
      <trkpt lat="44.56939" lon="2.65415">
        <ele>389</ele>
        <time>2012-06-11T09:02:51Z</time>
      </trkpt>
      <trkpt lat="44.5694" lon="2.65414">
        <ele>388</ele>
        <time>2012-06-11T09:02:52Z</time>
      </trkpt>
      <trkpt lat="44.56942" lon="2.65414">
        <ele>387</ele>
        <time>2012-06-11T09:02:54Z</time>
      </trkpt>
      <trkpt lat="44.56944" lon="2.65414">
        <ele>387</ele>
        <time>2012-06-11T09:02:55Z</time>
      </trkpt>
      <trkpt lat="44.56945" lon="2.65414">
        <ele>386</ele>
        <time>2012-06-11T09:02:56Z</time>
      </trkpt>
      <trkpt lat="44.56948" lon="2.65414">
        <ele>384</ele>
        <time>2012-06-11T09:02:59Z</time>
      </trkpt>
      <trkpt lat="44.5695" lon="2.65415">
        <ele>383</ele>
        <time>2012-06-11T09:03:01Z</time>
      </trkpt>
      <trkpt lat="44.56952" lon="2.65415">
        <ele>382</ele>
        <time>2012-06-11T09:03:03Z</time>
      </trkpt>
      <trkpt lat="44.56954" lon="2.65414">
        <ele>382</ele>
        <time>2012-06-11T09:03:05Z</time>
      </trkpt>
      <trkpt lat="44.56955" lon="2.65414">
        <ele>382</ele>
        <time>2012-06-11T09:03:06Z</time>
      </trkpt>
      <trkpt lat="44.56958" lon="2.65414">
        <ele>382</ele>
        <time>2012-06-11T09:03:08Z</time>
      </trkpt>
      <trkpt lat="44.5696" lon="2.65413">
        <ele>382</ele>
        <time>2012-06-11T09:03:10Z</time>
      </trkpt>
      <trkpt lat="44.56962" lon="2.65412">
        <ele>382</ele>
        <time>2012-06-11T09:03:12Z</time>
      </trkpt>
      <trkpt lat="44.56963" lon="2.65412">
        <ele>382</ele>
        <time>2012-06-11T09:03:13Z</time>
      </trkpt>
      <trkpt lat="44.56965" lon="2.65412">
        <ele>382</ele>
        <time>2012-06-11T09:03:14Z</time>
      </trkpt>
      <trkpt lat="44.56967" lon="2.6541">
        <ele>382</ele>
        <time>2012-06-11T09:03:16Z</time>
      </trkpt>
      <trkpt lat="44.56968" lon="2.65409">
        <ele>382</ele>
        <time>2012-06-11T09:03:17Z</time>
      </trkpt>
      <trkpt lat="44.56969" lon="2.65407">
        <ele>382</ele>
        <time>2012-06-11T09:03:18Z</time>
      </trkpt>
      <trkpt lat="44.5697" lon="2.65406">
        <ele>382</ele>
        <time>2012-06-11T09:03:19Z</time>
      </trkpt>
      <trkpt lat="44.56972" lon="2.65405">
        <ele>382</ele>
        <time>2012-06-11T09:03:20Z</time>
      </trkpt>
      <trkpt lat="44.56974" lon="2.65403">
        <ele>382</ele>
        <time>2012-06-11T09:03:21Z</time>
      </trkpt>
      <trkpt lat="44.56976" lon="2.65401">
        <ele>382</ele>
        <time>2012-06-11T09:03:22Z</time>
      </trkpt>
      <trkpt lat="44.56978" lon="2.654">
        <ele>382</ele>
        <time>2012-06-11T09:03:23Z</time>
      </trkpt>
      <trkpt lat="44.5698" lon="2.654">
        <ele>382</ele>
        <time>2012-06-11T09:03:24Z</time>
      </trkpt>
      <trkpt lat="44.56982" lon="2.654">
        <ele>382</ele>
        <time>2012-06-11T09:03:25Z</time>
      </trkpt>
      <trkpt lat="44.56983" lon="2.65398">
        <ele>382</ele>
        <time>2012-06-11T09:03:26Z</time>
      </trkpt>
      <trkpt lat="44.56985" lon="2.65397">
        <ele>382</ele>
        <time>2012-06-11T09:03:27Z</time>
      </trkpt>
      <trkpt lat="44.56987" lon="2.65397">
        <ele>382</ele>
        <time>2012-06-11T09:03:28Z</time>
      </trkpt>
      <trkpt lat="44.56988" lon="2.65396">
        <ele>382</ele>
        <time>2012-06-11T09:03:29Z</time>
      </trkpt>
      <trkpt lat="44.5699" lon="2.65393">
        <ele>382</ele>
        <time>2012-06-11T09:03:31Z</time>
      </trkpt>
      <trkpt lat="44.56992" lon="2.65391">
        <ele>382</ele>
        <time>2012-06-11T09:03:33Z</time>
      </trkpt>
      <trkpt lat="44.56993" lon="2.6539">
        <ele>382</ele>
        <time>2012-06-11T09:03:34Z</time>
      </trkpt>
      <trkpt lat="44.56994" lon="2.65389">
        <ele>382</ele>
        <time>2012-06-11T09:03:35Z</time>
      </trkpt>
      <trkpt lat="44.56997" lon="2.65388">
        <ele>383</ele>
        <time>2012-06-11T09:03:37Z</time>
      </trkpt>
      <trkpt lat="44.56998" lon="2.65386">
        <ele>384</ele>
        <time>2012-06-11T09:03:39Z</time>
      </trkpt>
      <trkpt lat="44.57" lon="2.65384">
        <ele>385</ele>
        <time>2012-06-11T09:03:41Z</time>
      </trkpt>
      <trkpt lat="44.57001" lon="2.65384">
        <ele>386</ele>
        <time>2012-06-11T09:03:50Z</time>
      </trkpt>
      <trkpt lat="44.57002" lon="2.65384">
        <ele>387</ele>
        <time>2012-06-11T09:04:07Z</time>
      </trkpt>
      <trkpt lat="44.57002" lon="2.65383">
        <ele>393</ele>
        <time>2012-06-11T09:04:58Z</time>
      </trkpt>
      <trkpt lat="44.57003" lon="2.65382">
        <ele>394</ele>
        <time>2012-06-11T09:05:09Z</time>
      </trkpt>
      <trkpt lat="44.57005" lon="2.65381">
        <ele>394</ele>
        <time>2012-06-11T09:05:12Z</time>
      </trkpt>
      <trkpt lat="44.57006" lon="2.6538">
        <ele>395</ele>
        <time>2012-06-11T09:05:16Z</time>
      </trkpt>
      <trkpt lat="44.57008" lon="2.6538">
        <ele>395</ele>
        <time>2012-06-11T09:05:17Z</time>
      </trkpt>
      <trkpt lat="44.57009" lon="2.65379">
        <ele>395</ele>
        <time>2012-06-11T09:05:18Z</time>
      </trkpt>
      <trkpt lat="44.5701" lon="2.65378">
        <ele>395</ele>
        <time>2012-06-11T09:05:19Z</time>
      </trkpt>
      <trkpt lat="44.57011" lon="2.65377">
        <ele>395</ele>
        <time>2012-06-11T09:05:20Z</time>
      </trkpt>
      <trkpt lat="44.57013" lon="2.65377">
        <ele>395</ele>
        <time>2012-06-11T09:05:21Z</time>
      </trkpt>
      <trkpt lat="44.57014" lon="2.65376">
        <ele>395</ele>
        <time>2012-06-11T09:05:22Z</time>
      </trkpt>
      <trkpt lat="44.57016" lon="2.65375">
        <ele>395</ele>
        <time>2012-06-11T09:05:23Z</time>
      </trkpt>
      <trkpt lat="44.57017" lon="2.65373">
        <ele>395</ele>
        <time>2012-06-11T09:05:25Z</time>
      </trkpt>
      <trkpt lat="44.57019" lon="2.65371">
        <ele>395</ele>
        <time>2012-06-11T09:05:27Z</time>
      </trkpt>
      <trkpt lat="44.5702" lon="2.6537">
        <ele>395</ele>
        <time>2012-06-11T09:05:29Z</time>
      </trkpt>
      <trkpt lat="44.57021" lon="2.65369">
        <ele>395</ele>
        <time>2012-06-11T09:05:30Z</time>
      </trkpt>
      <trkpt lat="44.57022" lon="2.65368">
        <ele>395</ele>
        <time>2012-06-11T09:05:31Z</time>
      </trkpt>
      <trkpt lat="44.57024" lon="2.65366">
        <ele>395</ele>
        <time>2012-06-11T09:05:33Z</time>
      </trkpt>
      <trkpt lat="44.57026" lon="2.65364">
        <ele>395</ele>
        <time>2012-06-11T09:05:35Z</time>
      </trkpt>
      <trkpt lat="44.57028" lon="2.65361">
        <ele>395</ele>
        <time>2012-06-11T09:05:37Z</time>
      </trkpt>
      <trkpt lat="44.5703" lon="2.65359">
        <ele>395</ele>
        <time>2012-06-11T09:05:39Z</time>
      </trkpt>
      <trkpt lat="44.57031" lon="2.65358">
        <ele>395</ele>
        <time>2012-06-11T09:05:40Z</time>
      </trkpt>
      <trkpt lat="44.57032" lon="2.65357">
        <ele>395</ele>
        <time>2012-06-11T09:05:41Z</time>
      </trkpt>
      <trkpt lat="44.57034" lon="2.65355">
        <ele>396</ele>
        <time>2012-06-11T09:05:43Z</time>
      </trkpt>
      <trkpt lat="44.57036" lon="2.65354">
        <ele>396</ele>
        <time>2012-06-11T09:05:45Z</time>
      </trkpt>
      <trkpt lat="44.57038" lon="2.65353">
        <ele>396</ele>
        <time>2012-06-11T09:05:47Z</time>
      </trkpt>
      <trkpt lat="44.57042" lon="2.65353">
        <ele>396</ele>
        <time>2012-06-11T09:05:50Z</time>
      </trkpt>
      <trkpt lat="44.57043" lon="2.65352">
        <ele>396</ele>
        <time>2012-06-11T09:05:52Z</time>
      </trkpt>
      <trkpt lat="44.57045" lon="2.65353">
        <ele>396</ele>
        <time>2012-06-11T09:05:56Z</time>
      </trkpt>
      <trkpt lat="44.57046" lon="2.65353">
        <ele>396</ele>
        <time>2012-06-11T09:06:02Z</time>
      </trkpt>
      <trkpt lat="44.57047" lon="2.65352">
        <ele>396</ele>
        <time>2012-06-11T09:06:15Z</time>
      </trkpt>
      <trkpt lat="44.57048" lon="2.65353">
        <ele>396</ele>
        <time>2012-06-11T09:06:25Z</time>
      </trkpt>
      <trkpt lat="44.57049" lon="2.65355">
        <ele>396</ele>
        <time>2012-06-11T09:06:27Z</time>
      </trkpt>
      <trkpt lat="44.5705" lon="2.65357">
        <ele>396</ele>
        <time>2012-06-11T09:06:28Z</time>
      </trkpt>
      <trkpt lat="44.57051" lon="2.65359">
        <ele>396</ele>
        <time>2012-06-11T09:06:29Z</time>
      </trkpt>
      <trkpt lat="44.57052" lon="2.65361">
        <ele>396</ele>
        <time>2012-06-11T09:06:30Z</time>
      </trkpt>
      <trkpt lat="44.57054" lon="2.65363">
        <ele>396</ele>
        <time>2012-06-11T09:06:31Z</time>
      </trkpt>
      <trkpt lat="44.57055" lon="2.65364">
        <ele>396</ele>
        <time>2012-06-11T09:06:32Z</time>
      </trkpt>
      <trkpt lat="44.57056" lon="2.65365">
        <ele>396</ele>
        <time>2012-06-11T09:06:33Z</time>
      </trkpt>
      <trkpt lat="44.57058" lon="2.65366">
        <ele>396</ele>
        <time>2012-06-11T09:06:34Z</time>
      </trkpt>
      <trkpt lat="44.57059" lon="2.65366">
        <ele>396</ele>
        <time>2012-06-11T09:06:35Z</time>
      </trkpt>
      <trkpt lat="44.57061" lon="2.65367">
        <ele>396</ele>
        <time>2012-06-11T09:06:36Z</time>
      </trkpt>
      <trkpt lat="44.57061" lon="2.65368">
        <ele>396</ele>
        <time>2012-06-11T09:06:37Z</time>
      </trkpt>
      <trkpt lat="44.57062" lon="2.6537">
        <ele>396</ele>
        <time>2012-06-11T09:06:38Z</time>
      </trkpt>
      <trkpt lat="44.57063" lon="2.65371">
        <ele>396</ele>
        <time>2012-06-11T09:06:39Z</time>
      </trkpt>
      <trkpt lat="44.57065" lon="2.65372">
        <ele>396</ele>
        <time>2012-06-11T09:06:40Z</time>
      </trkpt>
      <trkpt lat="44.57066" lon="2.65373">
        <ele>396</ele>
        <time>2012-06-11T09:06:41Z</time>
      </trkpt>
      <trkpt lat="44.57068" lon="2.65373">
        <ele>396</ele>
        <time>2012-06-11T09:06:42Z</time>
      </trkpt>
      <trkpt lat="44.5707" lon="2.65375">
        <ele>396</ele>
        <time>2012-06-11T09:06:43Z</time>
      </trkpt>
      <trkpt lat="44.57071" lon="2.65377">
        <ele>396</ele>
        <time>2012-06-11T09:06:44Z</time>
      </trkpt>
      <trkpt lat="44.57073" lon="2.65378">
        <ele>396</ele>
        <time>2012-06-11T09:06:45Z</time>
      </trkpt>
      <trkpt lat="44.57074" lon="2.65379">
        <ele>396</ele>
        <time>2012-06-11T09:06:46Z</time>
      </trkpt>
      <trkpt lat="44.57077" lon="2.6538">
        <ele>395</ele>
        <time>2012-06-11T09:06:47Z</time>
      </trkpt>
      <trkpt lat="44.57079" lon="2.65381">
        <ele>395</ele>
        <time>2012-06-11T09:06:48Z</time>
      </trkpt>
      <trkpt lat="44.57081" lon="2.65382">
        <ele>395</ele>
        <time>2012-06-11T09:06:49Z</time>
      </trkpt>
      <trkpt lat="44.57082" lon="2.65384">
        <ele>394</ele>
        <time>2012-06-11T09:06:50Z</time>
      </trkpt>
      <trkpt lat="44.57086" lon="2.65384">
        <ele>394</ele>
        <time>2012-06-11T09:06:52Z</time>
      </trkpt>
      <trkpt lat="44.5709" lon="2.65384">
        <ele>394</ele>
        <time>2012-06-11T09:06:54Z</time>
      </trkpt>
      <trkpt lat="44.57092" lon="2.65384">
        <ele>394</ele>
        <time>2012-06-11T09:06:55Z</time>
      </trkpt>
      <trkpt lat="44.57094" lon="2.65384">
        <ele>394</ele>
        <time>2012-06-11T09:06:57Z</time>
      </trkpt>
      <trkpt lat="44.57095" lon="2.65384">
        <ele>394</ele>
        <time>2012-06-11T09:06:58Z</time>
      </trkpt>
      <trkpt lat="44.57098" lon="2.65384">
        <ele>394</ele>
        <time>2012-06-11T09:06:59Z</time>
      </trkpt>
      <trkpt lat="44.571" lon="2.65383">
        <ele>394</ele>
        <time>2012-06-11T09:07:00Z</time>
      </trkpt>
      <trkpt lat="44.57102" lon="2.65384">
        <ele>394</ele>
        <time>2012-06-11T09:07:01Z</time>
      </trkpt>
      <trkpt lat="44.57103" lon="2.65384">
        <ele>394</ele>
        <time>2012-06-11T09:07:02Z</time>
      </trkpt>
      <trkpt lat="44.57104" lon="2.65385">
        <ele>394</ele>
        <time>2012-06-11T09:07:03Z</time>
      </trkpt>
      <trkpt lat="44.57106" lon="2.65385">
        <ele>394</ele>
        <time>2012-06-11T09:07:04Z</time>
      </trkpt>
      <trkpt lat="44.57107" lon="2.65384">
        <ele>394</ele>
        <time>2012-06-11T09:07:05Z</time>
      </trkpt>
      <trkpt lat="44.57109" lon="2.65384">
        <ele>394</ele>
        <time>2012-06-11T09:07:06Z</time>
      </trkpt>
      <trkpt lat="44.5711" lon="2.65385">
        <ele>394</ele>
        <time>2012-06-11T09:07:07Z</time>
      </trkpt>
      <trkpt lat="44.57112" lon="2.65385">
        <ele>393</ele>
        <time>2012-06-11T09:07:08Z</time>
      </trkpt>
      <trkpt lat="44.57114" lon="2.65385">
        <ele>393</ele>
        <time>2012-06-11T09:07:09Z</time>
      </trkpt>
      <trkpt lat="44.57115" lon="2.65384">
        <ele>393</ele>
        <time>2012-06-11T09:07:10Z</time>
      </trkpt>
      <trkpt lat="44.57118" lon="2.65385">
        <ele>393</ele>
        <time>2012-06-11T09:07:12Z</time>
      </trkpt>
      <trkpt lat="44.5712" lon="2.65385">
        <ele>393</ele>
        <time>2012-06-11T09:07:13Z</time>
      </trkpt>
      <trkpt lat="44.57122" lon="2.65386">
        <ele>393</ele>
        <time>2012-06-11T09:07:14Z</time>
      </trkpt>
      <trkpt lat="44.57124" lon="2.65388">
        <ele>392</ele>
        <time>2012-06-11T09:07:15Z</time>
      </trkpt>
      <trkpt lat="44.57125" lon="2.65389">
        <ele>391</ele>
        <time>2012-06-11T09:07:16Z</time>
      </trkpt>
      <trkpt lat="44.57127" lon="2.6539">
        <ele>391</ele>
        <time>2012-06-11T09:07:17Z</time>
      </trkpt>
      <trkpt lat="44.57128" lon="2.6539">
        <ele>390</ele>
        <time>2012-06-11T09:07:18Z</time>
      </trkpt>
      <trkpt lat="44.5713" lon="2.6539">
        <ele>389</ele>
        <time>2012-06-11T09:07:19Z</time>
      </trkpt>
      <trkpt lat="44.57131" lon="2.65391">
        <ele>388</ele>
        <time>2012-06-11T09:07:20Z</time>
      </trkpt>
      <trkpt lat="44.57132" lon="2.65392">
        <ele>387</ele>
        <time>2012-06-11T09:07:21Z</time>
      </trkpt>
      <trkpt lat="44.57134" lon="2.65392">
        <ele>387</ele>
        <time>2012-06-11T09:07:22Z</time>
      </trkpt>
      <trkpt lat="44.57136" lon="2.65393">
        <ele>387</ele>
        <time>2012-06-11T09:07:23Z</time>
      </trkpt>
      <trkpt lat="44.5714" lon="2.65394">
        <ele>386</ele>
        <time>2012-06-11T09:07:25Z</time>
      </trkpt>
      <trkpt lat="44.57142" lon="2.65394">
        <ele>386</ele>
        <time>2012-06-11T09:07:26Z</time>
      </trkpt>
      <trkpt lat="44.57145" lon="2.65394">
        <ele>385</ele>
        <time>2012-06-11T09:07:27Z</time>
      </trkpt>
      <trkpt lat="44.57146" lon="2.65393">
        <ele>385</ele>
        <time>2012-06-11T09:07:28Z</time>
      </trkpt>
      <trkpt lat="44.57147" lon="2.65392">
        <ele>385</ele>
        <time>2012-06-11T09:07:29Z</time>
      </trkpt>
      <trkpt lat="44.57148" lon="2.65393">
        <ele>385</ele>
        <time>2012-06-11T09:07:30Z</time>
      </trkpt>
      <trkpt lat="44.5715" lon="2.65393">
        <ele>385</ele>
        <time>2012-06-11T09:07:32Z</time>
      </trkpt>
      <trkpt lat="44.57152" lon="2.65393">
        <ele>385</ele>
        <time>2012-06-11T09:07:34Z</time>
      </trkpt>
      <trkpt lat="44.57153" lon="2.65392">
        <ele>385</ele>
        <time>2012-06-11T09:07:35Z</time>
      </trkpt>
      <trkpt lat="44.57156" lon="2.6539">
        <ele>385</ele>
        <time>2012-06-11T09:07:37Z</time>
      </trkpt>
      <trkpt lat="44.57157" lon="2.65389">
        <ele>385</ele>
        <time>2012-06-11T09:07:38Z</time>
      </trkpt>
      <trkpt lat="44.57159" lon="2.65387">
        <ele>385</ele>
        <time>2012-06-11T09:07:40Z</time>
      </trkpt>
      <trkpt lat="44.57161" lon="2.65387">
        <ele>385</ele>
        <time>2012-06-11T09:07:41Z</time>
      </trkpt>
      <trkpt lat="44.57162" lon="2.65386">
        <ele>385</ele>
        <time>2012-06-11T09:07:43Z</time>
      </trkpt>
      <trkpt lat="44.57164" lon="2.65385">
        <ele>384</ele>
        <time>2012-06-11T09:07:44Z</time>
      </trkpt>
      <trkpt lat="44.57166" lon="2.65384">
        <ele>384</ele>
        <time>2012-06-11T09:07:46Z</time>
      </trkpt>
      <trkpt lat="44.57167" lon="2.65382">
        <ele>384</ele>
        <time>2012-06-11T09:07:48Z</time>
      </trkpt>
      <trkpt lat="44.57168" lon="2.6538">
        <ele>383</ele>
        <time>2012-06-11T09:07:49Z</time>
      </trkpt>
      <trkpt lat="44.57169" lon="2.65379">
        <ele>383</ele>
        <time>2012-06-11T09:07:50Z</time>
      </trkpt>
      <trkpt lat="44.5717" lon="2.65378">
        <ele>382</ele>
        <time>2012-06-11T09:07:52Z</time>
      </trkpt>
      <trkpt lat="44.57172" lon="2.65377">
        <ele>382</ele>
        <time>2012-06-11T09:07:53Z</time>
      </trkpt>
      <trkpt lat="44.57174" lon="2.65375">
        <ele>382</ele>
        <time>2012-06-11T09:07:54Z</time>
      </trkpt>
      <trkpt lat="44.57175" lon="2.65374">
        <ele>382</ele>
        <time>2012-06-11T09:07:55Z</time>
      </trkpt>
      <trkpt lat="44.57177" lon="2.65373">
        <ele>382</ele>
        <time>2012-06-11T09:07:56Z</time>
      </trkpt>
      <trkpt lat="44.57178" lon="2.65372">
        <ele>382</ele>
        <time>2012-06-11T09:07:57Z</time>
      </trkpt>
      <trkpt lat="44.5718" lon="2.6537">
        <ele>382</ele>
        <time>2012-06-11T09:07:59Z</time>
      </trkpt>
      <trkpt lat="44.57182" lon="2.65369">
        <ele>382</ele>
        <time>2012-06-11T09:08:00Z</time>
      </trkpt>
      <trkpt lat="44.57183" lon="2.65368">
        <ele>382</ele>
        <time>2012-06-11T09:08:01Z</time>
      </trkpt>
      <trkpt lat="44.57184" lon="2.65367">
        <ele>382</ele>
        <time>2012-06-11T09:08:02Z</time>
      </trkpt>
      <trkpt lat="44.57185" lon="2.65366">
        <ele>382</ele>
        <time>2012-06-11T09:08:03Z</time>
      </trkpt>
      <trkpt lat="44.57187" lon="2.65366">
        <ele>381</ele>
        <time>2012-06-11T09:08:04Z</time>
      </trkpt>
      <trkpt lat="44.57188" lon="2.65366">
        <ele>381</ele>
        <time>2012-06-11T09:08:05Z</time>
      </trkpt>
      <trkpt lat="44.5719" lon="2.65366">
        <ele>380</ele>
        <time>2012-06-11T09:08:06Z</time>
      </trkpt>
      <trkpt lat="44.57191" lon="2.65365">
        <ele>380</ele>
        <time>2012-06-11T09:08:07Z</time>
      </trkpt>
      <trkpt lat="44.57194" lon="2.65364">
        <ele>379</ele>
        <time>2012-06-11T09:08:09Z</time>
      </trkpt>
      <trkpt lat="44.57195" lon="2.65364">
        <ele>379</ele>
        <time>2012-06-11T09:08:10Z</time>
      </trkpt>
      <trkpt lat="44.57196" lon="2.65365">
        <ele>378</ele>
        <time>2012-06-11T09:08:11Z</time>
      </trkpt>
      <trkpt lat="44.57198" lon="2.65365">
        <ele>378</ele>
        <time>2012-06-11T09:08:12Z</time>
      </trkpt>
      <trkpt lat="44.572" lon="2.65366">
        <ele>377</ele>
        <time>2012-06-11T09:08:13Z</time>
      </trkpt>
      <trkpt lat="44.57201" lon="2.65367">
        <ele>377</ele>
        <time>2012-06-11T09:08:14Z</time>
      </trkpt>
      <trkpt lat="44.57201" lon="2.65366">
        <ele>376</ele>
        <time>2012-06-11T09:08:17Z</time>
      </trkpt>
      <trkpt lat="44.57203" lon="2.65365">
        <ele>376</ele>
        <time>2012-06-11T09:08:21Z</time>
      </trkpt>
      <trkpt lat="44.57204" lon="2.65366">
        <ele>375</ele>
        <time>2012-06-11T09:08:22Z</time>
      </trkpt>
      <trkpt lat="44.57206" lon="2.65367">
        <ele>375</ele>
        <time>2012-06-11T09:08:23Z</time>
      </trkpt>
      <trkpt lat="44.57207" lon="2.65368">
        <ele>374</ele>
        <time>2012-06-11T09:08:24Z</time>
      </trkpt>
      <trkpt lat="44.57208" lon="2.6537">
        <ele>373</ele>
        <time>2012-06-11T09:08:26Z</time>
      </trkpt>
      <trkpt lat="44.5721" lon="2.65371">
        <ele>373</ele>
        <time>2012-06-11T09:08:31Z</time>
      </trkpt>
      <trkpt lat="44.5721" lon="2.65373">
        <ele>373</ele>
        <time>2012-06-11T09:08:34Z</time>
      </trkpt>
      <trkpt lat="44.57209" lon="2.65375">
        <ele>373</ele>
        <time>2012-06-11T09:08:38Z</time>
      </trkpt>
      <trkpt lat="44.5721" lon="2.65375">
        <ele>373</ele>
        <time>2012-06-11T09:08:45Z</time>
      </trkpt>
      <trkpt lat="44.57212" lon="2.65374">
        <ele>373</ele>
        <time>2012-06-11T09:08:55Z</time>
      </trkpt>
      <trkpt lat="44.57212" lon="2.65372">
        <ele>373</ele>
        <time>2012-06-11T09:08:57Z</time>
      </trkpt>
      <trkpt lat="44.57211" lon="2.65372">
        <ele>373</ele>
        <time>2012-06-11T09:09:15Z</time>
      </trkpt>
      <trkpt lat="44.57212" lon="2.65373">
        <ele>374</ele>
        <time>2012-06-11T09:09:19Z</time>
      </trkpt>
      <trkpt lat="44.57214" lon="2.65373">
        <ele>374</ele>
        <time>2012-06-11T09:09:26Z</time>
      </trkpt>
      <trkpt lat="44.57215" lon="2.65375">
        <ele>374</ele>
        <time>2012-06-11T09:09:30Z</time>
      </trkpt>
      <trkpt lat="44.57216" lon="2.65375">
        <ele>374</ele>
        <time>2012-06-11T09:09:33Z</time>
      </trkpt>
      <trkpt lat="44.57218" lon="2.65377">
        <ele>374</ele>
        <time>2012-06-11T09:09:35Z</time>
      </trkpt>
      <trkpt lat="44.57219" lon="2.65378">
        <ele>374</ele>
        <time>2012-06-11T09:09:37Z</time>
      </trkpt>
      <trkpt lat="44.57221" lon="2.65379">
        <ele>374</ele>
        <time>2012-06-11T09:09:38Z</time>
      </trkpt>
      <trkpt lat="44.57224" lon="2.6538">
        <ele>374</ele>
        <time>2012-06-11T09:09:40Z</time>
      </trkpt>
      <trkpt lat="44.57225" lon="2.65381">
        <ele>374</ele>
        <time>2012-06-11T09:09:41Z</time>
      </trkpt>
      <trkpt lat="44.57226" lon="2.65383">
        <ele>374</ele>
        <time>2012-06-11T09:09:42Z</time>
      </trkpt>
      <trkpt lat="44.57228" lon="2.65385">
        <ele>374</ele>
        <time>2012-06-11T09:09:43Z</time>
      </trkpt>
      <trkpt lat="44.5723" lon="2.65386">
        <ele>374</ele>
        <time>2012-06-11T09:09:44Z</time>
      </trkpt>
      <trkpt lat="44.57232" lon="2.65387">
        <ele>374</ele>
        <time>2012-06-11T09:09:46Z</time>
      </trkpt>
      <trkpt lat="44.57235" lon="2.65389">
        <ele>374</ele>
        <time>2012-06-11T09:09:49Z</time>
      </trkpt>
      <trkpt lat="44.57236" lon="2.65391">
        <ele>374</ele>
        <time>2012-06-11T09:09:50Z</time>
      </trkpt>
      <trkpt lat="44.57238" lon="2.65392">
        <ele>373</ele>
        <time>2012-06-11T09:09:52Z</time>
      </trkpt>
      <trkpt lat="44.5724" lon="2.65395">
        <ele>372</ele>
        <time>2012-06-11T09:09:54Z</time>
      </trkpt>
      <trkpt lat="44.57241" lon="2.65397">
        <ele>372</ele>
        <time>2012-06-11T09:09:55Z</time>
      </trkpt>
      <trkpt lat="44.57243" lon="2.65399">
        <ele>372</ele>
        <time>2012-06-11T09:09:56Z</time>
      </trkpt>
      <trkpt lat="44.57246" lon="2.654">
        <ele>372</ele>
        <time>2012-06-11T09:09:57Z</time>
      </trkpt>
      <trkpt lat="44.57247" lon="2.65401">
        <ele>372</ele>
        <time>2012-06-11T09:09:58Z</time>
      </trkpt>
      <trkpt lat="44.57249" lon="2.65402">
        <ele>372</ele>
        <time>2012-06-11T09:09:59Z</time>
      </trkpt>
      <trkpt lat="44.57252" lon="2.65402">
        <ele>372</ele>
        <time>2012-06-11T09:10:00Z</time>
      </trkpt>
      <trkpt lat="44.57254" lon="2.65403">
        <ele>372</ele>
        <time>2012-06-11T09:10:01Z</time>
      </trkpt>
      <trkpt lat="44.57255" lon="2.65405">
        <ele>372</ele>
        <time>2012-06-11T09:10:02Z</time>
      </trkpt>
      <trkpt lat="44.57257" lon="2.65406">
        <ele>372</ele>
        <time>2012-06-11T09:10:04Z</time>
      </trkpt>
      <trkpt lat="44.57258" lon="2.65406">
        <ele>372</ele>
        <time>2012-06-11T09:10:05Z</time>
      </trkpt>
      <trkpt lat="44.5726" lon="2.65406">
        <ele>372</ele>
        <time>2012-06-11T09:10:06Z</time>
      </trkpt>
      <trkpt lat="44.57262" lon="2.65405">
        <ele>372</ele>
        <time>2012-06-11T09:10:08Z</time>
      </trkpt>
      <trkpt lat="44.57261" lon="2.654">
        <ele>372</ele>
        <time>2012-06-11T09:10:20Z</time>
      </trkpt>
      <trkpt lat="44.57259" lon="2.65394">
        <ele>372</ele>
        <time>2012-06-11T09:10:41Z</time>
      </trkpt>
      <trkpt lat="44.57259" lon="2.65392">
        <ele>372</ele>
        <time>2012-06-11T09:10:42Z</time>
      </trkpt>
      <trkpt lat="44.57257" lon="2.6539">
        <ele>372</ele>
        <time>2012-06-11T09:10:43Z</time>
      </trkpt>
      <trkpt lat="44.57256" lon="2.65388">
        <ele>372</ele>
        <time>2012-06-11T09:10:44Z</time>
      </trkpt>
      <trkpt lat="44.57255" lon="2.65387">
        <ele>372</ele>
        <time>2012-06-11T09:10:45Z</time>
      </trkpt>
      <trkpt lat="44.57255" lon="2.65385">
        <ele>372</ele>
        <time>2012-06-11T09:10:46Z</time>
      </trkpt>
      <trkpt lat="44.57254" lon="2.65383">
        <ele>372</ele>
        <time>2012-06-11T09:10:47Z</time>
      </trkpt>
      <trkpt lat="44.57253" lon="2.65381">
        <ele>372</ele>
        <time>2012-06-11T09:10:48Z</time>
      </trkpt>
      <trkpt lat="44.57252" lon="2.65376">
        <ele>372</ele>
        <time>2012-06-11T09:10:50Z</time>
      </trkpt>
      <trkpt lat="44.57251" lon="2.65371">
        <ele>372</ele>
        <time>2012-06-11T09:10:52Z</time>
      </trkpt>
      <trkpt lat="44.57251" lon="2.65368">
        <ele>372</ele>
        <time>2012-06-11T09:10:54Z</time>
      </trkpt>
      <trkpt lat="44.5725" lon="2.65366">
        <ele>372</ele>
        <time>2012-06-11T09:10:55Z</time>
      </trkpt>
      <trkpt lat="44.5725" lon="2.65363">
        <ele>372</ele>
        <time>2012-06-11T09:10:56Z</time>
      </trkpt>
      <trkpt lat="44.57249" lon="2.65361">
        <ele>372</ele>
        <time>2012-06-11T09:10:57Z</time>
      </trkpt>
      <trkpt lat="44.57248" lon="2.6536">
        <ele>372</ele>
        <time>2012-06-11T09:10:58Z</time>
      </trkpt>
      <trkpt lat="44.57246" lon="2.65358">
        <ele>372</ele>
        <time>2012-06-11T09:10:59Z</time>
      </trkpt>
      <trkpt lat="44.57245" lon="2.65356">
        <ele>372</ele>
        <time>2012-06-11T09:11:01Z</time>
      </trkpt>
      <trkpt lat="44.57246" lon="2.65357">
        <ele>372</ele>
        <time>2012-06-11T09:11:06Z</time>
      </trkpt>
      <trkpt lat="44.57248" lon="2.65358">
        <ele>372</ele>
        <time>2012-06-11T09:11:08Z</time>
      </trkpt>
      <trkpt lat="44.57249" lon="2.65359">
        <ele>372</ele>
        <time>2012-06-11T09:11:10Z</time>
      </trkpt>
      <trkpt lat="44.5725" lon="2.65361">
        <ele>371</ele>
        <time>2012-06-11T09:11:12Z</time>
      </trkpt>
      <trkpt lat="44.57252" lon="2.65362">
        <ele>369</ele>
        <time>2012-06-11T09:11:14Z</time>
      </trkpt>
      <trkpt lat="44.57254" lon="2.65361">
        <ele>367</ele>
        <time>2012-06-11T09:11:16Z</time>
      </trkpt>
      <trkpt lat="44.57254" lon="2.65359">
        <ele>365</ele>
        <time>2012-06-11T09:11:19Z</time>
      </trkpt>
      <trkpt lat="44.57253" lon="2.65355">
        <ele>365</ele>
        <time>2012-06-11T09:11:22Z</time>
      </trkpt>
      <trkpt lat="44.57252" lon="2.65353">
        <ele>365</ele>
        <time>2012-06-11T09:11:23Z</time>
      </trkpt>
      <trkpt lat="44.57251" lon="2.65351">
        <ele>365</ele>
        <time>2012-06-11T09:11:25Z</time>
      </trkpt>
      <trkpt lat="44.5725" lon="2.6535">
        <ele>365</ele>
        <time>2012-06-11T09:11:26Z</time>
      </trkpt>
      <trkpt lat="44.57248" lon="2.65349">
        <ele>365</ele>
        <time>2012-06-11T09:11:28Z</time>
      </trkpt>
      <trkpt lat="44.57247" lon="2.65346">
        <ele>365</ele>
        <time>2012-06-11T09:11:30Z</time>
      </trkpt>
      <trkpt lat="44.57247" lon="2.65344">
        <ele>365</ele>
        <time>2012-06-11T09:11:31Z</time>
      </trkpt>
      <trkpt lat="44.57246" lon="2.65342">
        <ele>365</ele>
        <time>2012-06-11T09:11:33Z</time>
      </trkpt>
      <trkpt lat="44.57245" lon="2.65339">
        <ele>366</ele>
        <time>2012-06-11T09:11:35Z</time>
      </trkpt>
      <trkpt lat="44.57243" lon="2.65338">
        <ele>368</ele>
        <time>2012-06-11T09:11:37Z</time>
      </trkpt>
      <trkpt lat="44.57241" lon="2.65336">
        <ele>370</ele>
        <time>2012-06-11T09:11:39Z</time>
      </trkpt>
      <trkpt lat="44.57241" lon="2.65334">
        <ele>370</ele>
        <time>2012-06-11T09:11:40Z</time>
      </trkpt>
      <trkpt lat="44.57239" lon="2.65332">
        <ele>372</ele>
        <time>2012-06-11T09:11:42Z</time>
      </trkpt>
      <trkpt lat="44.57237" lon="2.65329">
        <ele>374</ele>
        <time>2012-06-11T09:11:44Z</time>
      </trkpt>
      <trkpt lat="44.57236" lon="2.65328">
        <ele>375</ele>
        <time>2012-06-11T09:11:45Z</time>
      </trkpt>
      <trkpt lat="44.57235" lon="2.65326">
        <ele>376</ele>
        <time>2012-06-11T09:11:47Z</time>
      </trkpt>
      <trkpt lat="44.57233" lon="2.65325">
        <ele>378</ele>
        <time>2012-06-11T09:11:49Z</time>
      </trkpt>
      <trkpt lat="44.57231" lon="2.65324">
        <ele>378</ele>
        <time>2012-06-11T09:11:50Z</time>
      </trkpt>
      <trkpt lat="44.57229" lon="2.65322">
        <ele>379</ele>
        <time>2012-06-11T09:11:52Z</time>
      </trkpt>
      <trkpt lat="44.57227" lon="2.65319">
        <ele>380</ele>
        <time>2012-06-11T09:11:54Z</time>
      </trkpt>
      <trkpt lat="44.57226" lon="2.65319">
        <ele>381</ele>
        <time>2012-06-11T09:11:55Z</time>
      </trkpt>
      <trkpt lat="44.57225" lon="2.65317">
        <ele>381</ele>
        <time>2012-06-11T09:11:56Z</time>
      </trkpt>
      <trkpt lat="44.57223" lon="2.65317">
        <ele>381</ele>
        <time>2012-06-11T09:11:57Z</time>
      </trkpt>
      <trkpt lat="44.57222" lon="2.65316">
        <ele>381</ele>
        <time>2012-06-11T09:11:58Z</time>
      </trkpt>
      <trkpt lat="44.5722" lon="2.65314">
        <ele>381</ele>
        <time>2012-06-11T09:12:00Z</time>
      </trkpt>
      <trkpt lat="44.57219" lon="2.65314">
        <ele>381</ele>
        <time>2012-06-11T09:12:01Z</time>
      </trkpt>
      <trkpt lat="44.57217" lon="2.65314">
        <ele>381</ele>
        <time>2012-06-11T09:12:02Z</time>
      </trkpt>
      <trkpt lat="44.57216" lon="2.65312">
        <ele>381</ele>
        <time>2012-06-11T09:12:03Z</time>
      </trkpt>
      <trkpt lat="44.57214" lon="2.65311">
        <ele>381</ele>
        <time>2012-06-11T09:12:04Z</time>
      </trkpt>
      <trkpt lat="44.57213" lon="2.65311">
        <ele>380</ele>
        <time>2012-06-11T09:12:05Z</time>
      </trkpt>
      <trkpt lat="44.57212" lon="2.65311">
        <ele>379</ele>
        <time>2012-06-11T09:12:06Z</time>
      </trkpt>
      <trkpt lat="44.5721" lon="2.65311">
        <ele>378</ele>
        <time>2012-06-11T09:12:07Z</time>
      </trkpt>
      <trkpt lat="44.57208" lon="2.65312">
        <ele>377</ele>
        <time>2012-06-11T09:12:08Z</time>
      </trkpt>
      <trkpt lat="44.57206" lon="2.65312">
        <ele>376</ele>
        <time>2012-06-11T09:12:09Z</time>
      </trkpt>
      <trkpt lat="44.57205" lon="2.65313">
        <ele>375</ele>
        <time>2012-06-11T09:12:10Z</time>
      </trkpt>
      <trkpt lat="44.57203" lon="2.65313">
        <ele>375</ele>
        <time>2012-06-11T09:12:11Z</time>
      </trkpt>
      <trkpt lat="44.57201" lon="2.65314">
        <ele>374</ele>
        <time>2012-06-11T09:12:12Z</time>
      </trkpt>
      <trkpt lat="44.572" lon="2.65315">
        <ele>374</ele>
        <time>2012-06-11T09:12:13Z</time>
      </trkpt>
      <trkpt lat="44.57198" lon="2.65315">
        <ele>373</ele>
        <time>2012-06-11T09:12:14Z</time>
      </trkpt>
      <trkpt lat="44.57197" lon="2.65314">
        <ele>372</ele>
        <time>2012-06-11T09:12:15Z</time>
      </trkpt>
      <trkpt lat="44.57195" lon="2.65314">
        <ele>371</ele>
        <time>2012-06-11T09:12:16Z</time>
      </trkpt>
      <trkpt lat="44.57194" lon="2.65313">
        <ele>370</ele>
        <time>2012-06-11T09:12:17Z</time>
      </trkpt>
      <trkpt lat="44.57193" lon="2.65312">
        <ele>369</ele>
        <time>2012-06-11T09:12:18Z</time>
      </trkpt>
      <trkpt lat="44.57191" lon="2.65311">
        <ele>368</ele>
        <time>2012-06-11T09:12:19Z</time>
      </trkpt>
      <trkpt lat="44.5719" lon="2.65311">
        <ele>367</ele>
        <time>2012-06-11T09:12:20Z</time>
      </trkpt>
      <trkpt lat="44.57188" lon="2.6531">
        <ele>366</ele>
        <time>2012-06-11T09:12:21Z</time>
      </trkpt>
      <trkpt lat="44.57186" lon="2.65309">
        <ele>364</ele>
        <time>2012-06-11T09:12:23Z</time>
      </trkpt>
      <trkpt lat="44.57184" lon="2.65307">
        <ele>363</ele>
        <time>2012-06-11T09:12:24Z</time>
      </trkpt>
      <trkpt lat="44.57183" lon="2.65307">
        <ele>363</ele>
        <time>2012-06-11T09:12:25Z</time>
      </trkpt>
      <trkpt lat="44.57182" lon="2.65307">
        <ele>362</ele>
        <time>2012-06-11T09:12:26Z</time>
      </trkpt>
      <trkpt lat="44.57181" lon="2.65308">
        <ele>359</ele>
        <time>2012-06-11T09:12:29Z</time>
      </trkpt>
      <trkpt lat="44.5718" lon="2.65307">
        <ele>358</ele>
        <time>2012-06-11T09:12:31Z</time>
      </trkpt>
      <trkpt lat="44.57178" lon="2.65305">
        <ele>357</ele>
        <time>2012-06-11T09:12:32Z</time>
      </trkpt>
      <trkpt lat="44.57177" lon="2.65304">
        <ele>357</ele>
        <time>2012-06-11T09:12:33Z</time>
      </trkpt>
      <trkpt lat="44.57175" lon="2.65302">
        <ele>357</ele>
        <time>2012-06-11T09:12:35Z</time>
      </trkpt>
      <trkpt lat="44.57174" lon="2.65301">
        <ele>357</ele>
        <time>2012-06-11T09:12:36Z</time>
      </trkpt>
      <trkpt lat="44.57172" lon="2.65299">
        <ele>357</ele>
        <time>2012-06-11T09:12:38Z</time>
      </trkpt>
      <trkpt lat="44.5717" lon="2.65297">
        <ele>357</ele>
        <time>2012-06-11T09:12:40Z</time>
      </trkpt>
      <trkpt lat="44.57168" lon="2.65296">
        <ele>357</ele>
        <time>2012-06-11T09:12:42Z</time>
      </trkpt>
      <trkpt lat="44.57167" lon="2.65297">
        <ele>357</ele>
        <time>2012-06-11T09:12:43Z</time>
      </trkpt>
      <trkpt lat="44.57165" lon="2.65296">
        <ele>357</ele>
        <time>2012-06-11T09:12:44Z</time>
      </trkpt>
      <trkpt lat="44.57164" lon="2.65295">
        <ele>357</ele>
        <time>2012-06-11T09:12:45Z</time>
      </trkpt>
      <trkpt lat="44.57162" lon="2.65295">
        <ele>357</ele>
        <time>2012-06-11T09:12:46Z</time>
      </trkpt>
      <trkpt lat="44.5716" lon="2.65293">
        <ele>357</ele>
        <time>2012-06-11T09:12:47Z</time>
      </trkpt>
      <trkpt lat="44.57158" lon="2.65292">
        <ele>357</ele>
        <time>2012-06-11T09:12:48Z</time>
      </trkpt>
      <trkpt lat="44.57156" lon="2.65291">
        <ele>357</ele>
        <time>2012-06-11T09:12:49Z</time>
      </trkpt>
      <trkpt lat="44.57155" lon="2.6529">
        <ele>357</ele>
        <time>2012-06-11T09:12:50Z</time>
      </trkpt>
      <trkpt lat="44.57154" lon="2.65289">
        <ele>357</ele>
        <time>2012-06-11T09:12:51Z</time>
      </trkpt>
      <trkpt lat="44.57153" lon="2.65289">
        <ele>357</ele>
        <time>2012-06-11T09:12:52Z</time>
      </trkpt>
      <trkpt lat="44.57151" lon="2.65287">
        <ele>357</ele>
        <time>2012-06-11T09:12:53Z</time>
      </trkpt>
      <trkpt lat="44.5715" lon="2.65287">
        <ele>357</ele>
        <time>2012-06-11T09:12:54Z</time>
      </trkpt>
      <trkpt lat="44.57149" lon="2.65286">
        <ele>357</ele>
        <time>2012-06-11T09:12:55Z</time>
      </trkpt>
      <trkpt lat="44.57146" lon="2.65285">
        <ele>357</ele>
        <time>2012-06-11T09:12:57Z</time>
      </trkpt>
      <trkpt lat="44.57144" lon="2.65285">
        <ele>357</ele>
        <time>2012-06-11T09:12:59Z</time>
      </trkpt>
      <trkpt lat="44.57142" lon="2.65283">
        <ele>357</ele>
        <time>2012-06-11T09:13:01Z</time>
      </trkpt>
      <trkpt lat="44.57141" lon="2.65282">
        <ele>356</ele>
        <time>2012-06-11T09:13:02Z</time>
      </trkpt>
      <trkpt lat="44.57138" lon="2.65282">
        <ele>355</ele>
        <time>2012-06-11T09:13:04Z</time>
      </trkpt>
      <trkpt lat="44.57137" lon="2.65281">
        <ele>355</ele>
        <time>2012-06-11T09:13:05Z</time>
      </trkpt>
      <trkpt lat="44.57136" lon="2.65281">
        <ele>354</ele>
        <time>2012-06-11T09:13:06Z</time>
      </trkpt>
      <trkpt lat="44.57134" lon="2.6528">
        <ele>354</ele>
        <time>2012-06-11T09:13:07Z</time>
      </trkpt>
      <trkpt lat="44.57133" lon="2.6528">
        <ele>354</ele>
        <time>2012-06-11T09:13:08Z</time>
      </trkpt>
      <trkpt lat="44.5713" lon="2.65277">
        <ele>354</ele>
        <time>2012-06-11T09:13:10Z</time>
      </trkpt>
      <trkpt lat="44.57129" lon="2.65275">
        <ele>354</ele>
        <time>2012-06-11T09:13:12Z</time>
      </trkpt>
      <trkpt lat="44.57127" lon="2.65274">
        <ele>354</ele>
        <time>2012-06-11T09:13:13Z</time>
      </trkpt>
      <trkpt lat="44.57125" lon="2.65272">
        <ele>354</ele>
        <time>2012-06-11T09:13:15Z</time>
      </trkpt>
      <trkpt lat="44.57123" lon="2.6527">
        <ele>354</ele>
        <time>2012-06-11T09:13:17Z</time>
      </trkpt>
      <trkpt lat="44.57122" lon="2.65269">
        <ele>354</ele>
        <time>2012-06-11T09:13:18Z</time>
      </trkpt>
      <trkpt lat="44.5712" lon="2.65267">
        <ele>354</ele>
        <time>2012-06-11T09:13:20Z</time>
      </trkpt>
      <trkpt lat="44.57119" lon="2.65266">
        <ele>354</ele>
        <time>2012-06-11T09:13:21Z</time>
      </trkpt>
      <trkpt lat="44.57117" lon="2.65264">
        <ele>354</ele>
        <time>2012-06-11T09:13:22Z</time>
      </trkpt>
      <trkpt lat="44.57116" lon="2.65262">
        <ele>354</ele>
        <time>2012-06-11T09:13:23Z</time>
      </trkpt>
      <trkpt lat="44.57115" lon="2.6526">
        <ele>354</ele>
        <time>2012-06-11T09:13:24Z</time>
      </trkpt>
      <trkpt lat="44.57114" lon="2.65258">
        <ele>354</ele>
        <time>2012-06-11T09:13:26Z</time>
      </trkpt>
      <trkpt lat="44.57113" lon="2.65256">
        <ele>354</ele>
        <time>2012-06-11T09:13:27Z</time>
      </trkpt>
      <trkpt lat="44.57112" lon="2.65255">
        <ele>354</ele>
        <time>2012-06-11T09:13:28Z</time>
      </trkpt>
      <trkpt lat="44.5711" lon="2.65255">
        <ele>354</ele>
        <time>2012-06-11T09:13:29Z</time>
      </trkpt>
      <trkpt lat="44.57109" lon="2.65253">
        <ele>354</ele>
        <time>2012-06-11T09:13:30Z</time>
      </trkpt>
      <trkpt lat="44.57107" lon="2.65251">
        <ele>354</ele>
        <time>2012-06-11T09:13:31Z</time>
      </trkpt>
      <trkpt lat="44.57106" lon="2.6525">
        <ele>354</ele>
        <time>2012-06-11T09:13:32Z</time>
      </trkpt>
      <trkpt lat="44.57104" lon="2.6525">
        <ele>354</ele>
        <time>2012-06-11T09:13:33Z</time>
      </trkpt>
      <trkpt lat="44.57103" lon="2.65249">
        <ele>354</ele>
        <time>2012-06-11T09:13:34Z</time>
      </trkpt>
      <trkpt lat="44.57101" lon="2.65245">
        <ele>354</ele>
        <time>2012-06-11T09:13:36Z</time>
      </trkpt>
      <trkpt lat="44.57101" lon="2.65242">
        <ele>354</ele>
        <time>2012-06-11T09:13:37Z</time>
      </trkpt>
      <trkpt lat="44.571" lon="2.6524">
        <ele>354</ele>
        <time>2012-06-11T09:13:38Z</time>
      </trkpt>
      <trkpt lat="44.57099" lon="2.65238">
        <ele>354</ele>
        <time>2012-06-11T09:13:39Z</time>
      </trkpt>
      <trkpt lat="44.57098" lon="2.65236">
        <ele>354</ele>
        <time>2012-06-11T09:13:40Z</time>
      </trkpt>
      <trkpt lat="44.57096" lon="2.65233">
        <ele>353</ele>
        <time>2012-06-11T09:13:41Z</time>
      </trkpt>
      <trkpt lat="44.57095" lon="2.65232">
        <ele>353</ele>
        <time>2012-06-11T09:13:42Z</time>
      </trkpt>
      <trkpt lat="44.57094" lon="2.6523">
        <ele>352</ele>
        <time>2012-06-11T09:13:43Z</time>
      </trkpt>
      <trkpt lat="44.57093" lon="2.65228">
        <ele>352</ele>
        <time>2012-06-11T09:13:44Z</time>
      </trkpt>
      <trkpt lat="44.57092" lon="2.65226">
        <ele>351</ele>
        <time>2012-06-11T09:13:45Z</time>
      </trkpt>
      <trkpt lat="44.5709" lon="2.65223">
        <ele>350</ele>
        <time>2012-06-11T09:13:47Z</time>
      </trkpt>
      <trkpt lat="44.57088" lon="2.65221">
        <ele>350</ele>
        <time>2012-06-11T09:13:48Z</time>
      </trkpt>
      <trkpt lat="44.57087" lon="2.65219">
        <ele>349</ele>
        <time>2012-06-11T09:13:49Z</time>
      </trkpt>
      <trkpt lat="44.57086" lon="2.65217">
        <ele>348</ele>
        <time>2012-06-11T09:13:50Z</time>
      </trkpt>
      <trkpt lat="44.57084" lon="2.65215">
        <ele>347</ele>
        <time>2012-06-11T09:13:51Z</time>
      </trkpt>
      <trkpt lat="44.57084" lon="2.65212">
        <ele>347</ele>
        <time>2012-06-11T09:13:52Z</time>
      </trkpt>
      <trkpt lat="44.57082" lon="2.65211">
        <ele>347</ele>
        <time>2012-06-11T09:13:53Z</time>
      </trkpt>
      <trkpt lat="44.57081" lon="2.65208">
        <ele>347</ele>
        <time>2012-06-11T09:13:54Z</time>
      </trkpt>
      <trkpt lat="44.5708" lon="2.65207">
        <ele>346</ele>
        <time>2012-06-11T09:13:55Z</time>
      </trkpt>
      <trkpt lat="44.57079" lon="2.65206">
        <ele>346</ele>
        <time>2012-06-11T09:13:56Z</time>
      </trkpt>
      <trkpt lat="44.57078" lon="2.65204">
        <ele>346</ele>
        <time>2012-06-11T09:13:57Z</time>
      </trkpt>
      <trkpt lat="44.57077" lon="2.65202">
        <ele>346</ele>
        <time>2012-06-11T09:13:58Z</time>
      </trkpt>
      <trkpt lat="44.57075" lon="2.652">
        <ele>345</ele>
        <time>2012-06-11T09:13:59Z</time>
      </trkpt>
      <trkpt lat="44.57073" lon="2.65198">
        <ele>344</ele>
        <time>2012-06-11T09:14:01Z</time>
      </trkpt>
      <trkpt lat="44.57072" lon="2.65197">
        <ele>344</ele>
        <time>2012-06-11T09:14:02Z</time>
      </trkpt>
      <trkpt lat="44.5707" lon="2.65196">
        <ele>343</ele>
        <time>2012-06-11T09:14:03Z</time>
      </trkpt>
      <trkpt lat="44.57069" lon="2.65195">
        <ele>342</ele>
        <time>2012-06-11T09:14:04Z</time>
      </trkpt>
      <trkpt lat="44.57067" lon="2.65194">
        <ele>341</ele>
        <time>2012-06-11T09:14:05Z</time>
      </trkpt>
      <trkpt lat="44.57066" lon="2.65192">
        <ele>341</ele>
        <time>2012-06-11T09:14:06Z</time>
      </trkpt>
      <trkpt lat="44.57064" lon="2.65191">
        <ele>340</ele>
        <time>2012-06-11T09:14:07Z</time>
      </trkpt>
      <trkpt lat="44.57062" lon="2.6519">
        <ele>339</ele>
        <time>2012-06-11T09:14:08Z</time>
      </trkpt>
      <trkpt lat="44.5706" lon="2.6519">
        <ele>338</ele>
        <time>2012-06-11T09:14:09Z</time>
      </trkpt>
      <trkpt lat="44.57059" lon="2.65189">
        <ele>337</ele>
        <time>2012-06-11T09:14:10Z</time>
      </trkpt>
      <trkpt lat="44.57058" lon="2.65188">
        <ele>336</ele>
        <time>2012-06-11T09:14:11Z</time>
      </trkpt>
      <trkpt lat="44.57055" lon="2.65185">
        <ele>334</ele>
        <time>2012-06-11T09:14:13Z</time>
      </trkpt>
      <trkpt lat="44.57054" lon="2.65185">
        <ele>334</ele>
        <time>2012-06-11T09:14:14Z</time>
      </trkpt>
      <trkpt lat="44.57053" lon="2.65183">
        <ele>333</ele>
        <time>2012-06-11T09:14:15Z</time>
      </trkpt>
      <trkpt lat="44.57051" lon="2.65182">
        <ele>333</ele>
        <time>2012-06-11T09:14:16Z</time>
      </trkpt>
      <trkpt lat="44.57049" lon="2.65181">
        <ele>332</ele>
        <time>2012-06-11T09:14:18Z</time>
      </trkpt>
      <trkpt lat="44.57048" lon="2.6518">
        <ele>331</ele>
        <time>2012-06-11T09:14:20Z</time>
      </trkpt>
      <trkpt lat="44.57047" lon="2.65179">
        <ele>328</ele>
        <time>2012-06-11T09:14:30Z</time>
      </trkpt>
      <trkpt lat="44.57046" lon="2.65178">
        <ele>328</ele>
        <time>2012-06-11T09:14:32Z</time>
      </trkpt>
      <trkpt lat="44.57045" lon="2.65176">
        <ele>327</ele>
        <time>2012-06-11T09:14:33Z</time>
      </trkpt>
      <trkpt lat="44.57045" lon="2.65174">
        <ele>327</ele>
        <time>2012-06-11T09:14:34Z</time>
      </trkpt>
      <trkpt lat="44.57044" lon="2.65172">
        <ele>327</ele>
        <time>2012-06-11T09:14:35Z</time>
      </trkpt>
      <trkpt lat="44.57044" lon="2.65169">
        <ele>327</ele>
        <time>2012-06-11T09:14:36Z</time>
      </trkpt>
      <trkpt lat="44.57043" lon="2.65165">
        <ele>327</ele>
        <time>2012-06-11T09:14:39Z</time>
      </trkpt>
      <trkpt lat="44.57045" lon="2.65162">
        <ele>327</ele>
        <time>2012-06-11T09:14:44Z</time>
      </trkpt>
      <trkpt lat="44.57046" lon="2.65161">
        <ele>327</ele>
        <time>2012-06-11T09:14:45Z</time>
      </trkpt>
      <trkpt lat="44.57048" lon="2.65158">
        <ele>327</ele>
        <time>2012-06-11T09:14:47Z</time>
      </trkpt>
      <trkpt lat="44.57049" lon="2.65156">
        <ele>327</ele>
        <time>2012-06-11T09:14:49Z</time>
      </trkpt>
      <trkpt lat="44.5705" lon="2.65153">
        <ele>326</ele>
        <time>2012-06-11T09:14:51Z</time>
      </trkpt>
      <trkpt lat="44.57052" lon="2.6515">
        <ele>326</ele>
        <time>2012-06-11T09:14:53Z</time>
      </trkpt>
      <trkpt lat="44.57053" lon="2.65148">
        <ele>325</ele>
        <time>2012-06-11T09:14:55Z</time>
      </trkpt>
      <trkpt lat="44.57055" lon="2.65145">
        <ele>325</ele>
        <time>2012-06-11T09:14:57Z</time>
      </trkpt>
      <trkpt lat="44.57057" lon="2.65143">
        <ele>325</ele>
        <time>2012-06-11T09:14:59Z</time>
      </trkpt>
      <trkpt lat="44.57058" lon="2.65141">
        <ele>324</ele>
        <time>2012-06-11T09:15:01Z</time>
      </trkpt>
      <trkpt lat="44.57059" lon="2.65139">
        <ele>324</ele>
        <time>2012-06-11T09:15:03Z</time>
      </trkpt>
      <trkpt lat="44.57061" lon="2.65137">
        <ele>324</ele>
        <time>2012-06-11T09:15:05Z</time>
      </trkpt>
      <trkpt lat="44.57062" lon="2.65135">
        <ele>323</ele>
        <time>2012-06-11T09:15:07Z</time>
      </trkpt>
      <trkpt lat="44.57062" lon="2.65133">
        <ele>323</ele>
        <time>2012-06-11T09:15:09Z</time>
      </trkpt>
      <trkpt lat="44.57062" lon="2.65129">
        <ele>323</ele>
        <time>2012-06-11T09:15:13Z</time>
      </trkpt>
      <trkpt lat="44.57061" lon="2.65127">
        <ele>323</ele>
        <time>2012-06-11T09:15:19Z</time>
      </trkpt>
      <trkpt lat="44.57062" lon="2.65125">
        <ele>323</ele>
        <time>2012-06-11T09:15:23Z</time>
      </trkpt>
      <trkpt lat="44.57061" lon="2.65125">
        <ele>323</ele>
        <time>2012-06-11T09:15:26Z</time>
      </trkpt>
      <trkpt lat="44.57061" lon="2.65128">
        <ele>323</ele>
        <time>2012-06-11T09:15:32Z</time>
      </trkpt>
      <trkpt lat="44.57062" lon="2.65127">
        <ele>323</ele>
        <time>2012-06-11T09:15:47Z</time>
      </trkpt>
      <trkpt lat="44.57063" lon="2.65125">
        <ele>324</ele>
        <time>2012-06-11T09:16:09Z</time>
      </trkpt>
      <trkpt lat="44.57063" lon="2.65123">
        <ele>324</ele>
        <time>2012-06-11T09:16:11Z</time>
      </trkpt>
      <trkpt lat="44.57062" lon="2.65122">
        <ele>324</ele>
        <time>2012-06-11T09:16:21Z</time>
      </trkpt>
      <trkpt lat="44.57062" lon="2.65123">
        <ele>324</ele>
        <time>2012-06-11T09:16:22Z</time>
      </trkpt>
      <trkpt lat="44.57061" lon="2.65131">
        <ele>324</ele>
        <time>2012-06-11T09:16:26Z</time>
      </trkpt>
      <trkpt lat="44.5706" lon="2.65132">
        <ele>324</ele>
        <time>2012-06-11T09:16:29Z</time>
      </trkpt>
      <trkpt lat="44.57058" lon="2.65134">
        <ele>324</ele>
        <time>2012-06-11T09:16:38Z</time>
      </trkpt>
      <trkpt lat="44.57057" lon="2.65135">
        <ele>323</ele>
        <time>2012-06-11T09:16:40Z</time>
      </trkpt>
      <trkpt lat="44.57056" lon="2.65136">
        <ele>323</ele>
        <time>2012-06-11T09:16:42Z</time>
      </trkpt>
      <trkpt lat="44.57054" lon="2.65138">
        <ele>322</ele>
        <time>2012-06-11T09:16:45Z</time>
      </trkpt>
      <trkpt lat="44.57053" lon="2.65139">
        <ele>322</ele>
        <time>2012-06-11T09:16:48Z</time>
      </trkpt>
      <trkpt lat="44.57052" lon="2.65141">
        <ele>321</ele>
        <time>2012-06-11T09:16:53Z</time>
      </trkpt>
      <trkpt lat="44.57053" lon="2.65141">
        <ele>319</ele>
        <time>2012-06-11T09:17:00Z</time>
      </trkpt>
      <trkpt lat="44.57053" lon="2.6514">
        <ele>319</ele>
        <time>2012-06-11T09:17:01Z</time>
      </trkpt>
      <trkpt lat="44.57052" lon="2.65137">
        <ele>318</ele>
        <time>2012-06-11T09:17:03Z</time>
      </trkpt>
      <trkpt lat="44.5705" lon="2.65137">
        <ele>318</ele>
        <time>2012-06-11T09:17:04Z</time>
      </trkpt>
      <trkpt lat="44.57049" lon="2.65136">
        <ele>318</ele>
        <time>2012-06-11T09:17:05Z</time>
      </trkpt>
      <trkpt lat="44.57048" lon="2.65137">
        <ele>318</ele>
        <time>2012-06-11T09:17:06Z</time>
      </trkpt>
      <trkpt lat="44.57046" lon="2.65137">
        <ele>318</ele>
        <time>2012-06-11T09:17:08Z</time>
      </trkpt>
      <trkpt lat="44.57047" lon="2.65135">
        <ele>318</ele>
        <time>2012-06-11T09:17:11Z</time>
      </trkpt>
      <trkpt lat="44.57046" lon="2.65133">
        <ele>318</ele>
        <time>2012-06-11T09:17:19Z</time>
      </trkpt>
      <trkpt lat="44.57047" lon="2.65135">
        <ele>318</ele>
        <time>2012-06-11T09:17:24Z</time>
      </trkpt>
      <trkpt lat="44.57048" lon="2.65136">
        <ele>318</ele>
        <time>2012-06-11T09:17:25Z</time>
      </trkpt>
      <trkpt lat="44.57049" lon="2.65138">
        <ele>318</ele>
        <time>2012-06-11T09:17:26Z</time>
      </trkpt>
      <trkpt lat="44.5705" lon="2.65139">
        <ele>318</ele>
        <time>2012-06-11T09:17:27Z</time>
      </trkpt>
      <trkpt lat="44.57052" lon="2.65139">
        <ele>318</ele>
        <time>2012-06-11T09:17:29Z</time>
      </trkpt>
      <trkpt lat="44.57053" lon="2.65139">
        <ele>318</ele>
        <time>2012-06-11T09:17:30Z</time>
      </trkpt>
      <trkpt lat="44.57054" lon="2.65139">
        <ele>318</ele>
        <time>2012-06-11T09:17:31Z</time>
      </trkpt>
      <trkpt lat="44.57056" lon="2.65139">
        <ele>318</ele>
        <time>2012-06-11T09:17:33Z</time>
      </trkpt>
      <trkpt lat="44.57057" lon="2.65138">
        <ele>318</ele>
        <time>2012-06-11T09:17:35Z</time>
      </trkpt>
      <trkpt lat="44.57058" lon="2.65137">
        <ele>318</ele>
        <time>2012-06-11T09:17:37Z</time>
      </trkpt>
      <trkpt lat="44.5706" lon="2.65135">
        <ele>318</ele>
        <time>2012-06-11T09:17:40Z</time>
      </trkpt>
      <trkpt lat="44.57062" lon="2.65133">
        <ele>318</ele>
        <time>2012-06-11T09:17:42Z</time>
      </trkpt>
      <trkpt lat="44.57063" lon="2.6513">
        <ele>319</ele>
        <time>2012-06-11T09:17:44Z</time>
      </trkpt>
      <trkpt lat="44.57063" lon="2.65128">
        <ele>319</ele>
        <time>2012-06-11T09:17:45Z</time>
      </trkpt>
      <trkpt lat="44.57061" lon="2.65129">
        <ele>321</ele>
        <time>2012-06-11T09:18:05Z</time>
      </trkpt>
      <trkpt lat="44.57061" lon="2.65131">
        <ele>324</ele>
        <time>2012-06-11T09:18:29Z</time>
      </trkpt>
      <trkpt lat="44.5706" lon="2.65129">
        <ele>328</ele>
        <time>2012-06-11T09:18:39Z</time>
      </trkpt>
      <trkpt lat="44.57059" lon="2.65129">
        <ele>328</ele>
        <time>2012-06-11T09:18:43Z</time>
      </trkpt>
      <trkpt lat="44.57058" lon="2.6513">
        <ele>328</ele>
        <time>2012-06-11T09:18:49Z</time>
      </trkpt>
      <trkpt lat="44.57057" lon="2.65132">
        <ele>329</ele>
        <time>2012-06-11T09:18:53Z</time>
      </trkpt>
      <trkpt lat="44.57057" lon="2.65134">
        <ele>329</ele>
        <time>2012-06-11T09:18:54Z</time>
      </trkpt>
      <trkpt lat="44.57056" lon="2.65136">
        <ele>330</ele>
        <time>2012-06-11T09:18:55Z</time>
      </trkpt>
      <trkpt lat="44.57055" lon="2.65137">
        <ele>330</ele>
        <time>2012-06-11T09:18:56Z</time>
      </trkpt>
      <trkpt lat="44.57054" lon="2.65139">
        <ele>330</ele>
        <time>2012-06-11T09:18:57Z</time>
      </trkpt>
      <trkpt lat="44.57053" lon="2.6514">
        <ele>330</ele>
        <time>2012-06-11T09:18:58Z</time>
      </trkpt>
      <trkpt lat="44.57052" lon="2.65142">
        <ele>330</ele>
        <time>2012-06-11T09:18:59Z</time>
      </trkpt>
      <trkpt lat="44.57051" lon="2.65144">
        <ele>330</ele>
        <time>2012-06-11T09:19:00Z</time>
      </trkpt>
      <trkpt lat="44.5705" lon="2.65146">
        <ele>330</ele>
        <time>2012-06-11T09:19:01Z</time>
      </trkpt>
      <trkpt lat="44.57049" lon="2.65147">
        <ele>330</ele>
        <time>2012-06-11T09:19:02Z</time>
      </trkpt>
      <trkpt lat="44.57048" lon="2.65149">
        <ele>330</ele>
        <time>2012-06-11T09:19:03Z</time>
      </trkpt>
      <trkpt lat="44.57047" lon="2.6515">
        <ele>330</ele>
        <time>2012-06-11T09:19:04Z</time>
      </trkpt>
      <trkpt lat="44.57047" lon="2.65152">
        <ele>330</ele>
        <time>2012-06-11T09:19:05Z</time>
      </trkpt>
      <trkpt lat="44.57046" lon="2.65154">
        <ele>330</ele>
        <time>2012-06-11T09:19:06Z</time>
      </trkpt>
      <trkpt lat="44.57045" lon="2.65155">
        <ele>330</ele>
        <time>2012-06-11T09:19:07Z</time>
      </trkpt>
      <trkpt lat="44.57044" lon="2.65157">
        <ele>330</ele>
        <time>2012-06-11T09:19:08Z</time>
      </trkpt>
      <trkpt lat="44.57043" lon="2.65158">
        <ele>330</ele>
        <time>2012-06-11T09:19:09Z</time>
      </trkpt>
      <trkpt lat="44.57042" lon="2.6516">
        <ele>330</ele>
        <time>2012-06-11T09:19:10Z</time>
      </trkpt>
      <trkpt lat="44.57042" lon="2.65161">
        <ele>330</ele>
        <time>2012-06-11T09:19:11Z</time>
      </trkpt>
      <trkpt lat="44.57041" lon="2.65163">
        <ele>330</ele>
        <time>2012-06-11T09:19:12Z</time>
      </trkpt>
      <trkpt lat="44.5704" lon="2.65164">
        <ele>330</ele>
        <time>2012-06-11T09:19:13Z</time>
      </trkpt>
      <trkpt lat="44.57039" lon="2.65166">
        <ele>330</ele>
        <time>2012-06-11T09:19:14Z</time>
      </trkpt>
      <trkpt lat="44.57038" lon="2.65168">
        <ele>330</ele>
        <time>2012-06-11T09:19:15Z</time>
      </trkpt>
      <trkpt lat="44.57037" lon="2.65169">
        <ele>330</ele>
        <time>2012-06-11T09:19:16Z</time>
      </trkpt>
      <trkpt lat="44.57037" lon="2.65171">
        <ele>330</ele>
        <time>2012-06-11T09:19:17Z</time>
      </trkpt>
      <trkpt lat="44.57035" lon="2.65173">
        <ele>330</ele>
        <time>2012-06-11T09:19:18Z</time>
      </trkpt>
      <trkpt lat="44.57034" lon="2.65174">
        <ele>330</ele>
        <time>2012-06-11T09:19:19Z</time>
      </trkpt>
      <trkpt lat="44.57032" lon="2.65177">
        <ele>330</ele>
        <time>2012-06-11T09:19:21Z</time>
      </trkpt>
      <trkpt lat="44.57031" lon="2.65177">
        <ele>330</ele>
        <time>2012-06-11T09:19:22Z</time>
      </trkpt>
      <trkpt lat="44.5703" lon="2.65178">
        <ele>330</ele>
        <time>2012-06-11T09:19:23Z</time>
      </trkpt>
      <trkpt lat="44.57029" lon="2.65178">
        <ele>330</ele>
        <time>2012-06-11T09:19:24Z</time>
      </trkpt>
      <trkpt lat="44.57027" lon="2.6518">
        <ele>330</ele>
        <time>2012-06-11T09:19:26Z</time>
      </trkpt>
      <trkpt lat="44.57028" lon="2.65178">
        <ele>330</ele>
        <time>2012-06-11T09:19:30Z</time>
      </trkpt>
      <trkpt lat="44.5703" lon="2.65177">
        <ele>330</ele>
        <time>2012-06-11T09:19:32Z</time>
      </trkpt>
      <trkpt lat="44.57032" lon="2.65177">
        <ele>330</ele>
        <time>2012-06-11T09:19:33Z</time>
      </trkpt>
      <trkpt lat="44.57033" lon="2.65176">
        <ele>329</ele>
        <time>2012-06-11T09:19:34Z</time>
      </trkpt>
      <trkpt lat="44.57035" lon="2.65176">
        <ele>328</ele>
        <time>2012-06-11T09:19:36Z</time>
      </trkpt>
      <trkpt lat="44.57033" lon="2.65176">
        <ele>327</ele>
        <time>2012-06-11T09:19:40Z</time>
      </trkpt>
      <trkpt lat="44.57032" lon="2.65178">
        <ele>326</ele>
        <time>2012-06-11T09:19:49Z</time>
      </trkpt>
      <trkpt lat="44.57031" lon="2.6518">
        <ele>326</ele>
        <time>2012-06-11T09:19:50Z</time>
      </trkpt>
      <trkpt lat="44.5703" lon="2.65181">
        <ele>326</ele>
        <time>2012-06-11T09:19:51Z</time>
      </trkpt>
      <trkpt lat="44.57029" lon="2.65183">
        <ele>326</ele>
        <time>2012-06-11T09:19:52Z</time>
      </trkpt>
      <trkpt lat="44.57028" lon="2.65185">
        <ele>326</ele>
        <time>2012-06-11T09:19:53Z</time>
      </trkpt>
      <trkpt lat="44.57027" lon="2.65186">
        <ele>326</ele>
        <time>2012-06-11T09:19:54Z</time>
      </trkpt>
      <trkpt lat="44.57026" lon="2.65188">
        <ele>326</ele>
        <time>2012-06-11T09:19:55Z</time>
      </trkpt>
      <trkpt lat="44.57026" lon="2.6519">
        <ele>326</ele>
        <time>2012-06-11T09:19:56Z</time>
      </trkpt>
      <trkpt lat="44.57024" lon="2.65192">
        <ele>326</ele>
        <time>2012-06-11T09:19:57Z</time>
      </trkpt>
      <trkpt lat="44.57024" lon="2.65193">
        <ele>326</ele>
        <time>2012-06-11T09:19:58Z</time>
      </trkpt>
      <trkpt lat="44.57023" lon="2.65195">
        <ele>326</ele>
        <time>2012-06-11T09:19:59Z</time>
      </trkpt>
      <trkpt lat="44.57022" lon="2.65197">
        <ele>326</ele>
        <time>2012-06-11T09:20:00Z</time>
      </trkpt>
      <trkpt lat="44.57021" lon="2.65199">
        <ele>326</ele>
        <time>2012-06-11T09:20:01Z</time>
      </trkpt>
      <trkpt lat="44.5702" lon="2.65201">
        <ele>326</ele>
        <time>2012-06-11T09:20:02Z</time>
      </trkpt>
      <trkpt lat="44.57019" lon="2.65202">
        <ele>326</ele>
        <time>2012-06-11T09:20:03Z</time>
      </trkpt>
      <trkpt lat="44.57018" lon="2.65204">
        <ele>326</ele>
        <time>2012-06-11T09:20:04Z</time>
      </trkpt>
      <trkpt lat="44.57016" lon="2.65205">
        <ele>326</ele>
        <time>2012-06-11T09:20:05Z</time>
      </trkpt>
      <trkpt lat="44.57015" lon="2.65207">
        <ele>326</ele>
        <time>2012-06-11T09:20:06Z</time>
      </trkpt>
      <trkpt lat="44.57013" lon="2.65208">
        <ele>326</ele>
        <time>2012-06-11T09:20:07Z</time>
      </trkpt>
      <trkpt lat="44.57012" lon="2.6521">
        <ele>326</ele>
        <time>2012-06-11T09:20:08Z</time>
      </trkpt>
      <trkpt lat="44.57011" lon="2.65211">
        <ele>326</ele>
        <time>2012-06-11T09:20:09Z</time>
      </trkpt>
      <trkpt lat="44.57009" lon="2.65212">
        <ele>326</ele>
        <time>2012-06-11T09:20:10Z</time>
      </trkpt>
      <trkpt lat="44.57008" lon="2.65214">
        <ele>326</ele>
        <time>2012-06-11T09:20:11Z</time>
      </trkpt>
      <trkpt lat="44.57007" lon="2.65215">
        <ele>326</ele>
        <time>2012-06-11T09:20:12Z</time>
      </trkpt>
      <trkpt lat="44.57005" lon="2.65217">
        <ele>326</ele>
        <time>2012-06-11T09:20:13Z</time>
      </trkpt>
      <trkpt lat="44.57004" lon="2.65218">
        <ele>326</ele>
        <time>2012-06-11T09:20:14Z</time>
      </trkpt>
      <trkpt lat="44.57003" lon="2.6522">
        <ele>326</ele>
        <time>2012-06-11T09:20:15Z</time>
      </trkpt>
      <trkpt lat="44.57002" lon="2.65221">
        <ele>326</ele>
        <time>2012-06-11T09:20:16Z</time>
      </trkpt>
      <trkpt lat="44.57001" lon="2.65223">
        <ele>326</ele>
        <time>2012-06-11T09:20:17Z</time>
      </trkpt>
      <trkpt lat="44.57" lon="2.65225">
        <ele>326</ele>
        <time>2012-06-11T09:20:18Z</time>
      </trkpt>
      <trkpt lat="44.56998" lon="2.65226">
        <ele>326</ele>
        <time>2012-06-11T09:20:19Z</time>
      </trkpt>
      <trkpt lat="44.56998" lon="2.65228">
        <ele>326</ele>
        <time>2012-06-11T09:20:20Z</time>
      </trkpt>
      <trkpt lat="44.56996" lon="2.6523">
        <ele>326</ele>
        <time>2012-06-11T09:20:21Z</time>
      </trkpt>
      <trkpt lat="44.56995" lon="2.65232">
        <ele>326</ele>
        <time>2012-06-11T09:20:22Z</time>
      </trkpt>
      <trkpt lat="44.56994" lon="2.65234">
        <ele>325</ele>
        <time>2012-06-11T09:20:23Z</time>
      </trkpt>
      <trkpt lat="44.56992" lon="2.65235">
        <ele>325</ele>
        <time>2012-06-11T09:20:24Z</time>
      </trkpt>
      <trkpt lat="44.56991" lon="2.65237">
        <ele>325</ele>
        <time>2012-06-11T09:20:25Z</time>
      </trkpt>
      <trkpt lat="44.5699" lon="2.65238">
        <ele>324</ele>
        <time>2012-06-11T09:20:26Z</time>
      </trkpt>
      <trkpt lat="44.56988" lon="2.6524">
        <ele>324</ele>
        <time>2012-06-11T09:20:27Z</time>
      </trkpt>
      <trkpt lat="44.56987" lon="2.65242">
        <ele>324</ele>
        <time>2012-06-11T09:20:28Z</time>
      </trkpt>
      <trkpt lat="44.56985" lon="2.65244">
        <ele>324</ele>
        <time>2012-06-11T09:20:29Z</time>
      </trkpt>
      <trkpt lat="44.56984" lon="2.65245">
        <ele>324</ele>
        <time>2012-06-11T09:20:30Z</time>
      </trkpt>
      <trkpt lat="44.56983" lon="2.65246">
        <ele>324</ele>
        <time>2012-06-11T09:20:31Z</time>
      </trkpt>
      <trkpt lat="44.56982" lon="2.65248">
        <ele>324</ele>
        <time>2012-06-11T09:20:32Z</time>
      </trkpt>
      <trkpt lat="44.5698" lon="2.65249">
        <ele>324</ele>
        <time>2012-06-11T09:20:33Z</time>
      </trkpt>
      <trkpt lat="44.56979" lon="2.6525">
        <ele>324</ele>
        <time>2012-06-11T09:20:34Z</time>
      </trkpt>
      <trkpt lat="44.56978" lon="2.65252">
        <ele>324</ele>
        <time>2012-06-11T09:20:35Z</time>
      </trkpt>
      <trkpt lat="44.56976" lon="2.65253">
        <ele>324</ele>
        <time>2012-06-11T09:20:36Z</time>
      </trkpt>
      <trkpt lat="44.56975" lon="2.65255">
        <ele>324</ele>
        <time>2012-06-11T09:20:37Z</time>
      </trkpt>
      <trkpt lat="44.56973" lon="2.65256">
        <ele>324</ele>
        <time>2012-06-11T09:20:38Z</time>
      </trkpt>
      <trkpt lat="44.56972" lon="2.65257">
        <ele>324</ele>
        <time>2012-06-11T09:20:39Z</time>
      </trkpt>
      <trkpt lat="44.5697" lon="2.65258">
        <ele>324</ele>
        <time>2012-06-11T09:20:40Z</time>
      </trkpt>
      <trkpt lat="44.56969" lon="2.6526">
        <ele>324</ele>
        <time>2012-06-11T09:20:41Z</time>
      </trkpt>
      <trkpt lat="44.56968" lon="2.65262">
        <ele>324</ele>
        <time>2012-06-11T09:20:42Z</time>
      </trkpt>
      <trkpt lat="44.56967" lon="2.65264">
        <ele>324</ele>
        <time>2012-06-11T09:20:43Z</time>
      </trkpt>
      <trkpt lat="44.56966" lon="2.65266">
        <ele>324</ele>
        <time>2012-06-11T09:20:44Z</time>
      </trkpt>
      <trkpt lat="44.56965" lon="2.65268">
        <ele>324</ele>
        <time>2012-06-11T09:20:45Z</time>
      </trkpt>
      <trkpt lat="44.56964" lon="2.65269">
        <ele>324</ele>
        <time>2012-06-11T09:20:46Z</time>
      </trkpt>
      <trkpt lat="44.56963" lon="2.65271">
        <ele>324</ele>
        <time>2012-06-11T09:20:47Z</time>
      </trkpt>
      <trkpt lat="44.56961" lon="2.65272">
        <ele>324</ele>
        <time>2012-06-11T09:20:48Z</time>
      </trkpt>
      <trkpt lat="44.5696" lon="2.65273">
        <ele>324</ele>
        <time>2012-06-11T09:20:49Z</time>
      </trkpt>
      <trkpt lat="44.56959" lon="2.65275">
        <ele>324</ele>
        <time>2012-06-11T09:20:50Z</time>
      </trkpt>
      <trkpt lat="44.56958" lon="2.65276">
        <ele>324</ele>
        <time>2012-06-11T09:20:51Z</time>
      </trkpt>
      <trkpt lat="44.56956" lon="2.65277">
        <ele>324</ele>
        <time>2012-06-11T09:20:52Z</time>
      </trkpt>
      <trkpt lat="44.56955" lon="2.65278">
        <ele>324</ele>
        <time>2012-06-11T09:20:53Z</time>
      </trkpt>
      <trkpt lat="44.56954" lon="2.6528">
        <ele>324</ele>
        <time>2012-06-11T09:20:54Z</time>
      </trkpt>
      <trkpt lat="44.56953" lon="2.65281">
        <ele>324</ele>
        <time>2012-06-11T09:20:55Z</time>
      </trkpt>
      <trkpt lat="44.56952" lon="2.65282">
        <ele>324</ele>
        <time>2012-06-11T09:20:56Z</time>
      </trkpt>
      <trkpt lat="44.5695" lon="2.65283">
        <ele>324</ele>
        <time>2012-06-11T09:20:57Z</time>
      </trkpt>
      <trkpt lat="44.56949" lon="2.65285">
        <ele>324</ele>
        <time>2012-06-11T09:20:58Z</time>
      </trkpt>
      <trkpt lat="44.56948" lon="2.65286">
        <ele>324</ele>
        <time>2012-06-11T09:20:59Z</time>
      </trkpt>
      <trkpt lat="44.56947" lon="2.65288">
        <ele>324</ele>
        <time>2012-06-11T09:21:00Z</time>
      </trkpt>
      <trkpt lat="44.56945" lon="2.65289">
        <ele>324</ele>
        <time>2012-06-11T09:21:01Z</time>
      </trkpt>
      <trkpt lat="44.56944" lon="2.65291">
        <ele>324</ele>
        <time>2012-06-11T09:21:02Z</time>
      </trkpt>
      <trkpt lat="44.56943" lon="2.65292">
        <ele>324</ele>
        <time>2012-06-11T09:21:03Z</time>
      </trkpt>
      <trkpt lat="44.56941" lon="2.65294">
        <ele>324</ele>
        <time>2012-06-11T09:21:04Z</time>
      </trkpt>
      <trkpt lat="44.5694" lon="2.65295">
        <ele>324</ele>
        <time>2012-06-11T09:21:05Z</time>
      </trkpt>
      <trkpt lat="44.56938" lon="2.65297">
        <ele>324</ele>
        <time>2012-06-11T09:21:07Z</time>
      </trkpt>
      <trkpt lat="44.56937" lon="2.65299">
        <ele>324</ele>
        <time>2012-06-11T09:21:08Z</time>
      </trkpt>
      <trkpt lat="44.56936" lon="2.65299">
        <ele>324</ele>
        <time>2012-06-11T09:21:09Z</time>
      </trkpt>
      <trkpt lat="44.56934" lon="2.65299">
        <ele>324</ele>
        <time>2012-06-11T09:21:10Z</time>
      </trkpt>
      <trkpt lat="44.56933" lon="2.653">
        <ele>324</ele>
        <time>2012-06-11T09:21:11Z</time>
      </trkpt>
      <trkpt lat="44.56932" lon="2.653">
        <ele>324</ele>
        <time>2012-06-11T09:21:12Z</time>
      </trkpt>
      <trkpt lat="44.56931" lon="2.65301">
        <ele>324</ele>
        <time>2012-06-11T09:21:13Z</time>
      </trkpt>
      <trkpt lat="44.56929" lon="2.65302">
        <ele>323</ele>
        <time>2012-06-11T09:21:14Z</time>
      </trkpt>
      <trkpt lat="44.56928" lon="2.65304">
        <ele>323</ele>
        <time>2012-06-11T09:21:15Z</time>
      </trkpt>
      <trkpt lat="44.56926" lon="2.65305">
        <ele>323</ele>
        <time>2012-06-11T09:21:16Z</time>
      </trkpt>
      <trkpt lat="44.56925" lon="2.65306">
        <ele>323</ele>
        <time>2012-06-11T09:21:17Z</time>
      </trkpt>
      <trkpt lat="44.56924" lon="2.65306">
        <ele>323</ele>
        <time>2012-06-11T09:21:18Z</time>
      </trkpt>
      <trkpt lat="44.56922" lon="2.65307">
        <ele>323</ele>
        <time>2012-06-11T09:21:19Z</time>
      </trkpt>
      <trkpt lat="44.56921" lon="2.65308">
        <ele>323</ele>
        <time>2012-06-11T09:21:20Z</time>
      </trkpt>
      <trkpt lat="44.56919" lon="2.65309">
        <ele>323</ele>
        <time>2012-06-11T09:21:21Z</time>
      </trkpt>
      <trkpt lat="44.56918" lon="2.65309">
        <ele>323</ele>
        <time>2012-06-11T09:21:22Z</time>
      </trkpt>
      <trkpt lat="44.56916" lon="2.6531">
        <ele>323</ele>
        <time>2012-06-11T09:21:23Z</time>
      </trkpt>
      <trkpt lat="44.56915" lon="2.65311">
        <ele>323</ele>
        <time>2012-06-11T09:21:24Z</time>
      </trkpt>
      <trkpt lat="44.56913" lon="2.65312">
        <ele>323</ele>
        <time>2012-06-11T09:21:25Z</time>
      </trkpt>
      <trkpt lat="44.56912" lon="2.65313">
        <ele>323</ele>
        <time>2012-06-11T09:21:26Z</time>
      </trkpt>
      <trkpt lat="44.5691" lon="2.65313">
        <ele>323</ele>
        <time>2012-06-11T09:21:27Z</time>
      </trkpt>
      <trkpt lat="44.56908" lon="2.65314">
        <ele>323</ele>
        <time>2012-06-11T09:21:28Z</time>
      </trkpt>
      <trkpt lat="44.56907" lon="2.65314">
        <ele>323</ele>
        <time>2012-06-11T09:21:29Z</time>
      </trkpt>
      <trkpt lat="44.56905" lon="2.65315">
        <ele>323</ele>
        <time>2012-06-11T09:21:30Z</time>
      </trkpt>
      <trkpt lat="44.56904" lon="2.65315">
        <ele>323</ele>
        <time>2012-06-11T09:21:31Z</time>
      </trkpt>
      <trkpt lat="44.56902" lon="2.65316">
        <ele>323</ele>
        <time>2012-06-11T09:21:32Z</time>
      </trkpt>
      <trkpt lat="44.569" lon="2.65316">
        <ele>323</ele>
        <time>2012-06-11T09:21:33Z</time>
      </trkpt>
      <trkpt lat="44.56899" lon="2.65317">
        <ele>323</ele>
        <time>2012-06-11T09:21:34Z</time>
      </trkpt>
      <trkpt lat="44.56897" lon="2.65317">
        <ele>323</ele>
        <time>2012-06-11T09:21:35Z</time>
      </trkpt>
      <trkpt lat="44.56895" lon="2.65317">
        <ele>323</ele>
        <time>2012-06-11T09:21:36Z</time>
      </trkpt>
      <trkpt lat="44.56894" lon="2.65318">
        <ele>323</ele>
        <time>2012-06-11T09:21:37Z</time>
      </trkpt>
      <trkpt lat="44.56892" lon="2.65318">
        <ele>323</ele>
        <time>2012-06-11T09:21:38Z</time>
      </trkpt>
      <trkpt lat="44.56891" lon="2.65319">
        <ele>323</ele>
        <time>2012-06-11T09:21:39Z</time>
      </trkpt>
      <trkpt lat="44.56889" lon="2.65319">
        <ele>322</ele>
        <time>2012-06-11T09:21:40Z</time>
      </trkpt>
      <trkpt lat="44.56888" lon="2.6532">
        <ele>322</ele>
        <time>2012-06-11T09:21:41Z</time>
      </trkpt>
      <trkpt lat="44.56886" lon="2.6532">
        <ele>322</ele>
        <time>2012-06-11T09:21:42Z</time>
      </trkpt>
      <trkpt lat="44.56884" lon="2.6532">
        <ele>322</ele>
        <time>2012-06-11T09:21:43Z</time>
      </trkpt>
      <trkpt lat="44.56883" lon="2.6532">
        <ele>322</ele>
        <time>2012-06-11T09:21:44Z</time>
      </trkpt>
      <trkpt lat="44.56881" lon="2.65321">
        <ele>322</ele>
        <time>2012-06-11T09:21:45Z</time>
      </trkpt>
      <trkpt lat="44.5688" lon="2.65321">
        <ele>322</ele>
        <time>2012-06-11T09:21:46Z</time>
      </trkpt>
      <trkpt lat="44.56878" lon="2.65321">
        <ele>322</ele>
        <time>2012-06-11T09:21:47Z</time>
      </trkpt>
      <trkpt lat="44.56876" lon="2.65322">
        <ele>322</ele>
        <time>2012-06-11T09:21:48Z</time>
      </trkpt>
      <trkpt lat="44.56875" lon="2.65322">
        <ele>322</ele>
        <time>2012-06-11T09:21:49Z</time>
      </trkpt>
      <trkpt lat="44.56874" lon="2.65323">
        <ele>322</ele>
        <time>2012-06-11T09:21:50Z</time>
      </trkpt>
      <trkpt lat="44.56871" lon="2.65323">
        <ele>322</ele>
        <time>2012-06-11T09:21:52Z</time>
      </trkpt>
      <trkpt lat="44.56869" lon="2.65323">
        <ele>322</ele>
        <time>2012-06-11T09:21:53Z</time>
      </trkpt>
      <trkpt lat="44.56868" lon="2.65323">
        <ele>322</ele>
        <time>2012-06-11T09:21:54Z</time>
      </trkpt>
      <trkpt lat="44.56866" lon="2.65324">
        <ele>322</ele>
        <time>2012-06-11T09:21:55Z</time>
      </trkpt>
      <trkpt lat="44.56864" lon="2.65324">
        <ele>322</ele>
        <time>2012-06-11T09:21:56Z</time>
      </trkpt>
      <trkpt lat="44.56863" lon="2.65325">
        <ele>322</ele>
        <time>2012-06-11T09:21:57Z</time>
      </trkpt>
      <trkpt lat="44.56861" lon="2.65325">
        <ele>322</ele>
        <time>2012-06-11T09:21:58Z</time>
      </trkpt>
      <trkpt lat="44.56859" lon="2.65326">
        <ele>322</ele>
        <time>2012-06-11T09:21:59Z</time>
      </trkpt>
      <trkpt lat="44.56858" lon="2.65327">
        <ele>322</ele>
        <time>2012-06-11T09:22:00Z</time>
      </trkpt>
      <trkpt lat="44.56856" lon="2.65327">
        <ele>322</ele>
        <time>2012-06-11T09:22:01Z</time>
      </trkpt>
      <trkpt lat="44.56855" lon="2.65328">
        <ele>322</ele>
        <time>2012-06-11T09:22:02Z</time>
      </trkpt>
      <trkpt lat="44.56854" lon="2.6533">
        <ele>322</ele>
        <time>2012-06-11T09:22:03Z</time>
      </trkpt>
      <trkpt lat="44.56852" lon="2.6533">
        <ele>322</ele>
        <time>2012-06-11T09:22:04Z</time>
      </trkpt>
      <trkpt lat="44.56851" lon="2.65331">
        <ele>322</ele>
        <time>2012-06-11T09:22:05Z</time>
      </trkpt>
      <trkpt lat="44.5685" lon="2.65332">
        <ele>322</ele>
        <time>2012-06-11T09:22:06Z</time>
      </trkpt>
      <trkpt lat="44.56848" lon="2.65333">
        <ele>322</ele>
        <time>2012-06-11T09:22:07Z</time>
      </trkpt>
      <trkpt lat="44.56847" lon="2.65334">
        <ele>322</ele>
        <time>2012-06-11T09:22:08Z</time>
      </trkpt>
      <trkpt lat="44.56846" lon="2.65335">
        <ele>322</ele>
        <time>2012-06-11T09:22:09Z</time>
      </trkpt>
      <trkpt lat="44.56844" lon="2.65336">
        <ele>322</ele>
        <time>2012-06-11T09:22:10Z</time>
      </trkpt>
      <trkpt lat="44.56843" lon="2.65337">
        <ele>322</ele>
        <time>2012-06-11T09:22:11Z</time>
      </trkpt>
      <trkpt lat="44.56842" lon="2.65338">
        <ele>322</ele>
        <time>2012-06-11T09:22:12Z</time>
      </trkpt>
      <trkpt lat="44.5684" lon="2.65339">
        <ele>322</ele>
        <time>2012-06-11T09:22:13Z</time>
      </trkpt>
      <trkpt lat="44.56838" lon="2.65341">
        <ele>322</ele>
        <time>2012-06-11T09:22:15Z</time>
      </trkpt>
      <trkpt lat="44.56836" lon="2.65343">
        <ele>322</ele>
        <time>2012-06-11T09:22:17Z</time>
      </trkpt>
      <trkpt lat="44.56835" lon="2.65344">
        <ele>322</ele>
        <time>2012-06-11T09:22:18Z</time>
      </trkpt>
      <trkpt lat="44.56833" lon="2.65345">
        <ele>322</ele>
        <time>2012-06-11T09:22:19Z</time>
      </trkpt>
      <trkpt lat="44.56832" lon="2.65346">
        <ele>322</ele>
        <time>2012-06-11T09:22:20Z</time>
      </trkpt>
      <trkpt lat="44.56831" lon="2.65347">
        <ele>322</ele>
        <time>2012-06-11T09:22:21Z</time>
      </trkpt>
      <trkpt lat="44.56829" lon="2.65348">
        <ele>322</ele>
        <time>2012-06-11T09:22:22Z</time>
      </trkpt>
      <trkpt lat="44.56828" lon="2.6535">
        <ele>322</ele>
        <time>2012-06-11T09:22:23Z</time>
      </trkpt>
      <trkpt lat="44.56826" lon="2.65351">
        <ele>322</ele>
        <time>2012-06-11T09:22:24Z</time>
      </trkpt>
      <trkpt lat="44.56825" lon="2.65352">
        <ele>322</ele>
        <time>2012-06-11T09:22:25Z</time>
      </trkpt>
      <trkpt lat="44.56823" lon="2.65353">
        <ele>322</ele>
        <time>2012-06-11T09:22:26Z</time>
      </trkpt>
      <trkpt lat="44.56821" lon="2.65354">
        <ele>322</ele>
        <time>2012-06-11T09:22:27Z</time>
      </trkpt>
      <trkpt lat="44.5682" lon="2.65355">
        <ele>322</ele>
        <time>2012-06-11T09:22:28Z</time>
      </trkpt>
      <trkpt lat="44.56818" lon="2.65355">
        <ele>322</ele>
        <time>2012-06-11T09:22:29Z</time>
      </trkpt>
      <trkpt lat="44.56817" lon="2.65356">
        <ele>322</ele>
        <time>2012-06-11T09:22:30Z</time>
      </trkpt>
      <trkpt lat="44.56814" lon="2.65358">
        <ele>322</ele>
        <time>2012-06-11T09:22:32Z</time>
      </trkpt>
      <trkpt lat="44.56813" lon="2.6536">
        <ele>322</ele>
        <time>2012-06-11T09:22:33Z</time>
      </trkpt>
      <trkpt lat="44.56812" lon="2.65361">
        <ele>322</ele>
        <time>2012-06-11T09:22:34Z</time>
      </trkpt>
      <trkpt lat="44.5681" lon="2.65362">
        <ele>322</ele>
        <time>2012-06-11T09:22:35Z</time>
      </trkpt>
      <trkpt lat="44.56809" lon="2.65363">
        <ele>322</ele>
        <time>2012-06-11T09:22:36Z</time>
      </trkpt>
      <trkpt lat="44.56808" lon="2.65364">
        <ele>322</ele>
        <time>2012-06-11T09:22:37Z</time>
      </trkpt>
      <trkpt lat="44.56807" lon="2.65365">
        <ele>322</ele>
        <time>2012-06-11T09:22:38Z</time>
      </trkpt>
      <trkpt lat="44.56805" lon="2.65366">
        <ele>322</ele>
        <time>2012-06-11T09:22:39Z</time>
      </trkpt>
      <trkpt lat="44.56804" lon="2.65366">
        <ele>321</ele>
        <time>2012-06-11T09:22:40Z</time>
      </trkpt>
      <trkpt lat="44.56803" lon="2.65367">
        <ele>321</ele>
        <time>2012-06-11T09:22:41Z</time>
      </trkpt>
      <trkpt lat="44.56801" lon="2.65368">
        <ele>321</ele>
        <time>2012-06-11T09:22:42Z</time>
      </trkpt>
      <trkpt lat="44.568" lon="2.65369">
        <ele>321</ele>
        <time>2012-06-11T09:22:43Z</time>
      </trkpt>
      <trkpt lat="44.56799" lon="2.6537">
        <ele>320</ele>
        <time>2012-06-11T09:22:44Z</time>
      </trkpt>
      <trkpt lat="44.56797" lon="2.65371">
        <ele>320</ele>
        <time>2012-06-11T09:22:45Z</time>
      </trkpt>
      <trkpt lat="44.56796" lon="2.65372">
        <ele>320</ele>
        <time>2012-06-11T09:22:46Z</time>
      </trkpt>
      <trkpt lat="44.56794" lon="2.65373">
        <ele>320</ele>
        <time>2012-06-11T09:22:47Z</time>
      </trkpt>
      <trkpt lat="44.56793" lon="2.65374">
        <ele>320</ele>
        <time>2012-06-11T09:22:48Z</time>
      </trkpt>
      <trkpt lat="44.56791" lon="2.65375">
        <ele>320</ele>
        <time>2012-06-11T09:22:49Z</time>
      </trkpt>
      <trkpt lat="44.56789" lon="2.65375">
        <ele>320</ele>
        <time>2012-06-11T09:22:50Z</time>
      </trkpt>
      <trkpt lat="44.56788" lon="2.65377">
        <ele>320</ele>
        <time>2012-06-11T09:22:51Z</time>
      </trkpt>
      <trkpt lat="44.56786" lon="2.65379">
        <ele>320</ele>
        <time>2012-06-11T09:22:53Z</time>
      </trkpt>
      <trkpt lat="44.56785" lon="2.6538">
        <ele>320</ele>
        <time>2012-06-11T09:22:54Z</time>
      </trkpt>
      <trkpt lat="44.56784" lon="2.65381">
        <ele>320</ele>
        <time>2012-06-11T09:22:55Z</time>
      </trkpt>
      <trkpt lat="44.56783" lon="2.65382">
        <ele>320</ele>
        <time>2012-06-11T09:22:56Z</time>
      </trkpt>
      <trkpt lat="44.56781" lon="2.65383">
        <ele>320</ele>
        <time>2012-06-11T09:22:57Z</time>
      </trkpt>
      <trkpt lat="44.56779" lon="2.65386">
        <ele>320</ele>
        <time>2012-06-11T09:22:59Z</time>
      </trkpt>
      <trkpt lat="44.56778" lon="2.65387">
        <ele>320</ele>
        <time>2012-06-11T09:23:00Z</time>
      </trkpt>
      <trkpt lat="44.56776" lon="2.65388">
        <ele>320</ele>
        <time>2012-06-11T09:23:01Z</time>
      </trkpt>
      <trkpt lat="44.56775" lon="2.65388">
        <ele>320</ele>
        <time>2012-06-11T09:23:02Z</time>
      </trkpt>
      <trkpt lat="44.56773" lon="2.65389">
        <ele>320</ele>
        <time>2012-06-11T09:23:03Z</time>
      </trkpt>
      <trkpt lat="44.56772" lon="2.6539">
        <ele>320</ele>
        <time>2012-06-11T09:23:04Z</time>
      </trkpt>
      <trkpt lat="44.5677" lon="2.6539">
        <ele>320</ele>
        <time>2012-06-11T09:23:05Z</time>
      </trkpt>
      <trkpt lat="44.56768" lon="2.65392">
        <ele>320</ele>
        <time>2012-06-11T09:23:07Z</time>
      </trkpt>
      <trkpt lat="44.56767" lon="2.65393">
        <ele>320</ele>
        <time>2012-06-11T09:23:08Z</time>
      </trkpt>
      <trkpt lat="44.56766" lon="2.65394">
        <ele>320</ele>
        <time>2012-06-11T09:23:09Z</time>
      </trkpt>
      <trkpt lat="44.56764" lon="2.65395">
        <ele>320</ele>
        <time>2012-06-11T09:23:11Z</time>
      </trkpt>
      <trkpt lat="44.56762" lon="2.65398">
        <ele>320</ele>
        <time>2012-06-11T09:23:13Z</time>
      </trkpt>
      <trkpt lat="44.56762" lon="2.654">
        <ele>320</ele>
        <time>2012-06-11T09:23:14Z</time>
      </trkpt>
      <trkpt lat="44.56761" lon="2.65406">
        <ele>320</ele>
        <time>2012-06-11T09:23:17Z</time>
      </trkpt>
      <trkpt lat="44.5676" lon="2.6541">
        <ele>320</ele>
        <time>2012-06-11T09:23:19Z</time>
      </trkpt>
      <trkpt lat="44.5676" lon="2.65413">
        <ele>320</ele>
        <time>2012-06-11T09:23:20Z</time>
      </trkpt>
      <trkpt lat="44.56759" lon="2.65414">
        <ele>320</ele>
        <time>2012-06-11T09:23:21Z</time>
      </trkpt>
      <trkpt lat="44.56757" lon="2.65417">
        <ele>320</ele>
        <time>2012-06-11T09:23:23Z</time>
      </trkpt>
      <trkpt lat="44.56757" lon="2.65419">
        <ele>320</ele>
        <time>2012-06-11T09:23:24Z</time>
      </trkpt>
      <trkpt lat="44.56758" lon="2.65421">
        <ele>320</ele>
        <time>2012-06-11T09:23:27Z</time>
      </trkpt>
      <trkpt lat="44.56759" lon="2.65421">
        <ele>320</ele>
        <time>2012-06-11T09:23:28Z</time>
      </trkpt>
      <trkpt lat="44.56761" lon="2.65419">
        <ele>320</ele>
        <time>2012-06-11T09:23:30Z</time>
      </trkpt>
      <trkpt lat="44.56762" lon="2.65419">
        <ele>320</ele>
        <time>2012-06-11T09:23:31Z</time>
      </trkpt>
      <trkpt lat="44.56765" lon="2.65419">
        <ele>320</ele>
        <time>2012-06-11T09:23:33Z</time>
      </trkpt>
      <trkpt lat="44.56767" lon="2.65419">
        <ele>320</ele>
        <time>2012-06-11T09:23:34Z</time>
      </trkpt>
      <trkpt lat="44.56768" lon="2.65418">
        <ele>320</ele>
        <time>2012-06-11T09:23:36Z</time>
      </trkpt>
      <trkpt lat="44.5677" lon="2.65417">
        <ele>320</ele>
        <time>2012-06-11T09:23:38Z</time>
      </trkpt>
      <trkpt lat="44.56773" lon="2.65417">
        <ele>320</ele>
        <time>2012-06-11T09:23:40Z</time>
      </trkpt>
      <trkpt lat="44.56775" lon="2.65418">
        <ele>320</ele>
        <time>2012-06-11T09:23:41Z</time>
      </trkpt>
      <trkpt lat="44.56775" lon="2.6542">
        <ele>320</ele>
        <time>2012-06-11T09:23:43Z</time>
      </trkpt>
      <trkpt lat="44.56775" lon="2.65423">
        <ele>320</ele>
        <time>2012-06-11T09:23:45Z</time>
      </trkpt>
      <trkpt lat="44.56774" lon="2.65426">
        <ele>320</ele>
        <time>2012-06-11T09:23:48Z</time>
      </trkpt>
      <trkpt lat="44.56774" lon="2.65432">
        <ele>322</ele>
        <time>2012-06-11T09:23:54Z</time>
      </trkpt>
      <trkpt lat="44.56773" lon="2.65435">
        <ele>323</ele>
        <time>2012-06-11T09:23:56Z</time>
      </trkpt>
      <trkpt lat="44.56773" lon="2.65436">
        <ele>323</ele>
        <time>2012-06-11T09:23:57Z</time>
      </trkpt>
      <trkpt lat="44.56773" lon="2.65438">
        <ele>323</ele>
        <time>2012-06-11T09:23:58Z</time>
      </trkpt>
      <trkpt lat="44.56772" lon="2.65442">
        <ele>324</ele>
        <time>2012-06-11T09:24:01Z</time>
      </trkpt>
      <trkpt lat="44.5677" lon="2.65445">
        <ele>324</ele>
        <time>2012-06-11T09:24:03Z</time>
      </trkpt>
      <trkpt lat="44.5677" lon="2.65446">
        <ele>324</ele>
        <time>2012-06-11T09:24:04Z</time>
      </trkpt>
      <trkpt lat="44.56769" lon="2.65448">
        <ele>324</ele>
        <time>2012-06-11T09:24:05Z</time>
      </trkpt>
      <trkpt lat="44.56768" lon="2.65451">
        <ele>324</ele>
        <time>2012-06-11T09:24:07Z</time>
      </trkpt>
      <trkpt lat="44.56768" lon="2.65453">
        <ele>324</ele>
        <time>2012-06-11T09:24:08Z</time>
      </trkpt>
      <trkpt lat="44.56767" lon="2.65455">
        <ele>324</ele>
        <time>2012-06-11T09:24:09Z</time>
      </trkpt>
      <trkpt lat="44.56766" lon="2.65456">
        <ele>324</ele>
        <time>2012-06-11T09:24:10Z</time>
      </trkpt>
      <trkpt lat="44.56765" lon="2.65458">
        <ele>324</ele>
        <time>2012-06-11T09:24:11Z</time>
      </trkpt>
      <trkpt lat="44.56764" lon="2.65459">
        <ele>324</ele>
        <time>2012-06-11T09:24:12Z</time>
      </trkpt>
      <trkpt lat="44.56763" lon="2.65461">
        <ele>325</ele>
        <time>2012-06-11T09:24:13Z</time>
      </trkpt>
      <trkpt lat="44.56762" lon="2.65462">
        <ele>325</ele>
        <time>2012-06-11T09:24:14Z</time>
      </trkpt>
      <trkpt lat="44.56761" lon="2.65464">
        <ele>325</ele>
        <time>2012-06-11T09:24:15Z</time>
      </trkpt>
      <trkpt lat="44.56759" lon="2.65467">
        <ele>325</ele>
        <time>2012-06-11T09:24:17Z</time>
      </trkpt>
      <trkpt lat="44.56758" lon="2.6547">
        <ele>325</ele>
        <time>2012-06-11T09:24:18Z</time>
      </trkpt>
      <trkpt lat="44.56757" lon="2.65471">
        <ele>325</ele>
        <time>2012-06-11T09:24:19Z</time>
      </trkpt>
      <trkpt lat="44.56755" lon="2.65472">
        <ele>325</ele>
        <time>2012-06-11T09:24:20Z</time>
      </trkpt>
      <trkpt lat="44.56755" lon="2.65474">
        <ele>325</ele>
        <time>2012-06-11T09:24:21Z</time>
      </trkpt>
      <trkpt lat="44.56753" lon="2.65475">
        <ele>325</ele>
        <time>2012-06-11T09:24:22Z</time>
      </trkpt>
      <trkpt lat="44.56751" lon="2.65478">
        <ele>325</ele>
        <time>2012-06-11T09:24:24Z</time>
      </trkpt>
      <trkpt lat="44.5675" lon="2.65479">
        <ele>325</ele>
        <time>2012-06-11T09:24:25Z</time>
      </trkpt>
      <trkpt lat="44.56749" lon="2.6548">
        <ele>325</ele>
        <time>2012-06-11T09:24:26Z</time>
      </trkpt>
      <trkpt lat="44.56747" lon="2.65482">
        <ele>326</ele>
        <time>2012-06-11T09:24:27Z</time>
      </trkpt>
      <trkpt lat="44.56746" lon="2.65484">
        <ele>326</ele>
        <time>2012-06-11T09:24:28Z</time>
      </trkpt>
      <trkpt lat="44.56745" lon="2.65485">
        <ele>326</ele>
        <time>2012-06-11T09:24:29Z</time>
      </trkpt>
      <trkpt lat="44.56744" lon="2.65487">
        <ele>326</ele>
        <time>2012-06-11T09:24:30Z</time>
      </trkpt>
      <trkpt lat="44.56743" lon="2.65489">
        <ele>327</ele>
        <time>2012-06-11T09:24:32Z</time>
      </trkpt>
      <trkpt lat="44.56741" lon="2.65492">
        <ele>327</ele>
        <time>2012-06-11T09:24:34Z</time>
      </trkpt>
      <trkpt lat="44.5674" lon="2.65493">
        <ele>328</ele>
        <time>2012-06-11T09:24:35Z</time>
      </trkpt>
      <trkpt lat="44.56739" lon="2.65496">
        <ele>328</ele>
        <time>2012-06-11T09:24:37Z</time>
      </trkpt>
      <trkpt lat="44.56738" lon="2.65498">
        <ele>328</ele>
        <time>2012-06-11T09:24:38Z</time>
      </trkpt>
      <trkpt lat="44.56736" lon="2.65501">
        <ele>328</ele>
        <time>2012-06-11T09:24:40Z</time>
      </trkpt>
      <trkpt lat="44.56734" lon="2.65502">
        <ele>328</ele>
        <time>2012-06-11T09:24:41Z</time>
      </trkpt>
      <trkpt lat="44.56734" lon="2.65504">
        <ele>328</ele>
        <time>2012-06-11T09:24:42Z</time>
      </trkpt>
      <trkpt lat="44.56733" lon="2.65506">
        <ele>328</ele>
        <time>2012-06-11T09:24:43Z</time>
      </trkpt>
      <trkpt lat="44.56733" lon="2.65508">
        <ele>328</ele>
        <time>2012-06-11T09:24:44Z</time>
      </trkpt>
      <trkpt lat="44.56731" lon="2.65509">
        <ele>328</ele>
        <time>2012-06-11T09:24:45Z</time>
      </trkpt>
      <trkpt lat="44.5673" lon="2.65511">
        <ele>328</ele>
        <time>2012-06-11T09:24:46Z</time>
      </trkpt>
      <trkpt lat="44.56728" lon="2.65512">
        <ele>328</ele>
        <time>2012-06-11T09:24:47Z</time>
      </trkpt>
      <trkpt lat="44.56727" lon="2.65514">
        <ele>328</ele>
        <time>2012-06-11T09:24:48Z</time>
      </trkpt>
      <trkpt lat="44.56726" lon="2.65515">
        <ele>328</ele>
        <time>2012-06-11T09:24:49Z</time>
      </trkpt>
      <trkpt lat="44.56725" lon="2.65517">
        <ele>328</ele>
        <time>2012-06-11T09:24:50Z</time>
      </trkpt>
      <trkpt lat="44.56724" lon="2.65519">
        <ele>328</ele>
        <time>2012-06-11T09:24:51Z</time>
      </trkpt>
      <trkpt lat="44.56724" lon="2.65521">
        <ele>328</ele>
        <time>2012-06-11T09:24:52Z</time>
      </trkpt>
      <trkpt lat="44.56723" lon="2.65524">
        <ele>329</ele>
        <time>2012-06-11T09:24:54Z</time>
      </trkpt>
      <trkpt lat="44.56722" lon="2.65526">
        <ele>329</ele>
        <time>2012-06-11T09:24:55Z</time>
      </trkpt>
      <trkpt lat="44.56721" lon="2.65527">
        <ele>329</ele>
        <time>2012-06-11T09:24:56Z</time>
      </trkpt>
      <trkpt lat="44.5672" lon="2.65529">
        <ele>329</ele>
        <time>2012-06-11T09:24:57Z</time>
      </trkpt>
      <trkpt lat="44.56718" lon="2.6553">
        <ele>329</ele>
        <time>2012-06-11T09:24:58Z</time>
      </trkpt>
      <trkpt lat="44.56717" lon="2.65532">
        <ele>329</ele>
        <time>2012-06-11T09:24:59Z</time>
      </trkpt>
      <trkpt lat="44.56716" lon="2.65533">
        <ele>329</ele>
        <time>2012-06-11T09:25:00Z</time>
      </trkpt>
      <trkpt lat="44.56715" lon="2.65535">
        <ele>329</ele>
        <time>2012-06-11T09:25:01Z</time>
      </trkpt>
      <trkpt lat="44.56714" lon="2.65537">
        <ele>329</ele>
        <time>2012-06-11T09:25:02Z</time>
      </trkpt>
      <trkpt lat="44.56713" lon="2.65538">
        <ele>329</ele>
        <time>2012-06-11T09:25:03Z</time>
      </trkpt>
      <trkpt lat="44.56712" lon="2.65539">
        <ele>329</ele>
        <time>2012-06-11T09:25:04Z</time>
      </trkpt>
      <trkpt lat="44.5671" lon="2.65542">
        <ele>329</ele>
        <time>2012-06-11T09:25:06Z</time>
      </trkpt>
      <trkpt lat="44.56709" lon="2.65545">
        <ele>329</ele>
        <time>2012-06-11T09:25:07Z</time>
      </trkpt>
      <trkpt lat="44.56708" lon="2.65547">
        <ele>329</ele>
        <time>2012-06-11T09:25:08Z</time>
      </trkpt>
      <trkpt lat="44.56707" lon="2.65549">
        <ele>329</ele>
        <time>2012-06-11T09:25:09Z</time>
      </trkpt>
      <trkpt lat="44.56707" lon="2.6555">
        <ele>329</ele>
        <time>2012-06-11T09:25:10Z</time>
      </trkpt>
      <trkpt lat="44.56705" lon="2.65552">
        <ele>329</ele>
        <time>2012-06-11T09:25:11Z</time>
      </trkpt>
      <trkpt lat="44.56704" lon="2.65554">
        <ele>329</ele>
        <time>2012-06-11T09:25:12Z</time>
      </trkpt>
      <trkpt lat="44.56703" lon="2.65555">
        <ele>329</ele>
        <time>2012-06-11T09:25:13Z</time>
      </trkpt>
      <trkpt lat="44.56702" lon="2.65557">
        <ele>329</ele>
        <time>2012-06-11T09:25:14Z</time>
      </trkpt>
      <trkpt lat="44.56702" lon="2.65558">
        <ele>329</ele>
        <time>2012-06-11T09:25:15Z</time>
      </trkpt>
      <trkpt lat="44.567" lon="2.65557">
        <ele>329</ele>
        <time>2012-06-11T09:25:23Z</time>
      </trkpt>
      <trkpt lat="44.56699" lon="2.65556">
        <ele>330</ele>
        <time>2012-06-11T09:25:27Z</time>
      </trkpt>
      <trkpt lat="44.56699" lon="2.65558">
        <ele>333</ele>
        <time>2012-06-11T09:25:38Z</time>
      </trkpt>
      <trkpt lat="44.56699" lon="2.65556">
        <ele>333</ele>
        <time>2012-06-11T09:25:55Z</time>
      </trkpt>
      <trkpt lat="44.56699" lon="2.65554">
        <ele>333</ele>
        <time>2012-06-11T09:26:12Z</time>
      </trkpt>
      <trkpt lat="44.56699" lon="2.65556">
        <ele>333</ele>
        <time>2012-06-11T09:26:28Z</time>
      </trkpt>
      <trkpt lat="44.56698" lon="2.65555">
        <ele>333</ele>
        <time>2012-06-11T09:26:48Z</time>
      </trkpt>
      <trkpt lat="44.56698" lon="2.65557">
        <ele>333</ele>
        <time>2012-06-11T09:26:53Z</time>
      </trkpt>
      <trkpt lat="44.56699" lon="2.65558">
        <ele>332</ele>
        <time>2012-06-11T09:27:01Z</time>
      </trkpt>
      <trkpt lat="44.56698" lon="2.65558">
        <ele>330</ele>
        <time>2012-06-11T09:27:21Z</time>
      </trkpt>
      <trkpt lat="44.56697" lon="2.65557">
        <ele>330</ele>
        <time>2012-06-11T09:27:35Z</time>
      </trkpt>
      <trkpt lat="44.56696" lon="2.65556">
        <ele>330</ele>
        <time>2012-06-11T09:27:43Z</time>
      </trkpt>
      <trkpt lat="44.56697" lon="2.65556">
        <ele>330</ele>
        <time>2012-06-11T09:27:48Z</time>
      </trkpt>
      <trkpt lat="44.56696" lon="2.65558">
        <ele>330</ele>
        <time>2012-06-11T09:27:58Z</time>
      </trkpt>
      <trkpt lat="44.56697" lon="2.6556">
        <ele>330</ele>
        <time>2012-06-11T09:28:03Z</time>
      </trkpt>
      <trkpt lat="44.56698" lon="2.65562">
        <ele>330</ele>
        <time>2012-06-11T09:28:06Z</time>
      </trkpt>
      <trkpt lat="44.56699" lon="2.65564">
        <ele>330</ele>
        <time>2012-06-11T09:28:09Z</time>
      </trkpt>
      <trkpt lat="44.56699" lon="2.65566">
        <ele>330</ele>
        <time>2012-06-11T09:28:11Z</time>
      </trkpt>
      <trkpt lat="44.56698" lon="2.65568">
        <ele>330</ele>
        <time>2012-06-11T09:28:12Z</time>
      </trkpt>
      <trkpt lat="44.56697" lon="2.6557">
        <ele>330</ele>
        <time>2012-06-11T09:28:14Z</time>
      </trkpt>
      <trkpt lat="44.56696" lon="2.6557">
        <ele>330</ele>
        <time>2012-06-11T09:28:17Z</time>
      </trkpt>
      <trkpt lat="44.56694" lon="2.65572">
        <ele>330</ele>
        <time>2012-06-11T09:28:24Z</time>
      </trkpt>
      <trkpt lat="44.56694" lon="2.65574">
        <ele>330</ele>
        <time>2012-06-11T09:28:25Z</time>
      </trkpt>
      <trkpt lat="44.56693" lon="2.65575">
        <ele>330</ele>
        <time>2012-06-11T09:28:26Z</time>
      </trkpt>
      <trkpt lat="44.56693" lon="2.65577">
        <ele>330</ele>
        <time>2012-06-11T09:28:27Z</time>
      </trkpt>
      <trkpt lat="44.56692" lon="2.65579">
        <ele>330</ele>
        <time>2012-06-11T09:28:28Z</time>
      </trkpt>
      <trkpt lat="44.56693" lon="2.65594">
        <ele>331</ele>
        <time>2012-06-11T09:28:36Z</time>
      </trkpt>
      <trkpt lat="44.56694" lon="2.65597">
        <ele>331</ele>
        <time>2012-06-11T09:28:38Z</time>
      </trkpt>
      <trkpt lat="44.56695" lon="2.65599">
        <ele>331</ele>
        <time>2012-06-11T09:28:39Z</time>
      </trkpt>
      <trkpt lat="44.56696" lon="2.65601">
        <ele>331</ele>
        <time>2012-06-11T09:28:40Z</time>
      </trkpt>
      <trkpt lat="44.56697" lon="2.65602">
        <ele>331</ele>
        <time>2012-06-11T09:28:41Z</time>
      </trkpt>
      <trkpt lat="44.56698" lon="2.65604">
        <ele>331</ele>
        <time>2012-06-11T09:28:42Z</time>
      </trkpt>
      <trkpt lat="44.56698" lon="2.65608">
        <ele>331</ele>
        <time>2012-06-11T09:28:45Z</time>
      </trkpt>
      <trkpt lat="44.56699" lon="2.65611">
        <ele>331</ele>
        <time>2012-06-11T09:28:47Z</time>
      </trkpt>
      <trkpt lat="44.56699" lon="2.65612">
        <ele>331</ele>
        <time>2012-06-11T09:28:48Z</time>
      </trkpt>
      <trkpt lat="44.56699" lon="2.6562">
        <ele>331</ele>
        <time>2012-06-11T09:28:52Z</time>
      </trkpt>
      <trkpt lat="44.56699" lon="2.65624">
        <ele>331</ele>
        <time>2012-06-11T09:28:54Z</time>
      </trkpt>
      <trkpt lat="44.56699" lon="2.65626">
        <ele>331</ele>
        <time>2012-06-11T09:28:55Z</time>
      </trkpt>
      <trkpt lat="44.56698" lon="2.65627">
        <ele>331</ele>
        <time>2012-06-11T09:28:56Z</time>
      </trkpt>
      <trkpt lat="44.56699" lon="2.6563">
        <ele>331</ele>
        <time>2012-06-11T09:28:57Z</time>
      </trkpt>
      <trkpt lat="44.56699" lon="2.65632">
        <ele>331</ele>
        <time>2012-06-11T09:28:58Z</time>
      </trkpt>
      <trkpt lat="44.56699" lon="2.65635">
        <ele>332</ele>
        <time>2012-06-11T09:29:00Z</time>
      </trkpt>
      <trkpt lat="44.56698" lon="2.65636">
        <ele>332</ele>
        <time>2012-06-11T09:29:01Z</time>
      </trkpt>
      <trkpt lat="44.56697" lon="2.65638">
        <ele>333</ele>
        <time>2012-06-11T09:29:02Z</time>
      </trkpt>
      <trkpt lat="44.56697" lon="2.6564">
        <ele>333</ele>
        <time>2012-06-11T09:29:03Z</time>
      </trkpt>
      <trkpt lat="44.56696" lon="2.65642">
        <ele>334</ele>
        <time>2012-06-11T09:29:05Z</time>
      </trkpt>
      <trkpt lat="44.56696" lon="2.65643">
        <ele>334</ele>
        <time>2012-06-11T09:29:06Z</time>
      </trkpt>
      <trkpt lat="44.56694" lon="2.65647">
        <ele>335</ele>
        <time>2012-06-11T09:29:08Z</time>
      </trkpt>
      <trkpt lat="44.56694" lon="2.65649">
        <ele>335</ele>
        <time>2012-06-11T09:29:09Z</time>
      </trkpt>
      <trkpt lat="44.56694" lon="2.65651">
        <ele>335</ele>
        <time>2012-06-11T09:29:10Z</time>
      </trkpt>
      <trkpt lat="44.56693" lon="2.65655">
        <ele>336</ele>
        <time>2012-06-11T09:29:13Z</time>
      </trkpt>
      <trkpt lat="44.56692" lon="2.65657">
        <ele>336</ele>
        <time>2012-06-11T09:29:14Z</time>
      </trkpt>
      <trkpt lat="44.56691" lon="2.65663">
        <ele>336</ele>
        <time>2012-06-11T09:29:22Z</time>
      </trkpt>
      <trkpt lat="44.56689" lon="2.65666">
        <ele>336</ele>
        <time>2012-06-11T09:29:24Z</time>
      </trkpt>
      <trkpt lat="44.56688" lon="2.65668">
        <ele>336</ele>
        <time>2012-06-11T09:29:25Z</time>
      </trkpt>
      <trkpt lat="44.56687" lon="2.65669">
        <ele>336</ele>
        <time>2012-06-11T09:29:26Z</time>
      </trkpt>
      <trkpt lat="44.56686" lon="2.65671">
        <ele>336</ele>
        <time>2012-06-11T09:29:27Z</time>
      </trkpt>
      <trkpt lat="44.56685" lon="2.65673">
        <ele>336</ele>
        <time>2012-06-11T09:29:28Z</time>
      </trkpt>
      <trkpt lat="44.56685" lon="2.65676">
        <ele>336</ele>
        <time>2012-06-11T09:29:29Z</time>
      </trkpt>
      <trkpt lat="44.56684" lon="2.65679">
        <ele>336</ele>
        <time>2012-06-11T09:29:30Z</time>
      </trkpt>
      <trkpt lat="44.56683" lon="2.6568">
        <ele>336</ele>
        <time>2012-06-11T09:29:31Z</time>
      </trkpt>
      <trkpt lat="44.56681" lon="2.65683">
        <ele>336</ele>
        <time>2012-06-11T09:29:33Z</time>
      </trkpt>
      <trkpt lat="44.5668" lon="2.65685">
        <ele>336</ele>
        <time>2012-06-11T09:29:34Z</time>
      </trkpt>
      <trkpt lat="44.56679" lon="2.65686">
        <ele>336</ele>
        <time>2012-06-11T09:29:35Z</time>
      </trkpt>
      <trkpt lat="44.56678" lon="2.65688">
        <ele>336</ele>
        <time>2012-06-11T09:29:36Z</time>
      </trkpt>
      <trkpt lat="44.56677" lon="2.65689">
        <ele>336</ele>
        <time>2012-06-11T09:29:37Z</time>
      </trkpt>
      <trkpt lat="44.56676" lon="2.65691">
        <ele>336</ele>
        <time>2012-06-11T09:29:38Z</time>
      </trkpt>
      <trkpt lat="44.56675" lon="2.65694">
        <ele>336</ele>
        <time>2012-06-11T09:29:39Z</time>
      </trkpt>
      <trkpt lat="44.56675" lon="2.65696">
        <ele>336</ele>
        <time>2012-06-11T09:29:40Z</time>
      </trkpt>
      <trkpt lat="44.56674" lon="2.65698">
        <ele>336</ele>
        <time>2012-06-11T09:29:41Z</time>
      </trkpt>
      <trkpt lat="44.56673" lon="2.657">
        <ele>336</ele>
        <time>2012-06-11T09:29:42Z</time>
      </trkpt>
      <trkpt lat="44.56673" lon="2.65703">
        <ele>336</ele>
        <time>2012-06-11T09:29:43Z</time>
      </trkpt>
      <trkpt lat="44.56673" lon="2.65705">
        <ele>336</ele>
        <time>2012-06-11T09:29:44Z</time>
      </trkpt>
      <trkpt lat="44.56672" lon="2.65707">
        <ele>336</ele>
        <time>2012-06-11T09:29:45Z</time>
      </trkpt>
      <trkpt lat="44.56672" lon="2.65709">
        <ele>336</ele>
        <time>2012-06-11T09:29:46Z</time>
      </trkpt>
      <trkpt lat="44.56671" lon="2.65712">
        <ele>336</ele>
        <time>2012-06-11T09:29:47Z</time>
      </trkpt>
      <trkpt lat="44.5667" lon="2.65716">
        <ele>336</ele>
        <time>2012-06-11T09:29:49Z</time>
      </trkpt>
      <trkpt lat="44.5667" lon="2.65718">
        <ele>336</ele>
        <time>2012-06-11T09:29:50Z</time>
      </trkpt>
      <trkpt lat="44.56669" lon="2.6572">
        <ele>336</ele>
        <time>2012-06-11T09:29:51Z</time>
      </trkpt>
      <trkpt lat="44.56669" lon="2.65722">
        <ele>336</ele>
        <time>2012-06-11T09:29:52Z</time>
      </trkpt>
      <trkpt lat="44.56669" lon="2.65732">
        <ele>336</ele>
        <time>2012-06-11T09:29:57Z</time>
      </trkpt>
      <trkpt lat="44.5667" lon="2.65739">
        <ele>336</ele>
        <time>2012-06-11T09:30:00Z</time>
      </trkpt>
      <trkpt lat="44.5667" lon="2.65745">
        <ele>336</ele>
        <time>2012-06-11T09:30:03Z</time>
      </trkpt>
      <trkpt lat="44.5667" lon="2.65747">
        <ele>336</ele>
        <time>2012-06-11T09:30:04Z</time>
      </trkpt>
      <trkpt lat="44.56669" lon="2.65751">
        <ele>336</ele>
        <time>2012-06-11T09:30:06Z</time>
      </trkpt>
      <trkpt lat="44.56669" lon="2.65753">
        <ele>336</ele>
        <time>2012-06-11T09:30:07Z</time>
      </trkpt>
      <trkpt lat="44.56668" lon="2.65757">
        <ele>336</ele>
        <time>2012-06-11T09:30:09Z</time>
      </trkpt>
      <trkpt lat="44.56668" lon="2.65759">
        <ele>336</ele>
        <time>2012-06-11T09:30:10Z</time>
      </trkpt>
      <trkpt lat="44.56668" lon="2.65763">
        <ele>336</ele>
        <time>2012-06-11T09:30:12Z</time>
      </trkpt>
      <trkpt lat="44.56667" lon="2.65765">
        <ele>336</ele>
        <time>2012-06-11T09:30:13Z</time>
      </trkpt>
      <trkpt lat="44.56668" lon="2.65774">
        <ele>336</ele>
        <time>2012-06-11T09:30:18Z</time>
      </trkpt>
      <trkpt lat="44.56668" lon="2.65776">
        <ele>336</ele>
        <time>2012-06-11T09:30:19Z</time>
      </trkpt>
      <trkpt lat="44.56669" lon="2.65778">
        <ele>336</ele>
        <time>2012-06-11T09:30:20Z</time>
      </trkpt>
      <trkpt lat="44.56669" lon="2.65782">
        <ele>336</ele>
        <time>2012-06-11T09:30:22Z</time>
      </trkpt>
      <trkpt lat="44.5667" lon="2.65784">
        <ele>336</ele>
        <time>2012-06-11T09:30:23Z</time>
      </trkpt>
      <trkpt lat="44.5667" lon="2.65785">
        <ele>336</ele>
        <time>2012-06-11T09:30:24Z</time>
      </trkpt>
      <trkpt lat="44.56671" lon="2.65789">
        <ele>336</ele>
        <time>2012-06-11T09:30:26Z</time>
      </trkpt>
      <trkpt lat="44.56672" lon="2.65791">
        <ele>336</ele>
        <time>2012-06-11T09:30:27Z</time>
      </trkpt>
      <trkpt lat="44.56672" lon="2.65792">
        <ele>336</ele>
        <time>2012-06-11T09:30:28Z</time>
      </trkpt>
      <trkpt lat="44.56673" lon="2.65795">
        <ele>336</ele>
        <time>2012-06-11T09:30:29Z</time>
      </trkpt>
      <trkpt lat="44.56673" lon="2.65797">
        <ele>336</ele>
        <time>2012-06-11T09:30:30Z</time>
      </trkpt>
      <trkpt lat="44.56674" lon="2.65799">
        <ele>336</ele>
        <time>2012-06-11T09:30:31Z</time>
      </trkpt>
      <trkpt lat="44.56675" lon="2.658">
        <ele>336</ele>
        <time>2012-06-11T09:30:32Z</time>
      </trkpt>
      <trkpt lat="44.56676" lon="2.65802">
        <ele>336</ele>
        <time>2012-06-11T09:30:33Z</time>
      </trkpt>
      <trkpt lat="44.56677" lon="2.65803">
        <ele>336</ele>
        <time>2012-06-11T09:30:34Z</time>
      </trkpt>
      <trkpt lat="44.56679" lon="2.65806">
        <ele>336</ele>
        <time>2012-06-11T09:30:36Z</time>
      </trkpt>
      <trkpt lat="44.5668" lon="2.65808">
        <ele>336</ele>
        <time>2012-06-11T09:30:38Z</time>
      </trkpt>
      <trkpt lat="44.56682" lon="2.6581">
        <ele>336</ele>
        <time>2012-06-11T09:30:40Z</time>
      </trkpt>
      <trkpt lat="44.56685" lon="2.6581">
        <ele>336</ele>
        <time>2012-06-11T09:30:43Z</time>
      </trkpt>
      <trkpt lat="44.56686" lon="2.65808">
        <ele>336</ele>
        <time>2012-06-11T09:30:45Z</time>
      </trkpt>
      <trkpt lat="44.56687" lon="2.65806">
        <ele>336</ele>
        <time>2012-06-11T09:30:46Z</time>
      </trkpt>
      <trkpt lat="44.56686" lon="2.65802">
        <ele>336</ele>
        <time>2012-06-11T09:30:48Z</time>
      </trkpt>
      <trkpt lat="44.56687" lon="2.65799">
        <ele>336</ele>
        <time>2012-06-11T09:30:50Z</time>
      </trkpt>
      <trkpt lat="44.56686" lon="2.65793">
        <ele>336</ele>
        <time>2012-06-11T09:30:54Z</time>
      </trkpt>
      <trkpt lat="44.56685" lon="2.6579">
        <ele>336</ele>
        <time>2012-06-11T09:30:56Z</time>
      </trkpt>
      <trkpt lat="44.56684" lon="2.65789">
        <ele>336</ele>
        <time>2012-06-11T09:30:57Z</time>
      </trkpt>
      <trkpt lat="44.56684" lon="2.65781">
        <ele>337</ele>
        <time>2012-06-11T09:31:01Z</time>
      </trkpt>
      <trkpt lat="44.56685" lon="2.65778">
        <ele>338</ele>
        <time>2012-06-11T09:31:02Z</time>
      </trkpt>
      <trkpt lat="44.56686" lon="2.65777">
        <ele>338</ele>
        <time>2012-06-11T09:31:03Z</time>
      </trkpt>
      <trkpt lat="44.56686" lon="2.65775">
        <ele>338</ele>
        <time>2012-06-11T09:31:04Z</time>
      </trkpt>
      <trkpt lat="44.56686" lon="2.65773">
        <ele>338</ele>
        <time>2012-06-11T09:31:05Z</time>
      </trkpt>
      <trkpt lat="44.56687" lon="2.65771">
        <ele>338</ele>
        <time>2012-06-11T09:31:06Z</time>
      </trkpt>
      <trkpt lat="44.56688" lon="2.65769">
        <ele>338</ele>
        <time>2012-06-11T09:31:08Z</time>
      </trkpt>
      <trkpt lat="44.56689" lon="2.65765">
        <ele>338</ele>
        <time>2012-06-11T09:31:10Z</time>
      </trkpt>
      <trkpt lat="44.56689" lon="2.65763">
        <ele>338</ele>
        <time>2012-06-11T09:31:11Z</time>
      </trkpt>
      <trkpt lat="44.5669" lon="2.65761">
        <ele>338</ele>
        <time>2012-06-11T09:31:12Z</time>
      </trkpt>
      <trkpt lat="44.56691" lon="2.65759">
        <ele>338</ele>
        <time>2012-06-11T09:31:13Z</time>
      </trkpt>
      <trkpt lat="44.56691" lon="2.65757">
        <ele>338</ele>
        <time>2012-06-11T09:31:14Z</time>
      </trkpt>
      <trkpt lat="44.56692" lon="2.65756">
        <ele>338</ele>
        <time>2012-06-11T09:31:15Z</time>
      </trkpt>
      <trkpt lat="44.56693" lon="2.65753">
        <ele>338</ele>
        <time>2012-06-11T09:31:16Z</time>
      </trkpt>
      <trkpt lat="44.56693" lon="2.65751">
        <ele>339</ele>
        <time>2012-06-11T09:31:17Z</time>
      </trkpt>
      <trkpt lat="44.56693" lon="2.65749">
        <ele>339</ele>
        <time>2012-06-11T09:31:18Z</time>
      </trkpt>
      <trkpt lat="44.56694" lon="2.65747">
        <ele>340</ele>
        <time>2012-06-11T09:31:19Z</time>
      </trkpt>
      <trkpt lat="44.56694" lon="2.65743">
        <ele>341</ele>
        <time>2012-06-11T09:31:21Z</time>
      </trkpt>
      <trkpt lat="44.56695" lon="2.65742">
        <ele>342</ele>
        <time>2012-06-11T09:31:22Z</time>
      </trkpt>
      <trkpt lat="44.56696" lon="2.65739">
        <ele>343</ele>
        <time>2012-06-11T09:31:23Z</time>
      </trkpt>
      <trkpt lat="44.56696" lon="2.65737">
        <ele>343</ele>
        <time>2012-06-11T09:31:24Z</time>
      </trkpt>
      <trkpt lat="44.56697" lon="2.65736">
        <ele>344</ele>
        <time>2012-06-11T09:31:26Z</time>
      </trkpt>
      <trkpt lat="44.56699" lon="2.65738">
        <ele>344</ele>
        <time>2012-06-11T09:31:29Z</time>
      </trkpt>
      <trkpt lat="44.56698" lon="2.65741">
        <ele>344</ele>
        <time>2012-06-11T09:31:31Z</time>
      </trkpt>
      <trkpt lat="44.56698" lon="2.65743">
        <ele>344</ele>
        <time>2012-06-11T09:31:32Z</time>
      </trkpt>
      <trkpt lat="44.56698" lon="2.65744">
        <ele>345</ele>
        <time>2012-06-11T09:31:33Z</time>
      </trkpt>
      <trkpt lat="44.56699" lon="2.65752">
        <ele>345</ele>
        <time>2012-06-11T09:31:37Z</time>
      </trkpt>
      <trkpt lat="44.56699" lon="2.65754">
        <ele>345</ele>
        <time>2012-06-11T09:31:38Z</time>
      </trkpt>
      <trkpt lat="44.56699" lon="2.65755">
        <ele>345</ele>
        <time>2012-06-11T09:31:39Z</time>
      </trkpt>
      <trkpt lat="44.56699" lon="2.65765">
        <ele>345</ele>
        <time>2012-06-11T09:31:45Z</time>
      </trkpt>
      <trkpt lat="44.56699" lon="2.65767">
        <ele>345</ele>
        <time>2012-06-11T09:31:46Z</time>
      </trkpt>
      <trkpt lat="44.56698" lon="2.65773">
        <ele>345</ele>
        <time>2012-06-11T09:31:49Z</time>
      </trkpt>
      <trkpt lat="44.56698" lon="2.65782">
        <ele>346</ele>
        <time>2012-06-11T09:31:54Z</time>
      </trkpt>
      <trkpt lat="44.56698" lon="2.65784">
        <ele>346</ele>
        <time>2012-06-11T09:31:55Z</time>
      </trkpt>
      <trkpt lat="44.56699" lon="2.65786">
        <ele>346</ele>
        <time>2012-06-11T09:31:57Z</time>
      </trkpt>
      <trkpt lat="44.56699" lon="2.65788">
        <ele>346</ele>
        <time>2012-06-11T09:31:58Z</time>
      </trkpt>
      <trkpt lat="44.567" lon="2.65792">
        <ele>346</ele>
        <time>2012-06-11T09:32:00Z</time>
      </trkpt>
      <trkpt lat="44.567" lon="2.65798">
        <ele>346</ele>
        <time>2012-06-11T09:32:03Z</time>
      </trkpt>
      <trkpt lat="44.56701" lon="2.658">
        <ele>346</ele>
        <time>2012-06-11T09:32:04Z</time>
      </trkpt>
      <trkpt lat="44.567" lon="2.65802">
        <ele>346</ele>
        <time>2012-06-11T09:32:05Z</time>
      </trkpt>
      <trkpt lat="44.56701" lon="2.65805">
        <ele>346</ele>
        <time>2012-06-11T09:32:07Z</time>
      </trkpt>
      <trkpt lat="44.56701" lon="2.65806">
        <ele>346</ele>
        <time>2012-06-11T09:32:08Z</time>
      </trkpt>
      <trkpt lat="44.56702" lon="2.65809">
        <ele>346</ele>
        <time>2012-06-11T09:32:09Z</time>
      </trkpt>
      <trkpt lat="44.56702" lon="2.65815">
        <ele>346</ele>
        <time>2012-06-11T09:32:12Z</time>
      </trkpt>
      <trkpt lat="44.56702" lon="2.65817">
        <ele>346</ele>
        <time>2012-06-11T09:32:13Z</time>
      </trkpt>
      <trkpt lat="44.56703" lon="2.6582">
        <ele>346</ele>
        <time>2012-06-11T09:32:15Z</time>
      </trkpt>
      <trkpt lat="44.56704" lon="2.65822">
        <ele>346</ele>
        <time>2012-06-11T09:32:16Z</time>
      </trkpt>
      <trkpt lat="44.56704" lon="2.65824">
        <ele>346</ele>
        <time>2012-06-11T09:32:17Z</time>
      </trkpt>
      <trkpt lat="44.56705" lon="2.65826">
        <ele>346</ele>
        <time>2012-06-11T09:32:18Z</time>
      </trkpt>
      <trkpt lat="44.56705" lon="2.65828">
        <ele>346</ele>
        <time>2012-06-11T09:32:19Z</time>
      </trkpt>
      <trkpt lat="44.56707" lon="2.6583">
        <ele>346</ele>
        <time>2012-06-11T09:32:20Z</time>
      </trkpt>
      <trkpt lat="44.56708" lon="2.65832">
        <ele>345</ele>
        <time>2012-06-11T09:32:21Z</time>
      </trkpt>
      <trkpt lat="44.56709" lon="2.65834">
        <ele>345</ele>
        <time>2012-06-11T09:32:22Z</time>
      </trkpt>
      <trkpt lat="44.5671" lon="2.65836">
        <ele>345</ele>
        <time>2012-06-11T09:32:23Z</time>
      </trkpt>
      <trkpt lat="44.5671" lon="2.65838">
        <ele>344</ele>
        <time>2012-06-11T09:32:24Z</time>
      </trkpt>
      <trkpt lat="44.56712" lon="2.65841">
        <ele>344</ele>
        <time>2012-06-11T09:32:26Z</time>
      </trkpt>
      <trkpt lat="44.56713" lon="2.65842">
        <ele>344</ele>
        <time>2012-06-11T09:32:27Z</time>
      </trkpt>
      <trkpt lat="44.56715" lon="2.65843">
        <ele>344</ele>
        <time>2012-06-11T09:32:28Z</time>
      </trkpt>
      <trkpt lat="44.56716" lon="2.65845">
        <ele>344</ele>
        <time>2012-06-11T09:32:29Z</time>
      </trkpt>
      <trkpt lat="44.56717" lon="2.65847">
        <ele>344</ele>
        <time>2012-06-11T09:32:31Z</time>
      </trkpt>
      <trkpt lat="44.56718" lon="2.65848">
        <ele>344</ele>
        <time>2012-06-11T09:32:32Z</time>
      </trkpt>
      <trkpt lat="44.5672" lon="2.65849">
        <ele>344</ele>
        <time>2012-06-11T09:32:33Z</time>
      </trkpt>
      <trkpt lat="44.56722" lon="2.6585">
        <ele>344</ele>
        <time>2012-06-11T09:32:34Z</time>
      </trkpt>
      <trkpt lat="44.56723" lon="2.65852">
        <ele>344</ele>
        <time>2012-06-11T09:32:35Z</time>
      </trkpt>
      <trkpt lat="44.56725" lon="2.65853">
        <ele>344</ele>
        <time>2012-06-11T09:32:36Z</time>
      </trkpt>
      <trkpt lat="44.56726" lon="2.65854">
        <ele>344</ele>
        <time>2012-06-11T09:32:37Z</time>
      </trkpt>
      <trkpt lat="44.56728" lon="2.65856">
        <ele>344</ele>
        <time>2012-06-11T09:32:39Z</time>
      </trkpt>
      <trkpt lat="44.5673" lon="2.65858">
        <ele>344</ele>
        <time>2012-06-11T09:32:42Z</time>
      </trkpt>
      <trkpt lat="44.56731" lon="2.65861">
        <ele>344</ele>
        <time>2012-06-11T09:32:44Z</time>
      </trkpt>
      <trkpt lat="44.56733" lon="2.65863">
        <ele>344</ele>
        <time>2012-06-11T09:32:46Z</time>
      </trkpt>
      <trkpt lat="44.56736" lon="2.65864">
        <ele>344</ele>
        <time>2012-06-11T09:32:48Z</time>
      </trkpt>
      <trkpt lat="44.56737" lon="2.65865">
        <ele>344</ele>
        <time>2012-06-11T09:32:49Z</time>
      </trkpt>
      <trkpt lat="44.56739" lon="2.65868">
        <ele>344</ele>
        <time>2012-06-11T09:32:51Z</time>
      </trkpt>
      <trkpt lat="44.5674" lon="2.65869">
        <ele>344</ele>
        <time>2012-06-11T09:32:52Z</time>
      </trkpt>
      <trkpt lat="44.56742" lon="2.65871">
        <ele>345</ele>
        <time>2012-06-11T09:32:54Z</time>
      </trkpt>
      <trkpt lat="44.56743" lon="2.65873">
        <ele>346</ele>
        <time>2012-06-11T09:32:55Z</time>
      </trkpt>
      <trkpt lat="44.56744" lon="2.65873">
        <ele>347</ele>
        <time>2012-06-11T09:32:56Z</time>
      </trkpt>
      <trkpt lat="44.56746" lon="2.65874">
        <ele>348</ele>
        <time>2012-06-11T09:32:57Z</time>
      </trkpt>
      <trkpt lat="44.56747" lon="2.65875">
        <ele>349</ele>
        <time>2012-06-11T09:32:58Z</time>
      </trkpt>
      <trkpt lat="44.56748" lon="2.65875">
        <ele>350</ele>
        <time>2012-06-11T09:32:59Z</time>
      </trkpt>
      <trkpt lat="44.56749" lon="2.65877">
        <ele>352</ele>
        <time>2012-06-11T09:33:01Z</time>
      </trkpt>
      <trkpt lat="44.56751" lon="2.65878">
        <ele>353</ele>
        <time>2012-06-11T09:33:02Z</time>
      </trkpt>
      <trkpt lat="44.56752" lon="2.65878">
        <ele>353</ele>
        <time>2012-06-11T09:33:03Z</time>
      </trkpt>
      <trkpt lat="44.56754" lon="2.65879">
        <ele>353</ele>
        <time>2012-06-11T09:33:04Z</time>
      </trkpt>
      <trkpt lat="44.56755" lon="2.6588">
        <ele>353</ele>
        <time>2012-06-11T09:33:05Z</time>
      </trkpt>
      <trkpt lat="44.56756" lon="2.6588">
        <ele>353</ele>
        <time>2012-06-11T09:33:06Z</time>
      </trkpt>
      <trkpt lat="44.56757" lon="2.65881">
        <ele>353</ele>
        <time>2012-06-11T09:33:07Z</time>
      </trkpt>
      <trkpt lat="44.5676" lon="2.65882">
        <ele>353</ele>
        <time>2012-06-11T09:33:09Z</time>
      </trkpt>
      <trkpt lat="44.56761" lon="2.65883">
        <ele>353</ele>
        <time>2012-06-11T09:33:10Z</time>
      </trkpt>
      <trkpt lat="44.56763" lon="2.65886">
        <ele>353</ele>
        <time>2012-06-11T09:33:12Z</time>
      </trkpt>
      <trkpt lat="44.56764" lon="2.65887">
        <ele>353</ele>
        <time>2012-06-11T09:33:13Z</time>
      </trkpt>
      <trkpt lat="44.56766" lon="2.65888">
        <ele>353</ele>
        <time>2012-06-11T09:33:14Z</time>
      </trkpt>
      <trkpt lat="44.56767" lon="2.65888">
        <ele>353</ele>
        <time>2012-06-11T09:33:15Z</time>
      </trkpt>
      <trkpt lat="44.56768" lon="2.6589">
        <ele>353</ele>
        <time>2012-06-11T09:33:17Z</time>
      </trkpt>
      <trkpt lat="44.5677" lon="2.6589">
        <ele>353</ele>
        <time>2012-06-11T09:33:18Z</time>
      </trkpt>
      <trkpt lat="44.56771" lon="2.65889">
        <ele>353</ele>
        <time>2012-06-11T09:33:19Z</time>
      </trkpt>
      <trkpt lat="44.56773" lon="2.65889">
        <ele>353</ele>
        <time>2012-06-11T09:33:20Z</time>
      </trkpt>
      <trkpt lat="44.56774" lon="2.65889">
        <ele>354</ele>
        <time>2012-06-11T09:33:21Z</time>
      </trkpt>
      <trkpt lat="44.56775" lon="2.6589">
        <ele>354</ele>
        <time>2012-06-11T09:33:22Z</time>
      </trkpt>
      <trkpt lat="44.56776" lon="2.65891">
        <ele>354</ele>
        <time>2012-06-11T09:33:24Z</time>
      </trkpt>
      <trkpt lat="44.56779" lon="2.65891">
        <ele>354</ele>
        <time>2012-06-11T09:33:26Z</time>
      </trkpt>
      <trkpt lat="44.5678" lon="2.65892">
        <ele>355</ele>
        <time>2012-06-11T09:33:27Z</time>
      </trkpt>
      <trkpt lat="44.56781" lon="2.65892">
        <ele>355</ele>
        <time>2012-06-11T09:33:28Z</time>
      </trkpt>
      <trkpt lat="44.56783" lon="2.65893">
        <ele>355</ele>
        <time>2012-06-11T09:33:29Z</time>
      </trkpt>
      <trkpt lat="44.56784" lon="2.65893">
        <ele>355</ele>
        <time>2012-06-11T09:33:30Z</time>
      </trkpt>
      <trkpt lat="44.56786" lon="2.65895">
        <ele>355</ele>
        <time>2012-06-11T09:33:32Z</time>
      </trkpt>
      <trkpt lat="44.56787" lon="2.65896">
        <ele>355</ele>
        <time>2012-06-11T09:33:33Z</time>
      </trkpt>
      <trkpt lat="44.56789" lon="2.65898">
        <ele>355</ele>
        <time>2012-06-11T09:33:34Z</time>
      </trkpt>
      <trkpt lat="44.56791" lon="2.65898">
        <ele>355</ele>
        <time>2012-06-11T09:33:36Z</time>
      </trkpt>
      <trkpt lat="44.56792" lon="2.65898">
        <ele>355</ele>
        <time>2012-06-11T09:33:37Z</time>
      </trkpt>
      <trkpt lat="44.56794" lon="2.65899">
        <ele>355</ele>
        <time>2012-06-11T09:33:38Z</time>
      </trkpt>
      <trkpt lat="44.56795" lon="2.659">
        <ele>355</ele>
        <time>2012-06-11T09:33:39Z</time>
      </trkpt>
      <trkpt lat="44.56795" lon="2.65902">
        <ele>355</ele>
        <time>2012-06-11T09:33:40Z</time>
      </trkpt>
      <trkpt lat="44.56797" lon="2.65905">
        <ele>355</ele>
        <time>2012-06-11T09:33:42Z</time>
      </trkpt>
      <trkpt lat="44.56799" lon="2.65907">
        <ele>355</ele>
        <time>2012-06-11T09:33:44Z</time>
      </trkpt>
      <trkpt lat="44.56801" lon="2.65909">
        <ele>356</ele>
        <time>2012-06-11T09:33:46Z</time>
      </trkpt>
      <trkpt lat="44.56802" lon="2.65911">
        <ele>356</ele>
        <time>2012-06-11T09:33:47Z</time>
      </trkpt>
      <trkpt lat="44.56803" lon="2.65912">
        <ele>356</ele>
        <time>2012-06-11T09:33:48Z</time>
      </trkpt>
      <trkpt lat="44.56805" lon="2.65915">
        <ele>356</ele>
        <time>2012-06-11T09:33:50Z</time>
      </trkpt>
      <trkpt lat="44.56806" lon="2.65915">
        <ele>356</ele>
        <time>2012-06-11T09:33:51Z</time>
      </trkpt>
      <trkpt lat="44.56807" lon="2.65919">
        <ele>357</ele>
        <time>2012-06-11T09:33:53Z</time>
      </trkpt>
      <trkpt lat="44.56808" lon="2.65921">
        <ele>357</ele>
        <time>2012-06-11T09:33:54Z</time>
      </trkpt>
      <trkpt lat="44.56809" lon="2.65921">
        <ele>358</ele>
        <time>2012-06-11T09:33:55Z</time>
      </trkpt>
      <trkpt lat="44.56811" lon="2.65922">
        <ele>358</ele>
        <time>2012-06-11T09:33:56Z</time>
      </trkpt>
      <trkpt lat="44.56812" lon="2.65923">
        <ele>358</ele>
        <time>2012-06-11T09:33:57Z</time>
      </trkpt>
      <trkpt lat="44.56813" lon="2.65924">
        <ele>358</ele>
        <time>2012-06-11T09:33:58Z</time>
      </trkpt>
      <trkpt lat="44.56814" lon="2.65925">
        <ele>358</ele>
        <time>2012-06-11T09:33:59Z</time>
      </trkpt>
      <trkpt lat="44.56816" lon="2.65928">
        <ele>359</ele>
        <time>2012-06-11T09:34:01Z</time>
      </trkpt>
      <trkpt lat="44.56818" lon="2.65929">
        <ele>359</ele>
        <time>2012-06-11T09:34:03Z</time>
      </trkpt>
      <trkpt lat="44.56819" lon="2.6593">
        <ele>359</ele>
        <time>2012-06-11T09:34:04Z</time>
      </trkpt>
      <trkpt lat="44.5682" lon="2.65932">
        <ele>359</ele>
        <time>2012-06-11T09:34:05Z</time>
      </trkpt>
      <trkpt lat="44.56821" lon="2.65933">
        <ele>359</ele>
        <time>2012-06-11T09:34:06Z</time>
      </trkpt>
      <trkpt lat="44.56822" lon="2.65935">
        <ele>359</ele>
        <time>2012-06-11T09:34:07Z</time>
      </trkpt>
      <trkpt lat="44.56823" lon="2.65938">
        <ele>359</ele>
        <time>2012-06-11T09:34:09Z</time>
      </trkpt>
      <trkpt lat="44.56824" lon="2.6594">
        <ele>360</ele>
        <time>2012-06-11T09:34:11Z</time>
      </trkpt>
      <trkpt lat="44.56825" lon="2.65942">
        <ele>360</ele>
        <time>2012-06-11T09:34:12Z</time>
      </trkpt>
      <trkpt lat="44.56826" lon="2.65943">
        <ele>361</ele>
        <time>2012-06-11T09:34:13Z</time>
      </trkpt>
      <trkpt lat="44.56827" lon="2.65944">
        <ele>361</ele>
        <time>2012-06-11T09:34:14Z</time>
      </trkpt>
      <trkpt lat="44.56829" lon="2.65947">
        <ele>362</ele>
        <time>2012-06-11T09:34:16Z</time>
      </trkpt>
      <trkpt lat="44.56831" lon="2.65949">
        <ele>363</ele>
        <time>2012-06-11T09:34:18Z</time>
      </trkpt>
      <trkpt lat="44.56832" lon="2.6595">
        <ele>363</ele>
        <time>2012-06-11T09:34:19Z</time>
      </trkpt>
      <trkpt lat="44.56833" lon="2.65951">
        <ele>363</ele>
        <time>2012-06-11T09:34:20Z</time>
      </trkpt>
      <trkpt lat="44.56834" lon="2.65952">
        <ele>363</ele>
        <time>2012-06-11T09:34:21Z</time>
      </trkpt>
      <trkpt lat="44.56836" lon="2.65954">
        <ele>363</ele>
        <time>2012-06-11T09:34:23Z</time>
      </trkpt>
      <trkpt lat="44.56837" lon="2.65956">
        <ele>363</ele>
        <time>2012-06-11T09:34:24Z</time>
      </trkpt>
      <trkpt lat="44.56839" lon="2.65957">
        <ele>363</ele>
        <time>2012-06-11T09:34:25Z</time>
      </trkpt>
      <trkpt lat="44.5684" lon="2.65959">
        <ele>363</ele>
        <time>2012-06-11T09:34:27Z</time>
      </trkpt>
      <trkpt lat="44.56841" lon="2.65961">
        <ele>363</ele>
        <time>2012-06-11T09:34:28Z</time>
      </trkpt>
      <trkpt lat="44.56843" lon="2.65963">
        <ele>363</ele>
        <time>2012-06-11T09:34:30Z</time>
      </trkpt>
      <trkpt lat="44.56845" lon="2.65965">
        <ele>363</ele>
        <time>2012-06-11T09:34:32Z</time>
      </trkpt>
      <trkpt lat="44.56845" lon="2.65967">
        <ele>363</ele>
        <time>2012-06-11T09:34:33Z</time>
      </trkpt>
      <trkpt lat="44.56847" lon="2.65968">
        <ele>364</ele>
        <time>2012-06-11T09:34:35Z</time>
      </trkpt>
      <trkpt lat="44.56848" lon="2.65971">
        <ele>365</ele>
        <time>2012-06-11T09:34:36Z</time>
      </trkpt>
      <trkpt lat="44.56849" lon="2.65972">
        <ele>366</ele>
        <time>2012-06-11T09:34:37Z</time>
      </trkpt>
      <trkpt lat="44.5685" lon="2.65974">
        <ele>367</ele>
        <time>2012-06-11T09:34:38Z</time>
      </trkpt>
      <trkpt lat="44.56851" lon="2.65976">
        <ele>369</ele>
        <time>2012-06-11T09:34:40Z</time>
      </trkpt>
      <trkpt lat="44.56852" lon="2.65978">
        <ele>370</ele>
        <time>2012-06-11T09:34:41Z</time>
      </trkpt>
      <trkpt lat="44.56852" lon="2.65979">
        <ele>370</ele>
        <time>2012-06-11T09:34:42Z</time>
      </trkpt>
      <trkpt lat="44.56854" lon="2.65981">
        <ele>371</ele>
        <time>2012-06-11T09:34:44Z</time>
      </trkpt>
      <trkpt lat="44.56855" lon="2.65983">
        <ele>371</ele>
        <time>2012-06-11T09:34:45Z</time>
      </trkpt>
      <trkpt lat="44.56856" lon="2.65985">
        <ele>371</ele>
        <time>2012-06-11T09:34:46Z</time>
      </trkpt>
      <trkpt lat="44.56857" lon="2.65986">
        <ele>371</ele>
        <time>2012-06-11T09:34:47Z</time>
      </trkpt>
      <trkpt lat="44.56858" lon="2.65988">
        <ele>371</ele>
        <time>2012-06-11T09:34:48Z</time>
      </trkpt>
      <trkpt lat="44.56858" lon="2.65992">
        <ele>371</ele>
        <time>2012-06-11T09:34:50Z</time>
      </trkpt>
      <trkpt lat="44.56859" lon="2.65994">
        <ele>371</ele>
        <time>2012-06-11T09:34:51Z</time>
      </trkpt>
      <trkpt lat="44.5686" lon="2.65996">
        <ele>371</ele>
        <time>2012-06-11T09:34:53Z</time>
      </trkpt>
      <trkpt lat="44.56861" lon="2.65999">
        <ele>371</ele>
        <time>2012-06-11T09:34:55Z</time>
      </trkpt>
      <trkpt lat="44.56861" lon="2.66001">
        <ele>371</ele>
        <time>2012-06-11T09:34:57Z</time>
      </trkpt>
      <trkpt lat="44.56863" lon="2.66009">
        <ele>372</ele>
        <time>2012-06-11T09:35:01Z</time>
      </trkpt>
      <trkpt lat="44.56863" lon="2.6601">
        <ele>372</ele>
        <time>2012-06-11T09:35:02Z</time>
      </trkpt>
      <trkpt lat="44.56864" lon="2.66012">
        <ele>373</ele>
        <time>2012-06-11T09:35:03Z</time>
      </trkpt>
      <trkpt lat="44.56864" lon="2.66015">
        <ele>373</ele>
        <time>2012-06-11T09:35:04Z</time>
      </trkpt>
      <trkpt lat="44.56863" lon="2.66019">
        <ele>373</ele>
        <time>2012-06-11T09:35:06Z</time>
      </trkpt>
      <trkpt lat="44.56863" lon="2.66021">
        <ele>373</ele>
        <time>2012-06-11T09:35:07Z</time>
      </trkpt>
      <trkpt lat="44.56863" lon="2.66023">
        <ele>373</ele>
        <time>2012-06-11T09:35:08Z</time>
      </trkpt>
      <trkpt lat="44.56862" lon="2.66025">
        <ele>373</ele>
        <time>2012-06-11T09:35:09Z</time>
      </trkpt>
      <trkpt lat="44.56862" lon="2.66026">
        <ele>373</ele>
        <time>2012-06-11T09:35:10Z</time>
      </trkpt>
      <trkpt lat="44.56863" lon="2.66028">
        <ele>373</ele>
        <time>2012-06-11T09:35:11Z</time>
      </trkpt>
      <trkpt lat="44.56863" lon="2.66031">
        <ele>373</ele>
        <time>2012-06-11T09:35:13Z</time>
      </trkpt>
      <trkpt lat="44.56864" lon="2.66033">
        <ele>373</ele>
        <time>2012-06-11T09:35:14Z</time>
      </trkpt>
      <trkpt lat="44.56863" lon="2.66036">
        <ele>373</ele>
        <time>2012-06-11T09:35:16Z</time>
      </trkpt>
      <trkpt lat="44.56864" lon="2.66038">
        <ele>373</ele>
        <time>2012-06-11T09:35:17Z</time>
      </trkpt>
      <trkpt lat="44.56865" lon="2.6604">
        <ele>373</ele>
        <time>2012-06-11T09:35:18Z</time>
      </trkpt>
      <trkpt lat="44.56865" lon="2.66041">
        <ele>373</ele>
        <time>2012-06-11T09:35:19Z</time>
      </trkpt>
      <trkpt lat="44.56865" lon="2.66043">
        <ele>373</ele>
        <time>2012-06-11T09:35:20Z</time>
      </trkpt>
      <trkpt lat="44.56866" lon="2.66046">
        <ele>373</ele>
        <time>2012-06-11T09:35:21Z</time>
      </trkpt>
      <trkpt lat="44.56866" lon="2.66049">
        <ele>373</ele>
        <time>2012-06-11T09:35:23Z</time>
      </trkpt>
      <trkpt lat="44.56867" lon="2.66051">
        <ele>373</ele>
        <time>2012-06-11T09:35:24Z</time>
      </trkpt>
      <trkpt lat="44.56868" lon="2.66054">
        <ele>373</ele>
        <time>2012-06-11T09:35:26Z</time>
      </trkpt>
      <trkpt lat="44.56868" lon="2.66055">
        <ele>372</ele>
        <time>2012-06-11T09:35:27Z</time>
      </trkpt>
      <trkpt lat="44.56868" lon="2.66058">
        <ele>372</ele>
        <time>2012-06-11T09:35:28Z</time>
      </trkpt>
      <trkpt lat="44.56869" lon="2.6606">
        <ele>371</ele>
        <time>2012-06-11T09:35:29Z</time>
      </trkpt>
      <trkpt lat="44.56869" lon="2.66062">
        <ele>371</ele>
        <time>2012-06-11T09:35:30Z</time>
      </trkpt>
      <trkpt lat="44.5687" lon="2.66064">
        <ele>370</ele>
        <time>2012-06-11T09:35:31Z</time>
      </trkpt>
      <trkpt lat="44.5687" lon="2.66068">
        <ele>370</ele>
        <time>2012-06-11T09:35:33Z</time>
      </trkpt>
      <trkpt lat="44.56871" lon="2.6607">
        <ele>370</ele>
        <time>2012-06-11T09:35:34Z</time>
      </trkpt>
      <trkpt lat="44.56871" lon="2.66072">
        <ele>369</ele>
        <time>2012-06-11T09:35:35Z</time>
      </trkpt>
      <trkpt lat="44.56872" lon="2.66075">
        <ele>369</ele>
        <time>2012-06-11T09:35:36Z</time>
      </trkpt>
      <trkpt lat="44.56872" lon="2.66079">
        <ele>369</ele>
        <time>2012-06-11T09:35:38Z</time>
      </trkpt>
      <trkpt lat="44.56873" lon="2.66081">
        <ele>369</ele>
        <time>2012-06-11T09:35:39Z</time>
      </trkpt>
      <trkpt lat="44.56873" lon="2.66082">
        <ele>369</ele>
        <time>2012-06-11T09:35:40Z</time>
      </trkpt>
      <trkpt lat="44.56874" lon="2.66084">
        <ele>369</ele>
        <time>2012-06-11T09:35:41Z</time>
      </trkpt>
      <trkpt lat="44.56874" lon="2.66086">
        <ele>369</ele>
        <time>2012-06-11T09:35:42Z</time>
      </trkpt>
      <trkpt lat="44.56875" lon="2.66087">
        <ele>369</ele>
        <time>2012-06-11T09:35:43Z</time>
      </trkpt>
      <trkpt lat="44.56875" lon="2.6609">
        <ele>369</ele>
        <time>2012-06-11T09:35:45Z</time>
      </trkpt>
      <trkpt lat="44.56876" lon="2.66095">
        <ele>369</ele>
        <time>2012-06-11T09:35:48Z</time>
      </trkpt>
      <trkpt lat="44.56876" lon="2.66099">
        <ele>369</ele>
        <time>2012-06-11T09:35:50Z</time>
      </trkpt>
      <trkpt lat="44.56876" lon="2.6611">
        <ele>369</ele>
        <time>2012-06-11T09:35:55Z</time>
      </trkpt>
      <trkpt lat="44.56876" lon="2.66118">
        <ele>369</ele>
        <time>2012-06-11T09:35:59Z</time>
      </trkpt>
      <trkpt lat="44.56877" lon="2.66123">
        <ele>369</ele>
        <time>2012-06-11T09:36:01Z</time>
      </trkpt>
      <trkpt lat="44.56878" lon="2.66125">
        <ele>369</ele>
        <time>2012-06-11T09:36:02Z</time>
      </trkpt>
      <trkpt lat="44.56879" lon="2.66128">
        <ele>369</ele>
        <time>2012-06-11T09:36:03Z</time>
      </trkpt>
      <trkpt lat="44.56879" lon="2.6613">
        <ele>369</ele>
        <time>2012-06-11T09:36:04Z</time>
      </trkpt>
      <trkpt lat="44.5688" lon="2.66132">
        <ele>369</ele>
        <time>2012-06-11T09:36:05Z</time>
      </trkpt>
      <trkpt lat="44.56881" lon="2.66133">
        <ele>369</ele>
        <time>2012-06-11T09:36:06Z</time>
      </trkpt>
      <trkpt lat="44.56881" lon="2.66135">
        <ele>369</ele>
        <time>2012-06-11T09:36:07Z</time>
      </trkpt>
      <trkpt lat="44.56882" lon="2.66137">
        <ele>369</ele>
        <time>2012-06-11T09:36:08Z</time>
      </trkpt>
      <trkpt lat="44.56882" lon="2.6614">
        <ele>369</ele>
        <time>2012-06-11T09:36:09Z</time>
      </trkpt>
      <trkpt lat="44.56883" lon="2.66142">
        <ele>369</ele>
        <time>2012-06-11T09:36:10Z</time>
      </trkpt>
      <trkpt lat="44.56883" lon="2.66143">
        <ele>369</ele>
        <time>2012-06-11T09:36:11Z</time>
      </trkpt>
      <trkpt lat="44.56884" lon="2.66145">
        <ele>369</ele>
        <time>2012-06-11T09:36:12Z</time>
      </trkpt>
      <trkpt lat="44.56884" lon="2.66146">
        <ele>369</ele>
        <time>2012-06-11T09:36:13Z</time>
      </trkpt>
      <trkpt lat="44.56885" lon="2.66148">
        <ele>369</ele>
        <time>2012-06-11T09:36:14Z</time>
      </trkpt>
      <trkpt lat="44.56887" lon="2.66151">
        <ele>369</ele>
        <time>2012-06-11T09:36:16Z</time>
      </trkpt>
      <trkpt lat="44.56888" lon="2.66153">
        <ele>369</ele>
        <time>2012-06-11T09:36:18Z</time>
      </trkpt>
      <trkpt lat="44.56889" lon="2.66156">
        <ele>369</ele>
        <time>2012-06-11T09:36:20Z</time>
      </trkpt>
      <trkpt lat="44.5689" lon="2.66158">
        <ele>369</ele>
        <time>2012-06-11T09:36:21Z</time>
      </trkpt>
      <trkpt lat="44.56891" lon="2.6616">
        <ele>369</ele>
        <time>2012-06-11T09:36:22Z</time>
      </trkpt>
      <trkpt lat="44.56892" lon="2.66162">
        <ele>369</ele>
        <time>2012-06-11T09:36:23Z</time>
      </trkpt>
      <trkpt lat="44.56891" lon="2.66169">
        <ele>369</ele>
        <time>2012-06-11T09:36:26Z</time>
      </trkpt>
      <trkpt lat="44.56891" lon="2.66171">
        <ele>369</ele>
        <time>2012-06-11T09:36:27Z</time>
      </trkpt>
      <trkpt lat="44.56891" lon="2.66173">
        <ele>369</ele>
        <time>2012-06-11T09:36:28Z</time>
      </trkpt>
      <trkpt lat="44.56892" lon="2.66174">
        <ele>369</ele>
        <time>2012-06-11T09:36:29Z</time>
      </trkpt>
      <trkpt lat="44.56891" lon="2.66176">
        <ele>369</ele>
        <time>2012-06-11T09:36:30Z</time>
      </trkpt>
      <trkpt lat="44.56891" lon="2.6618">
        <ele>369</ele>
        <time>2012-06-11T09:36:32Z</time>
      </trkpt>
      <trkpt lat="44.56891" lon="2.66186">
        <ele>369</ele>
        <time>2012-06-11T09:36:35Z</time>
      </trkpt>
      <trkpt lat="44.56892" lon="2.66188">
        <ele>369</ele>
        <time>2012-06-11T09:36:36Z</time>
      </trkpt>
      <trkpt lat="44.56892" lon="2.6619">
        <ele>369</ele>
        <time>2012-06-11T09:36:37Z</time>
      </trkpt>
      <trkpt lat="44.56892" lon="2.66192">
        <ele>369</ele>
        <time>2012-06-11T09:36:38Z</time>
      </trkpt>
      <trkpt lat="44.56893" lon="2.66202">
        <ele>369</ele>
        <time>2012-06-11T09:36:43Z</time>
      </trkpt>
      <trkpt lat="44.56894" lon="2.66204">
        <ele>369</ele>
        <time>2012-06-11T09:36:44Z</time>
      </trkpt>
      <trkpt lat="44.56894" lon="2.66206">
        <ele>369</ele>
        <time>2012-06-11T09:36:45Z</time>
      </trkpt>
      <trkpt lat="44.56895" lon="2.66208">
        <ele>369</ele>
        <time>2012-06-11T09:36:46Z</time>
      </trkpt>
      <trkpt lat="44.56895" lon="2.6621">
        <ele>369</ele>
        <time>2012-06-11T09:36:47Z</time>
      </trkpt>
      <trkpt lat="44.56896" lon="2.66211">
        <ele>369</ele>
        <time>2012-06-11T09:36:48Z</time>
      </trkpt>
      <trkpt lat="44.56897" lon="2.66215">
        <ele>369</ele>
        <time>2012-06-11T09:36:50Z</time>
      </trkpt>
      <trkpt lat="44.56898" lon="2.66217">
        <ele>369</ele>
        <time>2012-06-11T09:36:51Z</time>
      </trkpt>
      <trkpt lat="44.56899" lon="2.66219">
        <ele>369</ele>
        <time>2012-06-11T09:36:52Z</time>
      </trkpt>
      <trkpt lat="44.56899" lon="2.66221">
        <ele>369</ele>
        <time>2012-06-11T09:36:53Z</time>
      </trkpt>
      <trkpt lat="44.56901" lon="2.66224">
        <ele>369</ele>
        <time>2012-06-11T09:36:55Z</time>
      </trkpt>
      <trkpt lat="44.56902" lon="2.66227">
        <ele>369</ele>
        <time>2012-06-11T09:36:56Z</time>
      </trkpt>
      <trkpt lat="44.56903" lon="2.66229">
        <ele>369</ele>
        <time>2012-06-11T09:36:57Z</time>
      </trkpt>
      <trkpt lat="44.56904" lon="2.6623">
        <ele>369</ele>
        <time>2012-06-11T09:36:58Z</time>
      </trkpt>
      <trkpt lat="44.56905" lon="2.66232">
        <ele>370</ele>
        <time>2012-06-11T09:36:59Z</time>
      </trkpt>
      <trkpt lat="44.56906" lon="2.66233">
        <ele>370</ele>
        <time>2012-06-11T09:37:00Z</time>
      </trkpt>
      <trkpt lat="44.56908" lon="2.66237">
        <ele>370</ele>
        <time>2012-06-11T09:37:02Z</time>
      </trkpt>
      <trkpt lat="44.56909" lon="2.66239">
        <ele>370</ele>
        <time>2012-06-11T09:37:03Z</time>
      </trkpt>
      <trkpt lat="44.5691" lon="2.66241">
        <ele>370</ele>
        <time>2012-06-11T09:37:04Z</time>
      </trkpt>
      <trkpt lat="44.56911" lon="2.66241">
        <ele>370</ele>
        <time>2012-06-11T09:37:05Z</time>
      </trkpt>
      <trkpt lat="44.56912" lon="2.66243">
        <ele>370</ele>
        <time>2012-06-11T09:37:06Z</time>
      </trkpt>
      <trkpt lat="44.56914" lon="2.66244">
        <ele>370</ele>
        <time>2012-06-11T09:37:07Z</time>
      </trkpt>
      <trkpt lat="44.56915" lon="2.66246">
        <ele>370</ele>
        <time>2012-06-11T09:37:08Z</time>
      </trkpt>
      <trkpt lat="44.56915" lon="2.66248">
        <ele>370</ele>
        <time>2012-06-11T09:37:09Z</time>
      </trkpt>
      <trkpt lat="44.56916" lon="2.66249">
        <ele>370</ele>
        <time>2012-06-11T09:37:10Z</time>
      </trkpt>
      <trkpt lat="44.56917" lon="2.66253">
        <ele>370</ele>
        <time>2012-06-11T09:37:11Z</time>
      </trkpt>
      <trkpt lat="44.56917" lon="2.66256">
        <ele>370</ele>
        <time>2012-06-11T09:37:12Z</time>
      </trkpt>
      <trkpt lat="44.56918" lon="2.66258">
        <ele>370</ele>
        <time>2012-06-11T09:37:13Z</time>
      </trkpt>
      <trkpt lat="44.56919" lon="2.66261">
        <ele>371</ele>
        <time>2012-06-11T09:37:14Z</time>
      </trkpt>
      <trkpt lat="44.56919" lon="2.66262">
        <ele>371</ele>
        <time>2012-06-11T09:37:15Z</time>
      </trkpt>
      <trkpt lat="44.56919" lon="2.66268">
        <ele>372</ele>
        <time>2012-06-11T09:37:20Z</time>
      </trkpt>
      <trkpt lat="44.5692" lon="2.6627">
        <ele>372</ele>
        <time>2012-06-11T09:37:21Z</time>
      </trkpt>
      <trkpt lat="44.5692" lon="2.66272">
        <ele>372</ele>
        <time>2012-06-11T09:37:22Z</time>
      </trkpt>
      <trkpt lat="44.5692" lon="2.66277">
        <ele>372</ele>
        <time>2012-06-11T09:37:24Z</time>
      </trkpt>
      <trkpt lat="44.5692" lon="2.66279">
        <ele>372</ele>
        <time>2012-06-11T09:37:25Z</time>
      </trkpt>
      <trkpt lat="44.5692" lon="2.66287">
        <ele>372</ele>
        <time>2012-06-11T09:37:29Z</time>
      </trkpt>
      <trkpt lat="44.56919" lon="2.66292">
        <ele>372</ele>
        <time>2012-06-11T09:37:31Z</time>
      </trkpt>
      <trkpt lat="44.56919" lon="2.66294">
        <ele>372</ele>
        <time>2012-06-11T09:37:32Z</time>
      </trkpt>
      <trkpt lat="44.56918" lon="2.66297">
        <ele>373</ele>
        <time>2012-06-11T09:37:33Z</time>
      </trkpt>
      <trkpt lat="44.56919" lon="2.66304">
        <ele>376</ele>
        <time>2012-06-11T09:37:36Z</time>
      </trkpt>
      <trkpt lat="44.56919" lon="2.66306">
        <ele>377</ele>
        <time>2012-06-11T09:37:37Z</time>
      </trkpt>
      <trkpt lat="44.5692" lon="2.66308">
        <ele>378</ele>
        <time>2012-06-11T09:37:38Z</time>
      </trkpt>
      <trkpt lat="44.5692" lon="2.66313">
        <ele>379</ele>
        <time>2012-06-11T09:37:40Z</time>
      </trkpt>
      <trkpt lat="44.5692" lon="2.66315">
        <ele>380</ele>
        <time>2012-06-11T09:37:41Z</time>
      </trkpt>
      <trkpt lat="44.56919" lon="2.66317">
        <ele>381</ele>
        <time>2012-06-11T09:37:42Z</time>
      </trkpt>
      <trkpt lat="44.56919" lon="2.66318">
        <ele>382</ele>
        <time>2012-06-11T09:37:43Z</time>
      </trkpt>
      <trkpt lat="44.56919" lon="2.66323">
        <ele>384</ele>
        <time>2012-06-11T09:37:45Z</time>
      </trkpt>
      <trkpt lat="44.56919" lon="2.66324">
        <ele>385</ele>
        <time>2012-06-11T09:37:46Z</time>
      </trkpt>
      <trkpt lat="44.56918" lon="2.66328">
        <ele>387</ele>
        <time>2012-06-11T09:37:48Z</time>
      </trkpt>
      <trkpt lat="44.56918" lon="2.6633">
        <ele>388</ele>
        <time>2012-06-11T09:37:49Z</time>
      </trkpt>
      <trkpt lat="44.56918" lon="2.66331">
        <ele>390</ele>
        <time>2012-06-11T09:37:51Z</time>
      </trkpt>
      <trkpt lat="44.56916" lon="2.66331">
        <ele>392</ele>
        <time>2012-06-11T09:37:54Z</time>
      </trkpt>
      <trkpt lat="44.56915" lon="2.66331">
        <ele>392</ele>
        <time>2012-06-11T09:37:56Z</time>
      </trkpt>
      <trkpt lat="44.56911" lon="2.66329">
        <ele>392</ele>
        <time>2012-06-11T09:37:59Z</time>
      </trkpt>
      <trkpt lat="44.5691" lon="2.66329">
        <ele>392</ele>
        <time>2012-06-11T09:38:00Z</time>
      </trkpt>
      <trkpt lat="44.56908" lon="2.66327">
        <ele>392</ele>
        <time>2012-06-11T09:38:01Z</time>
      </trkpt>
      <trkpt lat="44.56907" lon="2.66326">
        <ele>392</ele>
        <time>2012-06-11T09:38:02Z</time>
      </trkpt>
      <trkpt lat="44.56905" lon="2.66325">
        <ele>392</ele>
        <time>2012-06-11T09:38:03Z</time>
      </trkpt>
      <trkpt lat="44.56903" lon="2.66323">
        <ele>392</ele>
        <time>2012-06-11T09:38:04Z</time>
      </trkpt>
      <trkpt lat="44.56902" lon="2.66321">
        <ele>393</ele>
        <time>2012-06-11T09:38:05Z</time>
      </trkpt>
      <trkpt lat="44.569" lon="2.6632">
        <ele>393</ele>
        <time>2012-06-11T09:38:06Z</time>
      </trkpt>
      <trkpt lat="44.56899" lon="2.6632">
        <ele>394</ele>
        <time>2012-06-11T09:38:07Z</time>
      </trkpt>
      <trkpt lat="44.56897" lon="2.66318">
        <ele>394</ele>
        <time>2012-06-11T09:38:08Z</time>
      </trkpt>
      <trkpt lat="44.56896" lon="2.66317">
        <ele>394</ele>
        <time>2012-06-11T09:38:09Z</time>
      </trkpt>
      <trkpt lat="44.56895" lon="2.66316">
        <ele>394</ele>
        <time>2012-06-11T09:38:10Z</time>
      </trkpt>
      <trkpt lat="44.56893" lon="2.66316">
        <ele>394</ele>
        <time>2012-06-11T09:38:11Z</time>
      </trkpt>
      <trkpt lat="44.56892" lon="2.66314">
        <ele>394</ele>
        <time>2012-06-11T09:38:12Z</time>
      </trkpt>
      <trkpt lat="44.56891" lon="2.66314">
        <ele>394</ele>
        <time>2012-06-11T09:38:13Z</time>
      </trkpt>
      <trkpt lat="44.56888" lon="2.66314">
        <ele>394</ele>
        <time>2012-06-11T09:38:15Z</time>
      </trkpt>
      <trkpt lat="44.56887" lon="2.66315">
        <ele>394</ele>
        <time>2012-06-11T09:38:16Z</time>
      </trkpt>
      <trkpt lat="44.56884" lon="2.66315">
        <ele>394</ele>
        <time>2012-06-11T09:38:18Z</time>
      </trkpt>
      <trkpt lat="44.56883" lon="2.66316">
        <ele>394</ele>
        <time>2012-06-11T09:38:19Z</time>
      </trkpt>
      <trkpt lat="44.56882" lon="2.66316">
        <ele>394</ele>
        <time>2012-06-11T09:38:20Z</time>
      </trkpt>
      <trkpt lat="44.5688" lon="2.66317">
        <ele>394</ele>
        <time>2012-06-11T09:38:21Z</time>
      </trkpt>
      <trkpt lat="44.56879" lon="2.66316">
        <ele>393</ele>
        <time>2012-06-11T09:38:22Z</time>
      </trkpt>
      <trkpt lat="44.56877" lon="2.66317">
        <ele>393</ele>
        <time>2012-06-11T09:38:23Z</time>
      </trkpt>
      <trkpt lat="44.56876" lon="2.66318">
        <ele>392</ele>
        <time>2012-06-11T09:38:24Z</time>
      </trkpt>
      <trkpt lat="44.56874" lon="2.66319">
        <ele>391</ele>
        <time>2012-06-11T09:38:25Z</time>
      </trkpt>
      <trkpt lat="44.56873" lon="2.66319">
        <ele>390</ele>
        <time>2012-06-11T09:38:26Z</time>
      </trkpt>
      <trkpt lat="44.56871" lon="2.6632">
        <ele>389</ele>
        <time>2012-06-11T09:38:27Z</time>
      </trkpt>
      <trkpt lat="44.5687" lon="2.66321">
        <ele>388</ele>
        <time>2012-06-11T09:38:28Z</time>
      </trkpt>
      <trkpt lat="44.56868" lon="2.66322">
        <ele>387</ele>
        <time>2012-06-11T09:38:29Z</time>
      </trkpt>
      <trkpt lat="44.56866" lon="2.66322">
        <ele>387</ele>
        <time>2012-06-11T09:38:30Z</time>
      </trkpt>
      <trkpt lat="44.56865" lon="2.66322">
        <ele>386</ele>
        <time>2012-06-11T09:38:31Z</time>
      </trkpt>
      <trkpt lat="44.56863" lon="2.66323">
        <ele>385</ele>
        <time>2012-06-11T09:38:32Z</time>
      </trkpt>
      <trkpt lat="44.56862" lon="2.66323">
        <ele>384</ele>
        <time>2012-06-11T09:38:33Z</time>
      </trkpt>
      <trkpt lat="44.5686" lon="2.66322">
        <ele>383</ele>
        <time>2012-06-11T09:38:34Z</time>
      </trkpt>
      <trkpt lat="44.56858" lon="2.66322">
        <ele>383</ele>
        <time>2012-06-11T09:38:35Z</time>
      </trkpt>
      <trkpt lat="44.56856" lon="2.66321">
        <ele>382</ele>
        <time>2012-06-11T09:38:37Z</time>
      </trkpt>
      <trkpt lat="44.56854" lon="2.6632">
        <ele>382</ele>
        <time>2012-06-11T09:38:38Z</time>
      </trkpt>
      <trkpt lat="44.56852" lon="2.66319">
        <ele>382</ele>
        <time>2012-06-11T09:38:39Z</time>
      </trkpt>
      <trkpt lat="44.56851" lon="2.66319">
        <ele>382</ele>
        <time>2012-06-11T09:38:40Z</time>
      </trkpt>
      <trkpt lat="44.56849" lon="2.66319">
        <ele>382</ele>
        <time>2012-06-11T09:38:41Z</time>
      </trkpt>
      <trkpt lat="44.56848" lon="2.6632">
        <ele>382</ele>
        <time>2012-06-11T09:38:42Z</time>
      </trkpt>
      <trkpt lat="44.56846" lon="2.6632">
        <ele>382</ele>
        <time>2012-06-11T09:38:43Z</time>
      </trkpt>
      <trkpt lat="44.56843" lon="2.66321">
        <ele>382</ele>
        <time>2012-06-11T09:38:45Z</time>
      </trkpt>
      <trkpt lat="44.56841" lon="2.66321">
        <ele>382</ele>
        <time>2012-06-11T09:38:46Z</time>
      </trkpt>
      <trkpt lat="44.56839" lon="2.66322">
        <ele>382</ele>
        <time>2012-06-11T09:38:47Z</time>
      </trkpt>
      <trkpt lat="44.56838" lon="2.66323">
        <ele>382</ele>
        <time>2012-06-11T09:38:48Z</time>
      </trkpt>
      <trkpt lat="44.56836" lon="2.66323">
        <ele>381</ele>
        <time>2012-06-11T09:38:49Z</time>
      </trkpt>
      <trkpt lat="44.56834" lon="2.66325">
        <ele>381</ele>
        <time>2012-06-11T09:38:51Z</time>
      </trkpt>
      <trkpt lat="44.56833" lon="2.66326">
        <ele>381</ele>
        <time>2012-06-11T09:38:52Z</time>
      </trkpt>
      <trkpt lat="44.56831" lon="2.66328">
        <ele>380</ele>
        <time>2012-06-11T09:38:53Z</time>
      </trkpt>
      <trkpt lat="44.56831" lon="2.66329">
        <ele>380</ele>
        <time>2012-06-11T09:38:54Z</time>
      </trkpt>
      <trkpt lat="44.56829" lon="2.6633">
        <ele>380</ele>
        <time>2012-06-11T09:38:55Z</time>
      </trkpt>
      <trkpt lat="44.56828" lon="2.66332">
        <ele>380</ele>
        <time>2012-06-11T09:38:56Z</time>
      </trkpt>
      <trkpt lat="44.56826" lon="2.66333">
        <ele>380</ele>
        <time>2012-06-11T09:38:57Z</time>
      </trkpt>
      <trkpt lat="44.56825" lon="2.66335">
        <ele>380</ele>
        <time>2012-06-11T09:38:58Z</time>
      </trkpt>
      <trkpt lat="44.56824" lon="2.66336">
        <ele>379</ele>
        <time>2012-06-11T09:38:59Z</time>
      </trkpt>
      <trkpt lat="44.56823" lon="2.66338">
        <ele>379</ele>
        <time>2012-06-11T09:39:00Z</time>
      </trkpt>
      <trkpt lat="44.56822" lon="2.6634">
        <ele>379</ele>
        <time>2012-06-11T09:39:01Z</time>
      </trkpt>
      <trkpt lat="44.56821" lon="2.66342">
        <ele>378</ele>
        <time>2012-06-11T09:39:02Z</time>
      </trkpt>
      <trkpt lat="44.5682" lon="2.66344">
        <ele>377</ele>
        <time>2012-06-11T09:39:03Z</time>
      </trkpt>
      <trkpt lat="44.56818" lon="2.66346">
        <ele>377</ele>
        <time>2012-06-11T09:39:04Z</time>
      </trkpt>
      <trkpt lat="44.56817" lon="2.66347">
        <ele>377</ele>
        <time>2012-06-11T09:39:05Z</time>
      </trkpt>
      <trkpt lat="44.56816" lon="2.66349">
        <ele>377</ele>
        <time>2012-06-11T09:39:06Z</time>
      </trkpt>
      <trkpt lat="44.56815" lon="2.6635">
        <ele>377</ele>
        <time>2012-06-11T09:39:07Z</time>
      </trkpt>
      <trkpt lat="44.56813" lon="2.66351">
        <ele>377</ele>
        <time>2012-06-11T09:39:08Z</time>
      </trkpt>
      <trkpt lat="44.56812" lon="2.66352">
        <ele>377</ele>
        <time>2012-06-11T09:39:09Z</time>
      </trkpt>
      <trkpt lat="44.5681" lon="2.66354">
        <ele>377</ele>
        <time>2012-06-11T09:39:10Z</time>
      </trkpt>
      <trkpt lat="44.56808" lon="2.66354">
        <ele>377</ele>
        <time>2012-06-11T09:39:11Z</time>
      </trkpt>
      <trkpt lat="44.56806" lon="2.66356">
        <ele>377</ele>
        <time>2012-06-11T09:39:12Z</time>
      </trkpt>
      <trkpt lat="44.56805" lon="2.66357">
        <ele>377</ele>
        <time>2012-06-11T09:39:13Z</time>
      </trkpt>
      <trkpt lat="44.56803" lon="2.66357">
        <ele>377</ele>
        <time>2012-06-11T09:39:14Z</time>
      </trkpt>
      <trkpt lat="44.56799" lon="2.66358">
        <ele>377</ele>
        <time>2012-06-11T09:39:16Z</time>
      </trkpt>
      <trkpt lat="44.56797" lon="2.66358">
        <ele>377</ele>
        <time>2012-06-11T09:39:17Z</time>
      </trkpt>
      <trkpt lat="44.56796" lon="2.66358">
        <ele>377</ele>
        <time>2012-06-11T09:39:18Z</time>
      </trkpt>
      <trkpt lat="44.56794" lon="2.66361">
        <ele>377</ele>
        <time>2012-06-11T09:39:20Z</time>
      </trkpt>
      <trkpt lat="44.56793" lon="2.66363">
        <ele>377</ele>
        <time>2012-06-11T09:39:21Z</time>
      </trkpt>
      <trkpt lat="44.56792" lon="2.66364">
        <ele>377</ele>
        <time>2012-06-11T09:39:22Z</time>
      </trkpt>
      <trkpt lat="44.5679" lon="2.66366">
        <ele>377</ele>
        <time>2012-06-11T09:39:23Z</time>
      </trkpt>
      <trkpt lat="44.56789" lon="2.66368">
        <ele>377</ele>
        <time>2012-06-11T09:39:24Z</time>
      </trkpt>
      <trkpt lat="44.56787" lon="2.66369">
        <ele>377</ele>
        <time>2012-06-11T09:39:25Z</time>
      </trkpt>
      <trkpt lat="44.56786" lon="2.6637">
        <ele>377</ele>
        <time>2012-06-11T09:39:26Z</time>
      </trkpt>
      <trkpt lat="44.56784" lon="2.66372">
        <ele>377</ele>
        <time>2012-06-11T09:39:27Z</time>
      </trkpt>
      <trkpt lat="44.56783" lon="2.66373">
        <ele>376</ele>
        <time>2012-06-11T09:39:28Z</time>
      </trkpt>
      <trkpt lat="44.56782" lon="2.66374">
        <ele>376</ele>
        <time>2012-06-11T09:39:29Z</time>
      </trkpt>
      <trkpt lat="44.56781" lon="2.66376">
        <ele>375</ele>
        <time>2012-06-11T09:39:30Z</time>
      </trkpt>
      <trkpt lat="44.5678" lon="2.66378">
        <ele>374</ele>
        <time>2012-06-11T09:39:31Z</time>
      </trkpt>
      <trkpt lat="44.56779" lon="2.66379">
        <ele>374</ele>
        <time>2012-06-11T09:39:32Z</time>
      </trkpt>
      <trkpt lat="44.56777" lon="2.6638">
        <ele>373</ele>
        <time>2012-06-11T09:39:33Z</time>
      </trkpt>
      <trkpt lat="44.56776" lon="2.66382">
        <ele>373</ele>
        <time>2012-06-11T09:39:34Z</time>
      </trkpt>
      <trkpt lat="44.56775" lon="2.66383">
        <ele>373</ele>
        <time>2012-06-11T09:39:35Z</time>
      </trkpt>
      <trkpt lat="44.56773" lon="2.66384">
        <ele>373</ele>
        <time>2012-06-11T09:39:36Z</time>
      </trkpt>
      <trkpt lat="44.56772" lon="2.66386">
        <ele>373</ele>
        <time>2012-06-11T09:39:37Z</time>
      </trkpt>
      <trkpt lat="44.56771" lon="2.66387">
        <ele>373</ele>
        <time>2012-06-11T09:39:38Z</time>
      </trkpt>
      <trkpt lat="44.5677" lon="2.66388">
        <ele>373</ele>
        <time>2012-06-11T09:39:39Z</time>
      </trkpt>
      <trkpt lat="44.56768" lon="2.66389">
        <ele>373</ele>
        <time>2012-06-11T09:39:40Z</time>
      </trkpt>
      <trkpt lat="44.56768" lon="2.6639">
        <ele>373</ele>
        <time>2012-06-11T09:39:41Z</time>
      </trkpt>
      <trkpt lat="44.56766" lon="2.66391">
        <ele>373</ele>
        <time>2012-06-11T09:39:42Z</time>
      </trkpt>
      <trkpt lat="44.56765" lon="2.66393">
        <ele>373</ele>
        <time>2012-06-11T09:39:43Z</time>
      </trkpt>
      <trkpt lat="44.56764" lon="2.66393">
        <ele>373</ele>
        <time>2012-06-11T09:39:44Z</time>
      </trkpt>
      <trkpt lat="44.56762" lon="2.66394">
        <ele>373</ele>
        <time>2012-06-11T09:39:45Z</time>
      </trkpt>
      <trkpt lat="44.56761" lon="2.66395">
        <ele>373</ele>
        <time>2012-06-11T09:39:46Z</time>
      </trkpt>
      <trkpt lat="44.56759" lon="2.66396">
        <ele>373</ele>
        <time>2012-06-11T09:39:47Z</time>
      </trkpt>
      <trkpt lat="44.56758" lon="2.66396">
        <ele>373</ele>
        <time>2012-06-11T09:39:48Z</time>
      </trkpt>
      <trkpt lat="44.56756" lon="2.66396">
        <ele>373</ele>
        <time>2012-06-11T09:39:49Z</time>
      </trkpt>
      <trkpt lat="44.56754" lon="2.66397">
        <ele>373</ele>
        <time>2012-06-11T09:39:51Z</time>
      </trkpt>
      <trkpt lat="44.56753" lon="2.66397">
        <ele>373</ele>
        <time>2012-06-11T09:39:52Z</time>
      </trkpt>
      <trkpt lat="44.56752" lon="2.66398">
        <ele>373</ele>
        <time>2012-06-11T09:39:53Z</time>
      </trkpt>
      <trkpt lat="44.5675" lon="2.66399">
        <ele>373</ele>
        <time>2012-06-11T09:39:54Z</time>
      </trkpt>
      <trkpt lat="44.56749" lon="2.664">
        <ele>373</ele>
        <time>2012-06-11T09:39:55Z</time>
      </trkpt>
      <trkpt lat="44.56747" lon="2.66401">
        <ele>373</ele>
        <time>2012-06-11T09:39:56Z</time>
      </trkpt>
      <trkpt lat="44.56746" lon="2.66402">
        <ele>373</ele>
        <time>2012-06-11T09:39:57Z</time>
      </trkpt>
      <trkpt lat="44.56744" lon="2.66403">
        <ele>373</ele>
        <time>2012-06-11T09:39:58Z</time>
      </trkpt>
      <trkpt lat="44.56743" lon="2.66404">
        <ele>373</ele>
        <time>2012-06-11T09:39:59Z</time>
      </trkpt>
      <trkpt lat="44.56741" lon="2.66405">
        <ele>373</ele>
        <time>2012-06-11T09:40:00Z</time>
      </trkpt>
      <trkpt lat="44.5674" lon="2.66406">
        <ele>373</ele>
        <time>2012-06-11T09:40:01Z</time>
      </trkpt>
      <trkpt lat="44.56739" lon="2.66407">
        <ele>373</ele>
        <time>2012-06-11T09:40:02Z</time>
      </trkpt>
      <trkpt lat="44.56738" lon="2.66408">
        <ele>373</ele>
        <time>2012-06-11T09:40:03Z</time>
      </trkpt>
      <trkpt lat="44.56736" lon="2.6641">
        <ele>373</ele>
        <time>2012-06-11T09:40:04Z</time>
      </trkpt>
      <trkpt lat="44.56735" lon="2.66411">
        <ele>373</ele>
        <time>2012-06-11T09:40:05Z</time>
      </trkpt>
      <trkpt lat="44.56734" lon="2.66412">
        <ele>373</ele>
        <time>2012-06-11T09:40:06Z</time>
      </trkpt>
      <trkpt lat="44.56733" lon="2.66413">
        <ele>373</ele>
        <time>2012-06-11T09:40:07Z</time>
      </trkpt>
      <trkpt lat="44.56731" lon="2.66414">
        <ele>373</ele>
        <time>2012-06-11T09:40:08Z</time>
      </trkpt>
      <trkpt lat="44.5673" lon="2.66415">
        <ele>373</ele>
        <time>2012-06-11T09:40:09Z</time>
      </trkpt>
      <trkpt lat="44.56729" lon="2.66415">
        <ele>373</ele>
        <time>2012-06-11T09:40:10Z</time>
      </trkpt>
      <trkpt lat="44.56728" lon="2.66416">
        <ele>373</ele>
        <time>2012-06-11T09:40:11Z</time>
      </trkpt>
      <trkpt lat="44.56725" lon="2.66418">
        <ele>373</ele>
        <time>2012-06-11T09:40:13Z</time>
      </trkpt>
      <trkpt lat="44.56724" lon="2.66419">
        <ele>373</ele>
        <time>2012-06-11T09:40:14Z</time>
      </trkpt>
      <trkpt lat="44.56723" lon="2.6642">
        <ele>373</ele>
        <time>2012-06-11T09:40:15Z</time>
      </trkpt>
      <trkpt lat="44.56722" lon="2.66421">
        <ele>373</ele>
        <time>2012-06-11T09:40:16Z</time>
      </trkpt>
      <trkpt lat="44.5672" lon="2.66421">
        <ele>373</ele>
        <time>2012-06-11T09:40:17Z</time>
      </trkpt>
      <trkpt lat="44.56719" lon="2.66422">
        <ele>373</ele>
        <time>2012-06-11T09:40:18Z</time>
      </trkpt>
      <trkpt lat="44.56718" lon="2.66423">
        <ele>373</ele>
        <time>2012-06-11T09:40:19Z</time>
      </trkpt>
      <trkpt lat="44.56716" lon="2.66424">
        <ele>373</ele>
        <time>2012-06-11T09:40:20Z</time>
      </trkpt>
      <trkpt lat="44.56715" lon="2.66425">
        <ele>373</ele>
        <time>2012-06-11T09:40:21Z</time>
      </trkpt>
      <trkpt lat="44.56713" lon="2.66426">
        <ele>373</ele>
        <time>2012-06-11T09:40:22Z</time>
      </trkpt>
      <trkpt lat="44.56712" lon="2.66427">
        <ele>373</ele>
        <time>2012-06-11T09:40:23Z</time>
      </trkpt>
      <trkpt lat="44.5671" lon="2.66429">
        <ele>374</ele>
        <time>2012-06-11T09:40:25Z</time>
      </trkpt>
      <trkpt lat="44.56709" lon="2.6643">
        <ele>374</ele>
        <time>2012-06-11T09:40:26Z</time>
      </trkpt>
      <trkpt lat="44.56708" lon="2.66431">
        <ele>374</ele>
        <time>2012-06-11T09:40:27Z</time>
      </trkpt>
      <trkpt lat="44.56707" lon="2.66433">
        <ele>374</ele>
        <time>2012-06-11T09:40:28Z</time>
      </trkpt>
      <trkpt lat="44.56705" lon="2.66434">
        <ele>374</ele>
        <time>2012-06-11T09:40:29Z</time>
      </trkpt>
      <trkpt lat="44.56704" lon="2.66435">
        <ele>374</ele>
        <time>2012-06-11T09:40:30Z</time>
      </trkpt>
      <trkpt lat="44.56702" lon="2.66436">
        <ele>374</ele>
        <time>2012-06-11T09:40:31Z</time>
      </trkpt>
      <trkpt lat="44.56701" lon="2.66437">
        <ele>375</ele>
        <time>2012-06-11T09:40:32Z</time>
      </trkpt>
      <trkpt lat="44.567" lon="2.66438">
        <ele>375</ele>
        <time>2012-06-11T09:40:33Z</time>
      </trkpt>
      <trkpt lat="44.56699" lon="2.66439">
        <ele>375</ele>
        <time>2012-06-11T09:40:34Z</time>
      </trkpt>
      <trkpt lat="44.56697" lon="2.66441">
        <ele>375</ele>
        <time>2012-06-11T09:40:36Z</time>
      </trkpt>
      <trkpt lat="44.56696" lon="2.66442">
        <ele>376</ele>
        <time>2012-06-11T09:40:37Z</time>
      </trkpt>
      <trkpt lat="44.56694" lon="2.66443">
        <ele>376</ele>
        <time>2012-06-11T09:40:38Z</time>
      </trkpt>
      <trkpt lat="44.56693" lon="2.66444">
        <ele>376</ele>
        <time>2012-06-11T09:40:39Z</time>
      </trkpt>
      <trkpt lat="44.56692" lon="2.66445">
        <ele>376</ele>
        <time>2012-06-11T09:40:40Z</time>
      </trkpt>
      <trkpt lat="44.56691" lon="2.66445">
        <ele>376</ele>
        <time>2012-06-11T09:40:41Z</time>
      </trkpt>
      <trkpt lat="44.56689" lon="2.66446">
        <ele>376</ele>
        <time>2012-06-11T09:40:42Z</time>
      </trkpt>
      <trkpt lat="44.56688" lon="2.66447">
        <ele>376</ele>
        <time>2012-06-11T09:40:43Z</time>
      </trkpt>
      <trkpt lat="44.56687" lon="2.66448">
        <ele>376</ele>
        <time>2012-06-11T09:40:44Z</time>
      </trkpt>
      <trkpt lat="44.56685" lon="2.66449">
        <ele>376</ele>
        <time>2012-06-11T09:40:45Z</time>
      </trkpt>
      <trkpt lat="44.56684" lon="2.6645">
        <ele>376</ele>
        <time>2012-06-11T09:40:46Z</time>
      </trkpt>
      <trkpt lat="44.56683" lon="2.66451">
        <ele>376</ele>
        <time>2012-06-11T09:40:47Z</time>
      </trkpt>
      <trkpt lat="44.56681" lon="2.66452">
        <ele>376</ele>
        <time>2012-06-11T09:40:48Z</time>
      </trkpt>
      <trkpt lat="44.5668" lon="2.66453">
        <ele>376</ele>
        <time>2012-06-11T09:40:49Z</time>
      </trkpt>
      <trkpt lat="44.56679" lon="2.66453">
        <ele>376</ele>
        <time>2012-06-11T09:40:50Z</time>
      </trkpt>
      <trkpt lat="44.56678" lon="2.66454">
        <ele>376</ele>
        <time>2012-06-11T09:40:51Z</time>
      </trkpt>
      <trkpt lat="44.56676" lon="2.66456">
        <ele>376</ele>
        <time>2012-06-11T09:40:53Z</time>
      </trkpt>
      <trkpt lat="44.56675" lon="2.66457">
        <ele>376</ele>
        <time>2012-06-11T09:40:54Z</time>
      </trkpt>
      <trkpt lat="44.56673" lon="2.66458">
        <ele>376</ele>
        <time>2012-06-11T09:40:55Z</time>
      </trkpt>
      <trkpt lat="44.56671" lon="2.66459">
        <ele>376</ele>
        <time>2012-06-11T09:40:57Z</time>
      </trkpt>
      <trkpt lat="44.5667" lon="2.6646">
        <ele>376</ele>
        <time>2012-06-11T09:40:58Z</time>
      </trkpt>
      <trkpt lat="44.56668" lon="2.66461">
        <ele>376</ele>
        <time>2012-06-11T09:40:59Z</time>
      </trkpt>
      <trkpt lat="44.56667" lon="2.66463">
        <ele>376</ele>
        <time>2012-06-11T09:41:00Z</time>
      </trkpt>
      <trkpt lat="44.56666" lon="2.66464">
        <ele>376</ele>
        <time>2012-06-11T09:41:01Z</time>
      </trkpt>
      <trkpt lat="44.56665" lon="2.66465">
        <ele>376</ele>
        <time>2012-06-11T09:41:02Z</time>
      </trkpt>
      <trkpt lat="44.56663" lon="2.66466">
        <ele>376</ele>
        <time>2012-06-11T09:41:03Z</time>
      </trkpt>
      <trkpt lat="44.56662" lon="2.66466">
        <ele>376</ele>
        <time>2012-06-11T09:41:04Z</time>
      </trkpt>
      <trkpt lat="44.5666" lon="2.66467">
        <ele>376</ele>
        <time>2012-06-11T09:41:05Z</time>
      </trkpt>
      <trkpt lat="44.56659" lon="2.66467">
        <ele>376</ele>
        <time>2012-06-11T09:41:06Z</time>
      </trkpt>
      <trkpt lat="44.56657" lon="2.66468">
        <ele>376</ele>
        <time>2012-06-11T09:41:07Z</time>
      </trkpt>
      <trkpt lat="44.56655" lon="2.66468">
        <ele>376</ele>
        <time>2012-06-11T09:41:08Z</time>
      </trkpt>
      <trkpt lat="44.56654" lon="2.66469">
        <ele>376</ele>
        <time>2012-06-11T09:41:09Z</time>
      </trkpt>
      <trkpt lat="44.56652" lon="2.6647">
        <ele>376</ele>
        <time>2012-06-11T09:41:10Z</time>
      </trkpt>
      <trkpt lat="44.56651" lon="2.66471">
        <ele>376</ele>
        <time>2012-06-11T09:41:11Z</time>
      </trkpt>
      <trkpt lat="44.56649" lon="2.66472">
        <ele>376</ele>
        <time>2012-06-11T09:41:12Z</time>
      </trkpt>
      <trkpt lat="44.56648" lon="2.66473">
        <ele>376</ele>
        <time>2012-06-11T09:41:13Z</time>
      </trkpt>
      <trkpt lat="44.56647" lon="2.66474">
        <ele>376</ele>
        <time>2012-06-11T09:41:14Z</time>
      </trkpt>
      <trkpt lat="44.56646" lon="2.66475">
        <ele>376</ele>
        <time>2012-06-11T09:41:15Z</time>
      </trkpt>
      <trkpt lat="44.56644" lon="2.66476">
        <ele>376</ele>
        <time>2012-06-11T09:41:16Z</time>
      </trkpt>
      <trkpt lat="44.56643" lon="2.66476">
        <ele>376</ele>
        <time>2012-06-11T09:41:17Z</time>
      </trkpt>
      <trkpt lat="44.56642" lon="2.66477">
        <ele>376</ele>
        <time>2012-06-11T09:41:18Z</time>
      </trkpt>
      <trkpt lat="44.5664" lon="2.66478">
        <ele>376</ele>
        <time>2012-06-11T09:41:19Z</time>
      </trkpt>
      <trkpt lat="44.56639" lon="2.6648">
        <ele>376</ele>
        <time>2012-06-11T09:41:20Z</time>
      </trkpt>
      <trkpt lat="44.56638" lon="2.66481">
        <ele>376</ele>
        <time>2012-06-11T09:41:21Z</time>
      </trkpt>
      <trkpt lat="44.56636" lon="2.66482">
        <ele>376</ele>
        <time>2012-06-11T09:41:22Z</time>
      </trkpt>
      <trkpt lat="44.56635" lon="2.66483">
        <ele>376</ele>
        <time>2012-06-11T09:41:23Z</time>
      </trkpt>
      <trkpt lat="44.56633" lon="2.66485">
        <ele>376</ele>
        <time>2012-06-11T09:41:25Z</time>
      </trkpt>
      <trkpt lat="44.56632" lon="2.66487">
        <ele>376</ele>
        <time>2012-06-11T09:41:26Z</time>
      </trkpt>
      <trkpt lat="44.5663" lon="2.66488">
        <ele>376</ele>
        <time>2012-06-11T09:41:27Z</time>
      </trkpt>
      <trkpt lat="44.56629" lon="2.66489">
        <ele>376</ele>
        <time>2012-06-11T09:41:28Z</time>
      </trkpt>
      <trkpt lat="44.56628" lon="2.6649">
        <ele>376</ele>
        <time>2012-06-11T09:41:29Z</time>
      </trkpt>
      <trkpt lat="44.56627" lon="2.66492">
        <ele>376</ele>
        <time>2012-06-11T09:41:30Z</time>
      </trkpt>
      <trkpt lat="44.56627" lon="2.66493">
        <ele>377</ele>
        <time>2012-06-11T09:41:31Z</time>
      </trkpt>
      <trkpt lat="44.56626" lon="2.66494">
        <ele>377</ele>
        <time>2012-06-11T09:41:32Z</time>
      </trkpt>
      <trkpt lat="44.56624" lon="2.66497">
        <ele>377</ele>
        <time>2012-06-11T09:41:34Z</time>
      </trkpt>
      <trkpt lat="44.56623" lon="2.66498">
        <ele>378</ele>
        <time>2012-06-11T09:41:35Z</time>
      </trkpt>
      <trkpt lat="44.56622" lon="2.665">
        <ele>378</ele>
        <time>2012-06-11T09:41:36Z</time>
      </trkpt>
      <trkpt lat="44.56621" lon="2.66501">
        <ele>378</ele>
        <time>2012-06-11T09:41:37Z</time>
      </trkpt>
      <trkpt lat="44.5662" lon="2.66502">
        <ele>378</ele>
        <time>2012-06-11T09:41:38Z</time>
      </trkpt>
      <trkpt lat="44.56618" lon="2.66503">
        <ele>378</ele>
        <time>2012-06-11T09:41:39Z</time>
      </trkpt>
      <trkpt lat="44.56616" lon="2.66504">
        <ele>378</ele>
        <time>2012-06-11T09:41:41Z</time>
      </trkpt>
      <trkpt lat="44.56615" lon="2.66504">
        <ele>378</ele>
        <time>2012-06-11T09:41:42Z</time>
      </trkpt>
      <trkpt lat="44.56614" lon="2.66505">
        <ele>378</ele>
        <time>2012-06-11T09:41:43Z</time>
      </trkpt>
      <trkpt lat="44.56612" lon="2.66505">
        <ele>378</ele>
        <time>2012-06-11T09:41:44Z</time>
      </trkpt>
      <trkpt lat="44.56611" lon="2.66506">
        <ele>378</ele>
        <time>2012-06-11T09:41:45Z</time>
      </trkpt>
      <trkpt lat="44.56609" lon="2.66506">
        <ele>378</ele>
        <time>2012-06-11T09:41:46Z</time>
      </trkpt>
      <trkpt lat="44.56608" lon="2.66507">
        <ele>378</ele>
        <time>2012-06-11T09:41:47Z</time>
      </trkpt>
      <trkpt lat="44.56607" lon="2.66508">
        <ele>379</ele>
        <time>2012-06-11T09:41:48Z</time>
      </trkpt>
      <trkpt lat="44.56606" lon="2.66508">
        <ele>379</ele>
        <time>2012-06-11T09:41:49Z</time>
      </trkpt>
      <trkpt lat="44.56604" lon="2.66509">
        <ele>379</ele>
        <time>2012-06-11T09:41:50Z</time>
      </trkpt>
      <trkpt lat="44.56603" lon="2.66509">
        <ele>379</ele>
        <time>2012-06-11T09:41:51Z</time>
      </trkpt>
      <trkpt lat="44.56601" lon="2.6651">
        <ele>379</ele>
        <time>2012-06-11T09:41:52Z</time>
      </trkpt>
      <trkpt lat="44.56599" lon="2.6651">
        <ele>379</ele>
        <time>2012-06-11T09:41:53Z</time>
      </trkpt>
      <trkpt lat="44.56598" lon="2.66511">
        <ele>379</ele>
        <time>2012-06-11T09:41:54Z</time>
      </trkpt>
      <trkpt lat="44.56596" lon="2.66511">
        <ele>379</ele>
        <time>2012-06-11T09:41:55Z</time>
      </trkpt>
      <trkpt lat="44.56595" lon="2.66512">
        <ele>379</ele>
        <time>2012-06-11T09:41:56Z</time>
      </trkpt>
      <trkpt lat="44.56593" lon="2.66512">
        <ele>379</ele>
        <time>2012-06-11T09:41:57Z</time>
      </trkpt>
      <trkpt lat="44.56592" lon="2.66513">
        <ele>379</ele>
        <time>2012-06-11T09:41:58Z</time>
      </trkpt>
      <trkpt lat="44.56591" lon="2.66513">
        <ele>379</ele>
        <time>2012-06-11T09:41:59Z</time>
      </trkpt>
      <trkpt lat="44.56589" lon="2.66514">
        <ele>379</ele>
        <time>2012-06-11T09:42:00Z</time>
      </trkpt>
      <trkpt lat="44.56587" lon="2.66514">
        <ele>379</ele>
        <time>2012-06-11T09:42:01Z</time>
      </trkpt>
      <trkpt lat="44.56586" lon="2.66515">
        <ele>379</ele>
        <time>2012-06-11T09:42:02Z</time>
      </trkpt>
      <trkpt lat="44.56585" lon="2.66515">
        <ele>379</ele>
        <time>2012-06-11T09:42:03Z</time>
      </trkpt>
      <trkpt lat="44.56583" lon="2.66516">
        <ele>379</ele>
        <time>2012-06-11T09:42:04Z</time>
      </trkpt>
      <trkpt lat="44.56582" lon="2.66517">
        <ele>379</ele>
        <time>2012-06-11T09:42:05Z</time>
      </trkpt>
      <trkpt lat="44.5658" lon="2.66518">
        <ele>379</ele>
        <time>2012-06-11T09:42:06Z</time>
      </trkpt>
      <trkpt lat="44.56578" lon="2.66519">
        <ele>379</ele>
        <time>2012-06-11T09:42:07Z</time>
      </trkpt>
      <trkpt lat="44.56577" lon="2.66519">
        <ele>379</ele>
        <time>2012-06-11T09:42:08Z</time>
      </trkpt>
      <trkpt lat="44.56574" lon="2.66519">
        <ele>379</ele>
        <time>2012-06-11T09:42:10Z</time>
      </trkpt>
      <trkpt lat="44.56572" lon="2.6652">
        <ele>379</ele>
        <time>2012-06-11T09:42:11Z</time>
      </trkpt>
      <trkpt lat="44.56571" lon="2.6652">
        <ele>379</ele>
        <time>2012-06-11T09:42:12Z</time>
      </trkpt>
      <trkpt lat="44.56569" lon="2.66521">
        <ele>379</ele>
        <time>2012-06-11T09:42:13Z</time>
      </trkpt>
      <trkpt lat="44.56567" lon="2.66521">
        <ele>379</ele>
        <time>2012-06-11T09:42:14Z</time>
      </trkpt>
      <trkpt lat="44.56566" lon="2.66522">
        <ele>379</ele>
        <time>2012-06-11T09:42:15Z</time>
      </trkpt>
      <trkpt lat="44.56565" lon="2.66523">
        <ele>379</ele>
        <time>2012-06-11T09:42:16Z</time>
      </trkpt>
      <trkpt lat="44.56563" lon="2.66524">
        <ele>379</ele>
        <time>2012-06-11T09:42:17Z</time>
      </trkpt>
      <trkpt lat="44.56562" lon="2.66524">
        <ele>379</ele>
        <time>2012-06-11T09:42:18Z</time>
      </trkpt>
      <trkpt lat="44.56561" lon="2.66525">
        <ele>379</ele>
        <time>2012-06-11T09:42:19Z</time>
      </trkpt>
      <trkpt lat="44.56559" lon="2.66526">
        <ele>379</ele>
        <time>2012-06-11T09:42:20Z</time>
      </trkpt>
      <trkpt lat="44.56558" lon="2.66527">
        <ele>379</ele>
        <time>2012-06-11T09:42:21Z</time>
      </trkpt>
      <trkpt lat="44.56557" lon="2.66527">
        <ele>379</ele>
        <time>2012-06-11T09:42:22Z</time>
      </trkpt>
      <trkpt lat="44.56556" lon="2.66528">
        <ele>379</ele>
        <time>2012-06-11T09:42:23Z</time>
      </trkpt>
      <trkpt lat="44.56554" lon="2.66529">
        <ele>379</ele>
        <time>2012-06-11T09:42:24Z</time>
      </trkpt>
      <trkpt lat="44.56553" lon="2.6653">
        <ele>379</ele>
        <time>2012-06-11T09:42:25Z</time>
      </trkpt>
      <trkpt lat="44.56551" lon="2.66531">
        <ele>379</ele>
        <time>2012-06-11T09:42:26Z</time>
      </trkpt>
      <trkpt lat="44.5655" lon="2.66531">
        <ele>379</ele>
        <time>2012-06-11T09:42:27Z</time>
      </trkpt>
      <trkpt lat="44.56549" lon="2.66531">
        <ele>379</ele>
        <time>2012-06-11T09:42:28Z</time>
      </trkpt>
      <trkpt lat="44.56547" lon="2.66531">
        <ele>379</ele>
        <time>2012-06-11T09:42:29Z</time>
      </trkpt>
      <trkpt lat="44.56545" lon="2.66532">
        <ele>379</ele>
        <time>2012-06-11T09:42:30Z</time>
      </trkpt>
      <trkpt lat="44.56544" lon="2.66532">
        <ele>379</ele>
        <time>2012-06-11T09:42:31Z</time>
      </trkpt>
      <trkpt lat="44.56542" lon="2.66532">
        <ele>380</ele>
        <time>2012-06-11T09:42:32Z</time>
      </trkpt>
      <trkpt lat="44.56541" lon="2.66533">
        <ele>380</ele>
        <time>2012-06-11T09:42:33Z</time>
      </trkpt>
      <trkpt lat="44.56539" lon="2.66534">
        <ele>380</ele>
        <time>2012-06-11T09:42:34Z</time>
      </trkpt>
      <trkpt lat="44.56538" lon="2.66534">
        <ele>380</ele>
        <time>2012-06-11T09:42:35Z</time>
      </trkpt>
      <trkpt lat="44.56536" lon="2.66534">
        <ele>381</ele>
        <time>2012-06-11T09:42:36Z</time>
      </trkpt>
      <trkpt lat="44.56535" lon="2.66535">
        <ele>381</ele>
        <time>2012-06-11T09:42:37Z</time>
      </trkpt>
      <trkpt lat="44.56534" lon="2.66536">
        <ele>381</ele>
        <time>2012-06-11T09:42:38Z</time>
      </trkpt>
      <trkpt lat="44.56533" lon="2.66537">
        <ele>381</ele>
        <time>2012-06-11T09:42:39Z</time>
      </trkpt>
      <trkpt lat="44.56532" lon="2.66538">
        <ele>382</ele>
        <time>2012-06-11T09:42:40Z</time>
      </trkpt>
      <trkpt lat="44.5653" lon="2.66539">
        <ele>382</ele>
        <time>2012-06-11T09:42:41Z</time>
      </trkpt>
      <trkpt lat="44.56528" lon="2.6654">
        <ele>382</ele>
        <time>2012-06-11T09:42:42Z</time>
      </trkpt>
      <trkpt lat="44.56527" lon="2.66541">
        <ele>382</ele>
        <time>2012-06-11T09:42:43Z</time>
      </trkpt>
      <trkpt lat="44.56526" lon="2.66541">
        <ele>382</ele>
        <time>2012-06-11T09:42:44Z</time>
      </trkpt>
      <trkpt lat="44.56525" lon="2.66542">
        <ele>382</ele>
        <time>2012-06-11T09:42:45Z</time>
      </trkpt>
      <trkpt lat="44.56523" lon="2.66543">
        <ele>382</ele>
        <time>2012-06-11T09:42:46Z</time>
      </trkpt>
      <trkpt lat="44.56522" lon="2.66543">
        <ele>382</ele>
        <time>2012-06-11T09:42:47Z</time>
      </trkpt>
      <trkpt lat="44.5652" lon="2.66544">
        <ele>382</ele>
        <time>2012-06-11T09:42:48Z</time>
      </trkpt>
      <trkpt lat="44.56519" lon="2.66544">
        <ele>382</ele>
        <time>2012-06-11T09:42:49Z</time>
      </trkpt>
      <trkpt lat="44.56517" lon="2.66545">
        <ele>382</ele>
        <time>2012-06-11T09:42:50Z</time>
      </trkpt>
      <trkpt lat="44.56516" lon="2.66545">
        <ele>382</ele>
        <time>2012-06-11T09:42:51Z</time>
      </trkpt>
      <trkpt lat="44.56514" lon="2.66546">
        <ele>382</ele>
        <time>2012-06-11T09:42:52Z</time>
      </trkpt>
      <trkpt lat="44.56512" lon="2.66546">
        <ele>382</ele>
        <time>2012-06-11T09:42:53Z</time>
      </trkpt>
      <trkpt lat="44.56511" lon="2.66546">
        <ele>382</ele>
        <time>2012-06-11T09:42:54Z</time>
      </trkpt>
      <trkpt lat="44.56509" lon="2.66546">
        <ele>382</ele>
        <time>2012-06-11T09:42:55Z</time>
      </trkpt>
      <trkpt lat="44.56508" lon="2.66546">
        <ele>382</ele>
        <time>2012-06-11T09:42:56Z</time>
      </trkpt>
      <trkpt lat="44.56506" lon="2.66547">
        <ele>382</ele>
        <time>2012-06-11T09:42:57Z</time>
      </trkpt>
      <trkpt lat="44.56505" lon="2.66547">
        <ele>382</ele>
        <time>2012-06-11T09:42:58Z</time>
      </trkpt>
      <trkpt lat="44.56503" lon="2.66547">
        <ele>382</ele>
        <time>2012-06-11T09:42:59Z</time>
      </trkpt>
      <trkpt lat="44.56502" lon="2.66547">
        <ele>382</ele>
        <time>2012-06-11T09:43:00Z</time>
      </trkpt>
      <trkpt lat="44.565" lon="2.66548">
        <ele>382</ele>
        <time>2012-06-11T09:43:01Z</time>
      </trkpt>
      <trkpt lat="44.56498" lon="2.66547">
        <ele>382</ele>
        <time>2012-06-11T09:43:02Z</time>
      </trkpt>
      <trkpt lat="44.56497" lon="2.66548">
        <ele>382</ele>
        <time>2012-06-11T09:43:03Z</time>
      </trkpt>
      <trkpt lat="44.56495" lon="2.66547">
        <ele>382</ele>
        <time>2012-06-11T09:43:04Z</time>
      </trkpt>
      <trkpt lat="44.56493" lon="2.66547">
        <ele>382</ele>
        <time>2012-06-11T09:43:05Z</time>
      </trkpt>
      <trkpt lat="44.56492" lon="2.66547">
        <ele>382</ele>
        <time>2012-06-11T09:43:06Z</time>
      </trkpt>
      <trkpt lat="44.56491" lon="2.66547">
        <ele>382</ele>
        <time>2012-06-11T09:43:07Z</time>
      </trkpt>
      <trkpt lat="44.56489" lon="2.66547">
        <ele>382</ele>
        <time>2012-06-11T09:43:08Z</time>
      </trkpt>
      <trkpt lat="44.56486" lon="2.66548">
        <ele>382</ele>
        <time>2012-06-11T09:43:10Z</time>
      </trkpt>
      <trkpt lat="44.56484" lon="2.66548">
        <ele>382</ele>
        <time>2012-06-11T09:43:11Z</time>
      </trkpt>
      <trkpt lat="44.56481" lon="2.66548">
        <ele>382</ele>
        <time>2012-06-11T09:43:13Z</time>
      </trkpt>
      <trkpt lat="44.5648" lon="2.66548">
        <ele>382</ele>
        <time>2012-06-11T09:43:14Z</time>
      </trkpt>
      <trkpt lat="44.56478" lon="2.66548">
        <ele>382</ele>
        <time>2012-06-11T09:43:15Z</time>
      </trkpt>
      <trkpt lat="44.56477" lon="2.66548">
        <ele>382</ele>
        <time>2012-06-11T09:43:16Z</time>
      </trkpt>
      <trkpt lat="44.56475" lon="2.66548">
        <ele>382</ele>
        <time>2012-06-11T09:43:17Z</time>
      </trkpt>
      <trkpt lat="44.5647" lon="2.66548">
        <ele>382</ele>
        <time>2012-06-11T09:43:20Z</time>
      </trkpt>
      <trkpt lat="44.56468" lon="2.66548">
        <ele>382</ele>
        <time>2012-06-11T09:43:21Z</time>
      </trkpt>
      <trkpt lat="44.56466" lon="2.66547">
        <ele>382</ele>
        <time>2012-06-11T09:43:22Z</time>
      </trkpt>
      <trkpt lat="44.56465" lon="2.66547">
        <ele>382</ele>
        <time>2012-06-11T09:43:23Z</time>
      </trkpt>
      <trkpt lat="44.56463" lon="2.66547">
        <ele>382</ele>
        <time>2012-06-11T09:43:24Z</time>
      </trkpt>
      <trkpt lat="44.56461" lon="2.66546">
        <ele>382</ele>
        <time>2012-06-11T09:43:25Z</time>
      </trkpt>
      <trkpt lat="44.5646" lon="2.66546">
        <ele>382</ele>
        <time>2012-06-11T09:43:26Z</time>
      </trkpt>
      <trkpt lat="44.56459" lon="2.66546">
        <ele>382</ele>
        <time>2012-06-11T09:43:27Z</time>
      </trkpt>
      <trkpt lat="44.56456" lon="2.66546">
        <ele>382</ele>
        <time>2012-06-11T09:43:29Z</time>
      </trkpt>
      <trkpt lat="44.56454" lon="2.66545">
        <ele>382</ele>
        <time>2012-06-11T09:43:30Z</time>
      </trkpt>
      <trkpt lat="44.56453" lon="2.66544">
        <ele>382</ele>
        <time>2012-06-11T09:43:31Z</time>
      </trkpt>
      <trkpt lat="44.56451" lon="2.66544">
        <ele>382</ele>
        <time>2012-06-11T09:43:32Z</time>
      </trkpt>
      <trkpt lat="44.56449" lon="2.66543">
        <ele>382</ele>
        <time>2012-06-11T09:43:33Z</time>
      </trkpt>
      <trkpt lat="44.56448" lon="2.66543">
        <ele>382</ele>
        <time>2012-06-11T09:43:34Z</time>
      </trkpt>
      <trkpt lat="44.56446" lon="2.66543">
        <ele>382</ele>
        <time>2012-06-11T09:43:35Z</time>
      </trkpt>
      <trkpt lat="44.56445" lon="2.66542">
        <ele>382</ele>
        <time>2012-06-11T09:43:36Z</time>
      </trkpt>
      <trkpt lat="44.56443" lon="2.66542">
        <ele>382</ele>
        <time>2012-06-11T09:43:37Z</time>
      </trkpt>
      <trkpt lat="44.56442" lon="2.66542">
        <ele>382</ele>
        <time>2012-06-11T09:43:38Z</time>
      </trkpt>
      <trkpt lat="44.5644" lon="2.66542">
        <ele>382</ele>
        <time>2012-06-11T09:43:39Z</time>
      </trkpt>
      <trkpt lat="44.56439" lon="2.66543">
        <ele>382</ele>
        <time>2012-06-11T09:43:40Z</time>
      </trkpt>
      <trkpt lat="44.56438" lon="2.66543">
        <ele>382</ele>
        <time>2012-06-11T09:43:41Z</time>
      </trkpt>
      <trkpt lat="44.56436" lon="2.66543">
        <ele>382</ele>
        <time>2012-06-11T09:43:43Z</time>
      </trkpt>
      <trkpt lat="44.56434" lon="2.66543">
        <ele>382</ele>
        <time>2012-06-11T09:43:44Z</time>
      </trkpt>
      <trkpt lat="44.56433" lon="2.66542">
        <ele>382</ele>
        <time>2012-06-11T09:43:45Z</time>
      </trkpt>
      <trkpt lat="44.56432" lon="2.66541">
        <ele>382</ele>
        <time>2012-06-11T09:43:46Z</time>
      </trkpt>
      <trkpt lat="44.5643" lon="2.66541">
        <ele>382</ele>
        <time>2012-06-11T09:43:47Z</time>
      </trkpt>
      <trkpt lat="44.56428" lon="2.6654">
        <ele>382</ele>
        <time>2012-06-11T09:43:48Z</time>
      </trkpt>
      <trkpt lat="44.56427" lon="2.6654">
        <ele>382</ele>
        <time>2012-06-11T09:43:49Z</time>
      </trkpt>
      <trkpt lat="44.56425" lon="2.66539">
        <ele>383</ele>
        <time>2012-06-11T09:43:50Z</time>
      </trkpt>
      <trkpt lat="44.56423" lon="2.66538">
        <ele>383</ele>
        <time>2012-06-11T09:43:51Z</time>
      </trkpt>
      <trkpt lat="44.56422" lon="2.66538">
        <ele>383</ele>
        <time>2012-06-11T09:43:52Z</time>
      </trkpt>
      <trkpt lat="44.5642" lon="2.66538">
        <ele>383</ele>
        <time>2012-06-11T09:43:53Z</time>
      </trkpt>
      <trkpt lat="44.56419" lon="2.66537">
        <ele>384</ele>
        <time>2012-06-11T09:43:54Z</time>
      </trkpt>
      <trkpt lat="44.56417" lon="2.66537">
        <ele>384</ele>
        <time>2012-06-11T09:43:55Z</time>
      </trkpt>
      <trkpt lat="44.56416" lon="2.66536">
        <ele>384</ele>
        <time>2012-06-11T09:43:56Z</time>
      </trkpt>
      <trkpt lat="44.56414" lon="2.66536">
        <ele>384</ele>
        <time>2012-06-11T09:43:57Z</time>
      </trkpt>
      <trkpt lat="44.56411" lon="2.66536">
        <ele>385</ele>
        <time>2012-06-11T09:43:59Z</time>
      </trkpt>
      <trkpt lat="44.5641" lon="2.66535">
        <ele>385</ele>
        <time>2012-06-11T09:44:00Z</time>
      </trkpt>
      <trkpt lat="44.56409" lon="2.66535">
        <ele>385</ele>
        <time>2012-06-11T09:44:01Z</time>
      </trkpt>
      <trkpt lat="44.56407" lon="2.66534">
        <ele>385</ele>
        <time>2012-06-11T09:44:02Z</time>
      </trkpt>
      <trkpt lat="44.56406" lon="2.66533">
        <ele>385</ele>
        <time>2012-06-11T09:44:03Z</time>
      </trkpt>
      <trkpt lat="44.56405" lon="2.66533">
        <ele>385</ele>
        <time>2012-06-11T09:44:04Z</time>
      </trkpt>
      <trkpt lat="44.56403" lon="2.66533">
        <ele>385</ele>
        <time>2012-06-11T09:44:05Z</time>
      </trkpt>
      <trkpt lat="44.56402" lon="2.66532">
        <ele>385</ele>
        <time>2012-06-11T09:44:06Z</time>
      </trkpt>
      <trkpt lat="44.564" lon="2.66532">
        <ele>385</ele>
        <time>2012-06-11T09:44:07Z</time>
      </trkpt>
      <trkpt lat="44.56399" lon="2.66532">
        <ele>385</ele>
        <time>2012-06-11T09:44:08Z</time>
      </trkpt>
      <trkpt lat="44.56398" lon="2.66531">
        <ele>385</ele>
        <time>2012-06-11T09:44:09Z</time>
      </trkpt>
      <trkpt lat="44.56397" lon="2.66531">
        <ele>385</ele>
        <time>2012-06-11T09:44:10Z</time>
      </trkpt>
      <trkpt lat="44.56395" lon="2.6653">
        <ele>385</ele>
        <time>2012-06-11T09:44:11Z</time>
      </trkpt>
      <trkpt lat="44.56393" lon="2.6653">
        <ele>385</ele>
        <time>2012-06-11T09:44:12Z</time>
      </trkpt>
      <trkpt lat="44.56392" lon="2.66529">
        <ele>385</ele>
        <time>2012-06-11T09:44:13Z</time>
      </trkpt>
      <trkpt lat="44.5639" lon="2.66529">
        <ele>385</ele>
        <time>2012-06-11T09:44:14Z</time>
      </trkpt>
      <trkpt lat="44.56389" lon="2.66529">
        <ele>385</ele>
        <time>2012-06-11T09:44:15Z</time>
      </trkpt>
      <trkpt lat="44.56387" lon="2.66528">
        <ele>385</ele>
        <time>2012-06-11T09:44:16Z</time>
      </trkpt>
      <trkpt lat="44.56386" lon="2.66528">
        <ele>385</ele>
        <time>2012-06-11T09:44:17Z</time>
      </trkpt>
      <trkpt lat="44.56384" lon="2.66528">
        <ele>385</ele>
        <time>2012-06-11T09:44:18Z</time>
      </trkpt>
      <trkpt lat="44.56382" lon="2.66526">
        <ele>385</ele>
        <time>2012-06-11T09:44:20Z</time>
      </trkpt>
      <trkpt lat="44.56381" lon="2.66526">
        <ele>385</ele>
        <time>2012-06-11T09:44:21Z</time>
      </trkpt>
      <trkpt lat="44.56379" lon="2.66525">
        <ele>385</ele>
        <time>2012-06-11T09:44:22Z</time>
      </trkpt>
      <trkpt lat="44.56378" lon="2.66525">
        <ele>385</ele>
        <time>2012-06-11T09:44:23Z</time>
      </trkpt>
      <trkpt lat="44.56377" lon="2.66524">
        <ele>385</ele>
        <time>2012-06-11T09:44:24Z</time>
      </trkpt>
      <trkpt lat="44.56375" lon="2.66524">
        <ele>385</ele>
        <time>2012-06-11T09:44:25Z</time>
      </trkpt>
      <trkpt lat="44.56374" lon="2.66523">
        <ele>385</ele>
        <time>2012-06-11T09:44:26Z</time>
      </trkpt>
      <trkpt lat="44.56372" lon="2.66523">
        <ele>385</ele>
        <time>2012-06-11T09:44:27Z</time>
      </trkpt>
      <trkpt lat="44.5637" lon="2.66522">
        <ele>385</ele>
        <time>2012-06-11T09:44:29Z</time>
      </trkpt>
      <trkpt lat="44.56369" lon="2.66521">
        <ele>385</ele>
        <time>2012-06-11T09:44:30Z</time>
      </trkpt>
      <trkpt lat="44.56367" lon="2.66521">
        <ele>385</ele>
        <time>2012-06-11T09:44:31Z</time>
      </trkpt>
      <trkpt lat="44.56366" lon="2.6652">
        <ele>385</ele>
        <time>2012-06-11T09:44:32Z</time>
      </trkpt>
      <trkpt lat="44.56365" lon="2.66519">
        <ele>385</ele>
        <time>2012-06-11T09:44:33Z</time>
      </trkpt>
      <trkpt lat="44.56363" lon="2.66519">
        <ele>385</ele>
        <time>2012-06-11T09:44:34Z</time>
      </trkpt>
      <trkpt lat="44.56362" lon="2.66519">
        <ele>385</ele>
        <time>2012-06-11T09:44:35Z</time>
      </trkpt>
      <trkpt lat="44.56361" lon="2.66518">
        <ele>385</ele>
        <time>2012-06-11T09:44:36Z</time>
      </trkpt>
      <trkpt lat="44.56359" lon="2.66517">
        <ele>385</ele>
        <time>2012-06-11T09:44:37Z</time>
      </trkpt>
      <trkpt lat="44.56358" lon="2.66516">
        <ele>385</ele>
        <time>2012-06-11T09:44:38Z</time>
      </trkpt>
      <trkpt lat="44.56357" lon="2.66516">
        <ele>385</ele>
        <time>2012-06-11T09:44:39Z</time>
      </trkpt>
      <trkpt lat="44.56355" lon="2.66515">
        <ele>385</ele>
        <time>2012-06-11T09:44:40Z</time>
      </trkpt>
      <trkpt lat="44.56353" lon="2.66514">
        <ele>385</ele>
        <time>2012-06-11T09:44:41Z</time>
      </trkpt>
      <trkpt lat="44.56352" lon="2.66513">
        <ele>385</ele>
        <time>2012-06-11T09:44:42Z</time>
      </trkpt>
      <trkpt lat="44.5635" lon="2.66513">
        <ele>385</ele>
        <time>2012-06-11T09:44:43Z</time>
      </trkpt>
      <trkpt lat="44.56348" lon="2.66512">
        <ele>385</ele>
        <time>2012-06-11T09:44:44Z</time>
      </trkpt>
      <trkpt lat="44.56346" lon="2.66511">
        <ele>385</ele>
        <time>2012-06-11T09:44:45Z</time>
      </trkpt>
      <trkpt lat="44.56345" lon="2.6651">
        <ele>385</ele>
        <time>2012-06-11T09:44:46Z</time>
      </trkpt>
      <trkpt lat="44.56343" lon="2.66508">
        <ele>385</ele>
        <time>2012-06-11T09:44:47Z</time>
      </trkpt>
      <trkpt lat="44.56342" lon="2.66507">
        <ele>385</ele>
        <time>2012-06-11T09:44:48Z</time>
      </trkpt>
      <trkpt lat="44.56338" lon="2.66506">
        <ele>385</ele>
        <time>2012-06-11T09:44:50Z</time>
      </trkpt>
      <trkpt lat="44.56335" lon="2.66504">
        <ele>385</ele>
        <time>2012-06-11T09:44:52Z</time>
      </trkpt>
      <trkpt lat="44.56334" lon="2.66504">
        <ele>385</ele>
        <time>2012-06-11T09:44:53Z</time>
      </trkpt>
      <trkpt lat="44.56331" lon="2.66503">
        <ele>385</ele>
        <time>2012-06-11T09:44:55Z</time>
      </trkpt>
      <trkpt lat="44.5633" lon="2.66502">
        <ele>385</ele>
        <time>2012-06-11T09:44:56Z</time>
      </trkpt>
      <trkpt lat="44.56328" lon="2.66502">
        <ele>386</ele>
        <time>2012-06-11T09:44:57Z</time>
      </trkpt>
      <trkpt lat="44.56326" lon="2.66501">
        <ele>386</ele>
        <time>2012-06-11T09:44:58Z</time>
      </trkpt>
      <trkpt lat="44.56325" lon="2.665">
        <ele>386</ele>
        <time>2012-06-11T09:44:59Z</time>
      </trkpt>
      <trkpt lat="44.56323" lon="2.665">
        <ele>386</ele>
        <time>2012-06-11T09:45:00Z</time>
      </trkpt>
      <trkpt lat="44.56321" lon="2.66499">
        <ele>386</ele>
        <time>2012-06-11T09:45:01Z</time>
      </trkpt>
      <trkpt lat="44.56318" lon="2.66498">
        <ele>386</ele>
        <time>2012-06-11T09:45:03Z</time>
      </trkpt>
      <trkpt lat="44.56316" lon="2.66497">
        <ele>386</ele>
        <time>2012-06-11T09:45:04Z</time>
      </trkpt>
      <trkpt lat="44.56314" lon="2.66496">
        <ele>387</ele>
        <time>2012-06-11T09:45:05Z</time>
      </trkpt>
      <trkpt lat="44.56313" lon="2.66496">
        <ele>387</ele>
        <time>2012-06-11T09:45:06Z</time>
      </trkpt>
      <trkpt lat="44.56312" lon="2.66496">
        <ele>387</ele>
        <time>2012-06-11T09:45:07Z</time>
      </trkpt>
      <trkpt lat="44.56309" lon="2.66494">
        <ele>388</ele>
        <time>2012-06-11T09:45:09Z</time>
      </trkpt>
      <trkpt lat="44.56307" lon="2.66493">
        <ele>388</ele>
        <time>2012-06-11T09:45:10Z</time>
      </trkpt>
      <trkpt lat="44.56302" lon="2.66493">
        <ele>390</ele>
        <time>2012-06-11T09:45:13Z</time>
      </trkpt>
      <trkpt lat="44.56301" lon="2.66492">
        <ele>390</ele>
        <time>2012-06-11T09:45:14Z</time>
      </trkpt>
      <trkpt lat="44.56299" lon="2.66492">
        <ele>390</ele>
        <time>2012-06-11T09:45:15Z</time>
      </trkpt>
      <trkpt lat="44.56298" lon="2.66491">
        <ele>391</ele>
        <time>2012-06-11T09:45:16Z</time>
      </trkpt>
      <trkpt lat="44.56296" lon="2.6649">
        <ele>391</ele>
        <time>2012-06-11T09:45:17Z</time>
      </trkpt>
      <trkpt lat="44.56294" lon="2.66489">
        <ele>391</ele>
        <time>2012-06-11T09:45:18Z</time>
      </trkpt>
      <trkpt lat="44.56292" lon="2.6649">
        <ele>392</ele>
        <time>2012-06-11T09:45:19Z</time>
      </trkpt>
      <trkpt lat="44.56291" lon="2.6649">
        <ele>393</ele>
        <time>2012-06-11T09:45:20Z</time>
      </trkpt>
      <trkpt lat="44.56289" lon="2.6649">
        <ele>393</ele>
        <time>2012-06-11T09:45:21Z</time>
      </trkpt>
      <trkpt lat="44.56288" lon="2.6649">
        <ele>393</ele>
        <time>2012-06-11T09:45:22Z</time>
      </trkpt>
      <trkpt lat="44.56287" lon="2.66489">
        <ele>394</ele>
        <time>2012-06-11T09:45:23Z</time>
      </trkpt>
      <trkpt lat="44.56285" lon="2.66487">
        <ele>394</ele>
        <time>2012-06-11T09:45:24Z</time>
      </trkpt>
      <trkpt lat="44.56284" lon="2.66487">
        <ele>394</ele>
        <time>2012-06-11T09:45:25Z</time>
      </trkpt>
      <trkpt lat="44.56282" lon="2.66484">
        <ele>394</ele>
        <time>2012-06-11T09:45:27Z</time>
      </trkpt>
      <trkpt lat="44.56281" lon="2.66483">
        <ele>394</ele>
        <time>2012-06-11T09:45:28Z</time>
      </trkpt>
      <trkpt lat="44.56278" lon="2.66481">
        <ele>395</ele>
        <time>2012-06-11T09:45:30Z</time>
      </trkpt>
      <trkpt lat="44.56276" lon="2.66478">
        <ele>395</ele>
        <time>2012-06-11T09:45:32Z</time>
      </trkpt>
      <trkpt lat="44.56275" lon="2.66478">
        <ele>395</ele>
        <time>2012-06-11T09:45:33Z</time>
      </trkpt>
      <trkpt lat="44.56273" lon="2.66477">
        <ele>395</ele>
        <time>2012-06-11T09:45:35Z</time>
      </trkpt>
      <trkpt lat="44.56272" lon="2.66476">
        <ele>395</ele>
        <time>2012-06-11T09:45:36Z</time>
      </trkpt>
      <trkpt lat="44.5627" lon="2.66476">
        <ele>395</ele>
        <time>2012-06-11T09:45:37Z</time>
      </trkpt>
      <trkpt lat="44.56266" lon="2.66476">
        <ele>395</ele>
        <time>2012-06-11T09:45:40Z</time>
      </trkpt>
      <trkpt lat="44.56264" lon="2.66475">
        <ele>395</ele>
        <time>2012-06-11T09:45:41Z</time>
      </trkpt>
      <trkpt lat="44.56263" lon="2.66474">
        <ele>395</ele>
        <time>2012-06-11T09:45:42Z</time>
      </trkpt>
      <trkpt lat="44.5626" lon="2.66474">
        <ele>395</ele>
        <time>2012-06-11T09:45:44Z</time>
      </trkpt>
      <trkpt lat="44.56258" lon="2.66474">
        <ele>395</ele>
        <time>2012-06-11T09:45:45Z</time>
      </trkpt>
      <trkpt lat="44.56257" lon="2.66473">
        <ele>395</ele>
        <time>2012-06-11T09:45:46Z</time>
      </trkpt>
      <trkpt lat="44.56255" lon="2.66473">
        <ele>395</ele>
        <time>2012-06-11T09:45:47Z</time>
      </trkpt>
      <trkpt lat="44.56253" lon="2.66472">
        <ele>395</ele>
        <time>2012-06-11T09:45:48Z</time>
      </trkpt>
      <trkpt lat="44.56252" lon="2.66471">
        <ele>395</ele>
        <time>2012-06-11T09:45:49Z</time>
      </trkpt>
      <trkpt lat="44.5625" lon="2.6647">
        <ele>395</ele>
        <time>2012-06-11T09:45:51Z</time>
      </trkpt>
      <trkpt lat="44.56249" lon="2.66469">
        <ele>395</ele>
        <time>2012-06-11T09:45:54Z</time>
      </trkpt>
      <trkpt lat="44.56247" lon="2.66469">
        <ele>395</ele>
        <time>2012-06-11T09:45:56Z</time>
      </trkpt>
      <trkpt lat="44.56246" lon="2.66468">
        <ele>395</ele>
        <time>2012-06-11T09:45:57Z</time>
      </trkpt>
      <trkpt lat="44.56244" lon="2.66468">
        <ele>395</ele>
        <time>2012-06-11T09:45:58Z</time>
      </trkpt>
      <trkpt lat="44.56242" lon="2.66467">
        <ele>395</ele>
        <time>2012-06-11T09:45:59Z</time>
      </trkpt>
      <trkpt lat="44.56241" lon="2.66467">
        <ele>395</ele>
        <time>2012-06-11T09:46:00Z</time>
      </trkpt>
      <trkpt lat="44.56239" lon="2.66467">
        <ele>395</ele>
        <time>2012-06-11T09:46:01Z</time>
      </trkpt>
      <trkpt lat="44.56238" lon="2.66466">
        <ele>395</ele>
        <time>2012-06-11T09:46:02Z</time>
      </trkpt>
      <trkpt lat="44.56237" lon="2.66466">
        <ele>395</ele>
        <time>2012-06-11T09:46:03Z</time>
      </trkpt>
      <trkpt lat="44.56235" lon="2.66466">
        <ele>395</ele>
        <time>2012-06-11T09:46:04Z</time>
      </trkpt>
      <trkpt lat="44.56234" lon="2.66466">
        <ele>395</ele>
        <time>2012-06-11T09:46:05Z</time>
      </trkpt>
      <trkpt lat="44.56232" lon="2.66466">
        <ele>395</ele>
        <time>2012-06-11T09:46:07Z</time>
      </trkpt>
      <trkpt lat="44.5623" lon="2.66466">
        <ele>395</ele>
        <time>2012-06-11T09:46:08Z</time>
      </trkpt>
      <trkpt lat="44.56229" lon="2.66466">
        <ele>395</ele>
        <time>2012-06-11T09:46:09Z</time>
      </trkpt>
      <trkpt lat="44.56226" lon="2.66465">
        <ele>395</ele>
        <time>2012-06-11T09:46:11Z</time>
      </trkpt>
      <trkpt lat="44.56224" lon="2.66465">
        <ele>395</ele>
        <time>2012-06-11T09:46:12Z</time>
      </trkpt>
      <trkpt lat="44.56223" lon="2.66464">
        <ele>395</ele>
        <time>2012-06-11T09:46:13Z</time>
      </trkpt>
      <trkpt lat="44.5622" lon="2.66464">
        <ele>395</ele>
        <time>2012-06-11T09:46:15Z</time>
      </trkpt>
      <trkpt lat="44.56218" lon="2.66465">
        <ele>395</ele>
        <time>2012-06-11T09:46:16Z</time>
      </trkpt>
      <trkpt lat="44.56217" lon="2.66464">
        <ele>395</ele>
        <time>2012-06-11T09:46:17Z</time>
      </trkpt>
      <trkpt lat="44.56213" lon="2.66465">
        <ele>395</ele>
        <time>2012-06-11T09:46:20Z</time>
      </trkpt>
      <trkpt lat="44.56211" lon="2.66465">
        <ele>395</ele>
        <time>2012-06-11T09:46:21Z</time>
      </trkpt>
      <trkpt lat="44.5621" lon="2.66465">
        <ele>395</ele>
        <time>2012-06-11T09:46:22Z</time>
      </trkpt>
      <trkpt lat="44.56209" lon="2.66466">
        <ele>395</ele>
        <time>2012-06-11T09:46:23Z</time>
      </trkpt>
      <trkpt lat="44.56208" lon="2.66467">
        <ele>395</ele>
        <time>2012-06-11T09:46:24Z</time>
      </trkpt>
      <trkpt lat="44.56206" lon="2.66467">
        <ele>395</ele>
        <time>2012-06-11T09:46:25Z</time>
      </trkpt>
      <trkpt lat="44.56205" lon="2.6647">
        <ele>395</ele>
        <time>2012-06-11T09:46:27Z</time>
      </trkpt>
      <trkpt lat="44.56207" lon="2.66473">
        <ele>395</ele>
        <time>2012-06-11T09:46:29Z</time>
      </trkpt>
      <trkpt lat="44.56208" lon="2.66474">
        <ele>395</ele>
        <time>2012-06-11T09:46:30Z</time>
      </trkpt>
      <trkpt lat="44.56209" lon="2.66474">
        <ele>395</ele>
        <time>2012-06-11T09:46:31Z</time>
      </trkpt>
      <trkpt lat="44.56211" lon="2.66475">
        <ele>395</ele>
        <time>2012-06-11T09:46:32Z</time>
      </trkpt>
      <trkpt lat="44.56212" lon="2.66474">
        <ele>395</ele>
        <time>2012-06-11T09:46:33Z</time>
      </trkpt>
      <trkpt lat="44.56213" lon="2.66475">
        <ele>395</ele>
        <time>2012-06-11T09:46:34Z</time>
      </trkpt>
      <trkpt lat="44.56215" lon="2.66475">
        <ele>395</ele>
        <time>2012-06-11T09:46:35Z</time>
      </trkpt>
      <trkpt lat="44.56217" lon="2.66475">
        <ele>395</ele>
        <time>2012-06-11T09:46:37Z</time>
      </trkpt>
      <trkpt lat="44.56218" lon="2.66475">
        <ele>395</ele>
        <time>2012-06-11T09:46:38Z</time>
      </trkpt>
      <trkpt lat="44.5622" lon="2.66476">
        <ele>395</ele>
        <time>2012-06-11T09:46:39Z</time>
      </trkpt>
      <trkpt lat="44.56221" lon="2.66477">
        <ele>395</ele>
        <time>2012-06-11T09:46:40Z</time>
      </trkpt>
      <trkpt lat="44.56224" lon="2.66479">
        <ele>395</ele>
        <time>2012-06-11T09:46:42Z</time>
      </trkpt>
      <trkpt lat="44.56225" lon="2.6648">
        <ele>395</ele>
        <time>2012-06-11T09:46:43Z</time>
      </trkpt>
      <trkpt lat="44.56226" lon="2.66482">
        <ele>395</ele>
        <time>2012-06-11T09:46:44Z</time>
      </trkpt>
      <trkpt lat="44.56227" lon="2.66483">
        <ele>395</ele>
        <time>2012-06-11T09:46:45Z</time>
      </trkpt>
      <trkpt lat="44.56228" lon="2.66485">
        <ele>395</ele>
        <time>2012-06-11T09:46:46Z</time>
      </trkpt>
      <trkpt lat="44.5623" lon="2.66486">
        <ele>395</ele>
        <time>2012-06-11T09:46:47Z</time>
      </trkpt>
      <trkpt lat="44.56232" lon="2.66488">
        <ele>395</ele>
        <time>2012-06-11T09:46:49Z</time>
      </trkpt>
      <trkpt lat="44.56233" lon="2.66489">
        <ele>395</ele>
        <time>2012-06-11T09:46:50Z</time>
      </trkpt>
      <trkpt lat="44.56235" lon="2.66491">
        <ele>395</ele>
        <time>2012-06-11T09:46:52Z</time>
      </trkpt>
      <trkpt lat="44.56236" lon="2.66493">
        <ele>395</ele>
        <time>2012-06-11T09:46:53Z</time>
      </trkpt>
      <trkpt lat="44.56237" lon="2.66494">
        <ele>395</ele>
        <time>2012-06-11T09:46:54Z</time>
      </trkpt>
      <trkpt lat="44.56239" lon="2.66497">
        <ele>395</ele>
        <time>2012-06-11T09:46:56Z</time>
      </trkpt>
      <trkpt lat="44.5624" lon="2.66498">
        <ele>395</ele>
        <time>2012-06-11T09:46:57Z</time>
      </trkpt>
      <trkpt lat="44.56242" lon="2.66499">
        <ele>395</ele>
        <time>2012-06-11T09:46:58Z</time>
      </trkpt>
      <trkpt lat="44.56243" lon="2.665">
        <ele>395</ele>
        <time>2012-06-11T09:46:59Z</time>
      </trkpt>
      <trkpt lat="44.56245" lon="2.66501">
        <ele>395</ele>
        <time>2012-06-11T09:47:00Z</time>
      </trkpt>
      <trkpt lat="44.56246" lon="2.66502">
        <ele>394</ele>
        <time>2012-06-11T09:47:01Z</time>
      </trkpt>
      <trkpt lat="44.56247" lon="2.66503">
        <ele>394</ele>
        <time>2012-06-11T09:47:02Z</time>
      </trkpt>
      <trkpt lat="44.56248" lon="2.66505">
        <ele>393</ele>
        <time>2012-06-11T09:47:03Z</time>
      </trkpt>
      <trkpt lat="44.5625" lon="2.66507">
        <ele>392</ele>
        <time>2012-06-11T09:47:05Z</time>
      </trkpt>
      <trkpt lat="44.56252" lon="2.6651">
        <ele>390</ele>
        <time>2012-06-11T09:47:07Z</time>
      </trkpt>
      <trkpt lat="44.56253" lon="2.6651">
        <ele>390</ele>
        <time>2012-06-11T09:47:08Z</time>
      </trkpt>
      <trkpt lat="44.56255" lon="2.66511">
        <ele>390</ele>
        <time>2012-06-11T09:47:09Z</time>
      </trkpt>
      <trkpt lat="44.56256" lon="2.66512">
        <ele>389</ele>
        <time>2012-06-11T09:47:10Z</time>
      </trkpt>
      <trkpt lat="44.56258" lon="2.66513">
        <ele>389</ele>
        <time>2012-06-11T09:47:11Z</time>
      </trkpt>
      <trkpt lat="44.56259" lon="2.66514">
        <ele>388</ele>
        <time>2012-06-11T09:47:12Z</time>
      </trkpt>
      <trkpt lat="44.56261" lon="2.66514">
        <ele>388</ele>
        <time>2012-06-11T09:47:13Z</time>
      </trkpt>
      <trkpt lat="44.56262" lon="2.66515">
        <ele>387</ele>
        <time>2012-06-11T09:47:14Z</time>
      </trkpt>
      <trkpt lat="44.56263" lon="2.66516">
        <ele>387</ele>
        <time>2012-06-11T09:47:15Z</time>
      </trkpt>
      <trkpt lat="44.56265" lon="2.66517">
        <ele>387</ele>
        <time>2012-06-11T09:47:16Z</time>
      </trkpt>
      <trkpt lat="44.56266" lon="2.66517">
        <ele>386</ele>
        <time>2012-06-11T09:47:17Z</time>
      </trkpt>
      <trkpt lat="44.56268" lon="2.66518">
        <ele>386</ele>
        <time>2012-06-11T09:47:18Z</time>
      </trkpt>
      <trkpt lat="44.56269" lon="2.66519">
        <ele>386</ele>
        <time>2012-06-11T09:47:19Z</time>
      </trkpt>
      <trkpt lat="44.56271" lon="2.66519">
        <ele>385</ele>
        <time>2012-06-11T09:47:20Z</time>
      </trkpt>
      <trkpt lat="44.56272" lon="2.6652">
        <ele>385</ele>
        <time>2012-06-11T09:47:21Z</time>
      </trkpt>
      <trkpt lat="44.56273" lon="2.66522">
        <ele>385</ele>
        <time>2012-06-11T09:47:22Z</time>
      </trkpt>
      <trkpt lat="44.56275" lon="2.66522">
        <ele>385</ele>
        <time>2012-06-11T09:47:23Z</time>
      </trkpt>
      <trkpt lat="44.56276" lon="2.66523">
        <ele>385</ele>
        <time>2012-06-11T09:47:24Z</time>
      </trkpt>
      <trkpt lat="44.56278" lon="2.66525">
        <ele>385</ele>
        <time>2012-06-11T09:47:26Z</time>
      </trkpt>
      <trkpt lat="44.56279" lon="2.66527">
        <ele>385</ele>
        <time>2012-06-11T09:47:28Z</time>
      </trkpt>
      <trkpt lat="44.56281" lon="2.66529">
        <ele>385</ele>
        <time>2012-06-11T09:47:30Z</time>
      </trkpt>
      <trkpt lat="44.56282" lon="2.66531">
        <ele>385</ele>
        <time>2012-06-11T09:47:32Z</time>
      </trkpt>
      <trkpt lat="44.56281" lon="2.66536">
        <ele>385</ele>
        <time>2012-06-11T09:47:36Z</time>
      </trkpt>
      <trkpt lat="44.56281" lon="2.66539">
        <ele>385</ele>
        <time>2012-06-11T09:47:51Z</time>
      </trkpt>
      <trkpt lat="44.56279" lon="2.66539">
        <ele>389</ele>
        <time>2012-06-11T09:48:03Z</time>
      </trkpt>
      <trkpt lat="44.56277" lon="2.66539">
        <ele>389</ele>
        <time>2012-06-11T09:48:04Z</time>
      </trkpt>
      <trkpt lat="44.56275" lon="2.66538">
        <ele>389</ele>
        <time>2012-06-11T09:48:05Z</time>
      </trkpt>
      <trkpt lat="44.5627" lon="2.66538">
        <ele>390</ele>
        <time>2012-06-11T09:48:08Z</time>
      </trkpt>
      <trkpt lat="44.56268" lon="2.66538">
        <ele>390</ele>
        <time>2012-06-11T09:48:09Z</time>
      </trkpt>
      <trkpt lat="44.56266" lon="2.66538">
        <ele>390</ele>
        <time>2012-06-11T09:48:10Z</time>
      </trkpt>
      <trkpt lat="44.56265" lon="2.66538">
        <ele>390</ele>
        <time>2012-06-11T09:48:11Z</time>
      </trkpt>
      <trkpt lat="44.56263" lon="2.66539">
        <ele>391</ele>
        <time>2012-06-11T09:48:12Z</time>
      </trkpt>
      <trkpt lat="44.56261" lon="2.66539">
        <ele>391</ele>
        <time>2012-06-11T09:48:13Z</time>
      </trkpt>
      <trkpt lat="44.56258" lon="2.66539">
        <ele>391</ele>
        <time>2012-06-11T09:48:15Z</time>
      </trkpt>
      <trkpt lat="44.56256" lon="2.66539">
        <ele>391</ele>
        <time>2012-06-11T09:48:16Z</time>
      </trkpt>
      <trkpt lat="44.56255" lon="2.6654">
        <ele>391</ele>
        <time>2012-06-11T09:48:17Z</time>
      </trkpt>
      <trkpt lat="44.56253" lon="2.6654">
        <ele>391</ele>
        <time>2012-06-11T09:48:18Z</time>
      </trkpt>
      <trkpt lat="44.56252" lon="2.6654">
        <ele>391</ele>
        <time>2012-06-11T09:48:19Z</time>
      </trkpt>
      <trkpt lat="44.5625" lon="2.6654">
        <ele>391</ele>
        <time>2012-06-11T09:48:21Z</time>
      </trkpt>
      <trkpt lat="44.56251" lon="2.66541">
        <ele>394</ele>
        <time>2012-06-11T09:49:33Z</time>
      </trkpt>
      <trkpt lat="44.56255" lon="2.6654">
        <ele>394</ele>
        <time>2012-06-11T09:49:42Z</time>
      </trkpt>
      <trkpt lat="44.56256" lon="2.6654">
        <ele>394</ele>
        <time>2012-06-11T09:49:43Z</time>
      </trkpt>
      <trkpt lat="44.56257" lon="2.66539">
        <ele>394</ele>
        <time>2012-06-11T09:49:44Z</time>
      </trkpt>
      <trkpt lat="44.56259" lon="2.66539">
        <ele>394</ele>
        <time>2012-06-11T09:49:45Z</time>
      </trkpt>
      <trkpt lat="44.5626" lon="2.66539">
        <ele>394</ele>
        <time>2012-06-11T09:49:46Z</time>
      </trkpt>
      <trkpt lat="44.56262" lon="2.66538">
        <ele>394</ele>
        <time>2012-06-11T09:49:47Z</time>
      </trkpt>
      <trkpt lat="44.56264" lon="2.66538">
        <ele>394</ele>
        <time>2012-06-11T09:49:48Z</time>
      </trkpt>
      <trkpt lat="44.56265" lon="2.66538">
        <ele>394</ele>
        <time>2012-06-11T09:49:49Z</time>
      </trkpt>
      <trkpt lat="44.56267" lon="2.66538">
        <ele>394</ele>
        <time>2012-06-11T09:49:50Z</time>
      </trkpt>
      <trkpt lat="44.56269" lon="2.66537">
        <ele>394</ele>
        <time>2012-06-11T09:49:52Z</time>
      </trkpt>
      <trkpt lat="44.56274" lon="2.66537">
        <ele>394</ele>
        <time>2012-06-11T09:49:55Z</time>
      </trkpt>
      <trkpt lat="44.56275" lon="2.66536">
        <ele>393</ele>
        <time>2012-06-11T09:49:56Z</time>
      </trkpt>
      <trkpt lat="44.56279" lon="2.66536">
        <ele>393</ele>
        <time>2012-06-11T09:49:59Z</time>
      </trkpt>
      <trkpt lat="44.56284" lon="2.66536">
        <ele>393</ele>
        <time>2012-06-11T09:50:03Z</time>
      </trkpt>
      <trkpt lat="44.56286" lon="2.66536">
        <ele>393</ele>
        <time>2012-06-11T09:50:04Z</time>
      </trkpt>
      <trkpt lat="44.56287" lon="2.66536">
        <ele>393</ele>
        <time>2012-06-11T09:50:05Z</time>
      </trkpt>
      <trkpt lat="44.56289" lon="2.66536">
        <ele>393</ele>
        <time>2012-06-11T09:50:06Z</time>
      </trkpt>
      <trkpt lat="44.5629" lon="2.66537">
        <ele>393</ele>
        <time>2012-06-11T09:50:08Z</time>
      </trkpt>
      <trkpt lat="44.56291" lon="2.66539">
        <ele>393</ele>
        <time>2012-06-11T09:50:09Z</time>
      </trkpt>
      <trkpt lat="44.56292" lon="2.66541">
        <ele>393</ele>
        <time>2012-06-11T09:50:10Z</time>
      </trkpt>
      <trkpt lat="44.56293" lon="2.66543">
        <ele>393</ele>
        <time>2012-06-11T09:50:11Z</time>
      </trkpt>
      <trkpt lat="44.56295" lon="2.66545">
        <ele>393</ele>
        <time>2012-06-11T09:50:13Z</time>
      </trkpt>
      <trkpt lat="44.56296" lon="2.66547">
        <ele>393</ele>
        <time>2012-06-11T09:50:14Z</time>
      </trkpt>
      <trkpt lat="44.56297" lon="2.66548">
        <ele>393</ele>
        <time>2012-06-11T09:50:15Z</time>
      </trkpt>
      <trkpt lat="44.56297" lon="2.6655">
        <ele>393</ele>
        <time>2012-06-11T09:50:16Z</time>
      </trkpt>
      <trkpt lat="44.56298" lon="2.66553">
        <ele>393</ele>
        <time>2012-06-11T09:50:17Z</time>
      </trkpt>
      <trkpt lat="44.56299" lon="2.66555">
        <ele>393</ele>
        <time>2012-06-11T09:50:18Z</time>
      </trkpt>
      <trkpt lat="44.56299" lon="2.66558">
        <ele>393</ele>
        <time>2012-06-11T09:50:19Z</time>
      </trkpt>
      <trkpt lat="44.563" lon="2.6656">
        <ele>393</ele>
        <time>2012-06-11T09:50:20Z</time>
      </trkpt>
      <trkpt lat="44.56301" lon="2.66563">
        <ele>393</ele>
        <time>2012-06-11T09:50:21Z</time>
      </trkpt>
      <trkpt lat="44.56302" lon="2.66565">
        <ele>393</ele>
        <time>2012-06-11T09:50:22Z</time>
      </trkpt>
      <trkpt lat="44.56303" lon="2.66567">
        <ele>393</ele>
        <time>2012-06-11T09:50:23Z</time>
      </trkpt>
      <trkpt lat="44.56304" lon="2.66569">
        <ele>393</ele>
        <time>2012-06-11T09:50:24Z</time>
      </trkpt>
      <trkpt lat="44.56305" lon="2.6657">
        <ele>393</ele>
        <time>2012-06-11T09:50:25Z</time>
      </trkpt>
      <trkpt lat="44.56306" lon="2.66572">
        <ele>393</ele>
        <time>2012-06-11T09:50:26Z</time>
      </trkpt>
      <trkpt lat="44.56308" lon="2.66574">
        <ele>393</ele>
        <time>2012-06-11T09:50:27Z</time>
      </trkpt>
      <trkpt lat="44.56309" lon="2.66576">
        <ele>393</ele>
        <time>2012-06-11T09:50:28Z</time>
      </trkpt>
      <trkpt lat="44.5631" lon="2.66578">
        <ele>393</ele>
        <time>2012-06-11T09:50:29Z</time>
      </trkpt>
      <trkpt lat="44.56311" lon="2.6658">
        <ele>393</ele>
        <time>2012-06-11T09:50:30Z</time>
      </trkpt>
      <trkpt lat="44.56312" lon="2.66582">
        <ele>392</ele>
        <time>2012-06-11T09:50:31Z</time>
      </trkpt>
      <trkpt lat="44.56313" lon="2.66584">
        <ele>392</ele>
        <time>2012-06-11T09:50:32Z</time>
      </trkpt>
      <trkpt lat="44.56314" lon="2.66585">
        <ele>391</ele>
        <time>2012-06-11T09:50:33Z</time>
      </trkpt>
      <trkpt lat="44.56314" lon="2.66588">
        <ele>391</ele>
        <time>2012-06-11T09:50:34Z</time>
      </trkpt>
      <trkpt lat="44.56315" lon="2.6659">
        <ele>390</ele>
        <time>2012-06-11T09:50:35Z</time>
      </trkpt>
      <trkpt lat="44.56316" lon="2.66592">
        <ele>390</ele>
        <time>2012-06-11T09:50:36Z</time>
      </trkpt>
      <trkpt lat="44.56317" lon="2.66594">
        <ele>390</ele>
        <time>2012-06-11T09:50:37Z</time>
      </trkpt>
      <trkpt lat="44.56318" lon="2.66596">
        <ele>389</ele>
        <time>2012-06-11T09:50:38Z</time>
      </trkpt>
      <trkpt lat="44.56319" lon="2.66598">
        <ele>389</ele>
        <time>2012-06-11T09:50:39Z</time>
      </trkpt>
      <trkpt lat="44.5632" lon="2.666">
        <ele>389</ele>
        <time>2012-06-11T09:50:40Z</time>
      </trkpt>
      <trkpt lat="44.56321" lon="2.66602">
        <ele>389</ele>
        <time>2012-06-11T09:50:41Z</time>
      </trkpt>
      <trkpt lat="44.56322" lon="2.66605">
        <ele>388</ele>
        <time>2012-06-11T09:50:42Z</time>
      </trkpt>
      <trkpt lat="44.56322" lon="2.66607">
        <ele>388</ele>
        <time>2012-06-11T09:50:43Z</time>
      </trkpt>
      <trkpt lat="44.56323" lon="2.66609">
        <ele>388</ele>
        <time>2012-06-11T09:50:44Z</time>
      </trkpt>
      <trkpt lat="44.56324" lon="2.66611">
        <ele>388</ele>
        <time>2012-06-11T09:50:45Z</time>
      </trkpt>
      <trkpt lat="44.56325" lon="2.66613">
        <ele>388</ele>
        <time>2012-06-11T09:50:46Z</time>
      </trkpt>
      <trkpt lat="44.56326" lon="2.66615">
        <ele>388</ele>
        <time>2012-06-11T09:50:47Z</time>
      </trkpt>
      <trkpt lat="44.56327" lon="2.66617">
        <ele>387</ele>
        <time>2012-06-11T09:50:48Z</time>
      </trkpt>
      <trkpt lat="44.56329" lon="2.66618">
        <ele>387</ele>
        <time>2012-06-11T09:50:49Z</time>
      </trkpt>
      <trkpt lat="44.56329" lon="2.6662">
        <ele>387</ele>
        <time>2012-06-11T09:50:50Z</time>
      </trkpt>
      <trkpt lat="44.5633" lon="2.66623">
        <ele>386</ele>
        <time>2012-06-11T09:50:51Z</time>
      </trkpt>
      <trkpt lat="44.5633" lon="2.66626">
        <ele>386</ele>
        <time>2012-06-11T09:50:52Z</time>
      </trkpt>
      <trkpt lat="44.56331" lon="2.66628">
        <ele>385</ele>
        <time>2012-06-11T09:50:53Z</time>
      </trkpt>
      <trkpt lat="44.56332" lon="2.66631">
        <ele>385</ele>
        <time>2012-06-11T09:50:54Z</time>
      </trkpt>
      <trkpt lat="44.56333" lon="2.66633">
        <ele>385</ele>
        <time>2012-06-11T09:50:55Z</time>
      </trkpt>
      <trkpt lat="44.56333" lon="2.66635">
        <ele>385</ele>
        <time>2012-06-11T09:50:56Z</time>
      </trkpt>
      <trkpt lat="44.56334" lon="2.66637">
        <ele>384</ele>
        <time>2012-06-11T09:50:57Z</time>
      </trkpt>
      <trkpt lat="44.56335" lon="2.66639">
        <ele>384</ele>
        <time>2012-06-11T09:50:58Z</time>
      </trkpt>
      <trkpt lat="44.56337" lon="2.66641">
        <ele>384</ele>
        <time>2012-06-11T09:50:59Z</time>
      </trkpt>
      <trkpt lat="44.56337" lon="2.66643">
        <ele>383</ele>
        <time>2012-06-11T09:51:00Z</time>
      </trkpt>
      <trkpt lat="44.56339" lon="2.66645">
        <ele>383</ele>
        <time>2012-06-11T09:51:01Z</time>
      </trkpt>
      <trkpt lat="44.56339" lon="2.66648">
        <ele>382</ele>
        <time>2012-06-11T09:51:02Z</time>
      </trkpt>
      <trkpt lat="44.5634" lon="2.66651">
        <ele>382</ele>
        <time>2012-06-11T09:51:03Z</time>
      </trkpt>
      <trkpt lat="44.5634" lon="2.66653">
        <ele>382</ele>
        <time>2012-06-11T09:51:04Z</time>
      </trkpt>
      <trkpt lat="44.56341" lon="2.66655">
        <ele>381</ele>
        <time>2012-06-11T09:51:05Z</time>
      </trkpt>
      <trkpt lat="44.56342" lon="2.6666">
        <ele>381</ele>
        <time>2012-06-11T09:51:07Z</time>
      </trkpt>
      <trkpt lat="44.56343" lon="2.66662">
        <ele>380</ele>
        <time>2012-06-11T09:51:08Z</time>
      </trkpt>
      <trkpt lat="44.56343" lon="2.66665">
        <ele>380</ele>
        <time>2012-06-11T09:51:09Z</time>
      </trkpt>
      <trkpt lat="44.56344" lon="2.66667">
        <ele>380</ele>
        <time>2012-06-11T09:51:10Z</time>
      </trkpt>
      <trkpt lat="44.56345" lon="2.66672">
        <ele>379</ele>
        <time>2012-06-11T09:51:12Z</time>
      </trkpt>
      <trkpt lat="44.56345" lon="2.66675">
        <ele>379</ele>
        <time>2012-06-11T09:51:13Z</time>
      </trkpt>
      <trkpt lat="44.56346" lon="2.66679">
        <ele>379</ele>
        <time>2012-06-11T09:51:15Z</time>
      </trkpt>
      <trkpt lat="44.56347" lon="2.66684">
        <ele>378</ele>
        <time>2012-06-11T09:51:17Z</time>
      </trkpt>
      <trkpt lat="44.56347" lon="2.66686">
        <ele>377</ele>
        <time>2012-06-11T09:51:18Z</time>
      </trkpt>
      <trkpt lat="44.56348" lon="2.66688">
        <ele>376</ele>
        <time>2012-06-11T09:51:19Z</time>
      </trkpt>
      <trkpt lat="44.56348" lon="2.6669">
        <ele>376</ele>
        <time>2012-06-11T09:51:20Z</time>
      </trkpt>
      <trkpt lat="44.56349" lon="2.66693">
        <ele>375</ele>
        <time>2012-06-11T09:51:21Z</time>
      </trkpt>
      <trkpt lat="44.5635" lon="2.66696">
        <ele>375</ele>
        <time>2012-06-11T09:51:22Z</time>
      </trkpt>
      <trkpt lat="44.5635" lon="2.66699">
        <ele>374</ele>
        <time>2012-06-11T09:51:23Z</time>
      </trkpt>
      <trkpt lat="44.56351" lon="2.66701">
        <ele>374</ele>
        <time>2012-06-11T09:51:24Z</time>
      </trkpt>
      <trkpt lat="44.56351" lon="2.66703">
        <ele>374</ele>
        <time>2012-06-11T09:51:25Z</time>
      </trkpt>
      <trkpt lat="44.56352" lon="2.66705">
        <ele>374</ele>
        <time>2012-06-11T09:51:26Z</time>
      </trkpt>
      <trkpt lat="44.56352" lon="2.66708">
        <ele>373</ele>
        <time>2012-06-11T09:51:27Z</time>
      </trkpt>
      <trkpt lat="44.56353" lon="2.6671">
        <ele>373</ele>
        <time>2012-06-11T09:51:28Z</time>
      </trkpt>
      <trkpt lat="44.56353" lon="2.66712">
        <ele>373</ele>
        <time>2012-06-11T09:51:29Z</time>
      </trkpt>
      <trkpt lat="44.56354" lon="2.66715">
        <ele>373</ele>
        <time>2012-06-11T09:51:30Z</time>
      </trkpt>
      <trkpt lat="44.56354" lon="2.66718">
        <ele>372</ele>
        <time>2012-06-11T09:51:31Z</time>
      </trkpt>
      <trkpt lat="44.56355" lon="2.66721">
        <ele>372</ele>
        <time>2012-06-11T09:51:32Z</time>
      </trkpt>
      <trkpt lat="44.56356" lon="2.66724">
        <ele>371</ele>
        <time>2012-06-11T09:51:33Z</time>
      </trkpt>
      <trkpt lat="44.56356" lon="2.66726">
        <ele>371</ele>
        <time>2012-06-11T09:51:34Z</time>
      </trkpt>
      <trkpt lat="44.56356" lon="2.66729">
        <ele>371</ele>
        <time>2012-06-11T09:51:35Z</time>
      </trkpt>
      <trkpt lat="44.56357" lon="2.66732">
        <ele>371</ele>
        <time>2012-06-11T09:51:36Z</time>
      </trkpt>
      <trkpt lat="44.56357" lon="2.66734">
        <ele>371</ele>
        <time>2012-06-11T09:51:37Z</time>
      </trkpt>
      <trkpt lat="44.56358" lon="2.66736">
        <ele>371</ele>
        <time>2012-06-11T09:51:38Z</time>
      </trkpt>
      <trkpt lat="44.56358" lon="2.66739">
        <ele>371</ele>
        <time>2012-06-11T09:51:39Z</time>
      </trkpt>
      <trkpt lat="44.56359" lon="2.66749">
        <ele>370</ele>
        <time>2012-06-11T09:51:43Z</time>
      </trkpt>
      <trkpt lat="44.56359" lon="2.66751">
        <ele>370</ele>
        <time>2012-06-11T09:51:44Z</time>
      </trkpt>
      <trkpt lat="44.5636" lon="2.66753">
        <ele>369</ele>
        <time>2012-06-11T09:51:45Z</time>
      </trkpt>
      <trkpt lat="44.56361" lon="2.66759">
        <ele>369</ele>
        <time>2012-06-11T09:51:47Z</time>
      </trkpt>
      <trkpt lat="44.56361" lon="2.66761">
        <ele>369</ele>
        <time>2012-06-11T09:51:48Z</time>
      </trkpt>
      <trkpt lat="44.56361" lon="2.66764">
        <ele>369</ele>
        <time>2012-06-11T09:51:49Z</time>
      </trkpt>
      <trkpt lat="44.56362" lon="2.66766">
        <ele>369</ele>
        <time>2012-06-11T09:51:50Z</time>
      </trkpt>
      <trkpt lat="44.56362" lon="2.66768">
        <ele>368</ele>
        <time>2012-06-11T09:51:51Z</time>
      </trkpt>
      <trkpt lat="44.56363" lon="2.66773">
        <ele>368</ele>
        <time>2012-06-11T09:51:53Z</time>
      </trkpt>
      <trkpt lat="44.56363" lon="2.66775">
        <ele>367</ele>
        <time>2012-06-11T09:51:54Z</time>
      </trkpt>
      <trkpt lat="44.56363" lon="2.66781">
        <ele>366</ele>
        <time>2012-06-11T09:51:56Z</time>
      </trkpt>
      <trkpt lat="44.56362" lon="2.66783">
        <ele>365</ele>
        <time>2012-06-11T09:51:57Z</time>
      </trkpt>
      <trkpt lat="44.56362" lon="2.66786">
        <ele>365</ele>
        <time>2012-06-11T09:51:58Z</time>
      </trkpt>
      <trkpt lat="44.56361" lon="2.66789">
        <ele>364</ele>
        <time>2012-06-11T09:51:59Z</time>
      </trkpt>
      <trkpt lat="44.56361" lon="2.66791">
        <ele>363</ele>
        <time>2012-06-11T09:52:00Z</time>
      </trkpt>
      <trkpt lat="44.56361" lon="2.66793">
        <ele>363</ele>
        <time>2012-06-11T09:52:01Z</time>
      </trkpt>
      <trkpt lat="44.5636" lon="2.668">
        <ele>362</ele>
        <time>2012-06-11T09:52:04Z</time>
      </trkpt>
      <trkpt lat="44.5636" lon="2.66805">
        <ele>361</ele>
        <time>2012-06-11T09:52:06Z</time>
      </trkpt>
      <trkpt lat="44.56359" lon="2.66807">
        <ele>361</ele>
        <time>2012-06-11T09:52:07Z</time>
      </trkpt>
      <trkpt lat="44.56359" lon="2.66809">
        <ele>361</ele>
        <time>2012-06-11T09:52:08Z</time>
      </trkpt>
      <trkpt lat="44.56358" lon="2.66812">
        <ele>361</ele>
        <time>2012-06-11T09:52:09Z</time>
      </trkpt>
      <trkpt lat="44.56358" lon="2.66814">
        <ele>361</ele>
        <time>2012-06-11T09:52:10Z</time>
      </trkpt>
      <trkpt lat="44.56358" lon="2.66816">
        <ele>360</ele>
        <time>2012-06-11T09:52:11Z</time>
      </trkpt>
      <trkpt lat="44.56357" lon="2.66819">
        <ele>360</ele>
        <time>2012-06-11T09:52:12Z</time>
      </trkpt>
      <trkpt lat="44.56357" lon="2.66821">
        <ele>360</ele>
        <time>2012-06-11T09:52:13Z</time>
      </trkpt>
      <trkpt lat="44.56356" lon="2.66823">
        <ele>360</ele>
        <time>2012-06-11T09:52:14Z</time>
      </trkpt>
      <trkpt lat="44.56356" lon="2.66826">
        <ele>360</ele>
        <time>2012-06-11T09:52:15Z</time>
      </trkpt>
      <trkpt lat="44.56356" lon="2.66828">
        <ele>360</ele>
        <time>2012-06-11T09:52:16Z</time>
      </trkpt>
      <trkpt lat="44.56355" lon="2.66834">
        <ele>360</ele>
        <time>2012-06-11T09:52:18Z</time>
      </trkpt>
      <trkpt lat="44.56355" lon="2.66836">
        <ele>360</ele>
        <time>2012-06-11T09:52:19Z</time>
      </trkpt>
      <trkpt lat="44.56354" lon="2.66839">
        <ele>360</ele>
        <time>2012-06-11T09:52:20Z</time>
      </trkpt>
      <trkpt lat="44.56353" lon="2.66841">
        <ele>360</ele>
        <time>2012-06-11T09:52:21Z</time>
      </trkpt>
      <trkpt lat="44.56353" lon="2.66843">
        <ele>360</ele>
        <time>2012-06-11T09:52:22Z</time>
      </trkpt>
      <trkpt lat="44.56352" lon="2.66846">
        <ele>360</ele>
        <time>2012-06-11T09:52:23Z</time>
      </trkpt>
      <trkpt lat="44.56351" lon="2.66848">
        <ele>360</ele>
        <time>2012-06-11T09:52:24Z</time>
      </trkpt>
      <trkpt lat="44.5635" lon="2.66851">
        <ele>360</ele>
        <time>2012-06-11T09:52:25Z</time>
      </trkpt>
      <trkpt lat="44.5635" lon="2.66853">
        <ele>360</ele>
        <time>2012-06-11T09:52:26Z</time>
      </trkpt>
      <trkpt lat="44.56349" lon="2.66856">
        <ele>360</ele>
        <time>2012-06-11T09:52:27Z</time>
      </trkpt>
      <trkpt lat="44.56349" lon="2.66858">
        <ele>360</ele>
        <time>2012-06-11T09:52:28Z</time>
      </trkpt>
      <trkpt lat="44.56348" lon="2.66861">
        <ele>360</ele>
        <time>2012-06-11T09:52:29Z</time>
      </trkpt>
      <trkpt lat="44.56348" lon="2.66863">
        <ele>360</ele>
        <time>2012-06-11T09:52:30Z</time>
      </trkpt>
      <trkpt lat="44.56347" lon="2.66866">
        <ele>360</ele>
        <time>2012-06-11T09:52:31Z</time>
      </trkpt>
      <trkpt lat="44.56347" lon="2.66868">
        <ele>360</ele>
        <time>2012-06-11T09:52:32Z</time>
      </trkpt>
      <trkpt lat="44.56347" lon="2.66873">
        <ele>360</ele>
        <time>2012-06-11T09:52:34Z</time>
      </trkpt>
      <trkpt lat="44.56346" lon="2.66876">
        <ele>360</ele>
        <time>2012-06-11T09:52:35Z</time>
      </trkpt>
      <trkpt lat="44.56345" lon="2.66878">
        <ele>360</ele>
        <time>2012-06-11T09:52:36Z</time>
      </trkpt>
      <trkpt lat="44.56345" lon="2.66884">
        <ele>360</ele>
        <time>2012-06-11T09:52:38Z</time>
      </trkpt>
      <trkpt lat="44.56345" lon="2.66886">
        <ele>360</ele>
        <time>2012-06-11T09:52:39Z</time>
      </trkpt>
      <trkpt lat="44.56344" lon="2.66889">
        <ele>360</ele>
        <time>2012-06-11T09:52:40Z</time>
      </trkpt>
      <trkpt lat="44.56344" lon="2.66891">
        <ele>360</ele>
        <time>2012-06-11T09:52:41Z</time>
      </trkpt>
      <trkpt lat="44.56343" lon="2.66893">
        <ele>360</ele>
        <time>2012-06-11T09:52:42Z</time>
      </trkpt>
      <trkpt lat="44.56342" lon="2.66895">
        <ele>360</ele>
        <time>2012-06-11T09:52:43Z</time>
      </trkpt>
      <trkpt lat="44.56342" lon="2.66898">
        <ele>360</ele>
        <time>2012-06-11T09:52:44Z</time>
      </trkpt>
      <trkpt lat="44.56342" lon="2.669">
        <ele>360</ele>
        <time>2012-06-11T09:52:45Z</time>
      </trkpt>
      <trkpt lat="44.56341" lon="2.66902">
        <ele>360</ele>
        <time>2012-06-11T09:52:46Z</time>
      </trkpt>
      <trkpt lat="44.56341" lon="2.66905">
        <ele>360</ele>
        <time>2012-06-11T09:52:47Z</time>
      </trkpt>
      <trkpt lat="44.5634" lon="2.66908">
        <ele>360</ele>
        <time>2012-06-11T09:52:48Z</time>
      </trkpt>
      <trkpt lat="44.5634" lon="2.6691">
        <ele>360</ele>
        <time>2012-06-11T09:52:49Z</time>
      </trkpt>
      <trkpt lat="44.56339" lon="2.66913">
        <ele>360</ele>
        <time>2012-06-11T09:52:50Z</time>
      </trkpt>
      <trkpt lat="44.56339" lon="2.66915">
        <ele>360</ele>
        <time>2012-06-11T09:52:51Z</time>
      </trkpt>
      <trkpt lat="44.56339" lon="2.66917">
        <ele>360</ele>
        <time>2012-06-11T09:52:52Z</time>
      </trkpt>
      <trkpt lat="44.56338" lon="2.66919">
        <ele>360</ele>
        <time>2012-06-11T09:52:53Z</time>
      </trkpt>
      <trkpt lat="44.56337" lon="2.66922">
        <ele>360</ele>
        <time>2012-06-11T09:52:54Z</time>
      </trkpt>
      <trkpt lat="44.56336" lon="2.66925">
        <ele>360</ele>
        <time>2012-06-11T09:52:55Z</time>
      </trkpt>
      <trkpt lat="44.56335" lon="2.66927">
        <ele>360</ele>
        <time>2012-06-11T09:52:56Z</time>
      </trkpt>
      <trkpt lat="44.56335" lon="2.66929">
        <ele>360</ele>
        <time>2012-06-11T09:52:57Z</time>
      </trkpt>
      <trkpt lat="44.56334" lon="2.66932">
        <ele>360</ele>
        <time>2012-06-11T09:52:58Z</time>
      </trkpt>
      <trkpt lat="44.56334" lon="2.66934">
        <ele>360</ele>
        <time>2012-06-11T09:52:59Z</time>
      </trkpt>
      <trkpt lat="44.56333" lon="2.66936">
        <ele>360</ele>
        <time>2012-06-11T09:53:00Z</time>
      </trkpt>
      <trkpt lat="44.56332" lon="2.66938">
        <ele>360</ele>
        <time>2012-06-11T09:53:01Z</time>
      </trkpt>
      <trkpt lat="44.56332" lon="2.6694">
        <ele>360</ele>
        <time>2012-06-11T09:53:02Z</time>
      </trkpt>
      <trkpt lat="44.56331" lon="2.66942">
        <ele>360</ele>
        <time>2012-06-11T09:53:03Z</time>
      </trkpt>
      <trkpt lat="44.5633" lon="2.66944">
        <ele>360</ele>
        <time>2012-06-11T09:53:04Z</time>
      </trkpt>
      <trkpt lat="44.5633" lon="2.66946">
        <ele>360</ele>
        <time>2012-06-11T09:53:05Z</time>
      </trkpt>
      <trkpt lat="44.56329" lon="2.66948">
        <ele>360</ele>
        <time>2012-06-11T09:53:06Z</time>
      </trkpt>
      <trkpt lat="44.56329" lon="2.6695">
        <ele>360</ele>
        <time>2012-06-11T09:53:07Z</time>
      </trkpt>
      <trkpt lat="44.56328" lon="2.66952">
        <ele>360</ele>
        <time>2012-06-11T09:53:08Z</time>
      </trkpt>
      <trkpt lat="44.56327" lon="2.66954">
        <ele>360</ele>
        <time>2012-06-11T09:53:09Z</time>
      </trkpt>
      <trkpt lat="44.56327" lon="2.66956">
        <ele>360</ele>
        <time>2012-06-11T09:53:10Z</time>
      </trkpt>
      <trkpt lat="44.56327" lon="2.66959">
        <ele>360</ele>
        <time>2012-06-11T09:53:11Z</time>
      </trkpt>
      <trkpt lat="44.56326" lon="2.66961">
        <ele>360</ele>
        <time>2012-06-11T09:53:12Z</time>
      </trkpt>
      <trkpt lat="44.56326" lon="2.66964">
        <ele>360</ele>
        <time>2012-06-11T09:53:13Z</time>
      </trkpt>
      <trkpt lat="44.56325" lon="2.66966">
        <ele>360</ele>
        <time>2012-06-11T09:53:14Z</time>
      </trkpt>
      <trkpt lat="44.56324" lon="2.66967">
        <ele>360</ele>
        <time>2012-06-11T09:53:15Z</time>
      </trkpt>
      <trkpt lat="44.56323" lon="2.66969">
        <ele>360</ele>
        <time>2012-06-11T09:53:16Z</time>
      </trkpt>
      <trkpt lat="44.56322" lon="2.66971">
        <ele>360</ele>
        <time>2012-06-11T09:53:17Z</time>
      </trkpt>
      <trkpt lat="44.56322" lon="2.66974">
        <ele>360</ele>
        <time>2012-06-11T09:53:18Z</time>
      </trkpt>
      <trkpt lat="44.56321" lon="2.66976">
        <ele>360</ele>
        <time>2012-06-11T09:53:19Z</time>
      </trkpt>
      <trkpt lat="44.5632" lon="2.66979">
        <ele>360</ele>
        <time>2012-06-11T09:53:20Z</time>
      </trkpt>
      <trkpt lat="44.56319" lon="2.66981">
        <ele>360</ele>
        <time>2012-06-11T09:53:21Z</time>
      </trkpt>
      <trkpt lat="44.56318" lon="2.66982">
        <ele>360</ele>
        <time>2012-06-11T09:53:22Z</time>
      </trkpt>
      <trkpt lat="44.56317" lon="2.66984">
        <ele>360</ele>
        <time>2012-06-11T09:53:23Z</time>
      </trkpt>
      <trkpt lat="44.56316" lon="2.66984">
        <ele>360</ele>
        <time>2012-06-11T09:53:24Z</time>
      </trkpt>
      <trkpt lat="44.56314" lon="2.66985">
        <ele>360</ele>
        <time>2012-06-11T09:53:25Z</time>
      </trkpt>
      <trkpt lat="44.56313" lon="2.66985">
        <ele>359</ele>
        <time>2012-06-11T09:53:26Z</time>
      </trkpt>
      <trkpt lat="44.56311" lon="2.66986">
        <ele>359</ele>
        <time>2012-06-11T09:53:27Z</time>
      </trkpt>
      <trkpt lat="44.5631" lon="2.66987">
        <ele>358</ele>
        <time>2012-06-11T09:53:28Z</time>
      </trkpt>
      <trkpt lat="44.56308" lon="2.66988">
        <ele>358</ele>
        <time>2012-06-11T09:53:29Z</time>
      </trkpt>
      <trkpt lat="44.56307" lon="2.66989">
        <ele>357</ele>
        <time>2012-06-11T09:53:30Z</time>
      </trkpt>
      <trkpt lat="44.56305" lon="2.6699">
        <ele>357</ele>
        <time>2012-06-11T09:53:31Z</time>
      </trkpt>
      <trkpt lat="44.56303" lon="2.6699">
        <ele>357</ele>
        <time>2012-06-11T09:53:32Z</time>
      </trkpt>
      <trkpt lat="44.56302" lon="2.66991">
        <ele>357</ele>
        <time>2012-06-11T09:53:33Z</time>
      </trkpt>
      <trkpt lat="44.563" lon="2.66991">
        <ele>357</ele>
        <time>2012-06-11T09:53:34Z</time>
      </trkpt>
      <trkpt lat="44.56299" lon="2.66992">
        <ele>357</ele>
        <time>2012-06-11T09:53:35Z</time>
      </trkpt>
      <trkpt lat="44.56297" lon="2.66992">
        <ele>357</ele>
        <time>2012-06-11T09:53:36Z</time>
      </trkpt>
      <trkpt lat="44.56296" lon="2.66993">
        <ele>357</ele>
        <time>2012-06-11T09:53:37Z</time>
      </trkpt>
      <trkpt lat="44.56294" lon="2.66994">
        <ele>357</ele>
        <time>2012-06-11T09:53:38Z</time>
      </trkpt>
      <trkpt lat="44.56293" lon="2.66994">
        <ele>357</ele>
        <time>2012-06-11T09:53:39Z</time>
      </trkpt>
      <trkpt lat="44.56291" lon="2.66995">
        <ele>357</ele>
        <time>2012-06-11T09:53:40Z</time>
      </trkpt>
      <trkpt lat="44.5629" lon="2.66996">
        <ele>357</ele>
        <time>2012-06-11T09:53:41Z</time>
      </trkpt>
      <trkpt lat="44.56288" lon="2.66997">
        <ele>357</ele>
        <time>2012-06-11T09:53:42Z</time>
      </trkpt>
      <trkpt lat="44.56287" lon="2.66998">
        <ele>357</ele>
        <time>2012-06-11T09:53:43Z</time>
      </trkpt>
      <trkpt lat="44.56285" lon="2.66999">
        <ele>357</ele>
        <time>2012-06-11T09:53:44Z</time>
      </trkpt>
      <trkpt lat="44.56284" lon="2.66999">
        <ele>357</ele>
        <time>2012-06-11T09:53:45Z</time>
      </trkpt>
      <trkpt lat="44.56282" lon="2.67">
        <ele>356</ele>
        <time>2012-06-11T09:53:46Z</time>
      </trkpt>
      <trkpt lat="44.5628" lon="2.67">
        <ele>356</ele>
        <time>2012-06-11T09:53:47Z</time>
      </trkpt>
      <trkpt lat="44.56279" lon="2.67">
        <ele>356</ele>
        <time>2012-06-11T09:53:48Z</time>
      </trkpt>
      <trkpt lat="44.56277" lon="2.67001">
        <ele>356</ele>
        <time>2012-06-11T09:53:49Z</time>
      </trkpt>
      <trkpt lat="44.56276" lon="2.67002">
        <ele>355</ele>
        <time>2012-06-11T09:53:50Z</time>
      </trkpt>
      <trkpt lat="44.56269" lon="2.67001">
        <ele>354</ele>
        <time>2012-06-11T09:53:54Z</time>
      </trkpt>
      <trkpt lat="44.56268" lon="2.67001">
        <ele>353</ele>
        <time>2012-06-11T09:53:55Z</time>
      </trkpt>
      <trkpt lat="44.56266" lon="2.67">
        <ele>353</ele>
        <time>2012-06-11T09:53:56Z</time>
      </trkpt>
      <trkpt lat="44.56265" lon="2.66999">
        <ele>353</ele>
        <time>2012-06-11T09:53:57Z</time>
      </trkpt>
      <trkpt lat="44.56263" lon="2.66998">
        <ele>353</ele>
        <time>2012-06-11T09:53:58Z</time>
      </trkpt>
      <trkpt lat="44.56262" lon="2.66996">
        <ele>353</ele>
        <time>2012-06-11T09:53:59Z</time>
      </trkpt>
      <trkpt lat="44.5626" lon="2.66995">
        <ele>353</ele>
        <time>2012-06-11T09:54:00Z</time>
      </trkpt>
      <trkpt lat="44.56259" lon="2.66993">
        <ele>353</ele>
        <time>2012-06-11T09:54:01Z</time>
      </trkpt>
      <trkpt lat="44.56258" lon="2.66991">
        <ele>353</ele>
        <time>2012-06-11T09:54:02Z</time>
      </trkpt>
      <trkpt lat="44.56256" lon="2.6699">
        <ele>353</ele>
        <time>2012-06-11T09:54:03Z</time>
      </trkpt>
      <trkpt lat="44.56255" lon="2.66988">
        <ele>353</ele>
        <time>2012-06-11T09:54:04Z</time>
      </trkpt>
      <trkpt lat="44.56253" lon="2.66987">
        <ele>353</ele>
        <time>2012-06-11T09:54:05Z</time>
      </trkpt>
      <trkpt lat="44.56252" lon="2.66986">
        <ele>353</ele>
        <time>2012-06-11T09:54:06Z</time>
      </trkpt>
      <trkpt lat="44.5625" lon="2.66984">
        <ele>353</ele>
        <time>2012-06-11T09:54:07Z</time>
      </trkpt>
      <trkpt lat="44.56249" lon="2.66983">
        <ele>353</ele>
        <time>2012-06-11T09:54:08Z</time>
      </trkpt>
      <trkpt lat="44.56247" lon="2.66981">
        <ele>353</ele>
        <time>2012-06-11T09:54:09Z</time>
      </trkpt>
      <trkpt lat="44.56246" lon="2.66978">
        <ele>353</ele>
        <time>2012-06-11T09:54:10Z</time>
      </trkpt>
      <trkpt lat="44.56245" lon="2.66977">
        <ele>353</ele>
        <time>2012-06-11T09:54:11Z</time>
      </trkpt>
      <trkpt lat="44.56243" lon="2.66975">
        <ele>353</ele>
        <time>2012-06-11T09:54:12Z</time>
      </trkpt>
      <trkpt lat="44.56242" lon="2.66974">
        <ele>353</ele>
        <time>2012-06-11T09:54:13Z</time>
      </trkpt>
      <trkpt lat="44.5624" lon="2.66972">
        <ele>353</ele>
        <time>2012-06-11T09:54:14Z</time>
      </trkpt>
      <trkpt lat="44.56239" lon="2.66971">
        <ele>353</ele>
        <time>2012-06-11T09:54:15Z</time>
      </trkpt>
      <trkpt lat="44.56238" lon="2.6697">
        <ele>353</ele>
        <time>2012-06-11T09:54:16Z</time>
      </trkpt>
      <trkpt lat="44.56237" lon="2.66969">
        <ele>353</ele>
        <time>2012-06-11T09:54:17Z</time>
      </trkpt>
      <trkpt lat="44.56235" lon="2.66968">
        <ele>353</ele>
        <time>2012-06-11T09:54:18Z</time>
      </trkpt>
      <trkpt lat="44.56234" lon="2.66967">
        <ele>353</ele>
        <time>2012-06-11T09:54:19Z</time>
      </trkpt>
      <trkpt lat="44.56232" lon="2.66965">
        <ele>353</ele>
        <time>2012-06-11T09:54:20Z</time>
      </trkpt>
      <trkpt lat="44.56231" lon="2.66964">
        <ele>353</ele>
        <time>2012-06-11T09:54:21Z</time>
      </trkpt>
      <trkpt lat="44.56229" lon="2.66962">
        <ele>353</ele>
        <time>2012-06-11T09:54:22Z</time>
      </trkpt>
      <trkpt lat="44.56228" lon="2.66961">
        <ele>353</ele>
        <time>2012-06-11T09:54:23Z</time>
      </trkpt>
      <trkpt lat="44.56226" lon="2.6696">
        <ele>353</ele>
        <time>2012-06-11T09:54:24Z</time>
      </trkpt>
      <trkpt lat="44.56225" lon="2.66958">
        <ele>353</ele>
        <time>2012-06-11T09:54:25Z</time>
      </trkpt>
      <trkpt lat="44.56224" lon="2.66957">
        <ele>353</ele>
        <time>2012-06-11T09:54:26Z</time>
      </trkpt>
      <trkpt lat="44.56223" lon="2.66955">
        <ele>353</ele>
        <time>2012-06-11T09:54:27Z</time>
      </trkpt>
      <trkpt lat="44.56221" lon="2.66954">
        <ele>353</ele>
        <time>2012-06-11T09:54:28Z</time>
      </trkpt>
      <trkpt lat="44.5622" lon="2.66952">
        <ele>353</ele>
        <time>2012-06-11T09:54:29Z</time>
      </trkpt>
      <trkpt lat="44.56218" lon="2.6695">
        <ele>353</ele>
        <time>2012-06-11T09:54:30Z</time>
      </trkpt>
      <trkpt lat="44.56217" lon="2.66949">
        <ele>353</ele>
        <time>2012-06-11T09:54:31Z</time>
      </trkpt>
      <trkpt lat="44.56215" lon="2.66948">
        <ele>353</ele>
        <time>2012-06-11T09:54:32Z</time>
      </trkpt>
      <trkpt lat="44.56214" lon="2.66947">
        <ele>353</ele>
        <time>2012-06-11T09:54:33Z</time>
      </trkpt>
      <trkpt lat="44.56213" lon="2.66945">
        <ele>353</ele>
        <time>2012-06-11T09:54:34Z</time>
      </trkpt>
      <trkpt lat="44.56212" lon="2.66944">
        <ele>353</ele>
        <time>2012-06-11T09:54:35Z</time>
      </trkpt>
      <trkpt lat="44.5621" lon="2.66942">
        <ele>353</ele>
        <time>2012-06-11T09:54:36Z</time>
      </trkpt>
      <trkpt lat="44.56209" lon="2.66941">
        <ele>353</ele>
        <time>2012-06-11T09:54:37Z</time>
      </trkpt>
      <trkpt lat="44.56206" lon="2.6694">
        <ele>353</ele>
        <time>2012-06-11T09:54:39Z</time>
      </trkpt>
      <trkpt lat="44.56205" lon="2.66939">
        <ele>353</ele>
        <time>2012-06-11T09:54:40Z</time>
      </trkpt>
      <trkpt lat="44.56204" lon="2.66937">
        <ele>353</ele>
        <time>2012-06-11T09:54:41Z</time>
      </trkpt>
      <trkpt lat="44.56202" lon="2.66936">
        <ele>353</ele>
        <time>2012-06-11T09:54:42Z</time>
      </trkpt>
      <trkpt lat="44.56201" lon="2.66935">
        <ele>353</ele>
        <time>2012-06-11T09:54:43Z</time>
      </trkpt>
      <trkpt lat="44.562" lon="2.66933">
        <ele>353</ele>
        <time>2012-06-11T09:54:44Z</time>
      </trkpt>
      <trkpt lat="44.56199" lon="2.66933">
        <ele>353</ele>
        <time>2012-06-11T09:54:45Z</time>
      </trkpt>
      <trkpt lat="44.56197" lon="2.66931">
        <ele>353</ele>
        <time>2012-06-11T09:54:46Z</time>
      </trkpt>
      <trkpt lat="44.56196" lon="2.6693">
        <ele>353</ele>
        <time>2012-06-11T09:54:47Z</time>
      </trkpt>
      <trkpt lat="44.56195" lon="2.66929">
        <ele>353</ele>
        <time>2012-06-11T09:54:48Z</time>
      </trkpt>
      <trkpt lat="44.56193" lon="2.66927">
        <ele>353</ele>
        <time>2012-06-11T09:54:50Z</time>
      </trkpt>
      <trkpt lat="44.5619" lon="2.66924">
        <ele>353</ele>
        <time>2012-06-11T09:54:52Z</time>
      </trkpt>
      <trkpt lat="44.56188" lon="2.66923">
        <ele>353</ele>
        <time>2012-06-11T09:54:53Z</time>
      </trkpt>
      <trkpt lat="44.56186" lon="2.66923">
        <ele>353</ele>
        <time>2012-06-11T09:54:54Z</time>
      </trkpt>
      <trkpt lat="44.56185" lon="2.66922">
        <ele>353</ele>
        <time>2012-06-11T09:54:55Z</time>
      </trkpt>
      <trkpt lat="44.56184" lon="2.66922">
        <ele>353</ele>
        <time>2012-06-11T09:54:56Z</time>
      </trkpt>
      <trkpt lat="44.56182" lon="2.66923">
        <ele>353</ele>
        <time>2012-06-11T09:54:57Z</time>
      </trkpt>
      <trkpt lat="44.56181" lon="2.66926">
        <ele>353</ele>
        <time>2012-06-11T09:54:58Z</time>
      </trkpt>
      <trkpt lat="44.56181" lon="2.66928">
        <ele>353</ele>
        <time>2012-06-11T09:54:59Z</time>
      </trkpt>
      <trkpt lat="44.56181" lon="2.66931">
        <ele>353</ele>
        <time>2012-06-11T09:55:00Z</time>
      </trkpt>
      <trkpt lat="44.56182" lon="2.66933">
        <ele>353</ele>
        <time>2012-06-11T09:55:01Z</time>
      </trkpt>
      <trkpt lat="44.56182" lon="2.66936">
        <ele>353</ele>
        <time>2012-06-11T09:55:02Z</time>
      </trkpt>
      <trkpt lat="44.56183" lon="2.66938">
        <ele>353</ele>
        <time>2012-06-11T09:55:03Z</time>
      </trkpt>
      <trkpt lat="44.56183" lon="2.6694">
        <ele>353</ele>
        <time>2012-06-11T09:55:04Z</time>
      </trkpt>
      <trkpt lat="44.56184" lon="2.66943">
        <ele>353</ele>
        <time>2012-06-11T09:55:05Z</time>
      </trkpt>
      <trkpt lat="44.56184" lon="2.66945">
        <ele>353</ele>
        <time>2012-06-11T09:55:06Z</time>
      </trkpt>
      <trkpt lat="44.56184" lon="2.66947">
        <ele>353</ele>
        <time>2012-06-11T09:55:07Z</time>
      </trkpt>
      <trkpt lat="44.56185" lon="2.6695">
        <ele>353</ele>
        <time>2012-06-11T09:55:08Z</time>
      </trkpt>
      <trkpt lat="44.56185" lon="2.66952">
        <ele>352</ele>
        <time>2012-06-11T09:55:09Z</time>
      </trkpt>
      <trkpt lat="44.56186" lon="2.66954">
        <ele>352</ele>
        <time>2012-06-11T09:55:10Z</time>
      </trkpt>
      <trkpt lat="44.56186" lon="2.66957">
        <ele>352</ele>
        <time>2012-06-11T09:55:11Z</time>
      </trkpt>
      <trkpt lat="44.56186" lon="2.66959">
        <ele>351</ele>
        <time>2012-06-11T09:55:12Z</time>
      </trkpt>
      <trkpt lat="44.56187" lon="2.66962">
        <ele>351</ele>
        <time>2012-06-11T09:55:13Z</time>
      </trkpt>
      <trkpt lat="44.56187" lon="2.66966">
        <ele>351</ele>
        <time>2012-06-11T09:55:15Z</time>
      </trkpt>
      <trkpt lat="44.56188" lon="2.66968">
        <ele>350</ele>
        <time>2012-06-11T09:55:16Z</time>
      </trkpt>
      <trkpt lat="44.56189" lon="2.6697">
        <ele>350</ele>
        <time>2012-06-11T09:55:17Z</time>
      </trkpt>
      <trkpt lat="44.56189" lon="2.66973">
        <ele>350</ele>
        <time>2012-06-11T09:55:18Z</time>
      </trkpt>
      <trkpt lat="44.56189" lon="2.66975">
        <ele>349</ele>
        <time>2012-06-11T09:55:19Z</time>
      </trkpt>
      <trkpt lat="44.5619" lon="2.6698">
        <ele>349</ele>
        <time>2012-06-11T09:55:21Z</time>
      </trkpt>
      <trkpt lat="44.5619" lon="2.66982">
        <ele>349</ele>
        <time>2012-06-11T09:55:22Z</time>
      </trkpt>
      <trkpt lat="44.56191" lon="2.66984">
        <ele>349</ele>
        <time>2012-06-11T09:55:23Z</time>
      </trkpt>
      <trkpt lat="44.56191" lon="2.66986">
        <ele>348</ele>
        <time>2012-06-11T09:55:24Z</time>
      </trkpt>
      <trkpt lat="44.56192" lon="2.66988">
        <ele>348</ele>
        <time>2012-06-11T09:55:25Z</time>
      </trkpt>
      <trkpt lat="44.56193" lon="2.66991">
        <ele>348</ele>
        <time>2012-06-11T09:55:26Z</time>
      </trkpt>
      <trkpt lat="44.56193" lon="2.66993">
        <ele>347</ele>
        <time>2012-06-11T09:55:27Z</time>
      </trkpt>
      <trkpt lat="44.56194" lon="2.66998">
        <ele>347</ele>
        <time>2012-06-11T09:55:29Z</time>
      </trkpt>
      <trkpt lat="44.56194" lon="2.67">
        <ele>347</ele>
        <time>2012-06-11T09:55:30Z</time>
      </trkpt>
      <trkpt lat="44.56195" lon="2.67002">
        <ele>347</ele>
        <time>2012-06-11T09:55:31Z</time>
      </trkpt>
      <trkpt lat="44.56195" lon="2.67004">
        <ele>347</ele>
        <time>2012-06-11T09:55:32Z</time>
      </trkpt>
      <trkpt lat="44.56195" lon="2.67006">
        <ele>347</ele>
        <time>2012-06-11T09:55:33Z</time>
      </trkpt>
      <trkpt lat="44.56196" lon="2.67009">
        <ele>347</ele>
        <time>2012-06-11T09:55:34Z</time>
      </trkpt>
      <trkpt lat="44.56196" lon="2.67013">
        <ele>347</ele>
        <time>2012-06-11T09:55:36Z</time>
      </trkpt>
      <trkpt lat="44.56197" lon="2.67016">
        <ele>347</ele>
        <time>2012-06-11T09:55:37Z</time>
      </trkpt>
      <trkpt lat="44.56197" lon="2.67018">
        <ele>347</ele>
        <time>2012-06-11T09:55:38Z</time>
      </trkpt>
      <trkpt lat="44.56197" lon="2.67022">
        <ele>347</ele>
        <time>2012-06-11T09:55:40Z</time>
      </trkpt>
      <trkpt lat="44.56198" lon="2.67034">
        <ele>347</ele>
        <time>2012-06-11T09:55:45Z</time>
      </trkpt>
      <trkpt lat="44.56198" lon="2.67038">
        <ele>347</ele>
        <time>2012-06-11T09:55:47Z</time>
      </trkpt>
      <trkpt lat="44.56199" lon="2.6704">
        <ele>347</ele>
        <time>2012-06-11T09:55:48Z</time>
      </trkpt>
      <trkpt lat="44.56199" lon="2.67043">
        <ele>347</ele>
        <time>2012-06-11T09:55:49Z</time>
      </trkpt>
      <trkpt lat="44.56199" lon="2.67057">
        <ele>347</ele>
        <time>2012-06-11T09:55:55Z</time>
      </trkpt>
      <trkpt lat="44.562" lon="2.67059">
        <ele>347</ele>
        <time>2012-06-11T09:55:56Z</time>
      </trkpt>
      <trkpt lat="44.562" lon="2.6708">
        <ele>345</ele>
        <time>2012-06-11T09:56:05Z</time>
      </trkpt>
      <trkpt lat="44.562" lon="2.67089">
        <ele>345</ele>
        <time>2012-06-11T09:56:09Z</time>
      </trkpt>
      <trkpt lat="44.56201" lon="2.67099">
        <ele>345</ele>
        <time>2012-06-11T09:56:13Z</time>
      </trkpt>
      <trkpt lat="44.562" lon="2.67108">
        <ele>345</ele>
        <time>2012-06-11T09:56:17Z</time>
      </trkpt>
      <trkpt lat="44.56201" lon="2.67115">
        <ele>345</ele>
        <time>2012-06-11T09:56:20Z</time>
      </trkpt>
      <trkpt lat="44.562" lon="2.67129">
        <ele>344</ele>
        <time>2012-06-11T09:56:26Z</time>
      </trkpt>
      <trkpt lat="44.56201" lon="2.67136">
        <ele>344</ele>
        <time>2012-06-11T09:56:29Z</time>
      </trkpt>
      <trkpt lat="44.56201" lon="2.6715">
        <ele>343</ele>
        <time>2012-06-11T09:56:35Z</time>
      </trkpt>
      <trkpt lat="44.56202" lon="2.67161">
        <ele>343</ele>
        <time>2012-06-11T09:56:40Z</time>
      </trkpt>
      <trkpt lat="44.56202" lon="2.67169">
        <ele>343</ele>
        <time>2012-06-11T09:56:43Z</time>
      </trkpt>
      <trkpt lat="44.56202" lon="2.67178">
        <ele>343</ele>
        <time>2012-06-11T09:56:47Z</time>
      </trkpt>
      <trkpt lat="44.56203" lon="2.67189">
        <ele>343</ele>
        <time>2012-06-11T09:56:52Z</time>
      </trkpt>
      <trkpt lat="44.56203" lon="2.67196">
        <ele>342</ele>
        <time>2012-06-11T09:56:55Z</time>
      </trkpt>
      <trkpt lat="44.56203" lon="2.67198">
        <ele>342</ele>
        <time>2012-06-11T09:56:56Z</time>
      </trkpt>
      <trkpt lat="44.56204" lon="2.67205">
        <ele>342</ele>
        <time>2012-06-11T09:56:59Z</time>
      </trkpt>
      <trkpt lat="44.56203" lon="2.67212">
        <ele>342</ele>
        <time>2012-06-11T09:57:02Z</time>
      </trkpt>
      <trkpt lat="44.56204" lon="2.67216">
        <ele>342</ele>
        <time>2012-06-11T09:57:04Z</time>
      </trkpt>
      <trkpt lat="44.56204" lon="2.67223">
        <ele>342</ele>
        <time>2012-06-11T09:57:07Z</time>
      </trkpt>
      <trkpt lat="44.56204" lon="2.67228">
        <ele>342</ele>
        <time>2012-06-11T09:57:09Z</time>
      </trkpt>
      <trkpt lat="44.56203" lon="2.67235">
        <ele>342</ele>
        <time>2012-06-11T09:57:12Z</time>
      </trkpt>
      <trkpt lat="44.56204" lon="2.6724">
        <ele>342</ele>
        <time>2012-06-11T09:57:14Z</time>
      </trkpt>
      <trkpt lat="44.56204" lon="2.67242">
        <ele>342</ele>
        <time>2012-06-11T09:57:15Z</time>
      </trkpt>
      <trkpt lat="44.56205" lon="2.67244">
        <ele>342</ele>
        <time>2012-06-11T09:57:16Z</time>
      </trkpt>
      <trkpt lat="44.56205" lon="2.67246">
        <ele>342</ele>
        <time>2012-06-11T09:57:17Z</time>
      </trkpt>
      <trkpt lat="44.56205" lon="2.67251">
        <ele>342</ele>
        <time>2012-06-11T09:57:19Z</time>
      </trkpt>
      <trkpt lat="44.56205" lon="2.67253">
        <ele>342</ele>
        <time>2012-06-11T09:57:20Z</time>
      </trkpt>
      <trkpt lat="44.56205" lon="2.67268">
        <ele>342</ele>
        <time>2012-06-11T09:57:26Z</time>
      </trkpt>
      <trkpt lat="44.56205" lon="2.6729">
        <ele>342</ele>
        <time>2012-06-11T09:57:36Z</time>
      </trkpt>
      <trkpt lat="44.56205" lon="2.67293">
        <ele>342</ele>
        <time>2012-06-11T09:57:37Z</time>
      </trkpt>
      <trkpt lat="44.56204" lon="2.67295">
        <ele>342</ele>
        <time>2012-06-11T09:57:38Z</time>
      </trkpt>
      <trkpt lat="44.56204" lon="2.67298">
        <ele>342</ele>
        <time>2012-06-11T09:57:39Z</time>
      </trkpt>
      <trkpt lat="44.56203" lon="2.673">
        <ele>342</ele>
        <time>2012-06-11T09:57:40Z</time>
      </trkpt>
      <trkpt lat="44.56203" lon="2.67302">
        <ele>342</ele>
        <time>2012-06-11T09:57:41Z</time>
      </trkpt>
      <trkpt lat="44.56202" lon="2.67304">
        <ele>342</ele>
        <time>2012-06-11T09:57:42Z</time>
      </trkpt>
      <trkpt lat="44.56202" lon="2.67306">
        <ele>342</ele>
        <time>2012-06-11T09:57:43Z</time>
      </trkpt>
      <trkpt lat="44.56201" lon="2.67309">
        <ele>342</ele>
        <time>2012-06-11T09:57:44Z</time>
      </trkpt>
      <trkpt lat="44.562" lon="2.67311">
        <ele>342</ele>
        <time>2012-06-11T09:57:45Z</time>
      </trkpt>
      <trkpt lat="44.562" lon="2.67313">
        <ele>342</ele>
        <time>2012-06-11T09:57:46Z</time>
      </trkpt>
      <trkpt lat="44.562" lon="2.67315">
        <ele>342</ele>
        <time>2012-06-11T09:57:47Z</time>
      </trkpt>
      <trkpt lat="44.56199" lon="2.67318">
        <ele>342</ele>
        <time>2012-06-11T09:57:48Z</time>
      </trkpt>
      <trkpt lat="44.56198" lon="2.6732">
        <ele>342</ele>
        <time>2012-06-11T09:57:49Z</time>
      </trkpt>
      <trkpt lat="44.56197" lon="2.67322">
        <ele>342</ele>
        <time>2012-06-11T09:57:50Z</time>
      </trkpt>
      <trkpt lat="44.56197" lon="2.67324">
        <ele>342</ele>
        <time>2012-06-11T09:57:51Z</time>
      </trkpt>
      <trkpt lat="44.56196" lon="2.67326">
        <ele>342</ele>
        <time>2012-06-11T09:57:52Z</time>
      </trkpt>
      <trkpt lat="44.56195" lon="2.67327">
        <ele>342</ele>
        <time>2012-06-11T09:57:53Z</time>
      </trkpt>
      <trkpt lat="44.56194" lon="2.67329">
        <ele>342</ele>
        <time>2012-06-11T09:57:54Z</time>
      </trkpt>
      <trkpt lat="44.56194" lon="2.67331">
        <ele>342</ele>
        <time>2012-06-11T09:57:55Z</time>
      </trkpt>
      <trkpt lat="44.56193" lon="2.67333">
        <ele>342</ele>
        <time>2012-06-11T09:57:56Z</time>
      </trkpt>
      <trkpt lat="44.56192" lon="2.67335">
        <ele>342</ele>
        <time>2012-06-11T09:57:57Z</time>
      </trkpt>
      <trkpt lat="44.56191" lon="2.67337">
        <ele>342</ele>
        <time>2012-06-11T09:57:58Z</time>
      </trkpt>
      <trkpt lat="44.5619" lon="2.67339">
        <ele>342</ele>
        <time>2012-06-11T09:57:59Z</time>
      </trkpt>
      <trkpt lat="44.5619" lon="2.67341">
        <ele>342</ele>
        <time>2012-06-11T09:58:00Z</time>
      </trkpt>
      <trkpt lat="44.56189" lon="2.67343">
        <ele>342</ele>
        <time>2012-06-11T09:58:01Z</time>
      </trkpt>
      <trkpt lat="44.56188" lon="2.67345">
        <ele>342</ele>
        <time>2012-06-11T09:58:02Z</time>
      </trkpt>
      <trkpt lat="44.56187" lon="2.67347">
        <ele>342</ele>
        <time>2012-06-11T09:58:03Z</time>
      </trkpt>
      <trkpt lat="44.56186" lon="2.67349">
        <ele>342</ele>
        <time>2012-06-11T09:58:04Z</time>
      </trkpt>
      <trkpt lat="44.56186" lon="2.6735">
        <ele>342</ele>
        <time>2012-06-11T09:58:05Z</time>
      </trkpt>
      <trkpt lat="44.56184" lon="2.67352">
        <ele>342</ele>
        <time>2012-06-11T09:58:06Z</time>
      </trkpt>
      <trkpt lat="44.56184" lon="2.67354">
        <ele>342</ele>
        <time>2012-06-11T09:58:07Z</time>
      </trkpt>
      <trkpt lat="44.56183" lon="2.67357">
        <ele>342</ele>
        <time>2012-06-11T09:58:08Z</time>
      </trkpt>
      <trkpt lat="44.56182" lon="2.67358">
        <ele>342</ele>
        <time>2012-06-11T09:58:09Z</time>
      </trkpt>
      <trkpt lat="44.56181" lon="2.67361">
        <ele>342</ele>
        <time>2012-06-11T09:58:10Z</time>
      </trkpt>
      <trkpt lat="44.5618" lon="2.67363">
        <ele>342</ele>
        <time>2012-06-11T09:58:11Z</time>
      </trkpt>
      <trkpt lat="44.56179" lon="2.67365">
        <ele>342</ele>
        <time>2012-06-11T09:58:12Z</time>
      </trkpt>
      <trkpt lat="44.56179" lon="2.67366">
        <ele>342</ele>
        <time>2012-06-11T09:58:13Z</time>
      </trkpt>
      <trkpt lat="44.56178" lon="2.67368">
        <ele>342</ele>
        <time>2012-06-11T09:58:14Z</time>
      </trkpt>
      <trkpt lat="44.56176" lon="2.6737">
        <ele>342</ele>
        <time>2012-06-11T09:58:15Z</time>
      </trkpt>
      <trkpt lat="44.56176" lon="2.67372">
        <ele>342</ele>
        <time>2012-06-11T09:58:16Z</time>
      </trkpt>
      <trkpt lat="44.56175" lon="2.67374">
        <ele>343</ele>
        <time>2012-06-11T09:58:17Z</time>
      </trkpt>
      <trkpt lat="44.56174" lon="2.67375">
        <ele>343</ele>
        <time>2012-06-11T09:58:18Z</time>
      </trkpt>
      <trkpt lat="44.56173" lon="2.67377">
        <ele>343</ele>
        <time>2012-06-11T09:58:19Z</time>
      </trkpt>
      <trkpt lat="44.56172" lon="2.67379">
        <ele>343</ele>
        <time>2012-06-11T09:58:20Z</time>
      </trkpt>
      <trkpt lat="44.56171" lon="2.67381">
        <ele>344</ele>
        <time>2012-06-11T09:58:21Z</time>
      </trkpt>
      <trkpt lat="44.56171" lon="2.67382">
        <ele>344</ele>
        <time>2012-06-11T09:58:22Z</time>
      </trkpt>
      <trkpt lat="44.5617" lon="2.67384">
        <ele>344</ele>
        <time>2012-06-11T09:58:23Z</time>
      </trkpt>
      <trkpt lat="44.56169" lon="2.67386">
        <ele>344</ele>
        <time>2012-06-11T09:58:24Z</time>
      </trkpt>
      <trkpt lat="44.56168" lon="2.67388">
        <ele>344</ele>
        <time>2012-06-11T09:58:25Z</time>
      </trkpt>
      <trkpt lat="44.56167" lon="2.6739">
        <ele>344</ele>
        <time>2012-06-11T09:58:26Z</time>
      </trkpt>
      <trkpt lat="44.56166" lon="2.67392">
        <ele>344</ele>
        <time>2012-06-11T09:58:27Z</time>
      </trkpt>
      <trkpt lat="44.56166" lon="2.67394">
        <ele>344</ele>
        <time>2012-06-11T09:58:28Z</time>
      </trkpt>
      <trkpt lat="44.56165" lon="2.67396">
        <ele>344</ele>
        <time>2012-06-11T09:58:29Z</time>
      </trkpt>
      <trkpt lat="44.56165" lon="2.67398">
        <ele>344</ele>
        <time>2012-06-11T09:58:30Z</time>
      </trkpt>
      <trkpt lat="44.56164" lon="2.674">
        <ele>344</ele>
        <time>2012-06-11T09:58:31Z</time>
      </trkpt>
      <trkpt lat="44.56163" lon="2.67402">
        <ele>344</ele>
        <time>2012-06-11T09:58:32Z</time>
      </trkpt>
      <trkpt lat="44.56162" lon="2.67404">
        <ele>344</ele>
        <time>2012-06-11T09:58:33Z</time>
      </trkpt>
      <trkpt lat="44.56161" lon="2.67406">
        <ele>344</ele>
        <time>2012-06-11T09:58:34Z</time>
      </trkpt>
      <trkpt lat="44.5616" lon="2.67407">
        <ele>345</ele>
        <time>2012-06-11T09:58:35Z</time>
      </trkpt>
      <trkpt lat="44.56159" lon="2.67409">
        <ele>345</ele>
        <time>2012-06-11T09:58:36Z</time>
      </trkpt>
      <trkpt lat="44.56158" lon="2.67411">
        <ele>345</ele>
        <time>2012-06-11T09:58:37Z</time>
      </trkpt>
      <trkpt lat="44.56158" lon="2.67413">
        <ele>345</ele>
        <time>2012-06-11T09:58:38Z</time>
      </trkpt>
      <trkpt lat="44.56157" lon="2.67415">
        <ele>345</ele>
        <time>2012-06-11T09:58:39Z</time>
      </trkpt>
      <trkpt lat="44.56156" lon="2.67417">
        <ele>345</ele>
        <time>2012-06-11T09:58:40Z</time>
      </trkpt>
      <trkpt lat="44.56155" lon="2.67419">
        <ele>345</ele>
        <time>2012-06-11T09:58:41Z</time>
      </trkpt>
      <trkpt lat="44.56155" lon="2.67421">
        <ele>345</ele>
        <time>2012-06-11T09:58:42Z</time>
      </trkpt>
      <trkpt lat="44.56154" lon="2.67423">
        <ele>345</ele>
        <time>2012-06-11T09:58:43Z</time>
      </trkpt>
      <trkpt lat="44.56153" lon="2.67425">
        <ele>345</ele>
        <time>2012-06-11T09:58:44Z</time>
      </trkpt>
      <trkpt lat="44.56153" lon="2.67428">
        <ele>345</ele>
        <time>2012-06-11T09:58:45Z</time>
      </trkpt>
      <trkpt lat="44.56152" lon="2.6743">
        <ele>345</ele>
        <time>2012-06-11T09:58:46Z</time>
      </trkpt>
      <trkpt lat="44.56151" lon="2.67432">
        <ele>345</ele>
        <time>2012-06-11T09:58:47Z</time>
      </trkpt>
      <trkpt lat="44.56151" lon="2.67433">
        <ele>345</ele>
        <time>2012-06-11T09:58:48Z</time>
      </trkpt>
      <trkpt lat="44.5615" lon="2.67436">
        <ele>345</ele>
        <time>2012-06-11T09:58:49Z</time>
      </trkpt>
      <trkpt lat="44.5615" lon="2.67438">
        <ele>345</ele>
        <time>2012-06-11T09:58:50Z</time>
      </trkpt>
      <trkpt lat="44.56149" lon="2.6744">
        <ele>345</ele>
        <time>2012-06-11T09:58:51Z</time>
      </trkpt>
      <trkpt lat="44.56149" lon="2.67442">
        <ele>345</ele>
        <time>2012-06-11T09:58:52Z</time>
      </trkpt>
      <trkpt lat="44.56148" lon="2.67444">
        <ele>345</ele>
        <time>2012-06-11T09:58:53Z</time>
      </trkpt>
      <trkpt lat="44.56147" lon="2.67446">
        <ele>345</ele>
        <time>2012-06-11T09:58:54Z</time>
      </trkpt>
      <trkpt lat="44.56147" lon="2.67448">
        <ele>345</ele>
        <time>2012-06-11T09:58:55Z</time>
      </trkpt>
      <trkpt lat="44.56147" lon="2.6745">
        <ele>345</ele>
        <time>2012-06-11T09:58:56Z</time>
      </trkpt>
      <trkpt lat="44.56146" lon="2.67452">
        <ele>345</ele>
        <time>2012-06-11T09:58:57Z</time>
      </trkpt>
      <trkpt lat="44.56145" lon="2.67454">
        <ele>345</ele>
        <time>2012-06-11T09:58:58Z</time>
      </trkpt>
      <trkpt lat="44.56145" lon="2.67456">
        <ele>345</ele>
        <time>2012-06-11T09:58:59Z</time>
      </trkpt>
      <trkpt lat="44.56144" lon="2.67459">
        <ele>345</ele>
        <time>2012-06-11T09:59:00Z</time>
      </trkpt>
      <trkpt lat="44.56143" lon="2.67461">
        <ele>345</ele>
        <time>2012-06-11T09:59:01Z</time>
      </trkpt>
      <trkpt lat="44.56142" lon="2.67463">
        <ele>345</ele>
        <time>2012-06-11T09:59:02Z</time>
      </trkpt>
      <trkpt lat="44.56142" lon="2.67464">
        <ele>345</ele>
        <time>2012-06-11T09:59:03Z</time>
      </trkpt>
      <trkpt lat="44.56141" lon="2.67467">
        <ele>345</ele>
        <time>2012-06-11T09:59:04Z</time>
      </trkpt>
      <trkpt lat="44.56141" lon="2.67469">
        <ele>345</ele>
        <time>2012-06-11T09:59:05Z</time>
      </trkpt>
      <trkpt lat="44.5614" lon="2.67471">
        <ele>345</ele>
        <time>2012-06-11T09:59:06Z</time>
      </trkpt>
      <trkpt lat="44.56139" lon="2.67473">
        <ele>345</ele>
        <time>2012-06-11T09:59:07Z</time>
      </trkpt>
      <trkpt lat="44.56139" lon="2.67476">
        <ele>345</ele>
        <time>2012-06-11T09:59:08Z</time>
      </trkpt>
      <trkpt lat="44.56138" lon="2.67478">
        <ele>345</ele>
        <time>2012-06-11T09:59:09Z</time>
      </trkpt>
      <trkpt lat="44.56137" lon="2.6748">
        <ele>345</ele>
        <time>2012-06-11T09:59:10Z</time>
      </trkpt>
      <trkpt lat="44.56137" lon="2.67482">
        <ele>345</ele>
        <time>2012-06-11T09:59:11Z</time>
      </trkpt>
      <trkpt lat="44.56136" lon="2.67484">
        <ele>345</ele>
        <time>2012-06-11T09:59:12Z</time>
      </trkpt>
      <trkpt lat="44.56135" lon="2.67486">
        <ele>345</ele>
        <time>2012-06-11T09:59:13Z</time>
      </trkpt>
      <trkpt lat="44.56135" lon="2.67488">
        <ele>345</ele>
        <time>2012-06-11T09:59:14Z</time>
      </trkpt>
      <trkpt lat="44.56134" lon="2.6749">
        <ele>345</ele>
        <time>2012-06-11T09:59:15Z</time>
      </trkpt>
      <trkpt lat="44.56134" lon="2.67491">
        <ele>345</ele>
        <time>2012-06-11T09:59:16Z</time>
      </trkpt>
      <trkpt lat="44.56133" lon="2.67493">
        <ele>345</ele>
        <time>2012-06-11T09:59:17Z</time>
      </trkpt>
      <trkpt lat="44.56133" lon="2.67495">
        <ele>345</ele>
        <time>2012-06-11T09:59:18Z</time>
      </trkpt>
      <trkpt lat="44.56132" lon="2.67497">
        <ele>345</ele>
        <time>2012-06-11T09:59:19Z</time>
      </trkpt>
      <trkpt lat="44.56131" lon="2.67499">
        <ele>345</ele>
        <time>2012-06-11T09:59:20Z</time>
      </trkpt>
      <trkpt lat="44.56131" lon="2.67502">
        <ele>345</ele>
        <time>2012-06-11T09:59:21Z</time>
      </trkpt>
      <trkpt lat="44.5613" lon="2.67504">
        <ele>345</ele>
        <time>2012-06-11T09:59:22Z</time>
      </trkpt>
      <trkpt lat="44.5613" lon="2.67506">
        <ele>345</ele>
        <time>2012-06-11T09:59:23Z</time>
      </trkpt>
      <trkpt lat="44.56129" lon="2.67509">
        <ele>345</ele>
        <time>2012-06-11T09:59:24Z</time>
      </trkpt>
      <trkpt lat="44.56128" lon="2.67511">
        <ele>345</ele>
        <time>2012-06-11T09:59:25Z</time>
      </trkpt>
      <trkpt lat="44.56128" lon="2.67513">
        <ele>345</ele>
        <time>2012-06-11T09:59:26Z</time>
      </trkpt>
      <trkpt lat="44.56127" lon="2.67515">
        <ele>345</ele>
        <time>2012-06-11T09:59:27Z</time>
      </trkpt>
      <trkpt lat="44.56127" lon="2.67517">
        <ele>345</ele>
        <time>2012-06-11T09:59:28Z</time>
      </trkpt>
      <trkpt lat="44.56126" lon="2.67519">
        <ele>345</ele>
        <time>2012-06-11T09:59:29Z</time>
      </trkpt>
      <trkpt lat="44.56126" lon="2.67521">
        <ele>345</ele>
        <time>2012-06-11T09:59:30Z</time>
      </trkpt>
      <trkpt lat="44.56125" lon="2.67523">
        <ele>345</ele>
        <time>2012-06-11T09:59:31Z</time>
      </trkpt>
      <trkpt lat="44.56124" lon="2.67526">
        <ele>345</ele>
        <time>2012-06-11T09:59:32Z</time>
      </trkpt>
      <trkpt lat="44.56124" lon="2.67528">
        <ele>345</ele>
        <time>2012-06-11T09:59:33Z</time>
      </trkpt>
      <trkpt lat="44.56123" lon="2.67531">
        <ele>345</ele>
        <time>2012-06-11T09:59:34Z</time>
      </trkpt>
      <trkpt lat="44.56123" lon="2.67533">
        <ele>345</ele>
        <time>2012-06-11T09:59:35Z</time>
      </trkpt>
      <trkpt lat="44.56122" lon="2.67535">
        <ele>345</ele>
        <time>2012-06-11T09:59:36Z</time>
      </trkpt>
      <trkpt lat="44.56121" lon="2.67537">
        <ele>345</ele>
        <time>2012-06-11T09:59:37Z</time>
      </trkpt>
      <trkpt lat="44.56121" lon="2.67539">
        <ele>345</ele>
        <time>2012-06-11T09:59:38Z</time>
      </trkpt>
      <trkpt lat="44.56121" lon="2.67541">
        <ele>345</ele>
        <time>2012-06-11T09:59:39Z</time>
      </trkpt>
      <trkpt lat="44.5612" lon="2.67544">
        <ele>345</ele>
        <time>2012-06-11T09:59:40Z</time>
      </trkpt>
      <trkpt lat="44.5612" lon="2.67546">
        <ele>345</ele>
        <time>2012-06-11T09:59:41Z</time>
      </trkpt>
      <trkpt lat="44.56119" lon="2.67548">
        <ele>345</ele>
        <time>2012-06-11T09:59:42Z</time>
      </trkpt>
      <trkpt lat="44.56119" lon="2.6755">
        <ele>345</ele>
        <time>2012-06-11T09:59:43Z</time>
      </trkpt>
      <trkpt lat="44.56118" lon="2.67552">
        <ele>345</ele>
        <time>2012-06-11T09:59:44Z</time>
      </trkpt>
      <trkpt lat="44.56118" lon="2.67554">
        <ele>345</ele>
        <time>2012-06-11T09:59:45Z</time>
      </trkpt>
      <trkpt lat="44.56118" lon="2.67556">
        <ele>345</ele>
        <time>2012-06-11T09:59:46Z</time>
      </trkpt>
      <trkpt lat="44.56117" lon="2.6756">
        <ele>345</ele>
        <time>2012-06-11T09:59:48Z</time>
      </trkpt>
      <trkpt lat="44.56117" lon="2.67562">
        <ele>345</ele>
        <time>2012-06-11T09:59:49Z</time>
      </trkpt>
      <trkpt lat="44.56116" lon="2.67565">
        <ele>345</ele>
        <time>2012-06-11T09:59:50Z</time>
      </trkpt>
      <trkpt lat="44.56116" lon="2.67567">
        <ele>345</ele>
        <time>2012-06-11T09:59:51Z</time>
      </trkpt>
      <trkpt lat="44.56116" lon="2.67569">
        <ele>345</ele>
        <time>2012-06-11T09:59:52Z</time>
      </trkpt>
      <trkpt lat="44.56115" lon="2.67572">
        <ele>345</ele>
        <time>2012-06-11T09:59:53Z</time>
      </trkpt>
      <trkpt lat="44.56115" lon="2.67576">
        <ele>345</ele>
        <time>2012-06-11T09:59:55Z</time>
      </trkpt>
      <trkpt lat="44.56115" lon="2.67578">
        <ele>345</ele>
        <time>2012-06-11T09:59:56Z</time>
      </trkpt>
      <trkpt lat="44.56114" lon="2.67581">
        <ele>345</ele>
        <time>2012-06-11T09:59:57Z</time>
      </trkpt>
      <trkpt lat="44.56114" lon="2.67583">
        <ele>345</ele>
        <time>2012-06-11T09:59:58Z</time>
      </trkpt>
      <trkpt lat="44.56113" lon="2.67587">
        <ele>345</ele>
        <time>2012-06-11T10:00:00Z</time>
      </trkpt>
      <trkpt lat="44.56113" lon="2.6759">
        <ele>345</ele>
        <time>2012-06-11T10:00:01Z</time>
      </trkpt>
      <trkpt lat="44.56113" lon="2.67594">
        <ele>345</ele>
        <time>2012-06-11T10:00:03Z</time>
      </trkpt>
      <trkpt lat="44.56112" lon="2.67603">
        <ele>345</ele>
        <time>2012-06-11T10:00:07Z</time>
      </trkpt>
      <trkpt lat="44.56112" lon="2.67606">
        <ele>345</ele>
        <time>2012-06-11T10:00:08Z</time>
      </trkpt>
      <trkpt lat="44.56112" lon="2.67622">
        <ele>345</ele>
        <time>2012-06-11T10:00:15Z</time>
      </trkpt>
      <trkpt lat="44.56113" lon="2.67624">
        <ele>345</ele>
        <time>2012-06-11T10:00:16Z</time>
      </trkpt>
      <trkpt lat="44.56113" lon="2.67629">
        <ele>345</ele>
        <time>2012-06-11T10:00:18Z</time>
      </trkpt>
      <trkpt lat="44.56113" lon="2.67636">
        <ele>345</ele>
        <time>2012-06-11T10:00:21Z</time>
      </trkpt>
      <trkpt lat="44.56114" lon="2.67638">
        <ele>345</ele>
        <time>2012-06-11T10:00:22Z</time>
      </trkpt>
      <trkpt lat="44.56114" lon="2.67641">
        <ele>345</ele>
        <time>2012-06-11T10:00:23Z</time>
      </trkpt>
      <trkpt lat="44.56115" lon="2.67643">
        <ele>345</ele>
        <time>2012-06-11T10:00:24Z</time>
      </trkpt>
      <trkpt lat="44.56115" lon="2.67645">
        <ele>345</ele>
        <time>2012-06-11T10:00:25Z</time>
      </trkpt>
      <trkpt lat="44.56116" lon="2.67647">
        <ele>345</ele>
        <time>2012-06-11T10:00:26Z</time>
      </trkpt>
      <trkpt lat="44.56116" lon="2.67649">
        <ele>345</ele>
        <time>2012-06-11T10:00:27Z</time>
      </trkpt>
      <trkpt lat="44.56116" lon="2.67652">
        <ele>345</ele>
        <time>2012-06-11T10:00:28Z</time>
      </trkpt>
      <trkpt lat="44.56117" lon="2.67654">
        <ele>345</ele>
        <time>2012-06-11T10:00:29Z</time>
      </trkpt>
      <trkpt lat="44.56117" lon="2.67656">
        <ele>345</ele>
        <time>2012-06-11T10:00:30Z</time>
      </trkpt>
      <trkpt lat="44.56118" lon="2.67659">
        <ele>345</ele>
        <time>2012-06-11T10:00:31Z</time>
      </trkpt>
      <trkpt lat="44.56118" lon="2.67661">
        <ele>345</ele>
        <time>2012-06-11T10:00:32Z</time>
      </trkpt>
      <trkpt lat="44.56119" lon="2.67663">
        <ele>345</ele>
        <time>2012-06-11T10:00:33Z</time>
      </trkpt>
      <trkpt lat="44.5612" lon="2.67664">
        <ele>345</ele>
        <time>2012-06-11T10:00:34Z</time>
      </trkpt>
      <trkpt lat="44.56121" lon="2.67667">
        <ele>345</ele>
        <time>2012-06-11T10:00:35Z</time>
      </trkpt>
      <trkpt lat="44.56121" lon="2.67669">
        <ele>345</ele>
        <time>2012-06-11T10:00:36Z</time>
      </trkpt>
      <trkpt lat="44.56122" lon="2.6767">
        <ele>345</ele>
        <time>2012-06-11T10:00:37Z</time>
      </trkpt>
      <trkpt lat="44.56123" lon="2.67672">
        <ele>345</ele>
        <time>2012-06-11T10:00:38Z</time>
      </trkpt>
      <trkpt lat="44.56124" lon="2.67674">
        <ele>345</ele>
        <time>2012-06-11T10:00:39Z</time>
      </trkpt>
      <trkpt lat="44.56125" lon="2.67676">
        <ele>345</ele>
        <time>2012-06-11T10:00:40Z</time>
      </trkpt>
      <trkpt lat="44.56126" lon="2.67678">
        <ele>345</ele>
        <time>2012-06-11T10:00:41Z</time>
      </trkpt>
      <trkpt lat="44.56126" lon="2.6768">
        <ele>345</ele>
        <time>2012-06-11T10:00:42Z</time>
      </trkpt>
      <trkpt lat="44.56127" lon="2.67682">
        <ele>345</ele>
        <time>2012-06-11T10:00:43Z</time>
      </trkpt>
      <trkpt lat="44.56128" lon="2.67683">
        <ele>345</ele>
        <time>2012-06-11T10:00:44Z</time>
      </trkpt>
      <trkpt lat="44.56129" lon="2.67685">
        <ele>345</ele>
        <time>2012-06-11T10:00:45Z</time>
      </trkpt>
      <trkpt lat="44.5613" lon="2.67687">
        <ele>345</ele>
        <time>2012-06-11T10:00:46Z</time>
      </trkpt>
      <trkpt lat="44.56131" lon="2.67689">
        <ele>345</ele>
        <time>2012-06-11T10:00:47Z</time>
      </trkpt>
      <trkpt lat="44.56132" lon="2.67691">
        <ele>345</ele>
        <time>2012-06-11T10:00:48Z</time>
      </trkpt>
      <trkpt lat="44.56133" lon="2.67693">
        <ele>345</ele>
        <time>2012-06-11T10:00:49Z</time>
      </trkpt>
      <trkpt lat="44.56134" lon="2.67695">
        <ele>345</ele>
        <time>2012-06-11T10:00:50Z</time>
      </trkpt>
      <trkpt lat="44.56135" lon="2.67696">
        <ele>345</ele>
        <time>2012-06-11T10:00:51Z</time>
      </trkpt>
      <trkpt lat="44.56136" lon="2.67698">
        <ele>345</ele>
        <time>2012-06-11T10:00:52Z</time>
      </trkpt>
      <trkpt lat="44.56137" lon="2.677">
        <ele>345</ele>
        <time>2012-06-11T10:00:53Z</time>
      </trkpt>
      <trkpt lat="44.56138" lon="2.67702">
        <ele>345</ele>
        <time>2012-06-11T10:00:54Z</time>
      </trkpt>
      <trkpt lat="44.56139" lon="2.67704">
        <ele>345</ele>
        <time>2012-06-11T10:00:55Z</time>
      </trkpt>
      <trkpt lat="44.5614" lon="2.67705">
        <ele>345</ele>
        <time>2012-06-11T10:00:56Z</time>
      </trkpt>
      <trkpt lat="44.56141" lon="2.67707">
        <ele>345</ele>
        <time>2012-06-11T10:00:57Z</time>
      </trkpt>
      <trkpt lat="44.56142" lon="2.67708">
        <ele>345</ele>
        <time>2012-06-11T10:00:58Z</time>
      </trkpt>
      <trkpt lat="44.56144" lon="2.6771">
        <ele>345</ele>
        <time>2012-06-11T10:00:59Z</time>
      </trkpt>
      <trkpt lat="44.56205" lon="2.67839">
        <ele>345</ele>
        <time>2012-06-11T10:02:08Z</time>
      </trkpt>
    </trkseg>
  </trk>
</gpx>